<?xml version="1.0" encoding="UTF-8" standalone="no" ?>
<gpx xmlns="http://www.topografix.com/GPX/1/1" xmlns:xsi="http://www.w3.org/2001/XMLSchema-instance" xsi:schemaLocation="http://www.topografix.com/GPX/1/1 http://www.topografix.com/GPX/1/1/gpx.xsd" version="1.1" creator="VisuGPX - https://www.visugpx.com">
  <metadata>
    <name>2016-08-23 Bike ride-Saint-Julien-sur-Bibost&gt;Croix de Mazieux&gt;Sarcey</name>
    <desc><![CDATA[2016-08-23 Bike ride-Saint-Julien-sur-Bibost>Croix de Mazieux>Sarcey]]></desc>
  </metadata>
  <wpt lat="45.92454" lon="4.73714">
    <ele>174</ele>
    <name><![CDATA[2016-08-23 10:11 (Start)]]></name>
  </wpt>
  <wpt lat="45.92459" lon="4.73708">
    <ele>174</ele>
    <name><![CDATA[2016-08-23 10:11 (End)]]></name>
    <desc><![CDATA[Created by Google My Tracks on Android  Name: 2016-08-23 10:11 Activity type: biking Description: - Total distance: 78.45 km (48.7 mi) Total time: 4:36:11 Moving time: 4:12:52 Average speed: 17.04 km/h (10.6 mi/h) Average moving speed: 18.61 km/h (11.6 mi/h) Max speed: 47.63 km/h (29.6 mi/h) Average pace: 3:31 min/km (5:40 min/mi) Average moving pace: 3:13 min/km (5:11 min/mi) Fastest pace: 1:16 min/km (2:02 min/mi) Max elevation: 704 m (2309 ft) Min elevation: 171 m (562 ft) Elevation gain: 1299 m (4262 ft) Max grade: 13 % Min grade: -48 % Recorded: 23/08/2016 10:11]]></desc>
  </wpt>
  <trk>
    <name><![CDATA[2016-08-23 10:11]]></name>
    <trkseg>
      <trkpt lat="45.92454" lon="4.73714">
        <ele>174</ele>
        <time>2016-08-23T08:11:42.225Z</time>
      </trkpt>
      <trkpt lat="45.92459" lon="4.7371">
        <ele>174</ele>
        <time>2016-08-23T08:13:14Z</time>
      </trkpt>
      <trkpt lat="45.92462" lon="4.73708">
        <ele>174</ele>
        <time>2016-08-23T08:13:15Z</time>
      </trkpt>
      <trkpt lat="45.92468" lon="4.73704">
        <ele>174</ele>
        <time>2016-08-23T08:13:17Z</time>
      </trkpt>
      <trkpt lat="45.9247" lon="4.73701">
        <ele>174</ele>
        <time>2016-08-23T08:13:18Z</time>
      </trkpt>
      <trkpt lat="45.92473" lon="4.73689">
        <ele>174</ele>
        <time>2016-08-23T08:13:21Z</time>
      </trkpt>
      <trkpt lat="45.92474" lon="4.73685">
        <ele>174</ele>
        <time>2016-08-23T08:13:22Z</time>
      </trkpt>
      <trkpt lat="45.92476" lon="4.73673">
        <ele>175</ele>
        <time>2016-08-23T08:13:25Z</time>
      </trkpt>
      <trkpt lat="45.92477" lon="4.73668">
        <ele>175</ele>
        <time>2016-08-23T08:13:26Z</time>
      </trkpt>
      <trkpt lat="45.92477" lon="4.73659">
        <ele>174</ele>
        <time>2016-08-23T08:13:28Z</time>
      </trkpt>
      <trkpt lat="45.92478" lon="4.73654">
        <ele>174</ele>
        <time>2016-08-23T08:13:29Z</time>
      </trkpt>
      <trkpt lat="45.92479" lon="4.73645">
        <ele>174</ele>
        <time>2016-08-23T08:13:31Z</time>
      </trkpt>
      <trkpt lat="45.92479" lon="4.73639">
        <ele>174</ele>
        <time>2016-08-23T08:13:32Z</time>
      </trkpt>
      <trkpt lat="45.92479" lon="4.73633">
        <ele>174</ele>
        <time>2016-08-23T08:13:33Z</time>
      </trkpt>
      <trkpt lat="45.9248" lon="4.73626">
        <ele>174</ele>
        <time>2016-08-23T08:13:34Z</time>
      </trkpt>
      <trkpt lat="45.9248" lon="4.73619">
        <ele>174</ele>
        <time>2016-08-23T08:13:35Z</time>
      </trkpt>
      <trkpt lat="45.92479" lon="4.73612">
        <ele>174</ele>
        <time>2016-08-23T08:13:36Z</time>
      </trkpt>
      <trkpt lat="45.92478" lon="4.73606">
        <ele>174</ele>
        <time>2016-08-23T08:13:37Z</time>
      </trkpt>
      <trkpt lat="45.92477" lon="4.73599">
        <ele>174</ele>
        <time>2016-08-23T08:13:38Z</time>
      </trkpt>
      <trkpt lat="45.92477" lon="4.73593">
        <ele>174</ele>
        <time>2016-08-23T08:13:39Z</time>
      </trkpt>
      <trkpt lat="45.92476" lon="4.73586">
        <ele>174</ele>
        <time>2016-08-23T08:13:40Z</time>
      </trkpt>
      <trkpt lat="45.92474" lon="4.73574">
        <ele>173</ele>
        <time>2016-08-23T08:13:42Z</time>
      </trkpt>
      <trkpt lat="45.92473" lon="4.73568">
        <ele>173</ele>
        <time>2016-08-23T08:13:43Z</time>
      </trkpt>
      <trkpt lat="45.92471" lon="4.73557">
        <ele>173</ele>
        <time>2016-08-23T08:13:45Z</time>
      </trkpt>
      <trkpt lat="45.9247" lon="4.73553">
        <ele>173</ele>
        <time>2016-08-23T08:13:46Z</time>
      </trkpt>
      <trkpt lat="45.92464" lon="4.73545">
        <ele>173</ele>
        <time>2016-08-23T08:13:49Z</time>
      </trkpt>
      <trkpt lat="45.92461" lon="4.73545">
        <ele>173</ele>
        <time>2016-08-23T08:13:50Z</time>
      </trkpt>
      <trkpt lat="45.92453" lon="4.73548">
        <ele>174</ele>
        <time>2016-08-23T08:13:52Z</time>
      </trkpt>
      <trkpt lat="45.92449" lon="4.7355">
        <ele>174</ele>
        <time>2016-08-23T08:13:53Z</time>
      </trkpt>
      <trkpt lat="45.92444" lon="4.73552">
        <ele>174</ele>
        <time>2016-08-23T08:13:54Z</time>
      </trkpt>
      <trkpt lat="45.9244" lon="4.73555">
        <ele>174</ele>
        <time>2016-08-23T08:13:55Z</time>
      </trkpt>
      <trkpt lat="45.92435" lon="4.73558">
        <ele>174</ele>
        <time>2016-08-23T08:13:56Z</time>
      </trkpt>
      <trkpt lat="45.9243" lon="4.7356">
        <ele>174</ele>
        <time>2016-08-23T08:13:57Z</time>
      </trkpt>
      <trkpt lat="45.92426" lon="4.73562">
        <ele>174</ele>
        <time>2016-08-23T08:13:58Z</time>
      </trkpt>
      <trkpt lat="45.92421" lon="4.73565">
        <ele>174</ele>
        <time>2016-08-23T08:13:59Z</time>
      </trkpt>
      <trkpt lat="45.92416" lon="4.73567">
        <ele>173</ele>
        <time>2016-08-23T08:14:00Z</time>
      </trkpt>
      <trkpt lat="45.92411" lon="4.73569">
        <ele>173</ele>
        <time>2016-08-23T08:14:01Z</time>
      </trkpt>
      <trkpt lat="45.92406" lon="4.73572">
        <ele>173</ele>
        <time>2016-08-23T08:14:02Z</time>
      </trkpt>
      <trkpt lat="45.92401" lon="4.73574">
        <ele>173</ele>
        <time>2016-08-23T08:14:03Z</time>
      </trkpt>
      <trkpt lat="45.92395" lon="4.73578">
        <ele>173</ele>
        <time>2016-08-23T08:14:04Z</time>
      </trkpt>
      <trkpt lat="45.9239" lon="4.7358">
        <ele>173</ele>
        <time>2016-08-23T08:14:05Z</time>
      </trkpt>
      <trkpt lat="45.92384" lon="4.73583">
        <ele>173</ele>
        <time>2016-08-23T08:14:06Z</time>
      </trkpt>
      <trkpt lat="45.92379" lon="4.73585">
        <ele>173</ele>
        <time>2016-08-23T08:14:07Z</time>
      </trkpt>
      <trkpt lat="45.92374" lon="4.73588">
        <ele>173</ele>
        <time>2016-08-23T08:14:08Z</time>
      </trkpt>
      <trkpt lat="45.92369" lon="4.7359">
        <ele>173</ele>
        <time>2016-08-23T08:14:09Z</time>
      </trkpt>
      <trkpt lat="45.92364" lon="4.73593">
        <ele>173</ele>
        <time>2016-08-23T08:14:10Z</time>
      </trkpt>
      <trkpt lat="45.92359" lon="4.73595">
        <ele>173</ele>
        <time>2016-08-23T08:14:11Z</time>
      </trkpt>
      <trkpt lat="45.92355" lon="4.73598">
        <ele>173</ele>
        <time>2016-08-23T08:14:12Z</time>
      </trkpt>
      <trkpt lat="45.9235" lon="4.736">
        <ele>173</ele>
        <time>2016-08-23T08:14:13Z</time>
      </trkpt>
      <trkpt lat="45.92346" lon="4.73602">
        <ele>173</ele>
        <time>2016-08-23T08:14:14Z</time>
      </trkpt>
      <trkpt lat="45.92341" lon="4.73604">
        <ele>173</ele>
        <time>2016-08-23T08:14:15Z</time>
      </trkpt>
      <trkpt lat="45.92337" lon="4.73607">
        <ele>173</ele>
        <time>2016-08-23T08:14:16Z</time>
      </trkpt>
      <trkpt lat="45.92332" lon="4.73609">
        <ele>172</ele>
        <time>2016-08-23T08:14:17Z</time>
      </trkpt>
      <trkpt lat="45.92328" lon="4.73612">
        <ele>172</ele>
        <time>2016-08-23T08:14:18Z</time>
      </trkpt>
      <trkpt lat="45.92323" lon="4.73615">
        <ele>172</ele>
        <time>2016-08-23T08:14:19Z</time>
      </trkpt>
      <trkpt lat="45.92317" lon="4.73619">
        <ele>172</ele>
        <time>2016-08-23T08:14:20Z</time>
      </trkpt>
      <trkpt lat="45.9231" lon="4.73623">
        <ele>172</ele>
        <time>2016-08-23T08:14:21Z</time>
      </trkpt>
      <trkpt lat="45.92305" lon="4.73626">
        <ele>172</ele>
        <time>2016-08-23T08:14:22Z</time>
      </trkpt>
      <trkpt lat="45.923" lon="4.73629">
        <ele>172</ele>
        <time>2016-08-23T08:14:23Z</time>
      </trkpt>
      <trkpt lat="45.92295" lon="4.73631">
        <ele>172</ele>
        <time>2016-08-23T08:14:24Z</time>
      </trkpt>
      <trkpt lat="45.92289" lon="4.73634">
        <ele>172</ele>
        <time>2016-08-23T08:14:25Z</time>
      </trkpt>
      <trkpt lat="45.92284" lon="4.73638">
        <ele>172</ele>
        <time>2016-08-23T08:14:26Z</time>
      </trkpt>
      <trkpt lat="45.92278" lon="4.7364">
        <ele>172</ele>
        <time>2016-08-23T08:14:27Z</time>
      </trkpt>
      <trkpt lat="45.92273" lon="4.73643">
        <ele>172</ele>
        <time>2016-08-23T08:14:28Z</time>
      </trkpt>
      <trkpt lat="45.92268" lon="4.73646">
        <ele>172</ele>
        <time>2016-08-23T08:14:29Z</time>
      </trkpt>
      <trkpt lat="45.92263" lon="4.7365">
        <ele>171</ele>
        <time>2016-08-23T08:14:30Z</time>
      </trkpt>
      <trkpt lat="45.92258" lon="4.73653">
        <ele>171</ele>
        <time>2016-08-23T08:14:31Z</time>
      </trkpt>
      <trkpt lat="45.92252" lon="4.73655">
        <ele>171</ele>
        <time>2016-08-23T08:14:32Z</time>
      </trkpt>
      <trkpt lat="45.92247" lon="4.73658">
        <ele>171</ele>
        <time>2016-08-23T08:14:33Z</time>
      </trkpt>
      <trkpt lat="45.92242" lon="4.73662">
        <ele>171</ele>
        <time>2016-08-23T08:14:34Z</time>
      </trkpt>
      <trkpt lat="45.92237" lon="4.73665">
        <ele>171</ele>
        <time>2016-08-23T08:14:35Z</time>
      </trkpt>
      <trkpt lat="45.92231" lon="4.73667">
        <ele>171</ele>
        <time>2016-08-23T08:14:36Z</time>
      </trkpt>
      <trkpt lat="45.92226" lon="4.7367">
        <ele>171</ele>
        <time>2016-08-23T08:14:37Z</time>
      </trkpt>
      <trkpt lat="45.9222" lon="4.73673">
        <ele>171</ele>
        <time>2016-08-23T08:14:38Z</time>
      </trkpt>
      <trkpt lat="45.92214" lon="4.73676">
        <ele>171</ele>
        <time>2016-08-23T08:14:39Z</time>
      </trkpt>
      <trkpt lat="45.92209" lon="4.73679">
        <ele>171</ele>
        <time>2016-08-23T08:14:40Z</time>
      </trkpt>
      <trkpt lat="45.92204" lon="4.73682">
        <ele>171</ele>
        <time>2016-08-23T08:14:41Z</time>
      </trkpt>
      <trkpt lat="45.92198" lon="4.73686">
        <ele>171</ele>
        <time>2016-08-23T08:14:42Z</time>
      </trkpt>
      <trkpt lat="45.92193" lon="4.73688">
        <ele>171</ele>
        <time>2016-08-23T08:14:43Z</time>
      </trkpt>
      <trkpt lat="45.92188" lon="4.73691">
        <ele>171</ele>
        <time>2016-08-23T08:14:44Z</time>
      </trkpt>
      <trkpt lat="45.92182" lon="4.73694">
        <ele>171</ele>
        <time>2016-08-23T08:14:45Z</time>
      </trkpt>
      <trkpt lat="45.92177" lon="4.73697">
        <ele>171</ele>
        <time>2016-08-23T08:14:46Z</time>
      </trkpt>
      <trkpt lat="45.92172" lon="4.73699">
        <ele>171</ele>
        <time>2016-08-23T08:14:47Z</time>
      </trkpt>
      <trkpt lat="45.92166" lon="4.73702">
        <ele>171</ele>
        <time>2016-08-23T08:14:48Z</time>
      </trkpt>
      <trkpt lat="45.92161" lon="4.73704">
        <ele>171</ele>
        <time>2016-08-23T08:14:49Z</time>
      </trkpt>
      <trkpt lat="45.92155" lon="4.73706">
        <ele>171</ele>
        <time>2016-08-23T08:14:50Z</time>
      </trkpt>
      <trkpt lat="45.9215" lon="4.73709">
        <ele>171</ele>
        <time>2016-08-23T08:14:51Z</time>
      </trkpt>
      <trkpt lat="45.92144" lon="4.73711">
        <ele>171</ele>
        <time>2016-08-23T08:14:52Z</time>
      </trkpt>
      <trkpt lat="45.92139" lon="4.73713">
        <ele>171</ele>
        <time>2016-08-23T08:14:53Z</time>
      </trkpt>
      <trkpt lat="45.92133" lon="4.73715">
        <ele>171</ele>
        <time>2016-08-23T08:14:54Z</time>
      </trkpt>
      <trkpt lat="45.92128" lon="4.73716">
        <ele>171</ele>
        <time>2016-08-23T08:14:55Z</time>
      </trkpt>
      <trkpt lat="45.92122" lon="4.73718">
        <ele>171</ele>
        <time>2016-08-23T08:14:56Z</time>
      </trkpt>
      <trkpt lat="45.92116" lon="4.73719">
        <ele>171</ele>
        <time>2016-08-23T08:14:57Z</time>
      </trkpt>
      <trkpt lat="45.92111" lon="4.73721">
        <ele>171</ele>
        <time>2016-08-23T08:14:58Z</time>
      </trkpt>
      <trkpt lat="45.92105" lon="4.73722">
        <ele>171</ele>
        <time>2016-08-23T08:14:59Z</time>
      </trkpt>
      <trkpt lat="45.92099" lon="4.73722">
        <ele>171</ele>
        <time>2016-08-23T08:15:00Z</time>
      </trkpt>
      <trkpt lat="45.92093" lon="4.73724">
        <ele>171</ele>
        <time>2016-08-23T08:15:01Z</time>
      </trkpt>
      <trkpt lat="45.92087" lon="4.73725">
        <ele>171</ele>
        <time>2016-08-23T08:15:02Z</time>
      </trkpt>
      <trkpt lat="45.92081" lon="4.73726">
        <ele>171</ele>
        <time>2016-08-23T08:15:03Z</time>
      </trkpt>
      <trkpt lat="45.92075" lon="4.73727">
        <ele>171</ele>
        <time>2016-08-23T08:15:04Z</time>
      </trkpt>
      <trkpt lat="45.9207" lon="4.73727">
        <ele>171</ele>
        <time>2016-08-23T08:15:05Z</time>
      </trkpt>
      <trkpt lat="45.92064" lon="4.73728">
        <ele>171</ele>
        <time>2016-08-23T08:15:06Z</time>
      </trkpt>
      <trkpt lat="45.92058" lon="4.73728">
        <ele>171</ele>
        <time>2016-08-23T08:15:07Z</time>
      </trkpt>
      <trkpt lat="45.92052" lon="4.73728">
        <ele>171</ele>
        <time>2016-08-23T08:15:08Z</time>
      </trkpt>
      <trkpt lat="45.92046" lon="4.73729">
        <ele>171</ele>
        <time>2016-08-23T08:15:09Z</time>
      </trkpt>
      <trkpt lat="45.9204" lon="4.73729">
        <ele>171</ele>
        <time>2016-08-23T08:15:10Z</time>
      </trkpt>
      <trkpt lat="45.92034" lon="4.73729">
        <ele>171</ele>
        <time>2016-08-23T08:15:11Z</time>
      </trkpt>
      <trkpt lat="45.92028" lon="4.73729">
        <ele>171</ele>
        <time>2016-08-23T08:15:12Z</time>
      </trkpt>
      <trkpt lat="45.92023" lon="4.7373">
        <ele>171</ele>
        <time>2016-08-23T08:15:13Z</time>
      </trkpt>
      <trkpt lat="45.92017" lon="4.7373">
        <ele>171</ele>
        <time>2016-08-23T08:15:14Z</time>
      </trkpt>
      <trkpt lat="45.92011" lon="4.73729">
        <ele>171</ele>
        <time>2016-08-23T08:15:15Z</time>
      </trkpt>
      <trkpt lat="45.92006" lon="4.73729">
        <ele>171</ele>
        <time>2016-08-23T08:15:16Z</time>
      </trkpt>
      <trkpt lat="45.92001" lon="4.73729">
        <ele>171</ele>
        <time>2016-08-23T08:15:17Z</time>
      </trkpt>
      <trkpt lat="45.91995" lon="4.73729">
        <ele>171</ele>
        <time>2016-08-23T08:15:18Z</time>
      </trkpt>
      <trkpt lat="45.9199" lon="4.73729">
        <ele>171</ele>
        <time>2016-08-23T08:15:19Z</time>
      </trkpt>
      <trkpt lat="45.91985" lon="4.73728">
        <ele>171</ele>
        <time>2016-08-23T08:15:20Z</time>
      </trkpt>
      <trkpt lat="45.9198" lon="4.73728">
        <ele>171</ele>
        <time>2016-08-23T08:15:21Z</time>
      </trkpt>
      <trkpt lat="45.91974" lon="4.73729">
        <ele>171</ele>
        <time>2016-08-23T08:15:22Z</time>
      </trkpt>
      <trkpt lat="45.91969" lon="4.73729">
        <ele>171</ele>
        <time>2016-08-23T08:15:23Z</time>
      </trkpt>
      <trkpt lat="45.91964" lon="4.7373">
        <ele>171</ele>
        <time>2016-08-23T08:15:24Z</time>
      </trkpt>
      <trkpt lat="45.91958" lon="4.7373">
        <ele>170</ele>
        <time>2016-08-23T08:15:25Z</time>
      </trkpt>
      <trkpt lat="45.91952" lon="4.7373">
        <ele>170</ele>
        <time>2016-08-23T08:15:26Z</time>
      </trkpt>
      <trkpt lat="45.91946" lon="4.7373">
        <ele>170</ele>
        <time>2016-08-23T08:15:27Z</time>
      </trkpt>
      <trkpt lat="45.9194" lon="4.73731">
        <ele>170</ele>
        <time>2016-08-23T08:15:28Z</time>
      </trkpt>
      <trkpt lat="45.91934" lon="4.73731">
        <ele>170</ele>
        <time>2016-08-23T08:15:29Z</time>
      </trkpt>
      <trkpt lat="45.91928" lon="4.73731">
        <ele>170</ele>
        <time>2016-08-23T08:15:30Z</time>
      </trkpt>
      <trkpt lat="45.91922" lon="4.73731">
        <ele>170</ele>
        <time>2016-08-23T08:15:31Z</time>
      </trkpt>
      <trkpt lat="45.91916" lon="4.73731">
        <ele>171</ele>
        <time>2016-08-23T08:15:32Z</time>
      </trkpt>
      <trkpt lat="45.9191" lon="4.73731">
        <ele>171</ele>
        <time>2016-08-23T08:15:33Z</time>
      </trkpt>
      <trkpt lat="45.91903" lon="4.73731">
        <ele>171</ele>
        <time>2016-08-23T08:15:34Z</time>
      </trkpt>
      <trkpt lat="45.91897" lon="4.73732">
        <ele>171</ele>
        <time>2016-08-23T08:15:35Z</time>
      </trkpt>
      <trkpt lat="45.91891" lon="4.73732">
        <ele>171</ele>
        <time>2016-08-23T08:15:36Z</time>
      </trkpt>
      <trkpt lat="45.91885" lon="4.73732">
        <ele>171</ele>
        <time>2016-08-23T08:15:37Z</time>
      </trkpt>
      <trkpt lat="45.91879" lon="4.73732">
        <ele>171</ele>
        <time>2016-08-23T08:15:38Z</time>
      </trkpt>
      <trkpt lat="45.91874" lon="4.73732">
        <ele>171</ele>
        <time>2016-08-23T08:15:39Z</time>
      </trkpt>
      <trkpt lat="45.91869" lon="4.73732">
        <ele>171</ele>
        <time>2016-08-23T08:15:40Z</time>
      </trkpt>
      <trkpt lat="45.91864" lon="4.73731">
        <ele>171</ele>
        <time>2016-08-23T08:15:41Z</time>
      </trkpt>
      <trkpt lat="45.91859" lon="4.73731">
        <ele>171</ele>
        <time>2016-08-23T08:15:42Z</time>
      </trkpt>
      <trkpt lat="45.91854" lon="4.7373">
        <ele>171</ele>
        <time>2016-08-23T08:15:43Z</time>
      </trkpt>
      <trkpt lat="45.91848" lon="4.7373">
        <ele>172</ele>
        <time>2016-08-23T08:15:44Z</time>
      </trkpt>
      <trkpt lat="45.91843" lon="4.7373">
        <ele>172</ele>
        <time>2016-08-23T08:15:45Z</time>
      </trkpt>
      <trkpt lat="45.91837" lon="4.73731">
        <ele>172</ele>
        <time>2016-08-23T08:15:46Z</time>
      </trkpt>
      <trkpt lat="45.91832" lon="4.73731">
        <ele>172</ele>
        <time>2016-08-23T08:15:47Z</time>
      </trkpt>
      <trkpt lat="45.91826" lon="4.73732">
        <ele>172</ele>
        <time>2016-08-23T08:15:48Z</time>
      </trkpt>
      <trkpt lat="45.9182" lon="4.73731">
        <ele>172</ele>
        <time>2016-08-23T08:15:49Z</time>
      </trkpt>
      <trkpt lat="45.91815" lon="4.73731">
        <ele>172</ele>
        <time>2016-08-23T08:15:50Z</time>
      </trkpt>
      <trkpt lat="45.91809" lon="4.73731">
        <ele>172</ele>
        <time>2016-08-23T08:15:51Z</time>
      </trkpt>
      <trkpt lat="45.91804" lon="4.73732">
        <ele>172</ele>
        <time>2016-08-23T08:15:52Z</time>
      </trkpt>
      <trkpt lat="45.91798" lon="4.73732">
        <ele>172</ele>
        <time>2016-08-23T08:15:53Z</time>
      </trkpt>
      <trkpt lat="45.91793" lon="4.73732">
        <ele>172</ele>
        <time>2016-08-23T08:15:54Z</time>
      </trkpt>
      <trkpt lat="45.91787" lon="4.73732">
        <ele>173</ele>
        <time>2016-08-23T08:15:55Z</time>
      </trkpt>
      <trkpt lat="45.91781" lon="4.73732">
        <ele>173</ele>
        <time>2016-08-23T08:15:56Z</time>
      </trkpt>
      <trkpt lat="45.91775" lon="4.73732">
        <ele>173</ele>
        <time>2016-08-23T08:15:57Z</time>
      </trkpt>
      <trkpt lat="45.9177" lon="4.73731">
        <ele>173</ele>
        <time>2016-08-23T08:15:58Z</time>
      </trkpt>
      <trkpt lat="45.91764" lon="4.73731">
        <ele>173</ele>
        <time>2016-08-23T08:15:59Z</time>
      </trkpt>
      <trkpt lat="45.91759" lon="4.73731">
        <ele>173</ele>
        <time>2016-08-23T08:16:00Z</time>
      </trkpt>
      <trkpt lat="45.91754" lon="4.73731">
        <ele>173</ele>
        <time>2016-08-23T08:16:01Z</time>
      </trkpt>
      <trkpt lat="45.91748" lon="4.73731">
        <ele>173</ele>
        <time>2016-08-23T08:16:02Z</time>
      </trkpt>
      <trkpt lat="45.91743" lon="4.73731">
        <ele>173</ele>
        <time>2016-08-23T08:16:03Z</time>
      </trkpt>
      <trkpt lat="45.91737" lon="4.73731">
        <ele>173</ele>
        <time>2016-08-23T08:16:04Z</time>
      </trkpt>
      <trkpt lat="45.91731" lon="4.73731">
        <ele>173</ele>
        <time>2016-08-23T08:16:05Z</time>
      </trkpt>
      <trkpt lat="45.91726" lon="4.73731">
        <ele>173</ele>
        <time>2016-08-23T08:16:06Z</time>
      </trkpt>
      <trkpt lat="45.9172" lon="4.7373">
        <ele>173</ele>
        <time>2016-08-23T08:16:07Z</time>
      </trkpt>
      <trkpt lat="45.91714" lon="4.7373">
        <ele>173</ele>
        <time>2016-08-23T08:16:08Z</time>
      </trkpt>
      <trkpt lat="45.91708" lon="4.73729">
        <ele>172</ele>
        <time>2016-08-23T08:16:09Z</time>
      </trkpt>
      <trkpt lat="45.91703" lon="4.7373">
        <ele>172</ele>
        <time>2016-08-23T08:16:10Z</time>
      </trkpt>
      <trkpt lat="45.91697" lon="4.73731">
        <ele>172</ele>
        <time>2016-08-23T08:16:11Z</time>
      </trkpt>
      <trkpt lat="45.91692" lon="4.73732">
        <ele>172</ele>
        <time>2016-08-23T08:16:12Z</time>
      </trkpt>
      <trkpt lat="45.91687" lon="4.73733">
        <ele>172</ele>
        <time>2016-08-23T08:16:13Z</time>
      </trkpt>
      <trkpt lat="45.91681" lon="4.73733">
        <ele>172</ele>
        <time>2016-08-23T08:16:14Z</time>
      </trkpt>
      <trkpt lat="45.91675" lon="4.73734">
        <ele>172</ele>
        <time>2016-08-23T08:16:15Z</time>
      </trkpt>
      <trkpt lat="45.91669" lon="4.73734">
        <ele>172</ele>
        <time>2016-08-23T08:16:16Z</time>
      </trkpt>
      <trkpt lat="45.91663" lon="4.73734">
        <ele>172</ele>
        <time>2016-08-23T08:16:17Z</time>
      </trkpt>
      <trkpt lat="45.91657" lon="4.73734">
        <ele>172</ele>
        <time>2016-08-23T08:16:18Z</time>
      </trkpt>
      <trkpt lat="45.91652" lon="4.73734">
        <ele>172</ele>
        <time>2016-08-23T08:16:19Z</time>
      </trkpt>
      <trkpt lat="45.91646" lon="4.73734">
        <ele>172</ele>
        <time>2016-08-23T08:16:20Z</time>
      </trkpt>
      <trkpt lat="45.9164" lon="4.73734">
        <ele>172</ele>
        <time>2016-08-23T08:16:21Z</time>
      </trkpt>
      <trkpt lat="45.91634" lon="4.73734">
        <ele>172</ele>
        <time>2016-08-23T08:16:22Z</time>
      </trkpt>
      <trkpt lat="45.91628" lon="4.73735">
        <ele>172</ele>
        <time>2016-08-23T08:16:23Z</time>
      </trkpt>
      <trkpt lat="45.91622" lon="4.73736">
        <ele>173</ele>
        <time>2016-08-23T08:16:24Z</time>
      </trkpt>
      <trkpt lat="45.91616" lon="4.73736">
        <ele>173</ele>
        <time>2016-08-23T08:16:25Z</time>
      </trkpt>
      <trkpt lat="45.9161" lon="4.73737">
        <ele>173</ele>
        <time>2016-08-23T08:16:26Z</time>
      </trkpt>
      <trkpt lat="45.91603" lon="4.73737">
        <ele>173</ele>
        <time>2016-08-23T08:16:27Z</time>
      </trkpt>
      <trkpt lat="45.91597" lon="4.73736">
        <ele>173</ele>
        <time>2016-08-23T08:16:28Z</time>
      </trkpt>
      <trkpt lat="45.9159" lon="4.73737">
        <ele>173</ele>
        <time>2016-08-23T08:16:29Z</time>
      </trkpt>
      <trkpt lat="45.91584" lon="4.73737">
        <ele>173</ele>
        <time>2016-08-23T08:16:30Z</time>
      </trkpt>
      <trkpt lat="45.91577" lon="4.73737">
        <ele>173</ele>
        <time>2016-08-23T08:16:31Z</time>
      </trkpt>
      <trkpt lat="45.91571" lon="4.73737">
        <ele>173</ele>
        <time>2016-08-23T08:16:32Z</time>
      </trkpt>
      <trkpt lat="45.91565" lon="4.73738">
        <ele>173</ele>
        <time>2016-08-23T08:16:33Z</time>
      </trkpt>
      <trkpt lat="45.91559" lon="4.73738">
        <ele>173</ele>
        <time>2016-08-23T08:16:34Z</time>
      </trkpt>
      <trkpt lat="45.91553" lon="4.73738">
        <ele>174</ele>
        <time>2016-08-23T08:16:35Z</time>
      </trkpt>
      <trkpt lat="45.91548" lon="4.73738">
        <ele>174</ele>
        <time>2016-08-23T08:16:36Z</time>
      </trkpt>
      <trkpt lat="45.91541" lon="4.73738">
        <ele>174</ele>
        <time>2016-08-23T08:16:37Z</time>
      </trkpt>
      <trkpt lat="45.91535" lon="4.73738">
        <ele>174</ele>
        <time>2016-08-23T08:16:38Z</time>
      </trkpt>
      <trkpt lat="45.91529" lon="4.73739">
        <ele>174</ele>
        <time>2016-08-23T08:16:39Z</time>
      </trkpt>
      <trkpt lat="45.91523" lon="4.73739">
        <ele>174</ele>
        <time>2016-08-23T08:16:40Z</time>
      </trkpt>
      <trkpt lat="45.91517" lon="4.7374">
        <ele>174</ele>
        <time>2016-08-23T08:16:41Z</time>
      </trkpt>
      <trkpt lat="45.91511" lon="4.7374">
        <ele>174</ele>
        <time>2016-08-23T08:16:42Z</time>
      </trkpt>
      <trkpt lat="45.91505" lon="4.7374">
        <ele>174</ele>
        <time>2016-08-23T08:16:43Z</time>
      </trkpt>
      <trkpt lat="45.915" lon="4.7374">
        <ele>174</ele>
        <time>2016-08-23T08:16:44Z</time>
      </trkpt>
      <trkpt lat="45.91495" lon="4.7374">
        <ele>174</ele>
        <time>2016-08-23T08:16:45Z</time>
      </trkpt>
      <trkpt lat="45.91489" lon="4.7374">
        <ele>174</ele>
        <time>2016-08-23T08:16:46Z</time>
      </trkpt>
      <trkpt lat="45.91484" lon="4.73739">
        <ele>174</ele>
        <time>2016-08-23T08:16:47Z</time>
      </trkpt>
      <trkpt lat="45.91478" lon="4.73739">
        <ele>174</ele>
        <time>2016-08-23T08:16:48Z</time>
      </trkpt>
      <trkpt lat="45.91472" lon="4.73739">
        <ele>174</ele>
        <time>2016-08-23T08:16:49Z</time>
      </trkpt>
      <trkpt lat="45.91466" lon="4.73739">
        <ele>174</ele>
        <time>2016-08-23T08:16:50Z</time>
      </trkpt>
      <trkpt lat="45.9146" lon="4.73739">
        <ele>174</ele>
        <time>2016-08-23T08:16:51Z</time>
      </trkpt>
      <trkpt lat="45.91455" lon="4.7374">
        <ele>173</ele>
        <time>2016-08-23T08:16:52Z</time>
      </trkpt>
      <trkpt lat="45.91449" lon="4.7374">
        <ele>173</ele>
        <time>2016-08-23T08:16:53Z</time>
      </trkpt>
      <trkpt lat="45.91443" lon="4.7374">
        <ele>173</ele>
        <time>2016-08-23T08:16:54Z</time>
      </trkpt>
      <trkpt lat="45.91437" lon="4.7374">
        <ele>173</ele>
        <time>2016-08-23T08:16:55Z</time>
      </trkpt>
      <trkpt lat="45.9143" lon="4.7374">
        <ele>173</ele>
        <time>2016-08-23T08:16:56Z</time>
      </trkpt>
      <trkpt lat="45.91424" lon="4.7374">
        <ele>173</ele>
        <time>2016-08-23T08:16:57Z</time>
      </trkpt>
      <trkpt lat="45.91417" lon="4.73739">
        <ele>173</ele>
        <time>2016-08-23T08:16:58Z</time>
      </trkpt>
      <trkpt lat="45.91411" lon="4.73739">
        <ele>173</ele>
        <time>2016-08-23T08:16:59Z</time>
      </trkpt>
      <trkpt lat="45.91404" lon="4.73739">
        <ele>173</ele>
        <time>2016-08-23T08:17:00Z</time>
      </trkpt>
      <trkpt lat="45.91398" lon="4.73739">
        <ele>173</ele>
        <time>2016-08-23T08:17:01Z</time>
      </trkpt>
      <trkpt lat="45.91391" lon="4.73739">
        <ele>173</ele>
        <time>2016-08-23T08:17:02Z</time>
      </trkpt>
      <trkpt lat="45.91385" lon="4.73739">
        <ele>173</ele>
        <time>2016-08-23T08:17:03Z</time>
      </trkpt>
      <trkpt lat="45.91378" lon="4.73739">
        <ele>173</ele>
        <time>2016-08-23T08:17:04Z</time>
      </trkpt>
      <trkpt lat="45.91372" lon="4.73738">
        <ele>173</ele>
        <time>2016-08-23T08:17:05Z</time>
      </trkpt>
      <trkpt lat="45.91365" lon="4.73738">
        <ele>173</ele>
        <time>2016-08-23T08:17:06Z</time>
      </trkpt>
      <trkpt lat="45.91359" lon="4.73738">
        <ele>173</ele>
        <time>2016-08-23T08:17:07Z</time>
      </trkpt>
      <trkpt lat="45.91353" lon="4.73739">
        <ele>173</ele>
        <time>2016-08-23T08:17:08Z</time>
      </trkpt>
      <trkpt lat="45.91346" lon="4.73739">
        <ele>173</ele>
        <time>2016-08-23T08:17:09Z</time>
      </trkpt>
      <trkpt lat="45.9134" lon="4.73739">
        <ele>173</ele>
        <time>2016-08-23T08:17:10Z</time>
      </trkpt>
      <trkpt lat="45.91333" lon="4.73738">
        <ele>173</ele>
        <time>2016-08-23T08:17:11Z</time>
      </trkpt>
      <trkpt lat="45.91327" lon="4.73739">
        <ele>173</ele>
        <time>2016-08-23T08:17:12Z</time>
      </trkpt>
      <trkpt lat="45.9132" lon="4.73739">
        <ele>174</ele>
        <time>2016-08-23T08:17:13Z</time>
      </trkpt>
      <trkpt lat="45.91314" lon="4.73738">
        <ele>174</ele>
        <time>2016-08-23T08:17:14Z</time>
      </trkpt>
      <trkpt lat="45.91308" lon="4.73739">
        <ele>174</ele>
        <time>2016-08-23T08:17:15Z</time>
      </trkpt>
      <trkpt lat="45.91303" lon="4.73739">
        <ele>174</ele>
        <time>2016-08-23T08:17:16Z</time>
      </trkpt>
      <trkpt lat="45.91297" lon="4.7374">
        <ele>174</ele>
        <time>2016-08-23T08:17:17Z</time>
      </trkpt>
      <trkpt lat="45.91292" lon="4.73741">
        <ele>174</ele>
        <time>2016-08-23T08:17:18Z</time>
      </trkpt>
      <trkpt lat="45.91286" lon="4.73741">
        <ele>174</ele>
        <time>2016-08-23T08:17:19Z</time>
      </trkpt>
      <trkpt lat="45.91281" lon="4.73742">
        <ele>174</ele>
        <time>2016-08-23T08:17:20Z</time>
      </trkpt>
      <trkpt lat="45.91275" lon="4.73741">
        <ele>174</ele>
        <time>2016-08-23T08:17:21Z</time>
      </trkpt>
      <trkpt lat="45.91269" lon="4.73741">
        <ele>174</ele>
        <time>2016-08-23T08:17:22Z</time>
      </trkpt>
      <trkpt lat="45.91264" lon="4.73742">
        <ele>174</ele>
        <time>2016-08-23T08:17:23Z</time>
      </trkpt>
      <trkpt lat="45.91258" lon="4.73743">
        <ele>175</ele>
        <time>2016-08-23T08:17:24Z</time>
      </trkpt>
      <trkpt lat="45.91252" lon="4.73744">
        <ele>175</ele>
        <time>2016-08-23T08:17:25Z</time>
      </trkpt>
      <trkpt lat="45.91246" lon="4.73744">
        <ele>175</ele>
        <time>2016-08-23T08:17:26Z</time>
      </trkpt>
      <trkpt lat="45.91241" lon="4.73744">
        <ele>175</ele>
        <time>2016-08-23T08:17:27Z</time>
      </trkpt>
      <trkpt lat="45.91235" lon="4.73744">
        <ele>175</ele>
        <time>2016-08-23T08:17:28Z</time>
      </trkpt>
      <trkpt lat="45.91229" lon="4.73744">
        <ele>175</ele>
        <time>2016-08-23T08:17:29Z</time>
      </trkpt>
      <trkpt lat="45.91223" lon="4.73743">
        <ele>175</ele>
        <time>2016-08-23T08:17:30Z</time>
      </trkpt>
      <trkpt lat="45.91217" lon="4.73743">
        <ele>175</ele>
        <time>2016-08-23T08:17:31Z</time>
      </trkpt>
      <trkpt lat="45.91211" lon="4.73743">
        <ele>175</ele>
        <time>2016-08-23T08:17:32Z</time>
      </trkpt>
      <trkpt lat="45.91206" lon="4.73743">
        <ele>175</ele>
        <time>2016-08-23T08:17:33Z</time>
      </trkpt>
      <trkpt lat="45.912" lon="4.73743">
        <ele>175</ele>
        <time>2016-08-23T08:17:34Z</time>
      </trkpt>
      <trkpt lat="45.91195" lon="4.73743">
        <ele>175</ele>
        <time>2016-08-23T08:17:35Z</time>
      </trkpt>
      <trkpt lat="45.9119" lon="4.73742">
        <ele>175</ele>
        <time>2016-08-23T08:17:36Z</time>
      </trkpt>
      <trkpt lat="45.91185" lon="4.73741">
        <ele>175</ele>
        <time>2016-08-23T08:17:37Z</time>
      </trkpt>
      <trkpt lat="45.9118" lon="4.7374">
        <ele>175</ele>
        <time>2016-08-23T08:17:38Z</time>
      </trkpt>
      <trkpt lat="45.91175" lon="4.73738">
        <ele>175</ele>
        <time>2016-08-23T08:17:39Z</time>
      </trkpt>
      <trkpt lat="45.91171" lon="4.73738">
        <ele>175</ele>
        <time>2016-08-23T08:17:40Z</time>
      </trkpt>
      <trkpt lat="45.91166" lon="4.73738">
        <ele>175</ele>
        <time>2016-08-23T08:17:41Z</time>
      </trkpt>
      <trkpt lat="45.91161" lon="4.73737">
        <ele>175</ele>
        <time>2016-08-23T08:17:42Z</time>
      </trkpt>
      <trkpt lat="45.91156" lon="4.73736">
        <ele>175</ele>
        <time>2016-08-23T08:17:43Z</time>
      </trkpt>
      <trkpt lat="45.91152" lon="4.73732">
        <ele>175</ele>
        <time>2016-08-23T08:17:44Z</time>
      </trkpt>
      <trkpt lat="45.91149" lon="4.73727">
        <ele>175</ele>
        <time>2016-08-23T08:17:45Z</time>
      </trkpt>
      <trkpt lat="45.91145" lon="4.73721">
        <ele>174</ele>
        <time>2016-08-23T08:17:46Z</time>
      </trkpt>
      <trkpt lat="45.91142" lon="4.73714">
        <ele>174</ele>
        <time>2016-08-23T08:17:47Z</time>
      </trkpt>
      <trkpt lat="45.91139" lon="4.73707">
        <ele>174</ele>
        <time>2016-08-23T08:17:48Z</time>
      </trkpt>
      <trkpt lat="45.91136" lon="4.737">
        <ele>174</ele>
        <time>2016-08-23T08:17:49Z</time>
      </trkpt>
      <trkpt lat="45.91133" lon="4.73694">
        <ele>174</ele>
        <time>2016-08-23T08:17:50Z</time>
      </trkpt>
      <trkpt lat="45.9113" lon="4.73687">
        <ele>174</ele>
        <time>2016-08-23T08:17:51Z</time>
      </trkpt>
      <trkpt lat="45.91127" lon="4.7368">
        <ele>174</ele>
        <time>2016-08-23T08:17:52Z</time>
      </trkpt>
      <trkpt lat="45.91125" lon="4.73674">
        <ele>174</ele>
        <time>2016-08-23T08:17:53Z</time>
      </trkpt>
      <trkpt lat="45.91122" lon="4.73667">
        <ele>174</ele>
        <time>2016-08-23T08:17:54Z</time>
      </trkpt>
      <trkpt lat="45.91119" lon="4.73661">
        <ele>174</ele>
        <time>2016-08-23T08:17:55Z</time>
      </trkpt>
      <trkpt lat="45.91117" lon="4.73654">
        <ele>174</ele>
        <time>2016-08-23T08:17:56Z</time>
      </trkpt>
      <trkpt lat="45.91115" lon="4.73647">
        <ele>174</ele>
        <time>2016-08-23T08:17:57Z</time>
      </trkpt>
      <trkpt lat="45.91112" lon="4.7364">
        <ele>174</ele>
        <time>2016-08-23T08:17:58Z</time>
      </trkpt>
      <trkpt lat="45.9111" lon="4.73633">
        <ele>174</ele>
        <time>2016-08-23T08:17:59Z</time>
      </trkpt>
      <trkpt lat="45.91107" lon="4.73626">
        <ele>174</ele>
        <time>2016-08-23T08:18:00Z</time>
      </trkpt>
      <trkpt lat="45.91104" lon="4.73619">
        <ele>174</ele>
        <time>2016-08-23T08:18:01Z</time>
      </trkpt>
      <trkpt lat="45.91101" lon="4.73612">
        <ele>174</ele>
        <time>2016-08-23T08:18:02Z</time>
      </trkpt>
      <trkpt lat="45.91098" lon="4.73605">
        <ele>174</ele>
        <time>2016-08-23T08:18:03Z</time>
      </trkpt>
      <trkpt lat="45.91095" lon="4.73599">
        <ele>174</ele>
        <time>2016-08-23T08:18:04Z</time>
      </trkpt>
      <trkpt lat="45.91092" lon="4.73592">
        <ele>174</ele>
        <time>2016-08-23T08:18:05Z</time>
      </trkpt>
      <trkpt lat="45.9109" lon="4.73586">
        <ele>174</ele>
        <time>2016-08-23T08:18:06Z</time>
      </trkpt>
      <trkpt lat="45.91087" lon="4.7358">
        <ele>174</ele>
        <time>2016-08-23T08:18:07Z</time>
      </trkpt>
      <trkpt lat="45.91085" lon="4.73573">
        <ele>174</ele>
        <time>2016-08-23T08:18:08Z</time>
      </trkpt>
      <trkpt lat="45.91082" lon="4.73567">
        <ele>174</ele>
        <time>2016-08-23T08:18:09Z</time>
      </trkpt>
      <trkpt lat="45.91079" lon="4.7356">
        <ele>174</ele>
        <time>2016-08-23T08:18:10Z</time>
      </trkpt>
      <trkpt lat="45.91077" lon="4.73553">
        <ele>174</ele>
        <time>2016-08-23T08:18:11Z</time>
      </trkpt>
      <trkpt lat="45.91075" lon="4.73546">
        <ele>174</ele>
        <time>2016-08-23T08:18:12Z</time>
      </trkpt>
      <trkpt lat="45.91072" lon="4.7354">
        <ele>175</ele>
        <time>2016-08-23T08:18:13Z</time>
      </trkpt>
      <trkpt lat="45.91069" lon="4.73534">
        <ele>175</ele>
        <time>2016-08-23T08:18:14Z</time>
      </trkpt>
      <trkpt lat="45.91065" lon="4.73528">
        <ele>175</ele>
        <time>2016-08-23T08:18:15Z</time>
      </trkpt>
      <trkpt lat="45.91062" lon="4.73521">
        <ele>175</ele>
        <time>2016-08-23T08:18:16Z</time>
      </trkpt>
      <trkpt lat="45.9106" lon="4.73515">
        <ele>175</ele>
        <time>2016-08-23T08:18:17Z</time>
      </trkpt>
      <trkpt lat="45.91057" lon="4.73508">
        <ele>175</ele>
        <time>2016-08-23T08:18:18Z</time>
      </trkpt>
      <trkpt lat="45.91053" lon="4.73502">
        <ele>175</ele>
        <time>2016-08-23T08:18:19Z</time>
      </trkpt>
      <trkpt lat="45.91051" lon="4.73495">
        <ele>175</ele>
        <time>2016-08-23T08:18:20Z</time>
      </trkpt>
      <trkpt lat="45.91049" lon="4.73489">
        <ele>175</ele>
        <time>2016-08-23T08:18:21Z</time>
      </trkpt>
      <trkpt lat="45.91046" lon="4.73482">
        <ele>175</ele>
        <time>2016-08-23T08:18:22Z</time>
      </trkpt>
      <trkpt lat="45.91044" lon="4.73475">
        <ele>175</ele>
        <time>2016-08-23T08:18:23Z</time>
      </trkpt>
      <trkpt lat="45.91042" lon="4.73468">
        <ele>175</ele>
        <time>2016-08-23T08:18:24Z</time>
      </trkpt>
      <trkpt lat="45.91041" lon="4.73462">
        <ele>175</ele>
        <time>2016-08-23T08:18:25Z</time>
      </trkpt>
      <trkpt lat="45.91041" lon="4.73455">
        <ele>175</ele>
        <time>2016-08-23T08:18:26Z</time>
      </trkpt>
      <trkpt lat="45.91041" lon="4.73448">
        <ele>175</ele>
        <time>2016-08-23T08:18:27Z</time>
      </trkpt>
      <trkpt lat="45.91042" lon="4.73442">
        <ele>175</ele>
        <time>2016-08-23T08:18:28Z</time>
      </trkpt>
      <trkpt lat="45.91041" lon="4.73435">
        <ele>175</ele>
        <time>2016-08-23T08:18:29Z</time>
      </trkpt>
      <trkpt lat="45.91039" lon="4.73428">
        <ele>175</ele>
        <time>2016-08-23T08:18:30Z</time>
      </trkpt>
      <trkpt lat="45.91035" lon="4.73422">
        <ele>175</ele>
        <time>2016-08-23T08:18:31Z</time>
      </trkpt>
      <trkpt lat="45.91031" lon="4.73417">
        <ele>175</ele>
        <time>2016-08-23T08:18:32Z</time>
      </trkpt>
      <trkpt lat="45.91024" lon="4.73417">
        <ele>175</ele>
        <time>2016-08-23T08:18:33Z</time>
      </trkpt>
      <trkpt lat="45.91018" lon="4.73418">
        <ele>175</ele>
        <time>2016-08-23T08:18:34Z</time>
      </trkpt>
      <trkpt lat="45.91012" lon="4.73421">
        <ele>175</ele>
        <time>2016-08-23T08:18:35Z</time>
      </trkpt>
      <trkpt lat="45.91007" lon="4.73427">
        <ele>175</ele>
        <time>2016-08-23T08:18:36Z</time>
      </trkpt>
      <trkpt lat="45.91002" lon="4.7343">
        <ele>175</ele>
        <time>2016-08-23T08:18:37Z</time>
      </trkpt>
      <trkpt lat="45.90997" lon="4.73434">
        <ele>175</ele>
        <time>2016-08-23T08:18:38Z</time>
      </trkpt>
      <trkpt lat="45.90991" lon="4.73437">
        <ele>175</ele>
        <time>2016-08-23T08:18:39Z</time>
      </trkpt>
      <trkpt lat="45.90985" lon="4.7344">
        <ele>175</ele>
        <time>2016-08-23T08:18:40Z</time>
      </trkpt>
      <trkpt lat="45.90979" lon="4.73443">
        <ele>175</ele>
        <time>2016-08-23T08:18:41Z</time>
      </trkpt>
      <trkpt lat="45.90973" lon="4.73446">
        <ele>175</ele>
        <time>2016-08-23T08:18:42Z</time>
      </trkpt>
      <trkpt lat="45.90968" lon="4.73448">
        <ele>175</ele>
        <time>2016-08-23T08:18:43Z</time>
      </trkpt>
      <trkpt lat="45.90962" lon="4.73451">
        <ele>175</ele>
        <time>2016-08-23T08:18:44Z</time>
      </trkpt>
      <trkpt lat="45.90957" lon="4.73453">
        <ele>175</ele>
        <time>2016-08-23T08:18:45Z</time>
      </trkpt>
      <trkpt lat="45.90951" lon="4.73456">
        <ele>175</ele>
        <time>2016-08-23T08:18:46Z</time>
      </trkpt>
      <trkpt lat="45.90945" lon="4.73459">
        <ele>175</ele>
        <time>2016-08-23T08:18:47Z</time>
      </trkpt>
      <trkpt lat="45.9094" lon="4.73462">
        <ele>175</ele>
        <time>2016-08-23T08:18:48Z</time>
      </trkpt>
      <trkpt lat="45.90935" lon="4.73465">
        <ele>175</ele>
        <time>2016-08-23T08:18:49Z</time>
      </trkpt>
      <trkpt lat="45.90929" lon="4.73468">
        <ele>175</ele>
        <time>2016-08-23T08:18:50Z</time>
      </trkpt>
      <trkpt lat="45.90924" lon="4.73471">
        <ele>175</ele>
        <time>2016-08-23T08:18:51Z</time>
      </trkpt>
      <trkpt lat="45.90918" lon="4.73474">
        <ele>175</ele>
        <time>2016-08-23T08:18:52Z</time>
      </trkpt>
      <trkpt lat="45.90912" lon="4.73476">
        <ele>175</ele>
        <time>2016-08-23T08:18:53Z</time>
      </trkpt>
      <trkpt lat="45.90906" lon="4.73477">
        <ele>175</ele>
        <time>2016-08-23T08:18:54Z</time>
      </trkpt>
      <trkpt lat="45.909" lon="4.73479">
        <ele>175</ele>
        <time>2016-08-23T08:18:55Z</time>
      </trkpt>
      <trkpt lat="45.90895" lon="4.7348">
        <ele>175</ele>
        <time>2016-08-23T08:18:56Z</time>
      </trkpt>
      <trkpt lat="45.90889" lon="4.73482">
        <ele>175</ele>
        <time>2016-08-23T08:18:57Z</time>
      </trkpt>
      <trkpt lat="45.90883" lon="4.73485">
        <ele>175</ele>
        <time>2016-08-23T08:18:58Z</time>
      </trkpt>
      <trkpt lat="45.90877" lon="4.73487">
        <ele>175</ele>
        <time>2016-08-23T08:18:59Z</time>
      </trkpt>
      <trkpt lat="45.90871" lon="4.7349">
        <ele>175</ele>
        <time>2016-08-23T08:19:00Z</time>
      </trkpt>
      <trkpt lat="45.90866" lon="4.73492">
        <ele>175</ele>
        <time>2016-08-23T08:19:01Z</time>
      </trkpt>
      <trkpt lat="45.9086" lon="4.73495">
        <ele>175</ele>
        <time>2016-08-23T08:19:02Z</time>
      </trkpt>
      <trkpt lat="45.90854" lon="4.73497">
        <ele>174</ele>
        <time>2016-08-23T08:19:03Z</time>
      </trkpt>
      <trkpt lat="45.90848" lon="4.73499">
        <ele>174</ele>
        <time>2016-08-23T08:19:04Z</time>
      </trkpt>
      <trkpt lat="45.90843" lon="4.73501">
        <ele>174</ele>
        <time>2016-08-23T08:19:05Z</time>
      </trkpt>
      <trkpt lat="45.90837" lon="4.73503">
        <ele>174</ele>
        <time>2016-08-23T08:19:06Z</time>
      </trkpt>
      <trkpt lat="45.90831" lon="4.73506">
        <ele>174</ele>
        <time>2016-08-23T08:19:07Z</time>
      </trkpt>
      <trkpt lat="45.90825" lon="4.73508">
        <ele>175</ele>
        <time>2016-08-23T08:19:08Z</time>
      </trkpt>
      <trkpt lat="45.9082" lon="4.73511">
        <ele>175</ele>
        <time>2016-08-23T08:19:09Z</time>
      </trkpt>
      <trkpt lat="45.90814" lon="4.73513">
        <ele>175</ele>
        <time>2016-08-23T08:19:10Z</time>
      </trkpt>
      <trkpt lat="45.90808" lon="4.73514">
        <ele>175</ele>
        <time>2016-08-23T08:19:11Z</time>
      </trkpt>
      <trkpt lat="45.90802" lon="4.73517">
        <ele>175</ele>
        <time>2016-08-23T08:19:12Z</time>
      </trkpt>
      <trkpt lat="45.90797" lon="4.73519">
        <ele>175</ele>
        <time>2016-08-23T08:19:13Z</time>
      </trkpt>
      <trkpt lat="45.90791" lon="4.73522">
        <ele>175</ele>
        <time>2016-08-23T08:19:14Z</time>
      </trkpt>
      <trkpt lat="45.90786" lon="4.73524">
        <ele>176</ele>
        <time>2016-08-23T08:19:15Z</time>
      </trkpt>
      <trkpt lat="45.9078" lon="4.73527">
        <ele>176</ele>
        <time>2016-08-23T08:19:16Z</time>
      </trkpt>
      <trkpt lat="45.90774" lon="4.73529">
        <ele>176</ele>
        <time>2016-08-23T08:19:17Z</time>
      </trkpt>
      <trkpt lat="45.90769" lon="4.73531">
        <ele>176</ele>
        <time>2016-08-23T08:19:18Z</time>
      </trkpt>
      <trkpt lat="45.90764" lon="4.73534">
        <ele>176</ele>
        <time>2016-08-23T08:19:19Z</time>
      </trkpt>
      <trkpt lat="45.90759" lon="4.73537">
        <ele>176</ele>
        <time>2016-08-23T08:19:20Z</time>
      </trkpt>
      <trkpt lat="45.90753" lon="4.7354">
        <ele>176</ele>
        <time>2016-08-23T08:19:21Z</time>
      </trkpt>
      <trkpt lat="45.90748" lon="4.73542">
        <ele>177</ele>
        <time>2016-08-23T08:19:22Z</time>
      </trkpt>
      <trkpt lat="45.90743" lon="4.73545">
        <ele>177</ele>
        <time>2016-08-23T08:19:23Z</time>
      </trkpt>
      <trkpt lat="45.90738" lon="4.73547">
        <ele>178</ele>
        <time>2016-08-23T08:19:24Z</time>
      </trkpt>
      <trkpt lat="45.90732" lon="4.7355">
        <ele>178</ele>
        <time>2016-08-23T08:19:25Z</time>
      </trkpt>
      <trkpt lat="45.90727" lon="4.73552">
        <ele>178</ele>
        <time>2016-08-23T08:19:26Z</time>
      </trkpt>
      <trkpt lat="45.90722" lon="4.73554">
        <ele>178</ele>
        <time>2016-08-23T08:19:27Z</time>
      </trkpt>
      <trkpt lat="45.90717" lon="4.73557">
        <ele>178</ele>
        <time>2016-08-23T08:19:28Z</time>
      </trkpt>
      <trkpt lat="45.90712" lon="4.7356">
        <ele>178</ele>
        <time>2016-08-23T08:19:29Z</time>
      </trkpt>
      <trkpt lat="45.90707" lon="4.73562">
        <ele>178</ele>
        <time>2016-08-23T08:19:30Z</time>
      </trkpt>
      <trkpt lat="45.90702" lon="4.73565">
        <ele>178</ele>
        <time>2016-08-23T08:19:31Z</time>
      </trkpt>
      <trkpt lat="45.90697" lon="4.73567">
        <ele>178</ele>
        <time>2016-08-23T08:19:32Z</time>
      </trkpt>
      <trkpt lat="45.90692" lon="4.73569">
        <ele>178</ele>
        <time>2016-08-23T08:19:33Z</time>
      </trkpt>
      <trkpt lat="45.90688" lon="4.73571">
        <ele>178</ele>
        <time>2016-08-23T08:19:34Z</time>
      </trkpt>
      <trkpt lat="45.90683" lon="4.73573">
        <ele>179</ele>
        <time>2016-08-23T08:19:35Z</time>
      </trkpt>
      <trkpt lat="45.90678" lon="4.73575">
        <ele>179</ele>
        <time>2016-08-23T08:19:36Z</time>
      </trkpt>
      <trkpt lat="45.90673" lon="4.73576">
        <ele>179</ele>
        <time>2016-08-23T08:19:37Z</time>
      </trkpt>
      <trkpt lat="45.90669" lon="4.73578">
        <ele>180</ele>
        <time>2016-08-23T08:19:38Z</time>
      </trkpt>
      <trkpt lat="45.90664" lon="4.7358">
        <ele>180</ele>
        <time>2016-08-23T08:19:39Z</time>
      </trkpt>
      <trkpt lat="45.90659" lon="4.73582">
        <ele>179</ele>
        <time>2016-08-23T08:19:40Z</time>
      </trkpt>
      <trkpt lat="45.90655" lon="4.73584">
        <ele>180</ele>
        <time>2016-08-23T08:19:41Z</time>
      </trkpt>
      <trkpt lat="45.90647" lon="4.73587">
        <ele>181</ele>
        <time>2016-08-23T08:19:43Z</time>
      </trkpt>
      <trkpt lat="45.90642" lon="4.73589">
        <ele>181</ele>
        <time>2016-08-23T08:19:44Z</time>
      </trkpt>
      <trkpt lat="45.90638" lon="4.73591">
        <ele>181</ele>
        <time>2016-08-23T08:19:45Z</time>
      </trkpt>
      <trkpt lat="45.90633" lon="4.73592">
        <ele>181</ele>
        <time>2016-08-23T08:19:46Z</time>
      </trkpt>
      <trkpt lat="45.90625" lon="4.73596">
        <ele>181</ele>
        <time>2016-08-23T08:19:48Z</time>
      </trkpt>
      <trkpt lat="45.90621" lon="4.73598">
        <ele>181</ele>
        <time>2016-08-23T08:19:49Z</time>
      </trkpt>
      <trkpt lat="45.90613" lon="4.73602">
        <ele>180</ele>
        <time>2016-08-23T08:19:51Z</time>
      </trkpt>
      <trkpt lat="45.90608" lon="4.73604">
        <ele>180</ele>
        <time>2016-08-23T08:19:52Z</time>
      </trkpt>
      <trkpt lat="45.906" lon="4.73607">
        <ele>180</ele>
        <time>2016-08-23T08:19:54Z</time>
      </trkpt>
      <trkpt lat="45.90596" lon="4.73609">
        <ele>180</ele>
        <time>2016-08-23T08:19:55Z</time>
      </trkpt>
      <trkpt lat="45.90588" lon="4.73613">
        <ele>180</ele>
        <time>2016-08-23T08:19:57Z</time>
      </trkpt>
      <trkpt lat="45.90584" lon="4.73614">
        <ele>180</ele>
        <time>2016-08-23T08:19:58Z</time>
      </trkpt>
      <trkpt lat="45.9058" lon="4.73616">
        <ele>179</ele>
        <time>2016-08-23T08:19:59Z</time>
      </trkpt>
      <trkpt lat="45.90575" lon="4.73618">
        <ele>179</ele>
        <time>2016-08-23T08:20:00Z</time>
      </trkpt>
      <trkpt lat="45.90571" lon="4.7362">
        <ele>179</ele>
        <time>2016-08-23T08:20:01Z</time>
      </trkpt>
      <trkpt lat="45.90566" lon="4.73621">
        <ele>179</ele>
        <time>2016-08-23T08:20:02Z</time>
      </trkpt>
      <trkpt lat="45.90562" lon="4.73623">
        <ele>179</ele>
        <time>2016-08-23T08:20:03Z</time>
      </trkpt>
      <trkpt lat="45.90557" lon="4.73625">
        <ele>178</ele>
        <time>2016-08-23T08:20:04Z</time>
      </trkpt>
      <trkpt lat="45.90549" lon="4.73628">
        <ele>178</ele>
        <time>2016-08-23T08:20:06Z</time>
      </trkpt>
      <trkpt lat="45.90544" lon="4.7363">
        <ele>178</ele>
        <time>2016-08-23T08:20:07Z</time>
      </trkpt>
      <trkpt lat="45.90539" lon="4.73631">
        <ele>178</ele>
        <time>2016-08-23T08:20:08Z</time>
      </trkpt>
      <trkpt lat="45.90535" lon="4.73633">
        <ele>178</ele>
        <time>2016-08-23T08:20:09Z</time>
      </trkpt>
      <trkpt lat="45.9053" lon="4.73635">
        <ele>178</ele>
        <time>2016-08-23T08:20:10Z</time>
      </trkpt>
      <trkpt lat="45.90525" lon="4.73637">
        <ele>178</ele>
        <time>2016-08-23T08:20:11Z</time>
      </trkpt>
      <trkpt lat="45.9052" lon="4.73639">
        <ele>178</ele>
        <time>2016-08-23T08:20:12Z</time>
      </trkpt>
      <trkpt lat="45.90515" lon="4.73642">
        <ele>178</ele>
        <time>2016-08-23T08:20:13Z</time>
      </trkpt>
      <trkpt lat="45.9051" lon="4.73644">
        <ele>178</ele>
        <time>2016-08-23T08:20:14Z</time>
      </trkpt>
      <trkpt lat="45.90505" lon="4.73646">
        <ele>178</ele>
        <time>2016-08-23T08:20:15Z</time>
      </trkpt>
      <trkpt lat="45.90499" lon="4.73649">
        <ele>177</ele>
        <time>2016-08-23T08:20:16Z</time>
      </trkpt>
      <trkpt lat="45.90494" lon="4.7365">
        <ele>177</ele>
        <time>2016-08-23T08:20:17Z</time>
      </trkpt>
      <trkpt lat="45.90489" lon="4.73653">
        <ele>177</ele>
        <time>2016-08-23T08:20:18Z</time>
      </trkpt>
      <trkpt lat="45.90484" lon="4.73655">
        <ele>177</ele>
        <time>2016-08-23T08:20:19Z</time>
      </trkpt>
      <trkpt lat="45.90478" lon="4.73658">
        <ele>177</ele>
        <time>2016-08-23T08:20:20Z</time>
      </trkpt>
      <trkpt lat="45.90473" lon="4.73661">
        <ele>177</ele>
        <time>2016-08-23T08:20:21Z</time>
      </trkpt>
      <trkpt lat="45.90468" lon="4.73663">
        <ele>177</ele>
        <time>2016-08-23T08:20:22Z</time>
      </trkpt>
      <trkpt lat="45.90462" lon="4.73666">
        <ele>177</ele>
        <time>2016-08-23T08:20:23Z</time>
      </trkpt>
      <trkpt lat="45.90456" lon="4.73668">
        <ele>176</ele>
        <time>2016-08-23T08:20:24Z</time>
      </trkpt>
      <trkpt lat="45.9045" lon="4.73671">
        <ele>176</ele>
        <time>2016-08-23T08:20:25Z</time>
      </trkpt>
      <trkpt lat="45.90444" lon="4.73673">
        <ele>176</ele>
        <time>2016-08-23T08:20:26Z</time>
      </trkpt>
      <trkpt lat="45.90439" lon="4.73676">
        <ele>176</ele>
        <time>2016-08-23T08:20:27Z</time>
      </trkpt>
      <trkpt lat="45.90433" lon="4.73679">
        <ele>177</ele>
        <time>2016-08-23T08:20:28Z</time>
      </trkpt>
      <trkpt lat="45.90427" lon="4.73682">
        <ele>177</ele>
        <time>2016-08-23T08:20:29Z</time>
      </trkpt>
      <trkpt lat="45.9042" lon="4.73685">
        <ele>177</ele>
        <time>2016-08-23T08:20:30Z</time>
      </trkpt>
      <trkpt lat="45.90414" lon="4.73688">
        <ele>177</ele>
        <time>2016-08-23T08:20:31Z</time>
      </trkpt>
      <trkpt lat="45.90408" lon="4.7369">
        <ele>177</ele>
        <time>2016-08-23T08:20:32Z</time>
      </trkpt>
      <trkpt lat="45.90401" lon="4.73693">
        <ele>177</ele>
        <time>2016-08-23T08:20:33Z</time>
      </trkpt>
      <trkpt lat="45.90395" lon="4.73697">
        <ele>177</ele>
        <time>2016-08-23T08:20:34Z</time>
      </trkpt>
      <trkpt lat="45.90388" lon="4.73699">
        <ele>177</ele>
        <time>2016-08-23T08:20:35Z</time>
      </trkpt>
      <trkpt lat="45.90381" lon="4.73702">
        <ele>177</ele>
        <time>2016-08-23T08:20:36Z</time>
      </trkpt>
      <trkpt lat="45.90374" lon="4.73705">
        <ele>177</ele>
        <time>2016-08-23T08:20:37Z</time>
      </trkpt>
      <trkpt lat="45.90367" lon="4.73709">
        <ele>177</ele>
        <time>2016-08-23T08:20:38Z</time>
      </trkpt>
      <trkpt lat="45.9036" lon="4.73712">
        <ele>177</ele>
        <time>2016-08-23T08:20:39Z</time>
      </trkpt>
      <trkpt lat="45.90353" lon="4.73715">
        <ele>177</ele>
        <time>2016-08-23T08:20:40Z</time>
      </trkpt>
      <trkpt lat="45.90346" lon="4.73718">
        <ele>177</ele>
        <time>2016-08-23T08:20:41Z</time>
      </trkpt>
      <trkpt lat="45.90338" lon="4.73722">
        <ele>177</ele>
        <time>2016-08-23T08:20:42Z</time>
      </trkpt>
      <trkpt lat="45.90331" lon="4.73724">
        <ele>177</ele>
        <time>2016-08-23T08:20:43Z</time>
      </trkpt>
      <trkpt lat="45.90323" lon="4.73727">
        <ele>177</ele>
        <time>2016-08-23T08:20:44Z</time>
      </trkpt>
      <trkpt lat="45.90315" lon="4.7373">
        <ele>177</ele>
        <time>2016-08-23T08:20:45Z</time>
      </trkpt>
      <trkpt lat="45.90308" lon="4.73733">
        <ele>177</ele>
        <time>2016-08-23T08:20:46Z</time>
      </trkpt>
      <trkpt lat="45.903" lon="4.73736">
        <ele>177</ele>
        <time>2016-08-23T08:20:47Z</time>
      </trkpt>
      <trkpt lat="45.90293" lon="4.73739">
        <ele>177</ele>
        <time>2016-08-23T08:20:48Z</time>
      </trkpt>
      <trkpt lat="45.90286" lon="4.73742">
        <ele>177</ele>
        <time>2016-08-23T08:20:49Z</time>
      </trkpt>
      <trkpt lat="45.90279" lon="4.73745">
        <ele>177</ele>
        <time>2016-08-23T08:20:50Z</time>
      </trkpt>
      <trkpt lat="45.90273" lon="4.73748">
        <ele>177</ele>
        <time>2016-08-23T08:20:51Z</time>
      </trkpt>
      <trkpt lat="45.90267" lon="4.7375">
        <ele>178</ele>
        <time>2016-08-23T08:20:52Z</time>
      </trkpt>
      <trkpt lat="45.90261" lon="4.73753">
        <ele>178</ele>
        <time>2016-08-23T08:20:53Z</time>
      </trkpt>
      <trkpt lat="45.90255" lon="4.73755">
        <ele>178</ele>
        <time>2016-08-23T08:20:54Z</time>
      </trkpt>
      <trkpt lat="45.90249" lon="4.73757">
        <ele>178</ele>
        <time>2016-08-23T08:20:55Z</time>
      </trkpt>
      <trkpt lat="45.90243" lon="4.7376">
        <ele>178</ele>
        <time>2016-08-23T08:20:56Z</time>
      </trkpt>
      <trkpt lat="45.90237" lon="4.73762">
        <ele>177</ele>
        <time>2016-08-23T08:20:57Z</time>
      </trkpt>
      <trkpt lat="45.90231" lon="4.73764">
        <ele>177</ele>
        <time>2016-08-23T08:20:58Z</time>
      </trkpt>
      <trkpt lat="45.90225" lon="4.73766">
        <ele>177</ele>
        <time>2016-08-23T08:20:59Z</time>
      </trkpt>
      <trkpt lat="45.90219" lon="4.73768">
        <ele>177</ele>
        <time>2016-08-23T08:21:00Z</time>
      </trkpt>
      <trkpt lat="45.90213" lon="4.7377">
        <ele>177</ele>
        <time>2016-08-23T08:21:01Z</time>
      </trkpt>
      <trkpt lat="45.90207" lon="4.73772">
        <ele>177</ele>
        <time>2016-08-23T08:21:02Z</time>
      </trkpt>
      <trkpt lat="45.90201" lon="4.73774">
        <ele>177</ele>
        <time>2016-08-23T08:21:03Z</time>
      </trkpt>
      <trkpt lat="45.90195" lon="4.73776">
        <ele>177</ele>
        <time>2016-08-23T08:21:04Z</time>
      </trkpt>
      <trkpt lat="45.90189" lon="4.73779">
        <ele>177</ele>
        <time>2016-08-23T08:21:05Z</time>
      </trkpt>
      <trkpt lat="45.90184" lon="4.73781">
        <ele>177</ele>
        <time>2016-08-23T08:21:06Z</time>
      </trkpt>
      <trkpt lat="45.90178" lon="4.73784">
        <ele>177</ele>
        <time>2016-08-23T08:21:07Z</time>
      </trkpt>
      <trkpt lat="45.90173" lon="4.73786">
        <ele>177</ele>
        <time>2016-08-23T08:21:08Z</time>
      </trkpt>
      <trkpt lat="45.90167" lon="4.73789">
        <ele>177</ele>
        <time>2016-08-23T08:21:09Z</time>
      </trkpt>
      <trkpt lat="45.90161" lon="4.73791">
        <ele>176</ele>
        <time>2016-08-23T08:21:10Z</time>
      </trkpt>
      <trkpt lat="45.90155" lon="4.73793">
        <ele>177</ele>
        <time>2016-08-23T08:21:11Z</time>
      </trkpt>
      <trkpt lat="45.90149" lon="4.73796">
        <ele>177</ele>
        <time>2016-08-23T08:21:12Z</time>
      </trkpt>
      <trkpt lat="45.90143" lon="4.73799">
        <ele>177</ele>
        <time>2016-08-23T08:21:13Z</time>
      </trkpt>
      <trkpt lat="45.90137" lon="4.73802">
        <ele>177</ele>
        <time>2016-08-23T08:21:14Z</time>
      </trkpt>
      <trkpt lat="45.90132" lon="4.73804">
        <ele>177</ele>
        <time>2016-08-23T08:21:15Z</time>
      </trkpt>
      <trkpt lat="45.90126" lon="4.73806">
        <ele>177</ele>
        <time>2016-08-23T08:21:16Z</time>
      </trkpt>
      <trkpt lat="45.9012" lon="4.73809">
        <ele>177</ele>
        <time>2016-08-23T08:21:17Z</time>
      </trkpt>
      <trkpt lat="45.90115" lon="4.73811">
        <ele>177</ele>
        <time>2016-08-23T08:21:18Z</time>
      </trkpt>
      <trkpt lat="45.9011" lon="4.73813">
        <ele>177</ele>
        <time>2016-08-23T08:21:19Z</time>
      </trkpt>
      <trkpt lat="45.90104" lon="4.73815">
        <ele>177</ele>
        <time>2016-08-23T08:21:20Z</time>
      </trkpt>
      <trkpt lat="45.90098" lon="4.73816">
        <ele>177</ele>
        <time>2016-08-23T08:21:21Z</time>
      </trkpt>
      <trkpt lat="45.90093" lon="4.73818">
        <ele>177</ele>
        <time>2016-08-23T08:21:22Z</time>
      </trkpt>
      <trkpt lat="45.90087" lon="4.73821">
        <ele>177</ele>
        <time>2016-08-23T08:21:23Z</time>
      </trkpt>
      <trkpt lat="45.90081" lon="4.73823">
        <ele>178</ele>
        <time>2016-08-23T08:21:24Z</time>
      </trkpt>
      <trkpt lat="45.90075" lon="4.73825">
        <ele>178</ele>
        <time>2016-08-23T08:21:25Z</time>
      </trkpt>
      <trkpt lat="45.90069" lon="4.73828">
        <ele>178</ele>
        <time>2016-08-23T08:21:26Z</time>
      </trkpt>
      <trkpt lat="45.90063" lon="4.7383">
        <ele>178</ele>
        <time>2016-08-23T08:21:27Z</time>
      </trkpt>
      <trkpt lat="45.90058" lon="4.73832">
        <ele>178</ele>
        <time>2016-08-23T08:21:28Z</time>
      </trkpt>
      <trkpt lat="45.90052" lon="4.73835">
        <ele>178</ele>
        <time>2016-08-23T08:21:29Z</time>
      </trkpt>
      <trkpt lat="45.90046" lon="4.73837">
        <ele>178</ele>
        <time>2016-08-23T08:21:30Z</time>
      </trkpt>
      <trkpt lat="45.9004" lon="4.73839">
        <ele>178</ele>
        <time>2016-08-23T08:21:31Z</time>
      </trkpt>
      <trkpt lat="45.90034" lon="4.73842">
        <ele>178</ele>
        <time>2016-08-23T08:21:32Z</time>
      </trkpt>
      <trkpt lat="45.90028" lon="4.73844">
        <ele>178</ele>
        <time>2016-08-23T08:21:33Z</time>
      </trkpt>
      <trkpt lat="45.90022" lon="4.73847">
        <ele>178</ele>
        <time>2016-08-23T08:21:34Z</time>
      </trkpt>
      <trkpt lat="45.90017" lon="4.7385">
        <ele>178</ele>
        <time>2016-08-23T08:21:35Z</time>
      </trkpt>
      <trkpt lat="45.90011" lon="4.73852">
        <ele>178</ele>
        <time>2016-08-23T08:21:36Z</time>
      </trkpt>
      <trkpt lat="45.90005" lon="4.73855">
        <ele>178</ele>
        <time>2016-08-23T08:21:37Z</time>
      </trkpt>
      <trkpt lat="45.89999" lon="4.73857">
        <ele>178</ele>
        <time>2016-08-23T08:21:38Z</time>
      </trkpt>
      <trkpt lat="45.89993" lon="4.73859">
        <ele>178</ele>
        <time>2016-08-23T08:21:39Z</time>
      </trkpt>
      <trkpt lat="45.89988" lon="4.73862">
        <ele>178</ele>
        <time>2016-08-23T08:21:40Z</time>
      </trkpt>
      <trkpt lat="45.89983" lon="4.73864">
        <ele>178</ele>
        <time>2016-08-23T08:21:41Z</time>
      </trkpt>
      <trkpt lat="45.89977" lon="4.73866">
        <ele>178</ele>
        <time>2016-08-23T08:21:42Z</time>
      </trkpt>
      <trkpt lat="45.89972" lon="4.73868">
        <ele>178</ele>
        <time>2016-08-23T08:21:43Z</time>
      </trkpt>
      <trkpt lat="45.89966" lon="4.7387">
        <ele>178</ele>
        <time>2016-08-23T08:21:44Z</time>
      </trkpt>
      <trkpt lat="45.89961" lon="4.73872">
        <ele>178</ele>
        <time>2016-08-23T08:21:45Z</time>
      </trkpt>
      <trkpt lat="45.89955" lon="4.73874">
        <ele>178</ele>
        <time>2016-08-23T08:21:46Z</time>
      </trkpt>
      <trkpt lat="45.89949" lon="4.73876">
        <ele>178</ele>
        <time>2016-08-23T08:21:47Z</time>
      </trkpt>
      <trkpt lat="45.89943" lon="4.73879">
        <ele>178</ele>
        <time>2016-08-23T08:21:48Z</time>
      </trkpt>
      <trkpt lat="45.89938" lon="4.73882">
        <ele>178</ele>
        <time>2016-08-23T08:21:49Z</time>
      </trkpt>
      <trkpt lat="45.89932" lon="4.73885">
        <ele>178</ele>
        <time>2016-08-23T08:21:50Z</time>
      </trkpt>
      <trkpt lat="45.89927" lon="4.73888">
        <ele>178</ele>
        <time>2016-08-23T08:21:51Z</time>
      </trkpt>
      <trkpt lat="45.89921" lon="4.73891">
        <ele>178</ele>
        <time>2016-08-23T08:21:52Z</time>
      </trkpt>
      <trkpt lat="45.89915" lon="4.73894">
        <ele>178</ele>
        <time>2016-08-23T08:21:53Z</time>
      </trkpt>
      <trkpt lat="45.89909" lon="4.73896">
        <ele>178</ele>
        <time>2016-08-23T08:21:54Z</time>
      </trkpt>
      <trkpt lat="45.89904" lon="4.73898">
        <ele>178</ele>
        <time>2016-08-23T08:21:55Z</time>
      </trkpt>
      <trkpt lat="45.89898" lon="4.73901">
        <ele>178</ele>
        <time>2016-08-23T08:21:56Z</time>
      </trkpt>
      <trkpt lat="45.89892" lon="4.73903">
        <ele>179</ele>
        <time>2016-08-23T08:21:57Z</time>
      </trkpt>
      <trkpt lat="45.89886" lon="4.73906">
        <ele>179</ele>
        <time>2016-08-23T08:21:58Z</time>
      </trkpt>
      <trkpt lat="45.8988" lon="4.73908">
        <ele>179</ele>
        <time>2016-08-23T08:21:59Z</time>
      </trkpt>
      <trkpt lat="45.89874" lon="4.73911">
        <ele>179</ele>
        <time>2016-08-23T08:22:00Z</time>
      </trkpt>
      <trkpt lat="45.89868" lon="4.73914">
        <ele>179</ele>
        <time>2016-08-23T08:22:01Z</time>
      </trkpt>
      <trkpt lat="45.89861" lon="4.73917">
        <ele>179</ele>
        <time>2016-08-23T08:22:02Z</time>
      </trkpt>
      <trkpt lat="45.89855" lon="4.7392">
        <ele>179</ele>
        <time>2016-08-23T08:22:03Z</time>
      </trkpt>
      <trkpt lat="45.89849" lon="4.73924">
        <ele>179</ele>
        <time>2016-08-23T08:22:04Z</time>
      </trkpt>
      <trkpt lat="45.89842" lon="4.73928">
        <ele>179</ele>
        <time>2016-08-23T08:22:05Z</time>
      </trkpt>
      <trkpt lat="45.89836" lon="4.73932">
        <ele>179</ele>
        <time>2016-08-23T08:22:06Z</time>
      </trkpt>
      <trkpt lat="45.8983" lon="4.73934">
        <ele>179</ele>
        <time>2016-08-23T08:22:07Z</time>
      </trkpt>
      <trkpt lat="45.89825" lon="4.73936">
        <ele>179</ele>
        <time>2016-08-23T08:22:08Z</time>
      </trkpt>
      <trkpt lat="45.89819" lon="4.73937">
        <ele>179</ele>
        <time>2016-08-23T08:22:09Z</time>
      </trkpt>
      <trkpt lat="45.89813" lon="4.7394">
        <ele>179</ele>
        <time>2016-08-23T08:22:10Z</time>
      </trkpt>
      <trkpt lat="45.89808" lon="4.73942">
        <ele>179</ele>
        <time>2016-08-23T08:22:11Z</time>
      </trkpt>
      <trkpt lat="45.89802" lon="4.73944">
        <ele>179</ele>
        <time>2016-08-23T08:22:12Z</time>
      </trkpt>
      <trkpt lat="45.89796" lon="4.73946">
        <ele>179</ele>
        <time>2016-08-23T08:22:13Z</time>
      </trkpt>
      <trkpt lat="45.89791" lon="4.73948">
        <ele>179</ele>
        <time>2016-08-23T08:22:14Z</time>
      </trkpt>
      <trkpt lat="45.89785" lon="4.73951">
        <ele>179</ele>
        <time>2016-08-23T08:22:15Z</time>
      </trkpt>
      <trkpt lat="45.8978" lon="4.73953">
        <ele>179</ele>
        <time>2016-08-23T08:22:16Z</time>
      </trkpt>
      <trkpt lat="45.89774" lon="4.73955">
        <ele>179</ele>
        <time>2016-08-23T08:22:17Z</time>
      </trkpt>
      <trkpt lat="45.89768" lon="4.73956">
        <ele>179</ele>
        <time>2016-08-23T08:22:18Z</time>
      </trkpt>
      <trkpt lat="45.89763" lon="4.73958">
        <ele>179</ele>
        <time>2016-08-23T08:22:19Z</time>
      </trkpt>
      <trkpt lat="45.89757" lon="4.7396">
        <ele>178</ele>
        <time>2016-08-23T08:22:20Z</time>
      </trkpt>
      <trkpt lat="45.89752" lon="4.73962">
        <ele>178</ele>
        <time>2016-08-23T08:22:21Z</time>
      </trkpt>
      <trkpt lat="45.89746" lon="4.73964">
        <ele>178</ele>
        <time>2016-08-23T08:22:22Z</time>
      </trkpt>
      <trkpt lat="45.89741" lon="4.73966">
        <ele>178</ele>
        <time>2016-08-23T08:22:23Z</time>
      </trkpt>
      <trkpt lat="45.89735" lon="4.73969">
        <ele>178</ele>
        <time>2016-08-23T08:22:24Z</time>
      </trkpt>
      <trkpt lat="45.89729" lon="4.73971">
        <ele>178</ele>
        <time>2016-08-23T08:22:25Z</time>
      </trkpt>
      <trkpt lat="45.89724" lon="4.73974">
        <ele>178</ele>
        <time>2016-08-23T08:22:26Z</time>
      </trkpt>
      <trkpt lat="45.89718" lon="4.73977">
        <ele>178</ele>
        <time>2016-08-23T08:22:27Z</time>
      </trkpt>
      <trkpt lat="45.89712" lon="4.73979">
        <ele>178</ele>
        <time>2016-08-23T08:22:28Z</time>
      </trkpt>
      <trkpt lat="45.89707" lon="4.73981">
        <ele>178</ele>
        <time>2016-08-23T08:22:29Z</time>
      </trkpt>
      <trkpt lat="45.89702" lon="4.73984">
        <ele>178</ele>
        <time>2016-08-23T08:22:30Z</time>
      </trkpt>
      <trkpt lat="45.89696" lon="4.73986">
        <ele>178</ele>
        <time>2016-08-23T08:22:31Z</time>
      </trkpt>
      <trkpt lat="45.8969" lon="4.73989">
        <ele>178</ele>
        <time>2016-08-23T08:22:32Z</time>
      </trkpt>
      <trkpt lat="45.89684" lon="4.73991">
        <ele>179</ele>
        <time>2016-08-23T08:22:33Z</time>
      </trkpt>
      <trkpt lat="45.89679" lon="4.73993">
        <ele>179</ele>
        <time>2016-08-23T08:22:34Z</time>
      </trkpt>
      <trkpt lat="45.89672" lon="4.73994">
        <ele>179</ele>
        <time>2016-08-23T08:22:35Z</time>
      </trkpt>
      <trkpt lat="45.89666" lon="4.73998">
        <ele>179</ele>
        <time>2016-08-23T08:22:36Z</time>
      </trkpt>
      <trkpt lat="45.8966" lon="4.74">
        <ele>179</ele>
        <time>2016-08-23T08:22:37Z</time>
      </trkpt>
      <trkpt lat="45.89655" lon="4.74002">
        <ele>179</ele>
        <time>2016-08-23T08:22:38Z</time>
      </trkpt>
      <trkpt lat="45.89648" lon="4.74004">
        <ele>180</ele>
        <time>2016-08-23T08:22:39Z</time>
      </trkpt>
      <trkpt lat="45.89642" lon="4.74007">
        <ele>180</ele>
        <time>2016-08-23T08:22:40Z</time>
      </trkpt>
      <trkpt lat="45.89636" lon="4.74009">
        <ele>180</ele>
        <time>2016-08-23T08:22:41Z</time>
      </trkpt>
      <trkpt lat="45.8963" lon="4.74011">
        <ele>180</ele>
        <time>2016-08-23T08:22:42Z</time>
      </trkpt>
      <trkpt lat="45.89625" lon="4.74013">
        <ele>180</ele>
        <time>2016-08-23T08:22:43Z</time>
      </trkpt>
      <trkpt lat="45.89619" lon="4.74015">
        <ele>180</ele>
        <time>2016-08-23T08:22:44Z</time>
      </trkpt>
      <trkpt lat="45.89613" lon="4.74016">
        <ele>180</ele>
        <time>2016-08-23T08:22:45Z</time>
      </trkpt>
      <trkpt lat="45.89608" lon="4.74018">
        <ele>180</ele>
        <time>2016-08-23T08:22:46Z</time>
      </trkpt>
      <trkpt lat="45.89603" lon="4.7402">
        <ele>180</ele>
        <time>2016-08-23T08:22:47Z</time>
      </trkpt>
      <trkpt lat="45.89599" lon="4.74022">
        <ele>180</ele>
        <time>2016-08-23T08:22:48Z</time>
      </trkpt>
      <trkpt lat="45.89595" lon="4.74025">
        <ele>180</ele>
        <time>2016-08-23T08:22:49Z</time>
      </trkpt>
      <trkpt lat="45.8959" lon="4.74027">
        <ele>180</ele>
        <time>2016-08-23T08:22:50Z</time>
      </trkpt>
      <trkpt lat="45.89584" lon="4.74029">
        <ele>180</ele>
        <time>2016-08-23T08:22:51Z</time>
      </trkpt>
      <trkpt lat="45.89579" lon="4.74032">
        <ele>181</ele>
        <time>2016-08-23T08:22:52Z</time>
      </trkpt>
      <trkpt lat="45.89573" lon="4.74034">
        <ele>181</ele>
        <time>2016-08-23T08:22:53Z</time>
      </trkpt>
      <trkpt lat="45.89568" lon="4.74036">
        <ele>181</ele>
        <time>2016-08-23T08:22:54Z</time>
      </trkpt>
      <trkpt lat="45.89562" lon="4.74039">
        <ele>181</ele>
        <time>2016-08-23T08:22:55Z</time>
      </trkpt>
      <trkpt lat="45.89556" lon="4.74041">
        <ele>181</ele>
        <time>2016-08-23T08:22:56Z</time>
      </trkpt>
      <trkpt lat="45.89551" lon="4.74043">
        <ele>181</ele>
        <time>2016-08-23T08:22:57Z</time>
      </trkpt>
      <trkpt lat="45.89545" lon="4.74045">
        <ele>181</ele>
        <time>2016-08-23T08:22:58Z</time>
      </trkpt>
      <trkpt lat="45.89539" lon="4.74047">
        <ele>181</ele>
        <time>2016-08-23T08:22:59Z</time>
      </trkpt>
      <trkpt lat="45.89533" lon="4.74049">
        <ele>181</ele>
        <time>2016-08-23T08:23:00Z</time>
      </trkpt>
      <trkpt lat="45.89528" lon="4.74051">
        <ele>181</ele>
        <time>2016-08-23T08:23:01Z</time>
      </trkpt>
      <trkpt lat="45.89522" lon="4.74053">
        <ele>181</ele>
        <time>2016-08-23T08:23:02Z</time>
      </trkpt>
      <trkpt lat="45.89516" lon="4.74055">
        <ele>181</ele>
        <time>2016-08-23T08:23:03Z</time>
      </trkpt>
      <trkpt lat="45.89511" lon="4.74058">
        <ele>181</ele>
        <time>2016-08-23T08:23:04Z</time>
      </trkpt>
      <trkpt lat="45.89505" lon="4.7406">
        <ele>181</ele>
        <time>2016-08-23T08:23:05Z</time>
      </trkpt>
      <trkpt lat="45.89499" lon="4.74062">
        <ele>181</ele>
        <time>2016-08-23T08:23:06Z</time>
      </trkpt>
      <trkpt lat="45.89493" lon="4.74064">
        <ele>181</ele>
        <time>2016-08-23T08:23:07Z</time>
      </trkpt>
      <trkpt lat="45.89487" lon="4.74067">
        <ele>181</ele>
        <time>2016-08-23T08:23:08Z</time>
      </trkpt>
      <trkpt lat="45.89481" lon="4.74069">
        <ele>181</ele>
        <time>2016-08-23T08:23:09Z</time>
      </trkpt>
      <trkpt lat="45.89475" lon="4.74072">
        <ele>181</ele>
        <time>2016-08-23T08:23:10Z</time>
      </trkpt>
      <trkpt lat="45.8947" lon="4.74074">
        <ele>181</ele>
        <time>2016-08-23T08:23:11Z</time>
      </trkpt>
      <trkpt lat="45.89464" lon="4.74077">
        <ele>181</ele>
        <time>2016-08-23T08:23:12Z</time>
      </trkpt>
      <trkpt lat="45.89459" lon="4.74079">
        <ele>181</ele>
        <time>2016-08-23T08:23:13Z</time>
      </trkpt>
      <trkpt lat="45.89453" lon="4.74081">
        <ele>182</ele>
        <time>2016-08-23T08:23:14Z</time>
      </trkpt>
      <trkpt lat="45.89447" lon="4.74084">
        <ele>182</ele>
        <time>2016-08-23T08:23:15Z</time>
      </trkpt>
      <trkpt lat="45.89441" lon="4.74086">
        <ele>182</ele>
        <time>2016-08-23T08:23:16Z</time>
      </trkpt>
      <trkpt lat="45.89436" lon="4.74088">
        <ele>182</ele>
        <time>2016-08-23T08:23:17Z</time>
      </trkpt>
      <trkpt lat="45.89431" lon="4.74091">
        <ele>182</ele>
        <time>2016-08-23T08:23:18Z</time>
      </trkpt>
      <trkpt lat="45.89426" lon="4.74093">
        <ele>182</ele>
        <time>2016-08-23T08:23:19Z</time>
      </trkpt>
      <trkpt lat="45.89421" lon="4.74095">
        <ele>182</ele>
        <time>2016-08-23T08:23:20Z</time>
      </trkpt>
      <trkpt lat="45.89416" lon="4.74097">
        <ele>183</ele>
        <time>2016-08-23T08:23:21Z</time>
      </trkpt>
      <trkpt lat="45.8941" lon="4.74099">
        <ele>183</ele>
        <time>2016-08-23T08:23:22Z</time>
      </trkpt>
      <trkpt lat="45.89405" lon="4.74102">
        <ele>183</ele>
        <time>2016-08-23T08:23:23Z</time>
      </trkpt>
      <trkpt lat="45.89399" lon="4.74104">
        <ele>183</ele>
        <time>2016-08-23T08:23:24Z</time>
      </trkpt>
      <trkpt lat="45.89394" lon="4.74107">
        <ele>183</ele>
        <time>2016-08-23T08:23:25Z</time>
      </trkpt>
      <trkpt lat="45.89389" lon="4.7411">
        <ele>184</ele>
        <time>2016-08-23T08:23:26Z</time>
      </trkpt>
      <trkpt lat="45.89384" lon="4.74113">
        <ele>184</ele>
        <time>2016-08-23T08:23:27Z</time>
      </trkpt>
      <trkpt lat="45.89379" lon="4.74116">
        <ele>184</ele>
        <time>2016-08-23T08:23:28Z</time>
      </trkpt>
      <trkpt lat="45.89374" lon="4.74119">
        <ele>184</ele>
        <time>2016-08-23T08:23:29Z</time>
      </trkpt>
      <trkpt lat="45.89369" lon="4.74122">
        <ele>184</ele>
        <time>2016-08-23T08:23:30Z</time>
      </trkpt>
      <trkpt lat="45.89363" lon="4.74125">
        <ele>184</ele>
        <time>2016-08-23T08:23:31Z</time>
      </trkpt>
      <trkpt lat="45.89358" lon="4.74127">
        <ele>184</ele>
        <time>2016-08-23T08:23:32Z</time>
      </trkpt>
      <trkpt lat="45.89353" lon="4.7413">
        <ele>184</ele>
        <time>2016-08-23T08:23:33Z</time>
      </trkpt>
      <trkpt lat="45.89348" lon="4.74132">
        <ele>184</ele>
        <time>2016-08-23T08:23:34Z</time>
      </trkpt>
      <trkpt lat="45.89342" lon="4.74134">
        <ele>185</ele>
        <time>2016-08-23T08:23:35Z</time>
      </trkpt>
      <trkpt lat="45.89337" lon="4.74137">
        <ele>185</ele>
        <time>2016-08-23T08:23:36Z</time>
      </trkpt>
      <trkpt lat="45.89332" lon="4.74138">
        <ele>185</ele>
        <time>2016-08-23T08:23:37Z</time>
      </trkpt>
      <trkpt lat="45.89327" lon="4.7414">
        <ele>185</ele>
        <time>2016-08-23T08:23:38Z</time>
      </trkpt>
      <trkpt lat="45.89322" lon="4.74143">
        <ele>185</ele>
        <time>2016-08-23T08:23:39Z</time>
      </trkpt>
      <trkpt lat="45.89317" lon="4.74145">
        <ele>185</ele>
        <time>2016-08-23T08:23:40Z</time>
      </trkpt>
      <trkpt lat="45.89312" lon="4.74148">
        <ele>185</ele>
        <time>2016-08-23T08:23:41Z</time>
      </trkpt>
      <trkpt lat="45.89307" lon="4.7415">
        <ele>185</ele>
        <time>2016-08-23T08:23:42Z</time>
      </trkpt>
      <trkpt lat="45.89302" lon="4.74153">
        <ele>185</ele>
        <time>2016-08-23T08:23:43Z</time>
      </trkpt>
      <trkpt lat="45.89297" lon="4.74155">
        <ele>185</ele>
        <time>2016-08-23T08:23:44Z</time>
      </trkpt>
      <trkpt lat="45.89292" lon="4.74157">
        <ele>185</ele>
        <time>2016-08-23T08:23:45Z</time>
      </trkpt>
      <trkpt lat="45.89286" lon="4.7416">
        <ele>185</ele>
        <time>2016-08-23T08:23:46Z</time>
      </trkpt>
      <trkpt lat="45.89281" lon="4.74163">
        <ele>185</ele>
        <time>2016-08-23T08:23:47Z</time>
      </trkpt>
      <trkpt lat="45.89276" lon="4.74167">
        <ele>185</ele>
        <time>2016-08-23T08:23:48Z</time>
      </trkpt>
      <trkpt lat="45.89271" lon="4.7417">
        <ele>186</ele>
        <time>2016-08-23T08:23:49Z</time>
      </trkpt>
      <trkpt lat="45.89266" lon="4.74172">
        <ele>186</ele>
        <time>2016-08-23T08:23:50Z</time>
      </trkpt>
      <trkpt lat="45.89262" lon="4.74174">
        <ele>185</ele>
        <time>2016-08-23T08:23:51Z</time>
      </trkpt>
      <trkpt lat="45.89256" lon="4.74176">
        <ele>185</ele>
        <time>2016-08-23T08:23:52Z</time>
      </trkpt>
      <trkpt lat="45.89252" lon="4.74179">
        <ele>185</ele>
        <time>2016-08-23T08:23:53Z</time>
      </trkpt>
      <trkpt lat="45.89244" lon="4.74185">
        <ele>186</ele>
        <time>2016-08-23T08:23:55Z</time>
      </trkpt>
      <trkpt lat="45.8924" lon="4.74188">
        <ele>186</ele>
        <time>2016-08-23T08:23:56Z</time>
      </trkpt>
      <trkpt lat="45.89235" lon="4.74191">
        <ele>186</ele>
        <time>2016-08-23T08:23:57Z</time>
      </trkpt>
      <trkpt lat="45.89231" lon="4.74193">
        <ele>186</ele>
        <time>2016-08-23T08:23:58Z</time>
      </trkpt>
      <trkpt lat="45.89226" lon="4.74196">
        <ele>186</ele>
        <time>2016-08-23T08:23:59Z</time>
      </trkpt>
      <trkpt lat="45.8922" lon="4.74197">
        <ele>186</ele>
        <time>2016-08-23T08:24:00Z</time>
      </trkpt>
      <trkpt lat="45.89214" lon="4.74199">
        <ele>186</ele>
        <time>2016-08-23T08:24:01Z</time>
      </trkpt>
      <trkpt lat="45.8921" lon="4.74202">
        <ele>186</ele>
        <time>2016-08-23T08:24:02Z</time>
      </trkpt>
      <trkpt lat="45.89205" lon="4.74204">
        <ele>186</ele>
        <time>2016-08-23T08:24:03Z</time>
      </trkpt>
      <trkpt lat="45.892" lon="4.74206">
        <ele>186</ele>
        <time>2016-08-23T08:24:04Z</time>
      </trkpt>
      <trkpt lat="45.89195" lon="4.74208">
        <ele>186</ele>
        <time>2016-08-23T08:24:05Z</time>
      </trkpt>
      <trkpt lat="45.89189" lon="4.7421">
        <ele>186</ele>
        <time>2016-08-23T08:24:06Z</time>
      </trkpt>
      <trkpt lat="45.89184" lon="4.74212">
        <ele>186</ele>
        <time>2016-08-23T08:24:07Z</time>
      </trkpt>
      <trkpt lat="45.89178" lon="4.74215">
        <ele>186</ele>
        <time>2016-08-23T08:24:08Z</time>
      </trkpt>
      <trkpt lat="45.89173" lon="4.74218">
        <ele>186</ele>
        <time>2016-08-23T08:24:09Z</time>
      </trkpt>
      <trkpt lat="45.89168" lon="4.74219">
        <ele>186</ele>
        <time>2016-08-23T08:24:10Z</time>
      </trkpt>
      <trkpt lat="45.89162" lon="4.74223">
        <ele>186</ele>
        <time>2016-08-23T08:24:11Z</time>
      </trkpt>
      <trkpt lat="45.89157" lon="4.74225">
        <ele>186</ele>
        <time>2016-08-23T08:24:12Z</time>
      </trkpt>
      <trkpt lat="45.89151" lon="4.74224">
        <ele>186</ele>
        <time>2016-08-23T08:24:13Z</time>
      </trkpt>
      <trkpt lat="45.89145" lon="4.74225">
        <ele>186</ele>
        <time>2016-08-23T08:24:14Z</time>
      </trkpt>
      <trkpt lat="45.89139" lon="4.74227">
        <ele>186</ele>
        <time>2016-08-23T08:24:15Z</time>
      </trkpt>
      <trkpt lat="45.89133" lon="4.74228">
        <ele>186</ele>
        <time>2016-08-23T08:24:16Z</time>
      </trkpt>
      <trkpt lat="45.89128" lon="4.7423">
        <ele>186</ele>
        <time>2016-08-23T08:24:17Z</time>
      </trkpt>
      <trkpt lat="45.89123" lon="4.74232">
        <ele>186</ele>
        <time>2016-08-23T08:24:18Z</time>
      </trkpt>
      <trkpt lat="45.89117" lon="4.74234">
        <ele>186</ele>
        <time>2016-08-23T08:24:19Z</time>
      </trkpt>
      <trkpt lat="45.89112" lon="4.74236">
        <ele>186</ele>
        <time>2016-08-23T08:24:20Z</time>
      </trkpt>
      <trkpt lat="45.89106" lon="4.74238">
        <ele>186</ele>
        <time>2016-08-23T08:24:21Z</time>
      </trkpt>
      <trkpt lat="45.891" lon="4.7424">
        <ele>186</ele>
        <time>2016-08-23T08:24:22Z</time>
      </trkpt>
      <trkpt lat="45.89092" lon="4.74241">
        <ele>186</ele>
        <time>2016-08-23T08:24:23Z</time>
      </trkpt>
      <trkpt lat="45.89086" lon="4.74244">
        <ele>186</ele>
        <time>2016-08-23T08:24:24Z</time>
      </trkpt>
      <trkpt lat="45.89079" lon="4.74246">
        <ele>186</ele>
        <time>2016-08-23T08:24:25Z</time>
      </trkpt>
      <trkpt lat="45.89073" lon="4.74249">
        <ele>186</ele>
        <time>2016-08-23T08:24:26Z</time>
      </trkpt>
      <trkpt lat="45.89066" lon="4.74251">
        <ele>186</ele>
        <time>2016-08-23T08:24:27Z</time>
      </trkpt>
      <trkpt lat="45.8906" lon="4.74253">
        <ele>186</ele>
        <time>2016-08-23T08:24:28Z</time>
      </trkpt>
      <trkpt lat="45.89053" lon="4.74254">
        <ele>187</ele>
        <time>2016-08-23T08:24:29Z</time>
      </trkpt>
      <trkpt lat="45.89047" lon="4.74257">
        <ele>187</ele>
        <time>2016-08-23T08:24:30Z</time>
      </trkpt>
      <trkpt lat="45.89041" lon="4.7426">
        <ele>187</ele>
        <time>2016-08-23T08:24:31Z</time>
      </trkpt>
      <trkpt lat="45.89034" lon="4.74262">
        <ele>187</ele>
        <time>2016-08-23T08:24:32Z</time>
      </trkpt>
      <trkpt lat="45.89028" lon="4.74263">
        <ele>187</ele>
        <time>2016-08-23T08:24:33Z</time>
      </trkpt>
      <trkpt lat="45.89022" lon="4.74265">
        <ele>187</ele>
        <time>2016-08-23T08:24:34Z</time>
      </trkpt>
      <trkpt lat="45.89016" lon="4.74267">
        <ele>187</ele>
        <time>2016-08-23T08:24:35Z</time>
      </trkpt>
      <trkpt lat="45.89009" lon="4.74268">
        <ele>187</ele>
        <time>2016-08-23T08:24:36Z</time>
      </trkpt>
      <trkpt lat="45.89002" lon="4.7427">
        <ele>187</ele>
        <time>2016-08-23T08:24:37Z</time>
      </trkpt>
      <trkpt lat="45.88995" lon="4.74271">
        <ele>187</ele>
        <time>2016-08-23T08:24:38Z</time>
      </trkpt>
      <trkpt lat="45.88989" lon="4.74272">
        <ele>187</ele>
        <time>2016-08-23T08:24:39Z</time>
      </trkpt>
      <trkpt lat="45.88982" lon="4.74272">
        <ele>187</ele>
        <time>2016-08-23T08:24:40Z</time>
      </trkpt>
      <trkpt lat="45.88975" lon="4.74272">
        <ele>187</ele>
        <time>2016-08-23T08:24:41Z</time>
      </trkpt>
      <trkpt lat="45.88969" lon="4.74272">
        <ele>187</ele>
        <time>2016-08-23T08:24:42Z</time>
      </trkpt>
      <trkpt lat="45.88963" lon="4.74271">
        <ele>187</ele>
        <time>2016-08-23T08:24:43Z</time>
      </trkpt>
      <trkpt lat="45.88959" lon="4.74271">
        <ele>187</ele>
        <time>2016-08-23T08:24:44Z</time>
      </trkpt>
      <trkpt lat="45.88952" lon="4.74271">
        <ele>187</ele>
        <time>2016-08-23T08:24:46Z</time>
      </trkpt>
      <trkpt lat="45.88947" lon="4.74271">
        <ele>187</ele>
        <time>2016-08-23T08:24:47Z</time>
      </trkpt>
      <trkpt lat="45.88939" lon="4.74271">
        <ele>187</ele>
        <time>2016-08-23T08:24:49Z</time>
      </trkpt>
      <trkpt lat="45.88935" lon="4.74269">
        <ele>187</ele>
        <time>2016-08-23T08:24:50Z</time>
      </trkpt>
      <trkpt lat="45.88929" lon="4.74266">
        <ele>187</ele>
        <time>2016-08-23T08:24:52Z</time>
      </trkpt>
      <trkpt lat="45.88925" lon="4.74264">
        <ele>187</ele>
        <time>2016-08-23T08:24:53Z</time>
      </trkpt>
      <trkpt lat="45.88921" lon="4.74262">
        <ele>187</ele>
        <time>2016-08-23T08:24:54Z</time>
      </trkpt>
      <trkpt lat="45.88916" lon="4.74259">
        <ele>187</ele>
        <time>2016-08-23T08:24:55Z</time>
      </trkpt>
      <trkpt lat="45.88912" lon="4.74253">
        <ele>187</ele>
        <time>2016-08-23T08:24:56Z</time>
      </trkpt>
      <trkpt lat="45.88907" lon="4.74248">
        <ele>187</ele>
        <time>2016-08-23T08:24:57Z</time>
      </trkpt>
      <trkpt lat="45.88902" lon="4.74244">
        <ele>187</ele>
        <time>2016-08-23T08:24:58Z</time>
      </trkpt>
      <trkpt lat="45.88898" lon="4.7424">
        <ele>187</ele>
        <time>2016-08-23T08:24:59Z</time>
      </trkpt>
      <trkpt lat="45.88892" lon="4.74237">
        <ele>187</ele>
        <time>2016-08-23T08:25:00Z</time>
      </trkpt>
      <trkpt lat="45.88887" lon="4.74234">
        <ele>187</ele>
        <time>2016-08-23T08:25:01Z</time>
      </trkpt>
      <trkpt lat="45.88882" lon="4.7423">
        <ele>187</ele>
        <time>2016-08-23T08:25:02Z</time>
      </trkpt>
      <trkpt lat="45.88877" lon="4.74226">
        <ele>187</ele>
        <time>2016-08-23T08:25:03Z</time>
      </trkpt>
      <trkpt lat="45.88872" lon="4.74222">
        <ele>187</ele>
        <time>2016-08-23T08:25:04Z</time>
      </trkpt>
      <trkpt lat="45.88867" lon="4.74218">
        <ele>187</ele>
        <time>2016-08-23T08:25:05Z</time>
      </trkpt>
      <trkpt lat="45.8886" lon="4.74214">
        <ele>187</ele>
        <time>2016-08-23T08:25:06Z</time>
      </trkpt>
      <trkpt lat="45.88854" lon="4.7421">
        <ele>187</ele>
        <time>2016-08-23T08:25:07Z</time>
      </trkpt>
      <trkpt lat="45.88849" lon="4.74207">
        <ele>187</ele>
        <time>2016-08-23T08:25:08Z</time>
      </trkpt>
      <trkpt lat="45.88843" lon="4.74204">
        <ele>187</ele>
        <time>2016-08-23T08:25:09Z</time>
      </trkpt>
      <trkpt lat="45.88835" lon="4.742">
        <ele>187</ele>
        <time>2016-08-23T08:25:10Z</time>
      </trkpt>
      <trkpt lat="45.88829" lon="4.74197">
        <ele>187</ele>
        <time>2016-08-23T08:25:11Z</time>
      </trkpt>
      <trkpt lat="45.88823" lon="4.74194">
        <ele>187</ele>
        <time>2016-08-23T08:25:12Z</time>
      </trkpt>
      <trkpt lat="45.88818" lon="4.74192">
        <ele>187</ele>
        <time>2016-08-23T08:25:13Z</time>
      </trkpt>
      <trkpt lat="45.88812" lon="4.7419">
        <ele>187</ele>
        <time>2016-08-23T08:25:14Z</time>
      </trkpt>
      <trkpt lat="45.88806" lon="4.74187">
        <ele>187</ele>
        <time>2016-08-23T08:25:15Z</time>
      </trkpt>
      <trkpt lat="45.888" lon="4.74185">
        <ele>187</ele>
        <time>2016-08-23T08:25:16Z</time>
      </trkpt>
      <trkpt lat="45.88795" lon="4.74183">
        <ele>187</ele>
        <time>2016-08-23T08:25:17Z</time>
      </trkpt>
      <trkpt lat="45.88789" lon="4.7418">
        <ele>188</ele>
        <time>2016-08-23T08:25:18Z</time>
      </trkpt>
      <trkpt lat="45.88784" lon="4.74178">
        <ele>188</ele>
        <time>2016-08-23T08:25:19Z</time>
      </trkpt>
      <trkpt lat="45.88778" lon="4.74176">
        <ele>188</ele>
        <time>2016-08-23T08:25:20Z</time>
      </trkpt>
      <trkpt lat="45.88773" lon="4.74173">
        <ele>188</ele>
        <time>2016-08-23T08:25:21Z</time>
      </trkpt>
      <trkpt lat="45.8877" lon="4.7417">
        <ele>188</ele>
        <time>2016-08-23T08:25:22Z</time>
      </trkpt>
      <trkpt lat="45.88765" lon="4.74167">
        <ele>188</ele>
        <time>2016-08-23T08:25:23Z</time>
      </trkpt>
      <trkpt lat="45.8876" lon="4.74164">
        <ele>187</ele>
        <time>2016-08-23T08:25:24Z</time>
      </trkpt>
      <trkpt lat="45.88756" lon="4.74161">
        <ele>188</ele>
        <time>2016-08-23T08:25:25Z</time>
      </trkpt>
      <trkpt lat="45.88752" lon="4.74157">
        <ele>188</ele>
        <time>2016-08-23T08:25:26Z</time>
      </trkpt>
      <trkpt lat="45.88747" lon="4.74153">
        <ele>188</ele>
        <time>2016-08-23T08:25:27Z</time>
      </trkpt>
      <trkpt lat="45.88742" lon="4.74149">
        <ele>188</ele>
        <time>2016-08-23T08:25:28Z</time>
      </trkpt>
      <trkpt lat="45.88737" lon="4.74145">
        <ele>188</ele>
        <time>2016-08-23T08:25:29Z</time>
      </trkpt>
      <trkpt lat="45.88732" lon="4.74142">
        <ele>188</ele>
        <time>2016-08-23T08:25:30Z</time>
      </trkpt>
      <trkpt lat="45.88728" lon="4.74138">
        <ele>188</ele>
        <time>2016-08-23T08:25:31Z</time>
      </trkpt>
      <trkpt lat="45.88723" lon="4.74134">
        <ele>188</ele>
        <time>2016-08-23T08:25:32Z</time>
      </trkpt>
      <trkpt lat="45.88719" lon="4.7413">
        <ele>188</ele>
        <time>2016-08-23T08:25:33Z</time>
      </trkpt>
      <trkpt lat="45.88714" lon="4.74126">
        <ele>188</ele>
        <time>2016-08-23T08:25:34Z</time>
      </trkpt>
      <trkpt lat="45.8871" lon="4.74121">
        <ele>188</ele>
        <time>2016-08-23T08:25:35Z</time>
      </trkpt>
      <trkpt lat="45.88706" lon="4.74117">
        <ele>188</ele>
        <time>2016-08-23T08:25:36Z</time>
      </trkpt>
      <trkpt lat="45.88701" lon="4.74113">
        <ele>188</ele>
        <time>2016-08-23T08:25:37Z</time>
      </trkpt>
      <trkpt lat="45.88697" lon="4.74111">
        <ele>188</ele>
        <time>2016-08-23T08:25:38Z</time>
      </trkpt>
      <trkpt lat="45.88692" lon="4.74109">
        <ele>188</ele>
        <time>2016-08-23T08:25:39Z</time>
      </trkpt>
      <trkpt lat="45.88687" lon="4.74106">
        <ele>188</ele>
        <time>2016-08-23T08:25:40Z</time>
      </trkpt>
      <trkpt lat="45.88684" lon="4.74102">
        <ele>188</ele>
        <time>2016-08-23T08:25:41Z</time>
      </trkpt>
      <trkpt lat="45.8868" lon="4.74097">
        <ele>188</ele>
        <time>2016-08-23T08:25:42Z</time>
      </trkpt>
      <trkpt lat="45.88679" lon="4.74091">
        <ele>188</ele>
        <time>2016-08-23T08:25:43Z</time>
      </trkpt>
      <trkpt lat="45.88676" lon="4.74085">
        <ele>188</ele>
        <time>2016-08-23T08:25:44Z</time>
      </trkpt>
      <trkpt lat="45.88674" lon="4.74078">
        <ele>188</ele>
        <time>2016-08-23T08:25:45Z</time>
      </trkpt>
      <trkpt lat="45.88673" lon="4.74071">
        <ele>187</ele>
        <time>2016-08-23T08:25:46Z</time>
      </trkpt>
      <trkpt lat="45.88671" lon="4.74064">
        <ele>187</ele>
        <time>2016-08-23T08:25:47Z</time>
      </trkpt>
      <trkpt lat="45.88669" lon="4.74057">
        <ele>187</ele>
        <time>2016-08-23T08:25:48Z</time>
      </trkpt>
      <trkpt lat="45.88667" lon="4.7405">
        <ele>187</ele>
        <time>2016-08-23T08:25:49Z</time>
      </trkpt>
      <trkpt lat="45.88667" lon="4.74041">
        <ele>187</ele>
        <time>2016-08-23T08:25:50Z</time>
      </trkpt>
      <trkpt lat="45.88665" lon="4.74033">
        <ele>187</ele>
        <time>2016-08-23T08:25:51Z</time>
      </trkpt>
      <trkpt lat="45.88663" lon="4.74025">
        <ele>187</ele>
        <time>2016-08-23T08:25:52Z</time>
      </trkpt>
      <trkpt lat="45.88663" lon="4.74016">
        <ele>187</ele>
        <time>2016-08-23T08:25:53Z</time>
      </trkpt>
      <trkpt lat="45.88662" lon="4.74008">
        <ele>186</ele>
        <time>2016-08-23T08:25:54Z</time>
      </trkpt>
      <trkpt lat="45.88662" lon="4.73999">
        <ele>186</ele>
        <time>2016-08-23T08:25:55Z</time>
      </trkpt>
      <trkpt lat="45.88661" lon="4.73991">
        <ele>186</ele>
        <time>2016-08-23T08:25:56Z</time>
      </trkpt>
      <trkpt lat="45.8866" lon="4.73983">
        <ele>186</ele>
        <time>2016-08-23T08:25:57Z</time>
      </trkpt>
      <trkpt lat="45.88659" lon="4.73975">
        <ele>187</ele>
        <time>2016-08-23T08:25:58Z</time>
      </trkpt>
      <trkpt lat="45.88658" lon="4.73966">
        <ele>187</ele>
        <time>2016-08-23T08:25:59Z</time>
      </trkpt>
      <trkpt lat="45.88658" lon="4.73957">
        <ele>187</ele>
        <time>2016-08-23T08:26:00Z</time>
      </trkpt>
      <trkpt lat="45.88657" lon="4.73949">
        <ele>187</ele>
        <time>2016-08-23T08:26:01Z</time>
      </trkpt>
      <trkpt lat="45.88656" lon="4.73941">
        <ele>187</ele>
        <time>2016-08-23T08:26:02Z</time>
      </trkpt>
      <trkpt lat="45.88655" lon="4.73933">
        <ele>187</ele>
        <time>2016-08-23T08:26:03Z</time>
      </trkpt>
      <trkpt lat="45.88654" lon="4.73925">
        <ele>187</ele>
        <time>2016-08-23T08:26:04Z</time>
      </trkpt>
      <trkpt lat="45.88654" lon="4.73918">
        <ele>187</ele>
        <time>2016-08-23T08:26:05Z</time>
      </trkpt>
      <trkpt lat="45.88654" lon="4.7391">
        <ele>188</ele>
        <time>2016-08-23T08:26:06Z</time>
      </trkpt>
      <trkpt lat="45.88654" lon="4.73902">
        <ele>187</ele>
        <time>2016-08-23T08:26:07Z</time>
      </trkpt>
      <trkpt lat="45.88654" lon="4.73893">
        <ele>187</ele>
        <time>2016-08-23T08:26:08Z</time>
      </trkpt>
      <trkpt lat="45.88654" lon="4.73884">
        <ele>187</ele>
        <time>2016-08-23T08:26:09Z</time>
      </trkpt>
      <trkpt lat="45.88655" lon="4.73876">
        <ele>187</ele>
        <time>2016-08-23T08:26:10Z</time>
      </trkpt>
      <trkpt lat="45.88655" lon="4.73868">
        <ele>187</ele>
        <time>2016-08-23T08:26:11Z</time>
      </trkpt>
      <trkpt lat="45.88655" lon="4.7386">
        <ele>187</ele>
        <time>2016-08-23T08:26:12Z</time>
      </trkpt>
      <trkpt lat="45.88655" lon="4.73852">
        <ele>187</ele>
        <time>2016-08-23T08:26:13Z</time>
      </trkpt>
      <trkpt lat="45.88655" lon="4.73846">
        <ele>187</ele>
        <time>2016-08-23T08:26:14Z</time>
      </trkpt>
      <trkpt lat="45.88655" lon="4.73839">
        <ele>187</ele>
        <time>2016-08-23T08:26:15Z</time>
      </trkpt>
      <trkpt lat="45.88655" lon="4.73832">
        <ele>187</ele>
        <time>2016-08-23T08:26:16Z</time>
      </trkpt>
      <trkpt lat="45.88655" lon="4.73825">
        <ele>187</ele>
        <time>2016-08-23T08:26:17Z</time>
      </trkpt>
      <trkpt lat="45.88655" lon="4.73817">
        <ele>187</ele>
        <time>2016-08-23T08:26:18Z</time>
      </trkpt>
      <trkpt lat="45.88655" lon="4.7381">
        <ele>187</ele>
        <time>2016-08-23T08:26:19Z</time>
      </trkpt>
      <trkpt lat="45.88655" lon="4.73802">
        <ele>187</ele>
        <time>2016-08-23T08:26:20Z</time>
      </trkpt>
      <trkpt lat="45.88655" lon="4.73793">
        <ele>187</ele>
        <time>2016-08-23T08:26:21Z</time>
      </trkpt>
      <trkpt lat="45.88655" lon="4.73785">
        <ele>187</ele>
        <time>2016-08-23T08:26:22Z</time>
      </trkpt>
      <trkpt lat="45.88655" lon="4.73777">
        <ele>187</ele>
        <time>2016-08-23T08:26:23Z</time>
      </trkpt>
      <trkpt lat="45.88655" lon="4.7377">
        <ele>187</ele>
        <time>2016-08-23T08:26:24Z</time>
      </trkpt>
      <trkpt lat="45.88655" lon="4.73763">
        <ele>187</ele>
        <time>2016-08-23T08:26:25Z</time>
      </trkpt>
      <trkpt lat="45.88655" lon="4.73755">
        <ele>187</ele>
        <time>2016-08-23T08:26:26Z</time>
      </trkpt>
      <trkpt lat="45.88655" lon="4.73748">
        <ele>187</ele>
        <time>2016-08-23T08:26:27Z</time>
      </trkpt>
      <trkpt lat="45.88655" lon="4.73741">
        <ele>187</ele>
        <time>2016-08-23T08:26:28Z</time>
      </trkpt>
      <trkpt lat="45.88655" lon="4.73734">
        <ele>187</ele>
        <time>2016-08-23T08:26:29Z</time>
      </trkpt>
      <trkpt lat="45.88655" lon="4.73728">
        <ele>186</ele>
        <time>2016-08-23T08:26:30Z</time>
      </trkpt>
      <trkpt lat="45.88655" lon="4.73721">
        <ele>186</ele>
        <time>2016-08-23T08:26:31Z</time>
      </trkpt>
      <trkpt lat="45.88655" lon="4.73709">
        <ele>186</ele>
        <time>2016-08-23T08:26:33Z</time>
      </trkpt>
      <trkpt lat="45.88655" lon="4.73703">
        <ele>186</ele>
        <time>2016-08-23T08:26:34Z</time>
      </trkpt>
      <trkpt lat="45.88655" lon="4.73691">
        <ele>186</ele>
        <time>2016-08-23T08:26:36Z</time>
      </trkpt>
      <trkpt lat="45.88655" lon="4.73686">
        <ele>186</ele>
        <time>2016-08-23T08:26:37Z</time>
      </trkpt>
      <trkpt lat="45.88655" lon="4.73674">
        <ele>186</ele>
        <time>2016-08-23T08:26:39Z</time>
      </trkpt>
      <trkpt lat="45.88655" lon="4.73668">
        <ele>186</ele>
        <time>2016-08-23T08:26:40Z</time>
      </trkpt>
      <trkpt lat="45.88655" lon="4.73661">
        <ele>186</ele>
        <time>2016-08-23T08:26:41Z</time>
      </trkpt>
      <trkpt lat="45.88655" lon="4.73654">
        <ele>186</ele>
        <time>2016-08-23T08:26:42Z</time>
      </trkpt>
      <trkpt lat="45.88655" lon="4.73647">
        <ele>186</ele>
        <time>2016-08-23T08:26:43Z</time>
      </trkpt>
      <trkpt lat="45.88655" lon="4.7364">
        <ele>186</ele>
        <time>2016-08-23T08:26:44Z</time>
      </trkpt>
      <trkpt lat="45.88655" lon="4.73633">
        <ele>186</ele>
        <time>2016-08-23T08:26:45Z</time>
      </trkpt>
      <trkpt lat="45.88655" lon="4.73626">
        <ele>186</ele>
        <time>2016-08-23T08:26:46Z</time>
      </trkpt>
      <trkpt lat="45.88655" lon="4.73619">
        <ele>186</ele>
        <time>2016-08-23T08:26:47Z</time>
      </trkpt>
      <trkpt lat="45.88655" lon="4.73612">
        <ele>186</ele>
        <time>2016-08-23T08:26:48Z</time>
      </trkpt>
      <trkpt lat="45.88656" lon="4.73604">
        <ele>185</ele>
        <time>2016-08-23T08:26:49Z</time>
      </trkpt>
      <trkpt lat="45.88655" lon="4.73596">
        <ele>185</ele>
        <time>2016-08-23T08:26:50Z</time>
      </trkpt>
      <trkpt lat="45.88655" lon="4.73588">
        <ele>185</ele>
        <time>2016-08-23T08:26:51Z</time>
      </trkpt>
      <trkpt lat="45.88655" lon="4.73579">
        <ele>185</ele>
        <time>2016-08-23T08:26:52Z</time>
      </trkpt>
      <trkpt lat="45.88656" lon="4.73571">
        <ele>185</ele>
        <time>2016-08-23T08:26:53Z</time>
      </trkpt>
      <trkpt lat="45.88656" lon="4.7356">
        <ele>185</ele>
        <time>2016-08-23T08:26:54Z</time>
      </trkpt>
      <trkpt lat="45.88656" lon="4.7355">
        <ele>185</ele>
        <time>2016-08-23T08:26:55Z</time>
      </trkpt>
      <trkpt lat="45.88657" lon="4.73539">
        <ele>185</ele>
        <time>2016-08-23T08:26:56Z</time>
      </trkpt>
      <trkpt lat="45.88659" lon="4.73529">
        <ele>185</ele>
        <time>2016-08-23T08:26:57Z</time>
      </trkpt>
      <trkpt lat="45.88661" lon="4.73518">
        <ele>185</ele>
        <time>2016-08-23T08:26:58Z</time>
      </trkpt>
      <trkpt lat="45.88664" lon="4.73508">
        <ele>184</ele>
        <time>2016-08-23T08:26:59Z</time>
      </trkpt>
      <trkpt lat="45.88666" lon="4.73496">
        <ele>184</ele>
        <time>2016-08-23T08:27:00Z</time>
      </trkpt>
      <trkpt lat="45.88667" lon="4.73485">
        <ele>184</ele>
        <time>2016-08-23T08:27:01Z</time>
      </trkpt>
      <trkpt lat="45.88668" lon="4.73473">
        <ele>184</ele>
        <time>2016-08-23T08:27:02Z</time>
      </trkpt>
      <trkpt lat="45.88667" lon="4.73462">
        <ele>184</ele>
        <time>2016-08-23T08:27:03Z</time>
      </trkpt>
      <trkpt lat="45.88666" lon="4.7345">
        <ele>184</ele>
        <time>2016-08-23T08:27:04Z</time>
      </trkpt>
      <trkpt lat="45.88665" lon="4.73439">
        <ele>184</ele>
        <time>2016-08-23T08:27:05Z</time>
      </trkpt>
      <trkpt lat="45.88663" lon="4.73429">
        <ele>184</ele>
        <time>2016-08-23T08:27:06Z</time>
      </trkpt>
      <trkpt lat="45.88661" lon="4.73418">
        <ele>184</ele>
        <time>2016-08-23T08:27:07Z</time>
      </trkpt>
      <trkpt lat="45.88658" lon="4.73408">
        <ele>184</ele>
        <time>2016-08-23T08:27:08Z</time>
      </trkpt>
      <trkpt lat="45.88656" lon="4.73399">
        <ele>184</ele>
        <time>2016-08-23T08:27:09Z</time>
      </trkpt>
      <trkpt lat="45.88651" lon="4.73392">
        <ele>184</ele>
        <time>2016-08-23T08:27:10Z</time>
      </trkpt>
      <trkpt lat="45.88644" lon="4.73385">
        <ele>184</ele>
        <time>2016-08-23T08:27:11Z</time>
      </trkpt>
      <trkpt lat="45.88637" lon="4.73381">
        <ele>184</ele>
        <time>2016-08-23T08:27:12Z</time>
      </trkpt>
      <trkpt lat="45.88627" lon="4.73383">
        <ele>183</ele>
        <time>2016-08-23T08:27:13Z</time>
      </trkpt>
      <trkpt lat="45.88619" lon="4.73385">
        <ele>183</ele>
        <time>2016-08-23T08:27:14Z</time>
      </trkpt>
      <trkpt lat="45.88613" lon="4.73387">
        <ele>183</ele>
        <time>2016-08-23T08:27:15Z</time>
      </trkpt>
      <trkpt lat="45.88606" lon="4.73389">
        <ele>183</ele>
        <time>2016-08-23T08:27:16Z</time>
      </trkpt>
      <trkpt lat="45.886" lon="4.7339">
        <ele>183</ele>
        <time>2016-08-23T08:27:17Z</time>
      </trkpt>
      <trkpt lat="45.88594" lon="4.73391">
        <ele>183</ele>
        <time>2016-08-23T08:27:18Z</time>
      </trkpt>
      <trkpt lat="45.88588" lon="4.73392">
        <ele>183</ele>
        <time>2016-08-23T08:27:19Z</time>
      </trkpt>
      <trkpt lat="45.88582" lon="4.73393">
        <ele>183</ele>
        <time>2016-08-23T08:27:20Z</time>
      </trkpt>
      <trkpt lat="45.88576" lon="4.73395">
        <ele>183</ele>
        <time>2016-08-23T08:27:21Z</time>
      </trkpt>
      <trkpt lat="45.8857" lon="4.73397">
        <ele>183</ele>
        <time>2016-08-23T08:27:22Z</time>
      </trkpt>
      <trkpt lat="45.88565" lon="4.73399">
        <ele>183</ele>
        <time>2016-08-23T08:27:23Z</time>
      </trkpt>
      <trkpt lat="45.88558" lon="4.734">
        <ele>183</ele>
        <time>2016-08-23T08:27:24Z</time>
      </trkpt>
      <trkpt lat="45.88552" lon="4.73402">
        <ele>183</ele>
        <time>2016-08-23T08:27:25Z</time>
      </trkpt>
      <trkpt lat="45.88546" lon="4.73404">
        <ele>183</ele>
        <time>2016-08-23T08:27:26Z</time>
      </trkpt>
      <trkpt lat="45.8854" lon="4.73405">
        <ele>183</ele>
        <time>2016-08-23T08:27:27Z</time>
      </trkpt>
      <trkpt lat="45.88535" lon="4.73406">
        <ele>183</ele>
        <time>2016-08-23T08:27:28Z</time>
      </trkpt>
      <trkpt lat="45.88529" lon="4.73407">
        <ele>183</ele>
        <time>2016-08-23T08:27:29Z</time>
      </trkpt>
      <trkpt lat="45.88524" lon="4.73409">
        <ele>183</ele>
        <time>2016-08-23T08:27:30Z</time>
      </trkpt>
      <trkpt lat="45.8852" lon="4.73411">
        <ele>184</ele>
        <time>2016-08-23T08:27:31Z</time>
      </trkpt>
      <trkpt lat="45.88515" lon="4.73412">
        <ele>184</ele>
        <time>2016-08-23T08:27:32Z</time>
      </trkpt>
      <trkpt lat="45.8851" lon="4.73413">
        <ele>184</ele>
        <time>2016-08-23T08:27:33Z</time>
      </trkpt>
      <trkpt lat="45.88505" lon="4.73414">
        <ele>184</ele>
        <time>2016-08-23T08:27:34Z</time>
      </trkpt>
      <trkpt lat="45.885" lon="4.73415">
        <ele>184</ele>
        <time>2016-08-23T08:27:35Z</time>
      </trkpt>
      <trkpt lat="45.88495" lon="4.73417">
        <ele>184</ele>
        <time>2016-08-23T08:27:36Z</time>
      </trkpt>
      <trkpt lat="45.8849" lon="4.73419">
        <ele>184</ele>
        <time>2016-08-23T08:27:37Z</time>
      </trkpt>
      <trkpt lat="45.88485" lon="4.7342">
        <ele>184</ele>
        <time>2016-08-23T08:27:38Z</time>
      </trkpt>
      <trkpt lat="45.88479" lon="4.73422">
        <ele>184</ele>
        <time>2016-08-23T08:27:39Z</time>
      </trkpt>
      <trkpt lat="45.88473" lon="4.73423">
        <ele>184</ele>
        <time>2016-08-23T08:27:40Z</time>
      </trkpt>
      <trkpt lat="45.88468" lon="4.73425">
        <ele>184</ele>
        <time>2016-08-23T08:27:41Z</time>
      </trkpt>
      <trkpt lat="45.88462" lon="4.73426">
        <ele>184</ele>
        <time>2016-08-23T08:27:42Z</time>
      </trkpt>
      <trkpt lat="45.88457" lon="4.73428">
        <ele>184</ele>
        <time>2016-08-23T08:27:43Z</time>
      </trkpt>
      <trkpt lat="45.88452" lon="4.73429">
        <ele>184</ele>
        <time>2016-08-23T08:27:44Z</time>
      </trkpt>
      <trkpt lat="45.88446" lon="4.7343">
        <ele>184</ele>
        <time>2016-08-23T08:27:45Z</time>
      </trkpt>
      <trkpt lat="45.88441" lon="4.73431">
        <ele>184</ele>
        <time>2016-08-23T08:27:46Z</time>
      </trkpt>
      <trkpt lat="45.88436" lon="4.73432">
        <ele>184</ele>
        <time>2016-08-23T08:27:47Z</time>
      </trkpt>
      <trkpt lat="45.88431" lon="4.73434">
        <ele>184</ele>
        <time>2016-08-23T08:27:48Z</time>
      </trkpt>
      <trkpt lat="45.88426" lon="4.73436">
        <ele>184</ele>
        <time>2016-08-23T08:27:49Z</time>
      </trkpt>
      <trkpt lat="45.8842" lon="4.73437">
        <ele>184</ele>
        <time>2016-08-23T08:27:50Z</time>
      </trkpt>
      <trkpt lat="45.88415" lon="4.73439">
        <ele>184</ele>
        <time>2016-08-23T08:27:51Z</time>
      </trkpt>
      <trkpt lat="45.88409" lon="4.7344">
        <ele>184</ele>
        <time>2016-08-23T08:27:52Z</time>
      </trkpt>
      <trkpt lat="45.88404" lon="4.73441">
        <ele>184</ele>
        <time>2016-08-23T08:27:53Z</time>
      </trkpt>
      <trkpt lat="45.88398" lon="4.73442">
        <ele>184</ele>
        <time>2016-08-23T08:27:54Z</time>
      </trkpt>
      <trkpt lat="45.88393" lon="4.73444">
        <ele>184</ele>
        <time>2016-08-23T08:27:55Z</time>
      </trkpt>
      <trkpt lat="45.88388" lon="4.73445">
        <ele>184</ele>
        <time>2016-08-23T08:27:56Z</time>
      </trkpt>
      <trkpt lat="45.88383" lon="4.73447">
        <ele>184</ele>
        <time>2016-08-23T08:27:57Z</time>
      </trkpt>
      <trkpt lat="45.88378" lon="4.73448">
        <ele>184</ele>
        <time>2016-08-23T08:27:58Z</time>
      </trkpt>
      <trkpt lat="45.88373" lon="4.7345">
        <ele>184</ele>
        <time>2016-08-23T08:27:59Z</time>
      </trkpt>
      <trkpt lat="45.88368" lon="4.73451">
        <ele>184</ele>
        <time>2016-08-23T08:28:00Z</time>
      </trkpt>
      <trkpt lat="45.88362" lon="4.73452">
        <ele>184</ele>
        <time>2016-08-23T08:28:01Z</time>
      </trkpt>
      <trkpt lat="45.88357" lon="4.73454">
        <ele>184</ele>
        <time>2016-08-23T08:28:02Z</time>
      </trkpt>
      <trkpt lat="45.88352" lon="4.73455">
        <ele>184</ele>
        <time>2016-08-23T08:28:03Z</time>
      </trkpt>
      <trkpt lat="45.88346" lon="4.73456">
        <ele>184</ele>
        <time>2016-08-23T08:28:04Z</time>
      </trkpt>
      <trkpt lat="45.88341" lon="4.73457">
        <ele>184</ele>
        <time>2016-08-23T08:28:05Z</time>
      </trkpt>
      <trkpt lat="45.88336" lon="4.73459">
        <ele>184</ele>
        <time>2016-08-23T08:28:06Z</time>
      </trkpt>
      <trkpt lat="45.88331" lon="4.73461">
        <ele>184</ele>
        <time>2016-08-23T08:28:07Z</time>
      </trkpt>
      <trkpt lat="45.88325" lon="4.73463">
        <ele>184</ele>
        <time>2016-08-23T08:28:08Z</time>
      </trkpt>
      <trkpt lat="45.8832" lon="4.73464">
        <ele>184</ele>
        <time>2016-08-23T08:28:09Z</time>
      </trkpt>
      <trkpt lat="45.88315" lon="4.73465">
        <ele>184</ele>
        <time>2016-08-23T08:28:10Z</time>
      </trkpt>
      <trkpt lat="45.8831" lon="4.73467">
        <ele>184</ele>
        <time>2016-08-23T08:28:11Z</time>
      </trkpt>
      <trkpt lat="45.88305" lon="4.73469">
        <ele>184</ele>
        <time>2016-08-23T08:28:12Z</time>
      </trkpt>
      <trkpt lat="45.88299" lon="4.73472">
        <ele>184</ele>
        <time>2016-08-23T08:28:13Z</time>
      </trkpt>
      <trkpt lat="45.88294" lon="4.73474">
        <ele>184</ele>
        <time>2016-08-23T08:28:14Z</time>
      </trkpt>
      <trkpt lat="45.88288" lon="4.73477">
        <ele>184</ele>
        <time>2016-08-23T08:28:15Z</time>
      </trkpt>
      <trkpt lat="45.88283" lon="4.73481">
        <ele>184</ele>
        <time>2016-08-23T08:28:16Z</time>
      </trkpt>
      <trkpt lat="45.88278" lon="4.73484">
        <ele>184</ele>
        <time>2016-08-23T08:28:17Z</time>
      </trkpt>
      <trkpt lat="45.88273" lon="4.73487">
        <ele>184</ele>
        <time>2016-08-23T08:28:18Z</time>
      </trkpt>
      <trkpt lat="45.88268" lon="4.7349">
        <ele>184</ele>
        <time>2016-08-23T08:28:19Z</time>
      </trkpt>
      <trkpt lat="45.88262" lon="4.73493">
        <ele>185</ele>
        <time>2016-08-23T08:28:20Z</time>
      </trkpt>
      <trkpt lat="45.88257" lon="4.73497">
        <ele>185</ele>
        <time>2016-08-23T08:28:21Z</time>
      </trkpt>
      <trkpt lat="45.88252" lon="4.73501">
        <ele>185</ele>
        <time>2016-08-23T08:28:22Z</time>
      </trkpt>
      <trkpt lat="45.88247" lon="4.73504">
        <ele>185</ele>
        <time>2016-08-23T08:28:23Z</time>
      </trkpt>
      <trkpt lat="45.88242" lon="4.73508">
        <ele>185</ele>
        <time>2016-08-23T08:28:24Z</time>
      </trkpt>
      <trkpt lat="45.88238" lon="4.73511">
        <ele>185</ele>
        <time>2016-08-23T08:28:25Z</time>
      </trkpt>
      <trkpt lat="45.88233" lon="4.73513">
        <ele>185</ele>
        <time>2016-08-23T08:28:26Z</time>
      </trkpt>
      <trkpt lat="45.88228" lon="4.73516">
        <ele>185</ele>
        <time>2016-08-23T08:28:27Z</time>
      </trkpt>
      <trkpt lat="45.88223" lon="4.73518">
        <ele>185</ele>
        <time>2016-08-23T08:28:28Z</time>
      </trkpt>
      <trkpt lat="45.88219" lon="4.73521">
        <ele>185</ele>
        <time>2016-08-23T08:28:29Z</time>
      </trkpt>
      <trkpt lat="45.88214" lon="4.73525">
        <ele>185</ele>
        <time>2016-08-23T08:28:30Z</time>
      </trkpt>
      <trkpt lat="45.88209" lon="4.73528">
        <ele>185</ele>
        <time>2016-08-23T08:28:31Z</time>
      </trkpt>
      <trkpt lat="45.88204" lon="4.73532">
        <ele>186</ele>
        <time>2016-08-23T08:28:32Z</time>
      </trkpt>
      <trkpt lat="45.88199" lon="4.73535">
        <ele>186</ele>
        <time>2016-08-23T08:28:33Z</time>
      </trkpt>
      <trkpt lat="45.88194" lon="4.73538">
        <ele>186</ele>
        <time>2016-08-23T08:28:34Z</time>
      </trkpt>
      <trkpt lat="45.88189" lon="4.73541">
        <ele>186</ele>
        <time>2016-08-23T08:28:35Z</time>
      </trkpt>
      <trkpt lat="45.88184" lon="4.73544">
        <ele>186</ele>
        <time>2016-08-23T08:28:36Z</time>
      </trkpt>
      <trkpt lat="45.8818" lon="4.73546">
        <ele>186</ele>
        <time>2016-08-23T08:28:37Z</time>
      </trkpt>
      <trkpt lat="45.88175" lon="4.73549">
        <ele>186</ele>
        <time>2016-08-23T08:28:38Z</time>
      </trkpt>
      <trkpt lat="45.8817" lon="4.73552">
        <ele>186</ele>
        <time>2016-08-23T08:28:39Z</time>
      </trkpt>
      <trkpt lat="45.88166" lon="4.73555">
        <ele>186</ele>
        <time>2016-08-23T08:28:40Z</time>
      </trkpt>
      <trkpt lat="45.88161" lon="4.73558">
        <ele>186</ele>
        <time>2016-08-23T08:28:41Z</time>
      </trkpt>
      <trkpt lat="45.88156" lon="4.73561">
        <ele>186</ele>
        <time>2016-08-23T08:28:42Z</time>
      </trkpt>
      <trkpt lat="45.88151" lon="4.73564">
        <ele>186</ele>
        <time>2016-08-23T08:28:43Z</time>
      </trkpt>
      <trkpt lat="45.88147" lon="4.73567">
        <ele>186</ele>
        <time>2016-08-23T08:28:44Z</time>
      </trkpt>
      <trkpt lat="45.88142" lon="4.7357">
        <ele>186</ele>
        <time>2016-08-23T08:28:45Z</time>
      </trkpt>
      <trkpt lat="45.88137" lon="4.73573">
        <ele>186</ele>
        <time>2016-08-23T08:28:46Z</time>
      </trkpt>
      <trkpt lat="45.88133" lon="4.73576">
        <ele>186</ele>
        <time>2016-08-23T08:28:47Z</time>
      </trkpt>
      <trkpt lat="45.88127" lon="4.73579">
        <ele>186</ele>
        <time>2016-08-23T08:28:48Z</time>
      </trkpt>
      <trkpt lat="45.88123" lon="4.73582">
        <ele>186</ele>
        <time>2016-08-23T08:28:49Z</time>
      </trkpt>
      <trkpt lat="45.88118" lon="4.73586">
        <ele>187</ele>
        <time>2016-08-23T08:28:50Z</time>
      </trkpt>
      <trkpt lat="45.88112" lon="4.73589">
        <ele>187</ele>
        <time>2016-08-23T08:28:51Z</time>
      </trkpt>
      <trkpt lat="45.88107" lon="4.73592">
        <ele>187</ele>
        <time>2016-08-23T08:28:52Z</time>
      </trkpt>
      <trkpt lat="45.88102" lon="4.73595">
        <ele>187</ele>
        <time>2016-08-23T08:28:53Z</time>
      </trkpt>
      <trkpt lat="45.88097" lon="4.73599">
        <ele>187</ele>
        <time>2016-08-23T08:28:54Z</time>
      </trkpt>
      <trkpt lat="45.88092" lon="4.73602">
        <ele>187</ele>
        <time>2016-08-23T08:28:55Z</time>
      </trkpt>
      <trkpt lat="45.88088" lon="4.73606">
        <ele>188</ele>
        <time>2016-08-23T08:28:56Z</time>
      </trkpt>
      <trkpt lat="45.88084" lon="4.7361">
        <ele>188</ele>
        <time>2016-08-23T08:28:57Z</time>
      </trkpt>
      <trkpt lat="45.88079" lon="4.73612">
        <ele>188</ele>
        <time>2016-08-23T08:28:58Z</time>
      </trkpt>
      <trkpt lat="45.88075" lon="4.73614">
        <ele>188</ele>
        <time>2016-08-23T08:28:59Z</time>
      </trkpt>
      <trkpt lat="45.88071" lon="4.73617">
        <ele>188</ele>
        <time>2016-08-23T08:29:00Z</time>
      </trkpt>
      <trkpt lat="45.88066" lon="4.73621">
        <ele>189</ele>
        <time>2016-08-23T08:29:01Z</time>
      </trkpt>
      <trkpt lat="45.88062" lon="4.73623">
        <ele>189</ele>
        <time>2016-08-23T08:29:02Z</time>
      </trkpt>
      <trkpt lat="45.88057" lon="4.73627">
        <ele>189</ele>
        <time>2016-08-23T08:29:03Z</time>
      </trkpt>
      <trkpt lat="45.88052" lon="4.73631">
        <ele>189</ele>
        <time>2016-08-23T08:29:04Z</time>
      </trkpt>
      <trkpt lat="45.88048" lon="4.73634">
        <ele>189</ele>
        <time>2016-08-23T08:29:05Z</time>
      </trkpt>
      <trkpt lat="45.88043" lon="4.73637">
        <ele>189</ele>
        <time>2016-08-23T08:29:06Z</time>
      </trkpt>
      <trkpt lat="45.88038" lon="4.73639">
        <ele>189</ele>
        <time>2016-08-23T08:29:07Z</time>
      </trkpt>
      <trkpt lat="45.88033" lon="4.73641">
        <ele>189</ele>
        <time>2016-08-23T08:29:08Z</time>
      </trkpt>
      <trkpt lat="45.88028" lon="4.73643">
        <ele>189</ele>
        <time>2016-08-23T08:29:09Z</time>
      </trkpt>
      <trkpt lat="45.88024" lon="4.73646">
        <ele>189</ele>
        <time>2016-08-23T08:29:10Z</time>
      </trkpt>
      <trkpt lat="45.88019" lon="4.73649">
        <ele>189</ele>
        <time>2016-08-23T08:29:11Z</time>
      </trkpt>
      <trkpt lat="45.88015" lon="4.73652">
        <ele>189</ele>
        <time>2016-08-23T08:29:12Z</time>
      </trkpt>
      <trkpt lat="45.8801" lon="4.73653">
        <ele>189</ele>
        <time>2016-08-23T08:29:13Z</time>
      </trkpt>
      <trkpt lat="45.88005" lon="4.73652">
        <ele>189</ele>
        <time>2016-08-23T08:29:14Z</time>
      </trkpt>
      <trkpt lat="45.87999" lon="4.73651">
        <ele>190</ele>
        <time>2016-08-23T08:29:15Z</time>
      </trkpt>
      <trkpt lat="45.87994" lon="4.73649">
        <ele>190</ele>
        <time>2016-08-23T08:29:16Z</time>
      </trkpt>
      <trkpt lat="45.87989" lon="4.73647">
        <ele>190</ele>
        <time>2016-08-23T08:29:17Z</time>
      </trkpt>
      <trkpt lat="45.87983" lon="4.73646">
        <ele>190</ele>
        <time>2016-08-23T08:29:18Z</time>
      </trkpt>
      <trkpt lat="45.87978" lon="4.73645">
        <ele>189</ele>
        <time>2016-08-23T08:29:19Z</time>
      </trkpt>
      <trkpt lat="45.87973" lon="4.73643">
        <ele>189</ele>
        <time>2016-08-23T08:29:20Z</time>
      </trkpt>
      <trkpt lat="45.87967" lon="4.73642">
        <ele>189</ele>
        <time>2016-08-23T08:29:21Z</time>
      </trkpt>
      <trkpt lat="45.87961" lon="4.7364">
        <ele>189</ele>
        <time>2016-08-23T08:29:22Z</time>
      </trkpt>
      <trkpt lat="45.87955" lon="4.73638">
        <ele>189</ele>
        <time>2016-08-23T08:29:23Z</time>
      </trkpt>
      <trkpt lat="45.8795" lon="4.73637">
        <ele>189</ele>
        <time>2016-08-23T08:29:24Z</time>
      </trkpt>
      <trkpt lat="45.87944" lon="4.73636">
        <ele>189</ele>
        <time>2016-08-23T08:29:25Z</time>
      </trkpt>
      <trkpt lat="45.87937" lon="4.73635">
        <ele>190</ele>
        <time>2016-08-23T08:29:26Z</time>
      </trkpt>
      <trkpt lat="45.87931" lon="4.73633">
        <ele>190</ele>
        <time>2016-08-23T08:29:27Z</time>
      </trkpt>
      <trkpt lat="45.87925" lon="4.73632">
        <ele>190</ele>
        <time>2016-08-23T08:29:28Z</time>
      </trkpt>
      <trkpt lat="45.87919" lon="4.7363">
        <ele>189</ele>
        <time>2016-08-23T08:29:29Z</time>
      </trkpt>
      <trkpt lat="45.87913" lon="4.73628">
        <ele>190</ele>
        <time>2016-08-23T08:29:30Z</time>
      </trkpt>
      <trkpt lat="45.87907" lon="4.73626">
        <ele>190</ele>
        <time>2016-08-23T08:29:31Z</time>
      </trkpt>
      <trkpt lat="45.87902" lon="4.73624">
        <ele>190</ele>
        <time>2016-08-23T08:29:32Z</time>
      </trkpt>
      <trkpt lat="45.87896" lon="4.73622">
        <ele>190</ele>
        <time>2016-08-23T08:29:33Z</time>
      </trkpt>
      <trkpt lat="45.87891" lon="4.7362">
        <ele>190</ele>
        <time>2016-08-23T08:29:34Z</time>
      </trkpt>
      <trkpt lat="45.87886" lon="4.73619">
        <ele>190</ele>
        <time>2016-08-23T08:29:35Z</time>
      </trkpt>
      <trkpt lat="45.87881" lon="4.73617">
        <ele>190</ele>
        <time>2016-08-23T08:29:36Z</time>
      </trkpt>
      <trkpt lat="45.87876" lon="4.73617">
        <ele>190</ele>
        <time>2016-08-23T08:29:37Z</time>
      </trkpt>
      <trkpt lat="45.87871" lon="4.73617">
        <ele>190</ele>
        <time>2016-08-23T08:29:38Z</time>
      </trkpt>
      <trkpt lat="45.87866" lon="4.73618">
        <ele>190</ele>
        <time>2016-08-23T08:29:39Z</time>
      </trkpt>
      <trkpt lat="45.87862" lon="4.73621">
        <ele>190</ele>
        <time>2016-08-23T08:29:40Z</time>
      </trkpt>
      <trkpt lat="45.87857" lon="4.73624">
        <ele>190</ele>
        <time>2016-08-23T08:29:41Z</time>
      </trkpt>
      <trkpt lat="45.87851" lon="4.73627">
        <ele>190</ele>
        <time>2016-08-23T08:29:42Z</time>
      </trkpt>
      <trkpt lat="45.87846" lon="4.73629">
        <ele>191</ele>
        <time>2016-08-23T08:29:43Z</time>
      </trkpt>
      <trkpt lat="45.87842" lon="4.73633">
        <ele>191</ele>
        <time>2016-08-23T08:29:44Z</time>
      </trkpt>
      <trkpt lat="45.87837" lon="4.73633">
        <ele>191</ele>
        <time>2016-08-23T08:29:45Z</time>
      </trkpt>
      <trkpt lat="45.8783" lon="4.73624">
        <ele>190</ele>
        <time>2016-08-23T08:29:48Z</time>
      </trkpt>
      <trkpt lat="45.87829" lon="4.73621">
        <ele>190</ele>
        <time>2016-08-23T08:29:49Z</time>
      </trkpt>
      <trkpt lat="45.87826" lon="4.73616">
        <ele>190</ele>
        <time>2016-08-23T08:29:50Z</time>
      </trkpt>
      <trkpt lat="45.87824" lon="4.7361">
        <ele>190</ele>
        <time>2016-08-23T08:29:51Z</time>
      </trkpt>
      <trkpt lat="45.87821" lon="4.73603">
        <ele>190</ele>
        <time>2016-08-23T08:29:52Z</time>
      </trkpt>
      <trkpt lat="45.87819" lon="4.73596">
        <ele>190</ele>
        <time>2016-08-23T08:29:53Z</time>
      </trkpt>
      <trkpt lat="45.87816" lon="4.73589">
        <ele>190</ele>
        <time>2016-08-23T08:29:54Z</time>
      </trkpt>
      <trkpt lat="45.87813" lon="4.73582">
        <ele>189</ele>
        <time>2016-08-23T08:29:55Z</time>
      </trkpt>
      <trkpt lat="45.87811" lon="4.73576">
        <ele>189</ele>
        <time>2016-08-23T08:29:56Z</time>
      </trkpt>
      <trkpt lat="45.87807" lon="4.73569">
        <ele>189</ele>
        <time>2016-08-23T08:29:57Z</time>
      </trkpt>
      <trkpt lat="45.87804" lon="4.73562">
        <ele>189</ele>
        <time>2016-08-23T08:29:58Z</time>
      </trkpt>
      <trkpt lat="45.87801" lon="4.73555">
        <ele>189</ele>
        <time>2016-08-23T08:29:59Z</time>
      </trkpt>
      <trkpt lat="45.87798" lon="4.73549">
        <ele>189</ele>
        <time>2016-08-23T08:30:00Z</time>
      </trkpt>
      <trkpt lat="45.87795" lon="4.73542">
        <ele>189</ele>
        <time>2016-08-23T08:30:01Z</time>
      </trkpt>
      <trkpt lat="45.87792" lon="4.73535">
        <ele>189</ele>
        <time>2016-08-23T08:30:02Z</time>
      </trkpt>
      <trkpt lat="45.87789" lon="4.73528">
        <ele>189</ele>
        <time>2016-08-23T08:30:03Z</time>
      </trkpt>
      <trkpt lat="45.87786" lon="4.73521">
        <ele>189</ele>
        <time>2016-08-23T08:30:04Z</time>
      </trkpt>
      <trkpt lat="45.87783" lon="4.73514">
        <ele>189</ele>
        <time>2016-08-23T08:30:05Z</time>
      </trkpt>
      <trkpt lat="45.8778" lon="4.73506">
        <ele>189</ele>
        <time>2016-08-23T08:30:06Z</time>
      </trkpt>
      <trkpt lat="45.87777" lon="4.73499">
        <ele>188</ele>
        <time>2016-08-23T08:30:07Z</time>
      </trkpt>
      <trkpt lat="45.87773" lon="4.73491">
        <ele>188</ele>
        <time>2016-08-23T08:30:08Z</time>
      </trkpt>
      <trkpt lat="45.87769" lon="4.73484">
        <ele>188</ele>
        <time>2016-08-23T08:30:09Z</time>
      </trkpt>
      <trkpt lat="45.87766" lon="4.73477">
        <ele>188</ele>
        <time>2016-08-23T08:30:10Z</time>
      </trkpt>
      <trkpt lat="45.87762" lon="4.7347">
        <ele>188</ele>
        <time>2016-08-23T08:30:11Z</time>
      </trkpt>
      <trkpt lat="45.87759" lon="4.73464">
        <ele>188</ele>
        <time>2016-08-23T08:30:12Z</time>
      </trkpt>
      <trkpt lat="45.87756" lon="4.73457">
        <ele>188</ele>
        <time>2016-08-23T08:30:13Z</time>
      </trkpt>
      <trkpt lat="45.87752" lon="4.73451">
        <ele>188</ele>
        <time>2016-08-23T08:30:14Z</time>
      </trkpt>
      <trkpt lat="45.87749" lon="4.73445">
        <ele>189</ele>
        <time>2016-08-23T08:30:15Z</time>
      </trkpt>
      <trkpt lat="45.87746" lon="4.73439">
        <ele>189</ele>
        <time>2016-08-23T08:30:16Z</time>
      </trkpt>
      <trkpt lat="45.87743" lon="4.73433">
        <ele>188</ele>
        <time>2016-08-23T08:30:17Z</time>
      </trkpt>
      <trkpt lat="45.8774" lon="4.73427">
        <ele>188</ele>
        <time>2016-08-23T08:30:18Z</time>
      </trkpt>
      <trkpt lat="45.87736" lon="4.7342">
        <ele>188</ele>
        <time>2016-08-23T08:30:19Z</time>
      </trkpt>
      <trkpt lat="45.87733" lon="4.73413">
        <ele>188</ele>
        <time>2016-08-23T08:30:20Z</time>
      </trkpt>
      <trkpt lat="45.8773" lon="4.73406">
        <ele>188</ele>
        <time>2016-08-23T08:30:21Z</time>
      </trkpt>
      <trkpt lat="45.87727" lon="4.734">
        <ele>188</ele>
        <time>2016-08-23T08:30:22Z</time>
      </trkpt>
      <trkpt lat="45.87724" lon="4.73393">
        <ele>188</ele>
        <time>2016-08-23T08:30:23Z</time>
      </trkpt>
      <trkpt lat="45.87721" lon="4.73387">
        <ele>188</ele>
        <time>2016-08-23T08:30:24Z</time>
      </trkpt>
      <trkpt lat="45.87718" lon="4.73381">
        <ele>187</ele>
        <time>2016-08-23T08:30:25Z</time>
      </trkpt>
      <trkpt lat="45.87715" lon="4.73375">
        <ele>187</ele>
        <time>2016-08-23T08:30:26Z</time>
      </trkpt>
      <trkpt lat="45.87712" lon="4.73369">
        <ele>187</ele>
        <time>2016-08-23T08:30:27Z</time>
      </trkpt>
      <trkpt lat="45.87709" lon="4.73362">
        <ele>187</ele>
        <time>2016-08-23T08:30:28Z</time>
      </trkpt>
      <trkpt lat="45.87706" lon="4.73356">
        <ele>187</ele>
        <time>2016-08-23T08:30:29Z</time>
      </trkpt>
      <trkpt lat="45.87703" lon="4.7335">
        <ele>187</ele>
        <time>2016-08-23T08:30:30Z</time>
      </trkpt>
      <trkpt lat="45.877" lon="4.73343">
        <ele>187</ele>
        <time>2016-08-23T08:30:31Z</time>
      </trkpt>
      <trkpt lat="45.87696" lon="4.73337">
        <ele>187</ele>
        <time>2016-08-23T08:30:32Z</time>
      </trkpt>
      <trkpt lat="45.87694" lon="4.7333">
        <ele>188</ele>
        <time>2016-08-23T08:30:33Z</time>
      </trkpt>
      <trkpt lat="45.8769" lon="4.73323">
        <ele>188</ele>
        <time>2016-08-23T08:30:34Z</time>
      </trkpt>
      <trkpt lat="45.87687" lon="4.73316">
        <ele>188</ele>
        <time>2016-08-23T08:30:35Z</time>
      </trkpt>
      <trkpt lat="45.87683" lon="4.73309">
        <ele>188</ele>
        <time>2016-08-23T08:30:36Z</time>
      </trkpt>
      <trkpt lat="45.87679" lon="4.73303">
        <ele>188</ele>
        <time>2016-08-23T08:30:37Z</time>
      </trkpt>
      <trkpt lat="45.87675" lon="4.73296">
        <ele>188</ele>
        <time>2016-08-23T08:30:38Z</time>
      </trkpt>
      <trkpt lat="45.87672" lon="4.73288">
        <ele>188</ele>
        <time>2016-08-23T08:30:39Z</time>
      </trkpt>
      <trkpt lat="45.87669" lon="4.7328">
        <ele>188</ele>
        <time>2016-08-23T08:30:40Z</time>
      </trkpt>
      <trkpt lat="45.87665" lon="4.73273">
        <ele>189</ele>
        <time>2016-08-23T08:30:41Z</time>
      </trkpt>
      <trkpt lat="45.87661" lon="4.73265">
        <ele>189</ele>
        <time>2016-08-23T08:30:42Z</time>
      </trkpt>
      <trkpt lat="45.87658" lon="4.73258">
        <ele>189</ele>
        <time>2016-08-23T08:30:43Z</time>
      </trkpt>
      <trkpt lat="45.87654" lon="4.73251">
        <ele>189</ele>
        <time>2016-08-23T08:30:44Z</time>
      </trkpt>
      <trkpt lat="45.8765" lon="4.73244">
        <ele>188</ele>
        <time>2016-08-23T08:30:45Z</time>
      </trkpt>
      <trkpt lat="45.87647" lon="4.73237">
        <ele>188</ele>
        <time>2016-08-23T08:30:46Z</time>
      </trkpt>
      <trkpt lat="45.87644" lon="4.7323">
        <ele>188</ele>
        <time>2016-08-23T08:30:47Z</time>
      </trkpt>
      <trkpt lat="45.8764" lon="4.73222">
        <ele>188</ele>
        <time>2016-08-23T08:30:48Z</time>
      </trkpt>
      <trkpt lat="45.87636" lon="4.73215">
        <ele>188</ele>
        <time>2016-08-23T08:30:49Z</time>
      </trkpt>
      <trkpt lat="45.87632" lon="4.73208">
        <ele>188</ele>
        <time>2016-08-23T08:30:50Z</time>
      </trkpt>
      <trkpt lat="45.87628" lon="4.73201">
        <ele>188</ele>
        <time>2016-08-23T08:30:51Z</time>
      </trkpt>
      <trkpt lat="45.87624" lon="4.73193">
        <ele>188</ele>
        <time>2016-08-23T08:30:52Z</time>
      </trkpt>
      <trkpt lat="45.87621" lon="4.73186">
        <ele>188</ele>
        <time>2016-08-23T08:30:53Z</time>
      </trkpt>
      <trkpt lat="45.87617" lon="4.73179">
        <ele>187</ele>
        <time>2016-08-23T08:30:54Z</time>
      </trkpt>
      <trkpt lat="45.87613" lon="4.73171">
        <ele>187</ele>
        <time>2016-08-23T08:30:55Z</time>
      </trkpt>
      <trkpt lat="45.87609" lon="4.73163">
        <ele>187</ele>
        <time>2016-08-23T08:30:56Z</time>
      </trkpt>
      <trkpt lat="45.87606" lon="4.73155">
        <ele>187</ele>
        <time>2016-08-23T08:30:57Z</time>
      </trkpt>
      <trkpt lat="45.87602" lon="4.73146">
        <ele>187</ele>
        <time>2016-08-23T08:30:58Z</time>
      </trkpt>
      <trkpt lat="45.87599" lon="4.73138">
        <ele>187</ele>
        <time>2016-08-23T08:30:59Z</time>
      </trkpt>
      <trkpt lat="45.87595" lon="4.73129">
        <ele>187</ele>
        <time>2016-08-23T08:31:00Z</time>
      </trkpt>
      <trkpt lat="45.87591" lon="4.73121">
        <ele>188</ele>
        <time>2016-08-23T08:31:01Z</time>
      </trkpt>
      <trkpt lat="45.87586" lon="4.73112">
        <ele>188</ele>
        <time>2016-08-23T08:31:02Z</time>
      </trkpt>
      <trkpt lat="45.87583" lon="4.73104">
        <ele>188</ele>
        <time>2016-08-23T08:31:03Z</time>
      </trkpt>
      <trkpt lat="45.87579" lon="4.73096">
        <ele>188</ele>
        <time>2016-08-23T08:31:04Z</time>
      </trkpt>
      <trkpt lat="45.87576" lon="4.73088">
        <ele>188</ele>
        <time>2016-08-23T08:31:05Z</time>
      </trkpt>
      <trkpt lat="45.87572" lon="4.7308">
        <ele>188</ele>
        <time>2016-08-23T08:31:06Z</time>
      </trkpt>
      <trkpt lat="45.87569" lon="4.73071">
        <ele>188</ele>
        <time>2016-08-23T08:31:07Z</time>
      </trkpt>
      <trkpt lat="45.87566" lon="4.73064">
        <ele>188</ele>
        <time>2016-08-23T08:31:08Z</time>
      </trkpt>
      <trkpt lat="45.87563" lon="4.73057">
        <ele>188</ele>
        <time>2016-08-23T08:31:09Z</time>
      </trkpt>
      <trkpt lat="45.87559" lon="4.7305">
        <ele>188</ele>
        <time>2016-08-23T08:31:10Z</time>
      </trkpt>
      <trkpt lat="45.87556" lon="4.73043">
        <ele>188</ele>
        <time>2016-08-23T08:31:11Z</time>
      </trkpt>
      <trkpt lat="45.87552" lon="4.73036">
        <ele>188</ele>
        <time>2016-08-23T08:31:12Z</time>
      </trkpt>
      <trkpt lat="45.87549" lon="4.73029">
        <ele>188</ele>
        <time>2016-08-23T08:31:13Z</time>
      </trkpt>
      <trkpt lat="45.87545" lon="4.73022">
        <ele>188</ele>
        <time>2016-08-23T08:31:14Z</time>
      </trkpt>
      <trkpt lat="45.87542" lon="4.73015">
        <ele>187</ele>
        <time>2016-08-23T08:31:15Z</time>
      </trkpt>
      <trkpt lat="45.87538" lon="4.73008">
        <ele>187</ele>
        <time>2016-08-23T08:31:16Z</time>
      </trkpt>
      <trkpt lat="45.87535" lon="4.73001">
        <ele>187</ele>
        <time>2016-08-23T08:31:17Z</time>
      </trkpt>
      <trkpt lat="45.87532" lon="4.72995">
        <ele>187</ele>
        <time>2016-08-23T08:31:18Z</time>
      </trkpt>
      <trkpt lat="45.87529" lon="4.72989">
        <ele>187</ele>
        <time>2016-08-23T08:31:19Z</time>
      </trkpt>
      <trkpt lat="45.87526" lon="4.72982">
        <ele>187</ele>
        <time>2016-08-23T08:31:20Z</time>
      </trkpt>
      <trkpt lat="45.87522" lon="4.72976">
        <ele>187</ele>
        <time>2016-08-23T08:31:21Z</time>
      </trkpt>
      <trkpt lat="45.87518" lon="4.7297">
        <ele>187</ele>
        <time>2016-08-23T08:31:22Z</time>
      </trkpt>
      <trkpt lat="45.87515" lon="4.72964">
        <ele>187</ele>
        <time>2016-08-23T08:31:23Z</time>
      </trkpt>
      <trkpt lat="45.8751" lon="4.72957">
        <ele>187</ele>
        <time>2016-08-23T08:31:24Z</time>
      </trkpt>
      <trkpt lat="45.87506" lon="4.72952">
        <ele>187</ele>
        <time>2016-08-23T08:31:25Z</time>
      </trkpt>
      <trkpt lat="45.87501" lon="4.72948">
        <ele>187</ele>
        <time>2016-08-23T08:31:26Z</time>
      </trkpt>
      <trkpt lat="45.87496" lon="4.72944">
        <ele>188</ele>
        <time>2016-08-23T08:31:27Z</time>
      </trkpt>
      <trkpt lat="45.87491" lon="4.72941">
        <ele>188</ele>
        <time>2016-08-23T08:31:28Z</time>
      </trkpt>
      <trkpt lat="45.87487" lon="4.72938">
        <ele>188</ele>
        <time>2016-08-23T08:31:29Z</time>
      </trkpt>
      <trkpt lat="45.87479" lon="4.72931">
        <ele>188</ele>
        <time>2016-08-23T08:31:31Z</time>
      </trkpt>
      <trkpt lat="45.87476" lon="4.72927">
        <ele>188</ele>
        <time>2016-08-23T08:31:32Z</time>
      </trkpt>
      <trkpt lat="45.87471" lon="4.72916">
        <ele>188</ele>
        <time>2016-08-23T08:31:34Z</time>
      </trkpt>
      <trkpt lat="45.8747" lon="4.7291">
        <ele>188</ele>
        <time>2016-08-23T08:31:35Z</time>
      </trkpt>
      <trkpt lat="45.87467" lon="4.72899">
        <ele>188</ele>
        <time>2016-08-23T08:31:37Z</time>
      </trkpt>
      <trkpt lat="45.87466" lon="4.72894">
        <ele>188</ele>
        <time>2016-08-23T08:31:38Z</time>
      </trkpt>
      <trkpt lat="45.87462" lon="4.72883">
        <ele>188</ele>
        <time>2016-08-23T08:31:40Z</time>
      </trkpt>
      <trkpt lat="45.8746" lon="4.72876">
        <ele>188</ele>
        <time>2016-08-23T08:31:41Z</time>
      </trkpt>
      <trkpt lat="45.87458" lon="4.72869">
        <ele>188</ele>
        <time>2016-08-23T08:31:42Z</time>
      </trkpt>
      <trkpt lat="45.87455" lon="4.72862">
        <ele>188</ele>
        <time>2016-08-23T08:31:43Z</time>
      </trkpt>
      <trkpt lat="45.87452" lon="4.72855">
        <ele>188</ele>
        <time>2016-08-23T08:31:44Z</time>
      </trkpt>
      <trkpt lat="45.87449" lon="4.72847">
        <ele>188</ele>
        <time>2016-08-23T08:31:45Z</time>
      </trkpt>
      <trkpt lat="45.87446" lon="4.7284">
        <ele>188</ele>
        <time>2016-08-23T08:31:46Z</time>
      </trkpt>
      <trkpt lat="45.87443" lon="4.72832">
        <ele>189</ele>
        <time>2016-08-23T08:31:47Z</time>
      </trkpt>
      <trkpt lat="45.8744" lon="4.72824">
        <ele>189</ele>
        <time>2016-08-23T08:31:48Z</time>
      </trkpt>
      <trkpt lat="45.87437" lon="4.72816">
        <ele>189</ele>
        <time>2016-08-23T08:31:49Z</time>
      </trkpt>
      <trkpt lat="45.87434" lon="4.72809">
        <ele>189</ele>
        <time>2016-08-23T08:31:50Z</time>
      </trkpt>
      <trkpt lat="45.87431" lon="4.72802">
        <ele>189</ele>
        <time>2016-08-23T08:31:51Z</time>
      </trkpt>
      <trkpt lat="45.87428" lon="4.72795">
        <ele>189</ele>
        <time>2016-08-23T08:31:52Z</time>
      </trkpt>
      <trkpt lat="45.87425" lon="4.72789">
        <ele>189</ele>
        <time>2016-08-23T08:31:53Z</time>
      </trkpt>
      <trkpt lat="45.87422" lon="4.72783">
        <ele>189</ele>
        <time>2016-08-23T08:31:54Z</time>
      </trkpt>
      <trkpt lat="45.87419" lon="4.72777">
        <ele>189</ele>
        <time>2016-08-23T08:31:55Z</time>
      </trkpt>
      <trkpt lat="45.87417" lon="4.72771">
        <ele>189</ele>
        <time>2016-08-23T08:31:56Z</time>
      </trkpt>
      <trkpt lat="45.87414" lon="4.72766">
        <ele>189</ele>
        <time>2016-08-23T08:31:57Z</time>
      </trkpt>
      <trkpt lat="45.87412" lon="4.72761">
        <ele>189</ele>
        <time>2016-08-23T08:31:58Z</time>
      </trkpt>
      <trkpt lat="45.87409" lon="4.72755">
        <ele>189</ele>
        <time>2016-08-23T08:31:59Z</time>
      </trkpt>
      <trkpt lat="45.87403" lon="4.72745">
        <ele>189</ele>
        <time>2016-08-23T08:32:01Z</time>
      </trkpt>
      <trkpt lat="45.87399" lon="4.72741">
        <ele>189</ele>
        <time>2016-08-23T08:32:02Z</time>
      </trkpt>
      <trkpt lat="45.87396" lon="4.72736">
        <ele>190</ele>
        <time>2016-08-23T08:32:03Z</time>
      </trkpt>
      <trkpt lat="45.87393" lon="4.7273">
        <ele>190</ele>
        <time>2016-08-23T08:32:04Z</time>
      </trkpt>
      <trkpt lat="45.87391" lon="4.72724">
        <ele>190</ele>
        <time>2016-08-23T08:32:05Z</time>
      </trkpt>
      <trkpt lat="45.87388" lon="4.72717">
        <ele>190</ele>
        <time>2016-08-23T08:32:06Z</time>
      </trkpt>
      <trkpt lat="45.87385" lon="4.7271">
        <ele>190</ele>
        <time>2016-08-23T08:32:07Z</time>
      </trkpt>
      <trkpt lat="45.87382" lon="4.72704">
        <ele>190</ele>
        <time>2016-08-23T08:32:08Z</time>
      </trkpt>
      <trkpt lat="45.87379" lon="4.72698">
        <ele>190</ele>
        <time>2016-08-23T08:32:09Z</time>
      </trkpt>
      <trkpt lat="45.87376" lon="4.72692">
        <ele>190</ele>
        <time>2016-08-23T08:32:10Z</time>
      </trkpt>
      <trkpt lat="45.87371" lon="4.72686">
        <ele>190</ele>
        <time>2016-08-23T08:32:11Z</time>
      </trkpt>
      <trkpt lat="45.87367" lon="4.72681">
        <ele>190</ele>
        <time>2016-08-23T08:32:12Z</time>
      </trkpt>
      <trkpt lat="45.87361" lon="4.72676">
        <ele>190</ele>
        <time>2016-08-23T08:32:13Z</time>
      </trkpt>
      <trkpt lat="45.87356" lon="4.72671">
        <ele>190</ele>
        <time>2016-08-23T08:32:14Z</time>
      </trkpt>
      <trkpt lat="45.87351" lon="4.72667">
        <ele>190</ele>
        <time>2016-08-23T08:32:15Z</time>
      </trkpt>
      <trkpt lat="45.87345" lon="4.72663">
        <ele>190</ele>
        <time>2016-08-23T08:32:16Z</time>
      </trkpt>
      <trkpt lat="45.8734" lon="4.72658">
        <ele>190</ele>
        <time>2016-08-23T08:32:17Z</time>
      </trkpt>
      <trkpt lat="45.87334" lon="4.72654">
        <ele>190</ele>
        <time>2016-08-23T08:32:18Z</time>
      </trkpt>
      <trkpt lat="45.8733" lon="4.72649">
        <ele>192</ele>
        <time>2016-08-23T08:32:19Z</time>
      </trkpt>
      <trkpt lat="45.87325" lon="4.72644">
        <ele>192</ele>
        <time>2016-08-23T08:32:20Z</time>
      </trkpt>
      <trkpt lat="45.87321" lon="4.7264">
        <ele>193</ele>
        <time>2016-08-23T08:32:21Z</time>
      </trkpt>
      <trkpt lat="45.87317" lon="4.72635">
        <ele>193</ele>
        <time>2016-08-23T08:32:22Z</time>
      </trkpt>
      <trkpt lat="45.87313" lon="4.72631">
        <ele>193</ele>
        <time>2016-08-23T08:32:23Z</time>
      </trkpt>
      <trkpt lat="45.8731" lon="4.72627">
        <ele>193</ele>
        <time>2016-08-23T08:32:24Z</time>
      </trkpt>
      <trkpt lat="45.87306" lon="4.72622">
        <ele>193</ele>
        <time>2016-08-23T08:32:25Z</time>
      </trkpt>
      <trkpt lat="45.87301" lon="4.72619">
        <ele>194</ele>
        <time>2016-08-23T08:32:26Z</time>
      </trkpt>
      <trkpt lat="45.87294" lon="4.7261">
        <ele>194</ele>
        <time>2016-08-23T08:32:28Z</time>
      </trkpt>
      <trkpt lat="45.87291" lon="4.72606">
        <ele>194</ele>
        <time>2016-08-23T08:32:29Z</time>
      </trkpt>
      <trkpt lat="45.87287" lon="4.72601">
        <ele>194</ele>
        <time>2016-08-23T08:32:30Z</time>
      </trkpt>
      <trkpt lat="45.87284" lon="4.72596">
        <ele>194</ele>
        <time>2016-08-23T08:32:31Z</time>
      </trkpt>
      <trkpt lat="45.87281" lon="4.7259">
        <ele>195</ele>
        <time>2016-08-23T08:32:32Z</time>
      </trkpt>
      <trkpt lat="45.87277" lon="4.72585">
        <ele>195</ele>
        <time>2016-08-23T08:32:33Z</time>
      </trkpt>
      <trkpt lat="45.87274" lon="4.72579">
        <ele>194</ele>
        <time>2016-08-23T08:32:34Z</time>
      </trkpt>
      <trkpt lat="45.87271" lon="4.72573">
        <ele>195</ele>
        <time>2016-08-23T08:32:35Z</time>
      </trkpt>
      <trkpt lat="45.87267" lon="4.72568">
        <ele>195</ele>
        <time>2016-08-23T08:32:36Z</time>
      </trkpt>
      <trkpt lat="45.87263" lon="4.72562">
        <ele>194</ele>
        <time>2016-08-23T08:32:37Z</time>
      </trkpt>
      <trkpt lat="45.87258" lon="4.72556">
        <ele>194</ele>
        <time>2016-08-23T08:32:38Z</time>
      </trkpt>
      <trkpt lat="45.87255" lon="4.72551">
        <ele>194</ele>
        <time>2016-08-23T08:32:39Z</time>
      </trkpt>
      <trkpt lat="45.87251" lon="4.72543">
        <ele>194</ele>
        <time>2016-08-23T08:32:41Z</time>
      </trkpt>
      <trkpt lat="45.87251" lon="4.72538">
        <ele>194</ele>
        <time>2016-08-23T08:32:42Z</time>
      </trkpt>
      <trkpt lat="45.87249" lon="4.7253">
        <ele>196</ele>
        <time>2016-08-23T08:32:44Z</time>
      </trkpt>
      <trkpt lat="45.87248" lon="4.72525">
        <ele>196</ele>
        <time>2016-08-23T08:32:45Z</time>
      </trkpt>
      <trkpt lat="45.87242" lon="4.72516">
        <ele>196</ele>
        <time>2016-08-23T08:32:47Z</time>
      </trkpt>
      <trkpt lat="45.8724" lon="4.72512">
        <ele>195</ele>
        <time>2016-08-23T08:32:48Z</time>
      </trkpt>
      <trkpt lat="45.87234" lon="4.72502">
        <ele>196</ele>
        <time>2016-08-23T08:32:50Z</time>
      </trkpt>
      <trkpt lat="45.87232" lon="4.72498">
        <ele>194</ele>
        <time>2016-08-23T08:32:51Z</time>
      </trkpt>
      <trkpt lat="45.87227" lon="4.72488">
        <ele>194</ele>
        <time>2016-08-23T08:32:53Z</time>
      </trkpt>
      <trkpt lat="45.87224" lon="4.72484">
        <ele>194</ele>
        <time>2016-08-23T08:32:54Z</time>
      </trkpt>
      <trkpt lat="45.8722" lon="4.72475">
        <ele>194</ele>
        <time>2016-08-23T08:32:56Z</time>
      </trkpt>
      <trkpt lat="45.87216" lon="4.72471">
        <ele>194</ele>
        <time>2016-08-23T08:32:57Z</time>
      </trkpt>
      <trkpt lat="45.8721" lon="4.72463">
        <ele>194</ele>
        <time>2016-08-23T08:32:59Z</time>
      </trkpt>
      <trkpt lat="45.87207" lon="4.72459">
        <ele>194</ele>
        <time>2016-08-23T08:33:00Z</time>
      </trkpt>
      <trkpt lat="45.87202" lon="4.72451">
        <ele>194</ele>
        <time>2016-08-23T08:33:02Z</time>
      </trkpt>
      <trkpt lat="45.87199" lon="4.72446">
        <ele>194</ele>
        <time>2016-08-23T08:33:03Z</time>
      </trkpt>
      <trkpt lat="45.87192" lon="4.72438">
        <ele>194</ele>
        <time>2016-08-23T08:33:05Z</time>
      </trkpt>
      <trkpt lat="45.87189" lon="4.72434">
        <ele>194</ele>
        <time>2016-08-23T08:33:06Z</time>
      </trkpt>
      <trkpt lat="45.87183" lon="4.72427">
        <ele>194</ele>
        <time>2016-08-23T08:33:08Z</time>
      </trkpt>
      <trkpt lat="45.87179" lon="4.72423">
        <ele>194</ele>
        <time>2016-08-23T08:33:09Z</time>
      </trkpt>
      <trkpt lat="45.87174" lon="4.72415">
        <ele>193</ele>
        <time>2016-08-23T08:33:11Z</time>
      </trkpt>
      <trkpt lat="45.87171" lon="4.72409">
        <ele>193</ele>
        <time>2016-08-23T08:33:12Z</time>
      </trkpt>
      <trkpt lat="45.87169" lon="4.72404">
        <ele>192</ele>
        <time>2016-08-23T08:33:13Z</time>
      </trkpt>
      <trkpt lat="45.87166" lon="4.72398">
        <ele>196</ele>
        <time>2016-08-23T08:33:14Z</time>
      </trkpt>
      <trkpt lat="45.87164" lon="4.72392">
        <ele>197</ele>
        <time>2016-08-23T08:33:15Z</time>
      </trkpt>
      <trkpt lat="45.87161" lon="4.72386">
        <ele>197</ele>
        <time>2016-08-23T08:33:16Z</time>
      </trkpt>
      <trkpt lat="45.87159" lon="4.72379">
        <ele>197</ele>
        <time>2016-08-23T08:33:17Z</time>
      </trkpt>
      <trkpt lat="45.87156" lon="4.72373">
        <ele>197</ele>
        <time>2016-08-23T08:33:18Z</time>
      </trkpt>
      <trkpt lat="45.87154" lon="4.72367">
        <ele>197</ele>
        <time>2016-08-23T08:33:19Z</time>
      </trkpt>
      <trkpt lat="45.87151" lon="4.7236">
        <ele>196</ele>
        <time>2016-08-23T08:33:20Z</time>
      </trkpt>
      <trkpt lat="45.87149" lon="4.72354">
        <ele>196</ele>
        <time>2016-08-23T08:33:21Z</time>
      </trkpt>
      <trkpt lat="45.87146" lon="4.72348">
        <ele>196</ele>
        <time>2016-08-23T08:33:22Z</time>
      </trkpt>
      <trkpt lat="45.87144" lon="4.72342">
        <ele>196</ele>
        <time>2016-08-23T08:33:23Z</time>
      </trkpt>
      <trkpt lat="45.87141" lon="4.72335">
        <ele>196</ele>
        <time>2016-08-23T08:33:24Z</time>
      </trkpt>
      <trkpt lat="45.87138" lon="4.72329">
        <ele>195</ele>
        <time>2016-08-23T08:33:25Z</time>
      </trkpt>
      <trkpt lat="45.87136" lon="4.72322">
        <ele>195</ele>
        <time>2016-08-23T08:33:26Z</time>
      </trkpt>
      <trkpt lat="45.87133" lon="4.72315">
        <ele>196</ele>
        <time>2016-08-23T08:33:27Z</time>
      </trkpt>
      <trkpt lat="45.8713" lon="4.72309">
        <ele>196</ele>
        <time>2016-08-23T08:33:28Z</time>
      </trkpt>
      <trkpt lat="45.87127" lon="4.72302">
        <ele>196</ele>
        <time>2016-08-23T08:33:29Z</time>
      </trkpt>
      <trkpt lat="45.87122" lon="4.72296">
        <ele>196</ele>
        <time>2016-08-23T08:33:30Z</time>
      </trkpt>
      <trkpt lat="45.87119" lon="4.7229">
        <ele>196</ele>
        <time>2016-08-23T08:33:31Z</time>
      </trkpt>
      <trkpt lat="45.87115" lon="4.72284">
        <ele>197</ele>
        <time>2016-08-23T08:33:32Z</time>
      </trkpt>
      <trkpt lat="45.87112" lon="4.72278">
        <ele>197</ele>
        <time>2016-08-23T08:33:33Z</time>
      </trkpt>
      <trkpt lat="45.87108" lon="4.72273">
        <ele>197</ele>
        <time>2016-08-23T08:33:34Z</time>
      </trkpt>
      <trkpt lat="45.87104" lon="4.72268">
        <ele>197</ele>
        <time>2016-08-23T08:33:35Z</time>
      </trkpt>
      <trkpt lat="45.871" lon="4.72264">
        <ele>197</ele>
        <time>2016-08-23T08:33:36Z</time>
      </trkpt>
      <trkpt lat="45.87096" lon="4.72259">
        <ele>198</ele>
        <time>2016-08-23T08:33:37Z</time>
      </trkpt>
      <trkpt lat="45.87091" lon="4.72254">
        <ele>198</ele>
        <time>2016-08-23T08:33:38Z</time>
      </trkpt>
      <trkpt lat="45.87086" lon="4.72249">
        <ele>198</ele>
        <time>2016-08-23T08:33:39Z</time>
      </trkpt>
      <trkpt lat="45.87081" lon="4.72245">
        <ele>199</ele>
        <time>2016-08-23T08:33:40Z</time>
      </trkpt>
      <trkpt lat="45.87076" lon="4.7224">
        <ele>200</ele>
        <time>2016-08-23T08:33:41Z</time>
      </trkpt>
      <trkpt lat="45.87071" lon="4.72235">
        <ele>200</ele>
        <time>2016-08-23T08:33:42Z</time>
      </trkpt>
      <trkpt lat="45.87067" lon="4.7223">
        <ele>200</ele>
        <time>2016-08-23T08:33:43Z</time>
      </trkpt>
      <trkpt lat="45.87061" lon="4.72226">
        <ele>200</ele>
        <time>2016-08-23T08:33:44Z</time>
      </trkpt>
      <trkpt lat="45.87056" lon="4.72222">
        <ele>200</ele>
        <time>2016-08-23T08:33:45Z</time>
      </trkpt>
      <trkpt lat="45.87051" lon="4.72218">
        <ele>201</ele>
        <time>2016-08-23T08:33:46Z</time>
      </trkpt>
      <trkpt lat="45.87046" lon="4.72214">
        <ele>201</ele>
        <time>2016-08-23T08:33:47Z</time>
      </trkpt>
      <trkpt lat="45.87041" lon="4.72211">
        <ele>201</ele>
        <time>2016-08-23T08:33:48Z</time>
      </trkpt>
      <trkpt lat="45.87036" lon="4.72207">
        <ele>201</ele>
        <time>2016-08-23T08:33:49Z</time>
      </trkpt>
      <trkpt lat="45.87031" lon="4.72203">
        <ele>201</ele>
        <time>2016-08-23T08:33:50Z</time>
      </trkpt>
      <trkpt lat="45.87025" lon="4.72199">
        <ele>201</ele>
        <time>2016-08-23T08:33:51Z</time>
      </trkpt>
      <trkpt lat="45.8702" lon="4.72196">
        <ele>201</ele>
        <time>2016-08-23T08:33:52Z</time>
      </trkpt>
      <trkpt lat="45.87015" lon="4.72192">
        <ele>201</ele>
        <time>2016-08-23T08:33:53Z</time>
      </trkpt>
      <trkpt lat="45.87009" lon="4.72188">
        <ele>201</ele>
        <time>2016-08-23T08:33:54Z</time>
      </trkpt>
      <trkpt lat="45.87003" lon="4.72184">
        <ele>201</ele>
        <time>2016-08-23T08:33:55Z</time>
      </trkpt>
      <trkpt lat="45.86997" lon="4.72181">
        <ele>206</ele>
        <time>2016-08-23T08:33:56Z</time>
      </trkpt>
      <trkpt lat="45.86991" lon="4.72176">
        <ele>206</ele>
        <time>2016-08-23T08:33:57Z</time>
      </trkpt>
      <trkpt lat="45.86986" lon="4.72172">
        <ele>206</ele>
        <time>2016-08-23T08:33:58Z</time>
      </trkpt>
      <trkpt lat="45.86981" lon="4.72168">
        <ele>207</ele>
        <time>2016-08-23T08:33:59Z</time>
      </trkpt>
      <trkpt lat="45.86976" lon="4.72164">
        <ele>201</ele>
        <time>2016-08-23T08:34:00Z</time>
      </trkpt>
      <trkpt lat="45.86971" lon="4.7216">
        <ele>201</ele>
        <time>2016-08-23T08:34:01Z</time>
      </trkpt>
      <trkpt lat="45.86965" lon="4.72157">
        <ele>201</ele>
        <time>2016-08-23T08:34:02Z</time>
      </trkpt>
      <trkpt lat="45.8696" lon="4.72153">
        <ele>201</ele>
        <time>2016-08-23T08:34:03Z</time>
      </trkpt>
      <trkpt lat="45.86956" lon="4.72149">
        <ele>201</ele>
        <time>2016-08-23T08:34:04Z</time>
      </trkpt>
      <trkpt lat="45.8695" lon="4.72146">
        <ele>201</ele>
        <time>2016-08-23T08:34:05Z</time>
      </trkpt>
      <trkpt lat="45.86945" lon="4.72142">
        <ele>201</ele>
        <time>2016-08-23T08:34:06Z</time>
      </trkpt>
      <trkpt lat="45.8694" lon="4.72139">
        <ele>201</ele>
        <time>2016-08-23T08:34:07Z</time>
      </trkpt>
      <trkpt lat="45.86934" lon="4.72136">
        <ele>201</ele>
        <time>2016-08-23T08:34:08Z</time>
      </trkpt>
      <trkpt lat="45.86929" lon="4.72133">
        <ele>201</ele>
        <time>2016-08-23T08:34:09Z</time>
      </trkpt>
      <trkpt lat="45.86923" lon="4.7213">
        <ele>201</ele>
        <time>2016-08-23T08:34:10Z</time>
      </trkpt>
      <trkpt lat="45.86918" lon="4.72127">
        <ele>200</ele>
        <time>2016-08-23T08:34:11Z</time>
      </trkpt>
      <trkpt lat="45.86912" lon="4.72124">
        <ele>202</ele>
        <time>2016-08-23T08:34:12Z</time>
      </trkpt>
      <trkpt lat="45.86906" lon="4.72122">
        <ele>202</ele>
        <time>2016-08-23T08:34:13Z</time>
      </trkpt>
      <trkpt lat="45.869" lon="4.72119">
        <ele>201</ele>
        <time>2016-08-23T08:34:14Z</time>
      </trkpt>
      <trkpt lat="45.86894" lon="4.72116">
        <ele>201</ele>
        <time>2016-08-23T08:34:15Z</time>
      </trkpt>
      <trkpt lat="45.86888" lon="4.72114">
        <ele>201</ele>
        <time>2016-08-23T08:34:16Z</time>
      </trkpt>
      <trkpt lat="45.86882" lon="4.7211">
        <ele>201</ele>
        <time>2016-08-23T08:34:17Z</time>
      </trkpt>
      <trkpt lat="45.86876" lon="4.72107">
        <ele>201</ele>
        <time>2016-08-23T08:34:18Z</time>
      </trkpt>
      <trkpt lat="45.86871" lon="4.72105">
        <ele>200</ele>
        <time>2016-08-23T08:34:19Z</time>
      </trkpt>
      <trkpt lat="45.86865" lon="4.72103">
        <ele>200</ele>
        <time>2016-08-23T08:34:20Z</time>
      </trkpt>
      <trkpt lat="45.8686" lon="4.721">
        <ele>200</ele>
        <time>2016-08-23T08:34:21Z</time>
      </trkpt>
      <trkpt lat="45.86854" lon="4.72097">
        <ele>199</ele>
        <time>2016-08-23T08:34:22Z</time>
      </trkpt>
      <trkpt lat="45.86848" lon="4.72094">
        <ele>198</ele>
        <time>2016-08-23T08:34:23Z</time>
      </trkpt>
      <trkpt lat="45.86843" lon="4.72091">
        <ele>197</ele>
        <time>2016-08-23T08:34:24Z</time>
      </trkpt>
      <trkpt lat="45.86836" lon="4.72088">
        <ele>195</ele>
        <time>2016-08-23T08:34:25Z</time>
      </trkpt>
      <trkpt lat="45.8683" lon="4.72085">
        <ele>195</ele>
        <time>2016-08-23T08:34:26Z</time>
      </trkpt>
      <trkpt lat="45.86825" lon="4.72083">
        <ele>193</ele>
        <time>2016-08-23T08:34:27Z</time>
      </trkpt>
      <trkpt lat="45.86819" lon="4.72081">
        <ele>193</ele>
        <time>2016-08-23T08:34:28Z</time>
      </trkpt>
      <trkpt lat="45.86813" lon="4.72078">
        <ele>194</ele>
        <time>2016-08-23T08:34:29Z</time>
      </trkpt>
      <trkpt lat="45.86807" lon="4.72075">
        <ele>194</ele>
        <time>2016-08-23T08:34:30Z</time>
      </trkpt>
      <trkpt lat="45.868" lon="4.72072">
        <ele>194</ele>
        <time>2016-08-23T08:34:31Z</time>
      </trkpt>
      <trkpt lat="45.86794" lon="4.72069">
        <ele>194</ele>
        <time>2016-08-23T08:34:32Z</time>
      </trkpt>
      <trkpt lat="45.86786" lon="4.72066">
        <ele>194</ele>
        <time>2016-08-23T08:34:33Z</time>
      </trkpt>
      <trkpt lat="45.86781" lon="4.72063">
        <ele>194</ele>
        <time>2016-08-23T08:34:34Z</time>
      </trkpt>
      <trkpt lat="45.86774" lon="4.7206">
        <ele>194</ele>
        <time>2016-08-23T08:34:35Z</time>
      </trkpt>
      <trkpt lat="45.86768" lon="4.72058">
        <ele>195</ele>
        <time>2016-08-23T08:34:36Z</time>
      </trkpt>
      <trkpt lat="45.86762" lon="4.72056">
        <ele>195</ele>
        <time>2016-08-23T08:34:37Z</time>
      </trkpt>
      <trkpt lat="45.86757" lon="4.72054">
        <ele>195</ele>
        <time>2016-08-23T08:34:38Z</time>
      </trkpt>
      <trkpt lat="45.86752" lon="4.72052">
        <ele>195</ele>
        <time>2016-08-23T08:34:39Z</time>
      </trkpt>
      <trkpt lat="45.86748" lon="4.7205">
        <ele>197</ele>
        <time>2016-08-23T08:34:40Z</time>
      </trkpt>
      <trkpt lat="45.86739" lon="4.72048">
        <ele>197</ele>
        <time>2016-08-23T08:34:42Z</time>
      </trkpt>
      <trkpt lat="45.86734" lon="4.72046">
        <ele>197</ele>
        <time>2016-08-23T08:34:43Z</time>
      </trkpt>
      <trkpt lat="45.8673" lon="4.72043">
        <ele>197</ele>
        <time>2016-08-23T08:34:44Z</time>
      </trkpt>
      <trkpt lat="45.86725" lon="4.7204">
        <ele>197</ele>
        <time>2016-08-23T08:34:45Z</time>
      </trkpt>
      <trkpt lat="45.8672" lon="4.72036">
        <ele>197</ele>
        <time>2016-08-23T08:34:46Z</time>
      </trkpt>
      <trkpt lat="45.86716" lon="4.72032">
        <ele>197</ele>
        <time>2016-08-23T08:34:47Z</time>
      </trkpt>
      <trkpt lat="45.86712" lon="4.72028">
        <ele>197</ele>
        <time>2016-08-23T08:34:48Z</time>
      </trkpt>
      <trkpt lat="45.86707" lon="4.72025">
        <ele>197</ele>
        <time>2016-08-23T08:34:49Z</time>
      </trkpt>
      <trkpt lat="45.86701" lon="4.72022">
        <ele>197</ele>
        <time>2016-08-23T08:34:50Z</time>
      </trkpt>
      <trkpt lat="45.86696" lon="4.72018">
        <ele>197</ele>
        <time>2016-08-23T08:34:51Z</time>
      </trkpt>
      <trkpt lat="45.86691" lon="4.72014">
        <ele>196</ele>
        <time>2016-08-23T08:34:52Z</time>
      </trkpt>
      <trkpt lat="45.86686" lon="4.7201">
        <ele>196</ele>
        <time>2016-08-23T08:34:53Z</time>
      </trkpt>
      <trkpt lat="45.86681" lon="4.72006">
        <ele>196</ele>
        <time>2016-08-23T08:34:54Z</time>
      </trkpt>
      <trkpt lat="45.86676" lon="4.72002">
        <ele>196</ele>
        <time>2016-08-23T08:34:55Z</time>
      </trkpt>
      <trkpt lat="45.86671" lon="4.71998">
        <ele>195</ele>
        <time>2016-08-23T08:34:56Z</time>
      </trkpt>
      <trkpt lat="45.86665" lon="4.71994">
        <ele>195</ele>
        <time>2016-08-23T08:34:57Z</time>
      </trkpt>
      <trkpt lat="45.8666" lon="4.71991">
        <ele>195</ele>
        <time>2016-08-23T08:34:58Z</time>
      </trkpt>
      <trkpt lat="45.86655" lon="4.71988">
        <ele>195</ele>
        <time>2016-08-23T08:34:59Z</time>
      </trkpt>
      <trkpt lat="45.8665" lon="4.71984">
        <ele>195</ele>
        <time>2016-08-23T08:35:00Z</time>
      </trkpt>
      <trkpt lat="45.86646" lon="4.71981">
        <ele>195</ele>
        <time>2016-08-23T08:35:01Z</time>
      </trkpt>
      <trkpt lat="45.8664" lon="4.71977">
        <ele>195</ele>
        <time>2016-08-23T08:35:02Z</time>
      </trkpt>
      <trkpt lat="45.86635" lon="4.71974">
        <ele>195</ele>
        <time>2016-08-23T08:35:03Z</time>
      </trkpt>
      <trkpt lat="45.8663" lon="4.71971">
        <ele>195</ele>
        <time>2016-08-23T08:35:04Z</time>
      </trkpt>
      <trkpt lat="45.86625" lon="4.71967">
        <ele>195</ele>
        <time>2016-08-23T08:35:05Z</time>
      </trkpt>
      <trkpt lat="45.8662" lon="4.71963">
        <ele>195</ele>
        <time>2016-08-23T08:35:06Z</time>
      </trkpt>
      <trkpt lat="45.86615" lon="4.71959">
        <ele>195</ele>
        <time>2016-08-23T08:35:07Z</time>
      </trkpt>
      <trkpt lat="45.86609" lon="4.71954">
        <ele>194</ele>
        <time>2016-08-23T08:35:08Z</time>
      </trkpt>
      <trkpt lat="45.86605" lon="4.7195">
        <ele>194</ele>
        <time>2016-08-23T08:35:09Z</time>
      </trkpt>
      <trkpt lat="45.86599" lon="4.71946">
        <ele>194</ele>
        <time>2016-08-23T08:35:10Z</time>
      </trkpt>
      <trkpt lat="45.86594" lon="4.71943">
        <ele>194</ele>
        <time>2016-08-23T08:35:11Z</time>
      </trkpt>
      <trkpt lat="45.8659" lon="4.71939">
        <ele>194</ele>
        <time>2016-08-23T08:35:12Z</time>
      </trkpt>
      <trkpt lat="45.86585" lon="4.71936">
        <ele>194</ele>
        <time>2016-08-23T08:35:13Z</time>
      </trkpt>
      <trkpt lat="45.86581" lon="4.71933">
        <ele>195</ele>
        <time>2016-08-23T08:35:14Z</time>
      </trkpt>
      <trkpt lat="45.86576" lon="4.71929">
        <ele>195</ele>
        <time>2016-08-23T08:35:15Z</time>
      </trkpt>
      <trkpt lat="45.86571" lon="4.71926">
        <ele>195</ele>
        <time>2016-08-23T08:35:16Z</time>
      </trkpt>
      <trkpt lat="45.86567" lon="4.71923">
        <ele>195</ele>
        <time>2016-08-23T08:35:17Z</time>
      </trkpt>
      <trkpt lat="45.86562" lon="4.71919">
        <ele>196</ele>
        <time>2016-08-23T08:35:18Z</time>
      </trkpt>
      <trkpt lat="45.86558" lon="4.71916">
        <ele>195</ele>
        <time>2016-08-23T08:35:19Z</time>
      </trkpt>
      <trkpt lat="45.86553" lon="4.71912">
        <ele>195</ele>
        <time>2016-08-23T08:35:20Z</time>
      </trkpt>
      <trkpt lat="45.86549" lon="4.71909">
        <ele>195</ele>
        <time>2016-08-23T08:35:21Z</time>
      </trkpt>
      <trkpt lat="45.86545" lon="4.71905">
        <ele>195</ele>
        <time>2016-08-23T08:35:22Z</time>
      </trkpt>
      <trkpt lat="45.8654" lon="4.71901">
        <ele>195</ele>
        <time>2016-08-23T08:35:23Z</time>
      </trkpt>
      <trkpt lat="45.86535" lon="4.71897">
        <ele>195</ele>
        <time>2016-08-23T08:35:24Z</time>
      </trkpt>
      <trkpt lat="45.86531" lon="4.71893">
        <ele>195</ele>
        <time>2016-08-23T08:35:25Z</time>
      </trkpt>
      <trkpt lat="45.86526" lon="4.71889">
        <ele>195</ele>
        <time>2016-08-23T08:35:26Z</time>
      </trkpt>
      <trkpt lat="45.86522" lon="4.71885">
        <ele>195</ele>
        <time>2016-08-23T08:35:27Z</time>
      </trkpt>
      <trkpt lat="45.86515" lon="4.71877">
        <ele>195</ele>
        <time>2016-08-23T08:35:29Z</time>
      </trkpt>
      <trkpt lat="45.86512" lon="4.71873">
        <ele>195</ele>
        <time>2016-08-23T08:35:30Z</time>
      </trkpt>
      <trkpt lat="45.86508" lon="4.71869">
        <ele>195</ele>
        <time>2016-08-23T08:35:31Z</time>
      </trkpt>
      <trkpt lat="45.86504" lon="4.71864">
        <ele>195</ele>
        <time>2016-08-23T08:35:32Z</time>
      </trkpt>
      <trkpt lat="45.86499" lon="4.71861">
        <ele>198</ele>
        <time>2016-08-23T08:35:33Z</time>
      </trkpt>
      <trkpt lat="45.86496" lon="4.71856">
        <ele>198</ele>
        <time>2016-08-23T08:35:34Z</time>
      </trkpt>
      <trkpt lat="45.86492" lon="4.71852">
        <ele>197</ele>
        <time>2016-08-23T08:35:35Z</time>
      </trkpt>
      <trkpt lat="45.86488" lon="4.71847">
        <ele>197</ele>
        <time>2016-08-23T08:35:36Z</time>
      </trkpt>
      <trkpt lat="45.86483" lon="4.71844">
        <ele>197</ele>
        <time>2016-08-23T08:35:37Z</time>
      </trkpt>
      <trkpt lat="45.86479" lon="4.71839">
        <ele>198</ele>
        <time>2016-08-23T08:35:38Z</time>
      </trkpt>
      <trkpt lat="45.86475" lon="4.71835">
        <ele>198</ele>
        <time>2016-08-23T08:35:39Z</time>
      </trkpt>
      <trkpt lat="45.86471" lon="4.7183">
        <ele>196</ele>
        <time>2016-08-23T08:35:40Z</time>
      </trkpt>
      <trkpt lat="45.86467" lon="4.71826">
        <ele>196</ele>
        <time>2016-08-23T08:35:41Z</time>
      </trkpt>
      <trkpt lat="45.86463" lon="4.71821">
        <ele>196</ele>
        <time>2016-08-23T08:35:42Z</time>
      </trkpt>
      <trkpt lat="45.86455" lon="4.71816">
        <ele>196</ele>
        <time>2016-08-23T08:35:43Z</time>
      </trkpt>
      <trkpt lat="45.86449" lon="4.71812">
        <ele>197</ele>
        <time>2016-08-23T08:35:44Z</time>
      </trkpt>
      <trkpt lat="45.86442" lon="4.71808">
        <ele>197</ele>
        <time>2016-08-23T08:35:45Z</time>
      </trkpt>
      <trkpt lat="45.86437" lon="4.71804">
        <ele>197</ele>
        <time>2016-08-23T08:35:46Z</time>
      </trkpt>
      <trkpt lat="45.86431" lon="4.718">
        <ele>197</ele>
        <time>2016-08-23T08:35:47Z</time>
      </trkpt>
      <trkpt lat="45.86426" lon="4.71797">
        <ele>197</ele>
        <time>2016-08-23T08:35:48Z</time>
      </trkpt>
      <trkpt lat="45.86421" lon="4.71794">
        <ele>196</ele>
        <time>2016-08-23T08:35:49Z</time>
      </trkpt>
      <trkpt lat="45.86415" lon="4.71791">
        <ele>198</ele>
        <time>2016-08-23T08:35:50Z</time>
      </trkpt>
      <trkpt lat="45.8641" lon="4.71788">
        <ele>198</ele>
        <time>2016-08-23T08:35:51Z</time>
      </trkpt>
      <trkpt lat="45.86404" lon="4.71784">
        <ele>198</ele>
        <time>2016-08-23T08:35:52Z</time>
      </trkpt>
      <trkpt lat="45.86399" lon="4.7178">
        <ele>198</ele>
        <time>2016-08-23T08:35:53Z</time>
      </trkpt>
      <trkpt lat="45.86393" lon="4.71776">
        <ele>198</ele>
        <time>2016-08-23T08:35:54Z</time>
      </trkpt>
      <trkpt lat="45.86388" lon="4.71773">
        <ele>198</ele>
        <time>2016-08-23T08:35:55Z</time>
      </trkpt>
      <trkpt lat="45.86383" lon="4.71769">
        <ele>198</ele>
        <time>2016-08-23T08:35:56Z</time>
      </trkpt>
      <trkpt lat="45.86378" lon="4.71766">
        <ele>198</ele>
        <time>2016-08-23T08:35:57Z</time>
      </trkpt>
      <trkpt lat="45.86372" lon="4.71763">
        <ele>198</ele>
        <time>2016-08-23T08:35:58Z</time>
      </trkpt>
      <trkpt lat="45.86367" lon="4.71759">
        <ele>198</ele>
        <time>2016-08-23T08:35:59Z</time>
      </trkpt>
      <trkpt lat="45.86362" lon="4.71756">
        <ele>198</ele>
        <time>2016-08-23T08:36:00Z</time>
      </trkpt>
      <trkpt lat="45.86357" lon="4.71752">
        <ele>197</ele>
        <time>2016-08-23T08:36:01Z</time>
      </trkpt>
      <trkpt lat="45.86351" lon="4.71749">
        <ele>195</ele>
        <time>2016-08-23T08:36:02Z</time>
      </trkpt>
      <trkpt lat="45.86346" lon="4.71746">
        <ele>195</ele>
        <time>2016-08-23T08:36:03Z</time>
      </trkpt>
      <trkpt lat="45.86341" lon="4.71742">
        <ele>195</ele>
        <time>2016-08-23T08:36:04Z</time>
      </trkpt>
      <trkpt lat="45.86336" lon="4.71739">
        <ele>195</ele>
        <time>2016-08-23T08:36:05Z</time>
      </trkpt>
      <trkpt lat="45.86331" lon="4.71736">
        <ele>196</ele>
        <time>2016-08-23T08:36:06Z</time>
      </trkpt>
      <trkpt lat="45.86326" lon="4.71733">
        <ele>196</ele>
        <time>2016-08-23T08:36:07Z</time>
      </trkpt>
      <trkpt lat="45.86321" lon="4.71729">
        <ele>196</ele>
        <time>2016-08-23T08:36:08Z</time>
      </trkpt>
      <trkpt lat="45.86316" lon="4.71725">
        <ele>196</ele>
        <time>2016-08-23T08:36:09Z</time>
      </trkpt>
      <trkpt lat="45.8631" lon="4.71721">
        <ele>196</ele>
        <time>2016-08-23T08:36:10Z</time>
      </trkpt>
      <trkpt lat="45.86305" lon="4.71718">
        <ele>196</ele>
        <time>2016-08-23T08:36:11Z</time>
      </trkpt>
      <trkpt lat="45.86299" lon="4.71714">
        <ele>196</ele>
        <time>2016-08-23T08:36:12Z</time>
      </trkpt>
      <trkpt lat="45.86294" lon="4.7171">
        <ele>196</ele>
        <time>2016-08-23T08:36:13Z</time>
      </trkpt>
      <trkpt lat="45.8629" lon="4.71706">
        <ele>195</ele>
        <time>2016-08-23T08:36:14Z</time>
      </trkpt>
      <trkpt lat="45.86285" lon="4.71702">
        <ele>195</ele>
        <time>2016-08-23T08:36:15Z</time>
      </trkpt>
      <trkpt lat="45.86281" lon="4.71699">
        <ele>195</ele>
        <time>2016-08-23T08:36:16Z</time>
      </trkpt>
      <trkpt lat="45.86276" lon="4.71695">
        <ele>195</ele>
        <time>2016-08-23T08:36:17Z</time>
      </trkpt>
      <trkpt lat="45.86272" lon="4.71691">
        <ele>195</ele>
        <time>2016-08-23T08:36:18Z</time>
      </trkpt>
      <trkpt lat="45.86268" lon="4.71687">
        <ele>195</ele>
        <time>2016-08-23T08:36:19Z</time>
      </trkpt>
      <trkpt lat="45.86264" lon="4.71683">
        <ele>195</ele>
        <time>2016-08-23T08:36:20Z</time>
      </trkpt>
      <trkpt lat="45.8626" lon="4.71679">
        <ele>195</ele>
        <time>2016-08-23T08:36:21Z</time>
      </trkpt>
      <trkpt lat="45.86255" lon="4.71676">
        <ele>195</ele>
        <time>2016-08-23T08:36:22Z</time>
      </trkpt>
      <trkpt lat="45.86251" lon="4.71672">
        <ele>195</ele>
        <time>2016-08-23T08:36:23Z</time>
      </trkpt>
      <trkpt lat="45.86247" lon="4.71668">
        <ele>195</ele>
        <time>2016-08-23T08:36:24Z</time>
      </trkpt>
      <trkpt lat="45.86242" lon="4.71665">
        <ele>195</ele>
        <time>2016-08-23T08:36:25Z</time>
      </trkpt>
      <trkpt lat="45.86238" lon="4.71661">
        <ele>195</ele>
        <time>2016-08-23T08:36:26Z</time>
      </trkpt>
      <trkpt lat="45.86234" lon="4.71656">
        <ele>195</ele>
        <time>2016-08-23T08:36:27Z</time>
      </trkpt>
      <trkpt lat="45.8623" lon="4.71652">
        <ele>195</ele>
        <time>2016-08-23T08:36:28Z</time>
      </trkpt>
      <trkpt lat="45.86227" lon="4.71649">
        <ele>195</ele>
        <time>2016-08-23T08:36:29Z</time>
      </trkpt>
      <trkpt lat="45.86223" lon="4.71645">
        <ele>195</ele>
        <time>2016-08-23T08:36:30Z</time>
      </trkpt>
      <trkpt lat="45.8622" lon="4.71639">
        <ele>195</ele>
        <time>2016-08-23T08:36:31Z</time>
      </trkpt>
      <trkpt lat="45.86218" lon="4.71633">
        <ele>195</ele>
        <time>2016-08-23T08:36:32Z</time>
      </trkpt>
      <trkpt lat="45.86216" lon="4.71627">
        <ele>195</ele>
        <time>2016-08-23T08:36:33Z</time>
      </trkpt>
      <trkpt lat="45.86214" lon="4.7162">
        <ele>195</ele>
        <time>2016-08-23T08:36:34Z</time>
      </trkpt>
      <trkpt lat="45.86211" lon="4.71614">
        <ele>195</ele>
        <time>2016-08-23T08:36:35Z</time>
      </trkpt>
      <trkpt lat="45.86208" lon="4.71608">
        <ele>195</ele>
        <time>2016-08-23T08:36:36Z</time>
      </trkpt>
      <trkpt lat="45.86203" lon="4.71602">
        <ele>195</ele>
        <time>2016-08-23T08:36:37Z</time>
      </trkpt>
      <trkpt lat="45.86199" lon="4.71598">
        <ele>195</ele>
        <time>2016-08-23T08:36:38Z</time>
      </trkpt>
      <trkpt lat="45.86195" lon="4.71594">
        <ele>195</ele>
        <time>2016-08-23T08:36:39Z</time>
      </trkpt>
      <trkpt lat="45.86191" lon="4.7159">
        <ele>195</ele>
        <time>2016-08-23T08:36:40Z</time>
      </trkpt>
      <trkpt lat="45.86186" lon="4.71579">
        <ele>195</ele>
        <time>2016-08-23T08:36:42Z</time>
      </trkpt>
      <trkpt lat="45.86184" lon="4.71574">
        <ele>195</ele>
        <time>2016-08-23T08:36:43Z</time>
      </trkpt>
      <trkpt lat="45.86181" lon="4.71568">
        <ele>195</ele>
        <time>2016-08-23T08:36:44Z</time>
      </trkpt>
      <trkpt lat="45.86179" lon="4.71562">
        <ele>195</ele>
        <time>2016-08-23T08:36:45Z</time>
      </trkpt>
      <trkpt lat="45.86176" lon="4.71556">
        <ele>195</ele>
        <time>2016-08-23T08:36:46Z</time>
      </trkpt>
      <trkpt lat="45.86174" lon="4.7155">
        <ele>195</ele>
        <time>2016-08-23T08:36:47Z</time>
      </trkpt>
      <trkpt lat="45.86171" lon="4.71545">
        <ele>195</ele>
        <time>2016-08-23T08:36:48Z</time>
      </trkpt>
      <trkpt lat="45.86168" lon="4.71539">
        <ele>195</ele>
        <time>2016-08-23T08:36:49Z</time>
      </trkpt>
      <trkpt lat="45.86165" lon="4.71533">
        <ele>195</ele>
        <time>2016-08-23T08:36:50Z</time>
      </trkpt>
      <trkpt lat="45.86162" lon="4.71527">
        <ele>195</ele>
        <time>2016-08-23T08:36:51Z</time>
      </trkpt>
      <trkpt lat="45.86159" lon="4.7152">
        <ele>195</ele>
        <time>2016-08-23T08:36:52Z</time>
      </trkpt>
      <trkpt lat="45.86156" lon="4.71514">
        <ele>195</ele>
        <time>2016-08-23T08:36:53Z</time>
      </trkpt>
      <trkpt lat="45.86153" lon="4.71508">
        <ele>195</ele>
        <time>2016-08-23T08:36:54Z</time>
      </trkpt>
      <trkpt lat="45.86151" lon="4.71503">
        <ele>195</ele>
        <time>2016-08-23T08:36:55Z</time>
      </trkpt>
      <trkpt lat="45.86148" lon="4.71496">
        <ele>195</ele>
        <time>2016-08-23T08:36:56Z</time>
      </trkpt>
      <trkpt lat="45.86145" lon="4.71489">
        <ele>195</ele>
        <time>2016-08-23T08:36:57Z</time>
      </trkpt>
      <trkpt lat="45.86143" lon="4.71482">
        <ele>195</ele>
        <time>2016-08-23T08:36:58Z</time>
      </trkpt>
      <trkpt lat="45.86139" lon="4.71474">
        <ele>195</ele>
        <time>2016-08-23T08:36:59Z</time>
      </trkpt>
      <trkpt lat="45.86136" lon="4.71468">
        <ele>195</ele>
        <time>2016-08-23T08:37:00Z</time>
      </trkpt>
      <trkpt lat="45.86134" lon="4.71461">
        <ele>195</ele>
        <time>2016-08-23T08:37:01Z</time>
      </trkpt>
      <trkpt lat="45.86133" lon="4.71454">
        <ele>195</ele>
        <time>2016-08-23T08:37:02Z</time>
      </trkpt>
      <trkpt lat="45.86131" lon="4.71446">
        <ele>195</ele>
        <time>2016-08-23T08:37:03Z</time>
      </trkpt>
      <trkpt lat="45.8613" lon="4.71438">
        <ele>195</ele>
        <time>2016-08-23T08:37:04Z</time>
      </trkpt>
      <trkpt lat="45.86129" lon="4.71431">
        <ele>195</ele>
        <time>2016-08-23T08:37:05Z</time>
      </trkpt>
      <trkpt lat="45.86127" lon="4.71424">
        <ele>195</ele>
        <time>2016-08-23T08:37:06Z</time>
      </trkpt>
      <trkpt lat="45.86125" lon="4.71417">
        <ele>196</ele>
        <time>2016-08-23T08:37:07Z</time>
      </trkpt>
      <trkpt lat="45.86123" lon="4.71411">
        <ele>196</ele>
        <time>2016-08-23T08:37:08Z</time>
      </trkpt>
      <trkpt lat="45.86123" lon="4.71403">
        <ele>196</ele>
        <time>2016-08-23T08:37:09Z</time>
      </trkpt>
      <trkpt lat="45.86122" lon="4.71396">
        <ele>196</ele>
        <time>2016-08-23T08:37:10Z</time>
      </trkpt>
      <trkpt lat="45.86122" lon="4.71388">
        <ele>196</ele>
        <time>2016-08-23T08:37:11Z</time>
      </trkpt>
      <trkpt lat="45.86122" lon="4.7138">
        <ele>196</ele>
        <time>2016-08-23T08:37:12Z</time>
      </trkpt>
      <trkpt lat="45.86121" lon="4.71372">
        <ele>196</ele>
        <time>2016-08-23T08:37:13Z</time>
      </trkpt>
      <trkpt lat="45.86121" lon="4.71364">
        <ele>196</ele>
        <time>2016-08-23T08:37:14Z</time>
      </trkpt>
      <trkpt lat="45.8612" lon="4.71356">
        <ele>196</ele>
        <time>2016-08-23T08:37:15Z</time>
      </trkpt>
      <trkpt lat="45.86117" lon="4.71347">
        <ele>196</ele>
        <time>2016-08-23T08:37:16Z</time>
      </trkpt>
      <trkpt lat="45.86116" lon="4.71339">
        <ele>196</ele>
        <time>2016-08-23T08:37:17Z</time>
      </trkpt>
      <trkpt lat="45.86114" lon="4.7133">
        <ele>196</ele>
        <time>2016-08-23T08:37:18Z</time>
      </trkpt>
      <trkpt lat="45.86113" lon="4.71321">
        <ele>196</ele>
        <time>2016-08-23T08:37:19Z</time>
      </trkpt>
      <trkpt lat="45.86111" lon="4.71312">
        <ele>196</ele>
        <time>2016-08-23T08:37:20Z</time>
      </trkpt>
      <trkpt lat="45.8611" lon="4.71304">
        <ele>196</ele>
        <time>2016-08-23T08:37:21Z</time>
      </trkpt>
      <trkpt lat="45.86109" lon="4.71296">
        <ele>196</ele>
        <time>2016-08-23T08:37:22Z</time>
      </trkpt>
      <trkpt lat="45.86107" lon="4.71289">
        <ele>197</ele>
        <time>2016-08-23T08:37:23Z</time>
      </trkpt>
      <trkpt lat="45.86104" lon="4.71282">
        <ele>197</ele>
        <time>2016-08-23T08:37:24Z</time>
      </trkpt>
      <trkpt lat="45.86102" lon="4.71277">
        <ele>197</ele>
        <time>2016-08-23T08:37:25Z</time>
      </trkpt>
      <trkpt lat="45.86099" lon="4.71271">
        <ele>197</ele>
        <time>2016-08-23T08:37:26Z</time>
      </trkpt>
      <trkpt lat="45.86097" lon="4.71266">
        <ele>197</ele>
        <time>2016-08-23T08:37:27Z</time>
      </trkpt>
      <trkpt lat="45.86093" lon="4.71255">
        <ele>197</ele>
        <time>2016-08-23T08:37:29Z</time>
      </trkpt>
      <trkpt lat="45.86092" lon="4.71249">
        <ele>198</ele>
        <time>2016-08-23T08:37:30Z</time>
      </trkpt>
      <trkpt lat="45.86092" lon="4.71242">
        <ele>197</ele>
        <time>2016-08-23T08:37:31Z</time>
      </trkpt>
      <trkpt lat="45.86092" lon="4.71235">
        <ele>197</ele>
        <time>2016-08-23T08:37:32Z</time>
      </trkpt>
      <trkpt lat="45.86091" lon="4.71228">
        <ele>197</ele>
        <time>2016-08-23T08:37:33Z</time>
      </trkpt>
      <trkpt lat="45.86091" lon="4.71222">
        <ele>197</ele>
        <time>2016-08-23T08:37:34Z</time>
      </trkpt>
      <trkpt lat="45.86092" lon="4.71214">
        <ele>197</ele>
        <time>2016-08-23T08:37:35Z</time>
      </trkpt>
      <trkpt lat="45.86092" lon="4.71207">
        <ele>197</ele>
        <time>2016-08-23T08:37:36Z</time>
      </trkpt>
      <trkpt lat="45.86091" lon="4.712">
        <ele>197</ele>
        <time>2016-08-23T08:37:37Z</time>
      </trkpt>
      <trkpt lat="45.86092" lon="4.71192">
        <ele>197</ele>
        <time>2016-08-23T08:37:38Z</time>
      </trkpt>
      <trkpt lat="45.86091" lon="4.71186">
        <ele>197</ele>
        <time>2016-08-23T08:37:39Z</time>
      </trkpt>
      <trkpt lat="45.86091" lon="4.71179">
        <ele>197</ele>
        <time>2016-08-23T08:37:40Z</time>
      </trkpt>
      <trkpt lat="45.86092" lon="4.7117">
        <ele>198</ele>
        <time>2016-08-23T08:37:41Z</time>
      </trkpt>
      <trkpt lat="45.86092" lon="4.71162">
        <ele>197</ele>
        <time>2016-08-23T08:37:42Z</time>
      </trkpt>
      <trkpt lat="45.86091" lon="4.71155">
        <ele>197</ele>
        <time>2016-08-23T08:37:43Z</time>
      </trkpt>
      <trkpt lat="45.86088" lon="4.71147">
        <ele>197</ele>
        <time>2016-08-23T08:37:44Z</time>
      </trkpt>
      <trkpt lat="45.86084" lon="4.71141">
        <ele>197</ele>
        <time>2016-08-23T08:37:45Z</time>
      </trkpt>
      <trkpt lat="45.8608" lon="4.71135">
        <ele>197</ele>
        <time>2016-08-23T08:37:46Z</time>
      </trkpt>
      <trkpt lat="45.86072" lon="4.71129">
        <ele>197</ele>
        <time>2016-08-23T08:37:48Z</time>
      </trkpt>
      <trkpt lat="45.86067" lon="4.71125">
        <ele>197</ele>
        <time>2016-08-23T08:37:49Z</time>
      </trkpt>
      <trkpt lat="45.86062" lon="4.71121">
        <ele>197</ele>
        <time>2016-08-23T08:37:50Z</time>
      </trkpt>
      <trkpt lat="45.86058" lon="4.71116">
        <ele>197</ele>
        <time>2016-08-23T08:37:51Z</time>
      </trkpt>
      <trkpt lat="45.86052" lon="4.71108">
        <ele>197</ele>
        <time>2016-08-23T08:37:53Z</time>
      </trkpt>
      <trkpt lat="45.8605" lon="4.71102">
        <ele>197</ele>
        <time>2016-08-23T08:37:54Z</time>
      </trkpt>
      <trkpt lat="45.86048" lon="4.71096">
        <ele>197</ele>
        <time>2016-08-23T08:37:55Z</time>
      </trkpt>
      <trkpt lat="45.86046" lon="4.7109">
        <ele>197</ele>
        <time>2016-08-23T08:37:56Z</time>
      </trkpt>
      <trkpt lat="45.86044" lon="4.71083">
        <ele>196</ele>
        <time>2016-08-23T08:37:57Z</time>
      </trkpt>
      <trkpt lat="45.86043" lon="4.71074">
        <ele>196</ele>
        <time>2016-08-23T08:37:58Z</time>
      </trkpt>
      <trkpt lat="45.86041" lon="4.71066">
        <ele>197</ele>
        <time>2016-08-23T08:37:59Z</time>
      </trkpt>
      <trkpt lat="45.86039" lon="4.71058">
        <ele>197</ele>
        <time>2016-08-23T08:38:00Z</time>
      </trkpt>
      <trkpt lat="45.8604" lon="4.71051">
        <ele>197</ele>
        <time>2016-08-23T08:38:01Z</time>
      </trkpt>
      <trkpt lat="45.8604" lon="4.71044">
        <ele>197</ele>
        <time>2016-08-23T08:38:02Z</time>
      </trkpt>
      <trkpt lat="45.8604" lon="4.71037">
        <ele>197</ele>
        <time>2016-08-23T08:38:03Z</time>
      </trkpt>
      <trkpt lat="45.86038" lon="4.71031">
        <ele>197</ele>
        <time>2016-08-23T08:38:04Z</time>
      </trkpt>
      <trkpt lat="45.86036" lon="4.71025">
        <ele>197</ele>
        <time>2016-08-23T08:38:05Z</time>
      </trkpt>
      <trkpt lat="45.86033" lon="4.7102">
        <ele>197</ele>
        <time>2016-08-23T08:38:06Z</time>
      </trkpt>
      <trkpt lat="45.8603" lon="4.71014">
        <ele>197</ele>
        <time>2016-08-23T08:38:07Z</time>
      </trkpt>
      <trkpt lat="45.86025" lon="4.71008">
        <ele>197</ele>
        <time>2016-08-23T08:38:08Z</time>
      </trkpt>
      <trkpt lat="45.86021" lon="4.71002">
        <ele>197</ele>
        <time>2016-08-23T08:38:09Z</time>
      </trkpt>
      <trkpt lat="45.86016" lon="4.70997">
        <ele>197</ele>
        <time>2016-08-23T08:38:10Z</time>
      </trkpt>
      <trkpt lat="45.86012" lon="4.70992">
        <ele>197</ele>
        <time>2016-08-23T08:38:11Z</time>
      </trkpt>
      <trkpt lat="45.86008" lon="4.70987">
        <ele>197</ele>
        <time>2016-08-23T08:38:12Z</time>
      </trkpt>
      <trkpt lat="45.86003" lon="4.70983">
        <ele>197</ele>
        <time>2016-08-23T08:38:13Z</time>
      </trkpt>
      <trkpt lat="45.85996" lon="4.70979">
        <ele>197</ele>
        <time>2016-08-23T08:38:14Z</time>
      </trkpt>
      <trkpt lat="45.8599" lon="4.70976">
        <ele>197</ele>
        <time>2016-08-23T08:38:15Z</time>
      </trkpt>
      <trkpt lat="45.85985" lon="4.70974">
        <ele>197</ele>
        <time>2016-08-23T08:38:16Z</time>
      </trkpt>
      <trkpt lat="45.8598" lon="4.70972">
        <ele>197</ele>
        <time>2016-08-23T08:38:17Z</time>
      </trkpt>
      <trkpt lat="45.85975" lon="4.7097">
        <ele>197</ele>
        <time>2016-08-23T08:38:18Z</time>
      </trkpt>
      <trkpt lat="45.8597" lon="4.70969">
        <ele>197</ele>
        <time>2016-08-23T08:38:19Z</time>
      </trkpt>
      <trkpt lat="45.85965" lon="4.70969">
        <ele>197</ele>
        <time>2016-08-23T08:38:20Z</time>
      </trkpt>
      <trkpt lat="45.85959" lon="4.70969">
        <ele>197</ele>
        <time>2016-08-23T08:38:21Z</time>
      </trkpt>
      <trkpt lat="45.85955" lon="4.70969">
        <ele>197</ele>
        <time>2016-08-23T08:38:22Z</time>
      </trkpt>
      <trkpt lat="45.85947" lon="4.70966">
        <ele>197</ele>
        <time>2016-08-23T08:38:24Z</time>
      </trkpt>
      <trkpt lat="45.85945" lon="4.70962">
        <ele>197</ele>
        <time>2016-08-23T08:38:25Z</time>
      </trkpt>
      <trkpt lat="45.85945" lon="4.7095">
        <ele>197</ele>
        <time>2016-08-23T08:38:27Z</time>
      </trkpt>
      <trkpt lat="45.85946" lon="4.70944">
        <ele>197</ele>
        <time>2016-08-23T08:38:28Z</time>
      </trkpt>
      <trkpt lat="45.85948" lon="4.70937">
        <ele>197</ele>
        <time>2016-08-23T08:38:29Z</time>
      </trkpt>
      <trkpt lat="45.85951" lon="4.7093">
        <ele>197</ele>
        <time>2016-08-23T08:38:30Z</time>
      </trkpt>
      <trkpt lat="45.85952" lon="4.70922">
        <ele>197</ele>
        <time>2016-08-23T08:38:31Z</time>
      </trkpt>
      <trkpt lat="45.85954" lon="4.70915">
        <ele>197</ele>
        <time>2016-08-23T08:38:32Z</time>
      </trkpt>
      <trkpt lat="45.85956" lon="4.70907">
        <ele>197</ele>
        <time>2016-08-23T08:38:33Z</time>
      </trkpt>
      <trkpt lat="45.85958" lon="4.709">
        <ele>197</ele>
        <time>2016-08-23T08:38:34Z</time>
      </trkpt>
      <trkpt lat="45.8596" lon="4.70892">
        <ele>197</ele>
        <time>2016-08-23T08:38:35Z</time>
      </trkpt>
      <trkpt lat="45.85961" lon="4.70884">
        <ele>197</ele>
        <time>2016-08-23T08:38:36Z</time>
      </trkpt>
      <trkpt lat="45.85963" lon="4.70877">
        <ele>197</ele>
        <time>2016-08-23T08:38:37Z</time>
      </trkpt>
      <trkpt lat="45.85964" lon="4.7087">
        <ele>196</ele>
        <time>2016-08-23T08:38:38Z</time>
      </trkpt>
      <trkpt lat="45.85965" lon="4.70862">
        <ele>196</ele>
        <time>2016-08-23T08:38:39Z</time>
      </trkpt>
      <trkpt lat="45.85966" lon="4.70854">
        <ele>196</ele>
        <time>2016-08-23T08:38:40Z</time>
      </trkpt>
      <trkpt lat="45.85966" lon="4.70847">
        <ele>196</ele>
        <time>2016-08-23T08:38:41Z</time>
      </trkpt>
      <trkpt lat="45.85965" lon="4.70839">
        <ele>196</ele>
        <time>2016-08-23T08:38:42Z</time>
      </trkpt>
      <trkpt lat="45.85964" lon="4.70832">
        <ele>196</ele>
        <time>2016-08-23T08:38:43Z</time>
      </trkpt>
      <trkpt lat="45.85963" lon="4.70824">
        <ele>196</ele>
        <time>2016-08-23T08:38:44Z</time>
      </trkpt>
      <trkpt lat="45.85963" lon="4.70816">
        <ele>195</ele>
        <time>2016-08-23T08:38:45Z</time>
      </trkpt>
      <trkpt lat="45.85962" lon="4.70809">
        <ele>195</ele>
        <time>2016-08-23T08:38:46Z</time>
      </trkpt>
      <trkpt lat="45.85961" lon="4.70802">
        <ele>195</ele>
        <time>2016-08-23T08:38:47Z</time>
      </trkpt>
      <trkpt lat="45.85961" lon="4.70795">
        <ele>195</ele>
        <time>2016-08-23T08:38:48Z</time>
      </trkpt>
      <trkpt lat="45.85962" lon="4.70787">
        <ele>195</ele>
        <time>2016-08-23T08:38:49Z</time>
      </trkpt>
      <trkpt lat="45.85963" lon="4.70779">
        <ele>195</ele>
        <time>2016-08-23T08:38:50Z</time>
      </trkpt>
      <trkpt lat="45.85963" lon="4.70771">
        <ele>195</ele>
        <time>2016-08-23T08:38:51Z</time>
      </trkpt>
      <trkpt lat="45.85963" lon="4.70763">
        <ele>195</ele>
        <time>2016-08-23T08:38:52Z</time>
      </trkpt>
      <trkpt lat="45.85964" lon="4.70755">
        <ele>195</ele>
        <time>2016-08-23T08:38:53Z</time>
      </trkpt>
      <trkpt lat="45.85965" lon="4.70747">
        <ele>194</ele>
        <time>2016-08-23T08:38:54Z</time>
      </trkpt>
      <trkpt lat="45.85965" lon="4.70738">
        <ele>194</ele>
        <time>2016-08-23T08:38:55Z</time>
      </trkpt>
      <trkpt lat="45.85966" lon="4.7073">
        <ele>194</ele>
        <time>2016-08-23T08:38:56Z</time>
      </trkpt>
      <trkpt lat="45.85968" lon="4.70721">
        <ele>194</ele>
        <time>2016-08-23T08:38:57Z</time>
      </trkpt>
      <trkpt lat="45.85969" lon="4.70712">
        <ele>194</ele>
        <time>2016-08-23T08:38:58Z</time>
      </trkpt>
      <trkpt lat="45.8597" lon="4.70705">
        <ele>194</ele>
        <time>2016-08-23T08:38:59Z</time>
      </trkpt>
      <trkpt lat="45.85969" lon="4.70696">
        <ele>194</ele>
        <time>2016-08-23T08:39:00Z</time>
      </trkpt>
      <trkpt lat="45.85968" lon="4.70689">
        <ele>194</ele>
        <time>2016-08-23T08:39:01Z</time>
      </trkpt>
      <trkpt lat="45.85967" lon="4.70681">
        <ele>194</ele>
        <time>2016-08-23T08:39:02Z</time>
      </trkpt>
      <trkpt lat="45.85964" lon="4.70674">
        <ele>194</ele>
        <time>2016-08-23T08:39:03Z</time>
      </trkpt>
      <trkpt lat="45.85961" lon="4.70667">
        <ele>194</ele>
        <time>2016-08-23T08:39:04Z</time>
      </trkpt>
      <trkpt lat="45.85957" lon="4.70661">
        <ele>194</ele>
        <time>2016-08-23T08:39:05Z</time>
      </trkpt>
      <trkpt lat="45.85953" lon="4.70655">
        <ele>194</ele>
        <time>2016-08-23T08:39:06Z</time>
      </trkpt>
      <trkpt lat="45.85949" lon="4.70648">
        <ele>194</ele>
        <time>2016-08-23T08:39:07Z</time>
      </trkpt>
      <trkpt lat="45.85945" lon="4.70642">
        <ele>194</ele>
        <time>2016-08-23T08:39:08Z</time>
      </trkpt>
      <trkpt lat="45.85942" lon="4.70636">
        <ele>194</ele>
        <time>2016-08-23T08:39:09Z</time>
      </trkpt>
      <trkpt lat="45.85938" lon="4.7063">
        <ele>194</ele>
        <time>2016-08-23T08:39:10Z</time>
      </trkpt>
      <trkpt lat="45.85935" lon="4.70623">
        <ele>194</ele>
        <time>2016-08-23T08:39:11Z</time>
      </trkpt>
      <trkpt lat="45.8593" lon="4.70616">
        <ele>194</ele>
        <time>2016-08-23T08:39:12Z</time>
      </trkpt>
      <trkpt lat="45.85926" lon="4.70609">
        <ele>194</ele>
        <time>2016-08-23T08:39:13Z</time>
      </trkpt>
      <trkpt lat="45.85922" lon="4.70602">
        <ele>194</ele>
        <time>2016-08-23T08:39:14Z</time>
      </trkpt>
      <trkpt lat="45.85918" lon="4.70596">
        <ele>195</ele>
        <time>2016-08-23T08:39:15Z</time>
      </trkpt>
      <trkpt lat="45.85915" lon="4.70589">
        <ele>195</ele>
        <time>2016-08-23T08:39:16Z</time>
      </trkpt>
      <trkpt lat="45.85909" lon="4.70584">
        <ele>195</ele>
        <time>2016-08-23T08:39:17Z</time>
      </trkpt>
      <trkpt lat="45.85905" lon="4.7058">
        <ele>195</ele>
        <time>2016-08-23T08:39:18Z</time>
      </trkpt>
      <trkpt lat="45.85899" lon="4.70577">
        <ele>195</ele>
        <time>2016-08-23T08:39:19Z</time>
      </trkpt>
      <trkpt lat="45.85894" lon="4.70576">
        <ele>195</ele>
        <time>2016-08-23T08:39:20Z</time>
      </trkpt>
      <trkpt lat="45.85885" lon="4.70575">
        <ele>195</ele>
        <time>2016-08-23T08:39:22Z</time>
      </trkpt>
      <trkpt lat="45.85882" lon="4.70573">
        <ele>195</ele>
        <time>2016-08-23T08:39:23Z</time>
      </trkpt>
      <trkpt lat="45.85879" lon="4.70571">
        <ele>195</ele>
        <time>2016-08-23T08:39:24Z</time>
      </trkpt>
      <trkpt lat="45.85874" lon="4.70568">
        <ele>195</ele>
        <time>2016-08-23T08:39:25Z</time>
      </trkpt>
      <trkpt lat="45.85868" lon="4.70566">
        <ele>195</ele>
        <time>2016-08-23T08:39:26Z</time>
      </trkpt>
      <trkpt lat="45.85863" lon="4.70564">
        <ele>195</ele>
        <time>2016-08-23T08:39:27Z</time>
      </trkpt>
      <trkpt lat="45.85857" lon="4.70561">
        <ele>195</ele>
        <time>2016-08-23T08:39:28Z</time>
      </trkpt>
      <trkpt lat="45.85849" lon="4.70558">
        <ele>195</ele>
        <time>2016-08-23T08:39:29Z</time>
      </trkpt>
      <trkpt lat="45.85842" lon="4.70554">
        <ele>195</ele>
        <time>2016-08-23T08:39:30Z</time>
      </trkpt>
      <trkpt lat="45.85837" lon="4.70552">
        <ele>195</ele>
        <time>2016-08-23T08:39:31Z</time>
      </trkpt>
      <trkpt lat="45.85831" lon="4.70549">
        <ele>195</ele>
        <time>2016-08-23T08:39:32Z</time>
      </trkpt>
      <trkpt lat="45.85826" lon="4.70547">
        <ele>195</ele>
        <time>2016-08-23T08:39:33Z</time>
      </trkpt>
      <trkpt lat="45.85821" lon="4.70545">
        <ele>195</ele>
        <time>2016-08-23T08:39:34Z</time>
      </trkpt>
      <trkpt lat="45.85817" lon="4.70543">
        <ele>195</ele>
        <time>2016-08-23T08:39:35Z</time>
      </trkpt>
      <trkpt lat="45.85812" lon="4.70541">
        <ele>195</ele>
        <time>2016-08-23T08:39:36Z</time>
      </trkpt>
      <trkpt lat="45.85807" lon="4.70539">
        <ele>195</ele>
        <time>2016-08-23T08:39:37Z</time>
      </trkpt>
      <trkpt lat="45.858" lon="4.70536">
        <ele>195</ele>
        <time>2016-08-23T08:39:38Z</time>
      </trkpt>
      <trkpt lat="45.85794" lon="4.70533">
        <ele>195</ele>
        <time>2016-08-23T08:39:39Z</time>
      </trkpt>
      <trkpt lat="45.85788" lon="4.7053">
        <ele>196</ele>
        <time>2016-08-23T08:39:40Z</time>
      </trkpt>
      <trkpt lat="45.85782" lon="4.70527">
        <ele>196</ele>
        <time>2016-08-23T08:39:41Z</time>
      </trkpt>
      <trkpt lat="45.85776" lon="4.70524">
        <ele>196</ele>
        <time>2016-08-23T08:39:42Z</time>
      </trkpt>
      <trkpt lat="45.8577" lon="4.70521">
        <ele>196</ele>
        <time>2016-08-23T08:39:43Z</time>
      </trkpt>
      <trkpt lat="45.85764" lon="4.70517">
        <ele>196</ele>
        <time>2016-08-23T08:39:44Z</time>
      </trkpt>
      <trkpt lat="45.85759" lon="4.70514">
        <ele>196</ele>
        <time>2016-08-23T08:39:45Z</time>
      </trkpt>
      <trkpt lat="45.85755" lon="4.70512">
        <ele>196</ele>
        <time>2016-08-23T08:39:46Z</time>
      </trkpt>
      <trkpt lat="45.8575" lon="4.70509">
        <ele>196</ele>
        <time>2016-08-23T08:39:47Z</time>
      </trkpt>
      <trkpt lat="45.85745" lon="4.70505">
        <ele>196</ele>
        <time>2016-08-23T08:39:48Z</time>
      </trkpt>
      <trkpt lat="45.85741" lon="4.705">
        <ele>196</ele>
        <time>2016-08-23T08:39:49Z</time>
      </trkpt>
      <trkpt lat="45.85738" lon="4.70495">
        <ele>196</ele>
        <time>2016-08-23T08:39:50Z</time>
      </trkpt>
      <trkpt lat="45.85734" lon="4.70489">
        <ele>196</ele>
        <time>2016-08-23T08:39:51Z</time>
      </trkpt>
      <trkpt lat="45.85731" lon="4.70482">
        <ele>196</ele>
        <time>2016-08-23T08:39:52Z</time>
      </trkpt>
      <trkpt lat="45.85729" lon="4.70474">
        <ele>196</ele>
        <time>2016-08-23T08:39:53Z</time>
      </trkpt>
      <trkpt lat="45.85728" lon="4.70467">
        <ele>196</ele>
        <time>2016-08-23T08:39:54Z</time>
      </trkpt>
      <trkpt lat="45.85726" lon="4.7046">
        <ele>196</ele>
        <time>2016-08-23T08:39:55Z</time>
      </trkpt>
      <trkpt lat="45.85725" lon="4.70452">
        <ele>196</ele>
        <time>2016-08-23T08:39:56Z</time>
      </trkpt>
      <trkpt lat="45.85724" lon="4.70445">
        <ele>196</ele>
        <time>2016-08-23T08:39:57Z</time>
      </trkpt>
      <trkpt lat="45.85724" lon="4.70437">
        <ele>196</ele>
        <time>2016-08-23T08:39:58Z</time>
      </trkpt>
      <trkpt lat="45.85723" lon="4.7043">
        <ele>196</ele>
        <time>2016-08-23T08:39:59Z</time>
      </trkpt>
      <trkpt lat="45.85722" lon="4.70422">
        <ele>196</ele>
        <time>2016-08-23T08:40:00Z</time>
      </trkpt>
      <trkpt lat="45.85721" lon="4.70415">
        <ele>196</ele>
        <time>2016-08-23T08:40:01Z</time>
      </trkpt>
      <trkpt lat="45.8572" lon="4.70407">
        <ele>196</ele>
        <time>2016-08-23T08:40:02Z</time>
      </trkpt>
      <trkpt lat="45.85719" lon="4.70399">
        <ele>196</ele>
        <time>2016-08-23T08:40:03Z</time>
      </trkpt>
      <trkpt lat="45.85718" lon="4.70392">
        <ele>196</ele>
        <time>2016-08-23T08:40:04Z</time>
      </trkpt>
      <trkpt lat="45.85717" lon="4.70385">
        <ele>196</ele>
        <time>2016-08-23T08:40:05Z</time>
      </trkpt>
      <trkpt lat="45.85717" lon="4.70377">
        <ele>196</ele>
        <time>2016-08-23T08:40:06Z</time>
      </trkpt>
      <trkpt lat="45.85716" lon="4.7037">
        <ele>196</ele>
        <time>2016-08-23T08:40:07Z</time>
      </trkpt>
      <trkpt lat="45.85715" lon="4.70362">
        <ele>196</ele>
        <time>2016-08-23T08:40:08Z</time>
      </trkpt>
      <trkpt lat="45.85714" lon="4.70354">
        <ele>196</ele>
        <time>2016-08-23T08:40:09Z</time>
      </trkpt>
      <trkpt lat="45.85713" lon="4.70346">
        <ele>196</ele>
        <time>2016-08-23T08:40:10Z</time>
      </trkpt>
      <trkpt lat="45.85713" lon="4.70338">
        <ele>196</ele>
        <time>2016-08-23T08:40:11Z</time>
      </trkpt>
      <trkpt lat="45.85712" lon="4.7033">
        <ele>197</ele>
        <time>2016-08-23T08:40:12Z</time>
      </trkpt>
      <trkpt lat="45.85711" lon="4.70321">
        <ele>197</ele>
        <time>2016-08-23T08:40:13Z</time>
      </trkpt>
      <trkpt lat="45.8571" lon="4.70313">
        <ele>197</ele>
        <time>2016-08-23T08:40:14Z</time>
      </trkpt>
      <trkpt lat="45.85709" lon="4.70305">
        <ele>197</ele>
        <time>2016-08-23T08:40:15Z</time>
      </trkpt>
      <trkpt lat="45.85708" lon="4.70296">
        <ele>197</ele>
        <time>2016-08-23T08:40:16Z</time>
      </trkpt>
      <trkpt lat="45.85707" lon="4.70288">
        <ele>197</ele>
        <time>2016-08-23T08:40:17Z</time>
      </trkpt>
      <trkpt lat="45.85706" lon="4.7028">
        <ele>197</ele>
        <time>2016-08-23T08:40:18Z</time>
      </trkpt>
      <trkpt lat="45.85704" lon="4.70273">
        <ele>197</ele>
        <time>2016-08-23T08:40:19Z</time>
      </trkpt>
      <trkpt lat="45.85703" lon="4.70265">
        <ele>197</ele>
        <time>2016-08-23T08:40:20Z</time>
      </trkpt>
      <trkpt lat="45.85703" lon="4.70257">
        <ele>197</ele>
        <time>2016-08-23T08:40:21Z</time>
      </trkpt>
      <trkpt lat="45.85702" lon="4.7025">
        <ele>197</ele>
        <time>2016-08-23T08:40:22Z</time>
      </trkpt>
      <trkpt lat="45.85701" lon="4.70243">
        <ele>197</ele>
        <time>2016-08-23T08:40:23Z</time>
      </trkpt>
      <trkpt lat="45.857" lon="4.70236">
        <ele>197</ele>
        <time>2016-08-23T08:40:24Z</time>
      </trkpt>
      <trkpt lat="45.85699" lon="4.70228">
        <ele>197</ele>
        <time>2016-08-23T08:40:25Z</time>
      </trkpt>
      <trkpt lat="45.85699" lon="4.70221">
        <ele>197</ele>
        <time>2016-08-23T08:40:26Z</time>
      </trkpt>
      <trkpt lat="45.85698" lon="4.70214">
        <ele>197</ele>
        <time>2016-08-23T08:40:27Z</time>
      </trkpt>
      <trkpt lat="45.85697" lon="4.70206">
        <ele>197</ele>
        <time>2016-08-23T08:40:28Z</time>
      </trkpt>
      <trkpt lat="45.85697" lon="4.70199">
        <ele>197</ele>
        <time>2016-08-23T08:40:29Z</time>
      </trkpt>
      <trkpt lat="45.85697" lon="4.70193">
        <ele>197</ele>
        <time>2016-08-23T08:40:30Z</time>
      </trkpt>
      <trkpt lat="45.85695" lon="4.70185">
        <ele>197</ele>
        <time>2016-08-23T08:40:31Z</time>
      </trkpt>
      <trkpt lat="45.85694" lon="4.70178">
        <ele>197</ele>
        <time>2016-08-23T08:40:32Z</time>
      </trkpt>
      <trkpt lat="45.85693" lon="4.70171">
        <ele>197</ele>
        <time>2016-08-23T08:40:33Z</time>
      </trkpt>
      <trkpt lat="45.85692" lon="4.70164">
        <ele>197</ele>
        <time>2016-08-23T08:40:34Z</time>
      </trkpt>
      <trkpt lat="45.85691" lon="4.70157">
        <ele>197</ele>
        <time>2016-08-23T08:40:35Z</time>
      </trkpt>
      <trkpt lat="45.85689" lon="4.7015">
        <ele>197</ele>
        <time>2016-08-23T08:40:36Z</time>
      </trkpt>
      <trkpt lat="45.85688" lon="4.70143">
        <ele>197</ele>
        <time>2016-08-23T08:40:37Z</time>
      </trkpt>
      <trkpt lat="45.85687" lon="4.70135">
        <ele>197</ele>
        <time>2016-08-23T08:40:38Z</time>
      </trkpt>
      <trkpt lat="45.85686" lon="4.70128">
        <ele>197</ele>
        <time>2016-08-23T08:40:39Z</time>
      </trkpt>
      <trkpt lat="45.85685" lon="4.7012">
        <ele>197</ele>
        <time>2016-08-23T08:40:40Z</time>
      </trkpt>
      <trkpt lat="45.85685" lon="4.70112">
        <ele>197</ele>
        <time>2016-08-23T08:40:41Z</time>
      </trkpt>
      <trkpt lat="45.85685" lon="4.70104">
        <ele>196</ele>
        <time>2016-08-23T08:40:42Z</time>
      </trkpt>
      <trkpt lat="45.85686" lon="4.70096">
        <ele>196</ele>
        <time>2016-08-23T08:40:43Z</time>
      </trkpt>
      <trkpt lat="45.85686" lon="4.70088">
        <ele>196</ele>
        <time>2016-08-23T08:40:44Z</time>
      </trkpt>
      <trkpt lat="45.85687" lon="4.70081">
        <ele>196</ele>
        <time>2016-08-23T08:40:45Z</time>
      </trkpt>
      <trkpt lat="45.85688" lon="4.70068">
        <ele>196</ele>
        <time>2016-08-23T08:40:47Z</time>
      </trkpt>
      <trkpt lat="45.85689" lon="4.70062">
        <ele>195</ele>
        <time>2016-08-23T08:40:48Z</time>
      </trkpt>
      <trkpt lat="45.85691" lon="4.7005">
        <ele>195</ele>
        <time>2016-08-23T08:40:50Z</time>
      </trkpt>
      <trkpt lat="45.85693" lon="4.70043">
        <ele>195</ele>
        <time>2016-08-23T08:40:51Z</time>
      </trkpt>
      <trkpt lat="45.85693" lon="4.70036">
        <ele>195</ele>
        <time>2016-08-23T08:40:52Z</time>
      </trkpt>
      <trkpt lat="45.85694" lon="4.70029">
        <ele>195</ele>
        <time>2016-08-23T08:40:53Z</time>
      </trkpt>
      <trkpt lat="45.85695" lon="4.70021">
        <ele>195</ele>
        <time>2016-08-23T08:40:54Z</time>
      </trkpt>
      <trkpt lat="45.85695" lon="4.70013">
        <ele>195</ele>
        <time>2016-08-23T08:40:55Z</time>
      </trkpt>
      <trkpt lat="45.85695" lon="4.70005">
        <ele>195</ele>
        <time>2016-08-23T08:40:56Z</time>
      </trkpt>
      <trkpt lat="45.85695" lon="4.69996">
        <ele>195</ele>
        <time>2016-08-23T08:40:57Z</time>
      </trkpt>
      <trkpt lat="45.85694" lon="4.69987">
        <ele>195</ele>
        <time>2016-08-23T08:40:58Z</time>
      </trkpt>
      <trkpt lat="45.85693" lon="4.69979">
        <ele>195</ele>
        <time>2016-08-23T08:40:59Z</time>
      </trkpt>
      <trkpt lat="45.85692" lon="4.69971">
        <ele>195</ele>
        <time>2016-08-23T08:41:00Z</time>
      </trkpt>
      <trkpt lat="45.8569" lon="4.69963">
        <ele>195</ele>
        <time>2016-08-23T08:41:01Z</time>
      </trkpt>
      <trkpt lat="45.85688" lon="4.69956">
        <ele>195</ele>
        <time>2016-08-23T08:41:02Z</time>
      </trkpt>
      <trkpt lat="45.85687" lon="4.6995">
        <ele>195</ele>
        <time>2016-08-23T08:41:03Z</time>
      </trkpt>
      <trkpt lat="45.85695" lon="4.69944">
        <ele>195</ele>
        <time>2016-08-23T08:41:08Z</time>
      </trkpt>
      <trkpt lat="45.85696" lon="4.69945">
        <ele>195</ele>
        <time>2016-08-23T08:41:09Z</time>
      </trkpt>
      <trkpt lat="45.85696" lon="4.69945">
        <ele>195</ele>
        <time>2016-08-23T08:41:10Z</time>
      </trkpt>
      <trkpt lat="45.85695" lon="4.69944">
        <ele>195</ele>
        <time>2016-08-23T08:42:09Z</time>
      </trkpt>
      <trkpt lat="45.85692" lon="4.6994">
        <ele>195</ele>
        <time>2016-08-23T08:42:10Z</time>
      </trkpt>
      <trkpt lat="45.85688" lon="4.69935">
        <ele>195</ele>
        <time>2016-08-23T08:42:11Z</time>
      </trkpt>
      <trkpt lat="45.85685" lon="4.69931">
        <ele>195</ele>
        <time>2016-08-23T08:42:12Z</time>
      </trkpt>
      <trkpt lat="45.85683" lon="4.69922">
        <ele>195</ele>
        <time>2016-08-23T08:42:14Z</time>
      </trkpt>
      <trkpt lat="45.85682" lon="4.69916">
        <ele>195</ele>
        <time>2016-08-23T08:42:15Z</time>
      </trkpt>
      <trkpt lat="45.85679" lon="4.69904">
        <ele>195</ele>
        <time>2016-08-23T08:42:17Z</time>
      </trkpt>
      <trkpt lat="45.85678" lon="4.69897">
        <ele>195</ele>
        <time>2016-08-23T08:42:18Z</time>
      </trkpt>
      <trkpt lat="45.85677" lon="4.6989">
        <ele>195</ele>
        <time>2016-08-23T08:42:19Z</time>
      </trkpt>
      <trkpt lat="45.85675" lon="4.69883">
        <ele>195</ele>
        <time>2016-08-23T08:42:20Z</time>
      </trkpt>
      <trkpt lat="45.85675" lon="4.69876">
        <ele>195</ele>
        <time>2016-08-23T08:42:21Z</time>
      </trkpt>
      <trkpt lat="45.85674" lon="4.69868">
        <ele>195</ele>
        <time>2016-08-23T08:42:22Z</time>
      </trkpt>
      <trkpt lat="45.85673" lon="4.69861">
        <ele>195</ele>
        <time>2016-08-23T08:42:23Z</time>
      </trkpt>
      <trkpt lat="45.85672" lon="4.69853">
        <ele>195</ele>
        <time>2016-08-23T08:42:24Z</time>
      </trkpt>
      <trkpt lat="45.85671" lon="4.69846">
        <ele>195</ele>
        <time>2016-08-23T08:42:25Z</time>
      </trkpt>
      <trkpt lat="45.8567" lon="4.69838">
        <ele>195</ele>
        <time>2016-08-23T08:42:26Z</time>
      </trkpt>
      <trkpt lat="45.85669" lon="4.6983">
        <ele>195</ele>
        <time>2016-08-23T08:42:27Z</time>
      </trkpt>
      <trkpt lat="45.85669" lon="4.69823">
        <ele>195</ele>
        <time>2016-08-23T08:42:28Z</time>
      </trkpt>
      <trkpt lat="45.85667" lon="4.69815">
        <ele>195</ele>
        <time>2016-08-23T08:42:29Z</time>
      </trkpt>
      <trkpt lat="45.85666" lon="4.69808">
        <ele>195</ele>
        <time>2016-08-23T08:42:30Z</time>
      </trkpt>
      <trkpt lat="45.85665" lon="4.69801">
        <ele>195</ele>
        <time>2016-08-23T08:42:31Z</time>
      </trkpt>
      <trkpt lat="45.85664" lon="4.69794">
        <ele>195</ele>
        <time>2016-08-23T08:42:32Z</time>
      </trkpt>
      <trkpt lat="45.85663" lon="4.69787">
        <ele>195</ele>
        <time>2016-08-23T08:42:33Z</time>
      </trkpt>
      <trkpt lat="45.85663" lon="4.6978">
        <ele>195</ele>
        <time>2016-08-23T08:42:34Z</time>
      </trkpt>
      <trkpt lat="45.85662" lon="4.69773">
        <ele>195</ele>
        <time>2016-08-23T08:42:35Z</time>
      </trkpt>
      <trkpt lat="45.85661" lon="4.69765">
        <ele>195</ele>
        <time>2016-08-23T08:42:36Z</time>
      </trkpt>
      <trkpt lat="45.8566" lon="4.69757">
        <ele>194</ele>
        <time>2016-08-23T08:42:37Z</time>
      </trkpt>
      <trkpt lat="45.85659" lon="4.69749">
        <ele>195</ele>
        <time>2016-08-23T08:42:38Z</time>
      </trkpt>
      <trkpt lat="45.85658" lon="4.69741">
        <ele>195</ele>
        <time>2016-08-23T08:42:39Z</time>
      </trkpt>
      <trkpt lat="45.85657" lon="4.69734">
        <ele>195</ele>
        <time>2016-08-23T08:42:40Z</time>
      </trkpt>
      <trkpt lat="45.85656" lon="4.69726">
        <ele>195</ele>
        <time>2016-08-23T08:42:41Z</time>
      </trkpt>
      <trkpt lat="45.85656" lon="4.69719">
        <ele>196</ele>
        <time>2016-08-23T08:42:42Z</time>
      </trkpt>
      <trkpt lat="45.85655" lon="4.69712">
        <ele>196</ele>
        <time>2016-08-23T08:42:43Z</time>
      </trkpt>
      <trkpt lat="45.85655" lon="4.69704">
        <ele>196</ele>
        <time>2016-08-23T08:42:44Z</time>
      </trkpt>
      <trkpt lat="45.85654" lon="4.69696">
        <ele>196</ele>
        <time>2016-08-23T08:42:45Z</time>
      </trkpt>
      <trkpt lat="45.85653" lon="4.69689">
        <ele>196</ele>
        <time>2016-08-23T08:42:46Z</time>
      </trkpt>
      <trkpt lat="45.85652" lon="4.69681">
        <ele>196</ele>
        <time>2016-08-23T08:42:47Z</time>
      </trkpt>
      <trkpt lat="45.85651" lon="4.69673">
        <ele>196</ele>
        <time>2016-08-23T08:42:48Z</time>
      </trkpt>
      <trkpt lat="45.85651" lon="4.69666">
        <ele>196</ele>
        <time>2016-08-23T08:42:49Z</time>
      </trkpt>
      <trkpt lat="45.8565" lon="4.69658">
        <ele>197</ele>
        <time>2016-08-23T08:42:50Z</time>
      </trkpt>
      <trkpt lat="45.85649" lon="4.69651">
        <ele>197</ele>
        <time>2016-08-23T08:42:51Z</time>
      </trkpt>
      <trkpt lat="45.85648" lon="4.69643">
        <ele>197</ele>
        <time>2016-08-23T08:42:52Z</time>
      </trkpt>
      <trkpt lat="45.85647" lon="4.69636">
        <ele>197</ele>
        <time>2016-08-23T08:42:53Z</time>
      </trkpt>
      <trkpt lat="45.85646" lon="4.69628">
        <ele>197</ele>
        <time>2016-08-23T08:42:54Z</time>
      </trkpt>
      <trkpt lat="45.85646" lon="4.69619">
        <ele>197</ele>
        <time>2016-08-23T08:42:55Z</time>
      </trkpt>
      <trkpt lat="45.85645" lon="4.69611">
        <ele>197</ele>
        <time>2016-08-23T08:42:56Z</time>
      </trkpt>
      <trkpt lat="45.85644" lon="4.69603">
        <ele>197</ele>
        <time>2016-08-23T08:42:57Z</time>
      </trkpt>
      <trkpt lat="45.85643" lon="4.69595">
        <ele>197</ele>
        <time>2016-08-23T08:42:58Z</time>
      </trkpt>
      <trkpt lat="45.85643" lon="4.69587">
        <ele>197</ele>
        <time>2016-08-23T08:42:59Z</time>
      </trkpt>
      <trkpt lat="45.85642" lon="4.69579">
        <ele>198</ele>
        <time>2016-08-23T08:43:00Z</time>
      </trkpt>
      <trkpt lat="45.85642" lon="4.69571">
        <ele>198</ele>
        <time>2016-08-23T08:43:01Z</time>
      </trkpt>
      <trkpt lat="45.85641" lon="4.69563">
        <ele>198</ele>
        <time>2016-08-23T08:43:02Z</time>
      </trkpt>
      <trkpt lat="45.85641" lon="4.69556">
        <ele>198</ele>
        <time>2016-08-23T08:43:03Z</time>
      </trkpt>
      <trkpt lat="45.8564" lon="4.69549">
        <ele>198</ele>
        <time>2016-08-23T08:43:04Z</time>
      </trkpt>
      <trkpt lat="45.8564" lon="4.69542">
        <ele>198</ele>
        <time>2016-08-23T08:43:05Z</time>
      </trkpt>
      <trkpt lat="45.85639" lon="4.69534">
        <ele>198</ele>
        <time>2016-08-23T08:43:06Z</time>
      </trkpt>
      <trkpt lat="45.85638" lon="4.69527">
        <ele>198</ele>
        <time>2016-08-23T08:43:07Z</time>
      </trkpt>
      <trkpt lat="45.85637" lon="4.69519">
        <ele>198</ele>
        <time>2016-08-23T08:43:08Z</time>
      </trkpt>
      <trkpt lat="45.85636" lon="4.69512">
        <ele>198</ele>
        <time>2016-08-23T08:43:09Z</time>
      </trkpt>
      <trkpt lat="45.85636" lon="4.69505">
        <ele>198</ele>
        <time>2016-08-23T08:43:10Z</time>
      </trkpt>
      <trkpt lat="45.85635" lon="4.69497">
        <ele>198</ele>
        <time>2016-08-23T08:43:11Z</time>
      </trkpt>
      <trkpt lat="45.85635" lon="4.6949">
        <ele>198</ele>
        <time>2016-08-23T08:43:12Z</time>
      </trkpt>
      <trkpt lat="45.85634" lon="4.69482">
        <ele>198</ele>
        <time>2016-08-23T08:43:13Z</time>
      </trkpt>
      <trkpt lat="45.85634" lon="4.69474">
        <ele>198</ele>
        <time>2016-08-23T08:43:14Z</time>
      </trkpt>
      <trkpt lat="45.85634" lon="4.69466">
        <ele>198</ele>
        <time>2016-08-23T08:43:15Z</time>
      </trkpt>
      <trkpt lat="45.85634" lon="4.69459">
        <ele>198</ele>
        <time>2016-08-23T08:43:16Z</time>
      </trkpt>
      <trkpt lat="45.85633" lon="4.69451">
        <ele>198</ele>
        <time>2016-08-23T08:43:17Z</time>
      </trkpt>
      <trkpt lat="45.85632" lon="4.69443">
        <ele>198</ele>
        <time>2016-08-23T08:43:18Z</time>
      </trkpt>
      <trkpt lat="45.85631" lon="4.69435">
        <ele>198</ele>
        <time>2016-08-23T08:43:19Z</time>
      </trkpt>
      <trkpt lat="45.8563" lon="4.69426">
        <ele>198</ele>
        <time>2016-08-23T08:43:20Z</time>
      </trkpt>
      <trkpt lat="45.85629" lon="4.69418">
        <ele>198</ele>
        <time>2016-08-23T08:43:21Z</time>
      </trkpt>
      <trkpt lat="45.85628" lon="4.6941">
        <ele>198</ele>
        <time>2016-08-23T08:43:22Z</time>
      </trkpt>
      <trkpt lat="45.85627" lon="4.69402">
        <ele>198</ele>
        <time>2016-08-23T08:43:23Z</time>
      </trkpt>
      <trkpt lat="45.85626" lon="4.69395">
        <ele>198</ele>
        <time>2016-08-23T08:43:24Z</time>
      </trkpt>
      <trkpt lat="45.85625" lon="4.69387">
        <ele>198</ele>
        <time>2016-08-23T08:43:25Z</time>
      </trkpt>
      <trkpt lat="45.85625" lon="4.69379">
        <ele>198</ele>
        <time>2016-08-23T08:43:26Z</time>
      </trkpt>
      <trkpt lat="45.85624" lon="4.69371">
        <ele>198</ele>
        <time>2016-08-23T08:43:27Z</time>
      </trkpt>
      <trkpt lat="45.85623" lon="4.69364">
        <ele>198</ele>
        <time>2016-08-23T08:43:28Z</time>
      </trkpt>
      <trkpt lat="45.85622" lon="4.69356">
        <ele>198</ele>
        <time>2016-08-23T08:43:29Z</time>
      </trkpt>
      <trkpt lat="45.85621" lon="4.69348">
        <ele>198</ele>
        <time>2016-08-23T08:43:30Z</time>
      </trkpt>
      <trkpt lat="45.85621" lon="4.69339">
        <ele>198</ele>
        <time>2016-08-23T08:43:31Z</time>
      </trkpt>
      <trkpt lat="45.8562" lon="4.69331">
        <ele>198</ele>
        <time>2016-08-23T08:43:32Z</time>
      </trkpt>
      <trkpt lat="45.85618" lon="4.69323">
        <ele>198</ele>
        <time>2016-08-23T08:43:33Z</time>
      </trkpt>
      <trkpt lat="45.85617" lon="4.69315">
        <ele>198</ele>
        <time>2016-08-23T08:43:34Z</time>
      </trkpt>
      <trkpt lat="45.85616" lon="4.69307">
        <ele>198</ele>
        <time>2016-08-23T08:43:35Z</time>
      </trkpt>
      <trkpt lat="45.85616" lon="4.69299">
        <ele>198</ele>
        <time>2016-08-23T08:43:36Z</time>
      </trkpt>
      <trkpt lat="45.85616" lon="4.69291">
        <ele>198</ele>
        <time>2016-08-23T08:43:37Z</time>
      </trkpt>
      <trkpt lat="45.85616" lon="4.69284">
        <ele>198</ele>
        <time>2016-08-23T08:43:38Z</time>
      </trkpt>
      <trkpt lat="45.85617" lon="4.69277">
        <ele>198</ele>
        <time>2016-08-23T08:43:39Z</time>
      </trkpt>
      <trkpt lat="45.85618" lon="4.69269">
        <ele>198</ele>
        <time>2016-08-23T08:43:40Z</time>
      </trkpt>
      <trkpt lat="45.85617" lon="4.69262">
        <ele>198</ele>
        <time>2016-08-23T08:43:41Z</time>
      </trkpt>
      <trkpt lat="45.85615" lon="4.69256">
        <ele>198</ele>
        <time>2016-08-23T08:43:42Z</time>
      </trkpt>
      <trkpt lat="45.85613" lon="4.69249">
        <ele>199</ele>
        <time>2016-08-23T08:43:43Z</time>
      </trkpt>
      <trkpt lat="45.8561" lon="4.69241">
        <ele>199</ele>
        <time>2016-08-23T08:43:44Z</time>
      </trkpt>
      <trkpt lat="45.85608" lon="4.69234">
        <ele>199</ele>
        <time>2016-08-23T08:43:45Z</time>
      </trkpt>
      <trkpt lat="45.85607" lon="4.69226">
        <ele>199</ele>
        <time>2016-08-23T08:43:46Z</time>
      </trkpt>
      <trkpt lat="45.85607" lon="4.69218">
        <ele>199</ele>
        <time>2016-08-23T08:43:47Z</time>
      </trkpt>
      <trkpt lat="45.85606" lon="4.6921">
        <ele>199</ele>
        <time>2016-08-23T08:43:48Z</time>
      </trkpt>
      <trkpt lat="45.85606" lon="4.69202">
        <ele>199</ele>
        <time>2016-08-23T08:43:49Z</time>
      </trkpt>
      <trkpt lat="45.85605" lon="4.69194">
        <ele>199</ele>
        <time>2016-08-23T08:43:50Z</time>
      </trkpt>
      <trkpt lat="45.85605" lon="4.69186">
        <ele>199</ele>
        <time>2016-08-23T08:43:51Z</time>
      </trkpt>
      <trkpt lat="45.85604" lon="4.69178">
        <ele>199</ele>
        <time>2016-08-23T08:43:52Z</time>
      </trkpt>
      <trkpt lat="45.85603" lon="4.6917">
        <ele>199</ele>
        <time>2016-08-23T08:43:53Z</time>
      </trkpt>
      <trkpt lat="45.85603" lon="4.69162">
        <ele>199</ele>
        <time>2016-08-23T08:43:54Z</time>
      </trkpt>
      <trkpt lat="45.85602" lon="4.69154">
        <ele>199</ele>
        <time>2016-08-23T08:43:55Z</time>
      </trkpt>
      <trkpt lat="45.85602" lon="4.69146">
        <ele>199</ele>
        <time>2016-08-23T08:43:56Z</time>
      </trkpt>
      <trkpt lat="45.85601" lon="4.69138">
        <ele>198</ele>
        <time>2016-08-23T08:43:57Z</time>
      </trkpt>
      <trkpt lat="45.856" lon="4.6913">
        <ele>198</ele>
        <time>2016-08-23T08:43:58Z</time>
      </trkpt>
      <trkpt lat="45.856" lon="4.69123">
        <ele>198</ele>
        <time>2016-08-23T08:43:59Z</time>
      </trkpt>
      <trkpt lat="45.85599" lon="4.69115">
        <ele>198</ele>
        <time>2016-08-23T08:44:00Z</time>
      </trkpt>
      <trkpt lat="45.85598" lon="4.69107">
        <ele>198</ele>
        <time>2016-08-23T08:44:01Z</time>
      </trkpt>
      <trkpt lat="45.85597" lon="4.691">
        <ele>199</ele>
        <time>2016-08-23T08:44:02Z</time>
      </trkpt>
      <trkpt lat="45.85597" lon="4.69092">
        <ele>199</ele>
        <time>2016-08-23T08:44:03Z</time>
      </trkpt>
      <trkpt lat="45.85596" lon="4.69084">
        <ele>199</ele>
        <time>2016-08-23T08:44:04Z</time>
      </trkpt>
      <trkpt lat="45.85595" lon="4.69076">
        <ele>199</ele>
        <time>2016-08-23T08:44:05Z</time>
      </trkpt>
      <trkpt lat="45.85594" lon="4.69068">
        <ele>199</ele>
        <time>2016-08-23T08:44:06Z</time>
      </trkpt>
      <trkpt lat="45.85593" lon="4.6906">
        <ele>199</ele>
        <time>2016-08-23T08:44:07Z</time>
      </trkpt>
      <trkpt lat="45.85592" lon="4.69052">
        <ele>199</ele>
        <time>2016-08-23T08:44:08Z</time>
      </trkpt>
      <trkpt lat="45.85591" lon="4.69043">
        <ele>199</ele>
        <time>2016-08-23T08:44:09Z</time>
      </trkpt>
      <trkpt lat="45.85591" lon="4.69035">
        <ele>199</ele>
        <time>2016-08-23T08:44:10Z</time>
      </trkpt>
      <trkpt lat="45.8559" lon="4.69027">
        <ele>199</ele>
        <time>2016-08-23T08:44:11Z</time>
      </trkpt>
      <trkpt lat="45.85589" lon="4.6902">
        <ele>199</ele>
        <time>2016-08-23T08:44:12Z</time>
      </trkpt>
      <trkpt lat="45.85588" lon="4.69012">
        <ele>200</ele>
        <time>2016-08-23T08:44:13Z</time>
      </trkpt>
      <trkpt lat="45.85587" lon="4.69005">
        <ele>200</ele>
        <time>2016-08-23T08:44:14Z</time>
      </trkpt>
      <trkpt lat="45.85587" lon="4.68996">
        <ele>200</ele>
        <time>2016-08-23T08:44:15Z</time>
      </trkpt>
      <trkpt lat="45.85587" lon="4.68988">
        <ele>200</ele>
        <time>2016-08-23T08:44:16Z</time>
      </trkpt>
      <trkpt lat="45.85586" lon="4.6898">
        <ele>200</ele>
        <time>2016-08-23T08:44:17Z</time>
      </trkpt>
      <trkpt lat="45.85586" lon="4.68971">
        <ele>200</ele>
        <time>2016-08-23T08:44:18Z</time>
      </trkpt>
      <trkpt lat="45.85585" lon="4.68963">
        <ele>200</ele>
        <time>2016-08-23T08:44:19Z</time>
      </trkpt>
      <trkpt lat="45.85584" lon="4.68954">
        <ele>200</ele>
        <time>2016-08-23T08:44:20Z</time>
      </trkpt>
      <trkpt lat="45.85583" lon="4.68945">
        <ele>200</ele>
        <time>2016-08-23T08:44:21Z</time>
      </trkpt>
      <trkpt lat="45.85582" lon="4.68937">
        <ele>200</ele>
        <time>2016-08-23T08:44:22Z</time>
      </trkpt>
      <trkpt lat="45.85582" lon="4.68928">
        <ele>200</ele>
        <time>2016-08-23T08:44:23Z</time>
      </trkpt>
      <trkpt lat="45.85581" lon="4.6892">
        <ele>200</ele>
        <time>2016-08-23T08:44:24Z</time>
      </trkpt>
      <trkpt lat="45.85581" lon="4.68912">
        <ele>200</ele>
        <time>2016-08-23T08:44:25Z</time>
      </trkpt>
      <trkpt lat="45.8558" lon="4.68905">
        <ele>200</ele>
        <time>2016-08-23T08:44:26Z</time>
      </trkpt>
      <trkpt lat="45.85579" lon="4.68897">
        <ele>200</ele>
        <time>2016-08-23T08:44:27Z</time>
      </trkpt>
      <trkpt lat="45.85579" lon="4.68889">
        <ele>200</ele>
        <time>2016-08-23T08:44:28Z</time>
      </trkpt>
      <trkpt lat="45.85578" lon="4.68881">
        <ele>200</ele>
        <time>2016-08-23T08:44:29Z</time>
      </trkpt>
      <trkpt lat="45.85577" lon="4.68872">
        <ele>200</ele>
        <time>2016-08-23T08:44:30Z</time>
      </trkpt>
      <trkpt lat="45.85576" lon="4.68864">
        <ele>200</ele>
        <time>2016-08-23T08:44:31Z</time>
      </trkpt>
      <trkpt lat="45.85576" lon="4.68855">
        <ele>200</ele>
        <time>2016-08-23T08:44:32Z</time>
      </trkpt>
      <trkpt lat="45.85576" lon="4.68846">
        <ele>200</ele>
        <time>2016-08-23T08:44:33Z</time>
      </trkpt>
      <trkpt lat="45.85575" lon="4.68837">
        <ele>200</ele>
        <time>2016-08-23T08:44:34Z</time>
      </trkpt>
      <trkpt lat="45.85575" lon="4.68828">
        <ele>200</ele>
        <time>2016-08-23T08:44:35Z</time>
      </trkpt>
      <trkpt lat="45.85574" lon="4.6882">
        <ele>200</ele>
        <time>2016-08-23T08:44:36Z</time>
      </trkpt>
      <trkpt lat="45.85573" lon="4.68811">
        <ele>200</ele>
        <time>2016-08-23T08:44:37Z</time>
      </trkpt>
      <trkpt lat="45.85572" lon="4.68801">
        <ele>200</ele>
        <time>2016-08-23T08:44:38Z</time>
      </trkpt>
      <trkpt lat="45.85571" lon="4.68792">
        <ele>200</ele>
        <time>2016-08-23T08:44:39Z</time>
      </trkpt>
      <trkpt lat="45.8557" lon="4.68783">
        <ele>200</ele>
        <time>2016-08-23T08:44:40Z</time>
      </trkpt>
      <trkpt lat="45.85569" lon="4.68774">
        <ele>200</ele>
        <time>2016-08-23T08:44:41Z</time>
      </trkpt>
      <trkpt lat="45.85567" lon="4.68764">
        <ele>200</ele>
        <time>2016-08-23T08:44:42Z</time>
      </trkpt>
      <trkpt lat="45.85566" lon="4.68756">
        <ele>200</ele>
        <time>2016-08-23T08:44:43Z</time>
      </trkpt>
      <trkpt lat="45.85566" lon="4.68747">
        <ele>200</ele>
        <time>2016-08-23T08:44:44Z</time>
      </trkpt>
      <trkpt lat="45.85565" lon="4.68739">
        <ele>200</ele>
        <time>2016-08-23T08:44:45Z</time>
      </trkpt>
      <trkpt lat="45.85564" lon="4.68731">
        <ele>200</ele>
        <time>2016-08-23T08:44:46Z</time>
      </trkpt>
      <trkpt lat="45.85563" lon="4.68723">
        <ele>200</ele>
        <time>2016-08-23T08:44:47Z</time>
      </trkpt>
      <trkpt lat="45.85562" lon="4.68715">
        <ele>200</ele>
        <time>2016-08-23T08:44:48Z</time>
      </trkpt>
      <trkpt lat="45.85561" lon="4.68706">
        <ele>200</ele>
        <time>2016-08-23T08:44:49Z</time>
      </trkpt>
      <trkpt lat="45.8556" lon="4.68698">
        <ele>200</ele>
        <time>2016-08-23T08:44:50Z</time>
      </trkpt>
      <trkpt lat="45.85559" lon="4.68689">
        <ele>200</ele>
        <time>2016-08-23T08:44:51Z</time>
      </trkpt>
      <trkpt lat="45.85558" lon="4.6868">
        <ele>200</ele>
        <time>2016-08-23T08:44:52Z</time>
      </trkpt>
      <trkpt lat="45.85557" lon="4.68671">
        <ele>200</ele>
        <time>2016-08-23T08:44:53Z</time>
      </trkpt>
      <trkpt lat="45.85556" lon="4.68662">
        <ele>200</ele>
        <time>2016-08-23T08:44:54Z</time>
      </trkpt>
      <trkpt lat="45.85555" lon="4.68653">
        <ele>201</ele>
        <time>2016-08-23T08:44:55Z</time>
      </trkpt>
      <trkpt lat="45.85554" lon="4.68645">
        <ele>201</ele>
        <time>2016-08-23T08:44:56Z</time>
      </trkpt>
      <trkpt lat="45.85553" lon="4.68637">
        <ele>201</ele>
        <time>2016-08-23T08:44:57Z</time>
      </trkpt>
      <trkpt lat="45.85552" lon="4.68629">
        <ele>201</ele>
        <time>2016-08-23T08:44:58Z</time>
      </trkpt>
      <trkpt lat="45.85551" lon="4.68621">
        <ele>201</ele>
        <time>2016-08-23T08:44:59Z</time>
      </trkpt>
      <trkpt lat="45.8555" lon="4.68614">
        <ele>201</ele>
        <time>2016-08-23T08:45:00Z</time>
      </trkpt>
      <trkpt lat="45.8555" lon="4.68606">
        <ele>201</ele>
        <time>2016-08-23T08:45:01Z</time>
      </trkpt>
      <trkpt lat="45.8555" lon="4.68598">
        <ele>201</ele>
        <time>2016-08-23T08:45:02Z</time>
      </trkpt>
      <trkpt lat="45.85549" lon="4.6859">
        <ele>201</ele>
        <time>2016-08-23T08:45:03Z</time>
      </trkpt>
      <trkpt lat="45.85548" lon="4.68581">
        <ele>201</ele>
        <time>2016-08-23T08:45:04Z</time>
      </trkpt>
      <trkpt lat="45.85548" lon="4.68572">
        <ele>201</ele>
        <time>2016-08-23T08:45:05Z</time>
      </trkpt>
      <trkpt lat="45.85547" lon="4.68564">
        <ele>201</ele>
        <time>2016-08-23T08:45:06Z</time>
      </trkpt>
      <trkpt lat="45.85546" lon="4.68556">
        <ele>201</ele>
        <time>2016-08-23T08:45:07Z</time>
      </trkpt>
      <trkpt lat="45.85546" lon="4.68548">
        <ele>201</ele>
        <time>2016-08-23T08:45:08Z</time>
      </trkpt>
      <trkpt lat="45.85546" lon="4.68539">
        <ele>201</ele>
        <time>2016-08-23T08:45:09Z</time>
      </trkpt>
      <trkpt lat="45.85545" lon="4.6853">
        <ele>201</ele>
        <time>2016-08-23T08:45:10Z</time>
      </trkpt>
      <trkpt lat="45.85544" lon="4.68522">
        <ele>201</ele>
        <time>2016-08-23T08:45:11Z</time>
      </trkpt>
      <trkpt lat="45.85544" lon="4.68515">
        <ele>201</ele>
        <time>2016-08-23T08:45:12Z</time>
      </trkpt>
      <trkpt lat="45.85543" lon="4.68508">
        <ele>201</ele>
        <time>2016-08-23T08:45:13Z</time>
      </trkpt>
      <trkpt lat="45.85542" lon="4.685">
        <ele>201</ele>
        <time>2016-08-23T08:45:14Z</time>
      </trkpt>
      <trkpt lat="45.85541" lon="4.68493">
        <ele>200</ele>
        <time>2016-08-23T08:45:15Z</time>
      </trkpt>
      <trkpt lat="45.8554" lon="4.68486">
        <ele>200</ele>
        <time>2016-08-23T08:45:16Z</time>
      </trkpt>
      <trkpt lat="45.8554" lon="4.68479">
        <ele>200</ele>
        <time>2016-08-23T08:45:17Z</time>
      </trkpt>
      <trkpt lat="45.85539" lon="4.6847">
        <ele>200</ele>
        <time>2016-08-23T08:45:18Z</time>
      </trkpt>
      <trkpt lat="45.85535" lon="4.68458">
        <ele>200</ele>
        <time>2016-08-23T08:45:19Z</time>
      </trkpt>
      <trkpt lat="45.85533" lon="4.68449">
        <ele>200</ele>
        <time>2016-08-23T08:45:20Z</time>
      </trkpt>
      <trkpt lat="45.85532" lon="4.6844">
        <ele>200</ele>
        <time>2016-08-23T08:45:21Z</time>
      </trkpt>
      <trkpt lat="45.85531" lon="4.6843">
        <ele>200</ele>
        <time>2016-08-23T08:45:22Z</time>
      </trkpt>
      <trkpt lat="45.85531" lon="4.68421">
        <ele>200</ele>
        <time>2016-08-23T08:45:23Z</time>
      </trkpt>
      <trkpt lat="45.8553" lon="4.68413">
        <ele>200</ele>
        <time>2016-08-23T08:45:24Z</time>
      </trkpt>
      <trkpt lat="45.8553" lon="4.68405">
        <ele>200</ele>
        <time>2016-08-23T08:45:25Z</time>
      </trkpt>
      <trkpt lat="45.8553" lon="4.68397">
        <ele>200</ele>
        <time>2016-08-23T08:45:26Z</time>
      </trkpt>
      <trkpt lat="45.85528" lon="4.68388">
        <ele>200</ele>
        <time>2016-08-23T08:45:27Z</time>
      </trkpt>
      <trkpt lat="45.85527" lon="4.6838">
        <ele>201</ele>
        <time>2016-08-23T08:45:28Z</time>
      </trkpt>
      <trkpt lat="45.85527" lon="4.68372">
        <ele>201</ele>
        <time>2016-08-23T08:45:29Z</time>
      </trkpt>
      <trkpt lat="45.85526" lon="4.68363">
        <ele>201</ele>
        <time>2016-08-23T08:45:30Z</time>
      </trkpt>
      <trkpt lat="45.85525" lon="4.68354">
        <ele>201</ele>
        <time>2016-08-23T08:45:31Z</time>
      </trkpt>
      <trkpt lat="45.85524" lon="4.68346">
        <ele>201</ele>
        <time>2016-08-23T08:45:32Z</time>
      </trkpt>
      <trkpt lat="45.85524" lon="4.68337">
        <ele>201</ele>
        <time>2016-08-23T08:45:33Z</time>
      </trkpt>
      <trkpt lat="45.85523" lon="4.68328">
        <ele>202</ele>
        <time>2016-08-23T08:45:34Z</time>
      </trkpt>
      <trkpt lat="45.85522" lon="4.6832">
        <ele>202</ele>
        <time>2016-08-23T08:45:35Z</time>
      </trkpt>
      <trkpt lat="45.85521" lon="4.68311">
        <ele>202</ele>
        <time>2016-08-23T08:45:36Z</time>
      </trkpt>
      <trkpt lat="45.8552" lon="4.68303">
        <ele>202</ele>
        <time>2016-08-23T08:45:37Z</time>
      </trkpt>
      <trkpt lat="45.85519" lon="4.68296">
        <ele>202</ele>
        <time>2016-08-23T08:45:38Z</time>
      </trkpt>
      <trkpt lat="45.85518" lon="4.68289">
        <ele>202</ele>
        <time>2016-08-23T08:45:39Z</time>
      </trkpt>
      <trkpt lat="45.85517" lon="4.68281">
        <ele>202</ele>
        <time>2016-08-23T08:45:40Z</time>
      </trkpt>
      <trkpt lat="45.85515" lon="4.68274">
        <ele>202</ele>
        <time>2016-08-23T08:45:41Z</time>
      </trkpt>
      <trkpt lat="45.85514" lon="4.68266">
        <ele>202</ele>
        <time>2016-08-23T08:45:42Z</time>
      </trkpt>
      <trkpt lat="45.85513" lon="4.68258">
        <ele>203</ele>
        <time>2016-08-23T08:45:43Z</time>
      </trkpt>
      <trkpt lat="45.85513" lon="4.6825">
        <ele>203</ele>
        <time>2016-08-23T08:45:44Z</time>
      </trkpt>
      <trkpt lat="45.85513" lon="4.68243">
        <ele>203</ele>
        <time>2016-08-23T08:45:45Z</time>
      </trkpt>
      <trkpt lat="45.85512" lon="4.68235">
        <ele>203</ele>
        <time>2016-08-23T08:45:46Z</time>
      </trkpt>
      <trkpt lat="45.85513" lon="4.68228">
        <ele>203</ele>
        <time>2016-08-23T08:45:47Z</time>
      </trkpt>
      <trkpt lat="45.85514" lon="4.68222">
        <ele>203</ele>
        <time>2016-08-23T08:45:48Z</time>
      </trkpt>
      <trkpt lat="45.85515" lon="4.68215">
        <ele>203</ele>
        <time>2016-08-23T08:45:49Z</time>
      </trkpt>
      <trkpt lat="45.85515" lon="4.68208">
        <ele>203</ele>
        <time>2016-08-23T08:45:50Z</time>
      </trkpt>
      <trkpt lat="45.85514" lon="4.68202">
        <ele>203</ele>
        <time>2016-08-23T08:45:51Z</time>
      </trkpt>
      <trkpt lat="45.85514" lon="4.68194">
        <ele>203</ele>
        <time>2016-08-23T08:45:52Z</time>
      </trkpt>
      <trkpt lat="45.85514" lon="4.68186">
        <ele>203</ele>
        <time>2016-08-23T08:45:53Z</time>
      </trkpt>
      <trkpt lat="45.85513" lon="4.68178">
        <ele>204</ele>
        <time>2016-08-23T08:45:54Z</time>
      </trkpt>
      <trkpt lat="45.85513" lon="4.6817">
        <ele>204</ele>
        <time>2016-08-23T08:45:55Z</time>
      </trkpt>
      <trkpt lat="45.85512" lon="4.68162">
        <ele>203</ele>
        <time>2016-08-23T08:45:56Z</time>
      </trkpt>
      <trkpt lat="45.8551" lon="4.68154">
        <ele>203</ele>
        <time>2016-08-23T08:45:57Z</time>
      </trkpt>
      <trkpt lat="45.85511" lon="4.68146">
        <ele>203</ele>
        <time>2016-08-23T08:45:58Z</time>
      </trkpt>
      <trkpt lat="45.85511" lon="4.68138">
        <ele>203</ele>
        <time>2016-08-23T08:45:59Z</time>
      </trkpt>
      <trkpt lat="45.8551" lon="4.68131">
        <ele>203</ele>
        <time>2016-08-23T08:46:00Z</time>
      </trkpt>
      <trkpt lat="45.85509" lon="4.68122">
        <ele>203</ele>
        <time>2016-08-23T08:46:01Z</time>
      </trkpt>
      <trkpt lat="45.85507" lon="4.68115">
        <ele>203</ele>
        <time>2016-08-23T08:46:02Z</time>
      </trkpt>
      <trkpt lat="45.85507" lon="4.68107">
        <ele>203</ele>
        <time>2016-08-23T08:46:03Z</time>
      </trkpt>
      <trkpt lat="45.85506" lon="4.681">
        <ele>203</ele>
        <time>2016-08-23T08:46:04Z</time>
      </trkpt>
      <trkpt lat="45.85505" lon="4.68094">
        <ele>203</ele>
        <time>2016-08-23T08:46:05Z</time>
      </trkpt>
      <trkpt lat="45.85504" lon="4.68087">
        <ele>204</ele>
        <time>2016-08-23T08:46:06Z</time>
      </trkpt>
      <trkpt lat="45.85503" lon="4.68081">
        <ele>204</ele>
        <time>2016-08-23T08:46:07Z</time>
      </trkpt>
      <trkpt lat="45.85503" lon="4.68074">
        <ele>204</ele>
        <time>2016-08-23T08:46:08Z</time>
      </trkpt>
      <trkpt lat="45.85502" lon="4.68067">
        <ele>203</ele>
        <time>2016-08-23T08:46:09Z</time>
      </trkpt>
      <trkpt lat="45.85501" lon="4.6806">
        <ele>203</ele>
        <time>2016-08-23T08:46:10Z</time>
      </trkpt>
      <trkpt lat="45.85501" lon="4.68054">
        <ele>203</ele>
        <time>2016-08-23T08:46:11Z</time>
      </trkpt>
      <trkpt lat="45.855" lon="4.68047">
        <ele>206</ele>
        <time>2016-08-23T08:46:12Z</time>
      </trkpt>
      <trkpt lat="45.85498" lon="4.6804">
        <ele>206</ele>
        <time>2016-08-23T08:46:13Z</time>
      </trkpt>
      <trkpt lat="45.85497" lon="4.68034">
        <ele>207</ele>
        <time>2016-08-23T08:46:14Z</time>
      </trkpt>
      <trkpt lat="45.85496" lon="4.68023">
        <ele>207</ele>
        <time>2016-08-23T08:46:16Z</time>
      </trkpt>
      <trkpt lat="45.85497" lon="4.68017">
        <ele>207</ele>
        <time>2016-08-23T08:46:17Z</time>
      </trkpt>
      <trkpt lat="45.85499" lon="4.68006">
        <ele>206</ele>
        <time>2016-08-23T08:46:19Z</time>
      </trkpt>
      <trkpt lat="45.85501" lon="4.68001">
        <ele>206</ele>
        <time>2016-08-23T08:46:20Z</time>
      </trkpt>
      <trkpt lat="45.85505" lon="4.67991">
        <ele>206</ele>
        <time>2016-08-23T08:46:22Z</time>
      </trkpt>
      <trkpt lat="45.85507" lon="4.67987">
        <ele>206</ele>
        <time>2016-08-23T08:46:23Z</time>
      </trkpt>
      <trkpt lat="45.85513" lon="4.67979">
        <ele>206</ele>
        <time>2016-08-23T08:46:25Z</time>
      </trkpt>
      <trkpt lat="45.85517" lon="4.67976">
        <ele>206</ele>
        <time>2016-08-23T08:46:26Z</time>
      </trkpt>
      <trkpt lat="45.85522" lon="4.67974">
        <ele>206</ele>
        <time>2016-08-23T08:46:27Z</time>
      </trkpt>
      <trkpt lat="45.85527" lon="4.67971">
        <ele>205</ele>
        <time>2016-08-23T08:46:28Z</time>
      </trkpt>
      <trkpt lat="45.85532" lon="4.67968">
        <ele>205</ele>
        <time>2016-08-23T08:46:29Z</time>
      </trkpt>
      <trkpt lat="45.85537" lon="4.67965">
        <ele>205</ele>
        <time>2016-08-23T08:46:30Z</time>
      </trkpt>
      <trkpt lat="45.85542" lon="4.67961">
        <ele>205</ele>
        <time>2016-08-23T08:46:31Z</time>
      </trkpt>
      <trkpt lat="45.85546" lon="4.67957">
        <ele>205</ele>
        <time>2016-08-23T08:46:32Z</time>
      </trkpt>
      <trkpt lat="45.85551" lon="4.67953">
        <ele>205</ele>
        <time>2016-08-23T08:46:33Z</time>
      </trkpt>
      <trkpt lat="45.85555" lon="4.67948">
        <ele>205</ele>
        <time>2016-08-23T08:46:34Z</time>
      </trkpt>
      <trkpt lat="45.85559" lon="4.67944">
        <ele>205</ele>
        <time>2016-08-23T08:46:35Z</time>
      </trkpt>
      <trkpt lat="45.85563" lon="4.67941">
        <ele>205</ele>
        <time>2016-08-23T08:46:36Z</time>
      </trkpt>
      <trkpt lat="45.85567" lon="4.67939">
        <ele>205</ele>
        <time>2016-08-23T08:46:38Z</time>
      </trkpt>
      <trkpt lat="45.85568" lon="4.67939">
        <ele>205</ele>
        <time>2016-08-23T08:46:39Z</time>
      </trkpt>
      <trkpt lat="45.85568" lon="4.67939">
        <ele>205</ele>
        <time>2016-08-23T08:46:40Z</time>
      </trkpt>
      <trkpt lat="45.8557" lon="4.67938">
        <ele>205</ele>
        <time>2016-08-23T08:46:41Z</time>
      </trkpt>
      <trkpt lat="45.85575" lon="4.67934">
        <ele>205</ele>
        <time>2016-08-23T08:46:43Z</time>
      </trkpt>
      <trkpt lat="45.85577" lon="4.67929">
        <ele>205</ele>
        <time>2016-08-23T08:46:44Z</time>
      </trkpt>
      <trkpt lat="45.85577" lon="4.67923">
        <ele>204</ele>
        <time>2016-08-23T08:46:45Z</time>
      </trkpt>
      <trkpt lat="45.85577" lon="4.67916">
        <ele>205</ele>
        <time>2016-08-23T08:46:46Z</time>
      </trkpt>
      <trkpt lat="45.85576" lon="4.67908">
        <ele>205</ele>
        <time>2016-08-23T08:46:47Z</time>
      </trkpt>
      <trkpt lat="45.85576" lon="4.679">
        <ele>206</ele>
        <time>2016-08-23T08:46:48Z</time>
      </trkpt>
      <trkpt lat="45.85575" lon="4.67891">
        <ele>206</ele>
        <time>2016-08-23T08:46:49Z</time>
      </trkpt>
      <trkpt lat="45.85575" lon="4.6788">
        <ele>206</ele>
        <time>2016-08-23T08:46:50Z</time>
      </trkpt>
      <trkpt lat="45.85575" lon="4.67872">
        <ele>207</ele>
        <time>2016-08-23T08:46:51Z</time>
      </trkpt>
      <trkpt lat="45.85576" lon="4.67863">
        <ele>206</ele>
        <time>2016-08-23T08:46:52Z</time>
      </trkpt>
      <trkpt lat="45.85576" lon="4.67855">
        <ele>206</ele>
        <time>2016-08-23T08:46:53Z</time>
      </trkpt>
      <trkpt lat="45.85577" lon="4.67847">
        <ele>206</ele>
        <time>2016-08-23T08:46:54Z</time>
      </trkpt>
      <trkpt lat="45.85578" lon="4.6784">
        <ele>206</ele>
        <time>2016-08-23T08:46:55Z</time>
      </trkpt>
      <trkpt lat="45.85579" lon="4.67832">
        <ele>205</ele>
        <time>2016-08-23T08:46:56Z</time>
      </trkpt>
      <trkpt lat="45.85579" lon="4.67824">
        <ele>206</ele>
        <time>2016-08-23T08:46:57Z</time>
      </trkpt>
      <trkpt lat="45.85579" lon="4.67816">
        <ele>206</ele>
        <time>2016-08-23T08:46:58Z</time>
      </trkpt>
      <trkpt lat="45.85579" lon="4.67808">
        <ele>206</ele>
        <time>2016-08-23T08:46:59Z</time>
      </trkpt>
      <trkpt lat="45.85579" lon="4.678">
        <ele>206</ele>
        <time>2016-08-23T08:47:00Z</time>
      </trkpt>
      <trkpt lat="45.8558" lon="4.67792">
        <ele>206</ele>
        <time>2016-08-23T08:47:01Z</time>
      </trkpt>
      <trkpt lat="45.85583" lon="4.67785">
        <ele>206</ele>
        <time>2016-08-23T08:47:02Z</time>
      </trkpt>
      <trkpt lat="45.85585" lon="4.67778">
        <ele>209</ele>
        <time>2016-08-23T08:47:03Z</time>
      </trkpt>
      <trkpt lat="45.85587" lon="4.6777">
        <ele>208</ele>
        <time>2016-08-23T08:47:04Z</time>
      </trkpt>
      <trkpt lat="45.8559" lon="4.67763">
        <ele>207</ele>
        <time>2016-08-23T08:47:05Z</time>
      </trkpt>
      <trkpt lat="45.85594" lon="4.67756">
        <ele>207</ele>
        <time>2016-08-23T08:47:06Z</time>
      </trkpt>
      <trkpt lat="45.85598" lon="4.67748">
        <ele>206</ele>
        <time>2016-08-23T08:47:07Z</time>
      </trkpt>
      <trkpt lat="45.85603" lon="4.67741">
        <ele>207</ele>
        <time>2016-08-23T08:47:08Z</time>
      </trkpt>
      <trkpt lat="45.85607" lon="4.67734">
        <ele>208</ele>
        <time>2016-08-23T08:47:09Z</time>
      </trkpt>
      <trkpt lat="45.85611" lon="4.67727">
        <ele>208</ele>
        <time>2016-08-23T08:47:10Z</time>
      </trkpt>
      <trkpt lat="45.85615" lon="4.6772">
        <ele>209</ele>
        <time>2016-08-23T08:47:11Z</time>
      </trkpt>
      <trkpt lat="45.8562" lon="4.67714">
        <ele>209</ele>
        <time>2016-08-23T08:47:12Z</time>
      </trkpt>
      <trkpt lat="45.85624" lon="4.67708">
        <ele>209</ele>
        <time>2016-08-23T08:47:13Z</time>
      </trkpt>
      <trkpt lat="45.8563" lon="4.67702">
        <ele>209</ele>
        <time>2016-08-23T08:47:14Z</time>
      </trkpt>
      <trkpt lat="45.85634" lon="4.67697">
        <ele>209</ele>
        <time>2016-08-23T08:47:15Z</time>
      </trkpt>
      <trkpt lat="45.8564" lon="4.67693">
        <ele>209</ele>
        <time>2016-08-23T08:47:16Z</time>
      </trkpt>
      <trkpt lat="45.85645" lon="4.67688">
        <ele>209</ele>
        <time>2016-08-23T08:47:17Z</time>
      </trkpt>
      <trkpt lat="45.8565" lon="4.67685">
        <ele>209</ele>
        <time>2016-08-23T08:47:18Z</time>
      </trkpt>
      <trkpt lat="45.85655" lon="4.67683">
        <ele>209</ele>
        <time>2016-08-23T08:47:19Z</time>
      </trkpt>
      <trkpt lat="45.8566" lon="4.67679">
        <ele>209</ele>
        <time>2016-08-23T08:47:20Z</time>
      </trkpt>
      <trkpt lat="45.85665" lon="4.67676">
        <ele>209</ele>
        <time>2016-08-23T08:47:21Z</time>
      </trkpt>
      <trkpt lat="45.8567" lon="4.67673">
        <ele>212</ele>
        <time>2016-08-23T08:47:22Z</time>
      </trkpt>
      <trkpt lat="45.85676" lon="4.67671">
        <ele>213</ele>
        <time>2016-08-23T08:47:23Z</time>
      </trkpt>
      <trkpt lat="45.85681" lon="4.67667">
        <ele>215</ele>
        <time>2016-08-23T08:47:24Z</time>
      </trkpt>
      <trkpt lat="45.85686" lon="4.67664">
        <ele>210</ele>
        <time>2016-08-23T08:47:25Z</time>
      </trkpt>
      <trkpt lat="45.8569" lon="4.67662">
        <ele>211</ele>
        <time>2016-08-23T08:47:26Z</time>
      </trkpt>
      <trkpt lat="45.85696" lon="4.6766">
        <ele>211</ele>
        <time>2016-08-23T08:47:27Z</time>
      </trkpt>
      <trkpt lat="45.85701" lon="4.67657">
        <ele>211</ele>
        <time>2016-08-23T08:47:28Z</time>
      </trkpt>
      <trkpt lat="45.85708" lon="4.67655">
        <ele>212</ele>
        <time>2016-08-23T08:47:29Z</time>
      </trkpt>
      <trkpt lat="45.85714" lon="4.67652">
        <ele>212</ele>
        <time>2016-08-23T08:47:30Z</time>
      </trkpt>
      <trkpt lat="45.85719" lon="4.6765">
        <ele>213</ele>
        <time>2016-08-23T08:47:31Z</time>
      </trkpt>
      <trkpt lat="45.85724" lon="4.67648">
        <ele>213</ele>
        <time>2016-08-23T08:47:32Z</time>
      </trkpt>
      <trkpt lat="45.8573" lon="4.67646">
        <ele>214</ele>
        <time>2016-08-23T08:47:33Z</time>
      </trkpt>
      <trkpt lat="45.85735" lon="4.67642">
        <ele>214</ele>
        <time>2016-08-23T08:47:34Z</time>
      </trkpt>
      <trkpt lat="45.85741" lon="4.67639">
        <ele>214</ele>
        <time>2016-08-23T08:47:35Z</time>
      </trkpt>
      <trkpt lat="45.85746" lon="4.67637">
        <ele>214</ele>
        <time>2016-08-23T08:47:36Z</time>
      </trkpt>
      <trkpt lat="45.85751" lon="4.67634">
        <ele>221</ele>
        <time>2016-08-23T08:47:37Z</time>
      </trkpt>
      <trkpt lat="45.85756" lon="4.6763">
        <ele>220</ele>
        <time>2016-08-23T08:47:38Z</time>
      </trkpt>
      <trkpt lat="45.8576" lon="4.67626">
        <ele>220</ele>
        <time>2016-08-23T08:47:39Z</time>
      </trkpt>
      <trkpt lat="45.85766" lon="4.67623">
        <ele>220</ele>
        <time>2016-08-23T08:47:40Z</time>
      </trkpt>
      <trkpt lat="45.85771" lon="4.67619">
        <ele>220</ele>
        <time>2016-08-23T08:47:41Z</time>
      </trkpt>
      <trkpt lat="45.85776" lon="4.67614">
        <ele>220</ele>
        <time>2016-08-23T08:47:42Z</time>
      </trkpt>
      <trkpt lat="45.85782" lon="4.67609">
        <ele>220</ele>
        <time>2016-08-23T08:47:43Z</time>
      </trkpt>
      <trkpt lat="45.85787" lon="4.67603">
        <ele>220</ele>
        <time>2016-08-23T08:47:44Z</time>
      </trkpt>
      <trkpt lat="45.85793" lon="4.67597">
        <ele>220</ele>
        <time>2016-08-23T08:47:45Z</time>
      </trkpt>
      <trkpt lat="45.85797" lon="4.6759">
        <ele>220</ele>
        <time>2016-08-23T08:47:46Z</time>
      </trkpt>
      <trkpt lat="45.85802" lon="4.67584">
        <ele>221</ele>
        <time>2016-08-23T08:47:47Z</time>
      </trkpt>
      <trkpt lat="45.85807" lon="4.67579">
        <ele>213</ele>
        <time>2016-08-23T08:47:48Z</time>
      </trkpt>
      <trkpt lat="45.85811" lon="4.67575">
        <ele>214</ele>
        <time>2016-08-23T08:47:49Z</time>
      </trkpt>
      <trkpt lat="45.85816" lon="4.6757">
        <ele>214</ele>
        <time>2016-08-23T08:47:50Z</time>
      </trkpt>
      <trkpt lat="45.85821" lon="4.67564">
        <ele>214</ele>
        <time>2016-08-23T08:47:51Z</time>
      </trkpt>
      <trkpt lat="45.85825" lon="4.67557">
        <ele>213</ele>
        <time>2016-08-23T08:47:52Z</time>
      </trkpt>
      <trkpt lat="45.85829" lon="4.6755">
        <ele>212</ele>
        <time>2016-08-23T08:47:53Z</time>
      </trkpt>
      <trkpt lat="45.85832" lon="4.67543">
        <ele>211</ele>
        <time>2016-08-23T08:47:54Z</time>
      </trkpt>
      <trkpt lat="45.85836" lon="4.67535">
        <ele>221</ele>
        <time>2016-08-23T08:47:55Z</time>
      </trkpt>
      <trkpt lat="45.8584" lon="4.67527">
        <ele>219</ele>
        <time>2016-08-23T08:47:56Z</time>
      </trkpt>
      <trkpt lat="45.85842" lon="4.6752">
        <ele>218</ele>
        <time>2016-08-23T08:47:57Z</time>
      </trkpt>
      <trkpt lat="45.85845" lon="4.67513">
        <ele>216</ele>
        <time>2016-08-23T08:47:58Z</time>
      </trkpt>
      <trkpt lat="45.85848" lon="4.67506">
        <ele>215</ele>
        <time>2016-08-23T08:47:59Z</time>
      </trkpt>
      <trkpt lat="45.8585" lon="4.67498">
        <ele>211</ele>
        <time>2016-08-23T08:48:00Z</time>
      </trkpt>
      <trkpt lat="45.85852" lon="4.67492">
        <ele>212</ele>
        <time>2016-08-23T08:48:01Z</time>
      </trkpt>
      <trkpt lat="45.85855" lon="4.67483">
        <ele>213</ele>
        <time>2016-08-23T08:48:02Z</time>
      </trkpt>
      <trkpt lat="45.85858" lon="4.67475">
        <ele>213</ele>
        <time>2016-08-23T08:48:03Z</time>
      </trkpt>
      <trkpt lat="45.8586" lon="4.67467">
        <ele>213</ele>
        <time>2016-08-23T08:48:04Z</time>
      </trkpt>
      <trkpt lat="45.85862" lon="4.67459">
        <ele>214</ele>
        <time>2016-08-23T08:48:05Z</time>
      </trkpt>
      <trkpt lat="45.85864" lon="4.67449">
        <ele>213</ele>
        <time>2016-08-23T08:48:06Z</time>
      </trkpt>
      <trkpt lat="45.85866" lon="4.6744">
        <ele>213</ele>
        <time>2016-08-23T08:48:07Z</time>
      </trkpt>
      <trkpt lat="45.85867" lon="4.67431">
        <ele>213</ele>
        <time>2016-08-23T08:48:08Z</time>
      </trkpt>
      <trkpt lat="45.85869" lon="4.67422">
        <ele>213</ele>
        <time>2016-08-23T08:48:09Z</time>
      </trkpt>
      <trkpt lat="45.8587" lon="4.67413">
        <ele>209</ele>
        <time>2016-08-23T08:48:10Z</time>
      </trkpt>
      <trkpt lat="45.85871" lon="4.67405">
        <ele>210</ele>
        <time>2016-08-23T08:48:11Z</time>
      </trkpt>
      <trkpt lat="45.85872" lon="4.67398">
        <ele>210</ele>
        <time>2016-08-23T08:48:12Z</time>
      </trkpt>
      <trkpt lat="45.85873" lon="4.67389">
        <ele>209</ele>
        <time>2016-08-23T08:48:13Z</time>
      </trkpt>
      <trkpt lat="45.85874" lon="4.67381">
        <ele>209</ele>
        <time>2016-08-23T08:48:14Z</time>
      </trkpt>
      <trkpt lat="45.85875" lon="4.67372">
        <ele>209</ele>
        <time>2016-08-23T08:48:15Z</time>
      </trkpt>
      <trkpt lat="45.85874" lon="4.67362">
        <ele>209</ele>
        <time>2016-08-23T08:48:16Z</time>
      </trkpt>
      <trkpt lat="45.85874" lon="4.67354">
        <ele>209</ele>
        <time>2016-08-23T08:48:17Z</time>
      </trkpt>
      <trkpt lat="45.85875" lon="4.67345">
        <ele>208</ele>
        <time>2016-08-23T08:48:18Z</time>
      </trkpt>
      <trkpt lat="45.85875" lon="4.67336">
        <ele>208</ele>
        <time>2016-08-23T08:48:19Z</time>
      </trkpt>
      <trkpt lat="45.85876" lon="4.67328">
        <ele>206</ele>
        <time>2016-08-23T08:48:20Z</time>
      </trkpt>
      <trkpt lat="45.85878" lon="4.67319">
        <ele>206</ele>
        <time>2016-08-23T08:48:21Z</time>
      </trkpt>
      <trkpt lat="45.85879" lon="4.67309">
        <ele>206</ele>
        <time>2016-08-23T08:48:22Z</time>
      </trkpt>
      <trkpt lat="45.85881" lon="4.673">
        <ele>206</ele>
        <time>2016-08-23T08:48:23Z</time>
      </trkpt>
      <trkpt lat="45.85881" lon="4.67291">
        <ele>205</ele>
        <time>2016-08-23T08:48:24Z</time>
      </trkpt>
      <trkpt lat="45.85882" lon="4.67283">
        <ele>205</ele>
        <time>2016-08-23T08:48:25Z</time>
      </trkpt>
      <trkpt lat="45.85883" lon="4.67274">
        <ele>205</ele>
        <time>2016-08-23T08:48:26Z</time>
      </trkpt>
      <trkpt lat="45.85884" lon="4.67267">
        <ele>205</ele>
        <time>2016-08-23T08:48:27Z</time>
      </trkpt>
      <trkpt lat="45.85885" lon="4.67259">
        <ele>205</ele>
        <time>2016-08-23T08:48:28Z</time>
      </trkpt>
      <trkpt lat="45.85886" lon="4.67251">
        <ele>205</ele>
        <time>2016-08-23T08:48:29Z</time>
      </trkpt>
      <trkpt lat="45.85886" lon="4.67243">
        <ele>205</ele>
        <time>2016-08-23T08:48:30Z</time>
      </trkpt>
      <trkpt lat="45.85887" lon="4.67234">
        <ele>204</ele>
        <time>2016-08-23T08:48:31Z</time>
      </trkpt>
      <trkpt lat="45.85887" lon="4.67226">
        <ele>204</ele>
        <time>2016-08-23T08:48:32Z</time>
      </trkpt>
      <trkpt lat="45.85888" lon="4.67217">
        <ele>204</ele>
        <time>2016-08-23T08:48:33Z</time>
      </trkpt>
      <trkpt lat="45.85888" lon="4.67208">
        <ele>204</ele>
        <time>2016-08-23T08:48:34Z</time>
      </trkpt>
      <trkpt lat="45.85889" lon="4.672">
        <ele>204</ele>
        <time>2016-08-23T08:48:35Z</time>
      </trkpt>
      <trkpt lat="45.8589" lon="4.67192">
        <ele>204</ele>
        <time>2016-08-23T08:48:36Z</time>
      </trkpt>
      <trkpt lat="45.85891" lon="4.67185">
        <ele>204</ele>
        <time>2016-08-23T08:48:37Z</time>
      </trkpt>
      <trkpt lat="45.85892" lon="4.67179">
        <ele>205</ele>
        <time>2016-08-23T08:48:38Z</time>
      </trkpt>
      <trkpt lat="45.85893" lon="4.67171">
        <ele>205</ele>
        <time>2016-08-23T08:48:39Z</time>
      </trkpt>
      <trkpt lat="45.85894" lon="4.67164">
        <ele>205</ele>
        <time>2016-08-23T08:48:40Z</time>
      </trkpt>
      <trkpt lat="45.85895" lon="4.67157">
        <ele>205</ele>
        <time>2016-08-23T08:48:41Z</time>
      </trkpt>
      <trkpt lat="45.85895" lon="4.6715">
        <ele>204</ele>
        <time>2016-08-23T08:48:42Z</time>
      </trkpt>
      <trkpt lat="45.85896" lon="4.67142">
        <ele>204</ele>
        <time>2016-08-23T08:48:43Z</time>
      </trkpt>
      <trkpt lat="45.85897" lon="4.67136">
        <ele>204</ele>
        <time>2016-08-23T08:48:44Z</time>
      </trkpt>
      <trkpt lat="45.85898" lon="4.67128">
        <ele>204</ele>
        <time>2016-08-23T08:48:45Z</time>
      </trkpt>
      <trkpt lat="45.85899" lon="4.67121">
        <ele>204</ele>
        <time>2016-08-23T08:48:46Z</time>
      </trkpt>
      <trkpt lat="45.859" lon="4.67113">
        <ele>204</ele>
        <time>2016-08-23T08:48:47Z</time>
      </trkpt>
      <trkpt lat="45.85901" lon="4.67105">
        <ele>204</ele>
        <time>2016-08-23T08:48:48Z</time>
      </trkpt>
      <trkpt lat="45.85902" lon="4.67097">
        <ele>204</ele>
        <time>2016-08-23T08:48:49Z</time>
      </trkpt>
      <trkpt lat="45.85903" lon="4.6709">
        <ele>204</ele>
        <time>2016-08-23T08:48:50Z</time>
      </trkpt>
      <trkpt lat="45.85904" lon="4.67081">
        <ele>204</ele>
        <time>2016-08-23T08:48:51Z</time>
      </trkpt>
      <trkpt lat="45.85906" lon="4.67073">
        <ele>204</ele>
        <time>2016-08-23T08:48:52Z</time>
      </trkpt>
      <trkpt lat="45.85907" lon="4.67065">
        <ele>205</ele>
        <time>2016-08-23T08:48:53Z</time>
      </trkpt>
      <trkpt lat="45.85908" lon="4.67057">
        <ele>205</ele>
        <time>2016-08-23T08:48:54Z</time>
      </trkpt>
      <trkpt lat="45.8591" lon="4.67049">
        <ele>205</ele>
        <time>2016-08-23T08:48:55Z</time>
      </trkpt>
      <trkpt lat="45.85911" lon="4.6704">
        <ele>205</ele>
        <time>2016-08-23T08:48:56Z</time>
      </trkpt>
      <trkpt lat="45.85912" lon="4.67032">
        <ele>205</ele>
        <time>2016-08-23T08:48:57Z</time>
      </trkpt>
      <trkpt lat="45.85913" lon="4.67025">
        <ele>205</ele>
        <time>2016-08-23T08:48:58Z</time>
      </trkpt>
      <trkpt lat="45.85914" lon="4.67018">
        <ele>205</ele>
        <time>2016-08-23T08:48:59Z</time>
      </trkpt>
      <trkpt lat="45.85916" lon="4.67012">
        <ele>206</ele>
        <time>2016-08-23T08:49:00Z</time>
      </trkpt>
      <trkpt lat="45.8592" lon="4.67002">
        <ele>207</ele>
        <time>2016-08-23T08:49:02Z</time>
      </trkpt>
      <trkpt lat="45.85921" lon="4.66998">
        <ele>207</ele>
        <time>2016-08-23T08:49:03Z</time>
      </trkpt>
      <trkpt lat="45.85926" lon="4.66987">
        <ele>208</ele>
        <time>2016-08-23T08:49:05Z</time>
      </trkpt>
      <trkpt lat="45.85928" lon="4.66982">
        <ele>208</ele>
        <time>2016-08-23T08:49:06Z</time>
      </trkpt>
      <trkpt lat="45.85929" lon="4.66975">
        <ele>208</ele>
        <time>2016-08-23T08:49:07Z</time>
      </trkpt>
      <trkpt lat="45.85929" lon="4.66968">
        <ele>209</ele>
        <time>2016-08-23T08:49:08Z</time>
      </trkpt>
      <trkpt lat="45.85926" lon="4.66961">
        <ele>209</ele>
        <time>2016-08-23T08:49:09Z</time>
      </trkpt>
      <trkpt lat="45.85922" lon="4.66956">
        <ele>209</ele>
        <time>2016-08-23T08:49:10Z</time>
      </trkpt>
      <trkpt lat="45.85916" lon="4.66955">
        <ele>207</ele>
        <time>2016-08-23T08:49:11Z</time>
      </trkpt>
      <trkpt lat="45.85909" lon="4.66955">
        <ele>207</ele>
        <time>2016-08-23T08:49:12Z</time>
      </trkpt>
      <trkpt lat="45.85903" lon="4.66957">
        <ele>207</ele>
        <time>2016-08-23T08:49:13Z</time>
      </trkpt>
      <trkpt lat="45.85898" lon="4.66958">
        <ele>207</ele>
        <time>2016-08-23T08:49:14Z</time>
      </trkpt>
      <trkpt lat="45.85893" lon="4.66957">
        <ele>207</ele>
        <time>2016-08-23T08:49:15Z</time>
      </trkpt>
      <trkpt lat="45.85888" lon="4.66956">
        <ele>207</ele>
        <time>2016-08-23T08:49:16Z</time>
      </trkpt>
      <trkpt lat="45.85883" lon="4.66954">
        <ele>207</ele>
        <time>2016-08-23T08:49:17Z</time>
      </trkpt>
      <trkpt lat="45.85878" lon="4.66953">
        <ele>207</ele>
        <time>2016-08-23T08:49:18Z</time>
      </trkpt>
      <trkpt lat="45.85873" lon="4.6695">
        <ele>207</ele>
        <time>2016-08-23T08:49:19Z</time>
      </trkpt>
      <trkpt lat="45.85869" lon="4.66947">
        <ele>208</ele>
        <time>2016-08-23T08:49:20Z</time>
      </trkpt>
      <trkpt lat="45.85863" lon="4.66946">
        <ele>208</ele>
        <time>2016-08-23T08:49:21Z</time>
      </trkpt>
      <trkpt lat="45.85857" lon="4.66945">
        <ele>208</ele>
        <time>2016-08-23T08:49:22Z</time>
      </trkpt>
      <trkpt lat="45.85852" lon="4.66943">
        <ele>208</ele>
        <time>2016-08-23T08:49:23Z</time>
      </trkpt>
      <trkpt lat="45.85847" lon="4.66942">
        <ele>208</ele>
        <time>2016-08-23T08:49:24Z</time>
      </trkpt>
      <trkpt lat="45.85841" lon="4.6694">
        <ele>208</ele>
        <time>2016-08-23T08:49:25Z</time>
      </trkpt>
      <trkpt lat="45.85836" lon="4.66938">
        <ele>208</ele>
        <time>2016-08-23T08:49:26Z</time>
      </trkpt>
      <trkpt lat="45.85831" lon="4.66936">
        <ele>210</ele>
        <time>2016-08-23T08:49:27Z</time>
      </trkpt>
      <trkpt lat="45.85826" lon="4.66934">
        <ele>210</ele>
        <time>2016-08-23T08:49:28Z</time>
      </trkpt>
      <trkpt lat="45.85821" lon="4.66933">
        <ele>210</ele>
        <time>2016-08-23T08:49:29Z</time>
      </trkpt>
      <trkpt lat="45.85817" lon="4.66931">
        <ele>210</ele>
        <time>2016-08-23T08:49:30Z</time>
      </trkpt>
      <trkpt lat="45.85809" lon="4.66928">
        <ele>210</ele>
        <time>2016-08-23T08:49:32Z</time>
      </trkpt>
      <trkpt lat="45.85804" lon="4.66928">
        <ele>210</ele>
        <time>2016-08-23T08:49:33Z</time>
      </trkpt>
      <trkpt lat="45.85799" lon="4.66928">
        <ele>210</ele>
        <time>2016-08-23T08:49:34Z</time>
      </trkpt>
      <trkpt lat="45.85792" lon="4.66929">
        <ele>210</ele>
        <time>2016-08-23T08:49:35Z</time>
      </trkpt>
      <trkpt lat="45.85786" lon="4.66931">
        <ele>210</ele>
        <time>2016-08-23T08:49:36Z</time>
      </trkpt>
      <trkpt lat="45.85781" lon="4.66931">
        <ele>210</ele>
        <time>2016-08-23T08:49:37Z</time>
      </trkpt>
      <trkpt lat="45.85776" lon="4.66933">
        <ele>211</ele>
        <time>2016-08-23T08:49:38Z</time>
      </trkpt>
      <trkpt lat="45.85772" lon="4.66934">
        <ele>211</ele>
        <time>2016-08-23T08:49:39Z</time>
      </trkpt>
      <trkpt lat="45.85763" lon="4.66934">
        <ele>211</ele>
        <time>2016-08-23T08:49:41Z</time>
      </trkpt>
      <trkpt lat="45.8576" lon="4.66933">
        <ele>211</ele>
        <time>2016-08-23T08:49:42Z</time>
      </trkpt>
      <trkpt lat="45.85751" lon="4.66929">
        <ele>212</ele>
        <time>2016-08-23T08:49:44Z</time>
      </trkpt>
      <trkpt lat="45.85747" lon="4.66927">
        <ele>212</ele>
        <time>2016-08-23T08:49:45Z</time>
      </trkpt>
      <trkpt lat="45.85739" lon="4.66923">
        <ele>212</ele>
        <time>2016-08-23T08:49:47Z</time>
      </trkpt>
      <trkpt lat="45.85734" lon="4.66922">
        <ele>211</ele>
        <time>2016-08-23T08:49:48Z</time>
      </trkpt>
      <trkpt lat="45.8573" lon="4.66921">
        <ele>211</ele>
        <time>2016-08-23T08:49:49Z</time>
      </trkpt>
      <trkpt lat="45.85725" lon="4.6692">
        <ele>211</ele>
        <time>2016-08-23T08:49:50Z</time>
      </trkpt>
      <trkpt lat="45.8572" lon="4.6692">
        <ele>210</ele>
        <time>2016-08-23T08:49:51Z</time>
      </trkpt>
      <trkpt lat="45.85715" lon="4.66919">
        <ele>210</ele>
        <time>2016-08-23T08:49:52Z</time>
      </trkpt>
      <trkpt lat="45.85709" lon="4.66917">
        <ele>210</ele>
        <time>2016-08-23T08:49:53Z</time>
      </trkpt>
      <trkpt lat="45.85704" lon="4.66916">
        <ele>213</ele>
        <time>2016-08-23T08:49:54Z</time>
      </trkpt>
      <trkpt lat="45.857" lon="4.66914">
        <ele>213</ele>
        <time>2016-08-23T08:49:55Z</time>
      </trkpt>
      <trkpt lat="45.85694" lon="4.66912">
        <ele>212</ele>
        <time>2016-08-23T08:49:56Z</time>
      </trkpt>
      <trkpt lat="45.85689" lon="4.66911">
        <ele>212</ele>
        <time>2016-08-23T08:49:57Z</time>
      </trkpt>
      <trkpt lat="45.85684" lon="4.66908">
        <ele>211</ele>
        <time>2016-08-23T08:49:58Z</time>
      </trkpt>
      <trkpt lat="45.85679" lon="4.66906">
        <ele>211</ele>
        <time>2016-08-23T08:49:59Z</time>
      </trkpt>
      <trkpt lat="45.85673" lon="4.66904">
        <ele>211</ele>
        <time>2016-08-23T08:50:00Z</time>
      </trkpt>
      <trkpt lat="45.85668" lon="4.66901">
        <ele>211</ele>
        <time>2016-08-23T08:50:01Z</time>
      </trkpt>
      <trkpt lat="45.85663" lon="4.66899">
        <ele>208</ele>
        <time>2016-08-23T08:50:02Z</time>
      </trkpt>
      <trkpt lat="45.85659" lon="4.66896">
        <ele>208</ele>
        <time>2016-08-23T08:50:03Z</time>
      </trkpt>
      <trkpt lat="45.85655" lon="4.66893">
        <ele>208</ele>
        <time>2016-08-23T08:50:04Z</time>
      </trkpt>
      <trkpt lat="45.85651" lon="4.66888">
        <ele>208</ele>
        <time>2016-08-23T08:50:05Z</time>
      </trkpt>
      <trkpt lat="45.85648" lon="4.66882">
        <ele>208</ele>
        <time>2016-08-23T08:50:06Z</time>
      </trkpt>
      <trkpt lat="45.85646" lon="4.66876">
        <ele>208</ele>
        <time>2016-08-23T08:50:07Z</time>
      </trkpt>
      <trkpt lat="45.85644" lon="4.66869">
        <ele>209</ele>
        <time>2016-08-23T08:50:08Z</time>
      </trkpt>
      <trkpt lat="45.85642" lon="4.66862">
        <ele>209</ele>
        <time>2016-08-23T08:50:09Z</time>
      </trkpt>
      <trkpt lat="45.85641" lon="4.66855">
        <ele>209</ele>
        <time>2016-08-23T08:50:10Z</time>
      </trkpt>
      <trkpt lat="45.85639" lon="4.66848">
        <ele>209</ele>
        <time>2016-08-23T08:50:11Z</time>
      </trkpt>
      <trkpt lat="45.85638" lon="4.6684">
        <ele>209</ele>
        <time>2016-08-23T08:50:12Z</time>
      </trkpt>
      <trkpt lat="45.85637" lon="4.66832">
        <ele>211</ele>
        <time>2016-08-23T08:50:13Z</time>
      </trkpt>
      <trkpt lat="45.85636" lon="4.66824">
        <ele>211</ele>
        <time>2016-08-23T08:50:14Z</time>
      </trkpt>
      <trkpt lat="45.85635" lon="4.66817">
        <ele>211</ele>
        <time>2016-08-23T08:50:15Z</time>
      </trkpt>
      <trkpt lat="45.85634" lon="4.66809">
        <ele>210</ele>
        <time>2016-08-23T08:50:16Z</time>
      </trkpt>
      <trkpt lat="45.85633" lon="4.66801">
        <ele>210</ele>
        <time>2016-08-23T08:50:17Z</time>
      </trkpt>
      <trkpt lat="45.85633" lon="4.66793">
        <ele>211</ele>
        <time>2016-08-23T08:50:18Z</time>
      </trkpt>
      <trkpt lat="45.85633" lon="4.66785">
        <ele>211</ele>
        <time>2016-08-23T08:50:19Z</time>
      </trkpt>
      <trkpt lat="45.85632" lon="4.66778">
        <ele>211</ele>
        <time>2016-08-23T08:50:20Z</time>
      </trkpt>
      <trkpt lat="45.85631" lon="4.6677">
        <ele>211</ele>
        <time>2016-08-23T08:50:21Z</time>
      </trkpt>
      <trkpt lat="45.8563" lon="4.66763">
        <ele>211</ele>
        <time>2016-08-23T08:50:22Z</time>
      </trkpt>
      <trkpt lat="45.8563" lon="4.66755">
        <ele>211</ele>
        <time>2016-08-23T08:50:23Z</time>
      </trkpt>
      <trkpt lat="45.85629" lon="4.66748">
        <ele>212</ele>
        <time>2016-08-23T08:50:24Z</time>
      </trkpt>
      <trkpt lat="45.85628" lon="4.6674">
        <ele>212</ele>
        <time>2016-08-23T08:50:25Z</time>
      </trkpt>
      <trkpt lat="45.85628" lon="4.66733">
        <ele>212</ele>
        <time>2016-08-23T08:50:26Z</time>
      </trkpt>
      <trkpt lat="45.85627" lon="4.66725">
        <ele>212</ele>
        <time>2016-08-23T08:50:27Z</time>
      </trkpt>
      <trkpt lat="45.85626" lon="4.66716">
        <ele>212</ele>
        <time>2016-08-23T08:50:28Z</time>
      </trkpt>
      <trkpt lat="45.85626" lon="4.66709">
        <ele>212</ele>
        <time>2016-08-23T08:50:29Z</time>
      </trkpt>
      <trkpt lat="45.85625" lon="4.667">
        <ele>212</ele>
        <time>2016-08-23T08:50:30Z</time>
      </trkpt>
      <trkpt lat="45.85625" lon="4.66692">
        <ele>212</ele>
        <time>2016-08-23T08:50:31Z</time>
      </trkpt>
      <trkpt lat="45.85624" lon="4.66684">
        <ele>212</ele>
        <time>2016-08-23T08:50:32Z</time>
      </trkpt>
      <trkpt lat="45.85625" lon="4.66676">
        <ele>212</ele>
        <time>2016-08-23T08:50:33Z</time>
      </trkpt>
      <trkpt lat="45.85624" lon="4.66667">
        <ele>212</ele>
        <time>2016-08-23T08:50:34Z</time>
      </trkpt>
      <trkpt lat="45.85624" lon="4.66659">
        <ele>213</ele>
        <time>2016-08-23T08:50:35Z</time>
      </trkpt>
      <trkpt lat="45.85624" lon="4.6665">
        <ele>213</ele>
        <time>2016-08-23T08:50:36Z</time>
      </trkpt>
      <trkpt lat="45.85625" lon="4.66642">
        <ele>213</ele>
        <time>2016-08-23T08:50:37Z</time>
      </trkpt>
      <trkpt lat="45.85625" lon="4.66634">
        <ele>213</ele>
        <time>2016-08-23T08:50:38Z</time>
      </trkpt>
      <trkpt lat="45.85625" lon="4.66626">
        <ele>213</ele>
        <time>2016-08-23T08:50:39Z</time>
      </trkpt>
      <trkpt lat="45.85626" lon="4.66617">
        <ele>213</ele>
        <time>2016-08-23T08:50:40Z</time>
      </trkpt>
      <trkpt lat="45.85626" lon="4.66608">
        <ele>213</ele>
        <time>2016-08-23T08:50:41Z</time>
      </trkpt>
      <trkpt lat="45.85626" lon="4.666">
        <ele>213</ele>
        <time>2016-08-23T08:50:42Z</time>
      </trkpt>
      <trkpt lat="45.85627" lon="4.66592">
        <ele>213</ele>
        <time>2016-08-23T08:50:43Z</time>
      </trkpt>
      <trkpt lat="45.85627" lon="4.66584">
        <ele>214</ele>
        <time>2016-08-23T08:50:44Z</time>
      </trkpt>
      <trkpt lat="45.85628" lon="4.66576">
        <ele>214</ele>
        <time>2016-08-23T08:50:45Z</time>
      </trkpt>
      <trkpt lat="45.8563" lon="4.66569">
        <ele>214</ele>
        <time>2016-08-23T08:50:46Z</time>
      </trkpt>
      <trkpt lat="45.85632" lon="4.66561">
        <ele>214</ele>
        <time>2016-08-23T08:50:47Z</time>
      </trkpt>
      <trkpt lat="45.85633" lon="4.66553">
        <ele>214</ele>
        <time>2016-08-23T08:50:48Z</time>
      </trkpt>
      <trkpt lat="45.85634" lon="4.66545">
        <ele>214</ele>
        <time>2016-08-23T08:50:49Z</time>
      </trkpt>
      <trkpt lat="45.85635" lon="4.66536">
        <ele>214</ele>
        <time>2016-08-23T08:50:50Z</time>
      </trkpt>
      <trkpt lat="45.85635" lon="4.66527">
        <ele>214</ele>
        <time>2016-08-23T08:50:51Z</time>
      </trkpt>
      <trkpt lat="45.85636" lon="4.66519">
        <ele>214</ele>
        <time>2016-08-23T08:50:52Z</time>
      </trkpt>
      <trkpt lat="45.85636" lon="4.6651">
        <ele>214</ele>
        <time>2016-08-23T08:50:53Z</time>
      </trkpt>
      <trkpt lat="45.85637" lon="4.66501">
        <ele>214</ele>
        <time>2016-08-23T08:50:54Z</time>
      </trkpt>
      <trkpt lat="45.85637" lon="4.66492">
        <ele>215</ele>
        <time>2016-08-23T08:50:55Z</time>
      </trkpt>
      <trkpt lat="45.85637" lon="4.66483">
        <ele>215</ele>
        <time>2016-08-23T08:50:56Z</time>
      </trkpt>
      <trkpt lat="45.85637" lon="4.66475">
        <ele>215</ele>
        <time>2016-08-23T08:50:57Z</time>
      </trkpt>
      <trkpt lat="45.85637" lon="4.66466">
        <ele>215</ele>
        <time>2016-08-23T08:50:58Z</time>
      </trkpt>
      <trkpt lat="45.85637" lon="4.66457">
        <ele>215</ele>
        <time>2016-08-23T08:50:59Z</time>
      </trkpt>
      <trkpt lat="45.85639" lon="4.66449">
        <ele>215</ele>
        <time>2016-08-23T08:51:00Z</time>
      </trkpt>
      <trkpt lat="45.8564" lon="4.6644">
        <ele>215</ele>
        <time>2016-08-23T08:51:01Z</time>
      </trkpt>
      <trkpt lat="45.85641" lon="4.66431">
        <ele>216</ele>
        <time>2016-08-23T08:51:02Z</time>
      </trkpt>
      <trkpt lat="45.85643" lon="4.66422">
        <ele>216</ele>
        <time>2016-08-23T08:51:03Z</time>
      </trkpt>
      <trkpt lat="45.85644" lon="4.66413">
        <ele>216</ele>
        <time>2016-08-23T08:51:04Z</time>
      </trkpt>
      <trkpt lat="45.85645" lon="4.66404">
        <ele>215</ele>
        <time>2016-08-23T08:51:05Z</time>
      </trkpt>
      <trkpt lat="45.85647" lon="4.66395">
        <ele>215</ele>
        <time>2016-08-23T08:51:06Z</time>
      </trkpt>
      <trkpt lat="45.85649" lon="4.66387">
        <ele>215</ele>
        <time>2016-08-23T08:51:07Z</time>
      </trkpt>
      <trkpt lat="45.85651" lon="4.66379">
        <ele>214</ele>
        <time>2016-08-23T08:51:08Z</time>
      </trkpt>
      <trkpt lat="45.85654" lon="4.66371">
        <ele>214</ele>
        <time>2016-08-23T08:51:09Z</time>
      </trkpt>
      <trkpt lat="45.85656" lon="4.66363">
        <ele>214</ele>
        <time>2016-08-23T08:51:10Z</time>
      </trkpt>
      <trkpt lat="45.85659" lon="4.66355">
        <ele>214</ele>
        <time>2016-08-23T08:51:11Z</time>
      </trkpt>
      <trkpt lat="45.85662" lon="4.66346">
        <ele>215</ele>
        <time>2016-08-23T08:51:12Z</time>
      </trkpt>
      <trkpt lat="45.85666" lon="4.66338">
        <ele>215</ele>
        <time>2016-08-23T08:51:13Z</time>
      </trkpt>
      <trkpt lat="45.85669" lon="4.6633">
        <ele>217</ele>
        <time>2016-08-23T08:51:14Z</time>
      </trkpt>
      <trkpt lat="45.85672" lon="4.66321">
        <ele>219</ele>
        <time>2016-08-23T08:51:15Z</time>
      </trkpt>
      <trkpt lat="45.85674" lon="4.66312">
        <ele>220</ele>
        <time>2016-08-23T08:51:16Z</time>
      </trkpt>
      <trkpt lat="45.85677" lon="4.66302">
        <ele>221</ele>
        <time>2016-08-23T08:51:17Z</time>
      </trkpt>
      <trkpt lat="45.85681" lon="4.66293">
        <ele>221</ele>
        <time>2016-08-23T08:51:18Z</time>
      </trkpt>
      <trkpt lat="45.85684" lon="4.66284">
        <ele>221</ele>
        <time>2016-08-23T08:51:19Z</time>
      </trkpt>
      <trkpt lat="45.85687" lon="4.66275">
        <ele>221</ele>
        <time>2016-08-23T08:51:20Z</time>
      </trkpt>
      <trkpt lat="45.8569" lon="4.66266">
        <ele>221</ele>
        <time>2016-08-23T08:51:21Z</time>
      </trkpt>
      <trkpt lat="45.85693" lon="4.66256">
        <ele>221</ele>
        <time>2016-08-23T08:51:22Z</time>
      </trkpt>
      <trkpt lat="45.85697" lon="4.66244">
        <ele>220</ele>
        <time>2016-08-23T08:51:23Z</time>
      </trkpt>
      <trkpt lat="45.857" lon="4.66233">
        <ele>221</ele>
        <time>2016-08-23T08:51:24Z</time>
      </trkpt>
      <trkpt lat="45.85702" lon="4.66223">
        <ele>221</ele>
        <time>2016-08-23T08:51:25Z</time>
      </trkpt>
      <trkpt lat="45.85704" lon="4.66213">
        <ele>221</ele>
        <time>2016-08-23T08:51:26Z</time>
      </trkpt>
      <trkpt lat="45.85705" lon="4.66202">
        <ele>221</ele>
        <time>2016-08-23T08:51:27Z</time>
      </trkpt>
      <trkpt lat="45.85706" lon="4.66192">
        <ele>221</ele>
        <time>2016-08-23T08:51:28Z</time>
      </trkpt>
      <trkpt lat="45.85709" lon="4.66182">
        <ele>222</ele>
        <time>2016-08-23T08:51:29Z</time>
      </trkpt>
      <trkpt lat="45.85711" lon="4.66172">
        <ele>222</ele>
        <time>2016-08-23T08:51:30Z</time>
      </trkpt>
      <trkpt lat="45.85713" lon="4.66163">
        <ele>220</ele>
        <time>2016-08-23T08:51:31Z</time>
      </trkpt>
      <trkpt lat="45.85716" lon="4.66153">
        <ele>220</ele>
        <time>2016-08-23T08:51:32Z</time>
      </trkpt>
      <trkpt lat="45.85718" lon="4.66144">
        <ele>220</ele>
        <time>2016-08-23T08:51:33Z</time>
      </trkpt>
      <trkpt lat="45.8572" lon="4.66133">
        <ele>220</ele>
        <time>2016-08-23T08:51:34Z</time>
      </trkpt>
      <trkpt lat="45.85722" lon="4.66122">
        <ele>220</ele>
        <time>2016-08-23T08:51:35Z</time>
      </trkpt>
      <trkpt lat="45.85723" lon="4.66112">
        <ele>220</ele>
        <time>2016-08-23T08:51:36Z</time>
      </trkpt>
      <trkpt lat="45.85725" lon="4.66102">
        <ele>220</ele>
        <time>2016-08-23T08:51:37Z</time>
      </trkpt>
      <trkpt lat="45.85726" lon="4.66091">
        <ele>220</ele>
        <time>2016-08-23T08:51:38Z</time>
      </trkpt>
      <trkpt lat="45.85728" lon="4.6608">
        <ele>218</ele>
        <time>2016-08-23T08:51:39Z</time>
      </trkpt>
      <trkpt lat="45.8573" lon="4.6607">
        <ele>218</ele>
        <time>2016-08-23T08:51:40Z</time>
      </trkpt>
      <trkpt lat="45.85732" lon="4.6606">
        <ele>217</ele>
        <time>2016-08-23T08:51:41Z</time>
      </trkpt>
      <trkpt lat="45.85734" lon="4.6605">
        <ele>217</ele>
        <time>2016-08-23T08:51:42Z</time>
      </trkpt>
      <trkpt lat="45.85737" lon="4.6604">
        <ele>216</ele>
        <time>2016-08-23T08:51:43Z</time>
      </trkpt>
      <trkpt lat="45.8574" lon="4.6603">
        <ele>216</ele>
        <time>2016-08-23T08:51:44Z</time>
      </trkpt>
      <trkpt lat="45.85743" lon="4.6602">
        <ele>216</ele>
        <time>2016-08-23T08:51:45Z</time>
      </trkpt>
      <trkpt lat="45.85746" lon="4.6601">
        <ele>216</ele>
        <time>2016-08-23T08:51:46Z</time>
      </trkpt>
      <trkpt lat="45.85751" lon="4.66001">
        <ele>218</ele>
        <time>2016-08-23T08:51:47Z</time>
      </trkpt>
      <trkpt lat="45.85756" lon="4.65993">
        <ele>219</ele>
        <time>2016-08-23T08:51:48Z</time>
      </trkpt>
      <trkpt lat="45.85762" lon="4.65984">
        <ele>221</ele>
        <time>2016-08-23T08:51:49Z</time>
      </trkpt>
      <trkpt lat="45.85767" lon="4.65977">
        <ele>222</ele>
        <time>2016-08-23T08:51:50Z</time>
      </trkpt>
      <trkpt lat="45.85774" lon="4.6597">
        <ele>223</ele>
        <time>2016-08-23T08:51:51Z</time>
      </trkpt>
      <trkpt lat="45.85779" lon="4.65963">
        <ele>223</ele>
        <time>2016-08-23T08:51:52Z</time>
      </trkpt>
      <trkpt lat="45.85786" lon="4.65956">
        <ele>223</ele>
        <time>2016-08-23T08:51:53Z</time>
      </trkpt>
      <trkpt lat="45.85791" lon="4.6595">
        <ele>224</ele>
        <time>2016-08-23T08:51:54Z</time>
      </trkpt>
      <trkpt lat="45.85797" lon="4.65943">
        <ele>224</ele>
        <time>2016-08-23T08:51:55Z</time>
      </trkpt>
      <trkpt lat="45.85803" lon="4.65936">
        <ele>224</ele>
        <time>2016-08-23T08:51:56Z</time>
      </trkpt>
      <trkpt lat="45.8581" lon="4.6593">
        <ele>224</ele>
        <time>2016-08-23T08:51:57Z</time>
      </trkpt>
      <trkpt lat="45.85816" lon="4.65924">
        <ele>224</ele>
        <time>2016-08-23T08:51:58Z</time>
      </trkpt>
      <trkpt lat="45.85822" lon="4.65919">
        <ele>224</ele>
        <time>2016-08-23T08:51:59Z</time>
      </trkpt>
      <trkpt lat="45.85827" lon="4.65914">
        <ele>221</ele>
        <time>2016-08-23T08:52:00Z</time>
      </trkpt>
      <trkpt lat="45.85833" lon="4.65908">
        <ele>221</ele>
        <time>2016-08-23T08:52:01Z</time>
      </trkpt>
      <trkpt lat="45.85839" lon="4.65902">
        <ele>223</ele>
        <time>2016-08-23T08:52:02Z</time>
      </trkpt>
      <trkpt lat="45.85845" lon="4.65898">
        <ele>223</ele>
        <time>2016-08-23T08:52:03Z</time>
      </trkpt>
      <trkpt lat="45.85851" lon="4.65891">
        <ele>223</ele>
        <time>2016-08-23T08:52:04Z</time>
      </trkpt>
      <trkpt lat="45.85856" lon="4.65884">
        <ele>222</ele>
        <time>2016-08-23T08:52:05Z</time>
      </trkpt>
      <trkpt lat="45.8586" lon="4.65876">
        <ele>222</ele>
        <time>2016-08-23T08:52:06Z</time>
      </trkpt>
      <trkpt lat="45.85865" lon="4.65867">
        <ele>221</ele>
        <time>2016-08-23T08:52:07Z</time>
      </trkpt>
      <trkpt lat="45.85868" lon="4.65859">
        <ele>220</ele>
        <time>2016-08-23T08:52:08Z</time>
      </trkpt>
      <trkpt lat="45.85871" lon="4.6585">
        <ele>219</ele>
        <time>2016-08-23T08:52:09Z</time>
      </trkpt>
      <trkpt lat="45.85874" lon="4.65842">
        <ele>219</ele>
        <time>2016-08-23T08:52:10Z</time>
      </trkpt>
      <trkpt lat="45.85877" lon="4.65833">
        <ele>210</ele>
        <time>2016-08-23T08:52:11Z</time>
      </trkpt>
      <trkpt lat="45.85879" lon="4.65825">
        <ele>210</ele>
        <time>2016-08-23T08:52:12Z</time>
      </trkpt>
      <trkpt lat="45.8588" lon="4.65816">
        <ele>210</ele>
        <time>2016-08-23T08:52:13Z</time>
      </trkpt>
      <trkpt lat="45.85882" lon="4.65807">
        <ele>210</ele>
        <time>2016-08-23T08:52:14Z</time>
      </trkpt>
      <trkpt lat="45.85884" lon="4.65798">
        <ele>210</ele>
        <time>2016-08-23T08:52:15Z</time>
      </trkpt>
      <trkpt lat="45.85883" lon="4.65789">
        <ele>209</ele>
        <time>2016-08-23T08:52:16Z</time>
      </trkpt>
      <trkpt lat="45.85884" lon="4.65779">
        <ele>209</ele>
        <time>2016-08-23T08:52:17Z</time>
      </trkpt>
      <trkpt lat="45.85885" lon="4.6577">
        <ele>209</ele>
        <time>2016-08-23T08:52:18Z</time>
      </trkpt>
      <trkpt lat="45.85886" lon="4.65761">
        <ele>208</ele>
        <time>2016-08-23T08:52:19Z</time>
      </trkpt>
      <trkpt lat="45.85886" lon="4.65751">
        <ele>208</ele>
        <time>2016-08-23T08:52:20Z</time>
      </trkpt>
      <trkpt lat="45.85885" lon="4.65743">
        <ele>207</ele>
        <time>2016-08-23T08:52:21Z</time>
      </trkpt>
      <trkpt lat="45.85882" lon="4.65733">
        <ele>208</ele>
        <time>2016-08-23T08:52:22Z</time>
      </trkpt>
      <trkpt lat="45.85879" lon="4.65723">
        <ele>208</ele>
        <time>2016-08-23T08:52:23Z</time>
      </trkpt>
      <trkpt lat="45.85876" lon="4.65714">
        <ele>208</ele>
        <time>2016-08-23T08:52:24Z</time>
      </trkpt>
      <trkpt lat="45.85873" lon="4.65705">
        <ele>208</ele>
        <time>2016-08-23T08:52:25Z</time>
      </trkpt>
      <trkpt lat="45.8587" lon="4.65697">
        <ele>208</ele>
        <time>2016-08-23T08:52:26Z</time>
      </trkpt>
      <trkpt lat="45.85866" lon="4.65688">
        <ele>208</ele>
        <time>2016-08-23T08:52:27Z</time>
      </trkpt>
      <trkpt lat="45.85863" lon="4.6568">
        <ele>209</ele>
        <time>2016-08-23T08:52:28Z</time>
      </trkpt>
      <trkpt lat="45.85858" lon="4.65672">
        <ele>209</ele>
        <time>2016-08-23T08:52:29Z</time>
      </trkpt>
      <trkpt lat="45.85854" lon="4.65664">
        <ele>211</ele>
        <time>2016-08-23T08:52:30Z</time>
      </trkpt>
      <trkpt lat="45.85849" lon="4.65656">
        <ele>211</ele>
        <time>2016-08-23T08:52:31Z</time>
      </trkpt>
      <trkpt lat="45.85845" lon="4.65649">
        <ele>212</ele>
        <time>2016-08-23T08:52:32Z</time>
      </trkpt>
      <trkpt lat="45.85842" lon="4.65642">
        <ele>212</ele>
        <time>2016-08-23T08:52:33Z</time>
      </trkpt>
      <trkpt lat="45.85838" lon="4.65634">
        <ele>212</ele>
        <time>2016-08-23T08:52:34Z</time>
      </trkpt>
      <trkpt lat="45.85834" lon="4.65626">
        <ele>213</ele>
        <time>2016-08-23T08:52:35Z</time>
      </trkpt>
      <trkpt lat="45.8583" lon="4.65618">
        <ele>212</ele>
        <time>2016-08-23T08:52:36Z</time>
      </trkpt>
      <trkpt lat="45.85827" lon="4.65611">
        <ele>212</ele>
        <time>2016-08-23T08:52:37Z</time>
      </trkpt>
      <trkpt lat="45.85823" lon="4.65604">
        <ele>213</ele>
        <time>2016-08-23T08:52:38Z</time>
      </trkpt>
      <trkpt lat="45.8582" lon="4.65597">
        <ele>213</ele>
        <time>2016-08-23T08:52:39Z</time>
      </trkpt>
      <trkpt lat="45.85816" lon="4.65591">
        <ele>213</ele>
        <time>2016-08-23T08:52:40Z</time>
      </trkpt>
      <trkpt lat="45.85812" lon="4.65584">
        <ele>213</ele>
        <time>2016-08-23T08:52:41Z</time>
      </trkpt>
      <trkpt lat="45.85808" lon="4.65572">
        <ele>214</ele>
        <time>2016-08-23T08:52:43Z</time>
      </trkpt>
      <trkpt lat="45.85806" lon="4.65566">
        <ele>214</ele>
        <time>2016-08-23T08:52:44Z</time>
      </trkpt>
      <trkpt lat="45.85803" lon="4.65559">
        <ele>214</ele>
        <time>2016-08-23T08:52:45Z</time>
      </trkpt>
      <trkpt lat="45.85801" lon="4.65554">
        <ele>214</ele>
        <time>2016-08-23T08:52:46Z</time>
      </trkpt>
      <trkpt lat="45.85798" lon="4.65546">
        <ele>214</ele>
        <time>2016-08-23T08:52:47Z</time>
      </trkpt>
      <trkpt lat="45.85795" lon="4.65539">
        <ele>214</ele>
        <time>2016-08-23T08:52:48Z</time>
      </trkpt>
      <trkpt lat="45.85792" lon="4.65531">
        <ele>214</ele>
        <time>2016-08-23T08:52:49Z</time>
      </trkpt>
      <trkpt lat="45.85788" lon="4.65524">
        <ele>213</ele>
        <time>2016-08-23T08:52:50Z</time>
      </trkpt>
      <trkpt lat="45.85784" lon="4.65517">
        <ele>213</ele>
        <time>2016-08-23T08:52:51Z</time>
      </trkpt>
      <trkpt lat="45.85781" lon="4.65511">
        <ele>213</ele>
        <time>2016-08-23T08:52:52Z</time>
      </trkpt>
      <trkpt lat="45.85778" lon="4.65505">
        <ele>213</ele>
        <time>2016-08-23T08:52:53Z</time>
      </trkpt>
      <trkpt lat="45.85775" lon="4.65498">
        <ele>214</ele>
        <time>2016-08-23T08:52:54Z</time>
      </trkpt>
      <trkpt lat="45.85773" lon="4.65491">
        <ele>214</ele>
        <time>2016-08-23T08:52:55Z</time>
      </trkpt>
      <trkpt lat="45.8577" lon="4.65484">
        <ele>214</ele>
        <time>2016-08-23T08:52:56Z</time>
      </trkpt>
      <trkpt lat="45.85768" lon="4.65477">
        <ele>214</ele>
        <time>2016-08-23T08:52:57Z</time>
      </trkpt>
      <trkpt lat="45.85766" lon="4.6547">
        <ele>215</ele>
        <time>2016-08-23T08:52:58Z</time>
      </trkpt>
      <trkpt lat="45.85763" lon="4.65462">
        <ele>215</ele>
        <time>2016-08-23T08:52:59Z</time>
      </trkpt>
      <trkpt lat="45.85761" lon="4.65454">
        <ele>215</ele>
        <time>2016-08-23T08:53:00Z</time>
      </trkpt>
      <trkpt lat="45.85758" lon="4.65447">
        <ele>215</ele>
        <time>2016-08-23T08:53:01Z</time>
      </trkpt>
      <trkpt lat="45.85755" lon="4.6544">
        <ele>215</ele>
        <time>2016-08-23T08:53:02Z</time>
      </trkpt>
      <trkpt lat="45.85752" lon="4.65432">
        <ele>215</ele>
        <time>2016-08-23T08:53:03Z</time>
      </trkpt>
      <trkpt lat="45.8575" lon="4.65424">
        <ele>215</ele>
        <time>2016-08-23T08:53:04Z</time>
      </trkpt>
      <trkpt lat="45.85748" lon="4.65417">
        <ele>214</ele>
        <time>2016-08-23T08:53:05Z</time>
      </trkpt>
      <trkpt lat="45.85746" lon="4.65409">
        <ele>214</ele>
        <time>2016-08-23T08:53:06Z</time>
      </trkpt>
      <trkpt lat="45.85744" lon="4.65402">
        <ele>214</ele>
        <time>2016-08-23T08:53:07Z</time>
      </trkpt>
      <trkpt lat="45.85741" lon="4.65394">
        <ele>214</ele>
        <time>2016-08-23T08:53:08Z</time>
      </trkpt>
      <trkpt lat="45.85739" lon="4.65386">
        <ele>214</ele>
        <time>2016-08-23T08:53:09Z</time>
      </trkpt>
      <trkpt lat="45.85736" lon="4.65379">
        <ele>214</ele>
        <time>2016-08-23T08:53:10Z</time>
      </trkpt>
      <trkpt lat="45.85733" lon="4.65372">
        <ele>215</ele>
        <time>2016-08-23T08:53:11Z</time>
      </trkpt>
      <trkpt lat="45.8573" lon="4.65365">
        <ele>215</ele>
        <time>2016-08-23T08:53:12Z</time>
      </trkpt>
      <trkpt lat="45.85727" lon="4.65358">
        <ele>215</ele>
        <time>2016-08-23T08:53:13Z</time>
      </trkpt>
      <trkpt lat="45.85724" lon="4.65351">
        <ele>215</ele>
        <time>2016-08-23T08:53:14Z</time>
      </trkpt>
      <trkpt lat="45.8572" lon="4.65345">
        <ele>215</ele>
        <time>2016-08-23T08:53:15Z</time>
      </trkpt>
      <trkpt lat="45.85716" lon="4.65339">
        <ele>215</ele>
        <time>2016-08-23T08:53:16Z</time>
      </trkpt>
      <trkpt lat="45.85713" lon="4.65332">
        <ele>218</ele>
        <time>2016-08-23T08:53:17Z</time>
      </trkpt>
      <trkpt lat="45.85709" lon="4.65325">
        <ele>218</ele>
        <time>2016-08-23T08:53:18Z</time>
      </trkpt>
      <trkpt lat="45.85707" lon="4.65318">
        <ele>218</ele>
        <time>2016-08-23T08:53:19Z</time>
      </trkpt>
      <trkpt lat="45.85705" lon="4.65312">
        <ele>218</ele>
        <time>2016-08-23T08:53:20Z</time>
      </trkpt>
      <trkpt lat="45.85701" lon="4.65306">
        <ele>218</ele>
        <time>2016-08-23T08:53:21Z</time>
      </trkpt>
      <trkpt lat="45.85696" lon="4.65301">
        <ele>218</ele>
        <time>2016-08-23T08:53:22Z</time>
      </trkpt>
      <trkpt lat="45.85692" lon="4.65295">
        <ele>218</ele>
        <time>2016-08-23T08:53:23Z</time>
      </trkpt>
      <trkpt lat="45.85686" lon="4.6529">
        <ele>218</ele>
        <time>2016-08-23T08:53:24Z</time>
      </trkpt>
      <trkpt lat="45.8568" lon="4.65284">
        <ele>218</ele>
        <time>2016-08-23T08:53:25Z</time>
      </trkpt>
      <trkpt lat="45.85674" lon="4.65279">
        <ele>218</ele>
        <time>2016-08-23T08:53:26Z</time>
      </trkpt>
      <trkpt lat="45.85667" lon="4.65275">
        <ele>218</ele>
        <time>2016-08-23T08:53:27Z</time>
      </trkpt>
      <trkpt lat="45.85661" lon="4.6527">
        <ele>215</ele>
        <time>2016-08-23T08:53:28Z</time>
      </trkpt>
      <trkpt lat="45.85656" lon="4.65266">
        <ele>215</ele>
        <time>2016-08-23T08:53:29Z</time>
      </trkpt>
      <trkpt lat="45.8565" lon="4.65263">
        <ele>215</ele>
        <time>2016-08-23T08:53:30Z</time>
      </trkpt>
      <trkpt lat="45.85645" lon="4.6526">
        <ele>215</ele>
        <time>2016-08-23T08:53:31Z</time>
      </trkpt>
      <trkpt lat="45.85639" lon="4.65256">
        <ele>214</ele>
        <time>2016-08-23T08:53:32Z</time>
      </trkpt>
      <trkpt lat="45.85634" lon="4.65252">
        <ele>214</ele>
        <time>2016-08-23T08:53:33Z</time>
      </trkpt>
      <trkpt lat="45.85628" lon="4.65248">
        <ele>217</ele>
        <time>2016-08-23T08:53:34Z</time>
      </trkpt>
      <trkpt lat="45.85622" lon="4.65245">
        <ele>217</ele>
        <time>2016-08-23T08:53:35Z</time>
      </trkpt>
      <trkpt lat="45.85616" lon="4.65242">
        <ele>216</ele>
        <time>2016-08-23T08:53:36Z</time>
      </trkpt>
      <trkpt lat="45.85609" lon="4.6524">
        <ele>216</ele>
        <time>2016-08-23T08:53:37Z</time>
      </trkpt>
      <trkpt lat="45.85603" lon="4.65237">
        <ele>216</ele>
        <time>2016-08-23T08:53:38Z</time>
      </trkpt>
      <trkpt lat="45.85597" lon="4.65234">
        <ele>215</ele>
        <time>2016-08-23T08:53:39Z</time>
      </trkpt>
      <trkpt lat="45.8559" lon="4.65232">
        <ele>215</ele>
        <time>2016-08-23T08:53:40Z</time>
      </trkpt>
      <trkpt lat="45.85584" lon="4.65229">
        <ele>215</ele>
        <time>2016-08-23T08:53:41Z</time>
      </trkpt>
      <trkpt lat="45.85578" lon="4.65226">
        <ele>213</ele>
        <time>2016-08-23T08:53:42Z</time>
      </trkpt>
      <trkpt lat="45.85572" lon="4.65223">
        <ele>213</ele>
        <time>2016-08-23T08:53:43Z</time>
      </trkpt>
      <trkpt lat="45.85566" lon="4.6522">
        <ele>214</ele>
        <time>2016-08-23T08:53:44Z</time>
      </trkpt>
      <trkpt lat="45.85561" lon="4.65218">
        <ele>214</ele>
        <time>2016-08-23T08:53:45Z</time>
      </trkpt>
      <trkpt lat="45.85555" lon="4.65214">
        <ele>214</ele>
        <time>2016-08-23T08:53:46Z</time>
      </trkpt>
      <trkpt lat="45.85549" lon="4.65211">
        <ele>214</ele>
        <time>2016-08-23T08:53:47Z</time>
      </trkpt>
      <trkpt lat="45.85543" lon="4.65207">
        <ele>214</ele>
        <time>2016-08-23T08:53:48Z</time>
      </trkpt>
      <trkpt lat="45.85538" lon="4.65203">
        <ele>214</ele>
        <time>2016-08-23T08:53:49Z</time>
      </trkpt>
      <trkpt lat="45.85533" lon="4.65199">
        <ele>214</ele>
        <time>2016-08-23T08:53:50Z</time>
      </trkpt>
      <trkpt lat="45.85528" lon="4.65195">
        <ele>214</ele>
        <time>2016-08-23T08:53:51Z</time>
      </trkpt>
      <trkpt lat="45.85523" lon="4.6519">
        <ele>214</ele>
        <time>2016-08-23T08:53:52Z</time>
      </trkpt>
      <trkpt lat="45.85518" lon="4.65185">
        <ele>214</ele>
        <time>2016-08-23T08:53:53Z</time>
      </trkpt>
      <trkpt lat="45.85513" lon="4.6518">
        <ele>214</ele>
        <time>2016-08-23T08:53:54Z</time>
      </trkpt>
      <trkpt lat="45.85507" lon="4.65174">
        <ele>214</ele>
        <time>2016-08-23T08:53:55Z</time>
      </trkpt>
      <trkpt lat="45.85503" lon="4.65169">
        <ele>214</ele>
        <time>2016-08-23T08:53:56Z</time>
      </trkpt>
      <trkpt lat="45.85498" lon="4.65164">
        <ele>215</ele>
        <time>2016-08-23T08:53:57Z</time>
      </trkpt>
      <trkpt lat="45.85492" lon="4.65159">
        <ele>216</ele>
        <time>2016-08-23T08:53:58Z</time>
      </trkpt>
      <trkpt lat="45.85487" lon="4.65154">
        <ele>217</ele>
        <time>2016-08-23T08:53:59Z</time>
      </trkpt>
      <trkpt lat="45.85482" lon="4.65149">
        <ele>217</ele>
        <time>2016-08-23T08:54:00Z</time>
      </trkpt>
      <trkpt lat="45.85477" lon="4.65145">
        <ele>218</ele>
        <time>2016-08-23T08:54:01Z</time>
      </trkpt>
      <trkpt lat="45.85471" lon="4.6514">
        <ele>218</ele>
        <time>2016-08-23T08:54:02Z</time>
      </trkpt>
      <trkpt lat="45.85466" lon="4.65135">
        <ele>219</ele>
        <time>2016-08-23T08:54:03Z</time>
      </trkpt>
      <trkpt lat="45.85461" lon="4.6513">
        <ele>219</ele>
        <time>2016-08-23T08:54:04Z</time>
      </trkpt>
      <trkpt lat="45.85455" lon="4.65125">
        <ele>219</ele>
        <time>2016-08-23T08:54:05Z</time>
      </trkpt>
      <trkpt lat="45.8545" lon="4.6512">
        <ele>220</ele>
        <time>2016-08-23T08:54:06Z</time>
      </trkpt>
      <trkpt lat="45.85445" lon="4.65114">
        <ele>220</ele>
        <time>2016-08-23T08:54:07Z</time>
      </trkpt>
      <trkpt lat="45.85441" lon="4.65109">
        <ele>220</ele>
        <time>2016-08-23T08:54:08Z</time>
      </trkpt>
      <trkpt lat="45.85435" lon="4.65104">
        <ele>220</ele>
        <time>2016-08-23T08:54:09Z</time>
      </trkpt>
      <trkpt lat="45.85429" lon="4.651">
        <ele>221</ele>
        <time>2016-08-23T08:54:10Z</time>
      </trkpt>
      <trkpt lat="45.85423" lon="4.65095">
        <ele>221</ele>
        <time>2016-08-23T08:54:11Z</time>
      </trkpt>
      <trkpt lat="45.85417" lon="4.65089">
        <ele>221</ele>
        <time>2016-08-23T08:54:12Z</time>
      </trkpt>
      <trkpt lat="45.85412" lon="4.65082">
        <ele>222</ele>
        <time>2016-08-23T08:54:13Z</time>
      </trkpt>
      <trkpt lat="45.85407" lon="4.65076">
        <ele>222</ele>
        <time>2016-08-23T08:54:14Z</time>
      </trkpt>
      <trkpt lat="45.85402" lon="4.6507">
        <ele>222</ele>
        <time>2016-08-23T08:54:15Z</time>
      </trkpt>
      <trkpt lat="45.85397" lon="4.65063">
        <ele>222</ele>
        <time>2016-08-23T08:54:16Z</time>
      </trkpt>
      <trkpt lat="45.85393" lon="4.65057">
        <ele>222</ele>
        <time>2016-08-23T08:54:17Z</time>
      </trkpt>
      <trkpt lat="45.85388" lon="4.65052">
        <ele>222</ele>
        <time>2016-08-23T08:54:18Z</time>
      </trkpt>
      <trkpt lat="45.85383" lon="4.65045">
        <ele>222</ele>
        <time>2016-08-23T08:54:19Z</time>
      </trkpt>
      <trkpt lat="45.85378" lon="4.6504">
        <ele>222</ele>
        <time>2016-08-23T08:54:20Z</time>
      </trkpt>
      <trkpt lat="45.85372" lon="4.65035">
        <ele>222</ele>
        <time>2016-08-23T08:54:21Z</time>
      </trkpt>
      <trkpt lat="45.85367" lon="4.6503">
        <ele>222</ele>
        <time>2016-08-23T08:54:22Z</time>
      </trkpt>
      <trkpt lat="45.85362" lon="4.65025">
        <ele>221</ele>
        <time>2016-08-23T08:54:23Z</time>
      </trkpt>
      <trkpt lat="45.85356" lon="4.6502">
        <ele>221</ele>
        <time>2016-08-23T08:54:24Z</time>
      </trkpt>
      <trkpt lat="45.85351" lon="4.65014">
        <ele>220</ele>
        <time>2016-08-23T08:54:25Z</time>
      </trkpt>
      <trkpt lat="45.85346" lon="4.65008">
        <ele>219</ele>
        <time>2016-08-23T08:54:26Z</time>
      </trkpt>
      <trkpt lat="45.85341" lon="4.65004">
        <ele>218</ele>
        <time>2016-08-23T08:54:27Z</time>
      </trkpt>
      <trkpt lat="45.85335" lon="4.64998">
        <ele>218</ele>
        <time>2016-08-23T08:54:28Z</time>
      </trkpt>
      <trkpt lat="45.85329" lon="4.64993">
        <ele>217</ele>
        <time>2016-08-23T08:54:29Z</time>
      </trkpt>
      <trkpt lat="45.85324" lon="4.64986">
        <ele>218</ele>
        <time>2016-08-23T08:54:30Z</time>
      </trkpt>
      <trkpt lat="45.85319" lon="4.64979">
        <ele>218</ele>
        <time>2016-08-23T08:54:31Z</time>
      </trkpt>
      <trkpt lat="45.85314" lon="4.64972">
        <ele>218</ele>
        <time>2016-08-23T08:54:32Z</time>
      </trkpt>
      <trkpt lat="45.85309" lon="4.64966">
        <ele>218</ele>
        <time>2016-08-23T08:54:33Z</time>
      </trkpt>
      <trkpt lat="45.85304" lon="4.6496">
        <ele>218</ele>
        <time>2016-08-23T08:54:34Z</time>
      </trkpt>
      <trkpt lat="45.85298" lon="4.64954">
        <ele>218</ele>
        <time>2016-08-23T08:54:35Z</time>
      </trkpt>
      <trkpt lat="45.85293" lon="4.64948">
        <ele>218</ele>
        <time>2016-08-23T08:54:36Z</time>
      </trkpt>
      <trkpt lat="45.85289" lon="4.64941">
        <ele>218</ele>
        <time>2016-08-23T08:54:37Z</time>
      </trkpt>
      <trkpt lat="45.85284" lon="4.64934">
        <ele>218</ele>
        <time>2016-08-23T08:54:38Z</time>
      </trkpt>
      <trkpt lat="45.8528" lon="4.64927">
        <ele>217</ele>
        <time>2016-08-23T08:54:39Z</time>
      </trkpt>
      <trkpt lat="45.85276" lon="4.64919">
        <ele>217</ele>
        <time>2016-08-23T08:54:40Z</time>
      </trkpt>
      <trkpt lat="45.85272" lon="4.64912">
        <ele>220</ele>
        <time>2016-08-23T08:54:41Z</time>
      </trkpt>
      <trkpt lat="45.85267" lon="4.64906">
        <ele>219</ele>
        <time>2016-08-23T08:54:42Z</time>
      </trkpt>
      <trkpt lat="45.85263" lon="4.649">
        <ele>220</ele>
        <time>2016-08-23T08:54:43Z</time>
      </trkpt>
      <trkpt lat="45.85259" lon="4.64893">
        <ele>220</ele>
        <time>2016-08-23T08:54:44Z</time>
      </trkpt>
      <trkpt lat="45.85254" lon="4.64886">
        <ele>221</ele>
        <time>2016-08-23T08:54:45Z</time>
      </trkpt>
      <trkpt lat="45.8525" lon="4.6488">
        <ele>217</ele>
        <time>2016-08-23T08:54:46Z</time>
      </trkpt>
      <trkpt lat="45.85246" lon="4.64872">
        <ele>218</ele>
        <time>2016-08-23T08:54:47Z</time>
      </trkpt>
      <trkpt lat="45.85242" lon="4.64867">
        <ele>218</ele>
        <time>2016-08-23T08:54:48Z</time>
      </trkpt>
      <trkpt lat="45.85237" lon="4.64861">
        <ele>219</ele>
        <time>2016-08-23T08:54:49Z</time>
      </trkpt>
      <trkpt lat="45.85232" lon="4.64854">
        <ele>219</ele>
        <time>2016-08-23T08:54:50Z</time>
      </trkpt>
      <trkpt lat="45.85228" lon="4.64847">
        <ele>219</ele>
        <time>2016-08-23T08:54:51Z</time>
      </trkpt>
      <trkpt lat="45.85224" lon="4.64841">
        <ele>219</ele>
        <time>2016-08-23T08:54:52Z</time>
      </trkpt>
      <trkpt lat="45.8522" lon="4.64834">
        <ele>219</ele>
        <time>2016-08-23T08:54:53Z</time>
      </trkpt>
      <trkpt lat="45.85216" lon="4.64827">
        <ele>222</ele>
        <time>2016-08-23T08:54:54Z</time>
      </trkpt>
      <trkpt lat="45.85212" lon="4.64819">
        <ele>222</ele>
        <time>2016-08-23T08:54:55Z</time>
      </trkpt>
      <trkpt lat="45.85207" lon="4.64812">
        <ele>222</ele>
        <time>2016-08-23T08:54:56Z</time>
      </trkpt>
      <trkpt lat="45.85202" lon="4.64805">
        <ele>222</ele>
        <time>2016-08-23T08:54:57Z</time>
      </trkpt>
      <trkpt lat="45.85198" lon="4.64798">
        <ele>222</ele>
        <time>2016-08-23T08:54:58Z</time>
      </trkpt>
      <trkpt lat="45.85194" lon="4.64792">
        <ele>222</ele>
        <time>2016-08-23T08:54:59Z</time>
      </trkpt>
      <trkpt lat="45.8519" lon="4.64785">
        <ele>222</ele>
        <time>2016-08-23T08:55:00Z</time>
      </trkpt>
      <trkpt lat="45.85186" lon="4.64778">
        <ele>222</ele>
        <time>2016-08-23T08:55:01Z</time>
      </trkpt>
      <trkpt lat="45.85183" lon="4.6477">
        <ele>222</ele>
        <time>2016-08-23T08:55:02Z</time>
      </trkpt>
      <trkpt lat="45.8518" lon="4.64762">
        <ele>222</ele>
        <time>2016-08-23T08:55:03Z</time>
      </trkpt>
      <trkpt lat="45.85177" lon="4.64755">
        <ele>221</ele>
        <time>2016-08-23T08:55:04Z</time>
      </trkpt>
      <trkpt lat="45.85174" lon="4.64747">
        <ele>223</ele>
        <time>2016-08-23T08:55:05Z</time>
      </trkpt>
      <trkpt lat="45.85172" lon="4.64738">
        <ele>224</ele>
        <time>2016-08-23T08:55:06Z</time>
      </trkpt>
      <trkpt lat="45.85169" lon="4.6473">
        <ele>226</ele>
        <time>2016-08-23T08:55:07Z</time>
      </trkpt>
      <trkpt lat="45.85167" lon="4.64722">
        <ele>222</ele>
        <time>2016-08-23T08:55:08Z</time>
      </trkpt>
      <trkpt lat="45.85164" lon="4.64714">
        <ele>223</ele>
        <time>2016-08-23T08:55:09Z</time>
      </trkpt>
      <trkpt lat="45.85161" lon="4.64706">
        <ele>223</ele>
        <time>2016-08-23T08:55:10Z</time>
      </trkpt>
      <trkpt lat="45.85159" lon="4.64696">
        <ele>224</ele>
        <time>2016-08-23T08:55:11Z</time>
      </trkpt>
      <trkpt lat="45.85157" lon="4.64687">
        <ele>224</ele>
        <time>2016-08-23T08:55:12Z</time>
      </trkpt>
      <trkpt lat="45.85155" lon="4.64678">
        <ele>225</ele>
        <time>2016-08-23T08:55:13Z</time>
      </trkpt>
      <trkpt lat="45.85152" lon="4.64669">
        <ele>225</ele>
        <time>2016-08-23T08:55:14Z</time>
      </trkpt>
      <trkpt lat="45.85149" lon="4.6466">
        <ele>226</ele>
        <time>2016-08-23T08:55:15Z</time>
      </trkpt>
      <trkpt lat="45.85147" lon="4.64651">
        <ele>226</ele>
        <time>2016-08-23T08:55:16Z</time>
      </trkpt>
      <trkpt lat="45.85145" lon="4.64641">
        <ele>226</ele>
        <time>2016-08-23T08:55:17Z</time>
      </trkpt>
      <trkpt lat="45.85142" lon="4.64632">
        <ele>226</ele>
        <time>2016-08-23T08:55:18Z</time>
      </trkpt>
      <trkpt lat="45.85141" lon="4.64622">
        <ele>226</ele>
        <time>2016-08-23T08:55:19Z</time>
      </trkpt>
      <trkpt lat="45.85139" lon="4.64613">
        <ele>226</ele>
        <time>2016-08-23T08:55:20Z</time>
      </trkpt>
      <trkpt lat="45.85136" lon="4.64604">
        <ele>226</ele>
        <time>2016-08-23T08:55:21Z</time>
      </trkpt>
      <trkpt lat="45.85135" lon="4.64595">
        <ele>226</ele>
        <time>2016-08-23T08:55:22Z</time>
      </trkpt>
      <trkpt lat="45.85131" lon="4.64585">
        <ele>226</ele>
        <time>2016-08-23T08:55:23Z</time>
      </trkpt>
      <trkpt lat="45.8513" lon="4.64576">
        <ele>227</ele>
        <time>2016-08-23T08:55:24Z</time>
      </trkpt>
      <trkpt lat="45.85129" lon="4.64569">
        <ele>227</ele>
        <time>2016-08-23T08:55:25Z</time>
      </trkpt>
      <trkpt lat="45.85128" lon="4.6456">
        <ele>227</ele>
        <time>2016-08-23T08:55:26Z</time>
      </trkpt>
      <trkpt lat="45.85127" lon="4.64552">
        <ele>227</ele>
        <time>2016-08-23T08:55:27Z</time>
      </trkpt>
      <trkpt lat="45.85124" lon="4.64543">
        <ele>227</ele>
        <time>2016-08-23T08:55:28Z</time>
      </trkpt>
      <trkpt lat="45.85121" lon="4.64536">
        <ele>227</ele>
        <time>2016-08-23T08:55:29Z</time>
      </trkpt>
      <trkpt lat="45.85117" lon="4.6453">
        <ele>227</ele>
        <time>2016-08-23T08:55:30Z</time>
      </trkpt>
      <trkpt lat="45.85113" lon="4.64523">
        <ele>227</ele>
        <time>2016-08-23T08:55:31Z</time>
      </trkpt>
      <trkpt lat="45.85109" lon="4.64515">
        <ele>226</ele>
        <time>2016-08-23T08:55:32Z</time>
      </trkpt>
      <trkpt lat="45.85105" lon="4.64508">
        <ele>226</ele>
        <time>2016-08-23T08:55:33Z</time>
      </trkpt>
      <trkpt lat="45.85102" lon="4.64501">
        <ele>226</ele>
        <time>2016-08-23T08:55:34Z</time>
      </trkpt>
      <trkpt lat="45.85099" lon="4.64494">
        <ele>226</ele>
        <time>2016-08-23T08:55:35Z</time>
      </trkpt>
      <trkpt lat="45.85097" lon="4.64486">
        <ele>227</ele>
        <time>2016-08-23T08:55:36Z</time>
      </trkpt>
      <trkpt lat="45.85094" lon="4.64478">
        <ele>227</ele>
        <time>2016-08-23T08:55:37Z</time>
      </trkpt>
      <trkpt lat="45.85091" lon="4.64471">
        <ele>227</ele>
        <time>2016-08-23T08:55:38Z</time>
      </trkpt>
      <trkpt lat="45.85087" lon="4.64463">
        <ele>227</ele>
        <time>2016-08-23T08:55:39Z</time>
      </trkpt>
      <trkpt lat="45.85084" lon="4.64456">
        <ele>227</ele>
        <time>2016-08-23T08:55:40Z</time>
      </trkpt>
      <trkpt lat="45.85082" lon="4.64449">
        <ele>226</ele>
        <time>2016-08-23T08:55:41Z</time>
      </trkpt>
      <trkpt lat="45.85078" lon="4.64443">
        <ele>226</ele>
        <time>2016-08-23T08:55:42Z</time>
      </trkpt>
      <trkpt lat="45.85074" lon="4.64436">
        <ele>226</ele>
        <time>2016-08-23T08:55:43Z</time>
      </trkpt>
      <trkpt lat="45.85071" lon="4.64429">
        <ele>226</ele>
        <time>2016-08-23T08:55:44Z</time>
      </trkpt>
      <trkpt lat="45.85068" lon="4.64423">
        <ele>226</ele>
        <time>2016-08-23T08:55:45Z</time>
      </trkpt>
      <trkpt lat="45.85065" lon="4.64416">
        <ele>226</ele>
        <time>2016-08-23T08:55:46Z</time>
      </trkpt>
      <trkpt lat="45.85062" lon="4.64409">
        <ele>226</ele>
        <time>2016-08-23T08:55:47Z</time>
      </trkpt>
      <trkpt lat="45.85059" lon="4.64402">
        <ele>226</ele>
        <time>2016-08-23T08:55:48Z</time>
      </trkpt>
      <trkpt lat="45.85056" lon="4.64396">
        <ele>226</ele>
        <time>2016-08-23T08:55:49Z</time>
      </trkpt>
      <trkpt lat="45.85052" lon="4.64389">
        <ele>226</ele>
        <time>2016-08-23T08:55:50Z</time>
      </trkpt>
      <trkpt lat="45.8505" lon="4.64382">
        <ele>226</ele>
        <time>2016-08-23T08:55:51Z</time>
      </trkpt>
      <trkpt lat="45.85048" lon="4.64375">
        <ele>226</ele>
        <time>2016-08-23T08:55:52Z</time>
      </trkpt>
      <trkpt lat="45.85044" lon="4.64369">
        <ele>226</ele>
        <time>2016-08-23T08:55:53Z</time>
      </trkpt>
      <trkpt lat="45.85041" lon="4.64363">
        <ele>226</ele>
        <time>2016-08-23T08:55:54Z</time>
      </trkpt>
      <trkpt lat="45.85037" lon="4.64351">
        <ele>226</ele>
        <time>2016-08-23T08:55:56Z</time>
      </trkpt>
      <trkpt lat="45.85033" lon="4.64346">
        <ele>226</ele>
        <time>2016-08-23T08:55:57Z</time>
      </trkpt>
      <trkpt lat="45.8503" lon="4.6434">
        <ele>225</ele>
        <time>2016-08-23T08:55:58Z</time>
      </trkpt>
      <trkpt lat="45.85026" lon="4.64335">
        <ele>225</ele>
        <time>2016-08-23T08:55:59Z</time>
      </trkpt>
      <trkpt lat="45.85022" lon="4.64331">
        <ele>227</ele>
        <time>2016-08-23T08:56:00Z</time>
      </trkpt>
      <trkpt lat="45.85018" lon="4.64326">
        <ele>227</ele>
        <time>2016-08-23T08:56:01Z</time>
      </trkpt>
      <trkpt lat="45.85014" lon="4.64322">
        <ele>226</ele>
        <time>2016-08-23T08:56:02Z</time>
      </trkpt>
      <trkpt lat="45.8501" lon="4.64317">
        <ele>227</ele>
        <time>2016-08-23T08:56:03Z</time>
      </trkpt>
      <trkpt lat="45.85006" lon="4.64312">
        <ele>227</ele>
        <time>2016-08-23T08:56:04Z</time>
      </trkpt>
      <trkpt lat="45.85001" lon="4.64308">
        <ele>227</ele>
        <time>2016-08-23T08:56:05Z</time>
      </trkpt>
      <trkpt lat="45.84997" lon="4.64303">
        <ele>225</ele>
        <time>2016-08-23T08:56:06Z</time>
      </trkpt>
      <trkpt lat="45.84993" lon="4.64298">
        <ele>225</ele>
        <time>2016-08-23T08:56:07Z</time>
      </trkpt>
      <trkpt lat="45.84988" lon="4.64293">
        <ele>226</ele>
        <time>2016-08-23T08:56:08Z</time>
      </trkpt>
      <trkpt lat="45.84983" lon="4.64288">
        <ele>226</ele>
        <time>2016-08-23T08:56:09Z</time>
      </trkpt>
      <trkpt lat="45.84978" lon="4.64283">
        <ele>226</ele>
        <time>2016-08-23T08:56:10Z</time>
      </trkpt>
      <trkpt lat="45.84973" lon="4.64278">
        <ele>226</ele>
        <time>2016-08-23T08:56:11Z</time>
      </trkpt>
      <trkpt lat="45.84968" lon="4.64273">
        <ele>226</ele>
        <time>2016-08-23T08:56:12Z</time>
      </trkpt>
      <trkpt lat="45.84964" lon="4.64266">
        <ele>226</ele>
        <time>2016-08-23T08:56:13Z</time>
      </trkpt>
      <trkpt lat="45.8496" lon="4.6426">
        <ele>226</ele>
        <time>2016-08-23T08:56:14Z</time>
      </trkpt>
      <trkpt lat="45.84955" lon="4.64255">
        <ele>226</ele>
        <time>2016-08-23T08:56:15Z</time>
      </trkpt>
      <trkpt lat="45.84951" lon="4.6425">
        <ele>225</ele>
        <time>2016-08-23T08:56:16Z</time>
      </trkpt>
      <trkpt lat="45.84947" lon="4.64245">
        <ele>229</ele>
        <time>2016-08-23T08:56:17Z</time>
      </trkpt>
      <trkpt lat="45.84941" lon="4.64239">
        <ele>229</ele>
        <time>2016-08-23T08:56:18Z</time>
      </trkpt>
      <trkpt lat="45.84935" lon="4.64233">
        <ele>229</ele>
        <time>2016-08-23T08:56:19Z</time>
      </trkpt>
      <trkpt lat="45.84929" lon="4.64227">
        <ele>229</ele>
        <time>2016-08-23T08:56:20Z</time>
      </trkpt>
      <trkpt lat="45.84924" lon="4.6422">
        <ele>230</ele>
        <time>2016-08-23T08:56:21Z</time>
      </trkpt>
      <trkpt lat="45.8492" lon="4.64213">
        <ele>230</ele>
        <time>2016-08-23T08:56:22Z</time>
      </trkpt>
      <trkpt lat="45.84917" lon="4.64206">
        <ele>226</ele>
        <time>2016-08-23T08:56:23Z</time>
      </trkpt>
      <trkpt lat="45.84912" lon="4.64199">
        <ele>227</ele>
        <time>2016-08-23T08:56:24Z</time>
      </trkpt>
      <trkpt lat="45.84909" lon="4.64192">
        <ele>227</ele>
        <time>2016-08-23T08:56:25Z</time>
      </trkpt>
      <trkpt lat="45.84907" lon="4.64184">
        <ele>228</ele>
        <time>2016-08-23T08:56:26Z</time>
      </trkpt>
      <trkpt lat="45.84905" lon="4.64176">
        <ele>229</ele>
        <time>2016-08-23T08:56:27Z</time>
      </trkpt>
      <trkpt lat="45.84903" lon="4.64168">
        <ele>229</ele>
        <time>2016-08-23T08:56:28Z</time>
      </trkpt>
      <trkpt lat="45.849" lon="4.64161">
        <ele>230</ele>
        <time>2016-08-23T08:56:29Z</time>
      </trkpt>
      <trkpt lat="45.84899" lon="4.64152">
        <ele>230</ele>
        <time>2016-08-23T08:56:30Z</time>
      </trkpt>
      <trkpt lat="45.84898" lon="4.64144">
        <ele>229</ele>
        <time>2016-08-23T08:56:31Z</time>
      </trkpt>
      <trkpt lat="45.84896" lon="4.64137">
        <ele>229</ele>
        <time>2016-08-23T08:56:32Z</time>
      </trkpt>
      <trkpt lat="45.84895" lon="4.64128">
        <ele>229</ele>
        <time>2016-08-23T08:56:33Z</time>
      </trkpt>
      <trkpt lat="45.84894" lon="4.6412">
        <ele>229</ele>
        <time>2016-08-23T08:56:34Z</time>
      </trkpt>
      <trkpt lat="45.84892" lon="4.64113">
        <ele>229</ele>
        <time>2016-08-23T08:56:35Z</time>
      </trkpt>
      <trkpt lat="45.84891" lon="4.64106">
        <ele>229</ele>
        <time>2016-08-23T08:56:36Z</time>
      </trkpt>
      <trkpt lat="45.8489" lon="4.64097">
        <ele>230</ele>
        <time>2016-08-23T08:56:37Z</time>
      </trkpt>
      <trkpt lat="45.84888" lon="4.64089">
        <ele>230</ele>
        <time>2016-08-23T08:56:38Z</time>
      </trkpt>
      <trkpt lat="45.84887" lon="4.64082">
        <ele>230</ele>
        <time>2016-08-23T08:56:39Z</time>
      </trkpt>
      <trkpt lat="45.84886" lon="4.64074">
        <ele>230</ele>
        <time>2016-08-23T08:56:40Z</time>
      </trkpt>
      <trkpt lat="45.84885" lon="4.64065">
        <ele>230</ele>
        <time>2016-08-23T08:56:41Z</time>
      </trkpt>
      <trkpt lat="45.84884" lon="4.64057">
        <ele>230</ele>
        <time>2016-08-23T08:56:42Z</time>
      </trkpt>
      <trkpt lat="45.84884" lon="4.64049">
        <ele>230</ele>
        <time>2016-08-23T08:56:43Z</time>
      </trkpt>
      <trkpt lat="45.84883" lon="4.6404">
        <ele>229</ele>
        <time>2016-08-23T08:56:44Z</time>
      </trkpt>
      <trkpt lat="45.84883" lon="4.64032">
        <ele>230</ele>
        <time>2016-08-23T08:56:45Z</time>
      </trkpt>
      <trkpt lat="45.84882" lon="4.64024">
        <ele>230</ele>
        <time>2016-08-23T08:56:46Z</time>
      </trkpt>
      <trkpt lat="45.84883" lon="4.64016">
        <ele>230</ele>
        <time>2016-08-23T08:56:47Z</time>
      </trkpt>
      <trkpt lat="45.84884" lon="4.64007">
        <ele>230</ele>
        <time>2016-08-23T08:56:48Z</time>
      </trkpt>
      <trkpt lat="45.84886" lon="4.63999">
        <ele>230</ele>
        <time>2016-08-23T08:56:49Z</time>
      </trkpt>
      <trkpt lat="45.84887" lon="4.6399">
        <ele>230</ele>
        <time>2016-08-23T08:56:50Z</time>
      </trkpt>
      <trkpt lat="45.84888" lon="4.63981">
        <ele>230</ele>
        <time>2016-08-23T08:56:51Z</time>
      </trkpt>
      <trkpt lat="45.8489" lon="4.63973">
        <ele>230</ele>
        <time>2016-08-23T08:56:52Z</time>
      </trkpt>
      <trkpt lat="45.84893" lon="4.63965">
        <ele>230</ele>
        <time>2016-08-23T08:56:53Z</time>
      </trkpt>
      <trkpt lat="45.84894" lon="4.63957">
        <ele>230</ele>
        <time>2016-08-23T08:56:54Z</time>
      </trkpt>
      <trkpt lat="45.84896" lon="4.63949">
        <ele>230</ele>
        <time>2016-08-23T08:56:55Z</time>
      </trkpt>
      <trkpt lat="45.84898" lon="4.63941">
        <ele>230</ele>
        <time>2016-08-23T08:56:56Z</time>
      </trkpt>
      <trkpt lat="45.84899" lon="4.63933">
        <ele>230</ele>
        <time>2016-08-23T08:56:57Z</time>
      </trkpt>
      <trkpt lat="45.84901" lon="4.63925">
        <ele>231</ele>
        <time>2016-08-23T08:56:58Z</time>
      </trkpt>
      <trkpt lat="45.84903" lon="4.63916">
        <ele>231</ele>
        <time>2016-08-23T08:56:59Z</time>
      </trkpt>
      <trkpt lat="45.84903" lon="4.63909">
        <ele>231</ele>
        <time>2016-08-23T08:57:00Z</time>
      </trkpt>
      <trkpt lat="45.84903" lon="4.639">
        <ele>230</ele>
        <time>2016-08-23T08:57:01Z</time>
      </trkpt>
      <trkpt lat="45.84903" lon="4.63891">
        <ele>230</ele>
        <time>2016-08-23T08:57:02Z</time>
      </trkpt>
      <trkpt lat="45.84903" lon="4.63882">
        <ele>230</ele>
        <time>2016-08-23T08:57:03Z</time>
      </trkpt>
      <trkpt lat="45.84903" lon="4.63874">
        <ele>230</ele>
        <time>2016-08-23T08:57:04Z</time>
      </trkpt>
      <trkpt lat="45.84902" lon="4.63866">
        <ele>231</ele>
        <time>2016-08-23T08:57:05Z</time>
      </trkpt>
      <trkpt lat="45.849" lon="4.63856">
        <ele>231</ele>
        <time>2016-08-23T08:57:06Z</time>
      </trkpt>
      <trkpt lat="45.84898" lon="4.63849">
        <ele>231</ele>
        <time>2016-08-23T08:57:07Z</time>
      </trkpt>
      <trkpt lat="45.84895" lon="4.63841">
        <ele>231</ele>
        <time>2016-08-23T08:57:08Z</time>
      </trkpt>
      <trkpt lat="45.84893" lon="4.63835">
        <ele>231</ele>
        <time>2016-08-23T08:57:09Z</time>
      </trkpt>
      <trkpt lat="45.84891" lon="4.63829">
        <ele>234</ele>
        <time>2016-08-23T08:57:10Z</time>
      </trkpt>
      <trkpt lat="45.84888" lon="4.63822">
        <ele>234</ele>
        <time>2016-08-23T08:57:11Z</time>
      </trkpt>
      <trkpt lat="45.84886" lon="4.63816">
        <ele>233</ele>
        <time>2016-08-23T08:57:12Z</time>
      </trkpt>
      <trkpt lat="45.84883" lon="4.63809">
        <ele>233</ele>
        <time>2016-08-23T08:57:13Z</time>
      </trkpt>
      <trkpt lat="45.8488" lon="4.63803">
        <ele>233</ele>
        <time>2016-08-23T08:57:14Z</time>
      </trkpt>
      <trkpt lat="45.84875" lon="4.63796">
        <ele>233</ele>
        <time>2016-08-23T08:57:15Z</time>
      </trkpt>
      <trkpt lat="45.8487" lon="4.63788">
        <ele>233</ele>
        <time>2016-08-23T08:57:16Z</time>
      </trkpt>
      <trkpt lat="45.84865" lon="4.6378">
        <ele>232</ele>
        <time>2016-08-23T08:57:17Z</time>
      </trkpt>
      <trkpt lat="45.84861" lon="4.63773">
        <ele>232</ele>
        <time>2016-08-23T08:57:18Z</time>
      </trkpt>
      <trkpt lat="45.84856" lon="4.63766">
        <ele>231</ele>
        <time>2016-08-23T08:57:19Z</time>
      </trkpt>
      <trkpt lat="45.8485" lon="4.6376">
        <ele>231</ele>
        <time>2016-08-23T08:57:20Z</time>
      </trkpt>
      <trkpt lat="45.84845" lon="4.63753">
        <ele>229</ele>
        <time>2016-08-23T08:57:21Z</time>
      </trkpt>
      <trkpt lat="45.8484" lon="4.63748">
        <ele>230</ele>
        <time>2016-08-23T08:57:22Z</time>
      </trkpt>
      <trkpt lat="45.84834" lon="4.63742">
        <ele>230</ele>
        <time>2016-08-23T08:57:23Z</time>
      </trkpt>
      <trkpt lat="45.84827" lon="4.63736">
        <ele>226</ele>
        <time>2016-08-23T08:57:24Z</time>
      </trkpt>
      <trkpt lat="45.8482" lon="4.6373">
        <ele>226</ele>
        <time>2016-08-23T08:57:25Z</time>
      </trkpt>
      <trkpt lat="45.84814" lon="4.63725">
        <ele>226</ele>
        <time>2016-08-23T08:57:26Z</time>
      </trkpt>
      <trkpt lat="45.84807" lon="4.6372">
        <ele>225</ele>
        <time>2016-08-23T08:57:27Z</time>
      </trkpt>
      <trkpt lat="45.848" lon="4.63716">
        <ele>225</ele>
        <time>2016-08-23T08:57:28Z</time>
      </trkpt>
      <trkpt lat="45.84793" lon="4.63712">
        <ele>225</ele>
        <time>2016-08-23T08:57:29Z</time>
      </trkpt>
      <trkpt lat="45.84787" lon="4.63708">
        <ele>224</ele>
        <time>2016-08-23T08:57:30Z</time>
      </trkpt>
      <trkpt lat="45.8478" lon="4.63703">
        <ele>224</ele>
        <time>2016-08-23T08:57:31Z</time>
      </trkpt>
      <trkpt lat="45.84773" lon="4.63698">
        <ele>224</ele>
        <time>2016-08-23T08:57:32Z</time>
      </trkpt>
      <trkpt lat="45.84767" lon="4.63693">
        <ele>224</ele>
        <time>2016-08-23T08:57:33Z</time>
      </trkpt>
      <trkpt lat="45.84759" lon="4.63687">
        <ele>223</ele>
        <time>2016-08-23T08:57:34Z</time>
      </trkpt>
      <trkpt lat="45.84753" lon="4.63682">
        <ele>223</ele>
        <time>2016-08-23T08:57:35Z</time>
      </trkpt>
      <trkpt lat="45.84747" lon="4.63676">
        <ele>220</ele>
        <time>2016-08-23T08:57:36Z</time>
      </trkpt>
      <trkpt lat="45.8474" lon="4.6367">
        <ele>220</ele>
        <time>2016-08-23T08:57:37Z</time>
      </trkpt>
      <trkpt lat="45.84734" lon="4.63666">
        <ele>221</ele>
        <time>2016-08-23T08:57:38Z</time>
      </trkpt>
      <trkpt lat="45.84728" lon="4.6366">
        <ele>221</ele>
        <time>2016-08-23T08:57:39Z</time>
      </trkpt>
      <trkpt lat="45.84722" lon="4.63654">
        <ele>220</ele>
        <time>2016-08-23T08:57:40Z</time>
      </trkpt>
      <trkpt lat="45.84717" lon="4.63646">
        <ele>220</ele>
        <time>2016-08-23T08:57:41Z</time>
      </trkpt>
      <trkpt lat="45.84713" lon="4.63638">
        <ele>220</ele>
        <time>2016-08-23T08:57:42Z</time>
      </trkpt>
      <trkpt lat="45.84709" lon="4.6363">
        <ele>220</ele>
        <time>2016-08-23T08:57:43Z</time>
      </trkpt>
      <trkpt lat="45.84707" lon="4.63621">
        <ele>221</ele>
        <time>2016-08-23T08:57:44Z</time>
      </trkpt>
      <trkpt lat="45.84704" lon="4.63612">
        <ele>221</ele>
        <time>2016-08-23T08:57:45Z</time>
      </trkpt>
      <trkpt lat="45.84702" lon="4.63602">
        <ele>221</ele>
        <time>2016-08-23T08:57:46Z</time>
      </trkpt>
      <trkpt lat="45.84701" lon="4.63592">
        <ele>221</ele>
        <time>2016-08-23T08:57:47Z</time>
      </trkpt>
      <trkpt lat="45.84701" lon="4.63582">
        <ele>222</ele>
        <time>2016-08-23T08:57:48Z</time>
      </trkpt>
      <trkpt lat="45.84701" lon="4.63572">
        <ele>222</ele>
        <time>2016-08-23T08:57:49Z</time>
      </trkpt>
      <trkpt lat="45.847" lon="4.63561">
        <ele>222</ele>
        <time>2016-08-23T08:57:50Z</time>
      </trkpt>
      <trkpt lat="45.847" lon="4.63551">
        <ele>222</ele>
        <time>2016-08-23T08:57:51Z</time>
      </trkpt>
      <trkpt lat="45.84698" lon="4.63541">
        <ele>222</ele>
        <time>2016-08-23T08:57:52Z</time>
      </trkpt>
      <trkpt lat="45.84696" lon="4.63532">
        <ele>222</ele>
        <time>2016-08-23T08:57:53Z</time>
      </trkpt>
      <trkpt lat="45.84693" lon="4.63524">
        <ele>222</ele>
        <time>2016-08-23T08:57:54Z</time>
      </trkpt>
      <trkpt lat="45.8469" lon="4.63516">
        <ele>222</ele>
        <time>2016-08-23T08:57:55Z</time>
      </trkpt>
      <trkpt lat="45.84687" lon="4.63508">
        <ele>221</ele>
        <time>2016-08-23T08:57:56Z</time>
      </trkpt>
      <trkpt lat="45.84683" lon="4.635">
        <ele>222</ele>
        <time>2016-08-23T08:57:57Z</time>
      </trkpt>
      <trkpt lat="45.84679" lon="4.63493">
        <ele>221</ele>
        <time>2016-08-23T08:57:58Z</time>
      </trkpt>
      <trkpt lat="45.84674" lon="4.63487">
        <ele>222</ele>
        <time>2016-08-23T08:57:59Z</time>
      </trkpt>
      <trkpt lat="45.84671" lon="4.63482">
        <ele>222</ele>
        <time>2016-08-23T08:58:00Z</time>
      </trkpt>
      <trkpt lat="45.84666" lon="4.63476">
        <ele>219</ele>
        <time>2016-08-23T08:58:01Z</time>
      </trkpt>
      <trkpt lat="45.8466" lon="4.63468">
        <ele>219</ele>
        <time>2016-08-23T08:58:03Z</time>
      </trkpt>
      <trkpt lat="45.84654" lon="4.63463">
        <ele>219</ele>
        <time>2016-08-23T08:58:04Z</time>
      </trkpt>
      <trkpt lat="45.84649" lon="4.6346">
        <ele>219</ele>
        <time>2016-08-23T08:58:05Z</time>
      </trkpt>
      <trkpt lat="45.84644" lon="4.63455">
        <ele>220</ele>
        <time>2016-08-23T08:58:06Z</time>
      </trkpt>
      <trkpt lat="45.84638" lon="4.63451">
        <ele>220</ele>
        <time>2016-08-23T08:58:07Z</time>
      </trkpt>
      <trkpt lat="45.84633" lon="4.63447">
        <ele>219</ele>
        <time>2016-08-23T08:58:08Z</time>
      </trkpt>
      <trkpt lat="45.84625" lon="4.63441">
        <ele>219</ele>
        <time>2016-08-23T08:58:09Z</time>
      </trkpt>
      <trkpt lat="45.84619" lon="4.63437">
        <ele>219</ele>
        <time>2016-08-23T08:58:10Z</time>
      </trkpt>
      <trkpt lat="45.84614" lon="4.63432">
        <ele>219</ele>
        <time>2016-08-23T08:58:11Z</time>
      </trkpt>
      <trkpt lat="45.84607" lon="4.63428">
        <ele>219</ele>
        <time>2016-08-23T08:58:12Z</time>
      </trkpt>
      <trkpt lat="45.84602" lon="4.63423">
        <ele>218</ele>
        <time>2016-08-23T08:58:13Z</time>
      </trkpt>
      <trkpt lat="45.84597" lon="4.63419">
        <ele>218</ele>
        <time>2016-08-23T08:58:14Z</time>
      </trkpt>
      <trkpt lat="45.84592" lon="4.63414">
        <ele>219</ele>
        <time>2016-08-23T08:58:15Z</time>
      </trkpt>
      <trkpt lat="45.84586" lon="4.63409">
        <ele>219</ele>
        <time>2016-08-23T08:58:16Z</time>
      </trkpt>
      <trkpt lat="45.8458" lon="4.63405">
        <ele>218</ele>
        <time>2016-08-23T08:58:17Z</time>
      </trkpt>
      <trkpt lat="45.84574" lon="4.634">
        <ele>219</ele>
        <time>2016-08-23T08:58:18Z</time>
      </trkpt>
      <trkpt lat="45.84569" lon="4.63395">
        <ele>219</ele>
        <time>2016-08-23T08:58:19Z</time>
      </trkpt>
      <trkpt lat="45.84563" lon="4.63391">
        <ele>219</ele>
        <time>2016-08-23T08:58:20Z</time>
      </trkpt>
      <trkpt lat="45.84558" lon="4.63387">
        <ele>220</ele>
        <time>2016-08-23T08:58:21Z</time>
      </trkpt>
      <trkpt lat="45.84552" lon="4.63383">
        <ele>220</ele>
        <time>2016-08-23T08:58:22Z</time>
      </trkpt>
      <trkpt lat="45.84547" lon="4.63379">
        <ele>220</ele>
        <time>2016-08-23T08:58:23Z</time>
      </trkpt>
      <trkpt lat="45.84542" lon="4.63376">
        <ele>220</ele>
        <time>2016-08-23T08:58:24Z</time>
      </trkpt>
      <trkpt lat="45.84537" lon="4.63373">
        <ele>220</ele>
        <time>2016-08-23T08:58:25Z</time>
      </trkpt>
      <trkpt lat="45.84531" lon="4.6337">
        <ele>221</ele>
        <time>2016-08-23T08:58:26Z</time>
      </trkpt>
      <trkpt lat="45.84526" lon="4.63367">
        <ele>221</ele>
        <time>2016-08-23T08:58:27Z</time>
      </trkpt>
      <trkpt lat="45.84519" lon="4.63366">
        <ele>221</ele>
        <time>2016-08-23T08:58:28Z</time>
      </trkpt>
      <trkpt lat="45.84513" lon="4.63364">
        <ele>221</ele>
        <time>2016-08-23T08:58:29Z</time>
      </trkpt>
      <trkpt lat="45.84507" lon="4.63363">
        <ele>222</ele>
        <time>2016-08-23T08:58:30Z</time>
      </trkpt>
      <trkpt lat="45.845" lon="4.63363">
        <ele>222</ele>
        <time>2016-08-23T08:58:31Z</time>
      </trkpt>
      <trkpt lat="45.84493" lon="4.63363">
        <ele>222</ele>
        <time>2016-08-23T08:58:32Z</time>
      </trkpt>
      <trkpt lat="45.84486" lon="4.63364">
        <ele>222</ele>
        <time>2016-08-23T08:58:33Z</time>
      </trkpt>
      <trkpt lat="45.84479" lon="4.63364">
        <ele>222</ele>
        <time>2016-08-23T08:58:34Z</time>
      </trkpt>
      <trkpt lat="45.84473" lon="4.63363">
        <ele>222</ele>
        <time>2016-08-23T08:58:35Z</time>
      </trkpt>
      <trkpt lat="45.84466" lon="4.63363">
        <ele>222</ele>
        <time>2016-08-23T08:58:36Z</time>
      </trkpt>
      <trkpt lat="45.84459" lon="4.63364">
        <ele>222</ele>
        <time>2016-08-23T08:58:37Z</time>
      </trkpt>
      <trkpt lat="45.84453" lon="4.63364">
        <ele>222</ele>
        <time>2016-08-23T08:58:38Z</time>
      </trkpt>
      <trkpt lat="45.84446" lon="4.63364">
        <ele>222</ele>
        <time>2016-08-23T08:58:39Z</time>
      </trkpt>
      <trkpt lat="45.8444" lon="4.63366">
        <ele>222</ele>
        <time>2016-08-23T08:58:40Z</time>
      </trkpt>
      <trkpt lat="45.84433" lon="4.63366">
        <ele>222</ele>
        <time>2016-08-23T08:58:41Z</time>
      </trkpt>
      <trkpt lat="45.84427" lon="4.63367">
        <ele>222</ele>
        <time>2016-08-23T08:58:42Z</time>
      </trkpt>
      <trkpt lat="45.84421" lon="4.63369">
        <ele>222</ele>
        <time>2016-08-23T08:58:43Z</time>
      </trkpt>
      <trkpt lat="45.84414" lon="4.63371">
        <ele>223</ele>
        <time>2016-08-23T08:58:44Z</time>
      </trkpt>
      <trkpt lat="45.84408" lon="4.63373">
        <ele>223</ele>
        <time>2016-08-23T08:58:45Z</time>
      </trkpt>
      <trkpt lat="45.84402" lon="4.63375">
        <ele>223</ele>
        <time>2016-08-23T08:58:46Z</time>
      </trkpt>
      <trkpt lat="45.84395" lon="4.63377">
        <ele>222</ele>
        <time>2016-08-23T08:58:47Z</time>
      </trkpt>
      <trkpt lat="45.84389" lon="4.6338">
        <ele>222</ele>
        <time>2016-08-23T08:58:48Z</time>
      </trkpt>
      <trkpt lat="45.84383" lon="4.63383">
        <ele>222</ele>
        <time>2016-08-23T08:58:49Z</time>
      </trkpt>
      <trkpt lat="45.84377" lon="4.63388">
        <ele>222</ele>
        <time>2016-08-23T08:58:50Z</time>
      </trkpt>
      <trkpt lat="45.84371" lon="4.63391">
        <ele>222</ele>
        <time>2016-08-23T08:58:51Z</time>
      </trkpt>
      <trkpt lat="45.84365" lon="4.63394">
        <ele>222</ele>
        <time>2016-08-23T08:58:52Z</time>
      </trkpt>
      <trkpt lat="45.84358" lon="4.63395">
        <ele>222</ele>
        <time>2016-08-23T08:58:53Z</time>
      </trkpt>
      <trkpt lat="45.84352" lon="4.63397">
        <ele>222</ele>
        <time>2016-08-23T08:58:54Z</time>
      </trkpt>
      <trkpt lat="45.84346" lon="4.63399">
        <ele>222</ele>
        <time>2016-08-23T08:58:55Z</time>
      </trkpt>
      <trkpt lat="45.84339" lon="4.63401">
        <ele>222</ele>
        <time>2016-08-23T08:58:56Z</time>
      </trkpt>
      <trkpt lat="45.84334" lon="4.63402">
        <ele>221</ele>
        <time>2016-08-23T08:58:57Z</time>
      </trkpt>
      <trkpt lat="45.84327" lon="4.63402">
        <ele>222</ele>
        <time>2016-08-23T08:58:58Z</time>
      </trkpt>
      <trkpt lat="45.84322" lon="4.63403">
        <ele>223</ele>
        <time>2016-08-23T08:58:59Z</time>
      </trkpt>
      <trkpt lat="45.84315" lon="4.63403">
        <ele>223</ele>
        <time>2016-08-23T08:59:00Z</time>
      </trkpt>
      <trkpt lat="45.84308" lon="4.63404">
        <ele>223</ele>
        <time>2016-08-23T08:59:01Z</time>
      </trkpt>
      <trkpt lat="45.84302" lon="4.63405">
        <ele>224</ele>
        <time>2016-08-23T08:59:02Z</time>
      </trkpt>
      <trkpt lat="45.84295" lon="4.63405">
        <ele>224</ele>
        <time>2016-08-23T08:59:03Z</time>
      </trkpt>
      <trkpt lat="45.84289" lon="4.63405">
        <ele>224</ele>
        <time>2016-08-23T08:59:04Z</time>
      </trkpt>
      <trkpt lat="45.84282" lon="4.63406">
        <ele>224</ele>
        <time>2016-08-23T08:59:05Z</time>
      </trkpt>
      <trkpt lat="45.84277" lon="4.63408">
        <ele>224</ele>
        <time>2016-08-23T08:59:06Z</time>
      </trkpt>
      <trkpt lat="45.84273" lon="4.63411">
        <ele>224</ele>
        <time>2016-08-23T08:59:07Z</time>
      </trkpt>
      <trkpt lat="45.84268" lon="4.63412">
        <ele>224</ele>
        <time>2016-08-23T08:59:08Z</time>
      </trkpt>
      <trkpt lat="45.84263" lon="4.63412">
        <ele>224</ele>
        <time>2016-08-23T08:59:09Z</time>
      </trkpt>
      <trkpt lat="45.84258" lon="4.63409">
        <ele>224</ele>
        <time>2016-08-23T08:59:10Z</time>
      </trkpt>
      <trkpt lat="45.84253" lon="4.63406">
        <ele>224</ele>
        <time>2016-08-23T08:59:12Z</time>
      </trkpt>
      <trkpt lat="45.84248" lon="4.63401">
        <ele>224</ele>
        <time>2016-08-23T08:59:13Z</time>
      </trkpt>
      <trkpt lat="45.84243" lon="4.63396">
        <ele>225</ele>
        <time>2016-08-23T08:59:14Z</time>
      </trkpt>
      <trkpt lat="45.84238" lon="4.63391">
        <ele>225</ele>
        <time>2016-08-23T08:59:15Z</time>
      </trkpt>
      <trkpt lat="45.84233" lon="4.63385">
        <ele>225</ele>
        <time>2016-08-23T08:59:16Z</time>
      </trkpt>
      <trkpt lat="45.84228" lon="4.6338">
        <ele>225</ele>
        <time>2016-08-23T08:59:17Z</time>
      </trkpt>
      <trkpt lat="45.84224" lon="4.63374">
        <ele>225</ele>
        <time>2016-08-23T08:59:18Z</time>
      </trkpt>
      <trkpt lat="45.84219" lon="4.63368">
        <ele>225</ele>
        <time>2016-08-23T08:59:19Z</time>
      </trkpt>
      <trkpt lat="45.84214" lon="4.63362">
        <ele>225</ele>
        <time>2016-08-23T08:59:20Z</time>
      </trkpt>
      <trkpt lat="45.84209" lon="4.63355">
        <ele>225</ele>
        <time>2016-08-23T08:59:21Z</time>
      </trkpt>
      <trkpt lat="45.84204" lon="4.63348">
        <ele>225</ele>
        <time>2016-08-23T08:59:22Z</time>
      </trkpt>
      <trkpt lat="45.84199" lon="4.63341">
        <ele>225</ele>
        <time>2016-08-23T08:59:23Z</time>
      </trkpt>
      <trkpt lat="45.84195" lon="4.63333">
        <ele>226</ele>
        <time>2016-08-23T08:59:24Z</time>
      </trkpt>
      <trkpt lat="45.84191" lon="4.63327">
        <ele>226</ele>
        <time>2016-08-23T08:59:25Z</time>
      </trkpt>
      <trkpt lat="45.84187" lon="4.63321">
        <ele>226</ele>
        <time>2016-08-23T08:59:26Z</time>
      </trkpt>
      <trkpt lat="45.84183" lon="4.63314">
        <ele>226</ele>
        <time>2016-08-23T08:59:27Z</time>
      </trkpt>
      <trkpt lat="45.84179" lon="4.63307">
        <ele>226</ele>
        <time>2016-08-23T08:59:28Z</time>
      </trkpt>
      <trkpt lat="45.84175" lon="4.633">
        <ele>227</ele>
        <time>2016-08-23T08:59:29Z</time>
      </trkpt>
      <trkpt lat="45.8417" lon="4.63293">
        <ele>227</ele>
        <time>2016-08-23T08:59:30Z</time>
      </trkpt>
      <trkpt lat="45.84166" lon="4.63286">
        <ele>225</ele>
        <time>2016-08-23T08:59:31Z</time>
      </trkpt>
      <trkpt lat="45.84162" lon="4.63278">
        <ele>225</ele>
        <time>2016-08-23T08:59:32Z</time>
      </trkpt>
      <trkpt lat="45.84158" lon="4.63271">
        <ele>225</ele>
        <time>2016-08-23T08:59:33Z</time>
      </trkpt>
      <trkpt lat="45.84154" lon="4.63263">
        <ele>225</ele>
        <time>2016-08-23T08:59:34Z</time>
      </trkpt>
      <trkpt lat="45.84148" lon="4.63257">
        <ele>225</ele>
        <time>2016-08-23T08:59:35Z</time>
      </trkpt>
      <trkpt lat="45.84143" lon="4.63251">
        <ele>225</ele>
        <time>2016-08-23T08:59:36Z</time>
      </trkpt>
      <trkpt lat="45.84138" lon="4.63245">
        <ele>225</ele>
        <time>2016-08-23T08:59:37Z</time>
      </trkpt>
      <trkpt lat="45.84134" lon="4.63237">
        <ele>225</ele>
        <time>2016-08-23T08:59:38Z</time>
      </trkpt>
      <trkpt lat="45.8413" lon="4.6323">
        <ele>225</ele>
        <time>2016-08-23T08:59:39Z</time>
      </trkpt>
      <trkpt lat="45.84126" lon="4.63222">
        <ele>225</ele>
        <time>2016-08-23T08:59:40Z</time>
      </trkpt>
      <trkpt lat="45.84123" lon="4.63216">
        <ele>225</ele>
        <time>2016-08-23T08:59:41Z</time>
      </trkpt>
      <trkpt lat="45.84119" lon="4.63209">
        <ele>225</ele>
        <time>2016-08-23T08:59:42Z</time>
      </trkpt>
      <trkpt lat="45.84115" lon="4.63201">
        <ele>225</ele>
        <time>2016-08-23T08:59:43Z</time>
      </trkpt>
      <trkpt lat="45.84112" lon="4.63194">
        <ele>225</ele>
        <time>2016-08-23T08:59:44Z</time>
      </trkpt>
      <trkpt lat="45.84108" lon="4.63187">
        <ele>225</ele>
        <time>2016-08-23T08:59:45Z</time>
      </trkpt>
      <trkpt lat="45.84104" lon="4.63179">
        <ele>225</ele>
        <time>2016-08-23T08:59:46Z</time>
      </trkpt>
      <trkpt lat="45.84101" lon="4.63171">
        <ele>224</ele>
        <time>2016-08-23T08:59:47Z</time>
      </trkpt>
      <trkpt lat="45.84097" lon="4.63163">
        <ele>225</ele>
        <time>2016-08-23T08:59:48Z</time>
      </trkpt>
      <trkpt lat="45.84093" lon="4.63155">
        <ele>225</ele>
        <time>2016-08-23T08:59:49Z</time>
      </trkpt>
      <trkpt lat="45.8409" lon="4.63147">
        <ele>226</ele>
        <time>2016-08-23T08:59:50Z</time>
      </trkpt>
      <trkpt lat="45.84087" lon="4.63138">
        <ele>226</ele>
        <time>2016-08-23T08:59:51Z</time>
      </trkpt>
      <trkpt lat="45.84084" lon="4.6313">
        <ele>227</ele>
        <time>2016-08-23T08:59:52Z</time>
      </trkpt>
      <trkpt lat="45.84082" lon="4.63122">
        <ele>225</ele>
        <time>2016-08-23T08:59:53Z</time>
      </trkpt>
      <trkpt lat="45.8408" lon="4.63114">
        <ele>225</ele>
        <time>2016-08-23T08:59:54Z</time>
      </trkpt>
      <trkpt lat="45.84078" lon="4.63106">
        <ele>225</ele>
        <time>2016-08-23T08:59:55Z</time>
      </trkpt>
      <trkpt lat="45.84077" lon="4.63098">
        <ele>225</ele>
        <time>2016-08-23T08:59:56Z</time>
      </trkpt>
      <trkpt lat="45.84076" lon="4.6309">
        <ele>224</ele>
        <time>2016-08-23T08:59:57Z</time>
      </trkpt>
      <trkpt lat="45.84074" lon="4.63082">
        <ele>224</ele>
        <time>2016-08-23T08:59:58Z</time>
      </trkpt>
      <trkpt lat="45.84073" lon="4.63074">
        <ele>224</ele>
        <time>2016-08-23T08:59:59Z</time>
      </trkpt>
      <trkpt lat="45.84073" lon="4.63064">
        <ele>224</ele>
        <time>2016-08-23T09:00:00Z</time>
      </trkpt>
      <trkpt lat="45.84072" lon="4.63055">
        <ele>224</ele>
        <time>2016-08-23T09:00:01Z</time>
      </trkpt>
      <trkpt lat="45.84072" lon="4.63045">
        <ele>224</ele>
        <time>2016-08-23T09:00:02Z</time>
      </trkpt>
      <trkpt lat="45.84071" lon="4.63035">
        <ele>224</ele>
        <time>2016-08-23T09:00:03Z</time>
      </trkpt>
      <trkpt lat="45.8407" lon="4.63025">
        <ele>224</ele>
        <time>2016-08-23T09:00:04Z</time>
      </trkpt>
      <trkpt lat="45.8407" lon="4.63016">
        <ele>224</ele>
        <time>2016-08-23T09:00:05Z</time>
      </trkpt>
      <trkpt lat="45.8407" lon="4.63007">
        <ele>225</ele>
        <time>2016-08-23T09:00:06Z</time>
      </trkpt>
      <trkpt lat="45.8407" lon="4.62999">
        <ele>225</ele>
        <time>2016-08-23T09:00:07Z</time>
      </trkpt>
      <trkpt lat="45.84071" lon="4.62991">
        <ele>225</ele>
        <time>2016-08-23T09:00:08Z</time>
      </trkpt>
      <trkpt lat="45.84072" lon="4.62983">
        <ele>225</ele>
        <time>2016-08-23T09:00:09Z</time>
      </trkpt>
      <trkpt lat="45.84072" lon="4.62974">
        <ele>225</ele>
        <time>2016-08-23T09:00:10Z</time>
      </trkpt>
      <trkpt lat="45.84072" lon="4.62966">
        <ele>225</ele>
        <time>2016-08-23T09:00:11Z</time>
      </trkpt>
      <trkpt lat="45.84072" lon="4.62956">
        <ele>226</ele>
        <time>2016-08-23T09:00:12Z</time>
      </trkpt>
      <trkpt lat="45.84073" lon="4.62949">
        <ele>226</ele>
        <time>2016-08-23T09:00:13Z</time>
      </trkpt>
      <trkpt lat="45.84074" lon="4.62941">
        <ele>226</ele>
        <time>2016-08-23T09:00:14Z</time>
      </trkpt>
      <trkpt lat="45.84075" lon="4.62934">
        <ele>227</ele>
        <time>2016-08-23T09:00:15Z</time>
      </trkpt>
      <trkpt lat="45.84076" lon="4.62925">
        <ele>227</ele>
        <time>2016-08-23T09:00:16Z</time>
      </trkpt>
      <trkpt lat="45.84077" lon="4.62917">
        <ele>228</ele>
        <time>2016-08-23T09:00:17Z</time>
      </trkpt>
      <trkpt lat="45.84077" lon="4.62909">
        <ele>228</ele>
        <time>2016-08-23T09:00:18Z</time>
      </trkpt>
      <trkpt lat="45.84077" lon="4.629">
        <ele>228</ele>
        <time>2016-08-23T09:00:19Z</time>
      </trkpt>
      <trkpt lat="45.84078" lon="4.62891">
        <ele>228</ele>
        <time>2016-08-23T09:00:20Z</time>
      </trkpt>
      <trkpt lat="45.84078" lon="4.62882">
        <ele>228</ele>
        <time>2016-08-23T09:00:21Z</time>
      </trkpt>
      <trkpt lat="45.84078" lon="4.62874">
        <ele>228</ele>
        <time>2016-08-23T09:00:22Z</time>
      </trkpt>
      <trkpt lat="45.84078" lon="4.62866">
        <ele>229</ele>
        <time>2016-08-23T09:00:23Z</time>
      </trkpt>
      <trkpt lat="45.84079" lon="4.62857">
        <ele>229</ele>
        <time>2016-08-23T09:00:24Z</time>
      </trkpt>
      <trkpt lat="45.8408" lon="4.62847">
        <ele>230</ele>
        <time>2016-08-23T09:00:25Z</time>
      </trkpt>
      <trkpt lat="45.84082" lon="4.62838">
        <ele>231</ele>
        <time>2016-08-23T09:00:26Z</time>
      </trkpt>
      <trkpt lat="45.84082" lon="4.62829">
        <ele>231</ele>
        <time>2016-08-23T09:00:27Z</time>
      </trkpt>
      <trkpt lat="45.84083" lon="4.62819">
        <ele>231</ele>
        <time>2016-08-23T09:00:28Z</time>
      </trkpt>
      <trkpt lat="45.84085" lon="4.6281">
        <ele>237</ele>
        <time>2016-08-23T09:00:29Z</time>
      </trkpt>
      <trkpt lat="45.84086" lon="4.62801">
        <ele>237</ele>
        <time>2016-08-23T09:00:30Z</time>
      </trkpt>
      <trkpt lat="45.84087" lon="4.62792">
        <ele>237</ele>
        <time>2016-08-23T09:00:31Z</time>
      </trkpt>
      <trkpt lat="45.84089" lon="4.62783">
        <ele>237</ele>
        <time>2016-08-23T09:00:32Z</time>
      </trkpt>
      <trkpt lat="45.8409" lon="4.62773">
        <ele>236</ele>
        <time>2016-08-23T09:00:33Z</time>
      </trkpt>
      <trkpt lat="45.84092" lon="4.62763">
        <ele>235</ele>
        <time>2016-08-23T09:00:34Z</time>
      </trkpt>
      <trkpt lat="45.84093" lon="4.62754">
        <ele>233</ele>
        <time>2016-08-23T09:00:35Z</time>
      </trkpt>
      <trkpt lat="45.84095" lon="4.62746">
        <ele>233</ele>
        <time>2016-08-23T09:00:36Z</time>
      </trkpt>
      <trkpt lat="45.84097" lon="4.62737">
        <ele>234</ele>
        <time>2016-08-23T09:00:37Z</time>
      </trkpt>
      <trkpt lat="45.84099" lon="4.62729">
        <ele>235</ele>
        <time>2016-08-23T09:00:38Z</time>
      </trkpt>
      <trkpt lat="45.841" lon="4.62721">
        <ele>236</ele>
        <time>2016-08-23T09:00:39Z</time>
      </trkpt>
      <trkpt lat="45.84102" lon="4.62713">
        <ele>236</ele>
        <time>2016-08-23T09:00:40Z</time>
      </trkpt>
      <trkpt lat="45.84104" lon="4.62705">
        <ele>236</ele>
        <time>2016-08-23T09:00:41Z</time>
      </trkpt>
      <trkpt lat="45.84106" lon="4.62696">
        <ele>236</ele>
        <time>2016-08-23T09:00:42Z</time>
      </trkpt>
      <trkpt lat="45.84106" lon="4.62687">
        <ele>235</ele>
        <time>2016-08-23T09:00:43Z</time>
      </trkpt>
      <trkpt lat="45.84107" lon="4.62678">
        <ele>234</ele>
        <time>2016-08-23T09:00:44Z</time>
      </trkpt>
      <trkpt lat="45.84107" lon="4.62669">
        <ele>234</ele>
        <time>2016-08-23T09:00:45Z</time>
      </trkpt>
      <trkpt lat="45.84108" lon="4.6266">
        <ele>234</ele>
        <time>2016-08-23T09:00:46Z</time>
      </trkpt>
      <trkpt lat="45.84109" lon="4.6265">
        <ele>234</ele>
        <time>2016-08-23T09:00:47Z</time>
      </trkpt>
      <trkpt lat="45.84108" lon="4.62641">
        <ele>235</ele>
        <time>2016-08-23T09:00:48Z</time>
      </trkpt>
      <trkpt lat="45.84106" lon="4.62633">
        <ele>235</ele>
        <time>2016-08-23T09:00:49Z</time>
      </trkpt>
      <trkpt lat="45.84105" lon="4.62625">
        <ele>235</ele>
        <time>2016-08-23T09:00:50Z</time>
      </trkpt>
      <trkpt lat="45.84102" lon="4.62616">
        <ele>234</ele>
        <time>2016-08-23T09:00:51Z</time>
      </trkpt>
      <trkpt lat="45.84101" lon="4.62608">
        <ele>234</ele>
        <time>2016-08-23T09:00:52Z</time>
      </trkpt>
      <trkpt lat="45.84098" lon="4.62599">
        <ele>232</ele>
        <time>2016-08-23T09:00:53Z</time>
      </trkpt>
      <trkpt lat="45.84095" lon="4.6259">
        <ele>230</ele>
        <time>2016-08-23T09:00:54Z</time>
      </trkpt>
      <trkpt lat="45.84092" lon="4.62582">
        <ele>229</ele>
        <time>2016-08-23T09:00:55Z</time>
      </trkpt>
      <trkpt lat="45.84088" lon="4.62573">
        <ele>230</ele>
        <time>2016-08-23T09:00:56Z</time>
      </trkpt>
      <trkpt lat="45.84085" lon="4.62565">
        <ele>232</ele>
        <time>2016-08-23T09:00:57Z</time>
      </trkpt>
      <trkpt lat="45.84082" lon="4.62556">
        <ele>226</ele>
        <time>2016-08-23T09:00:58Z</time>
      </trkpt>
      <trkpt lat="45.84079" lon="4.62547">
        <ele>227</ele>
        <time>2016-08-23T09:00:59Z</time>
      </trkpt>
      <trkpt lat="45.84076" lon="4.62539">
        <ele>227</ele>
        <time>2016-08-23T09:01:00Z</time>
      </trkpt>
      <trkpt lat="45.84074" lon="4.62531">
        <ele>227</ele>
        <time>2016-08-23T09:01:01Z</time>
      </trkpt>
      <trkpt lat="45.84072" lon="4.62523">
        <ele>228</ele>
        <time>2016-08-23T09:01:02Z</time>
      </trkpt>
      <trkpt lat="45.8407" lon="4.62515">
        <ele>228</ele>
        <time>2016-08-23T09:01:03Z</time>
      </trkpt>
      <trkpt lat="45.84069" lon="4.62507">
        <ele>228</ele>
        <time>2016-08-23T09:01:04Z</time>
      </trkpt>
      <trkpt lat="45.84068" lon="4.62499">
        <ele>229</ele>
        <time>2016-08-23T09:01:05Z</time>
      </trkpt>
      <trkpt lat="45.84065" lon="4.62491">
        <ele>229</ele>
        <time>2016-08-23T09:01:06Z</time>
      </trkpt>
      <trkpt lat="45.84063" lon="4.62482">
        <ele>228</ele>
        <time>2016-08-23T09:01:07Z</time>
      </trkpt>
      <trkpt lat="45.84061" lon="4.62473">
        <ele>228</ele>
        <time>2016-08-23T09:01:08Z</time>
      </trkpt>
      <trkpt lat="45.84059" lon="4.62464">
        <ele>228</ele>
        <time>2016-08-23T09:01:09Z</time>
      </trkpt>
      <trkpt lat="45.84058" lon="4.62454">
        <ele>228</ele>
        <time>2016-08-23T09:01:10Z</time>
      </trkpt>
      <trkpt lat="45.84055" lon="4.62445">
        <ele>228</ele>
        <time>2016-08-23T09:01:11Z</time>
      </trkpt>
      <trkpt lat="45.84054" lon="4.62435">
        <ele>228</ele>
        <time>2016-08-23T09:01:12Z</time>
      </trkpt>
      <trkpt lat="45.84054" lon="4.62426">
        <ele>228</ele>
        <time>2016-08-23T09:01:13Z</time>
      </trkpt>
      <trkpt lat="45.84055" lon="4.62416">
        <ele>228</ele>
        <time>2016-08-23T09:01:14Z</time>
      </trkpt>
      <trkpt lat="45.84055" lon="4.62406">
        <ele>228</ele>
        <time>2016-08-23T09:01:15Z</time>
      </trkpt>
      <trkpt lat="45.84055" lon="4.62396">
        <ele>228</ele>
        <time>2016-08-23T09:01:16Z</time>
      </trkpt>
      <trkpt lat="45.84056" lon="4.62387">
        <ele>227</ele>
        <time>2016-08-23T09:01:17Z</time>
      </trkpt>
      <trkpt lat="45.84057" lon="4.62378">
        <ele>227</ele>
        <time>2016-08-23T09:01:18Z</time>
      </trkpt>
      <trkpt lat="45.84058" lon="4.62368">
        <ele>227</ele>
        <time>2016-08-23T09:01:19Z</time>
      </trkpt>
      <trkpt lat="45.84058" lon="4.62359">
        <ele>227</ele>
        <time>2016-08-23T09:01:20Z</time>
      </trkpt>
      <trkpt lat="45.84057" lon="4.62348">
        <ele>227</ele>
        <time>2016-08-23T09:01:21Z</time>
      </trkpt>
      <trkpt lat="45.84055" lon="4.62338">
        <ele>227</ele>
        <time>2016-08-23T09:01:22Z</time>
      </trkpt>
      <trkpt lat="45.84054" lon="4.62327">
        <ele>227</ele>
        <time>2016-08-23T09:01:23Z</time>
      </trkpt>
      <trkpt lat="45.84051" lon="4.62317">
        <ele>227</ele>
        <time>2016-08-23T09:01:24Z</time>
      </trkpt>
      <trkpt lat="45.84049" lon="4.62308">
        <ele>227</ele>
        <time>2016-08-23T09:01:25Z</time>
      </trkpt>
      <trkpt lat="45.84046" lon="4.62298">
        <ele>227</ele>
        <time>2016-08-23T09:01:26Z</time>
      </trkpt>
      <trkpt lat="45.84043" lon="4.62289">
        <ele>227</ele>
        <time>2016-08-23T09:01:27Z</time>
      </trkpt>
      <trkpt lat="45.84039" lon="4.62279">
        <ele>227</ele>
        <time>2016-08-23T09:01:28Z</time>
      </trkpt>
      <trkpt lat="45.84036" lon="4.62271">
        <ele>227</ele>
        <time>2016-08-23T09:01:29Z</time>
      </trkpt>
      <trkpt lat="45.84033" lon="4.62263">
        <ele>227</ele>
        <time>2016-08-23T09:01:30Z</time>
      </trkpt>
      <trkpt lat="45.8403" lon="4.62257">
        <ele>226</ele>
        <time>2016-08-23T09:01:31Z</time>
      </trkpt>
      <trkpt lat="45.84026" lon="4.62249">
        <ele>230</ele>
        <time>2016-08-23T09:01:32Z</time>
      </trkpt>
      <trkpt lat="45.84021" lon="4.62241">
        <ele>230</ele>
        <time>2016-08-23T09:01:33Z</time>
      </trkpt>
      <trkpt lat="45.84016" lon="4.62233">
        <ele>230</ele>
        <time>2016-08-23T09:01:34Z</time>
      </trkpt>
      <trkpt lat="45.84011" lon="4.62226">
        <ele>231</ele>
        <time>2016-08-23T09:01:35Z</time>
      </trkpt>
      <trkpt lat="45.84006" lon="4.6222">
        <ele>231</ele>
        <time>2016-08-23T09:01:36Z</time>
      </trkpt>
      <trkpt lat="45.84003" lon="4.62213">
        <ele>232</ele>
        <time>2016-08-23T09:01:37Z</time>
      </trkpt>
      <trkpt lat="45.83999" lon="4.62207">
        <ele>229</ele>
        <time>2016-08-23T09:01:38Z</time>
      </trkpt>
      <trkpt lat="45.83995" lon="4.62201">
        <ele>230</ele>
        <time>2016-08-23T09:01:39Z</time>
      </trkpt>
      <trkpt lat="45.83989" lon="4.62195">
        <ele>230</ele>
        <time>2016-08-23T09:01:40Z</time>
      </trkpt>
      <trkpt lat="45.83985" lon="4.6219">
        <ele>230</ele>
        <time>2016-08-23T09:01:41Z</time>
      </trkpt>
      <trkpt lat="45.83978" lon="4.62185">
        <ele>230</ele>
        <time>2016-08-23T09:01:42Z</time>
      </trkpt>
      <trkpt lat="45.83972" lon="4.62181">
        <ele>230</ele>
        <time>2016-08-23T09:01:43Z</time>
      </trkpt>
      <trkpt lat="45.83967" lon="4.62178">
        <ele>230</ele>
        <time>2016-08-23T09:01:44Z</time>
      </trkpt>
      <trkpt lat="45.83962" lon="4.62174">
        <ele>230</ele>
        <time>2016-08-23T09:01:45Z</time>
      </trkpt>
      <trkpt lat="45.83957" lon="4.62171">
        <ele>230</ele>
        <time>2016-08-23T09:01:46Z</time>
      </trkpt>
      <trkpt lat="45.83953" lon="4.62167">
        <ele>229</ele>
        <time>2016-08-23T09:01:47Z</time>
      </trkpt>
      <trkpt lat="45.83947" lon="4.62165">
        <ele>237</ele>
        <time>2016-08-23T09:01:48Z</time>
      </trkpt>
      <trkpt lat="45.8394" lon="4.62163">
        <ele>236</ele>
        <time>2016-08-23T09:01:49Z</time>
      </trkpt>
      <trkpt lat="45.83934" lon="4.62161">
        <ele>235</ele>
        <time>2016-08-23T09:01:50Z</time>
      </trkpt>
      <trkpt lat="45.83927" lon="4.62158">
        <ele>234</ele>
        <time>2016-08-23T09:01:51Z</time>
      </trkpt>
      <trkpt lat="45.83921" lon="4.62156">
        <ele>234</ele>
        <time>2016-08-23T09:01:52Z</time>
      </trkpt>
      <trkpt lat="45.83914" lon="4.62155">
        <ele>232</ele>
        <time>2016-08-23T09:01:53Z</time>
      </trkpt>
      <trkpt lat="45.83907" lon="4.62155">
        <ele>233</ele>
        <time>2016-08-23T09:01:54Z</time>
      </trkpt>
      <trkpt lat="45.83901" lon="4.62155">
        <ele>233</ele>
        <time>2016-08-23T09:01:55Z</time>
      </trkpt>
      <trkpt lat="45.83894" lon="4.62154">
        <ele>234</ele>
        <time>2016-08-23T09:01:56Z</time>
      </trkpt>
      <trkpt lat="45.83886" lon="4.62153">
        <ele>234</ele>
        <time>2016-08-23T09:01:57Z</time>
      </trkpt>
      <trkpt lat="45.83878" lon="4.62155">
        <ele>234</ele>
        <time>2016-08-23T09:01:58Z</time>
      </trkpt>
      <trkpt lat="45.83871" lon="4.62155">
        <ele>234</ele>
        <time>2016-08-23T09:01:59Z</time>
      </trkpt>
      <trkpt lat="45.83864" lon="4.62156">
        <ele>233</ele>
        <time>2016-08-23T09:02:00Z</time>
      </trkpt>
      <trkpt lat="45.83855" lon="4.62162">
        <ele>232</ele>
        <time>2016-08-23T09:02:01Z</time>
      </trkpt>
      <trkpt lat="45.83849" lon="4.62162">
        <ele>231</ele>
        <time>2016-08-23T09:02:02Z</time>
      </trkpt>
      <trkpt lat="45.83842" lon="4.62164">
        <ele>229</ele>
        <time>2016-08-23T09:02:03Z</time>
      </trkpt>
      <trkpt lat="45.83835" lon="4.62164">
        <ele>227</ele>
        <time>2016-08-23T09:02:04Z</time>
      </trkpt>
      <trkpt lat="45.83828" lon="4.62164">
        <ele>227</ele>
        <time>2016-08-23T09:02:05Z</time>
      </trkpt>
      <trkpt lat="45.83822" lon="4.62164">
        <ele>228</ele>
        <time>2016-08-23T09:02:06Z</time>
      </trkpt>
      <trkpt lat="45.83816" lon="4.62164">
        <ele>228</ele>
        <time>2016-08-23T09:02:07Z</time>
      </trkpt>
      <trkpt lat="45.83811" lon="4.62164">
        <ele>228</ele>
        <time>2016-08-23T09:02:08Z</time>
      </trkpt>
      <trkpt lat="45.83807" lon="4.62164">
        <ele>228</ele>
        <time>2016-08-23T09:02:09Z</time>
      </trkpt>
      <trkpt lat="45.83799" lon="4.62161">
        <ele>228</ele>
        <time>2016-08-23T09:02:13Z</time>
      </trkpt>
      <trkpt lat="45.83797" lon="4.62158">
        <ele>229</ele>
        <time>2016-08-23T09:02:14Z</time>
      </trkpt>
      <trkpt lat="45.8379" lon="4.62155">
        <ele>229</ele>
        <time>2016-08-23T09:02:16Z</time>
      </trkpt>
      <trkpt lat="45.83785" lon="4.62154">
        <ele>228</ele>
        <time>2016-08-23T09:02:17Z</time>
      </trkpt>
      <trkpt lat="45.8378" lon="4.62155">
        <ele>228</ele>
        <time>2016-08-23T09:02:18Z</time>
      </trkpt>
      <trkpt lat="45.83774" lon="4.62157">
        <ele>228</ele>
        <time>2016-08-23T09:02:19Z</time>
      </trkpt>
      <trkpt lat="45.83769" lon="4.6216">
        <ele>227</ele>
        <time>2016-08-23T09:02:20Z</time>
      </trkpt>
      <trkpt lat="45.83764" lon="4.62164">
        <ele>227</ele>
        <time>2016-08-23T09:02:21Z</time>
      </trkpt>
      <trkpt lat="45.83761" lon="4.62169">
        <ele>227</ele>
        <time>2016-08-23T09:02:22Z</time>
      </trkpt>
      <trkpt lat="45.83758" lon="4.62174">
        <ele>227</ele>
        <time>2016-08-23T09:02:23Z</time>
      </trkpt>
      <trkpt lat="45.83755" lon="4.6218">
        <ele>228</ele>
        <time>2016-08-23T09:02:24Z</time>
      </trkpt>
      <trkpt lat="45.83752" lon="4.62185">
        <ele>228</ele>
        <time>2016-08-23T09:02:25Z</time>
      </trkpt>
      <trkpt lat="45.83745" lon="4.62192">
        <ele>234</ele>
        <time>2016-08-23T09:02:27Z</time>
      </trkpt>
      <trkpt lat="45.83741" lon="4.62193">
        <ele>234</ele>
        <time>2016-08-23T09:02:28Z</time>
      </trkpt>
      <trkpt lat="45.83736" lon="4.62191">
        <ele>234</ele>
        <time>2016-08-23T09:02:29Z</time>
      </trkpt>
      <trkpt lat="45.83731" lon="4.62189">
        <ele>234</ele>
        <time>2016-08-23T09:02:30Z</time>
      </trkpt>
      <trkpt lat="45.83726" lon="4.62186">
        <ele>234</ele>
        <time>2016-08-23T09:02:31Z</time>
      </trkpt>
      <trkpt lat="45.83721" lon="4.62183">
        <ele>235</ele>
        <time>2016-08-23T09:02:32Z</time>
      </trkpt>
      <trkpt lat="45.83716" lon="4.6218">
        <ele>235</ele>
        <time>2016-08-23T09:02:33Z</time>
      </trkpt>
      <trkpt lat="45.83711" lon="4.62178">
        <ele>235</ele>
        <time>2016-08-23T09:02:34Z</time>
      </trkpt>
      <trkpt lat="45.83707" lon="4.62175">
        <ele>235</ele>
        <time>2016-08-23T09:02:35Z</time>
      </trkpt>
      <trkpt lat="45.83702" lon="4.62171">
        <ele>235</ele>
        <time>2016-08-23T09:02:36Z</time>
      </trkpt>
      <trkpt lat="45.83696" lon="4.62166">
        <ele>228</ele>
        <time>2016-08-23T09:02:37Z</time>
      </trkpt>
      <trkpt lat="45.83691" lon="4.62163">
        <ele>228</ele>
        <time>2016-08-23T09:02:38Z</time>
      </trkpt>
      <trkpt lat="45.83685" lon="4.62159">
        <ele>229</ele>
        <time>2016-08-23T09:02:39Z</time>
      </trkpt>
      <trkpt lat="45.8368" lon="4.62155">
        <ele>229</ele>
        <time>2016-08-23T09:02:40Z</time>
      </trkpt>
      <trkpt lat="45.83675" lon="4.62152">
        <ele>229</ele>
        <time>2016-08-23T09:02:41Z</time>
      </trkpt>
      <trkpt lat="45.8367" lon="4.62148">
        <ele>229</ele>
        <time>2016-08-23T09:02:42Z</time>
      </trkpt>
      <trkpt lat="45.83665" lon="4.62145">
        <ele>231</ele>
        <time>2016-08-23T09:02:43Z</time>
      </trkpt>
      <trkpt lat="45.83659" lon="4.62141">
        <ele>231</ele>
        <time>2016-08-23T09:02:44Z</time>
      </trkpt>
      <trkpt lat="45.83654" lon="4.62138">
        <ele>231</ele>
        <time>2016-08-23T09:02:45Z</time>
      </trkpt>
      <trkpt lat="45.83649" lon="4.62134">
        <ele>230</ele>
        <time>2016-08-23T09:02:46Z</time>
      </trkpt>
      <trkpt lat="45.83642" lon="4.62129">
        <ele>230</ele>
        <time>2016-08-23T09:02:47Z</time>
      </trkpt>
      <trkpt lat="45.83637" lon="4.62126">
        <ele>230</ele>
        <time>2016-08-23T09:02:48Z</time>
      </trkpt>
      <trkpt lat="45.83632" lon="4.62123">
        <ele>230</ele>
        <time>2016-08-23T09:02:49Z</time>
      </trkpt>
      <trkpt lat="45.83627" lon="4.6212">
        <ele>230</ele>
        <time>2016-08-23T09:02:50Z</time>
      </trkpt>
      <trkpt lat="45.83622" lon="4.62117">
        <ele>230</ele>
        <time>2016-08-23T09:02:51Z</time>
      </trkpt>
      <trkpt lat="45.83617" lon="4.62114">
        <ele>230</ele>
        <time>2016-08-23T09:02:52Z</time>
      </trkpt>
      <trkpt lat="45.83612" lon="4.62111">
        <ele>230</ele>
        <time>2016-08-23T09:02:53Z</time>
      </trkpt>
      <trkpt lat="45.83607" lon="4.62108">
        <ele>230</ele>
        <time>2016-08-23T09:02:54Z</time>
      </trkpt>
      <trkpt lat="45.83602" lon="4.62104">
        <ele>229</ele>
        <time>2016-08-23T09:02:55Z</time>
      </trkpt>
      <trkpt lat="45.83598" lon="4.62101">
        <ele>229</ele>
        <time>2016-08-23T09:02:56Z</time>
      </trkpt>
      <trkpt lat="45.83593" lon="4.62099">
        <ele>229</ele>
        <time>2016-08-23T09:02:57Z</time>
      </trkpt>
      <trkpt lat="45.83588" lon="4.62097">
        <ele>228</ele>
        <time>2016-08-23T09:02:58Z</time>
      </trkpt>
      <trkpt lat="45.83583" lon="4.62094">
        <ele>231</ele>
        <time>2016-08-23T09:02:59Z</time>
      </trkpt>
      <trkpt lat="45.83578" lon="4.6209">
        <ele>231</ele>
        <time>2016-08-23T09:03:00Z</time>
      </trkpt>
      <trkpt lat="45.83573" lon="4.62087">
        <ele>231</ele>
        <time>2016-08-23T09:03:01Z</time>
      </trkpt>
      <trkpt lat="45.83568" lon="4.62084">
        <ele>233</ele>
        <time>2016-08-23T09:03:02Z</time>
      </trkpt>
      <trkpt lat="45.83563" lon="4.62079">
        <ele>228</ele>
        <time>2016-08-23T09:03:03Z</time>
      </trkpt>
      <trkpt lat="45.83558" lon="4.62076">
        <ele>229</ele>
        <time>2016-08-23T09:03:04Z</time>
      </trkpt>
      <trkpt lat="45.83552" lon="4.62071">
        <ele>229</ele>
        <time>2016-08-23T09:03:05Z</time>
      </trkpt>
      <trkpt lat="45.83548" lon="4.62068">
        <ele>229</ele>
        <time>2016-08-23T09:03:06Z</time>
      </trkpt>
      <trkpt lat="45.83543" lon="4.62063">
        <ele>230</ele>
        <time>2016-08-23T09:03:07Z</time>
      </trkpt>
      <trkpt lat="45.83538" lon="4.62059">
        <ele>230</ele>
        <time>2016-08-23T09:03:08Z</time>
      </trkpt>
      <trkpt lat="45.83533" lon="4.62054">
        <ele>230</ele>
        <time>2016-08-23T09:03:09Z</time>
      </trkpt>
      <trkpt lat="45.83529" lon="4.62049">
        <ele>230</ele>
        <time>2016-08-23T09:03:10Z</time>
      </trkpt>
      <trkpt lat="45.83525" lon="4.62045">
        <ele>230</ele>
        <time>2016-08-23T09:03:11Z</time>
      </trkpt>
      <trkpt lat="45.83521" lon="4.6204">
        <ele>229</ele>
        <time>2016-08-23T09:03:12Z</time>
      </trkpt>
      <trkpt lat="45.83516" lon="4.62035">
        <ele>229</ele>
        <time>2016-08-23T09:03:13Z</time>
      </trkpt>
      <trkpt lat="45.83511" lon="4.6203">
        <ele>229</ele>
        <time>2016-08-23T09:03:14Z</time>
      </trkpt>
      <trkpt lat="45.83507" lon="4.62026">
        <ele>229</ele>
        <time>2016-08-23T09:03:15Z</time>
      </trkpt>
      <trkpt lat="45.83503" lon="4.62021">
        <ele>228</ele>
        <time>2016-08-23T09:03:16Z</time>
      </trkpt>
      <trkpt lat="45.83498" lon="4.62016">
        <ele>232</ele>
        <time>2016-08-23T09:03:17Z</time>
      </trkpt>
      <trkpt lat="45.83495" lon="4.62012">
        <ele>231</ele>
        <time>2016-08-23T09:03:18Z</time>
      </trkpt>
      <trkpt lat="45.83492" lon="4.62007">
        <ele>231</ele>
        <time>2016-08-23T09:03:19Z</time>
      </trkpt>
      <trkpt lat="45.83488" lon="4.62002">
        <ele>231</ele>
        <time>2016-08-23T09:03:20Z</time>
      </trkpt>
      <trkpt lat="45.83486" lon="4.61995">
        <ele>227</ele>
        <time>2016-08-23T09:03:21Z</time>
      </trkpt>
      <trkpt lat="45.83484" lon="4.61988">
        <ele>228</ele>
        <time>2016-08-23T09:03:22Z</time>
      </trkpt>
      <trkpt lat="45.83483" lon="4.6198">
        <ele>228</ele>
        <time>2016-08-23T09:03:23Z</time>
      </trkpt>
      <trkpt lat="45.83484" lon="4.61971">
        <ele>228</ele>
        <time>2016-08-23T09:03:24Z</time>
      </trkpt>
      <trkpt lat="45.83484" lon="4.61963">
        <ele>228</ele>
        <time>2016-08-23T09:03:25Z</time>
      </trkpt>
      <trkpt lat="45.83484" lon="4.61954">
        <ele>228</ele>
        <time>2016-08-23T09:03:26Z</time>
      </trkpt>
      <trkpt lat="45.83485" lon="4.61945">
        <ele>228</ele>
        <time>2016-08-23T09:03:27Z</time>
      </trkpt>
      <trkpt lat="45.83487" lon="4.61937">
        <ele>227</ele>
        <time>2016-08-23T09:03:28Z</time>
      </trkpt>
      <trkpt lat="45.83488" lon="4.61928">
        <ele>227</ele>
        <time>2016-08-23T09:03:29Z</time>
      </trkpt>
      <trkpt lat="45.8349" lon="4.61921">
        <ele>226</ele>
        <time>2016-08-23T09:03:30Z</time>
      </trkpt>
      <trkpt lat="45.83494" lon="4.61914">
        <ele>225</ele>
        <time>2016-08-23T09:03:31Z</time>
      </trkpt>
      <trkpt lat="45.83497" lon="4.61906">
        <ele>226</ele>
        <time>2016-08-23T09:03:32Z</time>
      </trkpt>
      <trkpt lat="45.835" lon="4.619">
        <ele>226</ele>
        <time>2016-08-23T09:03:33Z</time>
      </trkpt>
      <trkpt lat="45.83503" lon="4.61893">
        <ele>227</ele>
        <time>2016-08-23T09:03:34Z</time>
      </trkpt>
      <trkpt lat="45.83506" lon="4.61886">
        <ele>227</ele>
        <time>2016-08-23T09:03:35Z</time>
      </trkpt>
      <trkpt lat="45.83508" lon="4.61878">
        <ele>227</ele>
        <time>2016-08-23T09:03:36Z</time>
      </trkpt>
      <trkpt lat="45.8351" lon="4.61871">
        <ele>227</ele>
        <time>2016-08-23T09:03:37Z</time>
      </trkpt>
      <trkpt lat="45.83513" lon="4.61864">
        <ele>227</ele>
        <time>2016-08-23T09:03:38Z</time>
      </trkpt>
      <trkpt lat="45.83515" lon="4.61855">
        <ele>227</ele>
        <time>2016-08-23T09:03:39Z</time>
      </trkpt>
      <trkpt lat="45.83517" lon="4.61847">
        <ele>227</ele>
        <time>2016-08-23T09:03:40Z</time>
      </trkpt>
      <trkpt lat="45.83518" lon="4.61839">
        <ele>227</ele>
        <time>2016-08-23T09:03:41Z</time>
      </trkpt>
      <trkpt lat="45.83527" lon="4.61836">
        <ele>227</ele>
        <time>2016-08-23T09:03:42Z</time>
      </trkpt>
      <trkpt lat="45.83531" lon="4.61829">
        <ele>229</ele>
        <time>2016-08-23T09:03:43Z</time>
      </trkpt>
      <trkpt lat="45.83534" lon="4.61821">
        <ele>229</ele>
        <time>2016-08-23T09:03:44Z</time>
      </trkpt>
      <trkpt lat="45.83536" lon="4.61813">
        <ele>229</ele>
        <time>2016-08-23T09:03:45Z</time>
      </trkpt>
      <trkpt lat="45.83537" lon="4.61805">
        <ele>229</ele>
        <time>2016-08-23T09:03:46Z</time>
      </trkpt>
      <trkpt lat="45.83539" lon="4.61797">
        <ele>229</ele>
        <time>2016-08-23T09:03:47Z</time>
      </trkpt>
      <trkpt lat="45.83539" lon="4.61788">
        <ele>229</ele>
        <time>2016-08-23T09:03:48Z</time>
      </trkpt>
      <trkpt lat="45.83539" lon="4.61779">
        <ele>229</ele>
        <time>2016-08-23T09:03:49Z</time>
      </trkpt>
      <trkpt lat="45.83538" lon="4.61771">
        <ele>229</ele>
        <time>2016-08-23T09:03:50Z</time>
      </trkpt>
      <trkpt lat="45.83536" lon="4.61762">
        <ele>229</ele>
        <time>2016-08-23T09:03:51Z</time>
      </trkpt>
      <trkpt lat="45.83536" lon="4.61753">
        <ele>229</ele>
        <time>2016-08-23T09:03:52Z</time>
      </trkpt>
      <trkpt lat="45.83536" lon="4.61745">
        <ele>230</ele>
        <time>2016-08-23T09:03:53Z</time>
      </trkpt>
      <trkpt lat="45.83535" lon="4.61738">
        <ele>231</ele>
        <time>2016-08-23T09:03:54Z</time>
      </trkpt>
      <trkpt lat="45.83534" lon="4.6173">
        <ele>231</ele>
        <time>2016-08-23T09:03:55Z</time>
      </trkpt>
      <trkpt lat="45.83533" lon="4.61721">
        <ele>231</ele>
        <time>2016-08-23T09:03:56Z</time>
      </trkpt>
      <trkpt lat="45.83533" lon="4.61713">
        <ele>231</ele>
        <time>2016-08-23T09:03:57Z</time>
      </trkpt>
      <trkpt lat="45.83533" lon="4.61705">
        <ele>231</ele>
        <time>2016-08-23T09:03:58Z</time>
      </trkpt>
      <trkpt lat="45.83532" lon="4.61696">
        <ele>231</ele>
        <time>2016-08-23T09:03:59Z</time>
      </trkpt>
      <trkpt lat="45.83531" lon="4.61689">
        <ele>231</ele>
        <time>2016-08-23T09:04:00Z</time>
      </trkpt>
      <trkpt lat="45.8353" lon="4.61682">
        <ele>231</ele>
        <time>2016-08-23T09:04:01Z</time>
      </trkpt>
      <trkpt lat="45.8353" lon="4.61674">
        <ele>231</ele>
        <time>2016-08-23T09:04:02Z</time>
      </trkpt>
      <trkpt lat="45.8353" lon="4.61667">
        <ele>231</ele>
        <time>2016-08-23T09:04:03Z</time>
      </trkpt>
      <trkpt lat="45.8353" lon="4.6166">
        <ele>233</ele>
        <time>2016-08-23T09:04:04Z</time>
      </trkpt>
      <trkpt lat="45.83532" lon="4.61648">
        <ele>233</ele>
        <time>2016-08-23T09:04:06Z</time>
      </trkpt>
      <trkpt lat="45.83531" lon="4.61642">
        <ele>233</ele>
        <time>2016-08-23T09:04:07Z</time>
      </trkpt>
      <trkpt lat="45.83529" lon="4.61636">
        <ele>233</ele>
        <time>2016-08-23T09:04:08Z</time>
      </trkpt>
      <trkpt lat="45.83525" lon="4.6163">
        <ele>233</ele>
        <time>2016-08-23T09:04:09Z</time>
      </trkpt>
      <trkpt lat="45.83522" lon="4.61625">
        <ele>233</ele>
        <time>2016-08-23T09:04:10Z</time>
      </trkpt>
      <trkpt lat="45.83519" lon="4.61621">
        <ele>233</ele>
        <time>2016-08-23T09:04:11Z</time>
      </trkpt>
      <trkpt lat="45.83515" lon="4.61616">
        <ele>233</ele>
        <time>2016-08-23T09:04:12Z</time>
      </trkpt>
      <trkpt lat="45.83511" lon="4.61609">
        <ele>233</ele>
        <time>2016-08-23T09:04:13Z</time>
      </trkpt>
      <trkpt lat="45.83508" lon="4.61603">
        <ele>232</ele>
        <time>2016-08-23T09:04:14Z</time>
      </trkpt>
      <trkpt lat="45.83504" lon="4.61598">
        <ele>232</ele>
        <time>2016-08-23T09:04:15Z</time>
      </trkpt>
      <trkpt lat="45.83501" lon="4.61593">
        <ele>232</ele>
        <time>2016-08-23T09:04:16Z</time>
      </trkpt>
      <trkpt lat="45.83497" lon="4.61587">
        <ele>231</ele>
        <time>2016-08-23T09:04:17Z</time>
      </trkpt>
      <trkpt lat="45.83494" lon="4.61581">
        <ele>231</ele>
        <time>2016-08-23T09:04:18Z</time>
      </trkpt>
      <trkpt lat="45.8349" lon="4.61576">
        <ele>231</ele>
        <time>2016-08-23T09:04:19Z</time>
      </trkpt>
      <trkpt lat="45.83485" lon="4.61567">
        <ele>232</ele>
        <time>2016-08-23T09:04:21Z</time>
      </trkpt>
      <trkpt lat="45.83482" lon="4.61561">
        <ele>232</ele>
        <time>2016-08-23T09:04:22Z</time>
      </trkpt>
      <trkpt lat="45.83478" lon="4.61555">
        <ele>232</ele>
        <time>2016-08-23T09:04:23Z</time>
      </trkpt>
      <trkpt lat="45.83474" lon="4.6155">
        <ele>232</ele>
        <time>2016-08-23T09:04:24Z</time>
      </trkpt>
      <trkpt lat="45.83468" lon="4.61545">
        <ele>232</ele>
        <time>2016-08-23T09:04:25Z</time>
      </trkpt>
      <trkpt lat="45.83464" lon="4.6154">
        <ele>232</ele>
        <time>2016-08-23T09:04:26Z</time>
      </trkpt>
      <trkpt lat="45.8346" lon="4.61534">
        <ele>232</ele>
        <time>2016-08-23T09:04:27Z</time>
      </trkpt>
      <trkpt lat="45.83455" lon="4.61529">
        <ele>232</ele>
        <time>2016-08-23T09:04:28Z</time>
      </trkpt>
      <trkpt lat="45.83451" lon="4.61523">
        <ele>232</ele>
        <time>2016-08-23T09:04:29Z</time>
      </trkpt>
      <trkpt lat="45.83448" lon="4.61517">
        <ele>232</ele>
        <time>2016-08-23T09:04:30Z</time>
      </trkpt>
      <trkpt lat="45.83444" lon="4.61512">
        <ele>232</ele>
        <time>2016-08-23T09:04:31Z</time>
      </trkpt>
      <trkpt lat="45.83441" lon="4.61506">
        <ele>232</ele>
        <time>2016-08-23T09:04:32Z</time>
      </trkpt>
      <trkpt lat="45.83436" lon="4.61499">
        <ele>235</ele>
        <time>2016-08-23T09:04:34Z</time>
      </trkpt>
      <trkpt lat="45.83433" lon="4.61496">
        <ele>235</ele>
        <time>2016-08-23T09:04:35Z</time>
      </trkpt>
      <trkpt lat="45.83431" lon="4.61491">
        <ele>235</ele>
        <time>2016-08-23T09:04:36Z</time>
      </trkpt>
      <trkpt lat="45.83428" lon="4.61484">
        <ele>235</ele>
        <time>2016-08-23T09:04:37Z</time>
      </trkpt>
      <trkpt lat="45.83424" lon="4.61479">
        <ele>236</ele>
        <time>2016-08-23T09:04:38Z</time>
      </trkpt>
      <trkpt lat="45.83419" lon="4.61475">
        <ele>236</ele>
        <time>2016-08-23T09:04:39Z</time>
      </trkpt>
      <trkpt lat="45.83415" lon="4.61471">
        <ele>232</ele>
        <time>2016-08-23T09:04:40Z</time>
      </trkpt>
      <trkpt lat="45.83411" lon="4.61467">
        <ele>233</ele>
        <time>2016-08-23T09:04:41Z</time>
      </trkpt>
      <trkpt lat="45.83407" lon="4.61463">
        <ele>233</ele>
        <time>2016-08-23T09:04:42Z</time>
      </trkpt>
      <trkpt lat="45.83403" lon="4.61458">
        <ele>233</ele>
        <time>2016-08-23T09:04:43Z</time>
      </trkpt>
      <trkpt lat="45.83399" lon="4.61454">
        <ele>233</ele>
        <time>2016-08-23T09:04:44Z</time>
      </trkpt>
      <trkpt lat="45.83395" lon="4.61449">
        <ele>233</ele>
        <time>2016-08-23T09:04:45Z</time>
      </trkpt>
      <trkpt lat="45.83391" lon="4.61445">
        <ele>234</ele>
        <time>2016-08-23T09:04:46Z</time>
      </trkpt>
      <trkpt lat="45.83387" lon="4.61441">
        <ele>234</ele>
        <time>2016-08-23T09:04:47Z</time>
      </trkpt>
      <trkpt lat="45.83382" lon="4.61437">
        <ele>234</ele>
        <time>2016-08-23T09:04:48Z</time>
      </trkpt>
      <trkpt lat="45.83377" lon="4.61433">
        <ele>233</ele>
        <time>2016-08-23T09:04:49Z</time>
      </trkpt>
      <trkpt lat="45.83373" lon="4.61427">
        <ele>233</ele>
        <time>2016-08-23T09:04:50Z</time>
      </trkpt>
      <trkpt lat="45.83368" lon="4.61423">
        <ele>233</ele>
        <time>2016-08-23T09:04:51Z</time>
      </trkpt>
      <trkpt lat="45.83364" lon="4.61418">
        <ele>233</ele>
        <time>2016-08-23T09:04:52Z</time>
      </trkpt>
      <trkpt lat="45.83359" lon="4.61413">
        <ele>238</ele>
        <time>2016-08-23T09:04:53Z</time>
      </trkpt>
      <trkpt lat="45.83353" lon="4.61409">
        <ele>237</ele>
        <time>2016-08-23T09:04:54Z</time>
      </trkpt>
      <trkpt lat="45.83349" lon="4.61405">
        <ele>237</ele>
        <time>2016-08-23T09:04:55Z</time>
      </trkpt>
      <trkpt lat="45.83345" lon="4.61401">
        <ele>237</ele>
        <time>2016-08-23T09:04:56Z</time>
      </trkpt>
      <trkpt lat="45.83341" lon="4.61393">
        <ele>238</ele>
        <time>2016-08-23T09:04:57Z</time>
      </trkpt>
      <trkpt lat="45.83336" lon="4.61386">
        <ele>239</ele>
        <time>2016-08-23T09:04:58Z</time>
      </trkpt>
      <trkpt lat="45.83331" lon="4.61383">
        <ele>233</ele>
        <time>2016-08-23T09:04:59Z</time>
      </trkpt>
      <trkpt lat="45.83326" lon="4.61379">
        <ele>234</ele>
        <time>2016-08-23T09:05:00Z</time>
      </trkpt>
      <trkpt lat="45.83321" lon="4.61374">
        <ele>234</ele>
        <time>2016-08-23T09:05:01Z</time>
      </trkpt>
      <trkpt lat="45.83317" lon="4.61369">
        <ele>234</ele>
        <time>2016-08-23T09:05:02Z</time>
      </trkpt>
      <trkpt lat="45.83312" lon="4.61365">
        <ele>234</ele>
        <time>2016-08-23T09:05:03Z</time>
      </trkpt>
      <trkpt lat="45.83308" lon="4.61359">
        <ele>234</ele>
        <time>2016-08-23T09:05:04Z</time>
      </trkpt>
      <trkpt lat="45.83303" lon="4.61353">
        <ele>234</ele>
        <time>2016-08-23T09:05:05Z</time>
      </trkpt>
      <trkpt lat="45.83298" lon="4.61347">
        <ele>234</ele>
        <time>2016-08-23T09:05:06Z</time>
      </trkpt>
      <trkpt lat="45.83293" lon="4.61341">
        <ele>234</ele>
        <time>2016-08-23T09:05:07Z</time>
      </trkpt>
      <trkpt lat="45.83288" lon="4.61336">
        <ele>233</ele>
        <time>2016-08-23T09:05:08Z</time>
      </trkpt>
      <trkpt lat="45.83284" lon="4.6133">
        <ele>237</ele>
        <time>2016-08-23T09:05:09Z</time>
      </trkpt>
      <trkpt lat="45.8328" lon="4.61324">
        <ele>237</ele>
        <time>2016-08-23T09:05:10Z</time>
      </trkpt>
      <trkpt lat="45.83275" lon="4.61319">
        <ele>236</ele>
        <time>2016-08-23T09:05:11Z</time>
      </trkpt>
      <trkpt lat="45.83271" lon="4.61313">
        <ele>236</ele>
        <time>2016-08-23T09:05:12Z</time>
      </trkpt>
      <trkpt lat="45.83267" lon="4.61306">
        <ele>236</ele>
        <time>2016-08-23T09:05:13Z</time>
      </trkpt>
      <trkpt lat="45.83262" lon="4.613">
        <ele>236</ele>
        <time>2016-08-23T09:05:14Z</time>
      </trkpt>
      <trkpt lat="45.83257" lon="4.61295">
        <ele>237</ele>
        <time>2016-08-23T09:05:15Z</time>
      </trkpt>
      <trkpt lat="45.83251" lon="4.61289">
        <ele>237</ele>
        <time>2016-08-23T09:05:16Z</time>
      </trkpt>
      <trkpt lat="45.83247" lon="4.61284">
        <ele>232</ele>
        <time>2016-08-23T09:05:17Z</time>
      </trkpt>
      <trkpt lat="45.83242" lon="4.61279">
        <ele>232</ele>
        <time>2016-08-23T09:05:18Z</time>
      </trkpt>
      <trkpt lat="45.83236" lon="4.61275">
        <ele>232</ele>
        <time>2016-08-23T09:05:19Z</time>
      </trkpt>
      <trkpt lat="45.8323" lon="4.6127">
        <ele>232</ele>
        <time>2016-08-23T09:05:20Z</time>
      </trkpt>
      <trkpt lat="45.83225" lon="4.61266">
        <ele>232</ele>
        <time>2016-08-23T09:05:21Z</time>
      </trkpt>
      <trkpt lat="45.8322" lon="4.61261">
        <ele>232</ele>
        <time>2016-08-23T09:05:22Z</time>
      </trkpt>
      <trkpt lat="45.83215" lon="4.61256">
        <ele>231</ele>
        <time>2016-08-23T09:05:23Z</time>
      </trkpt>
      <trkpt lat="45.83209" lon="4.6125">
        <ele>235</ele>
        <time>2016-08-23T09:05:24Z</time>
      </trkpt>
      <trkpt lat="45.83204" lon="4.61245">
        <ele>235</ele>
        <time>2016-08-23T09:05:25Z</time>
      </trkpt>
      <trkpt lat="45.83199" lon="4.61239">
        <ele>235</ele>
        <time>2016-08-23T09:05:26Z</time>
      </trkpt>
      <trkpt lat="45.83194" lon="4.61234">
        <ele>235</ele>
        <time>2016-08-23T09:05:27Z</time>
      </trkpt>
      <trkpt lat="45.83189" lon="4.61229">
        <ele>235</ele>
        <time>2016-08-23T09:05:28Z</time>
      </trkpt>
      <trkpt lat="45.83184" lon="4.61224">
        <ele>235</ele>
        <time>2016-08-23T09:05:29Z</time>
      </trkpt>
      <trkpt lat="45.83179" lon="4.61219">
        <ele>235</ele>
        <time>2016-08-23T09:05:30Z</time>
      </trkpt>
      <trkpt lat="45.83174" lon="4.61214">
        <ele>235</ele>
        <time>2016-08-23T09:05:31Z</time>
      </trkpt>
      <trkpt lat="45.83169" lon="4.61209">
        <ele>235</ele>
        <time>2016-08-23T09:05:32Z</time>
      </trkpt>
      <trkpt lat="45.83164" lon="4.61203">
        <ele>231</ele>
        <time>2016-08-23T09:05:33Z</time>
      </trkpt>
      <trkpt lat="45.83159" lon="4.61197">
        <ele>231</ele>
        <time>2016-08-23T09:05:34Z</time>
      </trkpt>
      <trkpt lat="45.83154" lon="4.61191">
        <ele>231</ele>
        <time>2016-08-23T09:05:35Z</time>
      </trkpt>
      <trkpt lat="45.83148" lon="4.61187">
        <ele>231</ele>
        <time>2016-08-23T09:05:36Z</time>
      </trkpt>
      <trkpt lat="45.83143" lon="4.61182">
        <ele>231</ele>
        <time>2016-08-23T09:05:37Z</time>
      </trkpt>
      <trkpt lat="45.83139" lon="4.61178">
        <ele>231</ele>
        <time>2016-08-23T09:05:38Z</time>
      </trkpt>
      <trkpt lat="45.83134" lon="4.61173">
        <ele>231</ele>
        <time>2016-08-23T09:05:39Z</time>
      </trkpt>
      <trkpt lat="45.83131" lon="4.61166">
        <ele>236</ele>
        <time>2016-08-23T09:05:40Z</time>
      </trkpt>
      <trkpt lat="45.83126" lon="4.61162">
        <ele>236</ele>
        <time>2016-08-23T09:05:41Z</time>
      </trkpt>
      <trkpt lat="45.83121" lon="4.61156">
        <ele>236</ele>
        <time>2016-08-23T09:05:42Z</time>
      </trkpt>
      <trkpt lat="45.83117" lon="4.61149">
        <ele>236</ele>
        <time>2016-08-23T09:05:43Z</time>
      </trkpt>
      <trkpt lat="45.83112" lon="4.61143">
        <ele>236</ele>
        <time>2016-08-23T09:05:44Z</time>
      </trkpt>
      <trkpt lat="45.83108" lon="4.61137">
        <ele>236</ele>
        <time>2016-08-23T09:05:45Z</time>
      </trkpt>
      <trkpt lat="45.83103" lon="4.61131">
        <ele>236</ele>
        <time>2016-08-23T09:05:46Z</time>
      </trkpt>
      <trkpt lat="45.83098" lon="4.61125">
        <ele>237</ele>
        <time>2016-08-23T09:05:47Z</time>
      </trkpt>
      <trkpt lat="45.83093" lon="4.61119">
        <ele>237</ele>
        <time>2016-08-23T09:05:48Z</time>
      </trkpt>
      <trkpt lat="45.83089" lon="4.61113">
        <ele>237</ele>
        <time>2016-08-23T09:05:49Z</time>
      </trkpt>
      <trkpt lat="45.83084" lon="4.61108">
        <ele>237</ele>
        <time>2016-08-23T09:05:50Z</time>
      </trkpt>
      <trkpt lat="45.83079" lon="4.61105">
        <ele>234</ele>
        <time>2016-08-23T09:05:51Z</time>
      </trkpt>
      <trkpt lat="45.83074" lon="4.61101">
        <ele>234</ele>
        <time>2016-08-23T09:05:52Z</time>
      </trkpt>
      <trkpt lat="45.8307" lon="4.61096">
        <ele>234</ele>
        <time>2016-08-23T09:05:53Z</time>
      </trkpt>
      <trkpt lat="45.83066" lon="4.61091">
        <ele>234</ele>
        <time>2016-08-23T09:05:54Z</time>
      </trkpt>
      <trkpt lat="45.83062" lon="4.61086">
        <ele>234</ele>
        <time>2016-08-23T09:05:55Z</time>
      </trkpt>
      <trkpt lat="45.83057" lon="4.61085">
        <ele>234</ele>
        <time>2016-08-23T09:05:56Z</time>
      </trkpt>
      <trkpt lat="45.83053" lon="4.6108">
        <ele>238</ele>
        <time>2016-08-23T09:05:57Z</time>
      </trkpt>
      <trkpt lat="45.83048" lon="4.61074">
        <ele>238</ele>
        <time>2016-08-23T09:05:58Z</time>
      </trkpt>
      <trkpt lat="45.83044" lon="4.61069">
        <ele>238</ele>
        <time>2016-08-23T09:05:59Z</time>
      </trkpt>
      <trkpt lat="45.83039" lon="4.61064">
        <ele>238</ele>
        <time>2016-08-23T09:06:00Z</time>
      </trkpt>
      <trkpt lat="45.83035" lon="4.61059">
        <ele>238</ele>
        <time>2016-08-23T09:06:01Z</time>
      </trkpt>
      <trkpt lat="45.83031" lon="4.61054">
        <ele>238</ele>
        <time>2016-08-23T09:06:02Z</time>
      </trkpt>
      <trkpt lat="45.83026" lon="4.61051">
        <ele>238</ele>
        <time>2016-08-23T09:06:03Z</time>
      </trkpt>
      <trkpt lat="45.8302" lon="4.61048">
        <ele>238</ele>
        <time>2016-08-23T09:06:04Z</time>
      </trkpt>
      <trkpt lat="45.83015" lon="4.61043">
        <ele>238</ele>
        <time>2016-08-23T09:06:05Z</time>
      </trkpt>
      <trkpt lat="45.83011" lon="4.61039">
        <ele>238</ele>
        <time>2016-08-23T09:06:06Z</time>
      </trkpt>
      <trkpt lat="45.83005" lon="4.61033">
        <ele>238</ele>
        <time>2016-08-23T09:06:07Z</time>
      </trkpt>
      <trkpt lat="45.83" lon="4.61028">
        <ele>234</ele>
        <time>2016-08-23T09:06:08Z</time>
      </trkpt>
      <trkpt lat="45.82995" lon="4.61022">
        <ele>234</ele>
        <time>2016-08-23T09:06:09Z</time>
      </trkpt>
      <trkpt lat="45.8299" lon="4.61016">
        <ele>234</ele>
        <time>2016-08-23T09:06:10Z</time>
      </trkpt>
      <trkpt lat="45.82984" lon="4.6101">
        <ele>234</ele>
        <time>2016-08-23T09:06:11Z</time>
      </trkpt>
      <trkpt lat="45.82979" lon="4.61005">
        <ele>234</ele>
        <time>2016-08-23T09:06:12Z</time>
      </trkpt>
      <trkpt lat="45.82974" lon="4.60999">
        <ele>238</ele>
        <time>2016-08-23T09:06:13Z</time>
      </trkpt>
      <trkpt lat="45.8297" lon="4.60992">
        <ele>238</ele>
        <time>2016-08-23T09:06:14Z</time>
      </trkpt>
      <trkpt lat="45.82964" lon="4.60988">
        <ele>238</ele>
        <time>2016-08-23T09:06:15Z</time>
      </trkpt>
      <trkpt lat="45.82957" lon="4.60983">
        <ele>238</ele>
        <time>2016-08-23T09:06:16Z</time>
      </trkpt>
      <trkpt lat="45.82951" lon="4.60978">
        <ele>238</ele>
        <time>2016-08-23T09:06:17Z</time>
      </trkpt>
      <trkpt lat="45.82946" lon="4.60972">
        <ele>238</ele>
        <time>2016-08-23T09:06:18Z</time>
      </trkpt>
      <trkpt lat="45.8294" lon="4.60966">
        <ele>238</ele>
        <time>2016-08-23T09:06:19Z</time>
      </trkpt>
      <trkpt lat="45.82934" lon="4.6096">
        <ele>238</ele>
        <time>2016-08-23T09:06:20Z</time>
      </trkpt>
      <trkpt lat="45.82929" lon="4.60955">
        <ele>238</ele>
        <time>2016-08-23T09:06:21Z</time>
      </trkpt>
      <trkpt lat="45.82923" lon="4.60951">
        <ele>238</ele>
        <time>2016-08-23T09:06:22Z</time>
      </trkpt>
      <trkpt lat="45.82917" lon="4.60948">
        <ele>238</ele>
        <time>2016-08-23T09:06:23Z</time>
      </trkpt>
      <trkpt lat="45.82912" lon="4.60944">
        <ele>233</ele>
        <time>2016-08-23T09:06:24Z</time>
      </trkpt>
      <trkpt lat="45.82905" lon="4.60942">
        <ele>233</ele>
        <time>2016-08-23T09:06:25Z</time>
      </trkpt>
      <trkpt lat="45.829" lon="4.60938">
        <ele>233</ele>
        <time>2016-08-23T09:06:26Z</time>
      </trkpt>
      <trkpt lat="45.82894" lon="4.60935">
        <ele>233</ele>
        <time>2016-08-23T09:06:27Z</time>
      </trkpt>
      <trkpt lat="45.82888" lon="4.60932">
        <ele>233</ele>
        <time>2016-08-23T09:06:28Z</time>
      </trkpt>
      <trkpt lat="45.82882" lon="4.60929">
        <ele>232</ele>
        <time>2016-08-23T09:06:29Z</time>
      </trkpt>
      <trkpt lat="45.82875" lon="4.60926">
        <ele>232</ele>
        <time>2016-08-23T09:06:30Z</time>
      </trkpt>
      <trkpt lat="45.82869" lon="4.60924">
        <ele>232</ele>
        <time>2016-08-23T09:06:31Z</time>
      </trkpt>
      <trkpt lat="45.82863" lon="4.60921">
        <ele>231</ele>
        <time>2016-08-23T09:06:32Z</time>
      </trkpt>
      <trkpt lat="45.82856" lon="4.60918">
        <ele>231</ele>
        <time>2016-08-23T09:06:33Z</time>
      </trkpt>
      <trkpt lat="45.82849" lon="4.60915">
        <ele>236</ele>
        <time>2016-08-23T09:06:34Z</time>
      </trkpt>
      <trkpt lat="45.82843" lon="4.60912">
        <ele>234</ele>
        <time>2016-08-23T09:06:35Z</time>
      </trkpt>
      <trkpt lat="45.82838" lon="4.60908">
        <ele>234</ele>
        <time>2016-08-23T09:06:36Z</time>
      </trkpt>
      <trkpt lat="45.82832" lon="4.60904">
        <ele>231</ele>
        <time>2016-08-23T09:06:37Z</time>
      </trkpt>
      <trkpt lat="45.82826" lon="4.60899">
        <ele>232</ele>
        <time>2016-08-23T09:06:38Z</time>
      </trkpt>
      <trkpt lat="45.82821" lon="4.60895">
        <ele>232</ele>
        <time>2016-08-23T09:06:39Z</time>
      </trkpt>
      <trkpt lat="45.82816" lon="4.60891">
        <ele>232</ele>
        <time>2016-08-23T09:06:40Z</time>
      </trkpt>
      <trkpt lat="45.82811" lon="4.60887">
        <ele>233</ele>
        <time>2016-08-23T09:06:41Z</time>
      </trkpt>
      <trkpt lat="45.82807" lon="4.60882">
        <ele>233</ele>
        <time>2016-08-23T09:06:42Z</time>
      </trkpt>
      <trkpt lat="45.82802" lon="4.60878">
        <ele>233</ele>
        <time>2016-08-23T09:06:43Z</time>
      </trkpt>
      <trkpt lat="45.82798" lon="4.60873">
        <ele>233</ele>
        <time>2016-08-23T09:06:44Z</time>
      </trkpt>
      <trkpt lat="45.82793" lon="4.60869">
        <ele>233</ele>
        <time>2016-08-23T09:06:45Z</time>
      </trkpt>
      <trkpt lat="45.82789" lon="4.60863">
        <ele>233</ele>
        <time>2016-08-23T09:06:46Z</time>
      </trkpt>
      <trkpt lat="45.82782" lon="4.6086">
        <ele>233</ele>
        <time>2016-08-23T09:06:47Z</time>
      </trkpt>
      <trkpt lat="45.82776" lon="4.60855">
        <ele>232</ele>
        <time>2016-08-23T09:06:48Z</time>
      </trkpt>
      <trkpt lat="45.8277" lon="4.6085">
        <ele>232</ele>
        <time>2016-08-23T09:06:49Z</time>
      </trkpt>
      <trkpt lat="45.82764" lon="4.60845">
        <ele>232</ele>
        <time>2016-08-23T09:06:50Z</time>
      </trkpt>
      <trkpt lat="45.82758" lon="4.60841">
        <ele>231</ele>
        <time>2016-08-23T09:06:51Z</time>
      </trkpt>
      <trkpt lat="45.82753" lon="4.60836">
        <ele>230</ele>
        <time>2016-08-23T09:06:52Z</time>
      </trkpt>
      <trkpt lat="45.82748" lon="4.60831">
        <ele>230</ele>
        <time>2016-08-23T09:06:53Z</time>
      </trkpt>
      <trkpt lat="45.82743" lon="4.60827">
        <ele>231</ele>
        <time>2016-08-23T09:06:54Z</time>
      </trkpt>
      <trkpt lat="45.82738" lon="4.60823">
        <ele>231</ele>
        <time>2016-08-23T09:06:55Z</time>
      </trkpt>
      <trkpt lat="45.82733" lon="4.60818">
        <ele>231</ele>
        <time>2016-08-23T09:06:56Z</time>
      </trkpt>
      <trkpt lat="45.82728" lon="4.60813">
        <ele>231</ele>
        <time>2016-08-23T09:06:57Z</time>
      </trkpt>
      <trkpt lat="45.82723" lon="4.60809">
        <ele>231</ele>
        <time>2016-08-23T09:06:58Z</time>
      </trkpt>
      <trkpt lat="45.82718" lon="4.60804">
        <ele>232</ele>
        <time>2016-08-23T09:06:59Z</time>
      </trkpt>
      <trkpt lat="45.82713" lon="4.60799">
        <ele>232</ele>
        <time>2016-08-23T09:07:00Z</time>
      </trkpt>
      <trkpt lat="45.82708" lon="4.60794">
        <ele>232</ele>
        <time>2016-08-23T09:07:01Z</time>
      </trkpt>
      <trkpt lat="45.82703" lon="4.6079">
        <ele>232</ele>
        <time>2016-08-23T09:07:02Z</time>
      </trkpt>
      <trkpt lat="45.82698" lon="4.60785">
        <ele>232</ele>
        <time>2016-08-23T09:07:03Z</time>
      </trkpt>
      <trkpt lat="45.82692" lon="4.6078">
        <ele>232</ele>
        <time>2016-08-23T09:07:04Z</time>
      </trkpt>
      <trkpt lat="45.82687" lon="4.60774">
        <ele>232</ele>
        <time>2016-08-23T09:07:05Z</time>
      </trkpt>
      <trkpt lat="45.82682" lon="4.60769">
        <ele>232</ele>
        <time>2016-08-23T09:07:06Z</time>
      </trkpt>
      <trkpt lat="45.82677" lon="4.60764">
        <ele>231</ele>
        <time>2016-08-23T09:07:07Z</time>
      </trkpt>
      <trkpt lat="45.82673" lon="4.60758">
        <ele>231</ele>
        <time>2016-08-23T09:07:08Z</time>
      </trkpt>
      <trkpt lat="45.82668" lon="4.60753">
        <ele>231</ele>
        <time>2016-08-23T09:07:09Z</time>
      </trkpt>
      <trkpt lat="45.82662" lon="4.60749">
        <ele>231</ele>
        <time>2016-08-23T09:07:10Z</time>
      </trkpt>
      <trkpt lat="45.82656" lon="4.60744">
        <ele>232</ele>
        <time>2016-08-23T09:07:11Z</time>
      </trkpt>
      <trkpt lat="45.82651" lon="4.60739">
        <ele>232</ele>
        <time>2016-08-23T09:07:12Z</time>
      </trkpt>
      <trkpt lat="45.82646" lon="4.60735">
        <ele>233</ele>
        <time>2016-08-23T09:07:13Z</time>
      </trkpt>
      <trkpt lat="45.82642" lon="4.6073">
        <ele>233</ele>
        <time>2016-08-23T09:07:14Z</time>
      </trkpt>
      <trkpt lat="45.82637" lon="4.60725">
        <ele>233</ele>
        <time>2016-08-23T09:07:15Z</time>
      </trkpt>
      <trkpt lat="45.82633" lon="4.6072">
        <ele>233</ele>
        <time>2016-08-23T09:07:16Z</time>
      </trkpt>
      <trkpt lat="45.82628" lon="4.60715">
        <ele>233</ele>
        <time>2016-08-23T09:07:17Z</time>
      </trkpt>
      <trkpt lat="45.82624" lon="4.6071">
        <ele>233</ele>
        <time>2016-08-23T09:07:18Z</time>
      </trkpt>
      <trkpt lat="45.82619" lon="4.60705">
        <ele>233</ele>
        <time>2016-08-23T09:07:19Z</time>
      </trkpt>
      <trkpt lat="45.82614" lon="4.607">
        <ele>234</ele>
        <time>2016-08-23T09:07:20Z</time>
      </trkpt>
      <trkpt lat="45.8261" lon="4.60695">
        <ele>234</ele>
        <time>2016-08-23T09:07:21Z</time>
      </trkpt>
      <trkpt lat="45.82605" lon="4.6069">
        <ele>233</ele>
        <time>2016-08-23T09:07:22Z</time>
      </trkpt>
      <trkpt lat="45.826" lon="4.60685">
        <ele>233</ele>
        <time>2016-08-23T09:07:23Z</time>
      </trkpt>
      <trkpt lat="45.82596" lon="4.6068">
        <ele>233</ele>
        <time>2016-08-23T09:07:24Z</time>
      </trkpt>
      <trkpt lat="45.82592" lon="4.60675">
        <ele>233</ele>
        <time>2016-08-23T09:07:25Z</time>
      </trkpt>
      <trkpt lat="45.82587" lon="4.6067">
        <ele>233</ele>
        <time>2016-08-23T09:07:26Z</time>
      </trkpt>
      <trkpt lat="45.82583" lon="4.60666">
        <ele>233</ele>
        <time>2016-08-23T09:07:27Z</time>
      </trkpt>
      <trkpt lat="45.82579" lon="4.60662">
        <ele>233</ele>
        <time>2016-08-23T09:07:28Z</time>
      </trkpt>
      <trkpt lat="45.82576" lon="4.60657">
        <ele>234</ele>
        <time>2016-08-23T09:07:29Z</time>
      </trkpt>
      <trkpt lat="45.82572" lon="4.60652">
        <ele>234</ele>
        <time>2016-08-23T09:07:30Z</time>
      </trkpt>
      <trkpt lat="45.82569" lon="4.60648">
        <ele>234</ele>
        <time>2016-08-23T09:07:31Z</time>
      </trkpt>
      <trkpt lat="45.82565" lon="4.60643">
        <ele>234</ele>
        <time>2016-08-23T09:07:32Z</time>
      </trkpt>
      <trkpt lat="45.82561" lon="4.60638">
        <ele>234</ele>
        <time>2016-08-23T09:07:33Z</time>
      </trkpt>
      <trkpt lat="45.82557" lon="4.60634">
        <ele>234</ele>
        <time>2016-08-23T09:07:34Z</time>
      </trkpt>
      <trkpt lat="45.82553" lon="4.6063">
        <ele>234</ele>
        <time>2016-08-23T09:07:35Z</time>
      </trkpt>
      <trkpt lat="45.82549" lon="4.60626">
        <ele>234</ele>
        <time>2016-08-23T09:07:36Z</time>
      </trkpt>
      <trkpt lat="45.82545" lon="4.60622">
        <ele>234</ele>
        <time>2016-08-23T09:07:37Z</time>
      </trkpt>
      <trkpt lat="45.82539" lon="4.60618">
        <ele>234</ele>
        <time>2016-08-23T09:07:38Z</time>
      </trkpt>
      <trkpt lat="45.82534" lon="4.60615">
        <ele>234</ele>
        <time>2016-08-23T09:07:39Z</time>
      </trkpt>
      <trkpt lat="45.82529" lon="4.60611">
        <ele>234</ele>
        <time>2016-08-23T09:07:40Z</time>
      </trkpt>
      <trkpt lat="45.82524" lon="4.60608">
        <ele>234</ele>
        <time>2016-08-23T09:07:41Z</time>
      </trkpt>
      <trkpt lat="45.8252" lon="4.60604">
        <ele>234</ele>
        <time>2016-08-23T09:07:42Z</time>
      </trkpt>
      <trkpt lat="45.82515" lon="4.606">
        <ele>234</ele>
        <time>2016-08-23T09:07:43Z</time>
      </trkpt>
      <trkpt lat="45.82509" lon="4.60597">
        <ele>234</ele>
        <time>2016-08-23T09:07:44Z</time>
      </trkpt>
      <trkpt lat="45.82504" lon="4.60593">
        <ele>234</ele>
        <time>2016-08-23T09:07:45Z</time>
      </trkpt>
      <trkpt lat="45.82499" lon="4.60589">
        <ele>234</ele>
        <time>2016-08-23T09:07:46Z</time>
      </trkpt>
      <trkpt lat="45.82493" lon="4.60585">
        <ele>234</ele>
        <time>2016-08-23T09:07:47Z</time>
      </trkpt>
      <trkpt lat="45.82488" lon="4.6058">
        <ele>235</ele>
        <time>2016-08-23T09:07:48Z</time>
      </trkpt>
      <trkpt lat="45.82483" lon="4.60575">
        <ele>235</ele>
        <time>2016-08-23T09:07:49Z</time>
      </trkpt>
      <trkpt lat="45.82478" lon="4.60572">
        <ele>235</ele>
        <time>2016-08-23T09:07:50Z</time>
      </trkpt>
      <trkpt lat="45.82472" lon="4.60568">
        <ele>236</ele>
        <time>2016-08-23T09:07:51Z</time>
      </trkpt>
      <trkpt lat="45.82467" lon="4.60565">
        <ele>236</ele>
        <time>2016-08-23T09:07:52Z</time>
      </trkpt>
      <trkpt lat="45.82463" lon="4.60561">
        <ele>236</ele>
        <time>2016-08-23T09:07:53Z</time>
      </trkpt>
      <trkpt lat="45.82457" lon="4.60558">
        <ele>236</ele>
        <time>2016-08-23T09:07:54Z</time>
      </trkpt>
      <trkpt lat="45.82452" lon="4.60554">
        <ele>236</ele>
        <time>2016-08-23T09:07:55Z</time>
      </trkpt>
      <trkpt lat="45.82446" lon="4.6055">
        <ele>236</ele>
        <time>2016-08-23T09:07:56Z</time>
      </trkpt>
      <trkpt lat="45.82441" lon="4.60546">
        <ele>236</ele>
        <time>2016-08-23T09:07:57Z</time>
      </trkpt>
      <trkpt lat="45.82436" lon="4.60543">
        <ele>236</ele>
        <time>2016-08-23T09:07:58Z</time>
      </trkpt>
      <trkpt lat="45.82431" lon="4.6054">
        <ele>235</ele>
        <time>2016-08-23T09:07:59Z</time>
      </trkpt>
      <trkpt lat="45.82426" lon="4.60538">
        <ele>235</ele>
        <time>2016-08-23T09:08:00Z</time>
      </trkpt>
      <trkpt lat="45.82421" lon="4.60535">
        <ele>235</ele>
        <time>2016-08-23T09:08:01Z</time>
      </trkpt>
      <trkpt lat="45.82416" lon="4.60532">
        <ele>234</ele>
        <time>2016-08-23T09:08:02Z</time>
      </trkpt>
      <trkpt lat="45.8241" lon="4.6053">
        <ele>234</ele>
        <time>2016-08-23T09:08:03Z</time>
      </trkpt>
      <trkpt lat="45.82406" lon="4.60528">
        <ele>234</ele>
        <time>2016-08-23T09:08:04Z</time>
      </trkpt>
      <trkpt lat="45.82401" lon="4.60525">
        <ele>234</ele>
        <time>2016-08-23T09:08:05Z</time>
      </trkpt>
      <trkpt lat="45.82396" lon="4.60523">
        <ele>234</ele>
        <time>2016-08-23T09:08:06Z</time>
      </trkpt>
      <trkpt lat="45.8239" lon="4.60521">
        <ele>234</ele>
        <time>2016-08-23T09:08:07Z</time>
      </trkpt>
      <trkpt lat="45.82384" lon="4.60519">
        <ele>234</ele>
        <time>2016-08-23T09:08:08Z</time>
      </trkpt>
      <trkpt lat="45.82379" lon="4.60517">
        <ele>234</ele>
        <time>2016-08-23T09:08:09Z</time>
      </trkpt>
      <trkpt lat="45.82374" lon="4.60515">
        <ele>233</ele>
        <time>2016-08-23T09:08:10Z</time>
      </trkpt>
      <trkpt lat="45.82369" lon="4.60513">
        <ele>233</ele>
        <time>2016-08-23T09:08:11Z</time>
      </trkpt>
      <trkpt lat="45.82363" lon="4.60512">
        <ele>233</ele>
        <time>2016-08-23T09:08:12Z</time>
      </trkpt>
      <trkpt lat="45.82359" lon="4.6051">
        <ele>233</ele>
        <time>2016-08-23T09:08:13Z</time>
      </trkpt>
      <trkpt lat="45.8235" lon="4.60507">
        <ele>233</ele>
        <time>2016-08-23T09:08:15Z</time>
      </trkpt>
      <trkpt lat="45.82347" lon="4.60505">
        <ele>233</ele>
        <time>2016-08-23T09:08:16Z</time>
      </trkpt>
      <trkpt lat="45.82342" lon="4.60498">
        <ele>235</ele>
        <time>2016-08-23T09:08:19Z</time>
      </trkpt>
      <trkpt lat="45.82341" lon="4.60493">
        <ele>236</ele>
        <time>2016-08-23T09:08:20Z</time>
      </trkpt>
      <trkpt lat="45.82339" lon="4.60482">
        <ele>237</ele>
        <time>2016-08-23T09:08:22Z</time>
      </trkpt>
      <trkpt lat="45.82336" lon="4.60477">
        <ele>238</ele>
        <time>2016-08-23T09:08:23Z</time>
      </trkpt>
      <trkpt lat="45.82328" lon="4.60471">
        <ele>239</ele>
        <time>2016-08-23T09:08:25Z</time>
      </trkpt>
      <trkpt lat="45.82325" lon="4.60469">
        <ele>239</ele>
        <time>2016-08-23T09:08:26Z</time>
      </trkpt>
      <trkpt lat="45.82316" lon="4.6047">
        <ele>239</ele>
        <time>2016-08-23T09:08:28Z</time>
      </trkpt>
      <trkpt lat="45.82311" lon="4.60472">
        <ele>239</ele>
        <time>2016-08-23T09:08:29Z</time>
      </trkpt>
      <trkpt lat="45.82306" lon="4.60476">
        <ele>239</ele>
        <time>2016-08-23T09:08:30Z</time>
      </trkpt>
      <trkpt lat="45.82301" lon="4.6048">
        <ele>239</ele>
        <time>2016-08-23T09:08:31Z</time>
      </trkpt>
      <trkpt lat="45.82296" lon="4.60482">
        <ele>239</ele>
        <time>2016-08-23T09:08:32Z</time>
      </trkpt>
      <trkpt lat="45.82291" lon="4.60483">
        <ele>239</ele>
        <time>2016-08-23T09:08:33Z</time>
      </trkpt>
      <trkpt lat="45.82286" lon="4.60483">
        <ele>239</ele>
        <time>2016-08-23T09:08:34Z</time>
      </trkpt>
      <trkpt lat="45.82281" lon="4.60483">
        <ele>239</ele>
        <time>2016-08-23T09:08:35Z</time>
      </trkpt>
      <trkpt lat="45.82277" lon="4.60482">
        <ele>239</ele>
        <time>2016-08-23T09:08:36Z</time>
      </trkpt>
      <trkpt lat="45.82271" lon="4.60482">
        <ele>239</ele>
        <time>2016-08-23T09:08:37Z</time>
      </trkpt>
      <trkpt lat="45.82265" lon="4.60481">
        <ele>239</ele>
        <time>2016-08-23T09:08:38Z</time>
      </trkpt>
      <trkpt lat="45.8226" lon="4.60481">
        <ele>239</ele>
        <time>2016-08-23T09:08:39Z</time>
      </trkpt>
      <trkpt lat="45.82254" lon="4.6048">
        <ele>239</ele>
        <time>2016-08-23T09:08:40Z</time>
      </trkpt>
      <trkpt lat="45.82249" lon="4.6048">
        <ele>242</ele>
        <time>2016-08-23T09:08:41Z</time>
      </trkpt>
      <trkpt lat="45.82244" lon="4.6048">
        <ele>242</ele>
        <time>2016-08-23T09:08:42Z</time>
      </trkpt>
      <trkpt lat="45.82238" lon="4.60481">
        <ele>243</ele>
        <time>2016-08-23T09:08:43Z</time>
      </trkpt>
      <trkpt lat="45.82233" lon="4.60482">
        <ele>243</ele>
        <time>2016-08-23T09:08:44Z</time>
      </trkpt>
      <trkpt lat="45.82228" lon="4.60482">
        <ele>244</ele>
        <time>2016-08-23T09:08:45Z</time>
      </trkpt>
      <trkpt lat="45.82222" lon="4.60482">
        <ele>244</ele>
        <time>2016-08-23T09:08:46Z</time>
      </trkpt>
      <trkpt lat="45.82218" lon="4.60482">
        <ele>245</ele>
        <time>2016-08-23T09:08:47Z</time>
      </trkpt>
      <trkpt lat="45.82212" lon="4.60483">
        <ele>245</ele>
        <time>2016-08-23T09:08:48Z</time>
      </trkpt>
      <trkpt lat="45.82207" lon="4.60484">
        <ele>246</ele>
        <time>2016-08-23T09:08:49Z</time>
      </trkpt>
      <trkpt lat="45.82201" lon="4.60485">
        <ele>246</ele>
        <time>2016-08-23T09:08:50Z</time>
      </trkpt>
      <trkpt lat="45.82196" lon="4.60486">
        <ele>246</ele>
        <time>2016-08-23T09:08:51Z</time>
      </trkpt>
      <trkpt lat="45.82191" lon="4.60489">
        <ele>246</ele>
        <time>2016-08-23T09:08:52Z</time>
      </trkpt>
      <trkpt lat="45.82187" lon="4.6049">
        <ele>246</ele>
        <time>2016-08-23T09:08:53Z</time>
      </trkpt>
      <trkpt lat="45.82181" lon="4.60492">
        <ele>246</ele>
        <time>2016-08-23T09:08:54Z</time>
      </trkpt>
      <trkpt lat="45.82176" lon="4.60492">
        <ele>246</ele>
        <time>2016-08-23T09:08:55Z</time>
      </trkpt>
      <trkpt lat="45.82171" lon="4.60495">
        <ele>246</ele>
        <time>2016-08-23T09:08:56Z</time>
      </trkpt>
      <trkpt lat="45.82166" lon="4.60496">
        <ele>247</ele>
        <time>2016-08-23T09:08:57Z</time>
      </trkpt>
      <trkpt lat="45.82162" lon="4.60497">
        <ele>247</ele>
        <time>2016-08-23T09:08:58Z</time>
      </trkpt>
      <trkpt lat="45.82156" lon="4.60499">
        <ele>249</ele>
        <time>2016-08-23T09:08:59Z</time>
      </trkpt>
      <trkpt lat="45.82149" lon="4.60501">
        <ele>244</ele>
        <time>2016-08-23T09:09:00Z</time>
      </trkpt>
      <trkpt lat="45.82143" lon="4.60501">
        <ele>244</ele>
        <time>2016-08-23T09:09:01Z</time>
      </trkpt>
      <trkpt lat="45.82136" lon="4.60503">
        <ele>244</ele>
        <time>2016-08-23T09:09:02Z</time>
      </trkpt>
      <trkpt lat="45.82131" lon="4.60505">
        <ele>244</ele>
        <time>2016-08-23T09:09:03Z</time>
      </trkpt>
      <trkpt lat="45.82126" lon="4.60506">
        <ele>244</ele>
        <time>2016-08-23T09:09:04Z</time>
      </trkpt>
      <trkpt lat="45.8212" lon="4.60507">
        <ele>245</ele>
        <time>2016-08-23T09:09:05Z</time>
      </trkpt>
      <trkpt lat="45.82115" lon="4.60508">
        <ele>245</ele>
        <time>2016-08-23T09:09:06Z</time>
      </trkpt>
      <trkpt lat="45.82109" lon="4.60509">
        <ele>246</ele>
        <time>2016-08-23T09:09:07Z</time>
      </trkpt>
      <trkpt lat="45.82103" lon="4.60509">
        <ele>246</ele>
        <time>2016-08-23T09:09:08Z</time>
      </trkpt>
      <trkpt lat="45.82098" lon="4.6051">
        <ele>247</ele>
        <time>2016-08-23T09:09:09Z</time>
      </trkpt>
      <trkpt lat="45.82092" lon="4.60511">
        <ele>248</ele>
        <time>2016-08-23T09:09:10Z</time>
      </trkpt>
      <trkpt lat="45.82086" lon="4.60512">
        <ele>248</ele>
        <time>2016-08-23T09:09:11Z</time>
      </trkpt>
      <trkpt lat="45.82081" lon="4.60513">
        <ele>249</ele>
        <time>2016-08-23T09:09:12Z</time>
      </trkpt>
      <trkpt lat="45.82075" lon="4.60513">
        <ele>249</ele>
        <time>2016-08-23T09:09:13Z</time>
      </trkpt>
      <trkpt lat="45.8207" lon="4.60514">
        <ele>249</ele>
        <time>2016-08-23T09:09:14Z</time>
      </trkpt>
      <trkpt lat="45.82064" lon="4.60514">
        <ele>249</ele>
        <time>2016-08-23T09:09:15Z</time>
      </trkpt>
      <trkpt lat="45.82059" lon="4.60515">
        <ele>248</ele>
        <time>2016-08-23T09:09:16Z</time>
      </trkpt>
      <trkpt lat="45.82054" lon="4.60516">
        <ele>248</ele>
        <time>2016-08-23T09:09:17Z</time>
      </trkpt>
      <trkpt lat="45.82049" lon="4.60518">
        <ele>248</ele>
        <time>2016-08-23T09:09:18Z</time>
      </trkpt>
      <trkpt lat="45.82044" lon="4.6052">
        <ele>248</ele>
        <time>2016-08-23T09:09:19Z</time>
      </trkpt>
      <trkpt lat="45.8204" lon="4.60523">
        <ele>248</ele>
        <time>2016-08-23T09:09:20Z</time>
      </trkpt>
      <trkpt lat="45.82035" lon="4.60525">
        <ele>248</ele>
        <time>2016-08-23T09:09:21Z</time>
      </trkpt>
      <trkpt lat="45.8203" lon="4.60527">
        <ele>248</ele>
        <time>2016-08-23T09:09:22Z</time>
      </trkpt>
      <trkpt lat="45.82025" lon="4.60529">
        <ele>248</ele>
        <time>2016-08-23T09:09:23Z</time>
      </trkpt>
      <trkpt lat="45.82019" lon="4.60531">
        <ele>248</ele>
        <time>2016-08-23T09:09:24Z</time>
      </trkpt>
      <trkpt lat="45.82014" lon="4.60534">
        <ele>247</ele>
        <time>2016-08-23T09:09:25Z</time>
      </trkpt>
      <trkpt lat="45.8201" lon="4.60536">
        <ele>247</ele>
        <time>2016-08-23T09:09:26Z</time>
      </trkpt>
      <trkpt lat="45.82004" lon="4.60539">
        <ele>247</ele>
        <time>2016-08-23T09:09:27Z</time>
      </trkpt>
      <trkpt lat="45.81999" lon="4.6054">
        <ele>248</ele>
        <time>2016-08-23T09:09:28Z</time>
      </trkpt>
      <trkpt lat="45.81993" lon="4.60542">
        <ele>247</ele>
        <time>2016-08-23T09:09:29Z</time>
      </trkpt>
      <trkpt lat="45.81988" lon="4.60544">
        <ele>247</ele>
        <time>2016-08-23T09:09:30Z</time>
      </trkpt>
      <trkpt lat="45.8198" lon="4.60545">
        <ele>247</ele>
        <time>2016-08-23T09:09:31Z</time>
      </trkpt>
      <trkpt lat="45.81975" lon="4.60546">
        <ele>247</ele>
        <time>2016-08-23T09:09:32Z</time>
      </trkpt>
      <trkpt lat="45.8197" lon="4.60547">
        <ele>247</ele>
        <time>2016-08-23T09:09:33Z</time>
      </trkpt>
      <trkpt lat="45.81964" lon="4.60548">
        <ele>247</ele>
        <time>2016-08-23T09:09:34Z</time>
      </trkpt>
      <trkpt lat="45.81957" lon="4.60548">
        <ele>247</ele>
        <time>2016-08-23T09:09:35Z</time>
      </trkpt>
      <trkpt lat="45.81951" lon="4.60549">
        <ele>247</ele>
        <time>2016-08-23T09:09:36Z</time>
      </trkpt>
      <trkpt lat="45.81945" lon="4.60549">
        <ele>247</ele>
        <time>2016-08-23T09:09:37Z</time>
      </trkpt>
      <trkpt lat="45.8194" lon="4.6055">
        <ele>247</ele>
        <time>2016-08-23T09:09:38Z</time>
      </trkpt>
      <trkpt lat="45.81933" lon="4.6055">
        <ele>247</ele>
        <time>2016-08-23T09:09:39Z</time>
      </trkpt>
      <trkpt lat="45.81928" lon="4.6055">
        <ele>247</ele>
        <time>2016-08-23T09:09:40Z</time>
      </trkpt>
      <trkpt lat="45.81922" lon="4.6055">
        <ele>247</ele>
        <time>2016-08-23T09:09:41Z</time>
      </trkpt>
      <trkpt lat="45.81916" lon="4.60549">
        <ele>246</ele>
        <time>2016-08-23T09:09:42Z</time>
      </trkpt>
      <trkpt lat="45.8191" lon="4.60547">
        <ele>246</ele>
        <time>2016-08-23T09:09:43Z</time>
      </trkpt>
      <trkpt lat="45.81906" lon="4.60547">
        <ele>246</ele>
        <time>2016-08-23T09:09:44Z</time>
      </trkpt>
      <trkpt lat="45.819" lon="4.60546">
        <ele>246</ele>
        <time>2016-08-23T09:09:45Z</time>
      </trkpt>
      <trkpt lat="45.81894" lon="4.60543">
        <ele>246</ele>
        <time>2016-08-23T09:09:46Z</time>
      </trkpt>
      <trkpt lat="45.81889" lon="4.6054">
        <ele>246</ele>
        <time>2016-08-23T09:09:47Z</time>
      </trkpt>
      <trkpt lat="45.81884" lon="4.60536">
        <ele>246</ele>
        <time>2016-08-23T09:09:48Z</time>
      </trkpt>
      <trkpt lat="45.81879" lon="4.60533">
        <ele>246</ele>
        <time>2016-08-23T09:09:49Z</time>
      </trkpt>
      <trkpt lat="45.81874" lon="4.60529">
        <ele>246</ele>
        <time>2016-08-23T09:09:50Z</time>
      </trkpt>
      <trkpt lat="45.81869" lon="4.60526">
        <ele>246</ele>
        <time>2016-08-23T09:09:51Z</time>
      </trkpt>
      <trkpt lat="45.81865" lon="4.60521">
        <ele>246</ele>
        <time>2016-08-23T09:09:52Z</time>
      </trkpt>
      <trkpt lat="45.81861" lon="4.60516">
        <ele>245</ele>
        <time>2016-08-23T09:09:53Z</time>
      </trkpt>
      <trkpt lat="45.81857" lon="4.6051">
        <ele>245</ele>
        <time>2016-08-23T09:09:54Z</time>
      </trkpt>
      <trkpt lat="45.81854" lon="4.60504">
        <ele>245</ele>
        <time>2016-08-23T09:09:55Z</time>
      </trkpt>
      <trkpt lat="45.81851" lon="4.60497">
        <ele>246</ele>
        <time>2016-08-23T09:09:56Z</time>
      </trkpt>
      <trkpt lat="45.81848" lon="4.6049">
        <ele>246</ele>
        <time>2016-08-23T09:09:57Z</time>
      </trkpt>
      <trkpt lat="45.81845" lon="4.60484">
        <ele>246</ele>
        <time>2016-08-23T09:09:58Z</time>
      </trkpt>
      <trkpt lat="45.81841" lon="4.60479">
        <ele>246</ele>
        <time>2016-08-23T09:09:59Z</time>
      </trkpt>
      <trkpt lat="45.81839" lon="4.60473">
        <ele>246</ele>
        <time>2016-08-23T09:10:00Z</time>
      </trkpt>
      <trkpt lat="45.81836" lon="4.60467">
        <ele>246</ele>
        <time>2016-08-23T09:10:01Z</time>
      </trkpt>
      <trkpt lat="45.81833" lon="4.60461">
        <ele>245</ele>
        <time>2016-08-23T09:10:02Z</time>
      </trkpt>
      <trkpt lat="45.8183" lon="4.60455">
        <ele>245</ele>
        <time>2016-08-23T09:10:03Z</time>
      </trkpt>
      <trkpt lat="45.81825" lon="4.60445">
        <ele>245</ele>
        <time>2016-08-23T09:10:05Z</time>
      </trkpt>
      <trkpt lat="45.81822" lon="4.60439">
        <ele>245</ele>
        <time>2016-08-23T09:10:06Z</time>
      </trkpt>
      <trkpt lat="45.8182" lon="4.60433">
        <ele>245</ele>
        <time>2016-08-23T09:10:07Z</time>
      </trkpt>
      <trkpt lat="45.81817" lon="4.60427">
        <ele>245</ele>
        <time>2016-08-23T09:10:08Z</time>
      </trkpt>
      <trkpt lat="45.81814" lon="4.6042">
        <ele>245</ele>
        <time>2016-08-23T09:10:09Z</time>
      </trkpt>
      <trkpt lat="45.81812" lon="4.60414">
        <ele>245</ele>
        <time>2016-08-23T09:10:10Z</time>
      </trkpt>
      <trkpt lat="45.81809" lon="4.60408">
        <ele>245</ele>
        <time>2016-08-23T09:10:11Z</time>
      </trkpt>
      <trkpt lat="45.81806" lon="4.60402">
        <ele>245</ele>
        <time>2016-08-23T09:10:12Z</time>
      </trkpt>
      <trkpt lat="45.81799" lon="4.60396">
        <ele>245</ele>
        <time>2016-08-23T09:10:14Z</time>
      </trkpt>
      <trkpt lat="45.81795" lon="4.60392">
        <ele>245</ele>
        <time>2016-08-23T09:10:15Z</time>
      </trkpt>
      <trkpt lat="45.8179" lon="4.60388">
        <ele>245</ele>
        <time>2016-08-23T09:10:16Z</time>
      </trkpt>
      <trkpt lat="45.81785" lon="4.60385">
        <ele>245</ele>
        <time>2016-08-23T09:10:17Z</time>
      </trkpt>
      <trkpt lat="45.8178" lon="4.60381">
        <ele>245</ele>
        <time>2016-08-23T09:10:18Z</time>
      </trkpt>
      <trkpt lat="45.81774" lon="4.60378">
        <ele>245</ele>
        <time>2016-08-23T09:10:19Z</time>
      </trkpt>
      <trkpt lat="45.81768" lon="4.60375">
        <ele>245</ele>
        <time>2016-08-23T09:10:20Z</time>
      </trkpt>
      <trkpt lat="45.81762" lon="4.60372">
        <ele>246</ele>
        <time>2016-08-23T09:10:21Z</time>
      </trkpt>
      <trkpt lat="45.81757" lon="4.6037">
        <ele>246</ele>
        <time>2016-08-23T09:10:22Z</time>
      </trkpt>
      <trkpt lat="45.81751" lon="4.60368">
        <ele>246</ele>
        <time>2016-08-23T09:10:23Z</time>
      </trkpt>
      <trkpt lat="45.81746" lon="4.60366">
        <ele>245</ele>
        <time>2016-08-23T09:10:24Z</time>
      </trkpt>
      <trkpt lat="45.81741" lon="4.60363">
        <ele>245</ele>
        <time>2016-08-23T09:10:25Z</time>
      </trkpt>
      <trkpt lat="45.81735" lon="4.60361">
        <ele>245</ele>
        <time>2016-08-23T09:10:26Z</time>
      </trkpt>
      <trkpt lat="45.81729" lon="4.60358">
        <ele>244</ele>
        <time>2016-08-23T09:10:27Z</time>
      </trkpt>
      <trkpt lat="45.81724" lon="4.60356">
        <ele>244</ele>
        <time>2016-08-23T09:10:28Z</time>
      </trkpt>
      <trkpt lat="45.81719" lon="4.60354">
        <ele>244</ele>
        <time>2016-08-23T09:10:29Z</time>
      </trkpt>
      <trkpt lat="45.81714" lon="4.60352">
        <ele>244</ele>
        <time>2016-08-23T09:10:30Z</time>
      </trkpt>
      <trkpt lat="45.81708" lon="4.60349">
        <ele>244</ele>
        <time>2016-08-23T09:10:31Z</time>
      </trkpt>
      <trkpt lat="45.81703" lon="4.60346">
        <ele>244</ele>
        <time>2016-08-23T09:10:32Z</time>
      </trkpt>
      <trkpt lat="45.81699" lon="4.60343">
        <ele>243</ele>
        <time>2016-08-23T09:10:33Z</time>
      </trkpt>
      <trkpt lat="45.81695" lon="4.60341">
        <ele>243</ele>
        <time>2016-08-23T09:10:34Z</time>
      </trkpt>
      <trkpt lat="45.8169" lon="4.60338">
        <ele>243</ele>
        <time>2016-08-23T09:10:35Z</time>
      </trkpt>
      <trkpt lat="45.81684" lon="4.60335">
        <ele>243</ele>
        <time>2016-08-23T09:10:36Z</time>
      </trkpt>
      <trkpt lat="45.81679" lon="4.60333">
        <ele>245</ele>
        <time>2016-08-23T09:10:37Z</time>
      </trkpt>
      <trkpt lat="45.81674" lon="4.6033">
        <ele>244</ele>
        <time>2016-08-23T09:10:38Z</time>
      </trkpt>
      <trkpt lat="45.81668" lon="4.60328">
        <ele>244</ele>
        <time>2016-08-23T09:10:39Z</time>
      </trkpt>
      <trkpt lat="45.81663" lon="4.60326">
        <ele>243</ele>
        <time>2016-08-23T09:10:40Z</time>
      </trkpt>
      <trkpt lat="45.81658" lon="4.60324">
        <ele>243</ele>
        <time>2016-08-23T09:10:41Z</time>
      </trkpt>
      <trkpt lat="45.81653" lon="4.60321">
        <ele>243</ele>
        <time>2016-08-23T09:10:42Z</time>
      </trkpt>
      <trkpt lat="45.81648" lon="4.60318">
        <ele>244</ele>
        <time>2016-08-23T09:10:43Z</time>
      </trkpt>
      <trkpt lat="45.81643" lon="4.60316">
        <ele>244</ele>
        <time>2016-08-23T09:10:44Z</time>
      </trkpt>
      <trkpt lat="45.81638" lon="4.60314">
        <ele>244</ele>
        <time>2016-08-23T09:10:45Z</time>
      </trkpt>
      <trkpt lat="45.81634" lon="4.60312">
        <ele>244</ele>
        <time>2016-08-23T09:10:46Z</time>
      </trkpt>
      <trkpt lat="45.81629" lon="4.60308">
        <ele>244</ele>
        <time>2016-08-23T09:10:47Z</time>
      </trkpt>
      <trkpt lat="45.81623" lon="4.60306">
        <ele>244</ele>
        <time>2016-08-23T09:10:48Z</time>
      </trkpt>
      <trkpt lat="45.81616" lon="4.60305">
        <ele>243</ele>
        <time>2016-08-23T09:10:49Z</time>
      </trkpt>
      <trkpt lat="45.81611" lon="4.60302">
        <ele>243</ele>
        <time>2016-08-23T09:10:50Z</time>
      </trkpt>
      <trkpt lat="45.81605" lon="4.60299">
        <ele>243</ele>
        <time>2016-08-23T09:10:51Z</time>
      </trkpt>
      <trkpt lat="45.81599" lon="4.60296">
        <ele>243</ele>
        <time>2016-08-23T09:10:52Z</time>
      </trkpt>
      <trkpt lat="45.81593" lon="4.60293">
        <ele>243</ele>
        <time>2016-08-23T09:10:53Z</time>
      </trkpt>
      <trkpt lat="45.81587" lon="4.6029">
        <ele>243</ele>
        <time>2016-08-23T09:10:54Z</time>
      </trkpt>
      <trkpt lat="45.8158" lon="4.60287">
        <ele>240</ele>
        <time>2016-08-23T09:10:55Z</time>
      </trkpt>
      <trkpt lat="45.81575" lon="4.60285">
        <ele>240</ele>
        <time>2016-08-23T09:10:56Z</time>
      </trkpt>
      <trkpt lat="45.81569" lon="4.60282">
        <ele>240</ele>
        <time>2016-08-23T09:10:57Z</time>
      </trkpt>
      <trkpt lat="45.81564" lon="4.6028">
        <ele>240</ele>
        <time>2016-08-23T09:10:58Z</time>
      </trkpt>
      <trkpt lat="45.81559" lon="4.60278">
        <ele>240</ele>
        <time>2016-08-23T09:10:59Z</time>
      </trkpt>
      <trkpt lat="45.81554" lon="4.60276">
        <ele>240</ele>
        <time>2016-08-23T09:11:00Z</time>
      </trkpt>
      <trkpt lat="45.81549" lon="4.60274">
        <ele>240</ele>
        <time>2016-08-23T09:11:01Z</time>
      </trkpt>
      <trkpt lat="45.81544" lon="4.60272">
        <ele>240</ele>
        <time>2016-08-23T09:11:02Z</time>
      </trkpt>
      <trkpt lat="45.81539" lon="4.60269">
        <ele>240</ele>
        <time>2016-08-23T09:11:03Z</time>
      </trkpt>
      <trkpt lat="45.81534" lon="4.60267">
        <ele>240</ele>
        <time>2016-08-23T09:11:04Z</time>
      </trkpt>
      <trkpt lat="45.81529" lon="4.60265">
        <ele>240</ele>
        <time>2016-08-23T09:11:05Z</time>
      </trkpt>
      <trkpt lat="45.81524" lon="4.60263">
        <ele>239</ele>
        <time>2016-08-23T09:11:06Z</time>
      </trkpt>
      <trkpt lat="45.81519" lon="4.60261">
        <ele>239</ele>
        <time>2016-08-23T09:11:07Z</time>
      </trkpt>
      <trkpt lat="45.81513" lon="4.60259">
        <ele>239</ele>
        <time>2016-08-23T09:11:08Z</time>
      </trkpt>
      <trkpt lat="45.81507" lon="4.60257">
        <ele>239</ele>
        <time>2016-08-23T09:11:09Z</time>
      </trkpt>
      <trkpt lat="45.81502" lon="4.60256">
        <ele>239</ele>
        <time>2016-08-23T09:11:10Z</time>
      </trkpt>
      <trkpt lat="45.81497" lon="4.60254">
        <ele>239</ele>
        <time>2016-08-23T09:11:11Z</time>
      </trkpt>
      <trkpt lat="45.81492" lon="4.60252">
        <ele>239</ele>
        <time>2016-08-23T09:11:12Z</time>
      </trkpt>
      <trkpt lat="45.81486" lon="4.6025">
        <ele>242</ele>
        <time>2016-08-23T09:11:13Z</time>
      </trkpt>
      <trkpt lat="45.8148" lon="4.60248">
        <ele>242</ele>
        <time>2016-08-23T09:11:14Z</time>
      </trkpt>
      <trkpt lat="45.81475" lon="4.60245">
        <ele>243</ele>
        <time>2016-08-23T09:11:15Z</time>
      </trkpt>
      <trkpt lat="45.81469" lon="4.60243">
        <ele>243</ele>
        <time>2016-08-23T09:11:16Z</time>
      </trkpt>
      <trkpt lat="45.81465" lon="4.6024">
        <ele>243</ele>
        <time>2016-08-23T09:11:17Z</time>
      </trkpt>
      <trkpt lat="45.81456" lon="4.60238">
        <ele>243</ele>
        <time>2016-08-23T09:11:18Z</time>
      </trkpt>
      <trkpt lat="45.8145" lon="4.60236">
        <ele>243</ele>
        <time>2016-08-23T09:11:19Z</time>
      </trkpt>
      <trkpt lat="45.81444" lon="4.60233">
        <ele>243</ele>
        <time>2016-08-23T09:11:20Z</time>
      </trkpt>
      <trkpt lat="45.81438" lon="4.60229">
        <ele>243</ele>
        <time>2016-08-23T09:11:21Z</time>
      </trkpt>
      <trkpt lat="45.81434" lon="4.60227">
        <ele>243</ele>
        <time>2016-08-23T09:11:22Z</time>
      </trkpt>
      <trkpt lat="45.81428" lon="4.60224">
        <ele>243</ele>
        <time>2016-08-23T09:11:23Z</time>
      </trkpt>
      <trkpt lat="45.81422" lon="4.60222">
        <ele>244</ele>
        <time>2016-08-23T09:11:24Z</time>
      </trkpt>
      <trkpt lat="45.81417" lon="4.60219">
        <ele>244</ele>
        <time>2016-08-23T09:11:25Z</time>
      </trkpt>
      <trkpt lat="45.81412" lon="4.60217">
        <ele>242</ele>
        <time>2016-08-23T09:11:26Z</time>
      </trkpt>
      <trkpt lat="45.81407" lon="4.60215">
        <ele>243</ele>
        <time>2016-08-23T09:11:27Z</time>
      </trkpt>
      <trkpt lat="45.81402" lon="4.60213">
        <ele>243</ele>
        <time>2016-08-23T09:11:28Z</time>
      </trkpt>
      <trkpt lat="45.81397" lon="4.60211">
        <ele>243</ele>
        <time>2016-08-23T09:11:29Z</time>
      </trkpt>
      <trkpt lat="45.81392" lon="4.60209">
        <ele>243</ele>
        <time>2016-08-23T09:11:30Z</time>
      </trkpt>
      <trkpt lat="45.81386" lon="4.60206">
        <ele>243</ele>
        <time>2016-08-23T09:11:31Z</time>
      </trkpt>
      <trkpt lat="45.81381" lon="4.60202">
        <ele>243</ele>
        <time>2016-08-23T09:11:32Z</time>
      </trkpt>
      <trkpt lat="45.81375" lon="4.60199">
        <ele>243</ele>
        <time>2016-08-23T09:11:33Z</time>
      </trkpt>
      <trkpt lat="45.8137" lon="4.60195">
        <ele>243</ele>
        <time>2016-08-23T09:11:34Z</time>
      </trkpt>
      <trkpt lat="45.81366" lon="4.60192">
        <ele>243</ele>
        <time>2016-08-23T09:11:35Z</time>
      </trkpt>
      <trkpt lat="45.81362" lon="4.60187">
        <ele>243</ele>
        <time>2016-08-23T09:11:36Z</time>
      </trkpt>
      <trkpt lat="45.81358" lon="4.60183">
        <ele>243</ele>
        <time>2016-08-23T09:11:37Z</time>
      </trkpt>
      <trkpt lat="45.81354" lon="4.60178">
        <ele>243</ele>
        <time>2016-08-23T09:11:38Z</time>
      </trkpt>
      <trkpt lat="45.8135" lon="4.60173">
        <ele>243</ele>
        <time>2016-08-23T09:11:39Z</time>
      </trkpt>
      <trkpt lat="45.81346" lon="4.60168">
        <ele>243</ele>
        <time>2016-08-23T09:11:40Z</time>
      </trkpt>
      <trkpt lat="45.81344" lon="4.60163">
        <ele>247</ele>
        <time>2016-08-23T09:11:41Z</time>
      </trkpt>
      <trkpt lat="45.81338" lon="4.60153">
        <ele>248</ele>
        <time>2016-08-23T09:11:43Z</time>
      </trkpt>
      <trkpt lat="45.81336" lon="4.60147">
        <ele>250</ele>
        <time>2016-08-23T09:11:44Z</time>
      </trkpt>
      <trkpt lat="45.81333" lon="4.60142">
        <ele>247</ele>
        <time>2016-08-23T09:11:45Z</time>
      </trkpt>
      <trkpt lat="45.81329" lon="4.60137">
        <ele>247</ele>
        <time>2016-08-23T09:11:46Z</time>
      </trkpt>
      <trkpt lat="45.81324" lon="4.60132">
        <ele>248</ele>
        <time>2016-08-23T09:11:47Z</time>
      </trkpt>
      <trkpt lat="45.8132" lon="4.60128">
        <ele>248</ele>
        <time>2016-08-23T09:11:48Z</time>
      </trkpt>
      <trkpt lat="45.81314" lon="4.60124">
        <ele>249</ele>
        <time>2016-08-23T09:11:49Z</time>
      </trkpt>
      <trkpt lat="45.81309" lon="4.6012">
        <ele>249</ele>
        <time>2016-08-23T09:11:50Z</time>
      </trkpt>
      <trkpt lat="45.81304" lon="4.60115">
        <ele>249</ele>
        <time>2016-08-23T09:11:51Z</time>
      </trkpt>
      <trkpt lat="45.813" lon="4.60109">
        <ele>249</ele>
        <time>2016-08-23T09:11:52Z</time>
      </trkpt>
      <trkpt lat="45.81295" lon="4.60104">
        <ele>249</ele>
        <time>2016-08-23T09:11:53Z</time>
      </trkpt>
      <trkpt lat="45.81289" lon="4.60099">
        <ele>248</ele>
        <time>2016-08-23T09:11:54Z</time>
      </trkpt>
      <trkpt lat="45.81285" lon="4.60094">
        <ele>248</ele>
        <time>2016-08-23T09:11:55Z</time>
      </trkpt>
      <trkpt lat="45.8128" lon="4.60089">
        <ele>248</ele>
        <time>2016-08-23T09:11:56Z</time>
      </trkpt>
      <trkpt lat="45.81276" lon="4.60084">
        <ele>247</ele>
        <time>2016-08-23T09:11:57Z</time>
      </trkpt>
      <trkpt lat="45.81272" lon="4.60079">
        <ele>254</ele>
        <time>2016-08-23T09:11:58Z</time>
      </trkpt>
      <trkpt lat="45.81267" lon="4.60073">
        <ele>254</ele>
        <time>2016-08-23T09:11:59Z</time>
      </trkpt>
      <trkpt lat="45.81262" lon="4.60068">
        <ele>254</ele>
        <time>2016-08-23T09:12:00Z</time>
      </trkpt>
      <trkpt lat="45.81257" lon="4.60063">
        <ele>254</ele>
        <time>2016-08-23T09:12:01Z</time>
      </trkpt>
      <trkpt lat="45.81253" lon="4.60057">
        <ele>256</ele>
        <time>2016-08-23T09:12:02Z</time>
      </trkpt>
      <trkpt lat="45.8125" lon="4.60051">
        <ele>249</ele>
        <time>2016-08-23T09:12:03Z</time>
      </trkpt>
      <trkpt lat="45.81246" lon="4.60045">
        <ele>250</ele>
        <time>2016-08-23T09:12:04Z</time>
      </trkpt>
      <trkpt lat="45.81242" lon="4.60039">
        <ele>251</ele>
        <time>2016-08-23T09:12:05Z</time>
      </trkpt>
      <trkpt lat="45.81237" lon="4.60034">
        <ele>251</ele>
        <time>2016-08-23T09:12:06Z</time>
      </trkpt>
      <trkpt lat="45.81231" lon="4.60029">
        <ele>252</ele>
        <time>2016-08-23T09:12:07Z</time>
      </trkpt>
      <trkpt lat="45.81226" lon="4.60024">
        <ele>252</ele>
        <time>2016-08-23T09:12:08Z</time>
      </trkpt>
      <trkpt lat="45.81222" lon="4.60018">
        <ele>252</ele>
        <time>2016-08-23T09:12:09Z</time>
      </trkpt>
      <trkpt lat="45.81217" lon="4.60012">
        <ele>251</ele>
        <time>2016-08-23T09:12:10Z</time>
      </trkpt>
      <trkpt lat="45.81213" lon="4.60007">
        <ele>251</ele>
        <time>2016-08-23T09:12:11Z</time>
      </trkpt>
      <trkpt lat="45.81209" lon="4.60001">
        <ele>250</ele>
        <time>2016-08-23T09:12:12Z</time>
      </trkpt>
      <trkpt lat="45.81204" lon="4.59996">
        <ele>259</ele>
        <time>2016-08-23T09:12:13Z</time>
      </trkpt>
      <trkpt lat="45.812" lon="4.59991">
        <ele>258</ele>
        <time>2016-08-23T09:12:14Z</time>
      </trkpt>
      <trkpt lat="45.81195" lon="4.59986">
        <ele>258</ele>
        <time>2016-08-23T09:12:15Z</time>
      </trkpt>
      <trkpt lat="45.81188" lon="4.59982">
        <ele>257</ele>
        <time>2016-08-23T09:12:16Z</time>
      </trkpt>
      <trkpt lat="45.81182" lon="4.59978">
        <ele>256</ele>
        <time>2016-08-23T09:12:17Z</time>
      </trkpt>
      <trkpt lat="45.81175" lon="4.59975">
        <ele>256</ele>
        <time>2016-08-23T09:12:18Z</time>
      </trkpt>
      <trkpt lat="45.81168" lon="4.59973">
        <ele>256</ele>
        <time>2016-08-23T09:12:19Z</time>
      </trkpt>
      <trkpt lat="45.81161" lon="4.59971">
        <ele>248</ele>
        <time>2016-08-23T09:12:20Z</time>
      </trkpt>
      <trkpt lat="45.81156" lon="4.5997">
        <ele>248</ele>
        <time>2016-08-23T09:12:21Z</time>
      </trkpt>
      <trkpt lat="45.81151" lon="4.59969">
        <ele>248</ele>
        <time>2016-08-23T09:12:22Z</time>
      </trkpt>
      <trkpt lat="45.81147" lon="4.59968">
        <ele>248</ele>
        <time>2016-08-23T09:12:23Z</time>
      </trkpt>
      <trkpt lat="45.81142" lon="4.59967">
        <ele>248</ele>
        <time>2016-08-23T09:12:24Z</time>
      </trkpt>
      <trkpt lat="45.81137" lon="4.59967">
        <ele>248</ele>
        <time>2016-08-23T09:12:25Z</time>
      </trkpt>
      <trkpt lat="45.81133" lon="4.59966">
        <ele>247</ele>
        <time>2016-08-23T09:12:26Z</time>
      </trkpt>
      <trkpt lat="45.81124" lon="4.59964">
        <ele>247</ele>
        <time>2016-08-23T09:12:28Z</time>
      </trkpt>
      <trkpt lat="45.81121" lon="4.59961">
        <ele>247</ele>
        <time>2016-08-23T09:12:29Z</time>
      </trkpt>
      <trkpt lat="45.81115" lon="4.59959">
        <ele>247</ele>
        <time>2016-08-23T09:12:30Z</time>
      </trkpt>
      <trkpt lat="45.81109" lon="4.59959">
        <ele>247</ele>
        <time>2016-08-23T09:12:31Z</time>
      </trkpt>
      <trkpt lat="45.81102" lon="4.5996">
        <ele>246</ele>
        <time>2016-08-23T09:12:32Z</time>
      </trkpt>
      <trkpt lat="45.81094" lon="4.59963">
        <ele>246</ele>
        <time>2016-08-23T09:12:33Z</time>
      </trkpt>
      <trkpt lat="45.81087" lon="4.59964">
        <ele>245</ele>
        <time>2016-08-23T09:12:34Z</time>
      </trkpt>
      <trkpt lat="45.8108" lon="4.59964">
        <ele>242</ele>
        <time>2016-08-23T09:12:35Z</time>
      </trkpt>
      <trkpt lat="45.81074" lon="4.59965">
        <ele>242</ele>
        <time>2016-08-23T09:12:36Z</time>
      </trkpt>
      <trkpt lat="45.81067" lon="4.59965">
        <ele>242</ele>
        <time>2016-08-23T09:12:37Z</time>
      </trkpt>
      <trkpt lat="45.81061" lon="4.59965">
        <ele>242</ele>
        <time>2016-08-23T09:12:38Z</time>
      </trkpt>
      <trkpt lat="45.81055" lon="4.59965">
        <ele>242</ele>
        <time>2016-08-23T09:12:39Z</time>
      </trkpt>
      <trkpt lat="45.81049" lon="4.59964">
        <ele>242</ele>
        <time>2016-08-23T09:12:40Z</time>
      </trkpt>
      <trkpt lat="45.81043" lon="4.59962">
        <ele>241</ele>
        <time>2016-08-23T09:12:41Z</time>
      </trkpt>
      <trkpt lat="45.81038" lon="4.59961">
        <ele>241</ele>
        <time>2016-08-23T09:12:42Z</time>
      </trkpt>
      <trkpt lat="45.81032" lon="4.5996">
        <ele>241</ele>
        <time>2016-08-23T09:12:43Z</time>
      </trkpt>
      <trkpt lat="45.81026" lon="4.59961">
        <ele>241</ele>
        <time>2016-08-23T09:12:44Z</time>
      </trkpt>
      <trkpt lat="45.81021" lon="4.59962">
        <ele>241</ele>
        <time>2016-08-23T09:12:45Z</time>
      </trkpt>
      <trkpt lat="45.81016" lon="4.59964">
        <ele>241</ele>
        <time>2016-08-23T09:12:46Z</time>
      </trkpt>
      <trkpt lat="45.8101" lon="4.59964">
        <ele>241</ele>
        <time>2016-08-23T09:12:47Z</time>
      </trkpt>
      <trkpt lat="45.81005" lon="4.59966">
        <ele>241</ele>
        <time>2016-08-23T09:12:48Z</time>
      </trkpt>
      <trkpt lat="45.81" lon="4.59967">
        <ele>241</ele>
        <time>2016-08-23T09:12:49Z</time>
      </trkpt>
      <trkpt lat="45.80996" lon="4.59969">
        <ele>242</ele>
        <time>2016-08-23T09:12:50Z</time>
      </trkpt>
      <trkpt lat="45.80991" lon="4.59971">
        <ele>242</ele>
        <time>2016-08-23T09:12:51Z</time>
      </trkpt>
      <trkpt lat="45.80986" lon="4.59974">
        <ele>242</ele>
        <time>2016-08-23T09:12:52Z</time>
      </trkpt>
      <trkpt lat="45.80981" lon="4.59976">
        <ele>242</ele>
        <time>2016-08-23T09:12:53Z</time>
      </trkpt>
      <trkpt lat="45.80977" lon="4.5998">
        <ele>242</ele>
        <time>2016-08-23T09:12:54Z</time>
      </trkpt>
      <trkpt lat="45.8097" lon="4.59982">
        <ele>242</ele>
        <time>2016-08-23T09:12:55Z</time>
      </trkpt>
      <trkpt lat="45.80964" lon="4.59982">
        <ele>242</ele>
        <time>2016-08-23T09:12:56Z</time>
      </trkpt>
      <trkpt lat="45.80959" lon="4.59981">
        <ele>243</ele>
        <time>2016-08-23T09:12:57Z</time>
      </trkpt>
      <trkpt lat="45.80953" lon="4.59983">
        <ele>243</ele>
        <time>2016-08-23T09:12:58Z</time>
      </trkpt>
      <trkpt lat="45.80948" lon="4.59984">
        <ele>243</ele>
        <time>2016-08-23T09:12:59Z</time>
      </trkpt>
      <trkpt lat="45.80942" lon="4.59983">
        <ele>243</ele>
        <time>2016-08-23T09:13:00Z</time>
      </trkpt>
      <trkpt lat="45.80936" lon="4.59982">
        <ele>244</ele>
        <time>2016-08-23T09:13:01Z</time>
      </trkpt>
      <trkpt lat="45.8093" lon="4.59981">
        <ele>244</ele>
        <time>2016-08-23T09:13:02Z</time>
      </trkpt>
      <trkpt lat="45.80925" lon="4.59979">
        <ele>244</ele>
        <time>2016-08-23T09:13:03Z</time>
      </trkpt>
      <trkpt lat="45.80919" lon="4.59978">
        <ele>244</ele>
        <time>2016-08-23T09:13:04Z</time>
      </trkpt>
      <trkpt lat="45.80914" lon="4.59977">
        <ele>246</ele>
        <time>2016-08-23T09:13:05Z</time>
      </trkpt>
      <trkpt lat="45.80909" lon="4.59976">
        <ele>246</ele>
        <time>2016-08-23T09:13:06Z</time>
      </trkpt>
      <trkpt lat="45.80903" lon="4.59975">
        <ele>246</ele>
        <time>2016-08-23T09:13:07Z</time>
      </trkpt>
      <trkpt lat="45.80897" lon="4.59973">
        <ele>247</ele>
        <time>2016-08-23T09:13:08Z</time>
      </trkpt>
      <trkpt lat="45.80891" lon="4.59971">
        <ele>247</ele>
        <time>2016-08-23T09:13:09Z</time>
      </trkpt>
      <trkpt lat="45.80887" lon="4.59969">
        <ele>247</ele>
        <time>2016-08-23T09:13:10Z</time>
      </trkpt>
      <trkpt lat="45.80883" lon="4.59967">
        <ele>247</ele>
        <time>2016-08-23T09:13:11Z</time>
      </trkpt>
      <trkpt lat="45.80878" lon="4.59966">
        <ele>247</ele>
        <time>2016-08-23T09:13:12Z</time>
      </trkpt>
      <trkpt lat="45.80873" lon="4.59963">
        <ele>247</ele>
        <time>2016-08-23T09:13:13Z</time>
      </trkpt>
      <trkpt lat="45.80865" lon="4.59958">
        <ele>247</ele>
        <time>2016-08-23T09:13:15Z</time>
      </trkpt>
      <trkpt lat="45.80861" lon="4.59956">
        <ele>247</ele>
        <time>2016-08-23T09:13:16Z</time>
      </trkpt>
      <trkpt lat="45.80855" lon="4.59953">
        <ele>247</ele>
        <time>2016-08-23T09:13:18Z</time>
      </trkpt>
      <trkpt lat="45.80852" lon="4.59951">
        <ele>247</ele>
        <time>2016-08-23T09:13:19Z</time>
      </trkpt>
      <trkpt lat="45.80845" lon="4.59946">
        <ele>247</ele>
        <time>2016-08-23T09:13:21Z</time>
      </trkpt>
      <trkpt lat="45.80841" lon="4.59943">
        <ele>246</ele>
        <time>2016-08-23T09:13:22Z</time>
      </trkpt>
      <trkpt lat="45.80838" lon="4.59939">
        <ele>246</ele>
        <time>2016-08-23T09:13:23Z</time>
      </trkpt>
      <trkpt lat="45.80833" lon="4.59936">
        <ele>250</ele>
        <time>2016-08-23T09:13:24Z</time>
      </trkpt>
      <trkpt lat="45.80828" lon="4.59933">
        <ele>250</ele>
        <time>2016-08-23T09:13:25Z</time>
      </trkpt>
      <trkpt lat="45.80823" lon="4.5993">
        <ele>250</ele>
        <time>2016-08-23T09:13:26Z</time>
      </trkpt>
      <trkpt lat="45.80818" lon="4.59926">
        <ele>250</ele>
        <time>2016-08-23T09:13:27Z</time>
      </trkpt>
      <trkpt lat="45.80813" lon="4.59922">
        <ele>251</ele>
        <time>2016-08-23T09:13:28Z</time>
      </trkpt>
      <trkpt lat="45.80808" lon="4.59919">
        <ele>252</ele>
        <time>2016-08-23T09:13:29Z</time>
      </trkpt>
      <trkpt lat="45.80803" lon="4.59914">
        <ele>247</ele>
        <time>2016-08-23T09:13:30Z</time>
      </trkpt>
      <trkpt lat="45.80797" lon="4.5991">
        <ele>247</ele>
        <time>2016-08-23T09:13:31Z</time>
      </trkpt>
      <trkpt lat="45.80792" lon="4.59906">
        <ele>248</ele>
        <time>2016-08-23T09:13:32Z</time>
      </trkpt>
      <trkpt lat="45.80787" lon="4.59902">
        <ele>248</ele>
        <time>2016-08-23T09:13:33Z</time>
      </trkpt>
      <trkpt lat="45.80782" lon="4.59898">
        <ele>248</ele>
        <time>2016-08-23T09:13:34Z</time>
      </trkpt>
      <trkpt lat="45.80777" lon="4.59894">
        <ele>248</ele>
        <time>2016-08-23T09:13:35Z</time>
      </trkpt>
      <trkpt lat="45.80772" lon="4.59891">
        <ele>249</ele>
        <time>2016-08-23T09:13:36Z</time>
      </trkpt>
      <trkpt lat="45.80767" lon="4.59887">
        <ele>249</ele>
        <time>2016-08-23T09:13:37Z</time>
      </trkpt>
      <trkpt lat="45.80761" lon="4.59882">
        <ele>248</ele>
        <time>2016-08-23T09:13:38Z</time>
      </trkpt>
      <trkpt lat="45.80756" lon="4.59877">
        <ele>248</ele>
        <time>2016-08-23T09:13:39Z</time>
      </trkpt>
      <trkpt lat="45.80751" lon="4.59874">
        <ele>248</ele>
        <time>2016-08-23T09:13:40Z</time>
      </trkpt>
      <trkpt lat="45.80746" lon="4.5987">
        <ele>252</ele>
        <time>2016-08-23T09:13:41Z</time>
      </trkpt>
      <trkpt lat="45.8074" lon="4.59866">
        <ele>252</ele>
        <time>2016-08-23T09:13:42Z</time>
      </trkpt>
      <trkpt lat="45.80733" lon="4.59862">
        <ele>252</ele>
        <time>2016-08-23T09:13:43Z</time>
      </trkpt>
      <trkpt lat="45.80728" lon="4.59858">
        <ele>252</ele>
        <time>2016-08-23T09:13:44Z</time>
      </trkpt>
      <trkpt lat="45.80723" lon="4.59856">
        <ele>252</ele>
        <time>2016-08-23T09:13:45Z</time>
      </trkpt>
      <trkpt lat="45.80717" lon="4.59853">
        <ele>252</ele>
        <time>2016-08-23T09:13:46Z</time>
      </trkpt>
      <trkpt lat="45.80712" lon="4.59849">
        <ele>252</ele>
        <time>2016-08-23T09:13:47Z</time>
      </trkpt>
      <trkpt lat="45.80707" lon="4.59846">
        <ele>252</ele>
        <time>2016-08-23T09:13:48Z</time>
      </trkpt>
      <trkpt lat="45.80702" lon="4.59843">
        <ele>252</ele>
        <time>2016-08-23T09:13:49Z</time>
      </trkpt>
      <trkpt lat="45.80697" lon="4.59839">
        <ele>252</ele>
        <time>2016-08-23T09:13:50Z</time>
      </trkpt>
      <trkpt lat="45.80691" lon="4.59835">
        <ele>252</ele>
        <time>2016-08-23T09:13:51Z</time>
      </trkpt>
      <trkpt lat="45.80685" lon="4.59831">
        <ele>248</ele>
        <time>2016-08-23T09:13:52Z</time>
      </trkpt>
      <trkpt lat="45.80679" lon="4.59827">
        <ele>248</ele>
        <time>2016-08-23T09:13:53Z</time>
      </trkpt>
      <trkpt lat="45.80674" lon="4.59822">
        <ele>248</ele>
        <time>2016-08-23T09:13:54Z</time>
      </trkpt>
      <trkpt lat="45.80668" lon="4.59817">
        <ele>248</ele>
        <time>2016-08-23T09:13:55Z</time>
      </trkpt>
      <trkpt lat="45.80663" lon="4.59812">
        <ele>251</ele>
        <time>2016-08-23T09:13:56Z</time>
      </trkpt>
      <trkpt lat="45.80658" lon="4.59807">
        <ele>251</ele>
        <time>2016-08-23T09:13:57Z</time>
      </trkpt>
      <trkpt lat="45.80653" lon="4.59801">
        <ele>251</ele>
        <time>2016-08-23T09:13:58Z</time>
      </trkpt>
      <trkpt lat="45.80647" lon="4.59796">
        <ele>251</ele>
        <time>2016-08-23T09:13:59Z</time>
      </trkpt>
      <trkpt lat="45.80642" lon="4.5979">
        <ele>251</ele>
        <time>2016-08-23T09:14:00Z</time>
      </trkpt>
      <trkpt lat="45.80636" lon="4.59785">
        <ele>251</ele>
        <time>2016-08-23T09:14:01Z</time>
      </trkpt>
      <trkpt lat="45.80632" lon="4.5978">
        <ele>251</ele>
        <time>2016-08-23T09:14:02Z</time>
      </trkpt>
      <trkpt lat="45.80626" lon="4.59775">
        <ele>251</ele>
        <time>2016-08-23T09:14:03Z</time>
      </trkpt>
      <trkpt lat="45.80621" lon="4.59769">
        <ele>251</ele>
        <time>2016-08-23T09:14:04Z</time>
      </trkpt>
      <trkpt lat="45.80617" lon="4.59764">
        <ele>251</ele>
        <time>2016-08-23T09:14:05Z</time>
      </trkpt>
      <trkpt lat="45.8061" lon="4.59761">
        <ele>251</ele>
        <time>2016-08-23T09:14:06Z</time>
      </trkpt>
      <trkpt lat="45.80605" lon="4.59757">
        <ele>251</ele>
        <time>2016-08-23T09:14:07Z</time>
      </trkpt>
      <trkpt lat="45.80601" lon="4.59752">
        <ele>251</ele>
        <time>2016-08-23T09:14:08Z</time>
      </trkpt>
      <trkpt lat="45.80596" lon="4.59747">
        <ele>248</ele>
        <time>2016-08-23T09:14:09Z</time>
      </trkpt>
      <trkpt lat="45.80591" lon="4.59741">
        <ele>248</ele>
        <time>2016-08-23T09:14:10Z</time>
      </trkpt>
      <trkpt lat="45.80587" lon="4.59736">
        <ele>247</ele>
        <time>2016-08-23T09:14:11Z</time>
      </trkpt>
      <trkpt lat="45.80583" lon="4.59729">
        <ele>251</ele>
        <time>2016-08-23T09:14:12Z</time>
      </trkpt>
      <trkpt lat="45.8058" lon="4.59723">
        <ele>251</ele>
        <time>2016-08-23T09:14:13Z</time>
      </trkpt>
      <trkpt lat="45.80577" lon="4.59717">
        <ele>251</ele>
        <time>2016-08-23T09:14:14Z</time>
      </trkpt>
      <trkpt lat="45.80575" lon="4.59709">
        <ele>251</ele>
        <time>2016-08-23T09:14:15Z</time>
      </trkpt>
      <trkpt lat="45.80572" lon="4.59703">
        <ele>250</ele>
        <time>2016-08-23T09:14:16Z</time>
      </trkpt>
      <trkpt lat="45.8057" lon="4.59696">
        <ele>250</ele>
        <time>2016-08-23T09:14:17Z</time>
      </trkpt>
      <trkpt lat="45.80568" lon="4.59689">
        <ele>249</ele>
        <time>2016-08-23T09:14:18Z</time>
      </trkpt>
      <trkpt lat="45.80568" lon="4.59677">
        <ele>248</ele>
        <time>2016-08-23T09:14:20Z</time>
      </trkpt>
      <trkpt lat="45.80569" lon="4.59672">
        <ele>247</ele>
        <time>2016-08-23T09:14:21Z</time>
      </trkpt>
      <trkpt lat="45.8057" lon="4.59659">
        <ele>245</ele>
        <time>2016-08-23T09:14:23Z</time>
      </trkpt>
      <trkpt lat="45.80571" lon="4.59652">
        <ele>245</ele>
        <time>2016-08-23T09:14:24Z</time>
      </trkpt>
      <trkpt lat="45.80572" lon="4.59646">
        <ele>246</ele>
        <time>2016-08-23T09:14:25Z</time>
      </trkpt>
      <trkpt lat="45.80573" lon="4.59639">
        <ele>246</ele>
        <time>2016-08-23T09:14:26Z</time>
      </trkpt>
      <trkpt lat="45.80574" lon="4.59633">
        <ele>246</ele>
        <time>2016-08-23T09:14:27Z</time>
      </trkpt>
      <trkpt lat="45.80574" lon="4.59626">
        <ele>246</ele>
        <time>2016-08-23T09:14:28Z</time>
      </trkpt>
      <trkpt lat="45.80574" lon="4.59619">
        <ele>246</ele>
        <time>2016-08-23T09:14:29Z</time>
      </trkpt>
      <trkpt lat="45.80574" lon="4.59612">
        <ele>246</ele>
        <time>2016-08-23T09:14:30Z</time>
      </trkpt>
      <trkpt lat="45.80575" lon="4.59605">
        <ele>246</ele>
        <time>2016-08-23T09:14:31Z</time>
      </trkpt>
      <trkpt lat="45.80576" lon="4.59599">
        <ele>246</ele>
        <time>2016-08-23T09:14:32Z</time>
      </trkpt>
      <trkpt lat="45.80576" lon="4.59586">
        <ele>246</ele>
        <time>2016-08-23T09:14:34Z</time>
      </trkpt>
      <trkpt lat="45.80577" lon="4.5958">
        <ele>247</ele>
        <time>2016-08-23T09:14:35Z</time>
      </trkpt>
      <trkpt lat="45.80579" lon="4.59569">
        <ele>248</ele>
        <time>2016-08-23T09:14:37Z</time>
      </trkpt>
      <trkpt lat="45.80579" lon="4.59563">
        <ele>249</ele>
        <time>2016-08-23T09:14:38Z</time>
      </trkpt>
      <trkpt lat="45.80579" lon="4.59552">
        <ele>250</ele>
        <time>2016-08-23T09:14:40Z</time>
      </trkpt>
      <trkpt lat="45.8058" lon="4.59547">
        <ele>251</ele>
        <time>2016-08-23T09:14:41Z</time>
      </trkpt>
      <trkpt lat="45.8058" lon="4.59536">
        <ele>252</ele>
        <time>2016-08-23T09:14:43Z</time>
      </trkpt>
      <trkpt lat="45.80581" lon="4.5953">
        <ele>252</ele>
        <time>2016-08-23T09:14:44Z</time>
      </trkpt>
      <trkpt lat="45.80581" lon="4.59518">
        <ele>254</ele>
        <time>2016-08-23T09:14:46Z</time>
      </trkpt>
      <trkpt lat="45.8058" lon="4.59513">
        <ele>255</ele>
        <time>2016-08-23T09:14:47Z</time>
      </trkpt>
      <trkpt lat="45.80578" lon="4.59501">
        <ele>257</ele>
        <time>2016-08-23T09:14:49Z</time>
      </trkpt>
      <trkpt lat="45.80577" lon="4.59497">
        <ele>259</ele>
        <time>2016-08-23T09:14:50Z</time>
      </trkpt>
      <trkpt lat="45.80576" lon="4.59487">
        <ele>259</ele>
        <time>2016-08-23T09:14:52Z</time>
      </trkpt>
      <trkpt lat="45.80574" lon="4.59482">
        <ele>259</ele>
        <time>2016-08-23T09:14:53Z</time>
      </trkpt>
      <trkpt lat="45.80573" lon="4.59472">
        <ele>259</ele>
        <time>2016-08-23T09:14:55Z</time>
      </trkpt>
      <trkpt lat="45.80572" lon="4.59468">
        <ele>260</ele>
        <time>2016-08-23T09:14:56Z</time>
      </trkpt>
      <trkpt lat="45.8057" lon="4.59457">
        <ele>260</ele>
        <time>2016-08-23T09:14:58Z</time>
      </trkpt>
      <trkpt lat="45.8057" lon="4.59453">
        <ele>261</ele>
        <time>2016-08-23T09:14:59Z</time>
      </trkpt>
      <trkpt lat="45.80568" lon="4.59444">
        <ele>262</ele>
        <time>2016-08-23T09:15:01Z</time>
      </trkpt>
      <trkpt lat="45.80566" lon="4.59439">
        <ele>262</ele>
        <time>2016-08-23T09:15:02Z</time>
      </trkpt>
      <trkpt lat="45.8056" lon="4.5943">
        <ele>262</ele>
        <time>2016-08-23T09:15:04Z</time>
      </trkpt>
      <trkpt lat="45.80557" lon="4.59426">
        <ele>262</ele>
        <time>2016-08-23T09:15:05Z</time>
      </trkpt>
      <trkpt lat="45.80553" lon="4.59418">
        <ele>262</ele>
        <time>2016-08-23T09:15:07Z</time>
      </trkpt>
      <trkpt lat="45.80551" lon="4.59414">
        <ele>267</ele>
        <time>2016-08-23T09:15:08Z</time>
      </trkpt>
      <trkpt lat="45.80546" lon="4.59407">
        <ele>267</ele>
        <time>2016-08-23T09:15:10Z</time>
      </trkpt>
      <trkpt lat="45.80544" lon="4.59403">
        <ele>266</ele>
        <time>2016-08-23T09:15:11Z</time>
      </trkpt>
      <trkpt lat="45.80539" lon="4.59396">
        <ele>266</ele>
        <time>2016-08-23T09:15:13Z</time>
      </trkpt>
      <trkpt lat="45.80536" lon="4.59392">
        <ele>266</ele>
        <time>2016-08-23T09:15:14Z</time>
      </trkpt>
      <trkpt lat="45.80532" lon="4.59386">
        <ele>266</ele>
        <time>2016-08-23T09:15:16Z</time>
      </trkpt>
      <trkpt lat="45.80529" lon="4.59383">
        <ele>266</ele>
        <time>2016-08-23T09:15:17Z</time>
      </trkpt>
      <trkpt lat="45.80524" lon="4.59377">
        <ele>266</ele>
        <time>2016-08-23T09:15:19Z</time>
      </trkpt>
      <trkpt lat="45.80521" lon="4.59374">
        <ele>266</ele>
        <time>2016-08-23T09:15:20Z</time>
      </trkpt>
      <trkpt lat="45.80514" lon="4.59366">
        <ele>266</ele>
        <time>2016-08-23T09:15:22Z</time>
      </trkpt>
      <trkpt lat="45.80512" lon="4.59362">
        <ele>266</ele>
        <time>2016-08-23T09:15:23Z</time>
      </trkpt>
      <trkpt lat="45.80504" lon="4.59356">
        <ele>266</ele>
        <time>2016-08-23T09:15:25Z</time>
      </trkpt>
      <trkpt lat="45.805" lon="4.59354">
        <ele>258</ele>
        <time>2016-08-23T09:15:26Z</time>
      </trkpt>
      <trkpt lat="45.80494" lon="4.59349">
        <ele>259</ele>
        <time>2016-08-23T09:15:28Z</time>
      </trkpt>
      <trkpt lat="45.80491" lon="4.59346">
        <ele>259</ele>
        <time>2016-08-23T09:15:29Z</time>
      </trkpt>
      <trkpt lat="45.80486" lon="4.5934">
        <ele>260</ele>
        <time>2016-08-23T09:15:31Z</time>
      </trkpt>
      <trkpt lat="45.80484" lon="4.59336">
        <ele>259</ele>
        <time>2016-08-23T09:15:32Z</time>
      </trkpt>
      <trkpt lat="45.8048" lon="4.59327">
        <ele>263</ele>
        <time>2016-08-23T09:15:34Z</time>
      </trkpt>
      <trkpt lat="45.80478" lon="4.59323">
        <ele>263</ele>
        <time>2016-08-23T09:15:35Z</time>
      </trkpt>
      <trkpt lat="45.80473" lon="4.59314">
        <ele>262</ele>
        <time>2016-08-23T09:15:37Z</time>
      </trkpt>
      <trkpt lat="45.80471" lon="4.5931">
        <ele>262</ele>
        <time>2016-08-23T09:15:38Z</time>
      </trkpt>
      <trkpt lat="45.80467" lon="4.59301">
        <ele>262</ele>
        <time>2016-08-23T09:15:40Z</time>
      </trkpt>
      <trkpt lat="45.80464" lon="4.59297">
        <ele>262</ele>
        <time>2016-08-23T09:15:41Z</time>
      </trkpt>
      <trkpt lat="45.8046" lon="4.59288">
        <ele>262</ele>
        <time>2016-08-23T09:15:43Z</time>
      </trkpt>
      <trkpt lat="45.80458" lon="4.59283">
        <ele>262</ele>
        <time>2016-08-23T09:15:44Z</time>
      </trkpt>
      <trkpt lat="45.80454" lon="4.59274">
        <ele>262</ele>
        <time>2016-08-23T09:15:46Z</time>
      </trkpt>
      <trkpt lat="45.8045" lon="4.59268">
        <ele>262</ele>
        <time>2016-08-23T09:15:47Z</time>
      </trkpt>
      <trkpt lat="45.80443" lon="4.59261">
        <ele>261</ele>
        <time>2016-08-23T09:15:49Z</time>
      </trkpt>
      <trkpt lat="45.8044" lon="4.59257">
        <ele>260</ele>
        <time>2016-08-23T09:15:50Z</time>
      </trkpt>
      <trkpt lat="45.80437" lon="4.59252">
        <ele>260</ele>
        <time>2016-08-23T09:15:51Z</time>
      </trkpt>
      <trkpt lat="45.80433" lon="4.59247">
        <ele>262</ele>
        <time>2016-08-23T09:15:52Z</time>
      </trkpt>
      <trkpt lat="45.8043" lon="4.59243">
        <ele>261</ele>
        <time>2016-08-23T09:15:53Z</time>
      </trkpt>
      <trkpt lat="45.80426" lon="4.59238">
        <ele>261</ele>
        <time>2016-08-23T09:15:54Z</time>
      </trkpt>
      <trkpt lat="45.8042" lon="4.59229">
        <ele>262</ele>
        <time>2016-08-23T09:15:56Z</time>
      </trkpt>
      <trkpt lat="45.80417" lon="4.59224">
        <ele>263</ele>
        <time>2016-08-23T09:15:57Z</time>
      </trkpt>
      <trkpt lat="45.80414" lon="4.59219">
        <ele>256</ele>
        <time>2016-08-23T09:15:58Z</time>
      </trkpt>
      <trkpt lat="45.8041" lon="4.59213">
        <ele>257</ele>
        <time>2016-08-23T09:15:59Z</time>
      </trkpt>
      <trkpt lat="45.80406" lon="4.59208">
        <ele>257</ele>
        <time>2016-08-23T09:16:00Z</time>
      </trkpt>
      <trkpt lat="45.80403" lon="4.59202">
        <ele>257</ele>
        <time>2016-08-23T09:16:01Z</time>
      </trkpt>
      <trkpt lat="45.804" lon="4.59196">
        <ele>257</ele>
        <time>2016-08-23T09:16:02Z</time>
      </trkpt>
      <trkpt lat="45.80396" lon="4.5919">
        <ele>257</ele>
        <time>2016-08-23T09:16:03Z</time>
      </trkpt>
      <trkpt lat="45.80392" lon="4.59185">
        <ele>257</ele>
        <time>2016-08-23T09:16:04Z</time>
      </trkpt>
      <trkpt lat="45.80388" lon="4.59179">
        <ele>257</ele>
        <time>2016-08-23T09:16:05Z</time>
      </trkpt>
      <trkpt lat="45.80383" lon="4.59174">
        <ele>257</ele>
        <time>2016-08-23T09:16:06Z</time>
      </trkpt>
      <trkpt lat="45.80379" lon="4.59169">
        <ele>257</ele>
        <time>2016-08-23T09:16:07Z</time>
      </trkpt>
      <trkpt lat="45.80375" lon="4.59165">
        <ele>261</ele>
        <time>2016-08-23T09:16:08Z</time>
      </trkpt>
      <trkpt lat="45.80372" lon="4.5916">
        <ele>261</ele>
        <time>2016-08-23T09:16:09Z</time>
      </trkpt>
      <trkpt lat="45.80368" lon="4.59155">
        <ele>261</ele>
        <time>2016-08-23T09:16:10Z</time>
      </trkpt>
      <trkpt lat="45.80365" lon="4.59151">
        <ele>261</ele>
        <time>2016-08-23T09:16:11Z</time>
      </trkpt>
      <trkpt lat="45.80361" lon="4.59147">
        <ele>260</ele>
        <time>2016-08-23T09:16:12Z</time>
      </trkpt>
      <trkpt lat="45.80357" lon="4.59143">
        <ele>260</ele>
        <time>2016-08-23T09:16:13Z</time>
      </trkpt>
      <trkpt lat="45.80353" lon="4.5914">
        <ele>260</ele>
        <time>2016-08-23T09:16:14Z</time>
      </trkpt>
      <trkpt lat="45.80349" lon="4.59137">
        <ele>260</ele>
        <time>2016-08-23T09:16:15Z</time>
      </trkpt>
      <trkpt lat="45.80345" lon="4.59134">
        <ele>261</ele>
        <time>2016-08-23T09:16:16Z</time>
      </trkpt>
      <trkpt lat="45.80341" lon="4.5913">
        <ele>261</ele>
        <time>2016-08-23T09:16:17Z</time>
      </trkpt>
      <trkpt lat="45.80333" lon="4.59124">
        <ele>258</ele>
        <time>2016-08-23T09:16:19Z</time>
      </trkpt>
      <trkpt lat="45.80328" lon="4.59121">
        <ele>258</ele>
        <time>2016-08-23T09:16:20Z</time>
      </trkpt>
      <trkpt lat="45.80324" lon="4.59118">
        <ele>258</ele>
        <time>2016-08-23T09:16:21Z</time>
      </trkpt>
      <trkpt lat="45.80319" lon="4.59116">
        <ele>258</ele>
        <time>2016-08-23T09:16:22Z</time>
      </trkpt>
      <trkpt lat="45.80314" lon="4.59113">
        <ele>258</ele>
        <time>2016-08-23T09:16:23Z</time>
      </trkpt>
      <trkpt lat="45.80309" lon="4.5911">
        <ele>258</ele>
        <time>2016-08-23T09:16:24Z</time>
      </trkpt>
      <trkpt lat="45.80304" lon="4.59107">
        <ele>258</ele>
        <time>2016-08-23T09:16:25Z</time>
      </trkpt>
      <trkpt lat="45.80298" lon="4.59104">
        <ele>258</ele>
        <time>2016-08-23T09:16:26Z</time>
      </trkpt>
      <trkpt lat="45.80293" lon="4.59102">
        <ele>258</ele>
        <time>2016-08-23T09:16:27Z</time>
      </trkpt>
      <trkpt lat="45.80287" lon="4.59099">
        <ele>257</ele>
        <time>2016-08-23T09:16:28Z</time>
      </trkpt>
      <trkpt lat="45.80282" lon="4.59096">
        <ele>257</ele>
        <time>2016-08-23T09:16:29Z</time>
      </trkpt>
      <trkpt lat="45.80275" lon="4.59093">
        <ele>257</ele>
        <time>2016-08-23T09:16:30Z</time>
      </trkpt>
      <trkpt lat="45.80268" lon="4.59091">
        <ele>257</ele>
        <time>2016-08-23T09:16:31Z</time>
      </trkpt>
      <trkpt lat="45.80262" lon="4.59088">
        <ele>257</ele>
        <time>2016-08-23T09:16:32Z</time>
      </trkpt>
      <trkpt lat="45.80257" lon="4.59086">
        <ele>257</ele>
        <time>2016-08-23T09:16:33Z</time>
      </trkpt>
      <trkpt lat="45.80252" lon="4.59084">
        <ele>257</ele>
        <time>2016-08-23T09:16:34Z</time>
      </trkpt>
      <trkpt lat="45.80247" lon="4.59081">
        <ele>257</ele>
        <time>2016-08-23T09:16:35Z</time>
      </trkpt>
      <trkpt lat="45.80242" lon="4.59079">
        <ele>258</ele>
        <time>2016-08-23T09:16:36Z</time>
      </trkpt>
      <trkpt lat="45.80237" lon="4.59077">
        <ele>258</ele>
        <time>2016-08-23T09:16:37Z</time>
      </trkpt>
      <trkpt lat="45.80232" lon="4.59076">
        <ele>258</ele>
        <time>2016-08-23T09:16:38Z</time>
      </trkpt>
      <trkpt lat="45.80227" lon="4.59074">
        <ele>258</ele>
        <time>2016-08-23T09:16:39Z</time>
      </trkpt>
      <trkpt lat="45.80223" lon="4.59071">
        <ele>258</ele>
        <time>2016-08-23T09:16:40Z</time>
      </trkpt>
      <trkpt lat="45.80219" lon="4.59068">
        <ele>258</ele>
        <time>2016-08-23T09:16:41Z</time>
      </trkpt>
      <trkpt lat="45.80214" lon="4.59064">
        <ele>258</ele>
        <time>2016-08-23T09:16:42Z</time>
      </trkpt>
      <trkpt lat="45.80206" lon="4.59064">
        <ele>258</ele>
        <time>2016-08-23T09:16:43Z</time>
      </trkpt>
      <trkpt lat="45.80201" lon="4.59062">
        <ele>258</ele>
        <time>2016-08-23T09:16:44Z</time>
      </trkpt>
      <trkpt lat="45.80195" lon="4.5906">
        <ele>257</ele>
        <time>2016-08-23T09:16:45Z</time>
      </trkpt>
      <trkpt lat="45.8019" lon="4.59059">
        <ele>257</ele>
        <time>2016-08-23T09:16:46Z</time>
      </trkpt>
      <trkpt lat="45.80185" lon="4.59058">
        <ele>257</ele>
        <time>2016-08-23T09:16:47Z</time>
      </trkpt>
      <trkpt lat="45.80178" lon="4.59056">
        <ele>257</ele>
        <time>2016-08-23T09:16:48Z</time>
      </trkpt>
      <trkpt lat="45.80172" lon="4.59054">
        <ele>257</ele>
        <time>2016-08-23T09:16:49Z</time>
      </trkpt>
      <trkpt lat="45.80166" lon="4.59054">
        <ele>255</ele>
        <time>2016-08-23T09:16:50Z</time>
      </trkpt>
      <trkpt lat="45.8016" lon="4.59053">
        <ele>255</ele>
        <time>2016-08-23T09:16:51Z</time>
      </trkpt>
      <trkpt lat="45.80155" lon="4.59051">
        <ele>255</ele>
        <time>2016-08-23T09:16:52Z</time>
      </trkpt>
      <trkpt lat="45.80149" lon="4.59051">
        <ele>255</ele>
        <time>2016-08-23T09:16:53Z</time>
      </trkpt>
      <trkpt lat="45.80143" lon="4.5905">
        <ele>255</ele>
        <time>2016-08-23T09:16:54Z</time>
      </trkpt>
      <trkpt lat="45.80137" lon="4.59049">
        <ele>255</ele>
        <time>2016-08-23T09:16:55Z</time>
      </trkpt>
      <trkpt lat="45.80132" lon="4.59049">
        <ele>255</ele>
        <time>2016-08-23T09:16:56Z</time>
      </trkpt>
      <trkpt lat="45.80126" lon="4.59049">
        <ele>255</ele>
        <time>2016-08-23T09:16:57Z</time>
      </trkpt>
      <trkpt lat="45.80121" lon="4.59049">
        <ele>255</ele>
        <time>2016-08-23T09:16:58Z</time>
      </trkpt>
      <trkpt lat="45.80116" lon="4.59049">
        <ele>255</ele>
        <time>2016-08-23T09:16:59Z</time>
      </trkpt>
      <trkpt lat="45.8011" lon="4.59048">
        <ele>255</ele>
        <time>2016-08-23T09:17:00Z</time>
      </trkpt>
      <trkpt lat="45.80104" lon="4.59048">
        <ele>255</ele>
        <time>2016-08-23T09:17:01Z</time>
      </trkpt>
      <trkpt lat="45.80098" lon="4.59047">
        <ele>255</ele>
        <time>2016-08-23T09:17:02Z</time>
      </trkpt>
      <trkpt lat="45.80092" lon="4.59047">
        <ele>255</ele>
        <time>2016-08-23T09:17:03Z</time>
      </trkpt>
      <trkpt lat="45.80087" lon="4.59046">
        <ele>255</ele>
        <time>2016-08-23T09:17:04Z</time>
      </trkpt>
      <trkpt lat="45.80082" lon="4.59045">
        <ele>254</ele>
        <time>2016-08-23T09:17:05Z</time>
      </trkpt>
      <trkpt lat="45.80077" lon="4.59044">
        <ele>254</ele>
        <time>2016-08-23T09:17:06Z</time>
      </trkpt>
      <trkpt lat="45.80072" lon="4.59044">
        <ele>254</ele>
        <time>2016-08-23T09:17:07Z</time>
      </trkpt>
      <trkpt lat="45.80067" lon="4.59042">
        <ele>254</ele>
        <time>2016-08-23T09:17:08Z</time>
      </trkpt>
      <trkpt lat="45.80062" lon="4.59041">
        <ele>254</ele>
        <time>2016-08-23T09:17:09Z</time>
      </trkpt>
      <trkpt lat="45.80057" lon="4.59039">
        <ele>254</ele>
        <time>2016-08-23T09:17:10Z</time>
      </trkpt>
      <trkpt lat="45.80053" lon="4.59038">
        <ele>254</ele>
        <time>2016-08-23T09:17:11Z</time>
      </trkpt>
      <trkpt lat="45.80048" lon="4.59034">
        <ele>254</ele>
        <time>2016-08-23T09:17:12Z</time>
      </trkpt>
      <trkpt lat="45.80042" lon="4.59032">
        <ele>254</ele>
        <time>2016-08-23T09:17:13Z</time>
      </trkpt>
      <trkpt lat="45.80036" lon="4.59029">
        <ele>254</ele>
        <time>2016-08-23T09:17:14Z</time>
      </trkpt>
      <trkpt lat="45.80032" lon="4.59026">
        <ele>254</ele>
        <time>2016-08-23T09:17:15Z</time>
      </trkpt>
      <trkpt lat="45.80027" lon="4.59023">
        <ele>254</ele>
        <time>2016-08-23T09:17:16Z</time>
      </trkpt>
      <trkpt lat="45.80022" lon="4.59019">
        <ele>254</ele>
        <time>2016-08-23T09:17:17Z</time>
      </trkpt>
      <trkpt lat="45.80017" lon="4.59015">
        <ele>254</ele>
        <time>2016-08-23T09:17:18Z</time>
      </trkpt>
      <trkpt lat="45.80014" lon="4.59011">
        <ele>254</ele>
        <time>2016-08-23T09:17:19Z</time>
      </trkpt>
      <trkpt lat="45.80009" lon="4.59007">
        <ele>254</ele>
        <time>2016-08-23T09:17:20Z</time>
      </trkpt>
      <trkpt lat="45.80005" lon="4.59002">
        <ele>254</ele>
        <time>2016-08-23T09:17:21Z</time>
      </trkpt>
      <trkpt lat="45.80002" lon="4.58996">
        <ele>254</ele>
        <time>2016-08-23T09:17:22Z</time>
      </trkpt>
      <trkpt lat="45.8" lon="4.58989">
        <ele>254</ele>
        <time>2016-08-23T09:17:23Z</time>
      </trkpt>
      <trkpt lat="45.8" lon="4.58981">
        <ele>255</ele>
        <time>2016-08-23T09:17:24Z</time>
      </trkpt>
      <trkpt lat="45.80001" lon="4.58973">
        <ele>255</ele>
        <time>2016-08-23T09:17:25Z</time>
      </trkpt>
      <trkpt lat="45.80003" lon="4.58966">
        <ele>256</ele>
        <time>2016-08-23T09:17:26Z</time>
      </trkpt>
      <trkpt lat="45.80007" lon="4.58959">
        <ele>256</ele>
        <time>2016-08-23T09:17:27Z</time>
      </trkpt>
      <trkpt lat="45.8001" lon="4.58954">
        <ele>256</ele>
        <time>2016-08-23T09:17:28Z</time>
      </trkpt>
      <trkpt lat="45.80015" lon="4.58944">
        <ele>256</ele>
        <time>2016-08-23T09:17:30Z</time>
      </trkpt>
      <trkpt lat="45.80018" lon="4.5894">
        <ele>256</ele>
        <time>2016-08-23T09:17:31Z</time>
      </trkpt>
      <trkpt lat="45.80025" lon="4.58931">
        <ele>256</ele>
        <time>2016-08-23T09:17:33Z</time>
      </trkpt>
      <trkpt lat="45.80028" lon="4.58927">
        <ele>256</ele>
        <time>2016-08-23T09:17:34Z</time>
      </trkpt>
      <trkpt lat="45.80036" lon="4.5892">
        <ele>256</ele>
        <time>2016-08-23T09:17:36Z</time>
      </trkpt>
      <trkpt lat="45.80039" lon="4.58916">
        <ele>258</ele>
        <time>2016-08-23T09:17:37Z</time>
      </trkpt>
      <trkpt lat="45.80046" lon="4.58908">
        <ele>258</ele>
        <time>2016-08-23T09:17:39Z</time>
      </trkpt>
      <trkpt lat="45.80049" lon="4.58904">
        <ele>258</ele>
        <time>2016-08-23T09:17:40Z</time>
      </trkpt>
      <trkpt lat="45.80057" lon="4.58898">
        <ele>258</ele>
        <time>2016-08-23T09:17:42Z</time>
      </trkpt>
      <trkpt lat="45.8006" lon="4.58894">
        <ele>258</ele>
        <time>2016-08-23T09:17:43Z</time>
      </trkpt>
      <trkpt lat="45.80066" lon="4.58886">
        <ele>258</ele>
        <time>2016-08-23T09:17:45Z</time>
      </trkpt>
      <trkpt lat="45.80069" lon="4.58883">
        <ele>258</ele>
        <time>2016-08-23T09:17:46Z</time>
      </trkpt>
      <trkpt lat="45.80074" lon="4.58876">
        <ele>258</ele>
        <time>2016-08-23T09:17:48Z</time>
      </trkpt>
      <trkpt lat="45.80077" lon="4.58874">
        <ele>258</ele>
        <time>2016-08-23T09:17:49Z</time>
      </trkpt>
      <trkpt lat="45.80082" lon="4.58867">
        <ele>258</ele>
        <time>2016-08-23T09:17:51Z</time>
      </trkpt>
      <trkpt lat="45.80084" lon="4.58863">
        <ele>262</ele>
        <time>2016-08-23T09:17:52Z</time>
      </trkpt>
      <trkpt lat="45.80089" lon="4.58857">
        <ele>262</ele>
        <time>2016-08-23T09:17:54Z</time>
      </trkpt>
      <trkpt lat="45.80092" lon="4.58854">
        <ele>262</ele>
        <time>2016-08-23T09:17:55Z</time>
      </trkpt>
      <trkpt lat="45.80097" lon="4.58847">
        <ele>262</ele>
        <time>2016-08-23T09:17:57Z</time>
      </trkpt>
      <trkpt lat="45.801" lon="4.58844">
        <ele>262</ele>
        <time>2016-08-23T09:17:58Z</time>
      </trkpt>
      <trkpt lat="45.80105" lon="4.58838">
        <ele>263</ele>
        <time>2016-08-23T09:18:00Z</time>
      </trkpt>
      <trkpt lat="45.80108" lon="4.58835">
        <ele>263</ele>
        <time>2016-08-23T09:18:01Z</time>
      </trkpt>
      <trkpt lat="45.80114" lon="4.58827">
        <ele>266</ele>
        <time>2016-08-23T09:18:04Z</time>
      </trkpt>
      <trkpt lat="45.80116" lon="4.58824">
        <ele>266</ele>
        <time>2016-08-23T09:18:05Z</time>
      </trkpt>
      <trkpt lat="45.80121" lon="4.58818">
        <ele>267</ele>
        <time>2016-08-23T09:18:07Z</time>
      </trkpt>
      <trkpt lat="45.80123" lon="4.58815">
        <ele>267</ele>
        <time>2016-08-23T09:18:08Z</time>
      </trkpt>
      <trkpt lat="45.80128" lon="4.5881">
        <ele>268</ele>
        <time>2016-08-23T09:18:10Z</time>
      </trkpt>
      <trkpt lat="45.8013" lon="4.58807">
        <ele>268</ele>
        <time>2016-08-23T09:18:11Z</time>
      </trkpt>
      <trkpt lat="45.80136" lon="4.58798">
        <ele>269</ele>
        <time>2016-08-23T09:18:14Z</time>
      </trkpt>
      <trkpt lat="45.80137" lon="4.58794">
        <ele>269</ele>
        <time>2016-08-23T09:18:15Z</time>
      </trkpt>
      <trkpt lat="45.80141" lon="4.58784">
        <ele>269</ele>
        <time>2016-08-23T09:18:18Z</time>
      </trkpt>
      <trkpt lat="45.80143" lon="4.5878">
        <ele>269</ele>
        <time>2016-08-23T09:18:19Z</time>
      </trkpt>
      <trkpt lat="45.80148" lon="4.5877">
        <ele>270</ele>
        <time>2016-08-23T09:18:22Z</time>
      </trkpt>
      <trkpt lat="45.8015" lon="4.58767">
        <ele>270</ele>
        <time>2016-08-23T09:18:23Z</time>
      </trkpt>
      <trkpt lat="45.80154" lon="4.58756">
        <ele>271</ele>
        <time>2016-08-23T09:18:26Z</time>
      </trkpt>
      <trkpt lat="45.80155" lon="4.58753">
        <ele>271</ele>
        <time>2016-08-23T09:18:27Z</time>
      </trkpt>
      <trkpt lat="45.80159" lon="4.58741">
        <ele>273</ele>
        <time>2016-08-23T09:18:30Z</time>
      </trkpt>
      <trkpt lat="45.8016" lon="4.58737">
        <ele>273</ele>
        <time>2016-08-23T09:18:31Z</time>
      </trkpt>
      <trkpt lat="45.80163" lon="4.58726">
        <ele>273</ele>
        <time>2016-08-23T09:18:34Z</time>
      </trkpt>
      <trkpt lat="45.80163" lon="4.58722">
        <ele>273</ele>
        <time>2016-08-23T09:18:35Z</time>
      </trkpt>
      <trkpt lat="45.80166" lon="4.5871">
        <ele>273</ele>
        <time>2016-08-23T09:18:38Z</time>
      </trkpt>
      <trkpt lat="45.80166" lon="4.58706">
        <ele>273</ele>
        <time>2016-08-23T09:18:39Z</time>
      </trkpt>
      <trkpt lat="45.80167" lon="4.58694">
        <ele>281</ele>
        <time>2016-08-23T09:18:42Z</time>
      </trkpt>
      <trkpt lat="45.80167" lon="4.5869">
        <ele>281</ele>
        <time>2016-08-23T09:18:43Z</time>
      </trkpt>
      <trkpt lat="45.80167" lon="4.58677">
        <ele>278</ele>
        <time>2016-08-23T09:18:46Z</time>
      </trkpt>
      <trkpt lat="45.80168" lon="4.58674">
        <ele>278</ele>
        <time>2016-08-23T09:18:47Z</time>
      </trkpt>
      <trkpt lat="45.80166" lon="4.58665">
        <ele>275</ele>
        <time>2016-08-23T09:18:49Z</time>
      </trkpt>
      <trkpt lat="45.80164" lon="4.58661">
        <ele>276</ele>
        <time>2016-08-23T09:18:50Z</time>
      </trkpt>
      <trkpt lat="45.80161" lon="4.58652">
        <ele>277</ele>
        <time>2016-08-23T09:18:52Z</time>
      </trkpt>
      <trkpt lat="45.8016" lon="4.58647">
        <ele>278</ele>
        <time>2016-08-23T09:18:53Z</time>
      </trkpt>
      <trkpt lat="45.80159" lon="4.58638">
        <ele>278</ele>
        <time>2016-08-23T09:18:55Z</time>
      </trkpt>
      <trkpt lat="45.80159" lon="4.58634">
        <ele>279</ele>
        <time>2016-08-23T09:18:56Z</time>
      </trkpt>
      <trkpt lat="45.80155" lon="4.58622">
        <ele>280</ele>
        <time>2016-08-23T09:18:59Z</time>
      </trkpt>
      <trkpt lat="45.80154" lon="4.58618">
        <ele>280</ele>
        <time>2016-08-23T09:19:00Z</time>
      </trkpt>
      <trkpt lat="45.80151" lon="4.58607">
        <ele>281</ele>
        <time>2016-08-23T09:19:03Z</time>
      </trkpt>
      <trkpt lat="45.80149" lon="4.58603">
        <ele>281</ele>
        <time>2016-08-23T09:19:04Z</time>
      </trkpt>
      <trkpt lat="45.80145" lon="4.58594">
        <ele>281</ele>
        <time>2016-08-23T09:19:07Z</time>
      </trkpt>
      <trkpt lat="45.80145" lon="4.58591">
        <ele>282</ele>
        <time>2016-08-23T09:19:08Z</time>
      </trkpt>
      <trkpt lat="45.80141" lon="4.58581">
        <ele>285</ele>
        <time>2016-08-23T09:19:11Z</time>
      </trkpt>
      <trkpt lat="45.8014" lon="4.58578">
        <ele>285</ele>
        <time>2016-08-23T09:19:12Z</time>
      </trkpt>
      <trkpt lat="45.80136" lon="4.58566">
        <ele>285</ele>
        <time>2016-08-23T09:19:15Z</time>
      </trkpt>
      <trkpt lat="45.80136" lon="4.58562">
        <ele>285</ele>
        <time>2016-08-23T09:19:16Z</time>
      </trkpt>
      <trkpt lat="45.80134" lon="4.5855">
        <ele>286</ele>
        <time>2016-08-23T09:19:19Z</time>
      </trkpt>
      <trkpt lat="45.80134" lon="4.58546">
        <ele>286</ele>
        <time>2016-08-23T09:19:20Z</time>
      </trkpt>
      <trkpt lat="45.80134" lon="4.58538">
        <ele>286</ele>
        <time>2016-08-23T09:19:22Z</time>
      </trkpt>
      <trkpt lat="45.80135" lon="4.58533">
        <ele>286</ele>
        <time>2016-08-23T09:19:23Z</time>
      </trkpt>
      <trkpt lat="45.80137" lon="4.58524">
        <ele>286</ele>
        <time>2016-08-23T09:19:25Z</time>
      </trkpt>
      <trkpt lat="45.80137" lon="4.5852">
        <ele>287</ele>
        <time>2016-08-23T09:19:26Z</time>
      </trkpt>
      <trkpt lat="45.80141" lon="4.5851">
        <ele>287</ele>
        <time>2016-08-23T09:19:29Z</time>
      </trkpt>
      <trkpt lat="45.80142" lon="4.58507">
        <ele>287</ele>
        <time>2016-08-23T09:19:30Z</time>
      </trkpt>
      <trkpt lat="45.80149" lon="4.58499">
        <ele>289</ele>
        <time>2016-08-23T09:19:33Z</time>
      </trkpt>
      <trkpt lat="45.80152" lon="4.58497">
        <ele>289</ele>
        <time>2016-08-23T09:19:34Z</time>
      </trkpt>
      <trkpt lat="45.80158" lon="4.58488">
        <ele>289</ele>
        <time>2016-08-23T09:19:37Z</time>
      </trkpt>
      <trkpt lat="45.8016" lon="4.58485">
        <ele>289</ele>
        <time>2016-08-23T09:19:38Z</time>
      </trkpt>
      <trkpt lat="45.80166" lon="4.58477">
        <ele>289</ele>
        <time>2016-08-23T09:19:41Z</time>
      </trkpt>
      <trkpt lat="45.80167" lon="4.58474">
        <ele>293</ele>
        <time>2016-08-23T09:19:42Z</time>
      </trkpt>
      <trkpt lat="45.80172" lon="4.58465">
        <ele>293</ele>
        <time>2016-08-23T09:19:45Z</time>
      </trkpt>
      <trkpt lat="45.80174" lon="4.58462">
        <ele>293</ele>
        <time>2016-08-23T09:19:46Z</time>
      </trkpt>
      <trkpt lat="45.8018" lon="4.58453">
        <ele>293</ele>
        <time>2016-08-23T09:19:49Z</time>
      </trkpt>
      <trkpt lat="45.80182" lon="4.5845">
        <ele>293</ele>
        <time>2016-08-23T09:19:50Z</time>
      </trkpt>
      <trkpt lat="45.80187" lon="4.5844">
        <ele>293</ele>
        <time>2016-08-23T09:19:53Z</time>
      </trkpt>
      <trkpt lat="45.80189" lon="4.58437">
        <ele>293</ele>
        <time>2016-08-23T09:19:54Z</time>
      </trkpt>
      <trkpt lat="45.80193" lon="4.58428">
        <ele>293</ele>
        <time>2016-08-23T09:19:57Z</time>
      </trkpt>
      <trkpt lat="45.80195" lon="4.58425">
        <ele>293</ele>
        <time>2016-08-23T09:19:58Z</time>
      </trkpt>
      <trkpt lat="45.80202" lon="4.58418">
        <ele>294</ele>
        <time>2016-08-23T09:20:01Z</time>
      </trkpt>
      <trkpt lat="45.80204" lon="4.58417">
        <ele>292</ele>
        <time>2016-08-23T09:20:02Z</time>
      </trkpt>
      <trkpt lat="45.80209" lon="4.58409">
        <ele>292</ele>
        <time>2016-08-23T09:20:05Z</time>
      </trkpt>
      <trkpt lat="45.80211" lon="4.58406">
        <ele>293</ele>
        <time>2016-08-23T09:20:06Z</time>
      </trkpt>
      <trkpt lat="45.80217" lon="4.58397">
        <ele>293</ele>
        <time>2016-08-23T09:20:09Z</time>
      </trkpt>
      <trkpt lat="45.80218" lon="4.58393">
        <ele>293</ele>
        <time>2016-08-23T09:20:10Z</time>
      </trkpt>
      <trkpt lat="45.80222" lon="4.58382">
        <ele>293</ele>
        <time>2016-08-23T09:20:13Z</time>
      </trkpt>
      <trkpt lat="45.80223" lon="4.58379">
        <ele>293</ele>
        <time>2016-08-23T09:20:14Z</time>
      </trkpt>
      <trkpt lat="45.80226" lon="4.58371">
        <ele>294</ele>
        <time>2016-08-23T09:20:16Z</time>
      </trkpt>
      <trkpt lat="45.80228" lon="4.58368">
        <ele>294</ele>
        <time>2016-08-23T09:20:17Z</time>
      </trkpt>
      <trkpt lat="45.8023" lon="4.58359">
        <ele>294</ele>
        <time>2016-08-23T09:20:19Z</time>
      </trkpt>
      <trkpt lat="45.80231" lon="4.58354">
        <ele>294</ele>
        <time>2016-08-23T09:20:20Z</time>
      </trkpt>
      <trkpt lat="45.80234" lon="4.58343">
        <ele>295</ele>
        <time>2016-08-23T09:20:23Z</time>
      </trkpt>
      <trkpt lat="45.80234" lon="4.58338">
        <ele>295</ele>
        <time>2016-08-23T09:20:24Z</time>
      </trkpt>
      <trkpt lat="45.80233" lon="4.58326">
        <ele>295</ele>
        <time>2016-08-23T09:20:27Z</time>
      </trkpt>
      <trkpt lat="45.80233" lon="4.58322">
        <ele>295</ele>
        <time>2016-08-23T09:20:28Z</time>
      </trkpt>
      <trkpt lat="45.80231" lon="4.58313">
        <ele>294</ele>
        <time>2016-08-23T09:20:30Z</time>
      </trkpt>
      <trkpt lat="45.80231" lon="4.58309">
        <ele>294</ele>
        <time>2016-08-23T09:20:31Z</time>
      </trkpt>
      <trkpt lat="45.80227" lon="4.58298">
        <ele>294</ele>
        <time>2016-08-23T09:20:34Z</time>
      </trkpt>
      <trkpt lat="45.80227" lon="4.58293">
        <ele>294</ele>
        <time>2016-08-23T09:20:35Z</time>
      </trkpt>
      <trkpt lat="45.80225" lon="4.58286">
        <ele>294</ele>
        <time>2016-08-23T09:20:37Z</time>
      </trkpt>
      <trkpt lat="45.80223" lon="4.5828">
        <ele>294</ele>
        <time>2016-08-23T09:20:38Z</time>
      </trkpt>
      <trkpt lat="45.80222" lon="4.5827">
        <ele>295</ele>
        <time>2016-08-23T09:20:41Z</time>
      </trkpt>
      <trkpt lat="45.80222" lon="4.58265">
        <ele>295</ele>
        <time>2016-08-23T09:20:42Z</time>
      </trkpt>
      <trkpt lat="45.80222" lon="4.58253">
        <ele>296</ele>
        <time>2016-08-23T09:20:45Z</time>
      </trkpt>
      <trkpt lat="45.80221" lon="4.58248">
        <ele>299</ele>
        <time>2016-08-23T09:20:46Z</time>
      </trkpt>
      <trkpt lat="45.80217" lon="4.58238">
        <ele>299</ele>
        <time>2016-08-23T09:20:49Z</time>
      </trkpt>
      <trkpt lat="45.80216" lon="4.58234">
        <ele>298</ele>
        <time>2016-08-23T09:20:50Z</time>
      </trkpt>
      <trkpt lat="45.80214" lon="4.58223">
        <ele>298</ele>
        <time>2016-08-23T09:20:53Z</time>
      </trkpt>
      <trkpt lat="45.80212" lon="4.58219">
        <ele>298</ele>
        <time>2016-08-23T09:20:54Z</time>
      </trkpt>
      <trkpt lat="45.80208" lon="4.5821">
        <ele>298</ele>
        <time>2016-08-23T09:20:56Z</time>
      </trkpt>
      <trkpt lat="45.80206" lon="4.58206">
        <ele>298</ele>
        <time>2016-08-23T09:20:57Z</time>
      </trkpt>
      <trkpt lat="45.80203" lon="4.58195">
        <ele>298</ele>
        <time>2016-08-23T09:21:00Z</time>
      </trkpt>
      <trkpt lat="45.80202" lon="4.58192">
        <ele>298</ele>
        <time>2016-08-23T09:21:01Z</time>
      </trkpt>
      <trkpt lat="45.80199" lon="4.58184">
        <ele>298</ele>
        <time>2016-08-23T09:21:03Z</time>
      </trkpt>
      <trkpt lat="45.80198" lon="4.5818">
        <ele>298</ele>
        <time>2016-08-23T09:21:04Z</time>
      </trkpt>
      <trkpt lat="45.80196" lon="4.58168">
        <ele>297</ele>
        <time>2016-08-23T09:21:07Z</time>
      </trkpt>
      <trkpt lat="45.80195" lon="4.58165">
        <ele>300</ele>
        <time>2016-08-23T09:21:08Z</time>
      </trkpt>
      <trkpt lat="45.80191" lon="4.58153">
        <ele>300</ele>
        <time>2016-08-23T09:21:11Z</time>
      </trkpt>
      <trkpt lat="45.80189" lon="4.58149">
        <ele>300</ele>
        <time>2016-08-23T09:21:12Z</time>
      </trkpt>
      <trkpt lat="45.80185" lon="4.58139">
        <ele>300</ele>
        <time>2016-08-23T09:21:15Z</time>
      </trkpt>
      <trkpt lat="45.80184" lon="4.58134">
        <ele>300</ele>
        <time>2016-08-23T09:21:16Z</time>
      </trkpt>
      <trkpt lat="45.80181" lon="4.58123">
        <ele>300</ele>
        <time>2016-08-23T09:21:19Z</time>
      </trkpt>
      <trkpt lat="45.80179" lon="4.5812">
        <ele>300</ele>
        <time>2016-08-23T09:21:20Z</time>
      </trkpt>
      <trkpt lat="45.80176" lon="4.58108">
        <ele>299</ele>
        <time>2016-08-23T09:21:23Z</time>
      </trkpt>
      <trkpt lat="45.80175" lon="4.58104">
        <ele>299</ele>
        <time>2016-08-23T09:21:24Z</time>
      </trkpt>
      <trkpt lat="45.80175" lon="4.58093">
        <ele>297</ele>
        <time>2016-08-23T09:21:27Z</time>
      </trkpt>
      <trkpt lat="45.80176" lon="4.58089">
        <ele>296</ele>
        <time>2016-08-23T09:21:28Z</time>
      </trkpt>
      <trkpt lat="45.80176" lon="4.58077">
        <ele>297</ele>
        <time>2016-08-23T09:21:31Z</time>
      </trkpt>
      <trkpt lat="45.80178" lon="4.58074">
        <ele>298</ele>
        <time>2016-08-23T09:21:32Z</time>
      </trkpt>
      <trkpt lat="45.80179" lon="4.58063">
        <ele>300</ele>
        <time>2016-08-23T09:21:35Z</time>
      </trkpt>
      <trkpt lat="45.8018" lon="4.58059">
        <ele>301</ele>
        <time>2016-08-23T09:21:36Z</time>
      </trkpt>
      <trkpt lat="45.80181" lon="4.58049">
        <ele>301</ele>
        <time>2016-08-23T09:21:39Z</time>
      </trkpt>
      <trkpt lat="45.8018" lon="4.58045">
        <ele>302</ele>
        <time>2016-08-23T09:21:40Z</time>
      </trkpt>
      <trkpt lat="45.80179" lon="4.58034">
        <ele>301</ele>
        <time>2016-08-23T09:21:43Z</time>
      </trkpt>
      <trkpt lat="45.80179" lon="4.5803">
        <ele>301</ele>
        <time>2016-08-23T09:21:44Z</time>
      </trkpt>
      <trkpt lat="45.80177" lon="4.58018">
        <ele>300</ele>
        <time>2016-08-23T09:21:47Z</time>
      </trkpt>
      <trkpt lat="45.80176" lon="4.58014">
        <ele>299</ele>
        <time>2016-08-23T09:21:48Z</time>
      </trkpt>
      <trkpt lat="45.80174" lon="4.58006">
        <ele>297</ele>
        <time>2016-08-23T09:21:50Z</time>
      </trkpt>
      <trkpt lat="45.80172" lon="4.58003">
        <ele>296</ele>
        <time>2016-08-23T09:21:51Z</time>
      </trkpt>
      <trkpt lat="45.80166" lon="4.57994">
        <ele>296</ele>
        <time>2016-08-23T09:21:53Z</time>
      </trkpt>
      <trkpt lat="45.80164" lon="4.5799">
        <ele>296</ele>
        <time>2016-08-23T09:21:54Z</time>
      </trkpt>
      <trkpt lat="45.8016" lon="4.57985">
        <ele>297</ele>
        <time>2016-08-23T09:21:56Z</time>
      </trkpt>
      <trkpt lat="45.80158" lon="4.57981">
        <ele>298</ele>
        <time>2016-08-23T09:21:57Z</time>
      </trkpt>
      <trkpt lat="45.80152" lon="4.57974">
        <ele>299</ele>
        <time>2016-08-23T09:21:59Z</time>
      </trkpt>
      <trkpt lat="45.80151" lon="4.57971">
        <ele>299</ele>
        <time>2016-08-23T09:22:00Z</time>
      </trkpt>
      <trkpt lat="45.80147" lon="4.57964">
        <ele>300</ele>
        <time>2016-08-23T09:22:03Z</time>
      </trkpt>
      <trkpt lat="45.80146" lon="4.57961">
        <ele>300</ele>
        <time>2016-08-23T09:22:04Z</time>
      </trkpt>
      <trkpt lat="45.8014" lon="4.57954">
        <ele>301</ele>
        <time>2016-08-23T09:22:07Z</time>
      </trkpt>
      <trkpt lat="45.80137" lon="4.57951">
        <ele>301</ele>
        <time>2016-08-23T09:22:08Z</time>
      </trkpt>
      <trkpt lat="45.80132" lon="4.57942">
        <ele>301</ele>
        <time>2016-08-23T09:22:11Z</time>
      </trkpt>
      <trkpt lat="45.80131" lon="4.57938">
        <ele>302</ele>
        <time>2016-08-23T09:22:12Z</time>
      </trkpt>
      <trkpt lat="45.80129" lon="4.57927">
        <ele>302</ele>
        <time>2016-08-23T09:22:15Z</time>
      </trkpt>
      <trkpt lat="45.80128" lon="4.57924">
        <ele>302</ele>
        <time>2016-08-23T09:22:16Z</time>
      </trkpt>
      <trkpt lat="45.80124" lon="4.57913">
        <ele>306</ele>
        <time>2016-08-23T09:22:19Z</time>
      </trkpt>
      <trkpt lat="45.80123" lon="4.5791">
        <ele>306</ele>
        <time>2016-08-23T09:22:20Z</time>
      </trkpt>
      <trkpt lat="45.80119" lon="4.579">
        <ele>307</ele>
        <time>2016-08-23T09:22:23Z</time>
      </trkpt>
      <trkpt lat="45.80118" lon="4.57896">
        <ele>307</ele>
        <time>2016-08-23T09:22:24Z</time>
      </trkpt>
      <trkpt lat="45.80117" lon="4.57888">
        <ele>307</ele>
        <time>2016-08-23T09:22:26Z</time>
      </trkpt>
      <trkpt lat="45.80117" lon="4.57883">
        <ele>307</ele>
        <time>2016-08-23T09:22:27Z</time>
      </trkpt>
      <trkpt lat="45.80118" lon="4.57871">
        <ele>308</ele>
        <time>2016-08-23T09:22:30Z</time>
      </trkpt>
      <trkpt lat="45.80118" lon="4.57867">
        <ele>308</ele>
        <time>2016-08-23T09:22:31Z</time>
      </trkpt>
      <trkpt lat="45.8012" lon="4.57855">
        <ele>308</ele>
        <time>2016-08-23T09:22:34Z</time>
      </trkpt>
      <trkpt lat="45.80122" lon="4.57852">
        <ele>308</ele>
        <time>2016-08-23T09:22:35Z</time>
      </trkpt>
      <trkpt lat="45.80127" lon="4.57843">
        <ele>308</ele>
        <time>2016-08-23T09:22:38Z</time>
      </trkpt>
      <trkpt lat="45.80129" lon="4.5784">
        <ele>308</ele>
        <time>2016-08-23T09:22:39Z</time>
      </trkpt>
      <trkpt lat="45.80135" lon="4.57831">
        <ele>311</ele>
        <time>2016-08-23T09:22:42Z</time>
      </trkpt>
      <trkpt lat="45.80136" lon="4.57828">
        <ele>311</ele>
        <time>2016-08-23T09:22:43Z</time>
      </trkpt>
      <trkpt lat="45.80142" lon="4.57819">
        <ele>311</ele>
        <time>2016-08-23T09:22:46Z</time>
      </trkpt>
      <trkpt lat="45.80145" lon="4.57817">
        <ele>310</ele>
        <time>2016-08-23T09:22:47Z</time>
      </trkpt>
      <trkpt lat="45.80151" lon="4.57809">
        <ele>310</ele>
        <time>2016-08-23T09:22:50Z</time>
      </trkpt>
      <trkpt lat="45.80152" lon="4.57806">
        <ele>310</ele>
        <time>2016-08-23T09:22:51Z</time>
      </trkpt>
      <trkpt lat="45.80157" lon="4.57798">
        <ele>310</ele>
        <time>2016-08-23T09:22:54Z</time>
      </trkpt>
      <trkpt lat="45.8016" lon="4.57796">
        <ele>310</ele>
        <time>2016-08-23T09:22:55Z</time>
      </trkpt>
      <trkpt lat="45.80164" lon="4.57789">
        <ele>310</ele>
        <time>2016-08-23T09:22:57Z</time>
      </trkpt>
      <trkpt lat="45.80167" lon="4.57786">
        <ele>309</ele>
        <time>2016-08-23T09:22:58Z</time>
      </trkpt>
      <trkpt lat="45.80172" lon="4.57778">
        <ele>311</ele>
        <time>2016-08-23T09:23:01Z</time>
      </trkpt>
      <trkpt lat="45.80174" lon="4.57775">
        <ele>311</ele>
        <time>2016-08-23T09:23:02Z</time>
      </trkpt>
      <trkpt lat="45.80178" lon="4.57768">
        <ele>310</ele>
        <time>2016-08-23T09:23:04Z</time>
      </trkpt>
      <trkpt lat="45.8018" lon="4.57765">
        <ele>310</ele>
        <time>2016-08-23T09:23:05Z</time>
      </trkpt>
      <trkpt lat="45.80187" lon="4.57757">
        <ele>311</ele>
        <time>2016-08-23T09:23:08Z</time>
      </trkpt>
      <trkpt lat="45.80189" lon="4.57754">
        <ele>311</ele>
        <time>2016-08-23T09:23:09Z</time>
      </trkpt>
      <trkpt lat="45.80195" lon="4.57751">
        <ele>312</ele>
        <time>2016-08-23T09:23:11Z</time>
      </trkpt>
      <trkpt lat="45.80198" lon="4.5775">
        <ele>311</ele>
        <time>2016-08-23T09:23:12Z</time>
      </trkpt>
      <trkpt lat="45.80204" lon="4.57745">
        <ele>312</ele>
        <time>2016-08-23T09:23:15Z</time>
      </trkpt>
      <trkpt lat="45.80206" lon="4.57743">
        <ele>312</ele>
        <time>2016-08-23T09:23:16Z</time>
      </trkpt>
      <trkpt lat="45.80212" lon="4.57737">
        <ele>313</ele>
        <time>2016-08-23T09:23:19Z</time>
      </trkpt>
      <trkpt lat="45.80214" lon="4.57735">
        <ele>313</ele>
        <time>2016-08-23T09:23:20Z</time>
      </trkpt>
      <trkpt lat="45.8022" lon="4.57727">
        <ele>314</ele>
        <time>2016-08-23T09:23:23Z</time>
      </trkpt>
      <trkpt lat="45.80221" lon="4.57725">
        <ele>314</ele>
        <time>2016-08-23T09:23:24Z</time>
      </trkpt>
      <trkpt lat="45.80224" lon="4.57717">
        <ele>314</ele>
        <time>2016-08-23T09:23:27Z</time>
      </trkpt>
      <trkpt lat="45.80225" lon="4.57713">
        <ele>314</ele>
        <time>2016-08-23T09:23:28Z</time>
      </trkpt>
      <trkpt lat="45.80227" lon="4.57703">
        <ele>314</ele>
        <time>2016-08-23T09:23:31Z</time>
      </trkpt>
      <trkpt lat="45.80228" lon="4.57699">
        <ele>314</ele>
        <time>2016-08-23T09:23:32Z</time>
      </trkpt>
      <trkpt lat="45.80231" lon="4.5769">
        <ele>314</ele>
        <time>2016-08-23T09:23:34Z</time>
      </trkpt>
      <trkpt lat="45.80233" lon="4.57686">
        <ele>314</ele>
        <time>2016-08-23T09:23:35Z</time>
      </trkpt>
      <trkpt lat="45.80234" lon="4.57677">
        <ele>315</ele>
        <time>2016-08-23T09:23:37Z</time>
      </trkpt>
      <trkpt lat="45.80235" lon="4.57673">
        <ele>315</ele>
        <time>2016-08-23T09:23:38Z</time>
      </trkpt>
      <trkpt lat="45.80237" lon="4.57663">
        <ele>315</ele>
        <time>2016-08-23T09:23:40Z</time>
      </trkpt>
      <trkpt lat="45.80237" lon="4.57659">
        <ele>315</ele>
        <time>2016-08-23T09:23:41Z</time>
      </trkpt>
      <trkpt lat="45.80237" lon="4.57647">
        <ele>315</ele>
        <time>2016-08-23T09:23:44Z</time>
      </trkpt>
      <trkpt lat="45.80236" lon="4.57643">
        <ele>315</ele>
        <time>2016-08-23T09:23:45Z</time>
      </trkpt>
      <trkpt lat="45.80235" lon="4.57631">
        <ele>314</ele>
        <time>2016-08-23T09:23:48Z</time>
      </trkpt>
      <trkpt lat="45.80235" lon="4.57627">
        <ele>314</ele>
        <time>2016-08-23T09:23:49Z</time>
      </trkpt>
      <trkpt lat="45.80234" lon="4.57617">
        <ele>314</ele>
        <time>2016-08-23T09:23:52Z</time>
      </trkpt>
      <trkpt lat="45.80234" lon="4.57613">
        <ele>314</ele>
        <time>2016-08-23T09:23:53Z</time>
      </trkpt>
      <trkpt lat="45.80233" lon="4.57602">
        <ele>315</ele>
        <time>2016-08-23T09:23:56Z</time>
      </trkpt>
      <trkpt lat="45.80232" lon="4.57598">
        <ele>315</ele>
        <time>2016-08-23T09:23:57Z</time>
      </trkpt>
      <trkpt lat="45.80231" lon="4.57586">
        <ele>315</ele>
        <time>2016-08-23T09:24:00Z</time>
      </trkpt>
      <trkpt lat="45.8023" lon="4.57582">
        <ele>317</ele>
        <time>2016-08-23T09:24:01Z</time>
      </trkpt>
      <trkpt lat="45.80227" lon="4.5757">
        <ele>317</ele>
        <time>2016-08-23T09:24:04Z</time>
      </trkpt>
      <trkpt lat="45.80226" lon="4.57566">
        <ele>317</ele>
        <time>2016-08-23T09:24:05Z</time>
      </trkpt>
      <trkpt lat="45.80224" lon="4.57557">
        <ele>317</ele>
        <time>2016-08-23T09:24:07Z</time>
      </trkpt>
      <trkpt lat="45.80223" lon="4.57553">
        <ele>317</ele>
        <time>2016-08-23T09:24:08Z</time>
      </trkpt>
      <trkpt lat="45.8022" lon="4.57543">
        <ele>317</ele>
        <time>2016-08-23T09:24:11Z</time>
      </trkpt>
      <trkpt lat="45.80219" lon="4.57539">
        <ele>317</ele>
        <time>2016-08-23T09:24:12Z</time>
      </trkpt>
      <trkpt lat="45.80218" lon="4.57528">
        <ele>317</ele>
        <time>2016-08-23T09:24:15Z</time>
      </trkpt>
      <trkpt lat="45.80217" lon="4.57524">
        <ele>317</ele>
        <time>2016-08-23T09:24:16Z</time>
      </trkpt>
      <trkpt lat="45.80216" lon="4.57514">
        <ele>318</ele>
        <time>2016-08-23T09:24:19Z</time>
      </trkpt>
      <trkpt lat="45.80215" lon="4.57511">
        <ele>318</ele>
        <time>2016-08-23T09:24:20Z</time>
      </trkpt>
      <trkpt lat="45.80214" lon="4.57501">
        <ele>318</ele>
        <time>2016-08-23T09:24:23Z</time>
      </trkpt>
      <trkpt lat="45.80213" lon="4.57498">
        <ele>320</ele>
        <time>2016-08-23T09:24:24Z</time>
      </trkpt>
      <trkpt lat="45.80209" lon="4.57489">
        <ele>319</ele>
        <time>2016-08-23T09:24:27Z</time>
      </trkpt>
      <trkpt lat="45.80209" lon="4.57486">
        <ele>319</ele>
        <time>2016-08-23T09:24:28Z</time>
      </trkpt>
      <trkpt lat="45.80206" lon="4.57478">
        <ele>319</ele>
        <time>2016-08-23T09:24:30Z</time>
      </trkpt>
      <trkpt lat="45.80205" lon="4.57473">
        <ele>319</ele>
        <time>2016-08-23T09:24:31Z</time>
      </trkpt>
      <trkpt lat="45.80203" lon="4.57465">
        <ele>319</ele>
        <time>2016-08-23T09:24:33Z</time>
      </trkpt>
      <trkpt lat="45.80202" lon="4.57461">
        <ele>319</ele>
        <time>2016-08-23T09:24:34Z</time>
      </trkpt>
      <trkpt lat="45.802" lon="4.57449">
        <ele>319</ele>
        <time>2016-08-23T09:24:37Z</time>
      </trkpt>
      <trkpt lat="45.802" lon="4.57445">
        <ele>319</ele>
        <time>2016-08-23T09:24:38Z</time>
      </trkpt>
      <trkpt lat="45.802" lon="4.57434">
        <ele>320</ele>
        <time>2016-08-23T09:24:41Z</time>
      </trkpt>
      <trkpt lat="45.80201" lon="4.5743">
        <ele>320</ele>
        <time>2016-08-23T09:24:42Z</time>
      </trkpt>
      <trkpt lat="45.80203" lon="4.57421">
        <ele>320</ele>
        <time>2016-08-23T09:24:45Z</time>
      </trkpt>
      <trkpt lat="45.80205" lon="4.57417">
        <ele>320</ele>
        <time>2016-08-23T09:24:46Z</time>
      </trkpt>
      <trkpt lat="45.80208" lon="4.57406">
        <ele>322</ele>
        <time>2016-08-23T09:24:49Z</time>
      </trkpt>
      <trkpt lat="45.80209" lon="4.57402">
        <ele>322</ele>
        <time>2016-08-23T09:24:50Z</time>
      </trkpt>
      <trkpt lat="45.80212" lon="4.57392">
        <ele>322</ele>
        <time>2016-08-23T09:24:53Z</time>
      </trkpt>
      <trkpt lat="45.80213" lon="4.57388">
        <ele>322</ele>
        <time>2016-08-23T09:24:54Z</time>
      </trkpt>
      <trkpt lat="45.80215" lon="4.57379">
        <ele>322</ele>
        <time>2016-08-23T09:24:57Z</time>
      </trkpt>
      <trkpt lat="45.80216" lon="4.57375">
        <ele>323</ele>
        <time>2016-08-23T09:24:58Z</time>
      </trkpt>
      <trkpt lat="45.80218" lon="4.57365">
        <ele>323</ele>
        <time>2016-08-23T09:25:01Z</time>
      </trkpt>
      <trkpt lat="45.80219" lon="4.57361">
        <ele>323</ele>
        <time>2016-08-23T09:25:02Z</time>
      </trkpt>
      <trkpt lat="45.80221" lon="4.5735">
        <ele>323</ele>
        <time>2016-08-23T09:25:05Z</time>
      </trkpt>
      <trkpt lat="45.80222" lon="4.57346">
        <ele>323</ele>
        <time>2016-08-23T09:25:06Z</time>
      </trkpt>
      <trkpt lat="45.80225" lon="4.57338">
        <ele>323</ele>
        <time>2016-08-23T09:25:08Z</time>
      </trkpt>
      <trkpt lat="45.80226" lon="4.57334">
        <ele>323</ele>
        <time>2016-08-23T09:25:09Z</time>
      </trkpt>
      <trkpt lat="45.80229" lon="4.57324">
        <ele>324</ele>
        <time>2016-08-23T09:25:12Z</time>
      </trkpt>
      <trkpt lat="45.80231" lon="4.57321">
        <ele>324</ele>
        <time>2016-08-23T09:25:13Z</time>
      </trkpt>
      <trkpt lat="45.80234" lon="4.5731">
        <ele>324</ele>
        <time>2016-08-23T09:25:16Z</time>
      </trkpt>
      <trkpt lat="45.80236" lon="4.57307">
        <ele>324</ele>
        <time>2016-08-23T09:25:17Z</time>
      </trkpt>
      <trkpt lat="45.8024" lon="4.57297">
        <ele>324</ele>
        <time>2016-08-23T09:25:20Z</time>
      </trkpt>
      <trkpt lat="45.80241" lon="4.57294">
        <ele>323</ele>
        <time>2016-08-23T09:25:21Z</time>
      </trkpt>
      <trkpt lat="45.80245" lon="4.57284">
        <ele>323</ele>
        <time>2016-08-23T09:25:24Z</time>
      </trkpt>
      <trkpt lat="45.80246" lon="4.57281">
        <ele>323</ele>
        <time>2016-08-23T09:25:25Z</time>
      </trkpt>
      <trkpt lat="45.80249" lon="4.5727">
        <ele>322</ele>
        <time>2016-08-23T09:25:28Z</time>
      </trkpt>
      <trkpt lat="45.8025" lon="4.57267">
        <ele>325</ele>
        <time>2016-08-23T09:25:29Z</time>
      </trkpt>
      <trkpt lat="45.80254" lon="4.57256">
        <ele>323</ele>
        <time>2016-08-23T09:25:32Z</time>
      </trkpt>
      <trkpt lat="45.80255" lon="4.57252">
        <ele>322</ele>
        <time>2016-08-23T09:25:33Z</time>
      </trkpt>
      <trkpt lat="45.80255" lon="4.57243">
        <ele>323</ele>
        <time>2016-08-23T09:25:35Z</time>
      </trkpt>
      <trkpt lat="45.80256" lon="4.57239">
        <ele>324</ele>
        <time>2016-08-23T09:25:36Z</time>
      </trkpt>
      <trkpt lat="45.80258" lon="4.57229">
        <ele>325</ele>
        <time>2016-08-23T09:25:39Z</time>
      </trkpt>
      <trkpt lat="45.8026" lon="4.57226">
        <ele>326</ele>
        <time>2016-08-23T09:25:40Z</time>
      </trkpt>
      <trkpt lat="45.80264" lon="4.57217">
        <ele>327</ele>
        <time>2016-08-23T09:25:43Z</time>
      </trkpt>
      <trkpt lat="45.80266" lon="4.57214">
        <ele>327</ele>
        <time>2016-08-23T09:25:44Z</time>
      </trkpt>
      <trkpt lat="45.80269" lon="4.57205">
        <ele>327</ele>
        <time>2016-08-23T09:25:47Z</time>
      </trkpt>
      <trkpt lat="45.8027" lon="4.57202">
        <ele>327</ele>
        <time>2016-08-23T09:25:48Z</time>
      </trkpt>
      <trkpt lat="45.80274" lon="4.57193">
        <ele>327</ele>
        <time>2016-08-23T09:25:51Z</time>
      </trkpt>
      <trkpt lat="45.80274" lon="4.57189">
        <ele>327</ele>
        <time>2016-08-23T09:25:52Z</time>
      </trkpt>
      <trkpt lat="45.80274" lon="4.57178">
        <ele>327</ele>
        <time>2016-08-23T09:25:55Z</time>
      </trkpt>
      <trkpt lat="45.80274" lon="4.57174">
        <ele>327</ele>
        <time>2016-08-23T09:25:56Z</time>
      </trkpt>
      <trkpt lat="45.8027" lon="4.57164">
        <ele>329</ele>
        <time>2016-08-23T09:25:59Z</time>
      </trkpt>
      <trkpt lat="45.80269" lon="4.57161">
        <ele>329</ele>
        <time>2016-08-23T09:26:00Z</time>
      </trkpt>
      <trkpt lat="45.80264" lon="4.57153">
        <ele>329</ele>
        <time>2016-08-23T09:26:03Z</time>
      </trkpt>
      <trkpt lat="45.80262" lon="4.5715">
        <ele>329</ele>
        <time>2016-08-23T09:26:04Z</time>
      </trkpt>
      <trkpt lat="45.80256" lon="4.57141">
        <ele>330</ele>
        <time>2016-08-23T09:26:07Z</time>
      </trkpt>
      <trkpt lat="45.80254" lon="4.57139">
        <ele>330</ele>
        <time>2016-08-23T09:26:08Z</time>
      </trkpt>
      <trkpt lat="45.80248" lon="4.57133">
        <ele>326</ele>
        <time>2016-08-23T09:26:10Z</time>
      </trkpt>
      <trkpt lat="45.80246" lon="4.5713">
        <ele>327</ele>
        <time>2016-08-23T09:26:11Z</time>
      </trkpt>
      <trkpt lat="45.80242" lon="4.57121">
        <ele>327</ele>
        <time>2016-08-23T09:26:14Z</time>
      </trkpt>
      <trkpt lat="45.80241" lon="4.57117">
        <ele>327</ele>
        <time>2016-08-23T09:26:15Z</time>
      </trkpt>
      <trkpt lat="45.80237" lon="4.57107">
        <ele>328</ele>
        <time>2016-08-23T09:26:18Z</time>
      </trkpt>
      <trkpt lat="45.80236" lon="4.57104">
        <ele>328</ele>
        <time>2016-08-23T09:26:19Z</time>
      </trkpt>
      <trkpt lat="45.80233" lon="4.57094">
        <ele>328</ele>
        <time>2016-08-23T09:26:22Z</time>
      </trkpt>
      <trkpt lat="45.80233" lon="4.57091">
        <ele>328</ele>
        <time>2016-08-23T09:26:23Z</time>
      </trkpt>
      <trkpt lat="45.80232" lon="4.5708">
        <ele>330</ele>
        <time>2016-08-23T09:26:26Z</time>
      </trkpt>
      <trkpt lat="45.80232" lon="4.57076">
        <ele>330</ele>
        <time>2016-08-23T09:26:27Z</time>
      </trkpt>
      <trkpt lat="45.80232" lon="4.57065">
        <ele>330</ele>
        <time>2016-08-23T09:26:30Z</time>
      </trkpt>
      <trkpt lat="45.80232" lon="4.57061">
        <ele>330</ele>
        <time>2016-08-23T09:26:31Z</time>
      </trkpt>
      <trkpt lat="45.80232" lon="4.57049">
        <ele>331</ele>
        <time>2016-08-23T09:26:34Z</time>
      </trkpt>
      <trkpt lat="45.80233" lon="4.57046">
        <ele>331</ele>
        <time>2016-08-23T09:26:35Z</time>
      </trkpt>
      <trkpt lat="45.80233" lon="4.57035">
        <ele>331</ele>
        <time>2016-08-23T09:26:38Z</time>
      </trkpt>
      <trkpt lat="45.80233" lon="4.57031">
        <ele>331</ele>
        <time>2016-08-23T09:26:39Z</time>
      </trkpt>
      <trkpt lat="45.80235" lon="4.57021">
        <ele>331</ele>
        <time>2016-08-23T09:26:42Z</time>
      </trkpt>
      <trkpt lat="45.80236" lon="4.57017">
        <ele>331</ele>
        <time>2016-08-23T09:26:43Z</time>
      </trkpt>
      <trkpt lat="45.8024" lon="4.57008">
        <ele>332</ele>
        <time>2016-08-23T09:26:46Z</time>
      </trkpt>
      <trkpt lat="45.80241" lon="4.57005">
        <ele>332</ele>
        <time>2016-08-23T09:26:47Z</time>
      </trkpt>
      <trkpt lat="45.80243" lon="4.56994">
        <ele>332</ele>
        <time>2016-08-23T09:26:50Z</time>
      </trkpt>
      <trkpt lat="45.80244" lon="4.5699">
        <ele>332</ele>
        <time>2016-08-23T09:26:51Z</time>
      </trkpt>
      <trkpt lat="45.80246" lon="4.5698">
        <ele>332</ele>
        <time>2016-08-23T09:26:54Z</time>
      </trkpt>
      <trkpt lat="45.80246" lon="4.56977">
        <ele>332</ele>
        <time>2016-08-23T09:26:55Z</time>
      </trkpt>
      <trkpt lat="45.80247" lon="4.56966">
        <ele>332</ele>
        <time>2016-08-23T09:26:58Z</time>
      </trkpt>
      <trkpt lat="45.80248" lon="4.56963">
        <ele>332</ele>
        <time>2016-08-23T09:26:59Z</time>
      </trkpt>
      <trkpt lat="45.80249" lon="4.5695">
        <ele>332</ele>
        <time>2016-08-23T09:27:02Z</time>
      </trkpt>
      <trkpt lat="45.80249" lon="4.56947">
        <ele>332</ele>
        <time>2016-08-23T09:27:03Z</time>
      </trkpt>
      <trkpt lat="45.80251" lon="4.56936">
        <ele>337</ele>
        <time>2016-08-23T09:27:06Z</time>
      </trkpt>
      <trkpt lat="45.80251" lon="4.56931">
        <ele>336</ele>
        <time>2016-08-23T09:27:07Z</time>
      </trkpt>
      <trkpt lat="45.80253" lon="4.5692">
        <ele>333</ele>
        <time>2016-08-23T09:27:10Z</time>
      </trkpt>
      <trkpt lat="45.80253" lon="4.56916">
        <ele>333</ele>
        <time>2016-08-23T09:27:11Z</time>
      </trkpt>
      <trkpt lat="45.80254" lon="4.56905">
        <ele>336</ele>
        <time>2016-08-23T09:27:14Z</time>
      </trkpt>
      <trkpt lat="45.80254" lon="4.56902">
        <ele>337</ele>
        <time>2016-08-23T09:27:15Z</time>
      </trkpt>
      <trkpt lat="45.80256" lon="4.5689">
        <ele>340</ele>
        <time>2016-08-23T09:27:18Z</time>
      </trkpt>
      <trkpt lat="45.80257" lon="4.56886">
        <ele>340</ele>
        <time>2016-08-23T09:27:19Z</time>
      </trkpt>
      <trkpt lat="45.80256" lon="4.56874">
        <ele>341</ele>
        <time>2016-08-23T09:27:22Z</time>
      </trkpt>
      <trkpt lat="45.80256" lon="4.5687">
        <ele>341</ele>
        <time>2016-08-23T09:27:23Z</time>
      </trkpt>
      <trkpt lat="45.80254" lon="4.56862">
        <ele>341</ele>
        <time>2016-08-23T09:27:25Z</time>
      </trkpt>
      <trkpt lat="45.80251" lon="4.56857">
        <ele>341</ele>
        <time>2016-08-23T09:27:26Z</time>
      </trkpt>
      <trkpt lat="45.80246" lon="4.56847">
        <ele>336</ele>
        <time>2016-08-23T09:27:29Z</time>
      </trkpt>
      <trkpt lat="45.80246" lon="4.56845">
        <ele>336</ele>
        <time>2016-08-23T09:27:30Z</time>
      </trkpt>
      <trkpt lat="45.80242" lon="4.56834">
        <ele>336</ele>
        <time>2016-08-23T09:27:33Z</time>
      </trkpt>
      <trkpt lat="45.8024" lon="4.5683">
        <ele>339</ele>
        <time>2016-08-23T09:27:34Z</time>
      </trkpt>
      <trkpt lat="45.80235" lon="4.5682">
        <ele>339</ele>
        <time>2016-08-23T09:27:37Z</time>
      </trkpt>
      <trkpt lat="45.80233" lon="4.56817">
        <ele>340</ele>
        <time>2016-08-23T09:27:38Z</time>
      </trkpt>
      <trkpt lat="45.80229" lon="4.56807">
        <ele>340</ele>
        <time>2016-08-23T09:27:41Z</time>
      </trkpt>
      <trkpt lat="45.80228" lon="4.56803">
        <ele>341</ele>
        <time>2016-08-23T09:27:42Z</time>
      </trkpt>
      <trkpt lat="45.80224" lon="4.56793">
        <ele>341</ele>
        <time>2016-08-23T09:27:45Z</time>
      </trkpt>
      <trkpt lat="45.80222" lon="4.56789">
        <ele>342</ele>
        <time>2016-08-23T09:27:46Z</time>
      </trkpt>
      <trkpt lat="45.80218" lon="4.5678">
        <ele>342</ele>
        <time>2016-08-23T09:27:49Z</time>
      </trkpt>
      <trkpt lat="45.80217" lon="4.56776">
        <ele>342</ele>
        <time>2016-08-23T09:27:50Z</time>
      </trkpt>
      <trkpt lat="45.80212" lon="4.56766">
        <ele>342</ele>
        <time>2016-08-23T09:27:53Z</time>
      </trkpt>
      <trkpt lat="45.8021" lon="4.56763">
        <ele>342</ele>
        <time>2016-08-23T09:27:54Z</time>
      </trkpt>
      <trkpt lat="45.80207" lon="4.56751">
        <ele>342</ele>
        <time>2016-08-23T09:27:58Z</time>
      </trkpt>
      <trkpt lat="45.80207" lon="4.56747">
        <ele>348</ele>
        <time>2016-08-23T09:27:59Z</time>
      </trkpt>
      <trkpt lat="45.80207" lon="4.56736">
        <ele>348</ele>
        <time>2016-08-23T09:28:02Z</time>
      </trkpt>
      <trkpt lat="45.80208" lon="4.56732">
        <ele>348</ele>
        <time>2016-08-23T09:28:03Z</time>
      </trkpt>
      <trkpt lat="45.8021" lon="4.56722">
        <ele>349</ele>
        <time>2016-08-23T09:28:06Z</time>
      </trkpt>
      <trkpt lat="45.80211" lon="4.56718">
        <ele>349</ele>
        <time>2016-08-23T09:28:07Z</time>
      </trkpt>
      <trkpt lat="45.80212" lon="4.56707">
        <ele>350</ele>
        <time>2016-08-23T09:28:10Z</time>
      </trkpt>
      <trkpt lat="45.80212" lon="4.56703">
        <ele>350</ele>
        <time>2016-08-23T09:28:11Z</time>
      </trkpt>
      <trkpt lat="45.80209" lon="4.56691">
        <ele>350</ele>
        <time>2016-08-23T09:28:14Z</time>
      </trkpt>
      <trkpt lat="45.80208" lon="4.56688">
        <ele>350</ele>
        <time>2016-08-23T09:28:15Z</time>
      </trkpt>
      <trkpt lat="45.80206" lon="4.56679">
        <ele>350</ele>
        <time>2016-08-23T09:28:17Z</time>
      </trkpt>
      <trkpt lat="45.80204" lon="4.56676">
        <ele>350</ele>
        <time>2016-08-23T09:28:18Z</time>
      </trkpt>
      <trkpt lat="45.80201" lon="4.56664">
        <ele>355</ele>
        <time>2016-08-23T09:28:21Z</time>
      </trkpt>
      <trkpt lat="45.80201" lon="4.56661">
        <ele>355</ele>
        <time>2016-08-23T09:28:22Z</time>
      </trkpt>
      <trkpt lat="45.802" lon="4.56652">
        <ele>355</ele>
        <time>2016-08-23T09:28:25Z</time>
      </trkpt>
      <trkpt lat="45.80198" lon="4.56649">
        <ele>355</ele>
        <time>2016-08-23T09:28:26Z</time>
      </trkpt>
      <trkpt lat="45.80196" lon="4.5664">
        <ele>355</ele>
        <time>2016-08-23T09:28:29Z</time>
      </trkpt>
      <trkpt lat="45.80196" lon="4.56636">
        <ele>355</ele>
        <time>2016-08-23T09:28:30Z</time>
      </trkpt>
      <trkpt lat="45.80192" lon="4.56625">
        <ele>355</ele>
        <time>2016-08-23T09:28:33Z</time>
      </trkpt>
      <trkpt lat="45.80191" lon="4.56621">
        <ele>355</ele>
        <time>2016-08-23T09:28:34Z</time>
      </trkpt>
      <trkpt lat="45.80189" lon="4.56613">
        <ele>355</ele>
        <time>2016-08-23T09:28:37Z</time>
      </trkpt>
      <trkpt lat="45.80188" lon="4.56608">
        <ele>355</ele>
        <time>2016-08-23T09:28:38Z</time>
      </trkpt>
      <trkpt lat="45.80184" lon="4.56598">
        <ele>354</ele>
        <time>2016-08-23T09:28:41Z</time>
      </trkpt>
      <trkpt lat="45.80182" lon="4.56595">
        <ele>354</ele>
        <time>2016-08-23T09:28:42Z</time>
      </trkpt>
      <trkpt lat="45.80178" lon="4.56584">
        <ele>353</ele>
        <time>2016-08-23T09:28:45Z</time>
      </trkpt>
      <trkpt lat="45.80177" lon="4.56581">
        <ele>354</ele>
        <time>2016-08-23T09:28:46Z</time>
      </trkpt>
      <trkpt lat="45.80174" lon="4.5657">
        <ele>355</ele>
        <time>2016-08-23T09:28:50Z</time>
      </trkpt>
      <trkpt lat="45.80173" lon="4.56567">
        <ele>355</ele>
        <time>2016-08-23T09:28:51Z</time>
      </trkpt>
      <trkpt lat="45.80171" lon="4.56557">
        <ele>356</ele>
        <time>2016-08-23T09:28:54Z</time>
      </trkpt>
      <trkpt lat="45.80169" lon="4.56554">
        <ele>357</ele>
        <time>2016-08-23T09:28:55Z</time>
      </trkpt>
      <trkpt lat="45.80166" lon="4.56545">
        <ele>356</ele>
        <time>2016-08-23T09:28:58Z</time>
      </trkpt>
      <trkpt lat="45.80165" lon="4.56542">
        <ele>356</ele>
        <time>2016-08-23T09:28:59Z</time>
      </trkpt>
      <trkpt lat="45.80163" lon="4.56531">
        <ele>356</ele>
        <time>2016-08-23T09:29:02Z</time>
      </trkpt>
      <trkpt lat="45.80162" lon="4.56528">
        <ele>355</ele>
        <time>2016-08-23T09:29:03Z</time>
      </trkpt>
      <trkpt lat="45.80162" lon="4.56518">
        <ele>355</ele>
        <time>2016-08-23T09:29:06Z</time>
      </trkpt>
      <trkpt lat="45.80163" lon="4.56515">
        <ele>354</ele>
        <time>2016-08-23T09:29:07Z</time>
      </trkpt>
      <trkpt lat="45.80167" lon="4.56505">
        <ele>352</ele>
        <time>2016-08-23T09:29:10Z</time>
      </trkpt>
      <trkpt lat="45.80168" lon="4.56503">
        <ele>352</ele>
        <time>2016-08-23T09:29:11Z</time>
      </trkpt>
      <trkpt lat="45.80171" lon="4.56493">
        <ele>353</ele>
        <time>2016-08-23T09:29:14Z</time>
      </trkpt>
      <trkpt lat="45.80174" lon="4.56491">
        <ele>354</ele>
        <time>2016-08-23T09:29:15Z</time>
      </trkpt>
      <trkpt lat="45.80179" lon="4.56482">
        <ele>356</ele>
        <time>2016-08-23T09:29:18Z</time>
      </trkpt>
      <trkpt lat="45.80181" lon="4.56479">
        <ele>357</ele>
        <time>2016-08-23T09:29:19Z</time>
      </trkpt>
      <trkpt lat="45.80189" lon="4.56473">
        <ele>358</ele>
        <time>2016-08-23T09:29:22Z</time>
      </trkpt>
      <trkpt lat="45.80191" lon="4.56471">
        <ele>358</ele>
        <time>2016-08-23T09:29:23Z</time>
      </trkpt>
      <trkpt lat="45.80194" lon="4.56461">
        <ele>358</ele>
        <time>2016-08-23T09:29:26Z</time>
      </trkpt>
      <trkpt lat="45.80195" lon="4.56456">
        <ele>358</ele>
        <time>2016-08-23T09:29:27Z</time>
      </trkpt>
      <trkpt lat="45.80201" lon="4.56448">
        <ele>359</ele>
        <time>2016-08-23T09:29:30Z</time>
      </trkpt>
      <trkpt lat="45.80203" lon="4.56446">
        <ele>359</ele>
        <time>2016-08-23T09:29:31Z</time>
      </trkpt>
      <trkpt lat="45.80208" lon="4.56436">
        <ele>359</ele>
        <time>2016-08-23T09:29:34Z</time>
      </trkpt>
      <trkpt lat="45.80209" lon="4.56432">
        <ele>359</ele>
        <time>2016-08-23T09:29:35Z</time>
      </trkpt>
      <trkpt lat="45.80215" lon="4.56423">
        <ele>360</ele>
        <time>2016-08-23T09:29:38Z</time>
      </trkpt>
      <trkpt lat="45.80217" lon="4.5642">
        <ele>360</ele>
        <time>2016-08-23T09:29:39Z</time>
      </trkpt>
      <trkpt lat="45.80221" lon="4.5641">
        <ele>360</ele>
        <time>2016-08-23T09:29:42Z</time>
      </trkpt>
      <trkpt lat="45.80222" lon="4.56407">
        <ele>360</ele>
        <time>2016-08-23T09:29:43Z</time>
      </trkpt>
      <trkpt lat="45.80225" lon="4.56398">
        <ele>360</ele>
        <time>2016-08-23T09:29:46Z</time>
      </trkpt>
      <trkpt lat="45.80226" lon="4.56394">
        <ele>360</ele>
        <time>2016-08-23T09:29:47Z</time>
      </trkpt>
      <trkpt lat="45.80232" lon="4.56385">
        <ele>360</ele>
        <time>2016-08-23T09:29:50Z</time>
      </trkpt>
      <trkpt lat="45.80233" lon="4.56382">
        <ele>360</ele>
        <time>2016-08-23T09:29:51Z</time>
      </trkpt>
      <trkpt lat="45.80238" lon="4.56373">
        <ele>360</ele>
        <time>2016-08-23T09:29:54Z</time>
      </trkpt>
      <trkpt lat="45.80239" lon="4.5637">
        <ele>360</ele>
        <time>2016-08-23T09:29:55Z</time>
      </trkpt>
      <trkpt lat="45.80244" lon="4.56361">
        <ele>360</ele>
        <time>2016-08-23T09:29:58Z</time>
      </trkpt>
      <trkpt lat="45.80245" lon="4.56358">
        <ele>360</ele>
        <time>2016-08-23T09:29:59Z</time>
      </trkpt>
      <trkpt lat="45.80248" lon="4.56349">
        <ele>361</ele>
        <time>2016-08-23T09:30:02Z</time>
      </trkpt>
      <trkpt lat="45.80249" lon="4.56346">
        <ele>361</ele>
        <time>2016-08-23T09:30:03Z</time>
      </trkpt>
      <trkpt lat="45.80253" lon="4.56335">
        <ele>363</ele>
        <time>2016-08-23T09:30:06Z</time>
      </trkpt>
      <trkpt lat="45.80254" lon="4.56332">
        <ele>363</ele>
        <time>2016-08-23T09:30:07Z</time>
      </trkpt>
      <trkpt lat="45.80256" lon="4.56322">
        <ele>365</ele>
        <time>2016-08-23T09:30:10Z</time>
      </trkpt>
      <trkpt lat="45.80258" lon="4.56319">
        <ele>365</ele>
        <time>2016-08-23T09:30:11Z</time>
      </trkpt>
      <trkpt lat="45.80261" lon="4.56309">
        <ele>366</ele>
        <time>2016-08-23T09:30:14Z</time>
      </trkpt>
      <trkpt lat="45.80263" lon="4.56305">
        <ele>367</ele>
        <time>2016-08-23T09:30:15Z</time>
      </trkpt>
      <trkpt lat="45.80265" lon="4.56294">
        <ele>367</ele>
        <time>2016-08-23T09:30:18Z</time>
      </trkpt>
      <trkpt lat="45.80267" lon="4.56291">
        <ele>367</ele>
        <time>2016-08-23T09:30:19Z</time>
      </trkpt>
      <trkpt lat="45.80269" lon="4.56281">
        <ele>367</ele>
        <time>2016-08-23T09:30:22Z</time>
      </trkpt>
      <trkpt lat="45.8027" lon="4.56277">
        <ele>367</ele>
        <time>2016-08-23T09:30:23Z</time>
      </trkpt>
      <trkpt lat="45.80273" lon="4.56267">
        <ele>367</ele>
        <time>2016-08-23T09:30:26Z</time>
      </trkpt>
      <trkpt lat="45.80274" lon="4.56263">
        <ele>367</ele>
        <time>2016-08-23T09:30:27Z</time>
      </trkpt>
      <trkpt lat="45.80274" lon="4.56252">
        <ele>366</ele>
        <time>2016-08-23T09:30:30Z</time>
      </trkpt>
      <trkpt lat="45.80274" lon="4.56247">
        <ele>366</ele>
        <time>2016-08-23T09:30:31Z</time>
      </trkpt>
      <trkpt lat="45.80275" lon="4.56236">
        <ele>366</ele>
        <time>2016-08-23T09:30:34Z</time>
      </trkpt>
      <trkpt lat="45.80276" lon="4.56233">
        <ele>366</ele>
        <time>2016-08-23T09:30:35Z</time>
      </trkpt>
      <trkpt lat="45.80276" lon="4.56222">
        <ele>367</ele>
        <time>2016-08-23T09:30:38Z</time>
      </trkpt>
      <trkpt lat="45.80276" lon="4.56219">
        <ele>367</ele>
        <time>2016-08-23T09:30:39Z</time>
      </trkpt>
      <trkpt lat="45.80273" lon="4.56207">
        <ele>366</ele>
        <time>2016-08-23T09:30:42Z</time>
      </trkpt>
      <trkpt lat="45.80272" lon="4.56203">
        <ele>366</ele>
        <time>2016-08-23T09:30:43Z</time>
      </trkpt>
      <trkpt lat="45.80269" lon="4.56195">
        <ele>366</ele>
        <time>2016-08-23T09:30:45Z</time>
      </trkpt>
      <trkpt lat="45.80268" lon="4.56191">
        <ele>365</ele>
        <time>2016-08-23T09:30:46Z</time>
      </trkpt>
      <trkpt lat="45.80265" lon="4.5618">
        <ele>364</ele>
        <time>2016-08-23T09:30:49Z</time>
      </trkpt>
      <trkpt lat="45.80265" lon="4.56177">
        <ele>364</ele>
        <time>2016-08-23T09:30:50Z</time>
      </trkpt>
      <trkpt lat="45.80263" lon="4.56168">
        <ele>363</ele>
        <time>2016-08-23T09:30:52Z</time>
      </trkpt>
      <trkpt lat="45.80263" lon="4.56164">
        <ele>363</ele>
        <time>2016-08-23T09:30:53Z</time>
      </trkpt>
      <trkpt lat="45.80262" lon="4.56155">
        <ele>364</ele>
        <time>2016-08-23T09:30:55Z</time>
      </trkpt>
      <trkpt lat="45.80262" lon="4.56151">
        <ele>365</ele>
        <time>2016-08-23T09:30:56Z</time>
      </trkpt>
      <trkpt lat="45.80262" lon="4.56139">
        <ele>366</ele>
        <time>2016-08-23T09:30:59Z</time>
      </trkpt>
      <trkpt lat="45.80262" lon="4.56135">
        <ele>366</ele>
        <time>2016-08-23T09:31:00Z</time>
      </trkpt>
      <trkpt lat="45.80262" lon="4.56124">
        <ele>367</ele>
        <time>2016-08-23T09:31:03Z</time>
      </trkpt>
      <trkpt lat="45.80262" lon="4.56121">
        <ele>367</ele>
        <time>2016-08-23T09:31:04Z</time>
      </trkpt>
      <trkpt lat="45.80265" lon="4.56111">
        <ele>367</ele>
        <time>2016-08-23T09:31:07Z</time>
      </trkpt>
      <trkpt lat="45.80265" lon="4.56107">
        <ele>366</ele>
        <time>2016-08-23T09:31:08Z</time>
      </trkpt>
      <trkpt lat="45.80268" lon="4.56097">
        <ele>366</ele>
        <time>2016-08-23T09:31:11Z</time>
      </trkpt>
      <trkpt lat="45.80268" lon="4.56093">
        <ele>366</ele>
        <time>2016-08-23T09:31:12Z</time>
      </trkpt>
      <trkpt lat="45.80269" lon="4.56081">
        <ele>367</ele>
        <time>2016-08-23T09:31:15Z</time>
      </trkpt>
      <trkpt lat="45.80269" lon="4.56077">
        <ele>367</ele>
        <time>2016-08-23T09:31:16Z</time>
      </trkpt>
      <trkpt lat="45.8027" lon="4.56067">
        <ele>368</ele>
        <time>2016-08-23T09:31:19Z</time>
      </trkpt>
      <trkpt lat="45.80271" lon="4.56063">
        <ele>368</ele>
        <time>2016-08-23T09:31:20Z</time>
      </trkpt>
      <trkpt lat="45.80274" lon="4.56052">
        <ele>369</ele>
        <time>2016-08-23T09:31:23Z</time>
      </trkpt>
      <trkpt lat="45.80274" lon="4.56049">
        <ele>370</ele>
        <time>2016-08-23T09:31:24Z</time>
      </trkpt>
      <trkpt lat="45.80277" lon="4.56038">
        <ele>370</ele>
        <time>2016-08-23T09:31:27Z</time>
      </trkpt>
      <trkpt lat="45.80278" lon="4.56034">
        <ele>370</ele>
        <time>2016-08-23T09:31:28Z</time>
      </trkpt>
      <trkpt lat="45.8028" lon="4.56024">
        <ele>370</ele>
        <time>2016-08-23T09:31:31Z</time>
      </trkpt>
      <trkpt lat="45.80281" lon="4.5602">
        <ele>370</ele>
        <time>2016-08-23T09:31:32Z</time>
      </trkpt>
      <trkpt lat="45.80281" lon="4.5601">
        <ele>370</ele>
        <time>2016-08-23T09:31:35Z</time>
      </trkpt>
      <trkpt lat="45.80281" lon="4.56006">
        <ele>370</ele>
        <time>2016-08-23T09:31:36Z</time>
      </trkpt>
      <trkpt lat="45.80282" lon="4.55995">
        <ele>373</ele>
        <time>2016-08-23T09:31:39Z</time>
      </trkpt>
      <trkpt lat="45.80282" lon="4.55991">
        <ele>373</ele>
        <time>2016-08-23T09:31:40Z</time>
      </trkpt>
      <trkpt lat="45.80282" lon="4.5598">
        <ele>373</ele>
        <time>2016-08-23T09:31:43Z</time>
      </trkpt>
      <trkpt lat="45.80282" lon="4.55977">
        <ele>373</ele>
        <time>2016-08-23T09:31:44Z</time>
      </trkpt>
      <trkpt lat="45.80282" lon="4.55966">
        <ele>374</ele>
        <time>2016-08-23T09:31:47Z</time>
      </trkpt>
      <trkpt lat="45.80282" lon="4.55961">
        <ele>374</ele>
        <time>2016-08-23T09:31:48Z</time>
      </trkpt>
      <trkpt lat="45.80282" lon="4.55953">
        <ele>374</ele>
        <time>2016-08-23T09:31:50Z</time>
      </trkpt>
      <trkpt lat="45.80282" lon="4.55948">
        <ele>374</ele>
        <time>2016-08-23T09:31:51Z</time>
      </trkpt>
      <trkpt lat="45.80284" lon="4.55936">
        <ele>375</ele>
        <time>2016-08-23T09:31:54Z</time>
      </trkpt>
      <trkpt lat="45.80284" lon="4.55931">
        <ele>375</ele>
        <time>2016-08-23T09:31:55Z</time>
      </trkpt>
      <trkpt lat="45.80284" lon="4.5592">
        <ele>375</ele>
        <time>2016-08-23T09:31:58Z</time>
      </trkpt>
      <trkpt lat="45.80283" lon="4.55916">
        <ele>376</ele>
        <time>2016-08-23T09:31:59Z</time>
      </trkpt>
      <trkpt lat="45.80284" lon="4.55906">
        <ele>376</ele>
        <time>2016-08-23T09:32:01Z</time>
      </trkpt>
      <trkpt lat="45.80285" lon="4.55902">
        <ele>377</ele>
        <time>2016-08-23T09:32:02Z</time>
      </trkpt>
      <trkpt lat="45.80286" lon="4.55892">
        <ele>377</ele>
        <time>2016-08-23T09:32:05Z</time>
      </trkpt>
      <trkpt lat="45.80287" lon="4.55889">
        <ele>377</ele>
        <time>2016-08-23T09:32:06Z</time>
      </trkpt>
      <trkpt lat="45.80289" lon="4.55879">
        <ele>377</ele>
        <time>2016-08-23T09:32:09Z</time>
      </trkpt>
      <trkpt lat="45.8029" lon="4.55876">
        <ele>377</ele>
        <time>2016-08-23T09:32:10Z</time>
      </trkpt>
      <trkpt lat="45.80291" lon="4.55866">
        <ele>377</ele>
        <time>2016-08-23T09:32:13Z</time>
      </trkpt>
      <trkpt lat="45.80292" lon="4.55863">
        <ele>377</ele>
        <time>2016-08-23T09:32:14Z</time>
      </trkpt>
      <trkpt lat="45.80293" lon="4.55852">
        <ele>377</ele>
        <time>2016-08-23T09:32:17Z</time>
      </trkpt>
      <trkpt lat="45.80294" lon="4.55848">
        <ele>377</ele>
        <time>2016-08-23T09:32:18Z</time>
      </trkpt>
      <trkpt lat="45.80297" lon="4.55837">
        <ele>378</ele>
        <time>2016-08-23T09:32:21Z</time>
      </trkpt>
      <trkpt lat="45.80299" lon="4.55833">
        <ele>377</ele>
        <time>2016-08-23T09:32:22Z</time>
      </trkpt>
      <trkpt lat="45.80305" lon="4.55824">
        <ele>378</ele>
        <time>2016-08-23T09:32:25Z</time>
      </trkpt>
      <trkpt lat="45.80306" lon="4.5582">
        <ele>378</ele>
        <time>2016-08-23T09:32:26Z</time>
      </trkpt>
      <trkpt lat="45.80307" lon="4.55809">
        <ele>377</ele>
        <time>2016-08-23T09:32:29Z</time>
      </trkpt>
      <trkpt lat="45.80307" lon="4.55805">
        <ele>377</ele>
        <time>2016-08-23T09:32:30Z</time>
      </trkpt>
      <trkpt lat="45.80309" lon="4.55796">
        <ele>377</ele>
        <time>2016-08-23T09:32:32Z</time>
      </trkpt>
      <trkpt lat="45.8031" lon="4.55792">
        <ele>377</ele>
        <time>2016-08-23T09:32:33Z</time>
      </trkpt>
      <trkpt lat="45.80313" lon="4.55782">
        <ele>377</ele>
        <time>2016-08-23T09:32:36Z</time>
      </trkpt>
      <trkpt lat="45.80313" lon="4.55777">
        <ele>377</ele>
        <time>2016-08-23T09:32:37Z</time>
      </trkpt>
      <trkpt lat="45.80315" lon="4.55766">
        <ele>377</ele>
        <time>2016-08-23T09:32:40Z</time>
      </trkpt>
      <trkpt lat="45.80316" lon="4.55763">
        <ele>377</ele>
        <time>2016-08-23T09:32:41Z</time>
      </trkpt>
      <trkpt lat="45.80319" lon="4.55752">
        <ele>377</ele>
        <time>2016-08-23T09:32:44Z</time>
      </trkpt>
      <trkpt lat="45.80319" lon="4.55749">
        <ele>377</ele>
        <time>2016-08-23T09:32:45Z</time>
      </trkpt>
      <trkpt lat="45.80321" lon="4.55737">
        <ele>377</ele>
        <time>2016-08-23T09:32:48Z</time>
      </trkpt>
      <trkpt lat="45.80323" lon="4.55733">
        <ele>377</ele>
        <time>2016-08-23T09:32:49Z</time>
      </trkpt>
      <trkpt lat="45.80326" lon="4.55722">
        <ele>377</ele>
        <time>2016-08-23T09:32:52Z</time>
      </trkpt>
      <trkpt lat="45.80328" lon="4.55718">
        <ele>377</ele>
        <time>2016-08-23T09:32:53Z</time>
      </trkpt>
      <trkpt lat="45.80331" lon="4.55708">
        <ele>377</ele>
        <time>2016-08-23T09:32:56Z</time>
      </trkpt>
      <trkpt lat="45.80335" lon="4.55704">
        <ele>385</ele>
        <time>2016-08-23T09:32:57Z</time>
      </trkpt>
      <trkpt lat="45.8034" lon="4.55695">
        <ele>385</ele>
        <time>2016-08-23T09:33:00Z</time>
      </trkpt>
      <trkpt lat="45.80341" lon="4.55691">
        <ele>384</ele>
        <time>2016-08-23T09:33:01Z</time>
      </trkpt>
      <trkpt lat="45.80344" lon="4.55682">
        <ele>384</ele>
        <time>2016-08-23T09:33:04Z</time>
      </trkpt>
      <trkpt lat="45.80345" lon="4.55679">
        <ele>383</ele>
        <time>2016-08-23T09:33:05Z</time>
      </trkpt>
      <trkpt lat="45.80348" lon="4.55669">
        <ele>383</ele>
        <time>2016-08-23T09:33:08Z</time>
      </trkpt>
      <trkpt lat="45.8035" lon="4.55666">
        <ele>382</ele>
        <time>2016-08-23T09:33:09Z</time>
      </trkpt>
      <trkpt lat="45.80354" lon="4.55657">
        <ele>384</ele>
        <time>2016-08-23T09:33:12Z</time>
      </trkpt>
      <trkpt lat="45.80356" lon="4.55654">
        <ele>384</ele>
        <time>2016-08-23T09:33:13Z</time>
      </trkpt>
      <trkpt lat="45.8036" lon="4.55645">
        <ele>385</ele>
        <time>2016-08-23T09:33:16Z</time>
      </trkpt>
      <trkpt lat="45.8036" lon="4.55642">
        <ele>385</ele>
        <time>2016-08-23T09:33:17Z</time>
      </trkpt>
      <trkpt lat="45.80364" lon="4.55631">
        <ele>386</ele>
        <time>2016-08-23T09:33:20Z</time>
      </trkpt>
      <trkpt lat="45.80365" lon="4.55627">
        <ele>386</ele>
        <time>2016-08-23T09:33:21Z</time>
      </trkpt>
      <trkpt lat="45.80368" lon="4.5562">
        <ele>386</ele>
        <time>2016-08-23T09:33:23Z</time>
      </trkpt>
      <trkpt lat="45.80371" lon="4.55618">
        <ele>386</ele>
        <time>2016-08-23T09:33:24Z</time>
      </trkpt>
      <trkpt lat="45.80377" lon="4.55608">
        <ele>386</ele>
        <time>2016-08-23T09:33:27Z</time>
      </trkpt>
      <trkpt lat="45.80379" lon="4.55605">
        <ele>386</ele>
        <time>2016-08-23T09:33:28Z</time>
      </trkpt>
      <trkpt lat="45.80382" lon="4.55596">
        <ele>387</ele>
        <time>2016-08-23T09:33:31Z</time>
      </trkpt>
      <trkpt lat="45.80383" lon="4.55591">
        <ele>387</ele>
        <time>2016-08-23T09:33:32Z</time>
      </trkpt>
      <trkpt lat="45.80385" lon="4.55583">
        <ele>386</ele>
        <time>2016-08-23T09:33:34Z</time>
      </trkpt>
      <trkpt lat="45.80386" lon="4.55579">
        <ele>386</ele>
        <time>2016-08-23T09:33:35Z</time>
      </trkpt>
      <trkpt lat="45.80389" lon="4.55567">
        <ele>386</ele>
        <time>2016-08-23T09:33:38Z</time>
      </trkpt>
      <trkpt lat="45.80389" lon="4.55563">
        <ele>386</ele>
        <time>2016-08-23T09:33:39Z</time>
      </trkpt>
      <trkpt lat="45.80391" lon="4.55552">
        <ele>386</ele>
        <time>2016-08-23T09:33:42Z</time>
      </trkpt>
      <trkpt lat="45.80391" lon="4.55549">
        <ele>386</ele>
        <time>2016-08-23T09:33:43Z</time>
      </trkpt>
      <trkpt lat="45.80393" lon="4.55541">
        <ele>386</ele>
        <time>2016-08-23T09:33:45Z</time>
      </trkpt>
      <trkpt lat="45.80395" lon="4.55537">
        <ele>386</ele>
        <time>2016-08-23T09:33:46Z</time>
      </trkpt>
      <trkpt lat="45.80397" lon="4.55527">
        <ele>385</ele>
        <time>2016-08-23T09:33:49Z</time>
      </trkpt>
      <trkpt lat="45.80397" lon="4.55523">
        <ele>385</ele>
        <time>2016-08-23T09:33:50Z</time>
      </trkpt>
      <trkpt lat="45.80398" lon="4.55514">
        <ele>386</ele>
        <time>2016-08-23T09:33:52Z</time>
      </trkpt>
      <trkpt lat="45.80398" lon="4.55509">
        <ele>386</ele>
        <time>2016-08-23T09:33:53Z</time>
      </trkpt>
      <trkpt lat="45.80397" lon="4.55498">
        <ele>387</ele>
        <time>2016-08-23T09:33:55Z</time>
      </trkpt>
      <trkpt lat="45.80396" lon="4.55494">
        <ele>387</ele>
        <time>2016-08-23T09:33:56Z</time>
      </trkpt>
      <trkpt lat="45.80392" lon="4.55487">
        <ele>387</ele>
        <time>2016-08-23T09:33:58Z</time>
      </trkpt>
      <trkpt lat="45.80389" lon="4.55484">
        <ele>387</ele>
        <time>2016-08-23T09:33:59Z</time>
      </trkpt>
      <trkpt lat="45.8038" lon="4.5548">
        <ele>387</ele>
        <time>2016-08-23T09:34:01Z</time>
      </trkpt>
      <trkpt lat="45.80376" lon="4.55479">
        <ele>387</ele>
        <time>2016-08-23T09:34:02Z</time>
      </trkpt>
      <trkpt lat="45.80368" lon="4.55481">
        <ele>387</ele>
        <time>2016-08-23T09:34:05Z</time>
      </trkpt>
      <trkpt lat="45.80366" lon="4.55481">
        <ele>387</ele>
        <time>2016-08-23T09:34:06Z</time>
      </trkpt>
      <trkpt lat="45.80358" lon="4.55487">
        <ele>386</ele>
        <time>2016-08-23T09:34:09Z</time>
      </trkpt>
      <trkpt lat="45.80356" lon="4.55491">
        <ele>386</ele>
        <time>2016-08-23T09:34:10Z</time>
      </trkpt>
      <trkpt lat="45.80352" lon="4.55498">
        <ele>386</ele>
        <time>2016-08-23T09:34:12Z</time>
      </trkpt>
      <trkpt lat="45.8035" lon="4.55502">
        <ele>384</ele>
        <time>2016-08-23T09:34:13Z</time>
      </trkpt>
      <trkpt lat="45.80346" lon="4.55509">
        <ele>384</ele>
        <time>2016-08-23T09:34:15Z</time>
      </trkpt>
      <trkpt lat="45.80344" lon="4.55513">
        <ele>384</ele>
        <time>2016-08-23T09:34:16Z</time>
      </trkpt>
      <trkpt lat="45.8034" lon="4.55523">
        <ele>384</ele>
        <time>2016-08-23T09:34:19Z</time>
      </trkpt>
      <trkpt lat="45.80338" lon="4.55525">
        <ele>384</ele>
        <time>2016-08-23T09:34:20Z</time>
      </trkpt>
      <trkpt lat="45.80332" lon="4.55532">
        <ele>384</ele>
        <time>2016-08-23T09:34:23Z</time>
      </trkpt>
      <trkpt lat="45.80331" lon="4.55535">
        <ele>384</ele>
        <time>2016-08-23T09:34:24Z</time>
      </trkpt>
      <trkpt lat="45.80326" lon="4.55542">
        <ele>384</ele>
        <time>2016-08-23T09:34:27Z</time>
      </trkpt>
      <trkpt lat="45.80325" lon="4.55545">
        <ele>384</ele>
        <time>2016-08-23T09:34:28Z</time>
      </trkpt>
      <trkpt lat="45.80319" lon="4.55552">
        <ele>383</ele>
        <time>2016-08-23T09:34:31Z</time>
      </trkpt>
      <trkpt lat="45.80318" lon="4.55554">
        <ele>383</ele>
        <time>2016-08-23T09:34:32Z</time>
      </trkpt>
      <trkpt lat="45.80312" lon="4.55559">
        <ele>383</ele>
        <time>2016-08-23T09:34:35Z</time>
      </trkpt>
      <trkpt lat="45.80309" lon="4.55561">
        <ele>383</ele>
        <time>2016-08-23T09:34:36Z</time>
      </trkpt>
      <trkpt lat="45.80302" lon="4.55566">
        <ele>383</ele>
        <time>2016-08-23T09:34:39Z</time>
      </trkpt>
      <trkpt lat="45.803" lon="4.55568">
        <ele>384</ele>
        <time>2016-08-23T09:34:40Z</time>
      </trkpt>
      <trkpt lat="45.80293" lon="4.55572">
        <ele>384</ele>
        <time>2016-08-23T09:34:43Z</time>
      </trkpt>
      <trkpt lat="45.8029" lon="4.55573">
        <ele>384</ele>
        <time>2016-08-23T09:34:44Z</time>
      </trkpt>
      <trkpt lat="45.80284" lon="4.55568">
        <ele>384</ele>
        <time>2016-08-23T09:34:56Z</time>
      </trkpt>
      <trkpt lat="45.80282" lon="4.55566">
        <ele>384</ele>
        <time>2016-08-23T09:34:57Z</time>
      </trkpt>
      <trkpt lat="45.80279" lon="4.55556">
        <ele>384</ele>
        <time>2016-08-23T09:35:01Z</time>
      </trkpt>
      <trkpt lat="45.80278" lon="4.55553">
        <ele>384</ele>
        <time>2016-08-23T09:35:02Z</time>
      </trkpt>
      <trkpt lat="45.80276" lon="4.55541">
        <ele>385</ele>
        <time>2016-08-23T09:35:06Z</time>
      </trkpt>
      <trkpt lat="45.80275" lon="4.55538">
        <ele>385</ele>
        <time>2016-08-23T09:35:07Z</time>
      </trkpt>
      <trkpt lat="45.80274" lon="4.55527">
        <ele>385</ele>
        <time>2016-08-23T09:35:11Z</time>
      </trkpt>
      <trkpt lat="45.80273" lon="4.55523">
        <ele>385</ele>
        <time>2016-08-23T09:35:12Z</time>
      </trkpt>
      <trkpt lat="45.80271" lon="4.55511">
        <ele>386</ele>
        <time>2016-08-23T09:35:16Z</time>
      </trkpt>
      <trkpt lat="45.80271" lon="4.55508">
        <ele>386</ele>
        <time>2016-08-23T09:35:17Z</time>
      </trkpt>
      <trkpt lat="45.80271" lon="4.55499">
        <ele>389</ele>
        <time>2016-08-23T09:35:20Z</time>
      </trkpt>
      <trkpt lat="45.80271" lon="4.55495">
        <ele>389</ele>
        <time>2016-08-23T09:35:21Z</time>
      </trkpt>
      <trkpt lat="45.80272" lon="4.55482">
        <ele>389</ele>
        <time>2016-08-23T09:35:25Z</time>
      </trkpt>
      <trkpt lat="45.80272" lon="4.55479">
        <ele>389</ele>
        <time>2016-08-23T09:35:26Z</time>
      </trkpt>
      <trkpt lat="45.8027" lon="4.5547">
        <ele>390</ele>
        <time>2016-08-23T09:35:29Z</time>
      </trkpt>
      <trkpt lat="45.80269" lon="4.55467">
        <ele>390</ele>
        <time>2016-08-23T09:35:30Z</time>
      </trkpt>
      <trkpt lat="45.80265" lon="4.55458">
        <ele>391</ele>
        <time>2016-08-23T09:35:33Z</time>
      </trkpt>
      <trkpt lat="45.80264" lon="4.55454">
        <ele>391</ele>
        <time>2016-08-23T09:35:34Z</time>
      </trkpt>
      <trkpt lat="45.80261" lon="4.55446">
        <ele>392</ele>
        <time>2016-08-23T09:35:37Z</time>
      </trkpt>
      <trkpt lat="45.80259" lon="4.55444">
        <ele>392</ele>
        <time>2016-08-23T09:35:38Z</time>
      </trkpt>
      <trkpt lat="45.80253" lon="4.55438">
        <ele>393</ele>
        <time>2016-08-23T09:35:41Z</time>
      </trkpt>
      <trkpt lat="45.80251" lon="4.55435">
        <ele>393</ele>
        <time>2016-08-23T09:35:42Z</time>
      </trkpt>
      <trkpt lat="45.80244" lon="4.55429">
        <ele>395</ele>
        <time>2016-08-23T09:35:46Z</time>
      </trkpt>
      <trkpt lat="45.80241" lon="4.55428">
        <ele>395</ele>
        <time>2016-08-23T09:35:47Z</time>
      </trkpt>
      <trkpt lat="45.80232" lon="4.55426">
        <ele>395</ele>
        <time>2016-08-23T09:35:51Z</time>
      </trkpt>
      <trkpt lat="45.8023" lon="4.55427">
        <ele>395</ele>
        <time>2016-08-23T09:35:52Z</time>
      </trkpt>
      <trkpt lat="45.80224" lon="4.55428">
        <ele>395</ele>
        <time>2016-08-23T09:35:54Z</time>
      </trkpt>
      <trkpt lat="45.8022" lon="4.5543">
        <ele>395</ele>
        <time>2016-08-23T09:35:55Z</time>
      </trkpt>
      <trkpt lat="45.80212" lon="4.55433">
        <ele>395</ele>
        <time>2016-08-23T09:35:58Z</time>
      </trkpt>
      <trkpt lat="45.80209" lon="4.55434">
        <ele>395</ele>
        <time>2016-08-23T09:35:59Z</time>
      </trkpt>
      <trkpt lat="45.80203" lon="4.55437">
        <ele>395</ele>
        <time>2016-08-23T09:36:02Z</time>
      </trkpt>
      <trkpt lat="45.802" lon="4.55439">
        <ele>395</ele>
        <time>2016-08-23T09:36:03Z</time>
      </trkpt>
      <trkpt lat="45.80193" lon="4.55443">
        <ele>395</ele>
        <time>2016-08-23T09:36:06Z</time>
      </trkpt>
      <trkpt lat="45.8019" lon="4.55444">
        <ele>395</ele>
        <time>2016-08-23T09:36:07Z</time>
      </trkpt>
      <trkpt lat="45.80184" lon="4.55449">
        <ele>395</ele>
        <time>2016-08-23T09:36:10Z</time>
      </trkpt>
      <trkpt lat="45.80181" lon="4.5545">
        <ele>395</ele>
        <time>2016-08-23T09:36:11Z</time>
      </trkpt>
      <trkpt lat="45.80175" lon="4.55455">
        <ele>395</ele>
        <time>2016-08-23T09:36:14Z</time>
      </trkpt>
      <trkpt lat="45.80173" lon="4.55457">
        <ele>395</ele>
        <time>2016-08-23T09:36:15Z</time>
      </trkpt>
      <trkpt lat="45.80166" lon="4.55462">
        <ele>398</ele>
        <time>2016-08-23T09:36:18Z</time>
      </trkpt>
      <trkpt lat="45.80165" lon="4.55464">
        <ele>398</ele>
        <time>2016-08-23T09:36:19Z</time>
      </trkpt>
      <trkpt lat="45.80158" lon="4.55469">
        <ele>398</ele>
        <time>2016-08-23T09:36:23Z</time>
      </trkpt>
      <trkpt lat="45.80156" lon="4.5547">
        <ele>398</ele>
        <time>2016-08-23T09:36:24Z</time>
      </trkpt>
      <trkpt lat="45.80149" lon="4.55473">
        <ele>398</ele>
        <time>2016-08-23T09:36:27Z</time>
      </trkpt>
      <trkpt lat="45.80147" lon="4.55474">
        <ele>398</ele>
        <time>2016-08-23T09:36:28Z</time>
      </trkpt>
      <trkpt lat="45.8014" lon="4.55476">
        <ele>398</ele>
        <time>2016-08-23T09:36:31Z</time>
      </trkpt>
      <trkpt lat="45.80138" lon="4.55479">
        <ele>398</ele>
        <time>2016-08-23T09:36:32Z</time>
      </trkpt>
      <trkpt lat="45.8013" lon="4.55484">
        <ele>399</ele>
        <time>2016-08-23T09:36:36Z</time>
      </trkpt>
      <trkpt lat="45.80128" lon="4.55486">
        <ele>399</ele>
        <time>2016-08-23T09:36:37Z</time>
      </trkpt>
      <trkpt lat="45.8012" lon="4.55493">
        <ele>399</ele>
        <time>2016-08-23T09:36:41Z</time>
      </trkpt>
      <trkpt lat="45.80118" lon="4.55494">
        <ele>399</ele>
        <time>2016-08-23T09:36:42Z</time>
      </trkpt>
      <trkpt lat="45.80112" lon="4.555">
        <ele>399</ele>
        <time>2016-08-23T09:36:45Z</time>
      </trkpt>
      <trkpt lat="45.8011" lon="4.55501">
        <ele>397</ele>
        <time>2016-08-23T09:36:46Z</time>
      </trkpt>
      <trkpt lat="45.80104" lon="4.55506">
        <ele>397</ele>
        <time>2016-08-23T09:36:49Z</time>
      </trkpt>
      <trkpt lat="45.80102" lon="4.55508">
        <ele>398</ele>
        <time>2016-08-23T09:36:50Z</time>
      </trkpt>
      <trkpt lat="45.80096" lon="4.55513">
        <ele>398</ele>
        <time>2016-08-23T09:36:53Z</time>
      </trkpt>
      <trkpt lat="45.80093" lon="4.55515">
        <ele>398</ele>
        <time>2016-08-23T09:36:54Z</time>
      </trkpt>
      <trkpt lat="45.80087" lon="4.5552">
        <ele>398</ele>
        <time>2016-08-23T09:36:57Z</time>
      </trkpt>
      <trkpt lat="45.80085" lon="4.5552">
        <ele>398</ele>
        <time>2016-08-23T09:36:58Z</time>
      </trkpt>
      <trkpt lat="45.80077" lon="4.55526">
        <ele>401</ele>
        <time>2016-08-23T09:37:02Z</time>
      </trkpt>
      <trkpt lat="45.80075" lon="4.55528">
        <ele>401</ele>
        <time>2016-08-23T09:37:03Z</time>
      </trkpt>
      <trkpt lat="45.80068" lon="4.55535">
        <ele>401</ele>
        <time>2016-08-23T09:37:07Z</time>
      </trkpt>
      <trkpt lat="45.80066" lon="4.55536">
        <ele>401</ele>
        <time>2016-08-23T09:37:08Z</time>
      </trkpt>
      <trkpt lat="45.80061" lon="4.55541">
        <ele>401</ele>
        <time>2016-08-23T09:37:11Z</time>
      </trkpt>
      <trkpt lat="45.80058" lon="4.55543">
        <ele>401</ele>
        <time>2016-08-23T09:37:12Z</time>
      </trkpt>
      <trkpt lat="45.8005" lon="4.55547">
        <ele>401</ele>
        <time>2016-08-23T09:37:15Z</time>
      </trkpt>
      <trkpt lat="45.80047" lon="4.55548">
        <ele>401</ele>
        <time>2016-08-23T09:37:16Z</time>
      </trkpt>
      <trkpt lat="45.8004" lon="4.55553">
        <ele>402</ele>
        <time>2016-08-23T09:37:19Z</time>
      </trkpt>
      <trkpt lat="45.80038" lon="4.55554">
        <ele>402</ele>
        <time>2016-08-23T09:37:20Z</time>
      </trkpt>
      <trkpt lat="45.8003" lon="4.55561">
        <ele>402</ele>
        <time>2016-08-23T09:37:24Z</time>
      </trkpt>
      <trkpt lat="45.80028" lon="4.55563">
        <ele>402</ele>
        <time>2016-08-23T09:37:25Z</time>
      </trkpt>
      <trkpt lat="45.80021" lon="4.55566">
        <ele>402</ele>
        <time>2016-08-23T09:37:29Z</time>
      </trkpt>
      <trkpt lat="45.80018" lon="4.55568">
        <ele>402</ele>
        <time>2016-08-23T09:37:30Z</time>
      </trkpt>
      <trkpt lat="45.80012" lon="4.55574">
        <ele>402</ele>
        <time>2016-08-23T09:37:33Z</time>
      </trkpt>
      <trkpt lat="45.80009" lon="4.55577">
        <ele>403</ele>
        <time>2016-08-23T09:37:34Z</time>
      </trkpt>
      <trkpt lat="45.80001" lon="4.5558">
        <ele>403</ele>
        <time>2016-08-23T09:37:38Z</time>
      </trkpt>
      <trkpt lat="45.79998" lon="4.5558">
        <ele>404</ele>
        <time>2016-08-23T09:37:39Z</time>
      </trkpt>
      <trkpt lat="45.7999" lon="4.55581">
        <ele>405</ele>
        <time>2016-08-23T09:37:42Z</time>
      </trkpt>
      <trkpt lat="45.79988" lon="4.55581">
        <ele>405</ele>
        <time>2016-08-23T09:37:43Z</time>
      </trkpt>
      <trkpt lat="45.79981" lon="4.55582">
        <ele>406</ele>
        <time>2016-08-23T09:37:46Z</time>
      </trkpt>
      <trkpt lat="45.79978" lon="4.55583">
        <ele>406</ele>
        <time>2016-08-23T09:37:47Z</time>
      </trkpt>
      <trkpt lat="45.7997" lon="4.55584">
        <ele>405</ele>
        <time>2016-08-23T09:37:50Z</time>
      </trkpt>
      <trkpt lat="45.79968" lon="4.55584">
        <ele>405</ele>
        <time>2016-08-23T09:37:51Z</time>
      </trkpt>
      <trkpt lat="45.79959" lon="4.55584">
        <ele>405</ele>
        <time>2016-08-23T09:37:55Z</time>
      </trkpt>
      <trkpt lat="45.79957" lon="4.55584">
        <ele>405</ele>
        <time>2016-08-23T09:37:56Z</time>
      </trkpt>
      <trkpt lat="45.7995" lon="4.55584">
        <ele>406</ele>
        <time>2016-08-23T09:37:59Z</time>
      </trkpt>
      <trkpt lat="45.79947" lon="4.55584">
        <ele>406</ele>
        <time>2016-08-23T09:38:00Z</time>
      </trkpt>
      <trkpt lat="45.79939" lon="4.55583">
        <ele>408</ele>
        <time>2016-08-23T09:38:03Z</time>
      </trkpt>
      <trkpt lat="45.79936" lon="4.55583">
        <ele>408</ele>
        <time>2016-08-23T09:38:04Z</time>
      </trkpt>
      <trkpt lat="45.79928" lon="4.55581">
        <ele>409</ele>
        <time>2016-08-23T09:38:07Z</time>
      </trkpt>
      <trkpt lat="45.79925" lon="4.55581">
        <ele>409</ele>
        <time>2016-08-23T09:38:08Z</time>
      </trkpt>
      <trkpt lat="45.79918" lon="4.55582">
        <ele>409</ele>
        <time>2016-08-23T09:38:11Z</time>
      </trkpt>
      <trkpt lat="45.79916" lon="4.55581">
        <ele>409</ele>
        <time>2016-08-23T09:38:12Z</time>
      </trkpt>
      <trkpt lat="45.79908" lon="4.55583">
        <ele>410</ele>
        <time>2016-08-23T09:38:15Z</time>
      </trkpt>
      <trkpt lat="45.79906" lon="4.55583">
        <ele>410</ele>
        <time>2016-08-23T09:38:16Z</time>
      </trkpt>
      <trkpt lat="45.79897" lon="4.55585">
        <ele>409</ele>
        <time>2016-08-23T09:38:20Z</time>
      </trkpt>
      <trkpt lat="45.79894" lon="4.55584">
        <ele>409</ele>
        <time>2016-08-23T09:38:21Z</time>
      </trkpt>
      <trkpt lat="45.79887" lon="4.55585">
        <ele>410</ele>
        <time>2016-08-23T09:38:24Z</time>
      </trkpt>
      <trkpt lat="45.79884" lon="4.55585">
        <ele>410</ele>
        <time>2016-08-23T09:38:25Z</time>
      </trkpt>
      <trkpt lat="45.79876" lon="4.55582">
        <ele>412</ele>
        <time>2016-08-23T09:38:29Z</time>
      </trkpt>
      <trkpt lat="45.79874" lon="4.55581">
        <ele>412</ele>
        <time>2016-08-23T09:38:30Z</time>
      </trkpt>
      <trkpt lat="45.79867" lon="4.5558">
        <ele>412</ele>
        <time>2016-08-23T09:38:33Z</time>
      </trkpt>
      <trkpt lat="45.79865" lon="4.55581">
        <ele>412</ele>
        <time>2016-08-23T09:38:34Z</time>
      </trkpt>
      <trkpt lat="45.79857" lon="4.55581">
        <ele>412</ele>
        <time>2016-08-23T09:38:37Z</time>
      </trkpt>
      <trkpt lat="45.79855" lon="4.55581">
        <ele>412</ele>
        <time>2016-08-23T09:38:38Z</time>
      </trkpt>
      <trkpt lat="45.79847" lon="4.55581">
        <ele>412</ele>
        <time>2016-08-23T09:38:41Z</time>
      </trkpt>
      <trkpt lat="45.79845" lon="4.55581">
        <ele>412</ele>
        <time>2016-08-23T09:38:42Z</time>
      </trkpt>
      <trkpt lat="45.79836" lon="4.55581">
        <ele>412</ele>
        <time>2016-08-23T09:38:45Z</time>
      </trkpt>
      <trkpt lat="45.79834" lon="4.55581">
        <ele>412</ele>
        <time>2016-08-23T09:38:46Z</time>
      </trkpt>
      <trkpt lat="45.79827" lon="4.55581">
        <ele>413</ele>
        <time>2016-08-23T09:38:49Z</time>
      </trkpt>
      <trkpt lat="45.79824" lon="4.55581">
        <ele>413</ele>
        <time>2016-08-23T09:38:50Z</time>
      </trkpt>
      <trkpt lat="45.79816" lon="4.5558">
        <ele>414</ele>
        <time>2016-08-23T09:38:53Z</time>
      </trkpt>
      <trkpt lat="45.79813" lon="4.5558">
        <ele>414</ele>
        <time>2016-08-23T09:38:54Z</time>
      </trkpt>
      <trkpt lat="45.79806" lon="4.55581">
        <ele>415</ele>
        <time>2016-08-23T09:38:57Z</time>
      </trkpt>
      <trkpt lat="45.79803" lon="4.5558">
        <ele>415</ele>
        <time>2016-08-23T09:38:58Z</time>
      </trkpt>
      <trkpt lat="45.79795" lon="4.55578">
        <ele>415</ele>
        <time>2016-08-23T09:39:01Z</time>
      </trkpt>
      <trkpt lat="45.79792" lon="4.55578">
        <ele>415</ele>
        <time>2016-08-23T09:39:02Z</time>
      </trkpt>
      <trkpt lat="45.79784" lon="4.55579">
        <ele>415</ele>
        <time>2016-08-23T09:39:05Z</time>
      </trkpt>
      <trkpt lat="45.79781" lon="4.55578">
        <ele>415</ele>
        <time>2016-08-23T09:39:06Z</time>
      </trkpt>
      <trkpt lat="45.79773" lon="4.55576">
        <ele>416</ele>
        <time>2016-08-23T09:39:09Z</time>
      </trkpt>
      <trkpt lat="45.7977" lon="4.55576">
        <ele>416</ele>
        <time>2016-08-23T09:39:10Z</time>
      </trkpt>
      <trkpt lat="45.79762" lon="4.55577">
        <ele>416</ele>
        <time>2016-08-23T09:39:13Z</time>
      </trkpt>
      <trkpt lat="45.7976" lon="4.55576">
        <ele>416</ele>
        <time>2016-08-23T09:39:14Z</time>
      </trkpt>
      <trkpt lat="45.79752" lon="4.55576">
        <ele>416</ele>
        <time>2016-08-23T09:39:17Z</time>
      </trkpt>
      <trkpt lat="45.79749" lon="4.55576">
        <ele>417</ele>
        <time>2016-08-23T09:39:18Z</time>
      </trkpt>
      <trkpt lat="45.79741" lon="4.55575">
        <ele>417</ele>
        <time>2016-08-23T09:39:21Z</time>
      </trkpt>
      <trkpt lat="45.79738" lon="4.55574">
        <ele>417</ele>
        <time>2016-08-23T09:39:22Z</time>
      </trkpt>
      <trkpt lat="45.7973" lon="4.55573">
        <ele>417</ele>
        <time>2016-08-23T09:39:25Z</time>
      </trkpt>
      <trkpt lat="45.79727" lon="4.55573">
        <ele>417</ele>
        <time>2016-08-23T09:39:26Z</time>
      </trkpt>
      <trkpt lat="45.79719" lon="4.55572">
        <ele>418</ele>
        <time>2016-08-23T09:39:29Z</time>
      </trkpt>
      <trkpt lat="45.79716" lon="4.55572">
        <ele>418</ele>
        <time>2016-08-23T09:39:30Z</time>
      </trkpt>
      <trkpt lat="45.79709" lon="4.5557">
        <ele>418</ele>
        <time>2016-08-23T09:39:33Z</time>
      </trkpt>
      <trkpt lat="45.79706" lon="4.55569">
        <ele>418</ele>
        <time>2016-08-23T09:39:34Z</time>
      </trkpt>
      <trkpt lat="45.797" lon="4.55569">
        <ele>418</ele>
        <time>2016-08-23T09:39:36Z</time>
      </trkpt>
      <trkpt lat="45.79697" lon="4.55569">
        <ele>418</ele>
        <time>2016-08-23T09:39:37Z</time>
      </trkpt>
      <trkpt lat="45.79688" lon="4.55568">
        <ele>418</ele>
        <time>2016-08-23T09:39:40Z</time>
      </trkpt>
      <trkpt lat="45.79685" lon="4.55567">
        <ele>418</ele>
        <time>2016-08-23T09:39:41Z</time>
      </trkpt>
      <trkpt lat="45.79679" lon="4.55565">
        <ele>418</ele>
        <time>2016-08-23T09:39:43Z</time>
      </trkpt>
      <trkpt lat="45.79675" lon="4.55564">
        <ele>418</ele>
        <time>2016-08-23T09:39:44Z</time>
      </trkpt>
      <trkpt lat="45.79669" lon="4.55561">
        <ele>418</ele>
        <time>2016-08-23T09:39:46Z</time>
      </trkpt>
      <trkpt lat="45.79666" lon="4.5556">
        <ele>418</ele>
        <time>2016-08-23T09:39:47Z</time>
      </trkpt>
      <trkpt lat="45.7966" lon="4.55558">
        <ele>418</ele>
        <time>2016-08-23T09:39:49Z</time>
      </trkpt>
      <trkpt lat="45.79657" lon="4.55557">
        <ele>418</ele>
        <time>2016-08-23T09:39:50Z</time>
      </trkpt>
      <trkpt lat="45.79651" lon="4.55554">
        <ele>418</ele>
        <time>2016-08-23T09:39:52Z</time>
      </trkpt>
      <trkpt lat="45.79648" lon="4.55553">
        <ele>418</ele>
        <time>2016-08-23T09:39:53Z</time>
      </trkpt>
      <trkpt lat="45.79641" lon="4.5555">
        <ele>418</ele>
        <time>2016-08-23T09:39:56Z</time>
      </trkpt>
      <trkpt lat="45.79637" lon="4.5555">
        <ele>418</ele>
        <time>2016-08-23T09:39:57Z</time>
      </trkpt>
      <trkpt lat="45.7963" lon="4.55549">
        <ele>418</ele>
        <time>2016-08-23T09:39:59Z</time>
      </trkpt>
      <trkpt lat="45.79626" lon="4.55548">
        <ele>418</ele>
        <time>2016-08-23T09:40:00Z</time>
      </trkpt>
      <trkpt lat="45.79617" lon="4.55544">
        <ele>418</ele>
        <time>2016-08-23T09:40:02Z</time>
      </trkpt>
      <trkpt lat="45.79612" lon="4.55543">
        <ele>418</ele>
        <time>2016-08-23T09:40:03Z</time>
      </trkpt>
      <trkpt lat="45.79604" lon="4.5554">
        <ele>418</ele>
        <time>2016-08-23T09:40:06Z</time>
      </trkpt>
      <trkpt lat="45.796" lon="4.55536">
        <ele>418</ele>
        <time>2016-08-23T09:40:07Z</time>
      </trkpt>
      <trkpt lat="45.79595" lon="4.55527">
        <ele>418</ele>
        <time>2016-08-23T09:40:09Z</time>
      </trkpt>
      <trkpt lat="45.79592" lon="4.55521">
        <ele>418</ele>
        <time>2016-08-23T09:40:10Z</time>
      </trkpt>
      <trkpt lat="45.79589" lon="4.55509">
        <ele>418</ele>
        <time>2016-08-23T09:40:12Z</time>
      </trkpt>
      <trkpt lat="45.79589" lon="4.55504">
        <ele>418</ele>
        <time>2016-08-23T09:40:13Z</time>
      </trkpt>
      <trkpt lat="45.79587" lon="4.55493">
        <ele>419</ele>
        <time>2016-08-23T09:40:15Z</time>
      </trkpt>
      <trkpt lat="45.79585" lon="4.55487">
        <ele>419</ele>
        <time>2016-08-23T09:40:16Z</time>
      </trkpt>
      <trkpt lat="45.79582" lon="4.55477">
        <ele>418</ele>
        <time>2016-08-23T09:40:18Z</time>
      </trkpt>
      <trkpt lat="45.79579" lon="4.55471">
        <ele>418</ele>
        <time>2016-08-23T09:40:19Z</time>
      </trkpt>
      <trkpt lat="45.79575" lon="4.55461">
        <ele>418</ele>
        <time>2016-08-23T09:40:21Z</time>
      </trkpt>
      <trkpt lat="45.79573" lon="4.55456">
        <ele>418</ele>
        <time>2016-08-23T09:40:22Z</time>
      </trkpt>
      <trkpt lat="45.7957" lon="4.55451">
        <ele>418</ele>
        <time>2016-08-23T09:40:23Z</time>
      </trkpt>
      <trkpt lat="45.79566" lon="4.55446">
        <ele>418</ele>
        <time>2016-08-23T09:40:24Z</time>
      </trkpt>
      <trkpt lat="45.79563" lon="4.55442">
        <ele>418</ele>
        <time>2016-08-23T09:40:25Z</time>
      </trkpt>
      <trkpt lat="45.79559" lon="4.55438">
        <ele>418</ele>
        <time>2016-08-23T09:40:26Z</time>
      </trkpt>
      <trkpt lat="45.79555" lon="4.55433">
        <ele>418</ele>
        <time>2016-08-23T09:40:27Z</time>
      </trkpt>
      <trkpt lat="45.7955" lon="4.55429">
        <ele>418</ele>
        <time>2016-08-23T09:40:28Z</time>
      </trkpt>
      <trkpt lat="45.79545" lon="4.55424">
        <ele>418</ele>
        <time>2016-08-23T09:40:29Z</time>
      </trkpt>
      <trkpt lat="45.79539" lon="4.5542">
        <ele>418</ele>
        <time>2016-08-23T09:40:30Z</time>
      </trkpt>
      <trkpt lat="45.79534" lon="4.55416">
        <ele>420</ele>
        <time>2016-08-23T09:40:31Z</time>
      </trkpt>
      <trkpt lat="45.79528" lon="4.55413">
        <ele>420</ele>
        <time>2016-08-23T09:40:32Z</time>
      </trkpt>
      <trkpt lat="45.79523" lon="4.5541">
        <ele>420</ele>
        <time>2016-08-23T09:40:33Z</time>
      </trkpt>
      <trkpt lat="45.79517" lon="4.55407">
        <ele>420</ele>
        <time>2016-08-23T09:40:34Z</time>
      </trkpt>
      <trkpt lat="45.79512" lon="4.55404">
        <ele>419</ele>
        <time>2016-08-23T09:40:35Z</time>
      </trkpt>
      <trkpt lat="45.79507" lon="4.554">
        <ele>419</ele>
        <time>2016-08-23T09:40:36Z</time>
      </trkpt>
      <trkpt lat="45.79502" lon="4.55398">
        <ele>420</ele>
        <time>2016-08-23T09:40:37Z</time>
      </trkpt>
      <trkpt lat="45.79498" lon="4.55395">
        <ele>418</ele>
        <time>2016-08-23T09:40:38Z</time>
      </trkpt>
      <trkpt lat="45.7949" lon="4.55391">
        <ele>418</ele>
        <time>2016-08-23T09:40:40Z</time>
      </trkpt>
      <trkpt lat="45.79487" lon="4.55388">
        <ele>418</ele>
        <time>2016-08-23T09:40:41Z</time>
      </trkpt>
      <trkpt lat="45.79479" lon="4.55383">
        <ele>418</ele>
        <time>2016-08-23T09:40:43Z</time>
      </trkpt>
      <trkpt lat="45.79475" lon="4.55379">
        <ele>418</ele>
        <time>2016-08-23T09:40:44Z</time>
      </trkpt>
      <trkpt lat="45.79468" lon="4.55371">
        <ele>418</ele>
        <time>2016-08-23T09:40:46Z</time>
      </trkpt>
      <trkpt lat="45.79465" lon="4.55367">
        <ele>418</ele>
        <time>2016-08-23T09:40:47Z</time>
      </trkpt>
      <trkpt lat="45.7946" lon="4.55357">
        <ele>418</ele>
        <time>2016-08-23T09:40:49Z</time>
      </trkpt>
      <trkpt lat="45.79459" lon="4.55351">
        <ele>419</ele>
        <time>2016-08-23T09:40:50Z</time>
      </trkpt>
      <trkpt lat="45.79458" lon="4.5534">
        <ele>419</ele>
        <time>2016-08-23T09:40:52Z</time>
      </trkpt>
      <trkpt lat="45.79457" lon="4.55335">
        <ele>419</ele>
        <time>2016-08-23T09:40:53Z</time>
      </trkpt>
      <trkpt lat="45.79456" lon="4.55325">
        <ele>420</ele>
        <time>2016-08-23T09:40:55Z</time>
      </trkpt>
      <trkpt lat="45.79455" lon="4.5532">
        <ele>420</ele>
        <time>2016-08-23T09:40:56Z</time>
      </trkpt>
      <trkpt lat="45.79455" lon="4.55311">
        <ele>420</ele>
        <time>2016-08-23T09:40:58Z</time>
      </trkpt>
      <trkpt lat="45.79456" lon="4.55306">
        <ele>420</ele>
        <time>2016-08-23T09:40:59Z</time>
      </trkpt>
      <trkpt lat="45.79456" lon="4.55296">
        <ele>420</ele>
        <time>2016-08-23T09:41:01Z</time>
      </trkpt>
      <trkpt lat="45.79456" lon="4.5529">
        <ele>420</ele>
        <time>2016-08-23T09:41:02Z</time>
      </trkpt>
      <trkpt lat="45.79457" lon="4.5528">
        <ele>420</ele>
        <time>2016-08-23T09:41:04Z</time>
      </trkpt>
      <trkpt lat="45.79457" lon="4.55275">
        <ele>420</ele>
        <time>2016-08-23T09:41:05Z</time>
      </trkpt>
      <trkpt lat="45.79457" lon="4.55265">
        <ele>420</ele>
        <time>2016-08-23T09:41:07Z</time>
      </trkpt>
      <trkpt lat="45.79458" lon="4.55261">
        <ele>420</ele>
        <time>2016-08-23T09:41:08Z</time>
      </trkpt>
      <trkpt lat="45.79461" lon="4.55251">
        <ele>420</ele>
        <time>2016-08-23T09:41:10Z</time>
      </trkpt>
      <trkpt lat="45.79462" lon="4.55247">
        <ele>420</ele>
        <time>2016-08-23T09:41:11Z</time>
      </trkpt>
      <trkpt lat="45.79464" lon="4.55238">
        <ele>420</ele>
        <time>2016-08-23T09:41:13Z</time>
      </trkpt>
      <trkpt lat="45.79466" lon="4.55233">
        <ele>420</ele>
        <time>2016-08-23T09:41:14Z</time>
      </trkpt>
      <trkpt lat="45.7947" lon="4.55224">
        <ele>420</ele>
        <time>2016-08-23T09:41:16Z</time>
      </trkpt>
      <trkpt lat="45.79472" lon="4.55221">
        <ele>420</ele>
        <time>2016-08-23T09:41:17Z</time>
      </trkpt>
      <trkpt lat="45.79476" lon="4.55213">
        <ele>420</ele>
        <time>2016-08-23T09:41:19Z</time>
      </trkpt>
      <trkpt lat="45.79478" lon="4.55209">
        <ele>420</ele>
        <time>2016-08-23T09:41:20Z</time>
      </trkpt>
      <trkpt lat="45.79482" lon="4.55202">
        <ele>420</ele>
        <time>2016-08-23T09:41:22Z</time>
      </trkpt>
      <trkpt lat="45.79485" lon="4.55198">
        <ele>420</ele>
        <time>2016-08-23T09:41:23Z</time>
      </trkpt>
      <trkpt lat="45.79489" lon="4.55191">
        <ele>420</ele>
        <time>2016-08-23T09:41:25Z</time>
      </trkpt>
      <trkpt lat="45.79492" lon="4.55187">
        <ele>420</ele>
        <time>2016-08-23T09:41:26Z</time>
      </trkpt>
      <trkpt lat="45.79497" lon="4.55181">
        <ele>420</ele>
        <time>2016-08-23T09:41:28Z</time>
      </trkpt>
      <trkpt lat="45.79499" lon="4.55178">
        <ele>420</ele>
        <time>2016-08-23T09:41:29Z</time>
      </trkpt>
      <trkpt lat="45.79503" lon="4.55171">
        <ele>422</ele>
        <time>2016-08-23T09:41:32Z</time>
      </trkpt>
      <trkpt lat="45.79505" lon="4.55169">
        <ele>422</ele>
        <time>2016-08-23T09:41:33Z</time>
      </trkpt>
      <trkpt lat="45.7951" lon="4.55161">
        <ele>422</ele>
        <time>2016-08-23T09:41:36Z</time>
      </trkpt>
      <trkpt lat="45.79512" lon="4.55158">
        <ele>422</ele>
        <time>2016-08-23T09:41:37Z</time>
      </trkpt>
      <trkpt lat="45.79516" lon="4.55152">
        <ele>423</ele>
        <time>2016-08-23T09:41:39Z</time>
      </trkpt>
      <trkpt lat="45.79519" lon="4.55149">
        <ele>423</ele>
        <time>2016-08-23T09:41:40Z</time>
      </trkpt>
      <trkpt lat="45.79524" lon="4.55143">
        <ele>423</ele>
        <time>2016-08-23T09:41:42Z</time>
      </trkpt>
      <trkpt lat="45.79527" lon="4.5514">
        <ele>424</ele>
        <time>2016-08-23T09:41:43Z</time>
      </trkpt>
      <trkpt lat="45.79533" lon="4.55133">
        <ele>424</ele>
        <time>2016-08-23T09:41:45Z</time>
      </trkpt>
      <trkpt lat="45.79536" lon="4.55129">
        <ele>424</ele>
        <time>2016-08-23T09:41:46Z</time>
      </trkpt>
      <trkpt lat="45.79542" lon="4.55122">
        <ele>424</ele>
        <time>2016-08-23T09:41:48Z</time>
      </trkpt>
      <trkpt lat="45.79544" lon="4.55118">
        <ele>424</ele>
        <time>2016-08-23T09:41:49Z</time>
      </trkpt>
      <trkpt lat="45.7955" lon="4.55109">
        <ele>424</ele>
        <time>2016-08-23T09:41:51Z</time>
      </trkpt>
      <trkpt lat="45.79552" lon="4.55106">
        <ele>425</ele>
        <time>2016-08-23T09:41:52Z</time>
      </trkpt>
      <trkpt lat="45.79557" lon="4.55098">
        <ele>425</ele>
        <time>2016-08-23T09:41:54Z</time>
      </trkpt>
      <trkpt lat="45.7956" lon="4.55094">
        <ele>425</ele>
        <time>2016-08-23T09:41:55Z</time>
      </trkpt>
      <trkpt lat="45.79565" lon="4.55085">
        <ele>426</ele>
        <time>2016-08-23T09:41:57Z</time>
      </trkpt>
      <trkpt lat="45.79568" lon="4.55081">
        <ele>424</ele>
        <time>2016-08-23T09:41:58Z</time>
      </trkpt>
      <trkpt lat="45.79573" lon="4.55073">
        <ele>424</ele>
        <time>2016-08-23T09:42:00Z</time>
      </trkpt>
      <trkpt lat="45.79576" lon="4.55068">
        <ele>424</ele>
        <time>2016-08-23T09:42:01Z</time>
      </trkpt>
      <trkpt lat="45.7958" lon="4.55059">
        <ele>423</ele>
        <time>2016-08-23T09:42:03Z</time>
      </trkpt>
      <trkpt lat="45.79582" lon="4.55055">
        <ele>422</ele>
        <time>2016-08-23T09:42:04Z</time>
      </trkpt>
      <trkpt lat="45.79588" lon="4.55045">
        <ele>429</ele>
        <time>2016-08-23T09:42:07Z</time>
      </trkpt>
      <trkpt lat="45.7959" lon="4.55041">
        <ele>429</ele>
        <time>2016-08-23T09:42:08Z</time>
      </trkpt>
      <trkpt lat="45.79595" lon="4.55033">
        <ele>429</ele>
        <time>2016-08-23T09:42:10Z</time>
      </trkpt>
      <trkpt lat="45.79598" lon="4.55028">
        <ele>429</ele>
        <time>2016-08-23T09:42:11Z</time>
      </trkpt>
      <trkpt lat="45.79604" lon="4.55019">
        <ele>428</ele>
        <time>2016-08-23T09:42:13Z</time>
      </trkpt>
      <trkpt lat="45.79606" lon="4.55014">
        <ele>428</ele>
        <time>2016-08-23T09:42:14Z</time>
      </trkpt>
      <trkpt lat="45.7961" lon="4.55003">
        <ele>429</ele>
        <time>2016-08-23T09:42:16Z</time>
      </trkpt>
      <trkpt lat="45.79613" lon="4.54998">
        <ele>426</ele>
        <time>2016-08-23T09:42:17Z</time>
      </trkpt>
      <trkpt lat="45.79617" lon="4.54987">
        <ele>426</ele>
        <time>2016-08-23T09:42:19Z</time>
      </trkpt>
      <trkpt lat="45.79619" lon="4.54982">
        <ele>426</ele>
        <time>2016-08-23T09:42:20Z</time>
      </trkpt>
      <trkpt lat="45.79622" lon="4.54971">
        <ele>426</ele>
        <time>2016-08-23T09:42:22Z</time>
      </trkpt>
      <trkpt lat="45.79624" lon="4.54966">
        <ele>426</ele>
        <time>2016-08-23T09:42:23Z</time>
      </trkpt>
      <trkpt lat="45.79627" lon="4.54956">
        <ele>426</ele>
        <time>2016-08-23T09:42:25Z</time>
      </trkpt>
      <trkpt lat="45.79628" lon="4.54952">
        <ele>426</ele>
        <time>2016-08-23T09:42:26Z</time>
      </trkpt>
      <trkpt lat="45.79631" lon="4.54942">
        <ele>426</ele>
        <time>2016-08-23T09:42:28Z</time>
      </trkpt>
      <trkpt lat="45.79634" lon="4.54937">
        <ele>426</ele>
        <time>2016-08-23T09:42:29Z</time>
      </trkpt>
      <trkpt lat="45.79637" lon="4.54927">
        <ele>427</ele>
        <time>2016-08-23T09:42:31Z</time>
      </trkpt>
      <trkpt lat="45.79639" lon="4.54921">
        <ele>427</ele>
        <time>2016-08-23T09:42:32Z</time>
      </trkpt>
      <trkpt lat="45.79643" lon="4.54912">
        <ele>425</ele>
        <time>2016-08-23T09:42:34Z</time>
      </trkpt>
      <trkpt lat="45.79644" lon="4.54907">
        <ele>425</ele>
        <time>2016-08-23T09:42:35Z</time>
      </trkpt>
      <trkpt lat="45.79648" lon="4.54898">
        <ele>424</ele>
        <time>2016-08-23T09:42:37Z</time>
      </trkpt>
      <trkpt lat="45.7965" lon="4.54894">
        <ele>424</ele>
        <time>2016-08-23T09:42:38Z</time>
      </trkpt>
      <trkpt lat="45.79655" lon="4.54888">
        <ele>424</ele>
        <time>2016-08-23T09:42:40Z</time>
      </trkpt>
      <trkpt lat="45.79657" lon="4.54885">
        <ele>424</ele>
        <time>2016-08-23T09:42:41Z</time>
      </trkpt>
      <trkpt lat="45.79664" lon="4.54877">
        <ele>424</ele>
        <time>2016-08-23T09:42:44Z</time>
      </trkpt>
      <trkpt lat="45.79667" lon="4.54874">
        <ele>432</ele>
        <time>2016-08-23T09:42:45Z</time>
      </trkpt>
      <trkpt lat="45.79673" lon="4.54869">
        <ele>432</ele>
        <time>2016-08-23T09:42:47Z</time>
      </trkpt>
      <trkpt lat="45.79676" lon="4.54866">
        <ele>432</ele>
        <time>2016-08-23T09:42:48Z</time>
      </trkpt>
      <trkpt lat="45.79682" lon="4.54861">
        <ele>432</ele>
        <time>2016-08-23T09:42:50Z</time>
      </trkpt>
      <trkpt lat="45.79685" lon="4.54858">
        <ele>432</ele>
        <time>2016-08-23T09:42:51Z</time>
      </trkpt>
      <trkpt lat="45.79692" lon="4.5485">
        <ele>432</ele>
        <time>2016-08-23T09:42:53Z</time>
      </trkpt>
      <trkpt lat="45.79695" lon="4.54847">
        <ele>432</ele>
        <time>2016-08-23T09:42:54Z</time>
      </trkpt>
      <trkpt lat="45.79701" lon="4.54841">
        <ele>432</ele>
        <time>2016-08-23T09:42:56Z</time>
      </trkpt>
      <trkpt lat="45.79704" lon="4.54837">
        <ele>432</ele>
        <time>2016-08-23T09:42:57Z</time>
      </trkpt>
      <trkpt lat="45.7971" lon="4.54831">
        <ele>429</ele>
        <time>2016-08-23T09:42:59Z</time>
      </trkpt>
      <trkpt lat="45.79713" lon="4.54827">
        <ele>429</ele>
        <time>2016-08-23T09:43:00Z</time>
      </trkpt>
      <trkpt lat="45.7972" lon="4.5482">
        <ele>429</ele>
        <time>2016-08-23T09:43:02Z</time>
      </trkpt>
      <trkpt lat="45.79724" lon="4.54817">
        <ele>429</ele>
        <time>2016-08-23T09:43:03Z</time>
      </trkpt>
      <trkpt lat="45.7973" lon="4.54812">
        <ele>430</ele>
        <time>2016-08-23T09:43:05Z</time>
      </trkpt>
      <trkpt lat="45.79733" lon="4.54809">
        <ele>430</ele>
        <time>2016-08-23T09:43:06Z</time>
      </trkpt>
      <trkpt lat="45.79739" lon="4.54804">
        <ele>430</ele>
        <time>2016-08-23T09:43:08Z</time>
      </trkpt>
      <trkpt lat="45.79742" lon="4.548">
        <ele>429</ele>
        <time>2016-08-23T09:43:09Z</time>
      </trkpt>
      <trkpt lat="45.79745" lon="4.54796">
        <ele>429</ele>
        <time>2016-08-23T09:43:10Z</time>
      </trkpt>
      <trkpt lat="45.79749" lon="4.54791">
        <ele>429</ele>
        <time>2016-08-23T09:43:11Z</time>
      </trkpt>
      <trkpt lat="45.79752" lon="4.54786">
        <ele>434</ele>
        <time>2016-08-23T09:43:12Z</time>
      </trkpt>
      <trkpt lat="45.79756" lon="4.54782">
        <ele>433</ele>
        <time>2016-08-23T09:43:13Z</time>
      </trkpt>
      <trkpt lat="45.7976" lon="4.54778">
        <ele>433</ele>
        <time>2016-08-23T09:43:14Z</time>
      </trkpt>
      <trkpt lat="45.79764" lon="4.54774">
        <ele>433</ele>
        <time>2016-08-23T09:43:15Z</time>
      </trkpt>
      <trkpt lat="45.79768" lon="4.54771">
        <ele>433</ele>
        <time>2016-08-23T09:43:16Z</time>
      </trkpt>
      <trkpt lat="45.79772" lon="4.54767">
        <ele>433</ele>
        <time>2016-08-23T09:43:17Z</time>
      </trkpt>
      <trkpt lat="45.79776" lon="4.54763">
        <ele>433</ele>
        <time>2016-08-23T09:43:18Z</time>
      </trkpt>
      <trkpt lat="45.7978" lon="4.54758">
        <ele>434</ele>
        <time>2016-08-23T09:43:19Z</time>
      </trkpt>
      <trkpt lat="45.79784" lon="4.54754">
        <ele>434</ele>
        <time>2016-08-23T09:43:20Z</time>
      </trkpt>
      <trkpt lat="45.79788" lon="4.54748">
        <ele>431</ele>
        <time>2016-08-23T09:43:21Z</time>
      </trkpt>
      <trkpt lat="45.79793" lon="4.54743">
        <ele>431</ele>
        <time>2016-08-23T09:43:22Z</time>
      </trkpt>
      <trkpt lat="45.79796" lon="4.54736">
        <ele>432</ele>
        <time>2016-08-23T09:43:23Z</time>
      </trkpt>
      <trkpt lat="45.79801" lon="4.54726">
        <ele>432</ele>
        <time>2016-08-23T09:43:25Z</time>
      </trkpt>
      <trkpt lat="45.79802" lon="4.54724">
        <ele>432</ele>
        <time>2016-08-23T09:43:26Z</time>
      </trkpt>
      <trkpt lat="45.79802" lon="4.54723">
        <ele>432</ele>
        <time>2016-08-23T09:43:27Z</time>
      </trkpt>
      <trkpt lat="45.798" lon="4.54722">
        <ele>432</ele>
        <time>2016-08-23T09:43:44Z</time>
      </trkpt>
      <trkpt lat="45.79799" lon="4.54722">
        <ele>432</ele>
        <time>2016-08-23T09:43:45Z</time>
      </trkpt>
      <trkpt lat="45.79801" lon="4.54711">
        <ele>431</ele>
        <time>2016-08-23T09:44:11Z</time>
      </trkpt>
      <trkpt lat="45.79802" lon="4.54709">
        <ele>431</ele>
        <time>2016-08-23T09:44:12Z</time>
      </trkpt>
      <trkpt lat="45.79806" lon="4.54703">
        <ele>431</ele>
        <time>2016-08-23T09:44:13Z</time>
      </trkpt>
      <trkpt lat="45.7981" lon="4.54697">
        <ele>431</ele>
        <time>2016-08-23T09:44:14Z</time>
      </trkpt>
      <trkpt lat="45.7981" lon="4.5469">
        <ele>431</ele>
        <time>2016-08-23T09:44:15Z</time>
      </trkpt>
      <trkpt lat="45.79809" lon="4.54683">
        <ele>431</ele>
        <time>2016-08-23T09:44:16Z</time>
      </trkpt>
      <trkpt lat="45.79807" lon="4.54675">
        <ele>431</ele>
        <time>2016-08-23T09:44:17Z</time>
      </trkpt>
      <trkpt lat="45.79805" lon="4.54668">
        <ele>431</ele>
        <time>2016-08-23T09:44:18Z</time>
      </trkpt>
      <trkpt lat="45.79802" lon="4.54657">
        <ele>432</ele>
        <time>2016-08-23T09:44:20Z</time>
      </trkpt>
      <trkpt lat="45.79799" lon="4.54653">
        <ele>432</ele>
        <time>2016-08-23T09:44:21Z</time>
      </trkpt>
      <trkpt lat="45.79792" lon="4.54646">
        <ele>432</ele>
        <time>2016-08-23T09:44:23Z</time>
      </trkpt>
      <trkpt lat="45.79789" lon="4.54643">
        <ele>432</ele>
        <time>2016-08-23T09:44:24Z</time>
      </trkpt>
      <trkpt lat="45.79783" lon="4.54638">
        <ele>432</ele>
        <time>2016-08-23T09:44:26Z</time>
      </trkpt>
      <trkpt lat="45.7978" lon="4.54635">
        <ele>432</ele>
        <time>2016-08-23T09:44:27Z</time>
      </trkpt>
      <trkpt lat="45.79773" lon="4.54628">
        <ele>433</ele>
        <time>2016-08-23T09:44:30Z</time>
      </trkpt>
      <trkpt lat="45.7977" lon="4.54627">
        <ele>433</ele>
        <time>2016-08-23T09:44:31Z</time>
      </trkpt>
      <trkpt lat="45.79763" lon="4.54621">
        <ele>433</ele>
        <time>2016-08-23T09:44:34Z</time>
      </trkpt>
      <trkpt lat="45.79761" lon="4.54619">
        <ele>433</ele>
        <time>2016-08-23T09:44:35Z</time>
      </trkpt>
      <trkpt lat="45.79756" lon="4.54616">
        <ele>433</ele>
        <time>2016-08-23T09:44:37Z</time>
      </trkpt>
      <trkpt lat="45.79752" lon="4.54614">
        <ele>433</ele>
        <time>2016-08-23T09:44:38Z</time>
      </trkpt>
      <trkpt lat="45.79747" lon="4.54608">
        <ele>432</ele>
        <time>2016-08-23T09:44:40Z</time>
      </trkpt>
      <trkpt lat="45.79745" lon="4.54606">
        <ele>432</ele>
        <time>2016-08-23T09:44:41Z</time>
      </trkpt>
      <trkpt lat="45.79737" lon="4.54602">
        <ele>433</ele>
        <time>2016-08-23T09:44:44Z</time>
      </trkpt>
      <trkpt lat="45.79731" lon="4.54605">
        <ele>432</ele>
        <time>2016-08-23T09:44:45Z</time>
      </trkpt>
      <trkpt lat="45.79724" lon="4.54598">
        <ele>432</ele>
        <time>2016-08-23T09:44:48Z</time>
      </trkpt>
      <trkpt lat="45.79722" lon="4.54595">
        <ele>432</ele>
        <time>2016-08-23T09:44:49Z</time>
      </trkpt>
      <trkpt lat="45.79717" lon="4.54589">
        <ele>432</ele>
        <time>2016-08-23T09:44:51Z</time>
      </trkpt>
      <trkpt lat="45.79715" lon="4.54587">
        <ele>432</ele>
        <time>2016-08-23T09:44:52Z</time>
      </trkpt>
      <trkpt lat="45.79708" lon="4.54581">
        <ele>438</ele>
        <time>2016-08-23T09:44:55Z</time>
      </trkpt>
      <trkpt lat="45.79705" lon="4.54577">
        <ele>438</ele>
        <time>2016-08-23T09:44:56Z</time>
      </trkpt>
      <trkpt lat="45.797" lon="4.54577">
        <ele>438</ele>
        <time>2016-08-23T09:44:58Z</time>
      </trkpt>
      <trkpt lat="45.79696" lon="4.5458">
        <ele>437</ele>
        <time>2016-08-23T09:44:59Z</time>
      </trkpt>
      <trkpt lat="45.79688" lon="4.54574">
        <ele>437</ele>
        <time>2016-08-23T09:45:02Z</time>
      </trkpt>
      <trkpt lat="45.79684" lon="4.54574">
        <ele>437</ele>
        <time>2016-08-23T09:45:03Z</time>
      </trkpt>
      <trkpt lat="45.79676" lon="4.5457">
        <ele>437</ele>
        <time>2016-08-23T09:45:07Z</time>
      </trkpt>
      <trkpt lat="45.79674" lon="4.54569">
        <ele>437</ele>
        <time>2016-08-23T09:45:08Z</time>
      </trkpt>
      <trkpt lat="45.79667" lon="4.54563">
        <ele>436</ele>
        <time>2016-08-23T09:45:11Z</time>
      </trkpt>
      <trkpt lat="45.79665" lon="4.54562">
        <ele>436</ele>
        <time>2016-08-23T09:45:12Z</time>
      </trkpt>
      <trkpt lat="45.79658" lon="4.54558">
        <ele>437</ele>
        <time>2016-08-23T09:45:15Z</time>
      </trkpt>
      <trkpt lat="45.79656" lon="4.54557">
        <ele>437</ele>
        <time>2016-08-23T09:45:16Z</time>
      </trkpt>
      <trkpt lat="45.79649" lon="4.54554">
        <ele>437</ele>
        <time>2016-08-23T09:45:19Z</time>
      </trkpt>
      <trkpt lat="45.79647" lon="4.54552">
        <ele>437</ele>
        <time>2016-08-23T09:45:20Z</time>
      </trkpt>
      <trkpt lat="45.79642" lon="4.54545">
        <ele>438</ele>
        <time>2016-08-23T09:45:23Z</time>
      </trkpt>
      <trkpt lat="45.7964" lon="4.54543">
        <ele>438</ele>
        <time>2016-08-23T09:45:24Z</time>
      </trkpt>
      <trkpt lat="45.79634" lon="4.54534">
        <ele>438</ele>
        <time>2016-08-23T09:45:28Z</time>
      </trkpt>
      <trkpt lat="45.79633" lon="4.54532">
        <ele>438</ele>
        <time>2016-08-23T09:45:29Z</time>
      </trkpt>
      <trkpt lat="45.79628" lon="4.54524">
        <ele>438</ele>
        <time>2016-08-23T09:45:32Z</time>
      </trkpt>
      <trkpt lat="45.79626" lon="4.5452">
        <ele>439</ele>
        <time>2016-08-23T09:45:33Z</time>
      </trkpt>
      <trkpt lat="45.7962" lon="4.54511">
        <ele>439</ele>
        <time>2016-08-23T09:45:36Z</time>
      </trkpt>
      <trkpt lat="45.79619" lon="4.54509">
        <ele>439</ele>
        <time>2016-08-23T09:45:37Z</time>
      </trkpt>
      <trkpt lat="45.79616" lon="4.54498">
        <ele>444</ele>
        <time>2016-08-23T09:45:42Z</time>
      </trkpt>
      <trkpt lat="45.79614" lon="4.54495">
        <ele>444</ele>
        <time>2016-08-23T09:45:43Z</time>
      </trkpt>
      <trkpt lat="45.79607" lon="4.54487">
        <ele>444</ele>
        <time>2016-08-23T09:45:47Z</time>
      </trkpt>
      <trkpt lat="45.79605" lon="4.54485">
        <ele>444</ele>
        <time>2016-08-23T09:45:48Z</time>
      </trkpt>
      <trkpt lat="45.79599" lon="4.54478">
        <ele>444</ele>
        <time>2016-08-23T09:45:52Z</time>
      </trkpt>
      <trkpt lat="45.79597" lon="4.54475">
        <ele>445</ele>
        <time>2016-08-23T09:45:53Z</time>
      </trkpt>
      <trkpt lat="45.79591" lon="4.54466">
        <ele>445</ele>
        <time>2016-08-23T09:45:57Z</time>
      </trkpt>
      <trkpt lat="45.7959" lon="4.54464">
        <ele>445</ele>
        <time>2016-08-23T09:45:58Z</time>
      </trkpt>
      <trkpt lat="45.79585" lon="4.54455">
        <ele>446</ele>
        <time>2016-08-23T09:46:02Z</time>
      </trkpt>
      <trkpt lat="45.79583" lon="4.54452">
        <ele>444</ele>
        <time>2016-08-23T09:46:03Z</time>
      </trkpt>
      <trkpt lat="45.79577" lon="4.54446">
        <ele>445</ele>
        <time>2016-08-23T09:46:06Z</time>
      </trkpt>
      <trkpt lat="45.79575" lon="4.54444">
        <ele>445</ele>
        <time>2016-08-23T09:46:07Z</time>
      </trkpt>
      <trkpt lat="45.79568" lon="4.54436">
        <ele>445</ele>
        <time>2016-08-23T09:46:12Z</time>
      </trkpt>
      <trkpt lat="45.79567" lon="4.54434">
        <ele>446</ele>
        <time>2016-08-23T09:46:13Z</time>
      </trkpt>
      <trkpt lat="45.7956" lon="4.54427">
        <ele>446</ele>
        <time>2016-08-23T09:46:17Z</time>
      </trkpt>
      <trkpt lat="45.79558" lon="4.54425">
        <ele>446</ele>
        <time>2016-08-23T09:46:18Z</time>
      </trkpt>
      <trkpt lat="45.79554" lon="4.54416">
        <ele>451</ele>
        <time>2016-08-23T09:46:22Z</time>
      </trkpt>
      <trkpt lat="45.79553" lon="4.54414">
        <ele>451</ele>
        <time>2016-08-23T09:46:23Z</time>
      </trkpt>
      <trkpt lat="45.79547" lon="4.54408">
        <ele>451</ele>
        <time>2016-08-23T09:46:27Z</time>
      </trkpt>
      <trkpt lat="45.79545" lon="4.54406">
        <ele>450</ele>
        <time>2016-08-23T09:46:28Z</time>
      </trkpt>
      <trkpt lat="45.79538" lon="4.54399">
        <ele>450</ele>
        <time>2016-08-23T09:46:32Z</time>
      </trkpt>
      <trkpt lat="45.79537" lon="4.54397">
        <ele>451</ele>
        <time>2016-08-23T09:46:33Z</time>
      </trkpt>
      <trkpt lat="45.79532" lon="4.54389">
        <ele>451</ele>
        <time>2016-08-23T09:46:37Z</time>
      </trkpt>
      <trkpt lat="45.7953" lon="4.54387">
        <ele>451</ele>
        <time>2016-08-23T09:46:38Z</time>
      </trkpt>
      <trkpt lat="45.79525" lon="4.54377">
        <ele>451</ele>
        <time>2016-08-23T09:46:42Z</time>
      </trkpt>
      <trkpt lat="45.79524" lon="4.54375">
        <ele>451</ele>
        <time>2016-08-23T09:46:43Z</time>
      </trkpt>
      <trkpt lat="45.79518" lon="4.5437">
        <ele>452</ele>
        <time>2016-08-23T09:46:46Z</time>
      </trkpt>
      <trkpt lat="45.79516" lon="4.54368">
        <ele>452</ele>
        <time>2016-08-23T09:46:47Z</time>
      </trkpt>
      <trkpt lat="45.7951" lon="4.54362">
        <ele>452</ele>
        <time>2016-08-23T09:46:50Z</time>
      </trkpt>
      <trkpt lat="45.79507" lon="4.5436">
        <ele>452</ele>
        <time>2016-08-23T09:46:51Z</time>
      </trkpt>
      <trkpt lat="45.795" lon="4.54356">
        <ele>452</ele>
        <time>2016-08-23T09:46:54Z</time>
      </trkpt>
      <trkpt lat="45.79498" lon="4.54355">
        <ele>452</ele>
        <time>2016-08-23T09:46:55Z</time>
      </trkpt>
      <trkpt lat="45.7949" lon="4.54352">
        <ele>452</ele>
        <time>2016-08-23T09:46:58Z</time>
      </trkpt>
      <trkpt lat="45.79487" lon="4.54352">
        <ele>452</ele>
        <time>2016-08-23T09:46:59Z</time>
      </trkpt>
      <trkpt lat="45.7948" lon="4.54349">
        <ele>452</ele>
        <time>2016-08-23T09:47:02Z</time>
      </trkpt>
      <trkpt lat="45.79478" lon="4.54348">
        <ele>452</ele>
        <time>2016-08-23T09:47:03Z</time>
      </trkpt>
      <trkpt lat="45.7947" lon="4.54348">
        <ele>453</ele>
        <time>2016-08-23T09:47:06Z</time>
      </trkpt>
      <trkpt lat="45.79467" lon="4.54348">
        <ele>453</ele>
        <time>2016-08-23T09:47:07Z</time>
      </trkpt>
      <trkpt lat="45.79458" lon="4.54349">
        <ele>453</ele>
        <time>2016-08-23T09:47:10Z</time>
      </trkpt>
      <trkpt lat="45.79455" lon="4.5435">
        <ele>453</ele>
        <time>2016-08-23T09:47:11Z</time>
      </trkpt>
      <trkpt lat="45.79447" lon="4.54352">
        <ele>453</ele>
        <time>2016-08-23T09:47:14Z</time>
      </trkpt>
      <trkpt lat="45.79445" lon="4.54354">
        <ele>453</ele>
        <time>2016-08-23T09:47:15Z</time>
      </trkpt>
      <trkpt lat="45.79438" lon="4.54356">
        <ele>453</ele>
        <time>2016-08-23T09:47:18Z</time>
      </trkpt>
      <trkpt lat="45.79435" lon="4.54357">
        <ele>453</ele>
        <time>2016-08-23T09:47:19Z</time>
      </trkpt>
      <trkpt lat="45.79428" lon="4.54361">
        <ele>453</ele>
        <time>2016-08-23T09:47:22Z</time>
      </trkpt>
      <trkpt lat="45.79426" lon="4.54362">
        <ele>453</ele>
        <time>2016-08-23T09:47:23Z</time>
      </trkpt>
      <trkpt lat="45.7942" lon="4.54363">
        <ele>453</ele>
        <time>2016-08-23T09:47:26Z</time>
      </trkpt>
      <trkpt lat="45.79417" lon="4.54364">
        <ele>453</ele>
        <time>2016-08-23T09:47:27Z</time>
      </trkpt>
      <trkpt lat="45.7941" lon="4.54367">
        <ele>456</ele>
        <time>2016-08-23T09:47:30Z</time>
      </trkpt>
      <trkpt lat="45.79408" lon="4.54368">
        <ele>456</ele>
        <time>2016-08-23T09:47:31Z</time>
      </trkpt>
      <trkpt lat="45.79401" lon="4.54372">
        <ele>456</ele>
        <time>2016-08-23T09:47:34Z</time>
      </trkpt>
      <trkpt lat="45.79399" lon="4.54373">
        <ele>456</ele>
        <time>2016-08-23T09:47:35Z</time>
      </trkpt>
      <trkpt lat="45.79392" lon="4.54377">
        <ele>455</ele>
        <time>2016-08-23T09:47:38Z</time>
      </trkpt>
      <trkpt lat="45.7939" lon="4.54378">
        <ele>455</ele>
        <time>2016-08-23T09:47:39Z</time>
      </trkpt>
      <trkpt lat="45.79381" lon="4.54382">
        <ele>456</ele>
        <time>2016-08-23T09:47:43Z</time>
      </trkpt>
      <trkpt lat="45.7938" lon="4.54384">
        <ele>456</ele>
        <time>2016-08-23T09:47:44Z</time>
      </trkpt>
      <trkpt lat="45.79372" lon="4.54388">
        <ele>456</ele>
        <time>2016-08-23T09:47:48Z</time>
      </trkpt>
      <trkpt lat="45.7937" lon="4.54389">
        <ele>456</ele>
        <time>2016-08-23T09:47:49Z</time>
      </trkpt>
      <trkpt lat="45.79363" lon="4.54394">
        <ele>456</ele>
        <time>2016-08-23T09:47:53Z</time>
      </trkpt>
      <trkpt lat="45.79361" lon="4.54395">
        <ele>456</ele>
        <time>2016-08-23T09:47:54Z</time>
      </trkpt>
      <trkpt lat="45.79354" lon="4.54395">
        <ele>456</ele>
        <time>2016-08-23T09:47:57Z</time>
      </trkpt>
      <trkpt lat="45.79352" lon="4.54396">
        <ele>456</ele>
        <time>2016-08-23T09:47:58Z</time>
      </trkpt>
      <trkpt lat="45.79343" lon="4.54397">
        <ele>456</ele>
        <time>2016-08-23T09:48:02Z</time>
      </trkpt>
      <trkpt lat="45.7934" lon="4.54397">
        <ele>456</ele>
        <time>2016-08-23T09:48:03Z</time>
      </trkpt>
      <trkpt lat="45.79332" lon="4.54395">
        <ele>458</ele>
        <time>2016-08-23T09:48:07Z</time>
      </trkpt>
      <trkpt lat="45.79329" lon="4.54394">
        <ele>458</ele>
        <time>2016-08-23T09:48:08Z</time>
      </trkpt>
      <trkpt lat="45.79321" lon="4.54391">
        <ele>458</ele>
        <time>2016-08-23T09:48:11Z</time>
      </trkpt>
      <trkpt lat="45.79319" lon="4.5439">
        <ele>459</ele>
        <time>2016-08-23T09:48:12Z</time>
      </trkpt>
      <trkpt lat="45.7931" lon="4.54386">
        <ele>459</ele>
        <time>2016-08-23T09:48:17Z</time>
      </trkpt>
      <trkpt lat="45.79309" lon="4.54385">
        <ele>459</ele>
        <time>2016-08-23T09:48:18Z</time>
      </trkpt>
      <trkpt lat="45.79303" lon="4.54376">
        <ele>459</ele>
        <time>2016-08-23T09:48:22Z</time>
      </trkpt>
      <trkpt lat="45.79302" lon="4.54374">
        <ele>459</ele>
        <time>2016-08-23T09:48:23Z</time>
      </trkpt>
      <trkpt lat="45.79297" lon="4.54364">
        <ele>460</ele>
        <time>2016-08-23T09:48:27Z</time>
      </trkpt>
      <trkpt lat="45.79297" lon="4.54361">
        <ele>460</ele>
        <time>2016-08-23T09:48:28Z</time>
      </trkpt>
      <trkpt lat="45.79295" lon="4.54352">
        <ele>460</ele>
        <time>2016-08-23T09:48:31Z</time>
      </trkpt>
      <trkpt lat="45.79294" lon="4.54347">
        <ele>460</ele>
        <time>2016-08-23T09:48:32Z</time>
      </trkpt>
      <trkpt lat="45.79292" lon="4.54336">
        <ele>460</ele>
        <time>2016-08-23T09:48:35Z</time>
      </trkpt>
      <trkpt lat="45.79292" lon="4.54332">
        <ele>462</ele>
        <time>2016-08-23T09:48:36Z</time>
      </trkpt>
      <trkpt lat="45.79293" lon="4.5432">
        <ele>461</ele>
        <time>2016-08-23T09:48:39Z</time>
      </trkpt>
      <trkpt lat="45.79293" lon="4.54316">
        <ele>461</ele>
        <time>2016-08-23T09:48:40Z</time>
      </trkpt>
      <trkpt lat="45.79294" lon="4.54308">
        <ele>461</ele>
        <time>2016-08-23T09:48:42Z</time>
      </trkpt>
      <trkpt lat="45.79295" lon="4.54303">
        <ele>461</ele>
        <time>2016-08-23T09:48:43Z</time>
      </trkpt>
      <trkpt lat="45.79298" lon="4.54294">
        <ele>461</ele>
        <time>2016-08-23T09:48:45Z</time>
      </trkpt>
      <trkpt lat="45.793" lon="4.5429">
        <ele>461</ele>
        <time>2016-08-23T09:48:46Z</time>
      </trkpt>
      <trkpt lat="45.79304" lon="4.54283">
        <ele>462</ele>
        <time>2016-08-23T09:48:48Z</time>
      </trkpt>
      <trkpt lat="45.79306" lon="4.54279">
        <ele>462</ele>
        <time>2016-08-23T09:48:49Z</time>
      </trkpt>
      <trkpt lat="45.79311" lon="4.54273">
        <ele>462</ele>
        <time>2016-08-23T09:48:51Z</time>
      </trkpt>
      <trkpt lat="45.79314" lon="4.5427">
        <ele>462</ele>
        <time>2016-08-23T09:48:52Z</time>
      </trkpt>
      <trkpt lat="45.79318" lon="4.54263">
        <ele>462</ele>
        <time>2016-08-23T09:48:54Z</time>
      </trkpt>
      <trkpt lat="45.7932" lon="4.5426">
        <ele>463</ele>
        <time>2016-08-23T09:48:55Z</time>
      </trkpt>
      <trkpt lat="45.79325" lon="4.54254">
        <ele>463</ele>
        <time>2016-08-23T09:48:57Z</time>
      </trkpt>
      <trkpt lat="45.79327" lon="4.5425">
        <ele>463</ele>
        <time>2016-08-23T09:48:58Z</time>
      </trkpt>
      <trkpt lat="45.79335" lon="4.54247">
        <ele>464</ele>
        <time>2016-08-23T09:49:00Z</time>
      </trkpt>
      <trkpt lat="45.79338" lon="4.54245">
        <ele>464</ele>
        <time>2016-08-23T09:49:01Z</time>
      </trkpt>
      <trkpt lat="45.79344" lon="4.54241">
        <ele>464</ele>
        <time>2016-08-23T09:49:03Z</time>
      </trkpt>
      <trkpt lat="45.79347" lon="4.54239">
        <ele>464</ele>
        <time>2016-08-23T09:49:04Z</time>
      </trkpt>
      <trkpt lat="45.79353" lon="4.54234">
        <ele>464</ele>
        <time>2016-08-23T09:49:06Z</time>
      </trkpt>
      <trkpt lat="45.79356" lon="4.54232">
        <ele>464</ele>
        <time>2016-08-23T09:49:07Z</time>
      </trkpt>
      <trkpt lat="45.79364" lon="4.54225">
        <ele>465</ele>
        <time>2016-08-23T09:49:10Z</time>
      </trkpt>
      <trkpt lat="45.79366" lon="4.54223">
        <ele>465</ele>
        <time>2016-08-23T09:49:11Z</time>
      </trkpt>
      <trkpt lat="45.7937" lon="4.54216">
        <ele>465</ele>
        <time>2016-08-23T09:49:13Z</time>
      </trkpt>
      <trkpt lat="45.79373" lon="4.54212">
        <ele>465</ele>
        <time>2016-08-23T09:49:14Z</time>
      </trkpt>
      <trkpt lat="45.79376" lon="4.54205">
        <ele>465</ele>
        <time>2016-08-23T09:49:16Z</time>
      </trkpt>
      <trkpt lat="45.79378" lon="4.54201">
        <ele>465</ele>
        <time>2016-08-23T09:49:17Z</time>
      </trkpt>
      <trkpt lat="45.7938" lon="4.54192">
        <ele>465</ele>
        <time>2016-08-23T09:49:19Z</time>
      </trkpt>
      <trkpt lat="45.79381" lon="4.54187">
        <ele>465</ele>
        <time>2016-08-23T09:49:20Z</time>
      </trkpt>
      <trkpt lat="45.79381" lon="4.54178">
        <ele>466</ele>
        <time>2016-08-23T09:49:22Z</time>
      </trkpt>
      <trkpt lat="45.79381" lon="4.54173">
        <ele>466</ele>
        <time>2016-08-23T09:49:23Z</time>
      </trkpt>
      <trkpt lat="45.79381" lon="4.54163">
        <ele>467</ele>
        <time>2016-08-23T09:49:25Z</time>
      </trkpt>
      <trkpt lat="45.7938" lon="4.54158">
        <ele>467</ele>
        <time>2016-08-23T09:49:26Z</time>
      </trkpt>
      <trkpt lat="45.79379" lon="4.54149">
        <ele>467</ele>
        <time>2016-08-23T09:49:28Z</time>
      </trkpt>
      <trkpt lat="45.79379" lon="4.54143">
        <ele>467</ele>
        <time>2016-08-23T09:49:29Z</time>
      </trkpt>
      <trkpt lat="45.79379" lon="4.54132">
        <ele>467</ele>
        <time>2016-08-23T09:49:31Z</time>
      </trkpt>
      <trkpt lat="45.79378" lon="4.54127">
        <ele>467</ele>
        <time>2016-08-23T09:49:32Z</time>
      </trkpt>
      <trkpt lat="45.79377" lon="4.54115">
        <ele>467</ele>
        <time>2016-08-23T09:49:35Z</time>
      </trkpt>
      <trkpt lat="45.79376" lon="4.54111">
        <ele>467</ele>
        <time>2016-08-23T09:49:36Z</time>
      </trkpt>
      <trkpt lat="45.79374" lon="4.541">
        <ele>467</ele>
        <time>2016-08-23T09:49:39Z</time>
      </trkpt>
      <trkpt lat="45.79374" lon="4.54096">
        <ele>467</ele>
        <time>2016-08-23T09:49:40Z</time>
      </trkpt>
      <trkpt lat="45.79372" lon="4.54084">
        <ele>467</ele>
        <time>2016-08-23T09:49:43Z</time>
      </trkpt>
      <trkpt lat="45.79372" lon="4.5408">
        <ele>471</ele>
        <time>2016-08-23T09:49:44Z</time>
      </trkpt>
      <trkpt lat="45.79372" lon="4.54069">
        <ele>471</ele>
        <time>2016-08-23T09:49:47Z</time>
      </trkpt>
      <trkpt lat="45.79372" lon="4.54066">
        <ele>471</ele>
        <time>2016-08-23T09:49:48Z</time>
      </trkpt>
      <trkpt lat="45.79371" lon="4.54054">
        <ele>471</ele>
        <time>2016-08-23T09:49:51Z</time>
      </trkpt>
      <trkpt lat="45.7937" lon="4.5405">
        <ele>472</ele>
        <time>2016-08-23T09:49:52Z</time>
      </trkpt>
      <trkpt lat="45.79367" lon="4.5404">
        <ele>472</ele>
        <time>2016-08-23T09:49:55Z</time>
      </trkpt>
      <trkpt lat="45.79367" lon="4.54036">
        <ele>472</ele>
        <time>2016-08-23T09:49:56Z</time>
      </trkpt>
      <trkpt lat="45.79364" lon="4.54026">
        <ele>472</ele>
        <time>2016-08-23T09:50:00Z</time>
      </trkpt>
      <trkpt lat="45.79363" lon="4.54023">
        <ele>472</ele>
        <time>2016-08-23T09:50:01Z</time>
      </trkpt>
      <trkpt lat="45.7936" lon="4.54014">
        <ele>471</ele>
        <time>2016-08-23T09:50:04Z</time>
      </trkpt>
      <trkpt lat="45.79359" lon="4.54011">
        <ele>471</ele>
        <time>2016-08-23T09:50:05Z</time>
      </trkpt>
      <trkpt lat="45.79357" lon="4.54">
        <ele>471</ele>
        <time>2016-08-23T09:50:08Z</time>
      </trkpt>
      <trkpt lat="45.79357" lon="4.53997">
        <ele>477</ele>
        <time>2016-08-23T09:50:09Z</time>
      </trkpt>
      <trkpt lat="45.79354" lon="4.53987">
        <ele>477</ele>
        <time>2016-08-23T09:50:12Z</time>
      </trkpt>
      <trkpt lat="45.79353" lon="4.53984">
        <ele>477</ele>
        <time>2016-08-23T09:50:13Z</time>
      </trkpt>
      <trkpt lat="45.7935" lon="4.53973">
        <ele>478</ele>
        <time>2016-08-23T09:50:16Z</time>
      </trkpt>
      <trkpt lat="45.79349" lon="4.5397">
        <ele>479</ele>
        <time>2016-08-23T09:50:17Z</time>
      </trkpt>
      <trkpt lat="45.79344" lon="4.53961">
        <ele>480</ele>
        <time>2016-08-23T09:50:20Z</time>
      </trkpt>
      <trkpt lat="45.79342" lon="4.53958">
        <ele>480</ele>
        <time>2016-08-23T09:50:21Z</time>
      </trkpt>
      <trkpt lat="45.79337" lon="4.53949">
        <ele>480</ele>
        <time>2016-08-23T09:50:24Z</time>
      </trkpt>
      <trkpt lat="45.79336" lon="4.53946">
        <ele>480</ele>
        <time>2016-08-23T09:50:25Z</time>
      </trkpt>
      <trkpt lat="45.7933" lon="4.53938">
        <ele>470</ele>
        <time>2016-08-23T09:50:28Z</time>
      </trkpt>
      <trkpt lat="45.79328" lon="4.53935">
        <ele>471</ele>
        <time>2016-08-23T09:50:29Z</time>
      </trkpt>
      <trkpt lat="45.79322" lon="4.53928">
        <ele>472</ele>
        <time>2016-08-23T09:50:32Z</time>
      </trkpt>
      <trkpt lat="45.79321" lon="4.53925">
        <ele>472</ele>
        <time>2016-08-23T09:50:33Z</time>
      </trkpt>
      <trkpt lat="45.79316" lon="4.53919">
        <ele>471</ele>
        <time>2016-08-23T09:50:36Z</time>
      </trkpt>
      <trkpt lat="45.79314" lon="4.53916">
        <ele>478</ele>
        <time>2016-08-23T09:50:37Z</time>
      </trkpt>
      <trkpt lat="45.79309" lon="4.53908">
        <ele>477</ele>
        <time>2016-08-23T09:50:40Z</time>
      </trkpt>
      <trkpt lat="45.79307" lon="4.53905">
        <ele>477</ele>
        <time>2016-08-23T09:50:41Z</time>
      </trkpt>
      <trkpt lat="45.79303" lon="4.53898">
        <ele>477</ele>
        <time>2016-08-23T09:50:44Z</time>
      </trkpt>
      <trkpt lat="45.79301" lon="4.53895">
        <ele>477</ele>
        <time>2016-08-23T09:50:45Z</time>
      </trkpt>
      <trkpt lat="45.79296" lon="4.53886">
        <ele>477</ele>
        <time>2016-08-23T09:50:49Z</time>
      </trkpt>
      <trkpt lat="45.79295" lon="4.53883">
        <ele>477</ele>
        <time>2016-08-23T09:50:50Z</time>
      </trkpt>
      <trkpt lat="45.79291" lon="4.53874">
        <ele>478</ele>
        <time>2016-08-23T09:50:53Z</time>
      </trkpt>
      <trkpt lat="45.7929" lon="4.53871">
        <ele>478</ele>
        <time>2016-08-23T09:50:54Z</time>
      </trkpt>
      <trkpt lat="45.79286" lon="4.5386">
        <ele>478</ele>
        <time>2016-08-23T09:50:58Z</time>
      </trkpt>
      <trkpt lat="45.79284" lon="4.53857">
        <ele>478</ele>
        <time>2016-08-23T09:50:59Z</time>
      </trkpt>
      <trkpt lat="45.79281" lon="4.53847">
        <ele>478</ele>
        <time>2016-08-23T09:51:02Z</time>
      </trkpt>
      <trkpt lat="45.79281" lon="4.53844">
        <ele>478</ele>
        <time>2016-08-23T09:51:03Z</time>
      </trkpt>
      <trkpt lat="45.79279" lon="4.53833">
        <ele>485</ele>
        <time>2016-08-23T09:51:07Z</time>
      </trkpt>
      <trkpt lat="45.79278" lon="4.5383">
        <ele>485</ele>
        <time>2016-08-23T09:51:08Z</time>
      </trkpt>
      <trkpt lat="45.79277" lon="4.53818">
        <ele>485</ele>
        <time>2016-08-23T09:51:11Z</time>
      </trkpt>
      <trkpt lat="45.79277" lon="4.53815">
        <ele>486</ele>
        <time>2016-08-23T09:51:12Z</time>
      </trkpt>
      <trkpt lat="45.79273" lon="4.53804">
        <ele>486</ele>
        <time>2016-08-23T09:51:16Z</time>
      </trkpt>
      <trkpt lat="45.79272" lon="4.53801">
        <ele>486</ele>
        <time>2016-08-23T09:51:17Z</time>
      </trkpt>
      <trkpt lat="45.7927" lon="4.53791">
        <ele>487</ele>
        <time>2016-08-23T09:51:20Z</time>
      </trkpt>
      <trkpt lat="45.7927" lon="4.53788">
        <ele>487</ele>
        <time>2016-08-23T09:51:21Z</time>
      </trkpt>
      <trkpt lat="45.79269" lon="4.53775">
        <ele>487</ele>
        <time>2016-08-23T09:51:25Z</time>
      </trkpt>
      <trkpt lat="45.79268" lon="4.53772">
        <ele>487</ele>
        <time>2016-08-23T09:51:26Z</time>
      </trkpt>
      <trkpt lat="45.79266" lon="4.53759">
        <ele>486</ele>
        <time>2016-08-23T09:51:30Z</time>
      </trkpt>
      <trkpt lat="45.79266" lon="4.53756">
        <ele>486</ele>
        <time>2016-08-23T09:51:31Z</time>
      </trkpt>
      <trkpt lat="45.79265" lon="4.53746">
        <ele>488</ele>
        <time>2016-08-23T09:51:34Z</time>
      </trkpt>
      <trkpt lat="45.79264" lon="4.53743">
        <ele>489</ele>
        <time>2016-08-23T09:51:35Z</time>
      </trkpt>
      <trkpt lat="45.79263" lon="4.53732">
        <ele>490</ele>
        <time>2016-08-23T09:51:38Z</time>
      </trkpt>
      <trkpt lat="45.79263" lon="4.53728">
        <ele>491</ele>
        <time>2016-08-23T09:51:39Z</time>
      </trkpt>
      <trkpt lat="45.79262" lon="4.53717">
        <ele>492</ele>
        <time>2016-08-23T09:51:42Z</time>
      </trkpt>
      <trkpt lat="45.79261" lon="4.53713">
        <ele>493</ele>
        <time>2016-08-23T09:51:43Z</time>
      </trkpt>
      <trkpt lat="45.79259" lon="4.53703">
        <ele>493</ele>
        <time>2016-08-23T09:51:46Z</time>
      </trkpt>
      <trkpt lat="45.79258" lon="4.537">
        <ele>493</ele>
        <time>2016-08-23T09:51:47Z</time>
      </trkpt>
      <trkpt lat="45.79258" lon="4.53687">
        <ele>492</ele>
        <time>2016-08-23T09:51:50Z</time>
      </trkpt>
      <trkpt lat="45.79257" lon="4.53684">
        <ele>491</ele>
        <time>2016-08-23T09:51:51Z</time>
      </trkpt>
      <trkpt lat="45.79258" lon="4.53673">
        <ele>489</ele>
        <time>2016-08-23T09:51:54Z</time>
      </trkpt>
      <trkpt lat="45.79258" lon="4.5367">
        <ele>489</ele>
        <time>2016-08-23T09:51:55Z</time>
      </trkpt>
      <trkpt lat="45.79258" lon="4.53658">
        <ele>491</ele>
        <time>2016-08-23T09:51:58Z</time>
      </trkpt>
      <trkpt lat="45.79257" lon="4.53654">
        <ele>492</ele>
        <time>2016-08-23T09:51:59Z</time>
      </trkpt>
      <trkpt lat="45.79256" lon="4.53645">
        <ele>494</ele>
        <time>2016-08-23T09:52:01Z</time>
      </trkpt>
      <trkpt lat="45.79256" lon="4.5364">
        <ele>495</ele>
        <time>2016-08-23T09:52:02Z</time>
      </trkpt>
      <trkpt lat="45.79255" lon="4.53631">
        <ele>496</ele>
        <time>2016-08-23T09:52:04Z</time>
      </trkpt>
      <trkpt lat="45.79255" lon="4.53626">
        <ele>496</ele>
        <time>2016-08-23T09:52:05Z</time>
      </trkpt>
      <trkpt lat="45.79254" lon="4.53616">
        <ele>496</ele>
        <time>2016-08-23T09:52:07Z</time>
      </trkpt>
      <trkpt lat="45.79253" lon="4.53611">
        <ele>495</ele>
        <time>2016-08-23T09:52:08Z</time>
      </trkpt>
      <trkpt lat="45.79253" lon="4.53602">
        <ele>494</ele>
        <time>2016-08-23T09:52:10Z</time>
      </trkpt>
      <trkpt lat="45.79252" lon="4.53597">
        <ele>493</ele>
        <time>2016-08-23T09:52:11Z</time>
      </trkpt>
      <trkpt lat="45.79252" lon="4.53588">
        <ele>489</ele>
        <time>2016-08-23T09:52:13Z</time>
      </trkpt>
      <trkpt lat="45.79251" lon="4.53583">
        <ele>487</ele>
        <time>2016-08-23T09:52:14Z</time>
      </trkpt>
      <trkpt lat="45.79251" lon="4.53571">
        <ele>492</ele>
        <time>2016-08-23T09:52:16Z</time>
      </trkpt>
      <trkpt lat="45.7925" lon="4.53566">
        <ele>494</ele>
        <time>2016-08-23T09:52:17Z</time>
      </trkpt>
      <trkpt lat="45.79248" lon="4.53555">
        <ele>476</ele>
        <time>2016-08-23T09:52:19Z</time>
      </trkpt>
      <trkpt lat="45.79248" lon="4.5355">
        <ele>476</ele>
        <time>2016-08-23T09:52:20Z</time>
      </trkpt>
      <trkpt lat="45.79249" lon="4.53539">
        <ele>476</ele>
        <time>2016-08-23T09:52:22Z</time>
      </trkpt>
      <trkpt lat="45.79249" lon="4.53533">
        <ele>476</ele>
        <time>2016-08-23T09:52:23Z</time>
      </trkpt>
      <trkpt lat="45.79249" lon="4.53522">
        <ele>478</ele>
        <time>2016-08-23T09:52:25Z</time>
      </trkpt>
      <trkpt lat="45.79249" lon="4.53516">
        <ele>479</ele>
        <time>2016-08-23T09:52:26Z</time>
      </trkpt>
      <trkpt lat="45.79247" lon="4.53504">
        <ele>484</ele>
        <time>2016-08-23T09:52:28Z</time>
      </trkpt>
      <trkpt lat="45.79246" lon="4.53497">
        <ele>484</ele>
        <time>2016-08-23T09:52:29Z</time>
      </trkpt>
      <trkpt lat="45.79245" lon="4.53485">
        <ele>479</ele>
        <time>2016-08-23T09:52:31Z</time>
      </trkpt>
      <trkpt lat="45.79245" lon="4.53479">
        <ele>478</ele>
        <time>2016-08-23T09:52:32Z</time>
      </trkpt>
      <trkpt lat="45.79246" lon="4.53472">
        <ele>477</ele>
        <time>2016-08-23T09:52:33Z</time>
      </trkpt>
      <trkpt lat="45.79246" lon="4.53466">
        <ele>476</ele>
        <time>2016-08-23T09:52:34Z</time>
      </trkpt>
      <trkpt lat="45.79247" lon="4.53459">
        <ele>476</ele>
        <time>2016-08-23T09:52:35Z</time>
      </trkpt>
      <trkpt lat="45.79247" lon="4.53451">
        <ele>477</ele>
        <time>2016-08-23T09:52:36Z</time>
      </trkpt>
      <trkpt lat="45.79248" lon="4.53444">
        <ele>477</ele>
        <time>2016-08-23T09:52:37Z</time>
      </trkpt>
      <trkpt lat="45.79248" lon="4.53438">
        <ele>479</ele>
        <time>2016-08-23T09:52:38Z</time>
      </trkpt>
      <trkpt lat="45.79249" lon="4.53431">
        <ele>481</ele>
        <time>2016-08-23T09:52:39Z</time>
      </trkpt>
      <trkpt lat="45.79249" lon="4.53424">
        <ele>483</ele>
        <time>2016-08-23T09:52:40Z</time>
      </trkpt>
      <trkpt lat="45.7925" lon="4.53417">
        <ele>488</ele>
        <time>2016-08-23T09:52:41Z</time>
      </trkpt>
      <trkpt lat="45.79251" lon="4.5341">
        <ele>492</ele>
        <time>2016-08-23T09:52:42Z</time>
      </trkpt>
      <trkpt lat="45.79251" lon="4.53403">
        <ele>495</ele>
        <time>2016-08-23T09:52:43Z</time>
      </trkpt>
      <trkpt lat="45.7925" lon="4.53396">
        <ele>497</ele>
        <time>2016-08-23T09:52:44Z</time>
      </trkpt>
      <trkpt lat="45.7925" lon="4.53389">
        <ele>498</ele>
        <time>2016-08-23T09:52:45Z</time>
      </trkpt>
      <trkpt lat="45.79251" lon="4.53381">
        <ele>499</ele>
        <time>2016-08-23T09:52:46Z</time>
      </trkpt>
      <trkpt lat="45.79252" lon="4.53374">
        <ele>499</ele>
        <time>2016-08-23T09:52:47Z</time>
      </trkpt>
      <trkpt lat="45.79251" lon="4.53366">
        <ele>498</ele>
        <time>2016-08-23T09:52:48Z</time>
      </trkpt>
      <trkpt lat="45.79251" lon="4.53358">
        <ele>497</ele>
        <time>2016-08-23T09:52:49Z</time>
      </trkpt>
      <trkpt lat="45.7925" lon="4.5335">
        <ele>495</ele>
        <time>2016-08-23T09:52:50Z</time>
      </trkpt>
      <trkpt lat="45.79249" lon="4.53341">
        <ele>482</ele>
        <time>2016-08-23T09:52:51Z</time>
      </trkpt>
      <trkpt lat="45.79249" lon="4.53332">
        <ele>486</ele>
        <time>2016-08-23T09:52:52Z</time>
      </trkpt>
      <trkpt lat="45.7925" lon="4.53324">
        <ele>491</ele>
        <time>2016-08-23T09:52:53Z</time>
      </trkpt>
      <trkpt lat="45.79251" lon="4.53315">
        <ele>492</ele>
        <time>2016-08-23T09:52:54Z</time>
      </trkpt>
      <trkpt lat="45.79252" lon="4.53306">
        <ele>493</ele>
        <time>2016-08-23T09:52:55Z</time>
      </trkpt>
      <trkpt lat="45.79253" lon="4.53296">
        <ele>493</ele>
        <time>2016-08-23T09:52:56Z</time>
      </trkpt>
      <trkpt lat="45.79254" lon="4.53286">
        <ele>492</ele>
        <time>2016-08-23T09:52:57Z</time>
      </trkpt>
      <trkpt lat="45.79255" lon="4.53276">
        <ele>491</ele>
        <time>2016-08-23T09:52:58Z</time>
      </trkpt>
      <trkpt lat="45.79257" lon="4.53266">
        <ele>488</ele>
        <time>2016-08-23T09:52:59Z</time>
      </trkpt>
      <trkpt lat="45.79258" lon="4.53255">
        <ele>484</ele>
        <time>2016-08-23T09:53:00Z</time>
      </trkpt>
      <trkpt lat="45.79258" lon="4.53243">
        <ele>482</ele>
        <time>2016-08-23T09:53:01Z</time>
      </trkpt>
      <trkpt lat="45.7926" lon="4.53231">
        <ele>484</ele>
        <time>2016-08-23T09:53:02Z</time>
      </trkpt>
      <trkpt lat="45.7926" lon="4.53219">
        <ele>484</ele>
        <time>2016-08-23T09:53:03Z</time>
      </trkpt>
      <trkpt lat="45.79261" lon="4.53207">
        <ele>484</ele>
        <time>2016-08-23T09:53:04Z</time>
      </trkpt>
      <trkpt lat="45.79263" lon="4.53194">
        <ele>483</ele>
        <time>2016-08-23T09:53:05Z</time>
      </trkpt>
      <trkpt lat="45.79264" lon="4.53182">
        <ele>480</ele>
        <time>2016-08-23T09:53:06Z</time>
      </trkpt>
      <trkpt lat="45.79266" lon="4.53169">
        <ele>479</ele>
        <time>2016-08-23T09:53:07Z</time>
      </trkpt>
      <trkpt lat="45.79269" lon="4.53156">
        <ele>475</ele>
        <time>2016-08-23T09:53:08Z</time>
      </trkpt>
      <trkpt lat="45.79272" lon="4.53143">
        <ele>476</ele>
        <time>2016-08-23T09:53:09Z</time>
      </trkpt>
      <trkpt lat="45.79276" lon="4.5313">
        <ele>477</ele>
        <time>2016-08-23T09:53:10Z</time>
      </trkpt>
      <trkpt lat="45.7928" lon="4.53117">
        <ele>476</ele>
        <time>2016-08-23T09:53:11Z</time>
      </trkpt>
      <trkpt lat="45.79284" lon="4.53104">
        <ele>476</ele>
        <time>2016-08-23T09:53:12Z</time>
      </trkpt>
      <trkpt lat="45.79287" lon="4.53091">
        <ele>476</ele>
        <time>2016-08-23T09:53:13Z</time>
      </trkpt>
      <trkpt lat="45.79291" lon="4.53078">
        <ele>470</ele>
        <time>2016-08-23T09:53:14Z</time>
      </trkpt>
      <trkpt lat="45.79295" lon="4.53066">
        <ele>470</ele>
        <time>2016-08-23T09:53:15Z</time>
      </trkpt>
      <trkpt lat="45.793" lon="4.53053">
        <ele>470</ele>
        <time>2016-08-23T09:53:16Z</time>
      </trkpt>
      <trkpt lat="45.79305" lon="4.53041">
        <ele>470</ele>
        <time>2016-08-23T09:53:17Z</time>
      </trkpt>
      <trkpt lat="45.79311" lon="4.53029">
        <ele>469</ele>
        <time>2016-08-23T09:53:18Z</time>
      </trkpt>
      <trkpt lat="45.79317" lon="4.53018">
        <ele>469</ele>
        <time>2016-08-23T09:53:19Z</time>
      </trkpt>
      <trkpt lat="45.79323" lon="4.53007">
        <ele>470</ele>
        <time>2016-08-23T09:53:20Z</time>
      </trkpt>
      <trkpt lat="45.79329" lon="4.52996">
        <ele>468</ele>
        <time>2016-08-23T09:53:21Z</time>
      </trkpt>
      <trkpt lat="45.79336" lon="4.52985">
        <ele>472</ele>
        <time>2016-08-23T09:53:22Z</time>
      </trkpt>
      <trkpt lat="45.79343" lon="4.52975">
        <ele>472</ele>
        <time>2016-08-23T09:53:23Z</time>
      </trkpt>
      <trkpt lat="45.7935" lon="4.52965">
        <ele>471</ele>
        <time>2016-08-23T09:53:24Z</time>
      </trkpt>
      <trkpt lat="45.79356" lon="4.52955">
        <ele>471</ele>
        <time>2016-08-23T09:53:25Z</time>
      </trkpt>
      <trkpt lat="45.79363" lon="4.52945">
        <ele>470</ele>
        <time>2016-08-23T09:53:26Z</time>
      </trkpt>
      <trkpt lat="45.7937" lon="4.52935">
        <ele>470</ele>
        <time>2016-08-23T09:53:27Z</time>
      </trkpt>
      <trkpt lat="45.79377" lon="4.52926">
        <ele>471</ele>
        <time>2016-08-23T09:53:28Z</time>
      </trkpt>
      <trkpt lat="45.79384" lon="4.52917">
        <ele>461</ele>
        <time>2016-08-23T09:53:29Z</time>
      </trkpt>
      <trkpt lat="45.79391" lon="4.52908">
        <ele>462</ele>
        <time>2016-08-23T09:53:30Z</time>
      </trkpt>
      <trkpt lat="45.79399" lon="4.52901">
        <ele>462</ele>
        <time>2016-08-23T09:53:31Z</time>
      </trkpt>
      <trkpt lat="45.79407" lon="4.52894">
        <ele>462</ele>
        <time>2016-08-23T09:53:32Z</time>
      </trkpt>
      <trkpt lat="45.79416" lon="4.52887">
        <ele>461</ele>
        <time>2016-08-23T09:53:33Z</time>
      </trkpt>
      <trkpt lat="45.79424" lon="4.52881">
        <ele>466</ele>
        <time>2016-08-23T09:53:34Z</time>
      </trkpt>
      <trkpt lat="45.79432" lon="4.52875">
        <ele>465</ele>
        <time>2016-08-23T09:53:35Z</time>
      </trkpt>
      <trkpt lat="45.7944" lon="4.52868">
        <ele>464</ele>
        <time>2016-08-23T09:53:36Z</time>
      </trkpt>
      <trkpt lat="45.79448" lon="4.52863">
        <ele>464</ele>
        <time>2016-08-23T09:53:37Z</time>
      </trkpt>
      <trkpt lat="45.79456" lon="4.52858">
        <ele>464</ele>
        <time>2016-08-23T09:53:38Z</time>
      </trkpt>
      <trkpt lat="45.79465" lon="4.52853">
        <ele>464</ele>
        <time>2016-08-23T09:53:39Z</time>
      </trkpt>
      <trkpt lat="45.79473" lon="4.52849">
        <ele>464</ele>
        <time>2016-08-23T09:53:40Z</time>
      </trkpt>
      <trkpt lat="45.79481" lon="4.52847">
        <ele>463</ele>
        <time>2016-08-23T09:53:41Z</time>
      </trkpt>
      <trkpt lat="45.79489" lon="4.52845">
        <ele>463</ele>
        <time>2016-08-23T09:53:42Z</time>
      </trkpt>
      <trkpt lat="45.79497" lon="4.52845">
        <ele>462</ele>
        <time>2016-08-23T09:53:43Z</time>
      </trkpt>
      <trkpt lat="45.79505" lon="4.52844">
        <ele>463</ele>
        <time>2016-08-23T09:53:44Z</time>
      </trkpt>
      <trkpt lat="45.79513" lon="4.52845">
        <ele>465</ele>
        <time>2016-08-23T09:53:45Z</time>
      </trkpt>
      <trkpt lat="45.7952" lon="4.52846">
        <ele>466</ele>
        <time>2016-08-23T09:53:46Z</time>
      </trkpt>
      <trkpt lat="45.79528" lon="4.52846">
        <ele>466</ele>
        <time>2016-08-23T09:53:47Z</time>
      </trkpt>
      <trkpt lat="45.79535" lon="4.52847">
        <ele>467</ele>
        <time>2016-08-23T09:53:48Z</time>
      </trkpt>
      <trkpt lat="45.79541" lon="4.52848">
        <ele>467</ele>
        <time>2016-08-23T09:53:49Z</time>
      </trkpt>
      <trkpt lat="45.79547" lon="4.5285">
        <ele>467</ele>
        <time>2016-08-23T09:53:50Z</time>
      </trkpt>
      <trkpt lat="45.79552" lon="4.52851">
        <ele>467</ele>
        <time>2016-08-23T09:53:51Z</time>
      </trkpt>
      <trkpt lat="45.79557" lon="4.52851">
        <ele>467</ele>
        <time>2016-08-23T09:53:52Z</time>
      </trkpt>
      <trkpt lat="45.79563" lon="4.52851">
        <ele>466</ele>
        <time>2016-08-23T09:53:53Z</time>
      </trkpt>
      <trkpt lat="45.79568" lon="4.52851">
        <ele>466</ele>
        <time>2016-08-23T09:53:54Z</time>
      </trkpt>
      <trkpt lat="45.79573" lon="4.52849">
        <ele>465</ele>
        <time>2016-08-23T09:53:55Z</time>
      </trkpt>
      <trkpt lat="45.79578" lon="4.52848">
        <ele>464</ele>
        <time>2016-08-23T09:53:56Z</time>
      </trkpt>
      <trkpt lat="45.79583" lon="4.52849">
        <ele>464</ele>
        <time>2016-08-23T09:53:57Z</time>
      </trkpt>
      <trkpt lat="45.79591" lon="4.52849">
        <ele>464</ele>
        <time>2016-08-23T09:53:59Z</time>
      </trkpt>
      <trkpt lat="45.79594" lon="4.5285">
        <ele>464</ele>
        <time>2016-08-23T09:54:00Z</time>
      </trkpt>
      <trkpt lat="45.79601" lon="4.52849">
        <ele>464</ele>
        <time>2016-08-23T09:54:02Z</time>
      </trkpt>
      <trkpt lat="45.79605" lon="4.52848">
        <ele>464</ele>
        <time>2016-08-23T09:54:03Z</time>
      </trkpt>
      <trkpt lat="45.79611" lon="4.52848">
        <ele>465</ele>
        <time>2016-08-23T09:54:05Z</time>
      </trkpt>
      <trkpt lat="45.79615" lon="4.52847">
        <ele>465</ele>
        <time>2016-08-23T09:54:06Z</time>
      </trkpt>
      <trkpt lat="45.79621" lon="4.52848">
        <ele>465</ele>
        <time>2016-08-23T09:54:08Z</time>
      </trkpt>
      <trkpt lat="45.79625" lon="4.52849">
        <ele>465</ele>
        <time>2016-08-23T09:54:09Z</time>
      </trkpt>
      <trkpt lat="45.79631" lon="4.52851">
        <ele>465</ele>
        <time>2016-08-23T09:54:11Z</time>
      </trkpt>
      <trkpt lat="45.79634" lon="4.52852">
        <ele>465</ele>
        <time>2016-08-23T09:54:12Z</time>
      </trkpt>
      <trkpt lat="45.7964" lon="4.52854">
        <ele>465</ele>
        <time>2016-08-23T09:54:14Z</time>
      </trkpt>
      <trkpt lat="45.79643" lon="4.52855">
        <ele>465</ele>
        <time>2016-08-23T09:54:15Z</time>
      </trkpt>
      <trkpt lat="45.7965" lon="4.52858">
        <ele>465</ele>
        <time>2016-08-23T09:54:17Z</time>
      </trkpt>
      <trkpt lat="45.79653" lon="4.5286">
        <ele>465</ele>
        <time>2016-08-23T09:54:18Z</time>
      </trkpt>
      <trkpt lat="45.79659" lon="4.52864">
        <ele>465</ele>
        <time>2016-08-23T09:54:20Z</time>
      </trkpt>
      <trkpt lat="45.79662" lon="4.52865">
        <ele>465</ele>
        <time>2016-08-23T09:54:21Z</time>
      </trkpt>
      <trkpt lat="45.79668" lon="4.52869">
        <ele>466</ele>
        <time>2016-08-23T09:54:23Z</time>
      </trkpt>
      <trkpt lat="45.79671" lon="4.5287">
        <ele>466</ele>
        <time>2016-08-23T09:54:24Z</time>
      </trkpt>
      <trkpt lat="45.79677" lon="4.52875">
        <ele>467</ele>
        <time>2016-08-23T09:54:26Z</time>
      </trkpt>
      <trkpt lat="45.7968" lon="4.52877">
        <ele>467</ele>
        <time>2016-08-23T09:54:27Z</time>
      </trkpt>
      <trkpt lat="45.79685" lon="4.52881">
        <ele>468</ele>
        <time>2016-08-23T09:54:29Z</time>
      </trkpt>
      <trkpt lat="45.79688" lon="4.52883">
        <ele>468</ele>
        <time>2016-08-23T09:54:30Z</time>
      </trkpt>
      <trkpt lat="45.79693" lon="4.52887">
        <ele>468</ele>
        <time>2016-08-23T09:54:32Z</time>
      </trkpt>
      <trkpt lat="45.79696" lon="4.52889">
        <ele>468</ele>
        <time>2016-08-23T09:54:33Z</time>
      </trkpt>
      <trkpt lat="45.79705" lon="4.52893">
        <ele>469</ele>
        <time>2016-08-23T09:54:36Z</time>
      </trkpt>
      <trkpt lat="45.79708" lon="4.52894">
        <ele>469</ele>
        <time>2016-08-23T09:54:37Z</time>
      </trkpt>
      <trkpt lat="45.79713" lon="4.52898">
        <ele>469</ele>
        <time>2016-08-23T09:54:39Z</time>
      </trkpt>
      <trkpt lat="45.79716" lon="4.529">
        <ele>469</ele>
        <time>2016-08-23T09:54:40Z</time>
      </trkpt>
      <trkpt lat="45.79721" lon="4.52904">
        <ele>470</ele>
        <time>2016-08-23T09:54:42Z</time>
      </trkpt>
      <trkpt lat="45.79724" lon="4.52906">
        <ele>470</ele>
        <time>2016-08-23T09:54:43Z</time>
      </trkpt>
      <trkpt lat="45.79731" lon="4.52913">
        <ele>471</ele>
        <time>2016-08-23T09:54:46Z</time>
      </trkpt>
      <trkpt lat="45.79734" lon="4.52914">
        <ele>471</ele>
        <time>2016-08-23T09:54:47Z</time>
      </trkpt>
      <trkpt lat="45.79742" lon="4.52919">
        <ele>476</ele>
        <time>2016-08-23T09:54:50Z</time>
      </trkpt>
      <trkpt lat="45.79745" lon="4.52921">
        <ele>475</ele>
        <time>2016-08-23T09:54:51Z</time>
      </trkpt>
      <trkpt lat="45.7975" lon="4.52924">
        <ele>477</ele>
        <time>2016-08-23T09:54:53Z</time>
      </trkpt>
      <trkpt lat="45.79753" lon="4.52925">
        <ele>477</ele>
        <time>2016-08-23T09:54:54Z</time>
      </trkpt>
      <trkpt lat="45.7976" lon="4.52925">
        <ele>479</ele>
        <time>2016-08-23T09:54:56Z</time>
      </trkpt>
      <trkpt lat="45.79763" lon="4.52924">
        <ele>479</ele>
        <time>2016-08-23T09:54:57Z</time>
      </trkpt>
      <trkpt lat="45.79771" lon="4.5292">
        <ele>481</ele>
        <time>2016-08-23T09:55:00Z</time>
      </trkpt>
      <trkpt lat="45.79773" lon="4.52918">
        <ele>481</ele>
        <time>2016-08-23T09:55:01Z</time>
      </trkpt>
      <trkpt lat="45.79779" lon="4.5291">
        <ele>478</ele>
        <time>2016-08-23T09:55:04Z</time>
      </trkpt>
      <trkpt lat="45.79782" lon="4.52907">
        <ele>479</ele>
        <time>2016-08-23T09:55:05Z</time>
      </trkpt>
      <trkpt lat="45.79786" lon="4.529">
        <ele>479</ele>
        <time>2016-08-23T09:55:07Z</time>
      </trkpt>
      <trkpt lat="45.79788" lon="4.52896">
        <ele>479</ele>
        <time>2016-08-23T09:55:08Z</time>
      </trkpt>
      <trkpt lat="45.79792" lon="4.52885">
        <ele>479</ele>
        <time>2016-08-23T09:55:12Z</time>
      </trkpt>
      <trkpt lat="45.79792" lon="4.52881">
        <ele>479</ele>
        <time>2016-08-23T09:55:13Z</time>
      </trkpt>
      <trkpt lat="45.79794" lon="4.52869">
        <ele>479</ele>
        <time>2016-08-23T09:55:16Z</time>
      </trkpt>
      <trkpt lat="45.79796" lon="4.52865">
        <ele>479</ele>
        <time>2016-08-23T09:55:17Z</time>
      </trkpt>
      <trkpt lat="45.79797" lon="4.52853">
        <ele>479</ele>
        <time>2016-08-23T09:55:20Z</time>
      </trkpt>
      <trkpt lat="45.79798" lon="4.52849">
        <ele>479</ele>
        <time>2016-08-23T09:55:21Z</time>
      </trkpt>
      <trkpt lat="45.79799" lon="4.5284">
        <ele>479</ele>
        <time>2016-08-23T09:55:23Z</time>
      </trkpt>
      <trkpt lat="45.798" lon="4.52836">
        <ele>479</ele>
        <time>2016-08-23T09:55:24Z</time>
      </trkpt>
      <trkpt lat="45.79802" lon="4.52827">
        <ele>475</ele>
        <time>2016-08-23T09:55:26Z</time>
      </trkpt>
      <trkpt lat="45.79803" lon="4.52822">
        <ele>475</ele>
        <time>2016-08-23T09:55:27Z</time>
      </trkpt>
      <trkpt lat="45.79806" lon="4.52813">
        <ele>475</ele>
        <time>2016-08-23T09:55:29Z</time>
      </trkpt>
      <trkpt lat="45.79806" lon="4.52808">
        <ele>475</ele>
        <time>2016-08-23T09:55:30Z</time>
      </trkpt>
      <trkpt lat="45.79809" lon="4.52799">
        <ele>474</ele>
        <time>2016-08-23T09:55:32Z</time>
      </trkpt>
      <trkpt lat="45.7981" lon="4.52795">
        <ele>474</ele>
        <time>2016-08-23T09:55:33Z</time>
      </trkpt>
      <trkpt lat="45.79813" lon="4.52783">
        <ele>474</ele>
        <time>2016-08-23T09:55:36Z</time>
      </trkpt>
      <trkpt lat="45.79815" lon="4.52779">
        <ele>474</ele>
        <time>2016-08-23T09:55:37Z</time>
      </trkpt>
      <trkpt lat="45.79816" lon="4.5277">
        <ele>475</ele>
        <time>2016-08-23T09:55:39Z</time>
      </trkpt>
      <trkpt lat="45.79816" lon="4.52765">
        <ele>475</ele>
        <time>2016-08-23T09:55:40Z</time>
      </trkpt>
      <trkpt lat="45.79819" lon="4.52757">
        <ele>476</ele>
        <time>2016-08-23T09:55:42Z</time>
      </trkpt>
      <trkpt lat="45.79821" lon="4.52753">
        <ele>476</ele>
        <time>2016-08-23T09:55:43Z</time>
      </trkpt>
      <trkpt lat="45.79826" lon="4.52744">
        <ele>474</ele>
        <time>2016-08-23T09:55:45Z</time>
      </trkpt>
      <trkpt lat="45.79829" lon="4.5274">
        <ele>474</ele>
        <time>2016-08-23T09:55:46Z</time>
      </trkpt>
      <trkpt lat="45.79834" lon="4.52731">
        <ele>481</ele>
        <time>2016-08-23T09:55:48Z</time>
      </trkpt>
      <trkpt lat="45.79836" lon="4.52728">
        <ele>481</ele>
        <time>2016-08-23T09:55:49Z</time>
      </trkpt>
      <trkpt lat="45.7984" lon="4.52721">
        <ele>481</ele>
        <time>2016-08-23T09:55:51Z</time>
      </trkpt>
      <trkpt lat="45.79843" lon="4.52717">
        <ele>481</ele>
        <time>2016-08-23T09:55:52Z</time>
      </trkpt>
      <trkpt lat="45.79847" lon="4.5271">
        <ele>481</ele>
        <time>2016-08-23T09:55:54Z</time>
      </trkpt>
      <trkpt lat="45.7985" lon="4.52707">
        <ele>481</ele>
        <time>2016-08-23T09:55:55Z</time>
      </trkpt>
      <trkpt lat="45.79855" lon="4.52699">
        <ele>481</ele>
        <time>2016-08-23T09:55:57Z</time>
      </trkpt>
      <trkpt lat="45.79858" lon="4.52695">
        <ele>481</ele>
        <time>2016-08-23T09:55:58Z</time>
      </trkpt>
      <trkpt lat="45.79863" lon="4.52685">
        <ele>480</ele>
        <time>2016-08-23T09:56:00Z</time>
      </trkpt>
      <trkpt lat="45.79865" lon="4.5268">
        <ele>480</ele>
        <time>2016-08-23T09:56:01Z</time>
      </trkpt>
      <trkpt lat="45.7987" lon="4.52672">
        <ele>481</ele>
        <time>2016-08-23T09:56:03Z</time>
      </trkpt>
      <trkpt lat="45.79873" lon="4.52668">
        <ele>481</ele>
        <time>2016-08-23T09:56:04Z</time>
      </trkpt>
      <trkpt lat="45.79878" lon="4.5266">
        <ele>475</ele>
        <time>2016-08-23T09:56:06Z</time>
      </trkpt>
      <trkpt lat="45.7988" lon="4.52655">
        <ele>475</ele>
        <time>2016-08-23T09:56:07Z</time>
      </trkpt>
      <trkpt lat="45.79884" lon="4.52645">
        <ele>475</ele>
        <time>2016-08-23T09:56:09Z</time>
      </trkpt>
      <trkpt lat="45.79886" lon="4.5264">
        <ele>474</ele>
        <time>2016-08-23T09:56:10Z</time>
      </trkpt>
      <trkpt lat="45.79892" lon="4.52633">
        <ele>474</ele>
        <time>2016-08-23T09:56:12Z</time>
      </trkpt>
      <trkpt lat="45.79895" lon="4.5263">
        <ele>474</ele>
        <time>2016-08-23T09:56:13Z</time>
      </trkpt>
      <trkpt lat="45.79901" lon="4.52623">
        <ele>474</ele>
        <time>2016-08-23T09:56:15Z</time>
      </trkpt>
      <trkpt lat="45.79904" lon="4.52618">
        <ele>474</ele>
        <time>2016-08-23T09:56:16Z</time>
      </trkpt>
      <trkpt lat="45.7991" lon="4.5261">
        <ele>473</ele>
        <time>2016-08-23T09:56:18Z</time>
      </trkpt>
      <trkpt lat="45.79913" lon="4.52608">
        <ele>473</ele>
        <time>2016-08-23T09:56:19Z</time>
      </trkpt>
      <trkpt lat="45.79918" lon="4.52602">
        <ele>481</ele>
        <time>2016-08-23T09:56:21Z</time>
      </trkpt>
      <trkpt lat="45.79921" lon="4.52598">
        <ele>480</ele>
        <time>2016-08-23T09:56:22Z</time>
      </trkpt>
      <trkpt lat="45.79926" lon="4.52592">
        <ele>479</ele>
        <time>2016-08-23T09:56:24Z</time>
      </trkpt>
      <trkpt lat="45.79929" lon="4.52589">
        <ele>479</ele>
        <time>2016-08-23T09:56:25Z</time>
      </trkpt>
      <trkpt lat="45.79936" lon="4.52583">
        <ele>475</ele>
        <time>2016-08-23T09:56:27Z</time>
      </trkpt>
      <trkpt lat="45.79939" lon="4.5258">
        <ele>475</ele>
        <time>2016-08-23T09:56:28Z</time>
      </trkpt>
      <trkpt lat="45.79946" lon="4.52575">
        <ele>475</ele>
        <time>2016-08-23T09:56:30Z</time>
      </trkpt>
      <trkpt lat="45.79949" lon="4.52573">
        <ele>476</ele>
        <time>2016-08-23T09:56:31Z</time>
      </trkpt>
      <trkpt lat="45.79956" lon="4.52567">
        <ele>476</ele>
        <time>2016-08-23T09:56:33Z</time>
      </trkpt>
      <trkpt lat="45.7996" lon="4.52564">
        <ele>476</ele>
        <time>2016-08-23T09:56:34Z</time>
      </trkpt>
      <trkpt lat="45.79965" lon="4.52558">
        <ele>476</ele>
        <time>2016-08-23T09:56:36Z</time>
      </trkpt>
      <trkpt lat="45.79967" lon="4.52556">
        <ele>477</ele>
        <time>2016-08-23T09:56:37Z</time>
      </trkpt>
      <trkpt lat="45.79973" lon="4.52552">
        <ele>477</ele>
        <time>2016-08-23T09:56:39Z</time>
      </trkpt>
      <trkpt lat="45.79976" lon="4.52549">
        <ele>477</ele>
        <time>2016-08-23T09:56:40Z</time>
      </trkpt>
      <trkpt lat="45.79983" lon="4.52545">
        <ele>477</ele>
        <time>2016-08-23T09:56:42Z</time>
      </trkpt>
      <trkpt lat="45.79986" lon="4.52543">
        <ele>477</ele>
        <time>2016-08-23T09:56:43Z</time>
      </trkpt>
      <trkpt lat="45.79993" lon="4.5254">
        <ele>477</ele>
        <time>2016-08-23T09:56:45Z</time>
      </trkpt>
      <trkpt lat="45.79995" lon="4.52538">
        <ele>477</ele>
        <time>2016-08-23T09:56:46Z</time>
      </trkpt>
      <trkpt lat="45.80001" lon="4.52534">
        <ele>483</ele>
        <time>2016-08-23T09:56:48Z</time>
      </trkpt>
      <trkpt lat="45.80004" lon="4.52532">
        <ele>483</ele>
        <time>2016-08-23T09:56:49Z</time>
      </trkpt>
      <trkpt lat="45.80011" lon="4.52529">
        <ele>483</ele>
        <time>2016-08-23T09:56:51Z</time>
      </trkpt>
      <trkpt lat="45.80015" lon="4.52526">
        <ele>483</ele>
        <time>2016-08-23T09:56:52Z</time>
      </trkpt>
      <trkpt lat="45.80021" lon="4.52523">
        <ele>483</ele>
        <time>2016-08-23T09:56:54Z</time>
      </trkpt>
      <trkpt lat="45.80024" lon="4.52522">
        <ele>483</ele>
        <time>2016-08-23T09:56:55Z</time>
      </trkpt>
      <trkpt lat="45.80031" lon="4.52519">
        <ele>483</ele>
        <time>2016-08-23T09:56:57Z</time>
      </trkpt>
      <trkpt lat="45.80034" lon="4.52518">
        <ele>483</ele>
        <time>2016-08-23T09:56:58Z</time>
      </trkpt>
      <trkpt lat="45.80042" lon="4.52514">
        <ele>484</ele>
        <time>2016-08-23T09:57:01Z</time>
      </trkpt>
      <trkpt lat="45.80045" lon="4.52513">
        <ele>484</ele>
        <time>2016-08-23T09:57:02Z</time>
      </trkpt>
      <trkpt lat="45.80053" lon="4.5251">
        <ele>484</ele>
        <time>2016-08-23T09:57:05Z</time>
      </trkpt>
      <trkpt lat="45.80056" lon="4.52509">
        <ele>484</ele>
        <time>2016-08-23T09:57:06Z</time>
      </trkpt>
      <trkpt lat="45.80063" lon="4.52506">
        <ele>485</ele>
        <time>2016-08-23T09:57:08Z</time>
      </trkpt>
      <trkpt lat="45.80066" lon="4.52505">
        <ele>485</ele>
        <time>2016-08-23T09:57:09Z</time>
      </trkpt>
      <trkpt lat="45.80074" lon="4.52502">
        <ele>484</ele>
        <time>2016-08-23T09:57:12Z</time>
      </trkpt>
      <trkpt lat="45.80077" lon="4.52501">
        <ele>484</ele>
        <time>2016-08-23T09:57:13Z</time>
      </trkpt>
      <trkpt lat="45.80084" lon="4.525">
        <ele>484</ele>
        <time>2016-08-23T09:57:15Z</time>
      </trkpt>
      <trkpt lat="45.80087" lon="4.52499">
        <ele>484</ele>
        <time>2016-08-23T09:57:16Z</time>
      </trkpt>
      <trkpt lat="45.80094" lon="4.52501">
        <ele>487</ele>
        <time>2016-08-23T09:57:18Z</time>
      </trkpt>
      <trkpt lat="45.80096" lon="4.52501">
        <ele>487</ele>
        <time>2016-08-23T09:57:19Z</time>
      </trkpt>
      <trkpt lat="45.80103" lon="4.52499">
        <ele>484</ele>
        <time>2016-08-23T09:57:21Z</time>
      </trkpt>
      <trkpt lat="45.80106" lon="4.52499">
        <ele>485</ele>
        <time>2016-08-23T09:57:22Z</time>
      </trkpt>
      <trkpt lat="45.80113" lon="4.525">
        <ele>485</ele>
        <time>2016-08-23T09:57:25Z</time>
      </trkpt>
      <trkpt lat="45.80116" lon="4.52501">
        <ele>489</ele>
        <time>2016-08-23T09:57:26Z</time>
      </trkpt>
      <trkpt lat="45.80123" lon="4.52503">
        <ele>490</ele>
        <time>2016-08-23T09:57:29Z</time>
      </trkpt>
      <trkpt lat="45.80125" lon="4.52504">
        <ele>490</ele>
        <time>2016-08-23T09:57:30Z</time>
      </trkpt>
      <trkpt lat="45.80133" lon="4.52506">
        <ele>490</ele>
        <time>2016-08-23T09:57:33Z</time>
      </trkpt>
      <trkpt lat="45.80136" lon="4.52506">
        <ele>490</ele>
        <time>2016-08-23T09:57:34Z</time>
      </trkpt>
      <trkpt lat="45.80143" lon="4.52508">
        <ele>490</ele>
        <time>2016-08-23T09:57:37Z</time>
      </trkpt>
      <trkpt lat="45.80145" lon="4.52508">
        <ele>490</ele>
        <time>2016-08-23T09:57:38Z</time>
      </trkpt>
      <trkpt lat="45.80153" lon="4.5251">
        <ele>490</ele>
        <time>2016-08-23T09:57:41Z</time>
      </trkpt>
      <trkpt lat="45.80155" lon="4.5251">
        <ele>490</ele>
        <time>2016-08-23T09:57:42Z</time>
      </trkpt>
      <trkpt lat="45.80162" lon="4.52512">
        <ele>490</ele>
        <time>2016-08-23T09:57:45Z</time>
      </trkpt>
      <trkpt lat="45.80165" lon="4.52512">
        <ele>490</ele>
        <time>2016-08-23T09:57:46Z</time>
      </trkpt>
      <trkpt lat="45.80173" lon="4.52513">
        <ele>491</ele>
        <time>2016-08-23T09:57:49Z</time>
      </trkpt>
      <trkpt lat="45.80176" lon="4.52513">
        <ele>492</ele>
        <time>2016-08-23T09:57:50Z</time>
      </trkpt>
      <trkpt lat="45.80185" lon="4.52514">
        <ele>493</ele>
        <time>2016-08-23T09:57:53Z</time>
      </trkpt>
      <trkpt lat="45.80187" lon="4.52514">
        <ele>493</ele>
        <time>2016-08-23T09:57:54Z</time>
      </trkpt>
      <trkpt lat="45.80195" lon="4.52515">
        <ele>494</ele>
        <time>2016-08-23T09:57:57Z</time>
      </trkpt>
      <trkpt lat="45.80198" lon="4.52515">
        <ele>494</ele>
        <time>2016-08-23T09:57:58Z</time>
      </trkpt>
      <trkpt lat="45.80205" lon="4.52516">
        <ele>494</ele>
        <time>2016-08-23T09:58:01Z</time>
      </trkpt>
      <trkpt lat="45.80207" lon="4.52516">
        <ele>495</ele>
        <time>2016-08-23T09:58:02Z</time>
      </trkpt>
      <trkpt lat="45.80214" lon="4.52516">
        <ele>495</ele>
        <time>2016-08-23T09:58:05Z</time>
      </trkpt>
      <trkpt lat="45.80217" lon="4.52517">
        <ele>495</ele>
        <time>2016-08-23T09:58:06Z</time>
      </trkpt>
      <trkpt lat="45.80224" lon="4.52516">
        <ele>495</ele>
        <time>2016-08-23T09:58:09Z</time>
      </trkpt>
      <trkpt lat="45.80227" lon="4.52516">
        <ele>495</ele>
        <time>2016-08-23T09:58:10Z</time>
      </trkpt>
      <trkpt lat="45.80234" lon="4.52515">
        <ele>496</ele>
        <time>2016-08-23T09:58:13Z</time>
      </trkpt>
      <trkpt lat="45.80236" lon="4.52513">
        <ele>496</ele>
        <time>2016-08-23T09:58:14Z</time>
      </trkpt>
      <trkpt lat="45.80242" lon="4.52507">
        <ele>496</ele>
        <time>2016-08-23T09:58:17Z</time>
      </trkpt>
      <trkpt lat="45.80243" lon="4.52504">
        <ele>496</ele>
        <time>2016-08-23T09:58:18Z</time>
      </trkpt>
      <trkpt lat="45.80246" lon="4.52496">
        <ele>495</ele>
        <time>2016-08-23T09:58:21Z</time>
      </trkpt>
      <trkpt lat="45.80246" lon="4.52492">
        <ele>495</ele>
        <time>2016-08-23T09:58:22Z</time>
      </trkpt>
      <trkpt lat="45.80245" lon="4.52481">
        <ele>495</ele>
        <time>2016-08-23T09:58:25Z</time>
      </trkpt>
      <trkpt lat="45.80244" lon="4.52478">
        <ele>495</ele>
        <time>2016-08-23T09:58:26Z</time>
      </trkpt>
      <trkpt lat="45.80242" lon="4.52466">
        <ele>495</ele>
        <time>2016-08-23T09:58:30Z</time>
      </trkpt>
      <trkpt lat="45.8024" lon="4.52463">
        <ele>495</ele>
        <time>2016-08-23T09:58:31Z</time>
      </trkpt>
      <trkpt lat="45.80236" lon="4.52455">
        <ele>495</ele>
        <time>2016-08-23T09:58:34Z</time>
      </trkpt>
      <trkpt lat="45.80234" lon="4.52453">
        <ele>495</ele>
        <time>2016-08-23T09:58:35Z</time>
      </trkpt>
      <trkpt lat="45.8023" lon="4.52444">
        <ele>495</ele>
        <time>2016-08-23T09:58:38Z</time>
      </trkpt>
      <trkpt lat="45.80229" lon="4.5244">
        <ele>495</ele>
        <time>2016-08-23T09:58:39Z</time>
      </trkpt>
      <trkpt lat="45.80227" lon="4.52431">
        <ele>495</ele>
        <time>2016-08-23T09:58:42Z</time>
      </trkpt>
      <trkpt lat="45.80226" lon="4.52427">
        <ele>495</ele>
        <time>2016-08-23T09:58:43Z</time>
      </trkpt>
      <trkpt lat="45.80224" lon="4.52418">
        <ele>495</ele>
        <time>2016-08-23T09:58:46Z</time>
      </trkpt>
      <trkpt lat="45.80224" lon="4.52415">
        <ele>496</ele>
        <time>2016-08-23T09:58:47Z</time>
      </trkpt>
      <trkpt lat="45.80224" lon="4.52405">
        <ele>496</ele>
        <time>2016-08-23T09:58:50Z</time>
      </trkpt>
      <trkpt lat="45.80224" lon="4.52402">
        <ele>496</ele>
        <time>2016-08-23T09:58:51Z</time>
      </trkpt>
      <trkpt lat="45.80226" lon="4.52392">
        <ele>496</ele>
        <time>2016-08-23T09:58:54Z</time>
      </trkpt>
      <trkpt lat="45.80227" lon="4.52389">
        <ele>496</ele>
        <time>2016-08-23T09:58:55Z</time>
      </trkpt>
      <trkpt lat="45.8023" lon="4.5238">
        <ele>497</ele>
        <time>2016-08-23T09:58:58Z</time>
      </trkpt>
      <trkpt lat="45.80231" lon="4.52377">
        <ele>497</ele>
        <time>2016-08-23T09:58:59Z</time>
      </trkpt>
      <trkpt lat="45.80235" lon="4.5237">
        <ele>497</ele>
        <time>2016-08-23T09:59:02Z</time>
      </trkpt>
      <trkpt lat="45.80236" lon="4.52367">
        <ele>497</ele>
        <time>2016-08-23T09:59:03Z</time>
      </trkpt>
      <trkpt lat="45.80241" lon="4.52359">
        <ele>498</ele>
        <time>2016-08-23T09:59:06Z</time>
      </trkpt>
      <trkpt lat="45.80242" lon="4.52356">
        <ele>498</ele>
        <time>2016-08-23T09:59:07Z</time>
      </trkpt>
      <trkpt lat="45.80246" lon="4.52347">
        <ele>499</ele>
        <time>2016-08-23T09:59:11Z</time>
      </trkpt>
      <trkpt lat="45.80247" lon="4.52344">
        <ele>500</ele>
        <time>2016-08-23T09:59:12Z</time>
      </trkpt>
      <trkpt lat="45.80251" lon="4.52334">
        <ele>502</ele>
        <time>2016-08-23T09:59:16Z</time>
      </trkpt>
      <trkpt lat="45.80252" lon="4.52331">
        <ele>503</ele>
        <time>2016-08-23T09:59:17Z</time>
      </trkpt>
      <trkpt lat="45.80257" lon="4.52322">
        <ele>504</ele>
        <time>2016-08-23T09:59:21Z</time>
      </trkpt>
      <trkpt lat="45.80258" lon="4.5232">
        <ele>504</ele>
        <time>2016-08-23T09:59:22Z</time>
      </trkpt>
      <trkpt lat="45.80263" lon="4.52312">
        <ele>505</ele>
        <time>2016-08-23T09:59:25Z</time>
      </trkpt>
      <trkpt lat="45.80265" lon="4.52309">
        <ele>505</ele>
        <time>2016-08-23T09:59:26Z</time>
      </trkpt>
      <trkpt lat="45.80269" lon="4.52302">
        <ele>505</ele>
        <time>2016-08-23T09:59:29Z</time>
      </trkpt>
      <trkpt lat="45.80271" lon="4.52299">
        <ele>506</ele>
        <time>2016-08-23T09:59:30Z</time>
      </trkpt>
      <trkpt lat="45.80274" lon="4.5229">
        <ele>506</ele>
        <time>2016-08-23T09:59:33Z</time>
      </trkpt>
      <trkpt lat="45.80276" lon="4.52287">
        <ele>506</ele>
        <time>2016-08-23T09:59:34Z</time>
      </trkpt>
      <trkpt lat="45.80281" lon="4.5228">
        <ele>506</ele>
        <time>2016-08-23T09:59:37Z</time>
      </trkpt>
      <trkpt lat="45.80282" lon="4.52278">
        <ele>506</ele>
        <time>2016-08-23T09:59:38Z</time>
      </trkpt>
      <trkpt lat="45.80288" lon="4.52268">
        <ele>506</ele>
        <time>2016-08-23T09:59:42Z</time>
      </trkpt>
      <trkpt lat="45.80289" lon="4.52265">
        <ele>506</ele>
        <time>2016-08-23T09:59:43Z</time>
      </trkpt>
      <trkpt lat="45.80292" lon="4.52256">
        <ele>507</ele>
        <time>2016-08-23T09:59:46Z</time>
      </trkpt>
      <trkpt lat="45.80293" lon="4.52253">
        <ele>507</ele>
        <time>2016-08-23T09:59:47Z</time>
      </trkpt>
      <trkpt lat="45.80297" lon="4.52244">
        <ele>505</ele>
        <time>2016-08-23T09:59:50Z</time>
      </trkpt>
      <trkpt lat="45.80298" lon="4.52241">
        <ele>505</ele>
        <time>2016-08-23T09:59:51Z</time>
      </trkpt>
      <trkpt lat="45.80302" lon="4.52234">
        <ele>505</ele>
        <time>2016-08-23T09:59:54Z</time>
      </trkpt>
      <trkpt lat="45.80304" lon="4.52231">
        <ele>505</ele>
        <time>2016-08-23T09:59:55Z</time>
      </trkpt>
      <trkpt lat="45.80309" lon="4.5222">
        <ele>505</ele>
        <time>2016-08-23T09:59:59Z</time>
      </trkpt>
      <trkpt lat="45.8031" lon="4.52218">
        <ele>505</ele>
        <time>2016-08-23T10:00:00Z</time>
      </trkpt>
      <trkpt lat="45.80314" lon="4.52208">
        <ele>505</ele>
        <time>2016-08-23T10:00:03Z</time>
      </trkpt>
      <trkpt lat="45.80315" lon="4.52204">
        <ele>505</ele>
        <time>2016-08-23T10:00:04Z</time>
      </trkpt>
      <trkpt lat="45.80321" lon="4.52196">
        <ele>506</ele>
        <time>2016-08-23T10:00:07Z</time>
      </trkpt>
      <trkpt lat="45.80323" lon="4.52193">
        <ele>506</ele>
        <time>2016-08-23T10:00:08Z</time>
      </trkpt>
      <trkpt lat="45.80326" lon="4.52183">
        <ele>506</ele>
        <time>2016-08-23T10:00:11Z</time>
      </trkpt>
      <trkpt lat="45.80327" lon="4.5218">
        <ele>507</ele>
        <time>2016-08-23T10:00:12Z</time>
      </trkpt>
      <trkpt lat="45.80331" lon="4.52171">
        <ele>508</ele>
        <time>2016-08-23T10:00:15Z</time>
      </trkpt>
      <trkpt lat="45.80333" lon="4.52168">
        <ele>509</ele>
        <time>2016-08-23T10:00:16Z</time>
      </trkpt>
      <trkpt lat="45.80337" lon="4.52158">
        <ele>511</ele>
        <time>2016-08-23T10:00:19Z</time>
      </trkpt>
      <trkpt lat="45.80339" lon="4.52156">
        <ele>511</ele>
        <time>2016-08-23T10:00:20Z</time>
      </trkpt>
      <trkpt lat="45.80343" lon="4.52147">
        <ele>512</ele>
        <time>2016-08-23T10:00:24Z</time>
      </trkpt>
      <trkpt lat="45.80345" lon="4.52145">
        <ele>512</ele>
        <time>2016-08-23T10:00:25Z</time>
      </trkpt>
      <trkpt lat="45.80349" lon="4.52134">
        <ele>513</ele>
        <time>2016-08-23T10:00:29Z</time>
      </trkpt>
      <trkpt lat="45.8035" lon="4.52131">
        <ele>513</ele>
        <time>2016-08-23T10:00:30Z</time>
      </trkpt>
      <trkpt lat="45.80355" lon="4.52123">
        <ele>513</ele>
        <time>2016-08-23T10:00:33Z</time>
      </trkpt>
      <trkpt lat="45.80357" lon="4.52121">
        <ele>513</ele>
        <time>2016-08-23T10:00:34Z</time>
      </trkpt>
      <trkpt lat="45.80361" lon="4.52113">
        <ele>513</ele>
        <time>2016-08-23T10:00:37Z</time>
      </trkpt>
      <trkpt lat="45.80363" lon="4.5211">
        <ele>514</ele>
        <time>2016-08-23T10:00:38Z</time>
      </trkpt>
      <trkpt lat="45.80366" lon="4.521">
        <ele>514</ele>
        <time>2016-08-23T10:00:41Z</time>
      </trkpt>
      <trkpt lat="45.80366" lon="4.52096">
        <ele>513</ele>
        <time>2016-08-23T10:00:42Z</time>
      </trkpt>
      <trkpt lat="45.80368" lon="4.52086">
        <ele>514</ele>
        <time>2016-08-23T10:00:45Z</time>
      </trkpt>
      <trkpt lat="45.80369" lon="4.52083">
        <ele>514</ele>
        <time>2016-08-23T10:00:46Z</time>
      </trkpt>
      <trkpt lat="45.80372" lon="4.52072">
        <ele>515</ele>
        <time>2016-08-23T10:00:49Z</time>
      </trkpt>
      <trkpt lat="45.80373" lon="4.52069">
        <ele>515</ele>
        <time>2016-08-23T10:00:50Z</time>
      </trkpt>
      <trkpt lat="45.80375" lon="4.52058">
        <ele>515</ele>
        <time>2016-08-23T10:00:53Z</time>
      </trkpt>
      <trkpt lat="45.80375" lon="4.52055">
        <ele>515</ele>
        <time>2016-08-23T10:00:54Z</time>
      </trkpt>
      <trkpt lat="45.80377" lon="4.52043">
        <ele>515</ele>
        <time>2016-08-23T10:00:57Z</time>
      </trkpt>
      <trkpt lat="45.80377" lon="4.52039">
        <ele>516</ele>
        <time>2016-08-23T10:00:58Z</time>
      </trkpt>
      <trkpt lat="45.80379" lon="4.52029">
        <ele>516</ele>
        <time>2016-08-23T10:01:01Z</time>
      </trkpt>
      <trkpt lat="45.80379" lon="4.52026">
        <ele>516</ele>
        <time>2016-08-23T10:01:02Z</time>
      </trkpt>
      <trkpt lat="45.80382" lon="4.52015">
        <ele>516</ele>
        <time>2016-08-23T10:01:05Z</time>
      </trkpt>
      <trkpt lat="45.80382" lon="4.52012">
        <ele>517</ele>
        <time>2016-08-23T10:01:06Z</time>
      </trkpt>
      <trkpt lat="45.80384" lon="4.52001">
        <ele>517</ele>
        <time>2016-08-23T10:01:09Z</time>
      </trkpt>
      <trkpt lat="45.80385" lon="4.51998">
        <ele>518</ele>
        <time>2016-08-23T10:01:10Z</time>
      </trkpt>
      <trkpt lat="45.80385" lon="4.51986">
        <ele>518</ele>
        <time>2016-08-23T10:01:13Z</time>
      </trkpt>
      <trkpt lat="45.80385" lon="4.51983">
        <ele>518</ele>
        <time>2016-08-23T10:01:14Z</time>
      </trkpt>
      <trkpt lat="45.80388" lon="4.51972">
        <ele>518</ele>
        <time>2016-08-23T10:01:17Z</time>
      </trkpt>
      <trkpt lat="45.80388" lon="4.51969">
        <ele>518</ele>
        <time>2016-08-23T10:01:18Z</time>
      </trkpt>
      <trkpt lat="45.80389" lon="4.51958">
        <ele>519</ele>
        <time>2016-08-23T10:01:21Z</time>
      </trkpt>
      <trkpt lat="45.8039" lon="4.51954">
        <ele>519</ele>
        <time>2016-08-23T10:01:22Z</time>
      </trkpt>
      <trkpt lat="45.80391" lon="4.51942">
        <ele>519</ele>
        <time>2016-08-23T10:01:26Z</time>
      </trkpt>
      <trkpt lat="45.80392" lon="4.51939">
        <ele>519</ele>
        <time>2016-08-23T10:01:27Z</time>
      </trkpt>
      <trkpt lat="45.80393" lon="4.51929">
        <ele>520</ele>
        <time>2016-08-23T10:01:30Z</time>
      </trkpt>
      <trkpt lat="45.80394" lon="4.51926">
        <ele>520</ele>
        <time>2016-08-23T10:01:31Z</time>
      </trkpt>
      <trkpt lat="45.80397" lon="4.51915">
        <ele>521</ele>
        <time>2016-08-23T10:01:34Z</time>
      </trkpt>
      <trkpt lat="45.80398" lon="4.51911">
        <ele>521</ele>
        <time>2016-08-23T10:01:35Z</time>
      </trkpt>
      <trkpt lat="45.80401" lon="4.519">
        <ele>521</ele>
        <time>2016-08-23T10:01:39Z</time>
      </trkpt>
      <trkpt lat="45.80401" lon="4.51897">
        <ele>521</ele>
        <time>2016-08-23T10:01:40Z</time>
      </trkpt>
      <trkpt lat="45.80403" lon="4.51887">
        <ele>520</ele>
        <time>2016-08-23T10:01:43Z</time>
      </trkpt>
      <trkpt lat="45.80404" lon="4.51884">
        <ele>520</ele>
        <time>2016-08-23T10:01:44Z</time>
      </trkpt>
      <trkpt lat="45.80406" lon="4.51874">
        <ele>520</ele>
        <time>2016-08-23T10:01:47Z</time>
      </trkpt>
      <trkpt lat="45.80407" lon="4.5187">
        <ele>520</ele>
        <time>2016-08-23T10:01:48Z</time>
      </trkpt>
      <trkpt lat="45.80408" lon="4.51858">
        <ele>521</ele>
        <time>2016-08-23T10:01:51Z</time>
      </trkpt>
      <trkpt lat="45.80409" lon="4.51854">
        <ele>521</ele>
        <time>2016-08-23T10:01:52Z</time>
      </trkpt>
      <trkpt lat="45.80411" lon="4.51845">
        <ele>522</ele>
        <time>2016-08-23T10:01:54Z</time>
      </trkpt>
      <trkpt lat="45.80411" lon="4.51841">
        <ele>523</ele>
        <time>2016-08-23T10:01:55Z</time>
      </trkpt>
      <trkpt lat="45.80413" lon="4.51832">
        <ele>524</ele>
        <time>2016-08-23T10:01:57Z</time>
      </trkpt>
      <trkpt lat="45.80413" lon="4.51828">
        <ele>524</ele>
        <time>2016-08-23T10:01:58Z</time>
      </trkpt>
      <trkpt lat="45.80415" lon="4.51816">
        <ele>523</ele>
        <time>2016-08-23T10:02:01Z</time>
      </trkpt>
      <trkpt lat="45.80416" lon="4.51812">
        <ele>523</ele>
        <time>2016-08-23T10:02:02Z</time>
      </trkpt>
      <trkpt lat="45.80417" lon="4.51802">
        <ele>532</ele>
        <time>2016-08-23T10:02:05Z</time>
      </trkpt>
      <trkpt lat="45.80418" lon="4.51799">
        <ele>532</ele>
        <time>2016-08-23T10:02:06Z</time>
      </trkpt>
      <trkpt lat="45.80421" lon="4.51786">
        <ele>533</ele>
        <time>2016-08-23T10:02:10Z</time>
      </trkpt>
      <trkpt lat="45.80422" lon="4.51783">
        <ele>533</ele>
        <time>2016-08-23T10:02:11Z</time>
      </trkpt>
      <trkpt lat="45.80423" lon="4.51771">
        <ele>532</ele>
        <time>2016-08-23T10:02:15Z</time>
      </trkpt>
      <trkpt lat="45.80424" lon="4.51768">
        <ele>532</ele>
        <time>2016-08-23T10:02:16Z</time>
      </trkpt>
      <trkpt lat="45.80425" lon="4.51758">
        <ele>530</ele>
        <time>2016-08-23T10:02:19Z</time>
      </trkpt>
      <trkpt lat="45.80425" lon="4.51755">
        <ele>530</ele>
        <time>2016-08-23T10:02:20Z</time>
      </trkpt>
      <trkpt lat="45.80425" lon="4.51742">
        <ele>531</ele>
        <time>2016-08-23T10:02:24Z</time>
      </trkpt>
      <trkpt lat="45.80426" lon="4.51739">
        <ele>532</ele>
        <time>2016-08-23T10:02:25Z</time>
      </trkpt>
      <trkpt lat="45.80429" lon="4.51729">
        <ele>534</ele>
        <time>2016-08-23T10:02:28Z</time>
      </trkpt>
      <trkpt lat="45.8043" lon="4.51726">
        <ele>535</ele>
        <time>2016-08-23T10:02:29Z</time>
      </trkpt>
      <trkpt lat="45.80432" lon="4.51716">
        <ele>535</ele>
        <time>2016-08-23T10:02:32Z</time>
      </trkpt>
      <trkpt lat="45.80433" lon="4.51713">
        <ele>536</ele>
        <time>2016-08-23T10:02:33Z</time>
      </trkpt>
      <trkpt lat="45.80435" lon="4.51703">
        <ele>536</ele>
        <time>2016-08-23T10:02:36Z</time>
      </trkpt>
      <trkpt lat="45.80435" lon="4.517">
        <ele>536</ele>
        <time>2016-08-23T10:02:37Z</time>
      </trkpt>
      <trkpt lat="45.80436" lon="4.5169">
        <ele>536</ele>
        <time>2016-08-23T10:02:40Z</time>
      </trkpt>
      <trkpt lat="45.80437" lon="4.51686">
        <ele>536</ele>
        <time>2016-08-23T10:02:41Z</time>
      </trkpt>
      <trkpt lat="45.80438" lon="4.51677">
        <ele>536</ele>
        <time>2016-08-23T10:02:44Z</time>
      </trkpt>
      <trkpt lat="45.80438" lon="4.51673">
        <ele>536</ele>
        <time>2016-08-23T10:02:45Z</time>
      </trkpt>
      <trkpt lat="45.8044" lon="4.51661">
        <ele>537</ele>
        <time>2016-08-23T10:02:49Z</time>
      </trkpt>
      <trkpt lat="45.80441" lon="4.51658">
        <ele>537</ele>
        <time>2016-08-23T10:02:50Z</time>
      </trkpt>
      <trkpt lat="45.80444" lon="4.51646">
        <ele>538</ele>
        <time>2016-08-23T10:02:54Z</time>
      </trkpt>
      <trkpt lat="45.80444" lon="4.51644">
        <ele>539</ele>
        <time>2016-08-23T10:02:55Z</time>
      </trkpt>
      <trkpt lat="45.80446" lon="4.51632">
        <ele>539</ele>
        <time>2016-08-23T10:02:59Z</time>
      </trkpt>
      <trkpt lat="45.80448" lon="4.51626">
        <ele>539</ele>
        <time>2016-08-23T10:03:00Z</time>
      </trkpt>
      <trkpt lat="45.80451" lon="4.51614">
        <ele>540</ele>
        <time>2016-08-23T10:03:04Z</time>
      </trkpt>
      <trkpt lat="45.8045" lon="4.51611">
        <ele>540</ele>
        <time>2016-08-23T10:03:05Z</time>
      </trkpt>
      <trkpt lat="45.80451" lon="4.51601">
        <ele>540</ele>
        <time>2016-08-23T10:03:08Z</time>
      </trkpt>
      <trkpt lat="45.8045" lon="4.51598">
        <ele>540</ele>
        <time>2016-08-23T10:03:09Z</time>
      </trkpt>
      <trkpt lat="45.80449" lon="4.51586">
        <ele>540</ele>
        <time>2016-08-23T10:03:13Z</time>
      </trkpt>
      <trkpt lat="45.80449" lon="4.51583">
        <ele>541</ele>
        <time>2016-08-23T10:03:14Z</time>
      </trkpt>
      <trkpt lat="45.80446" lon="4.51571">
        <ele>542</ele>
        <time>2016-08-23T10:03:18Z</time>
      </trkpt>
      <trkpt lat="45.80445" lon="4.51569">
        <ele>541</ele>
        <time>2016-08-23T10:03:19Z</time>
      </trkpt>
      <trkpt lat="45.80438" lon="4.51562">
        <ele>541</ele>
        <time>2016-08-23T10:03:22Z</time>
      </trkpt>
      <trkpt lat="45.80437" lon="4.5156">
        <ele>541</ele>
        <time>2016-08-23T10:03:23Z</time>
      </trkpt>
      <trkpt lat="45.80432" lon="4.51553">
        <ele>542</ele>
        <time>2016-08-23T10:03:26Z</time>
      </trkpt>
      <trkpt lat="45.80429" lon="4.5155">
        <ele>542</ele>
        <time>2016-08-23T10:03:27Z</time>
      </trkpt>
      <trkpt lat="45.80423" lon="4.51547">
        <ele>542</ele>
        <time>2016-08-23T10:03:29Z</time>
      </trkpt>
      <trkpt lat="45.8042" lon="4.51546">
        <ele>542</ele>
        <time>2016-08-23T10:03:30Z</time>
      </trkpt>
      <trkpt lat="45.80412" lon="4.51544">
        <ele>540</ele>
        <time>2016-08-23T10:03:32Z</time>
      </trkpt>
      <trkpt lat="45.80409" lon="4.51543">
        <ele>541</ele>
        <time>2016-08-23T10:03:33Z</time>
      </trkpt>
      <trkpt lat="45.80402" lon="4.5154">
        <ele>541</ele>
        <time>2016-08-23T10:03:36Z</time>
      </trkpt>
      <trkpt lat="45.80399" lon="4.51539">
        <ele>541</ele>
        <time>2016-08-23T10:03:37Z</time>
      </trkpt>
      <trkpt lat="45.80391" lon="4.51536">
        <ele>541</ele>
        <time>2016-08-23T10:03:41Z</time>
      </trkpt>
      <trkpt lat="45.80388" lon="4.51535">
        <ele>541</ele>
        <time>2016-08-23T10:03:42Z</time>
      </trkpt>
      <trkpt lat="45.80381" lon="4.51536">
        <ele>541</ele>
        <time>2016-08-23T10:03:45Z</time>
      </trkpt>
      <trkpt lat="45.80378" lon="4.51536">
        <ele>542</ele>
        <time>2016-08-23T10:03:46Z</time>
      </trkpt>
      <trkpt lat="45.80371" lon="4.51535">
        <ele>542</ele>
        <time>2016-08-23T10:03:49Z</time>
      </trkpt>
      <trkpt lat="45.80368" lon="4.51535">
        <ele>542</ele>
        <time>2016-08-23T10:03:50Z</time>
      </trkpt>
      <trkpt lat="45.8036" lon="4.51534">
        <ele>542</ele>
        <time>2016-08-23T10:03:54Z</time>
      </trkpt>
      <trkpt lat="45.80359" lon="4.51533">
        <ele>542</ele>
        <time>2016-08-23T10:03:55Z</time>
      </trkpt>
      <trkpt lat="45.8035" lon="4.51532">
        <ele>543</ele>
        <time>2016-08-23T10:03:59Z</time>
      </trkpt>
      <trkpt lat="45.80347" lon="4.51532">
        <ele>543</ele>
        <time>2016-08-23T10:04:00Z</time>
      </trkpt>
      <trkpt lat="45.8034" lon="4.51533">
        <ele>543</ele>
        <time>2016-08-23T10:04:03Z</time>
      </trkpt>
      <trkpt lat="45.80337" lon="4.51533">
        <ele>543</ele>
        <time>2016-08-23T10:04:04Z</time>
      </trkpt>
      <trkpt lat="45.80329" lon="4.51534">
        <ele>548</ele>
        <time>2016-08-23T10:04:08Z</time>
      </trkpt>
      <trkpt lat="45.80328" lon="4.51535">
        <ele>548</ele>
        <time>2016-08-23T10:04:09Z</time>
      </trkpt>
      <trkpt lat="45.8032" lon="4.51537">
        <ele>549</ele>
        <time>2016-08-23T10:04:13Z</time>
      </trkpt>
      <trkpt lat="45.80318" lon="4.51537">
        <ele>549</ele>
        <time>2016-08-23T10:04:14Z</time>
      </trkpt>
      <trkpt lat="45.80311" lon="4.51543">
        <ele>549</ele>
        <time>2016-08-23T10:04:18Z</time>
      </trkpt>
      <trkpt lat="45.80309" lon="4.51544">
        <ele>549</ele>
        <time>2016-08-23T10:04:19Z</time>
      </trkpt>
      <trkpt lat="45.80302" lon="4.51549">
        <ele>549</ele>
        <time>2016-08-23T10:04:22Z</time>
      </trkpt>
      <trkpt lat="45.803" lon="4.5155">
        <ele>549</ele>
        <time>2016-08-23T10:04:23Z</time>
      </trkpt>
      <trkpt lat="45.80294" lon="4.51557">
        <ele>549</ele>
        <time>2016-08-23T10:04:27Z</time>
      </trkpt>
      <trkpt lat="45.80292" lon="4.51559">
        <ele>549</ele>
        <time>2016-08-23T10:04:28Z</time>
      </trkpt>
      <trkpt lat="45.80286" lon="4.51568">
        <ele>549</ele>
        <time>2016-08-23T10:04:32Z</time>
      </trkpt>
      <trkpt lat="45.80284" lon="4.51571">
        <ele>549</ele>
        <time>2016-08-23T10:04:33Z</time>
      </trkpt>
      <trkpt lat="45.80279" lon="4.5158">
        <ele>550</ele>
        <time>2016-08-23T10:04:37Z</time>
      </trkpt>
      <trkpt lat="45.80278" lon="4.51583">
        <ele>550</ele>
        <time>2016-08-23T10:04:38Z</time>
      </trkpt>
      <trkpt lat="45.80273" lon="4.51593">
        <ele>544</ele>
        <time>2016-08-23T10:04:42Z</time>
      </trkpt>
      <trkpt lat="45.80272" lon="4.51595">
        <ele>544</ele>
        <time>2016-08-23T10:04:43Z</time>
      </trkpt>
      <trkpt lat="45.80265" lon="4.51603">
        <ele>545</ele>
        <time>2016-08-23T10:04:47Z</time>
      </trkpt>
      <trkpt lat="45.80263" lon="4.51604">
        <ele>545</ele>
        <time>2016-08-23T10:04:48Z</time>
      </trkpt>
      <trkpt lat="45.80258" lon="4.51611">
        <ele>544</ele>
        <time>2016-08-23T10:04:51Z</time>
      </trkpt>
      <trkpt lat="45.80256" lon="4.51612">
        <ele>544</ele>
        <time>2016-08-23T10:04:52Z</time>
      </trkpt>
      <trkpt lat="45.8025" lon="4.51622">
        <ele>551</ele>
        <time>2016-08-23T10:04:56Z</time>
      </trkpt>
      <trkpt lat="45.80249" lon="4.51624">
        <ele>551</ele>
        <time>2016-08-23T10:04:57Z</time>
      </trkpt>
      <trkpt lat="45.80242" lon="4.51632">
        <ele>551</ele>
        <time>2016-08-23T10:05:01Z</time>
      </trkpt>
      <trkpt lat="45.8024" lon="4.51633">
        <ele>551</ele>
        <time>2016-08-23T10:05:02Z</time>
      </trkpt>
      <trkpt lat="45.80235" lon="4.51641">
        <ele>550</ele>
        <time>2016-08-23T10:05:05Z</time>
      </trkpt>
      <trkpt lat="45.80233" lon="4.51645">
        <ele>550</ele>
        <time>2016-08-23T10:05:06Z</time>
      </trkpt>
      <trkpt lat="45.80227" lon="4.51653">
        <ele>550</ele>
        <time>2016-08-23T10:05:09Z</time>
      </trkpt>
      <trkpt lat="45.80225" lon="4.51655">
        <ele>550</ele>
        <time>2016-08-23T10:05:10Z</time>
      </trkpt>
      <trkpt lat="45.80219" lon="4.51662">
        <ele>551</ele>
        <time>2016-08-23T10:05:13Z</time>
      </trkpt>
      <trkpt lat="45.80217" lon="4.51664">
        <ele>551</ele>
        <time>2016-08-23T10:05:14Z</time>
      </trkpt>
      <trkpt lat="45.80211" lon="4.51669">
        <ele>545</ele>
        <time>2016-08-23T10:05:17Z</time>
      </trkpt>
      <trkpt lat="45.80209" lon="4.51671">
        <ele>545</ele>
        <time>2016-08-23T10:05:18Z</time>
      </trkpt>
      <trkpt lat="45.80202" lon="4.51676">
        <ele>546</ele>
        <time>2016-08-23T10:05:22Z</time>
      </trkpt>
      <trkpt lat="45.802" lon="4.51678">
        <ele>546</ele>
        <time>2016-08-23T10:05:23Z</time>
      </trkpt>
      <trkpt lat="45.80195" lon="4.51686">
        <ele>546</ele>
        <time>2016-08-23T10:05:26Z</time>
      </trkpt>
      <trkpt lat="45.80193" lon="4.51688">
        <ele>546</ele>
        <time>2016-08-23T10:05:27Z</time>
      </trkpt>
      <trkpt lat="45.80186" lon="4.51694">
        <ele>547</ele>
        <time>2016-08-23T10:05:30Z</time>
      </trkpt>
      <trkpt lat="45.80183" lon="4.51696">
        <ele>547</ele>
        <time>2016-08-23T10:05:31Z</time>
      </trkpt>
      <trkpt lat="45.80178" lon="4.51705">
        <ele>546</ele>
        <time>2016-08-23T10:05:35Z</time>
      </trkpt>
      <trkpt lat="45.80176" lon="4.51707">
        <ele>546</ele>
        <time>2016-08-23T10:05:36Z</time>
      </trkpt>
      <trkpt lat="45.8017" lon="4.51715">
        <ele>545</ele>
        <time>2016-08-23T10:05:41Z</time>
      </trkpt>
      <trkpt lat="45.80168" lon="4.51715">
        <ele>545</ele>
        <time>2016-08-23T10:05:42Z</time>
      </trkpt>
      <trkpt lat="45.8016" lon="4.51719">
        <ele>550</ele>
        <time>2016-08-23T10:05:46Z</time>
      </trkpt>
      <trkpt lat="45.80158" lon="4.5172">
        <ele>550</ele>
        <time>2016-08-23T10:05:47Z</time>
      </trkpt>
      <trkpt lat="45.80151" lon="4.5172">
        <ele>550</ele>
        <time>2016-08-23T10:05:50Z</time>
      </trkpt>
      <trkpt lat="45.80148" lon="4.5172">
        <ele>550</ele>
        <time>2016-08-23T10:05:51Z</time>
      </trkpt>
      <trkpt lat="45.8014" lon="4.51718">
        <ele>550</ele>
        <time>2016-08-23T10:05:54Z</time>
      </trkpt>
      <trkpt lat="45.80137" lon="4.51717">
        <ele>550</ele>
        <time>2016-08-23T10:05:55Z</time>
      </trkpt>
      <trkpt lat="45.8013" lon="4.51713">
        <ele>551</ele>
        <time>2016-08-23T10:06:00Z</time>
      </trkpt>
      <trkpt lat="45.80128" lon="4.51712">
        <ele>551</ele>
        <time>2016-08-23T10:06:01Z</time>
      </trkpt>
      <trkpt lat="45.80124" lon="4.51702">
        <ele>551</ele>
        <time>2016-08-23T10:06:06Z</time>
      </trkpt>
      <trkpt lat="45.80123" lon="4.51699">
        <ele>551</ele>
        <time>2016-08-23T10:06:07Z</time>
      </trkpt>
      <trkpt lat="45.8012" lon="4.51687">
        <ele>552</ele>
        <time>2016-08-23T10:06:11Z</time>
      </trkpt>
      <trkpt lat="45.80119" lon="4.51685">
        <ele>552</ele>
        <time>2016-08-23T10:06:12Z</time>
      </trkpt>
      <trkpt lat="45.80114" lon="4.51677">
        <ele>552</ele>
        <time>2016-08-23T10:06:15Z</time>
      </trkpt>
      <trkpt lat="45.80114" lon="4.51674">
        <ele>552</ele>
        <time>2016-08-23T10:06:16Z</time>
      </trkpt>
      <trkpt lat="45.80112" lon="4.51662">
        <ele>555</ele>
        <time>2016-08-23T10:06:20Z</time>
      </trkpt>
      <trkpt lat="45.80112" lon="4.51659">
        <ele>555</ele>
        <time>2016-08-23T10:06:21Z</time>
      </trkpt>
      <trkpt lat="45.80109" lon="4.51648">
        <ele>555</ele>
        <time>2016-08-23T10:06:25Z</time>
      </trkpt>
      <trkpt lat="45.80108" lon="4.51645">
        <ele>555</ele>
        <time>2016-08-23T10:06:26Z</time>
      </trkpt>
      <trkpt lat="45.80104" lon="4.51634">
        <ele>555</ele>
        <time>2016-08-23T10:06:30Z</time>
      </trkpt>
      <trkpt lat="45.80104" lon="4.51631">
        <ele>555</ele>
        <time>2016-08-23T10:06:31Z</time>
      </trkpt>
      <trkpt lat="45.80099" lon="4.51621">
        <ele>555</ele>
        <time>2016-08-23T10:06:35Z</time>
      </trkpt>
      <trkpt lat="45.80098" lon="4.51619">
        <ele>556</ele>
        <time>2016-08-23T10:06:36Z</time>
      </trkpt>
      <trkpt lat="45.80095" lon="4.51609">
        <ele>556</ele>
        <time>2016-08-23T10:06:40Z</time>
      </trkpt>
      <trkpt lat="45.80095" lon="4.51605">
        <ele>556</ele>
        <time>2016-08-23T10:06:41Z</time>
      </trkpt>
      <trkpt lat="45.80091" lon="4.51594">
        <ele>556</ele>
        <time>2016-08-23T10:06:45Z</time>
      </trkpt>
      <trkpt lat="45.8009" lon="4.51591">
        <ele>555</ele>
        <time>2016-08-23T10:06:46Z</time>
      </trkpt>
      <trkpt lat="45.80087" lon="4.5158">
        <ele>556</ele>
        <time>2016-08-23T10:06:50Z</time>
      </trkpt>
      <trkpt lat="45.80086" lon="4.51577">
        <ele>556</ele>
        <time>2016-08-23T10:06:51Z</time>
      </trkpt>
      <trkpt lat="45.80085" lon="4.51566">
        <ele>557</ele>
        <time>2016-08-23T10:06:55Z</time>
      </trkpt>
      <trkpt lat="45.80086" lon="4.51563">
        <ele>558</ele>
        <time>2016-08-23T10:06:56Z</time>
      </trkpt>
      <trkpt lat="45.80087" lon="4.51551">
        <ele>558</ele>
        <time>2016-08-23T10:07:00Z</time>
      </trkpt>
      <trkpt lat="45.80087" lon="4.51548">
        <ele>558</ele>
        <time>2016-08-23T10:07:01Z</time>
      </trkpt>
      <trkpt lat="45.80088" lon="4.51538">
        <ele>558</ele>
        <time>2016-08-23T10:07:04Z</time>
      </trkpt>
      <trkpt lat="45.80088" lon="4.51535">
        <ele>558</ele>
        <time>2016-08-23T10:07:05Z</time>
      </trkpt>
      <trkpt lat="45.80092" lon="4.51526">
        <ele>558</ele>
        <time>2016-08-23T10:07:08Z</time>
      </trkpt>
      <trkpt lat="45.80093" lon="4.51523">
        <ele>558</ele>
        <time>2016-08-23T10:07:09Z</time>
      </trkpt>
      <trkpt lat="45.80097" lon="4.51514">
        <ele>558</ele>
        <time>2016-08-23T10:07:12Z</time>
      </trkpt>
      <trkpt lat="45.80099" lon="4.51512">
        <ele>558</ele>
        <time>2016-08-23T10:07:13Z</time>
      </trkpt>
      <trkpt lat="45.80105" lon="4.51503">
        <ele>559</ele>
        <time>2016-08-23T10:07:17Z</time>
      </trkpt>
      <trkpt lat="45.80107" lon="4.51501">
        <ele>559</ele>
        <time>2016-08-23T10:07:18Z</time>
      </trkpt>
      <trkpt lat="45.80113" lon="4.51492">
        <ele>558</ele>
        <time>2016-08-23T10:07:22Z</time>
      </trkpt>
      <trkpt lat="45.80115" lon="4.51491">
        <ele>558</ele>
        <time>2016-08-23T10:07:23Z</time>
      </trkpt>
      <trkpt lat="45.8012" lon="4.51485">
        <ele>558</ele>
        <time>2016-08-23T10:07:26Z</time>
      </trkpt>
      <trkpt lat="45.80122" lon="4.51483">
        <ele>558</ele>
        <time>2016-08-23T10:07:27Z</time>
      </trkpt>
      <trkpt lat="45.80129" lon="4.51477">
        <ele>559</ele>
        <time>2016-08-23T10:07:31Z</time>
      </trkpt>
      <trkpt lat="45.80131" lon="4.51476">
        <ele>559</ele>
        <time>2016-08-23T10:07:32Z</time>
      </trkpt>
      <trkpt lat="45.80139" lon="4.51473">
        <ele>559</ele>
        <time>2016-08-23T10:07:36Z</time>
      </trkpt>
      <trkpt lat="45.8014" lon="4.51471">
        <ele>559</ele>
        <time>2016-08-23T10:07:37Z</time>
      </trkpt>
      <trkpt lat="45.80149" lon="4.51467">
        <ele>559</ele>
        <time>2016-08-23T10:07:41Z</time>
      </trkpt>
      <trkpt lat="45.80151" lon="4.51467">
        <ele>560</ele>
        <time>2016-08-23T10:07:42Z</time>
      </trkpt>
      <trkpt lat="45.80158" lon="4.51466">
        <ele>560</ele>
        <time>2016-08-23T10:07:46Z</time>
      </trkpt>
      <trkpt lat="45.80161" lon="4.51465">
        <ele>560</ele>
        <time>2016-08-23T10:07:47Z</time>
      </trkpt>
      <trkpt lat="45.80169" lon="4.51464">
        <ele>564</ele>
        <time>2016-08-23T10:07:51Z</time>
      </trkpt>
      <trkpt lat="45.80171" lon="4.51464">
        <ele>564</ele>
        <time>2016-08-23T10:07:52Z</time>
      </trkpt>
      <trkpt lat="45.80178" lon="4.51462">
        <ele>564</ele>
        <time>2016-08-23T10:07:55Z</time>
      </trkpt>
      <trkpt lat="45.8018" lon="4.51462">
        <ele>564</ele>
        <time>2016-08-23T10:07:56Z</time>
      </trkpt>
      <trkpt lat="45.80188" lon="4.51461">
        <ele>564</ele>
        <time>2016-08-23T10:08:00Z</time>
      </trkpt>
      <trkpt lat="45.8019" lon="4.5146">
        <ele>564</ele>
        <time>2016-08-23T10:08:01Z</time>
      </trkpt>
      <trkpt lat="45.80198" lon="4.51458">
        <ele>564</ele>
        <time>2016-08-23T10:08:05Z</time>
      </trkpt>
      <trkpt lat="45.802" lon="4.51457">
        <ele>564</ele>
        <time>2016-08-23T10:08:06Z</time>
      </trkpt>
      <trkpt lat="45.80207" lon="4.51455">
        <ele>564</ele>
        <time>2016-08-23T10:08:09Z</time>
      </trkpt>
      <trkpt lat="45.80209" lon="4.51454">
        <ele>565</ele>
        <time>2016-08-23T10:08:10Z</time>
      </trkpt>
      <trkpt lat="45.80216" lon="4.51448">
        <ele>565</ele>
        <time>2016-08-23T10:08:14Z</time>
      </trkpt>
      <trkpt lat="45.80217" lon="4.51446">
        <ele>565</ele>
        <time>2016-08-23T10:08:15Z</time>
      </trkpt>
      <trkpt lat="45.80222" lon="4.51438">
        <ele>565</ele>
        <time>2016-08-23T10:08:19Z</time>
      </trkpt>
      <trkpt lat="45.80224" lon="4.51435">
        <ele>565</ele>
        <time>2016-08-23T10:08:20Z</time>
      </trkpt>
      <trkpt lat="45.80227" lon="4.51425">
        <ele>566</ele>
        <time>2016-08-23T10:08:24Z</time>
      </trkpt>
      <trkpt lat="45.80228" lon="4.51421">
        <ele>566</ele>
        <time>2016-08-23T10:08:25Z</time>
      </trkpt>
      <trkpt lat="45.80228" lon="4.51411">
        <ele>567</ele>
        <time>2016-08-23T10:08:28Z</time>
      </trkpt>
      <trkpt lat="45.80228" lon="4.51408">
        <ele>567</ele>
        <time>2016-08-23T10:08:29Z</time>
      </trkpt>
      <trkpt lat="45.80228" lon="4.51399">
        <ele>567</ele>
        <time>2016-08-23T10:08:32Z</time>
      </trkpt>
      <trkpt lat="45.80228" lon="4.51395">
        <ele>567</ele>
        <time>2016-08-23T10:08:33Z</time>
      </trkpt>
      <trkpt lat="45.80228" lon="4.51383">
        <ele>568</ele>
        <time>2016-08-23T10:08:37Z</time>
      </trkpt>
      <trkpt lat="45.80228" lon="4.5138">
        <ele>568</ele>
        <time>2016-08-23T10:08:38Z</time>
      </trkpt>
      <trkpt lat="45.80227" lon="4.51368">
        <ele>568</ele>
        <time>2016-08-23T10:08:42Z</time>
      </trkpt>
      <trkpt lat="45.80226" lon="4.51365">
        <ele>568</ele>
        <time>2016-08-23T10:08:43Z</time>
      </trkpt>
      <trkpt lat="45.80225" lon="4.51355">
        <ele>569</ele>
        <time>2016-08-23T10:08:46Z</time>
      </trkpt>
      <trkpt lat="45.80224" lon="4.51352">
        <ele>569</ele>
        <time>2016-08-23T10:08:47Z</time>
      </trkpt>
      <trkpt lat="45.80223" lon="4.51342">
        <ele>569</ele>
        <time>2016-08-23T10:08:50Z</time>
      </trkpt>
      <trkpt lat="45.80223" lon="4.51339">
        <ele>569</ele>
        <time>2016-08-23T10:08:51Z</time>
      </trkpt>
      <trkpt lat="45.80222" lon="4.51326">
        <ele>572</ele>
        <time>2016-08-23T10:08:55Z</time>
      </trkpt>
      <trkpt lat="45.80222" lon="4.51323">
        <ele>572</ele>
        <time>2016-08-23T10:08:56Z</time>
      </trkpt>
      <trkpt lat="45.8022" lon="4.51313">
        <ele>572</ele>
        <time>2016-08-23T10:08:59Z</time>
      </trkpt>
      <trkpt lat="45.8022" lon="4.5131">
        <ele>572</ele>
        <time>2016-08-23T10:09:00Z</time>
      </trkpt>
      <trkpt lat="45.80218" lon="4.51298">
        <ele>572</ele>
        <time>2016-08-23T10:09:04Z</time>
      </trkpt>
      <trkpt lat="45.80218" lon="4.51295">
        <ele>572</ele>
        <time>2016-08-23T10:09:05Z</time>
      </trkpt>
      <trkpt lat="45.80218" lon="4.51282">
        <ele>573</ele>
        <time>2016-08-23T10:09:09Z</time>
      </trkpt>
      <trkpt lat="45.80218" lon="4.51278">
        <ele>573</ele>
        <time>2016-08-23T10:09:10Z</time>
      </trkpt>
      <trkpt lat="45.80217" lon="4.51268">
        <ele>573</ele>
        <time>2016-08-23T10:09:13Z</time>
      </trkpt>
      <trkpt lat="45.80217" lon="4.51265">
        <ele>573</ele>
        <time>2016-08-23T10:09:14Z</time>
      </trkpt>
      <trkpt lat="45.80217" lon="4.51254">
        <ele>574</ele>
        <time>2016-08-23T10:09:18Z</time>
      </trkpt>
      <trkpt lat="45.80217" lon="4.51251">
        <ele>574</ele>
        <time>2016-08-23T10:09:19Z</time>
      </trkpt>
      <trkpt lat="45.80218" lon="4.51238">
        <ele>576</ele>
        <time>2016-08-23T10:09:23Z</time>
      </trkpt>
      <trkpt lat="45.80218" lon="4.51235">
        <ele>576</ele>
        <time>2016-08-23T10:09:24Z</time>
      </trkpt>
      <trkpt lat="45.8022" lon="4.51225">
        <ele>576</ele>
        <time>2016-08-23T10:09:27Z</time>
      </trkpt>
      <trkpt lat="45.80221" lon="4.51222">
        <ele>576</ele>
        <time>2016-08-23T10:09:28Z</time>
      </trkpt>
      <trkpt lat="45.80223" lon="4.51212">
        <ele>576</ele>
        <time>2016-08-23T10:09:31Z</time>
      </trkpt>
      <trkpt lat="45.80223" lon="4.51209">
        <ele>576</ele>
        <time>2016-08-23T10:09:32Z</time>
      </trkpt>
      <trkpt lat="45.80224" lon="4.51196">
        <ele>577</ele>
        <time>2016-08-23T10:09:36Z</time>
      </trkpt>
      <trkpt lat="45.80224" lon="4.51194">
        <ele>577</ele>
        <time>2016-08-23T10:09:37Z</time>
      </trkpt>
      <trkpt lat="45.80227" lon="4.51182">
        <ele>578</ele>
        <time>2016-08-23T10:09:41Z</time>
      </trkpt>
      <trkpt lat="45.80228" lon="4.5118">
        <ele>579</ele>
        <time>2016-08-23T10:09:42Z</time>
      </trkpt>
      <trkpt lat="45.8023" lon="4.51169">
        <ele>580</ele>
        <time>2016-08-23T10:09:46Z</time>
      </trkpt>
      <trkpt lat="45.8023" lon="4.51166">
        <ele>581</ele>
        <time>2016-08-23T10:09:47Z</time>
      </trkpt>
      <trkpt lat="45.80232" lon="4.51154">
        <ele>581</ele>
        <time>2016-08-23T10:09:51Z</time>
      </trkpt>
      <trkpt lat="45.80233" lon="4.51151">
        <ele>581</ele>
        <time>2016-08-23T10:09:52Z</time>
      </trkpt>
      <trkpt lat="45.80235" lon="4.51139">
        <ele>581</ele>
        <time>2016-08-23T10:09:56Z</time>
      </trkpt>
      <trkpt lat="45.80236" lon="4.51136">
        <ele>581</ele>
        <time>2016-08-23T10:09:57Z</time>
      </trkpt>
      <trkpt lat="45.80238" lon="4.51126">
        <ele>581</ele>
        <time>2016-08-23T10:10:00Z</time>
      </trkpt>
      <trkpt lat="45.80239" lon="4.51123">
        <ele>581</ele>
        <time>2016-08-23T10:10:01Z</time>
      </trkpt>
      <trkpt lat="45.80241" lon="4.5111">
        <ele>582</ele>
        <time>2016-08-23T10:10:05Z</time>
      </trkpt>
      <trkpt lat="45.80241" lon="4.51107">
        <ele>583</ele>
        <time>2016-08-23T10:10:06Z</time>
      </trkpt>
      <trkpt lat="45.8024" lon="4.51095">
        <ele>585</ele>
        <time>2016-08-23T10:10:10Z</time>
      </trkpt>
      <trkpt lat="45.80239" lon="4.51092">
        <ele>585</ele>
        <time>2016-08-23T10:10:11Z</time>
      </trkpt>
      <trkpt lat="45.80235" lon="4.51082">
        <ele>587</ele>
        <time>2016-08-23T10:10:15Z</time>
      </trkpt>
      <trkpt lat="45.80234" lon="4.5108">
        <ele>587</ele>
        <time>2016-08-23T10:10:16Z</time>
      </trkpt>
      <trkpt lat="45.80231" lon="4.5107">
        <ele>586</ele>
        <time>2016-08-23T10:10:19Z</time>
      </trkpt>
      <trkpt lat="45.80231" lon="4.51068">
        <ele>586</ele>
        <time>2016-08-23T10:10:20Z</time>
      </trkpt>
      <trkpt lat="45.80227" lon="4.51057">
        <ele>585</ele>
        <time>2016-08-23T10:10:24Z</time>
      </trkpt>
      <trkpt lat="45.80227" lon="4.51054">
        <ele>585</ele>
        <time>2016-08-23T10:10:25Z</time>
      </trkpt>
      <trkpt lat="45.80226" lon="4.51043">
        <ele>585</ele>
        <time>2016-08-23T10:10:29Z</time>
      </trkpt>
      <trkpt lat="45.80226" lon="4.51039">
        <ele>585</ele>
        <time>2016-08-23T10:10:30Z</time>
      </trkpt>
      <trkpt lat="45.80227" lon="4.51029">
        <ele>586</ele>
        <time>2016-08-23T10:10:33Z</time>
      </trkpt>
      <trkpt lat="45.80226" lon="4.51025">
        <ele>586</ele>
        <time>2016-08-23T10:10:34Z</time>
      </trkpt>
      <trkpt lat="45.80225" lon="4.51013">
        <ele>587</ele>
        <time>2016-08-23T10:10:38Z</time>
      </trkpt>
      <trkpt lat="45.80225" lon="4.51011">
        <ele>588</ele>
        <time>2016-08-23T10:10:39Z</time>
      </trkpt>
      <trkpt lat="45.80225" lon="4.50998">
        <ele>593</ele>
        <time>2016-08-23T10:10:43Z</time>
      </trkpt>
      <trkpt lat="45.80224" lon="4.50995">
        <ele>593</ele>
        <time>2016-08-23T10:10:44Z</time>
      </trkpt>
      <trkpt lat="45.80224" lon="4.50985">
        <ele>593</ele>
        <time>2016-08-23T10:10:47Z</time>
      </trkpt>
      <trkpt lat="45.80225" lon="4.50981">
        <ele>593</ele>
        <time>2016-08-23T10:10:48Z</time>
      </trkpt>
      <trkpt lat="45.80225" lon="4.50969">
        <ele>593</ele>
        <time>2016-08-23T10:10:52Z</time>
      </trkpt>
      <trkpt lat="45.80225" lon="4.50966">
        <ele>593</ele>
        <time>2016-08-23T10:10:53Z</time>
      </trkpt>
      <trkpt lat="45.80227" lon="4.50955">
        <ele>593</ele>
        <time>2016-08-23T10:10:57Z</time>
      </trkpt>
      <trkpt lat="45.80227" lon="4.50952">
        <ele>594</ele>
        <time>2016-08-23T10:10:58Z</time>
      </trkpt>
      <trkpt lat="45.80229" lon="4.5094">
        <ele>595</ele>
        <time>2016-08-23T10:11:02Z</time>
      </trkpt>
      <trkpt lat="45.8023" lon="4.50938">
        <ele>595</ele>
        <time>2016-08-23T10:11:03Z</time>
      </trkpt>
      <trkpt lat="45.80231" lon="4.50927">
        <ele>597</ele>
        <time>2016-08-23T10:11:07Z</time>
      </trkpt>
      <trkpt lat="45.80231" lon="4.50925">
        <ele>597</ele>
        <time>2016-08-23T10:11:08Z</time>
      </trkpt>
      <trkpt lat="45.80233" lon="4.50912">
        <ele>603</ele>
        <time>2016-08-23T10:11:12Z</time>
      </trkpt>
      <trkpt lat="45.80234" lon="4.5091">
        <ele>603</ele>
        <time>2016-08-23T10:11:13Z</time>
      </trkpt>
      <trkpt lat="45.80237" lon="4.509">
        <ele>604</ele>
        <time>2016-08-23T10:11:17Z</time>
      </trkpt>
      <trkpt lat="45.80238" lon="4.50897">
        <ele>604</ele>
        <time>2016-08-23T10:11:18Z</time>
      </trkpt>
      <trkpt lat="45.80237" lon="4.50886">
        <ele>604</ele>
        <time>2016-08-23T10:11:22Z</time>
      </trkpt>
      <trkpt lat="45.80236" lon="4.50883">
        <ele>605</ele>
        <time>2016-08-23T10:11:23Z</time>
      </trkpt>
      <trkpt lat="45.80231" lon="4.50875">
        <ele>605</ele>
        <time>2016-08-23T10:11:26Z</time>
      </trkpt>
      <trkpt lat="45.8023" lon="4.50872">
        <ele>605</ele>
        <time>2016-08-23T10:11:27Z</time>
      </trkpt>
      <trkpt lat="45.80223" lon="4.50867">
        <ele>605</ele>
        <time>2016-08-23T10:11:30Z</time>
      </trkpt>
      <trkpt lat="45.80219" lon="4.50864">
        <ele>605</ele>
        <time>2016-08-23T10:11:31Z</time>
      </trkpt>
      <trkpt lat="45.80211" lon="4.50861">
        <ele>605</ele>
        <time>2016-08-23T10:11:34Z</time>
      </trkpt>
      <trkpt lat="45.80208" lon="4.5086">
        <ele>605</ele>
        <time>2016-08-23T10:11:35Z</time>
      </trkpt>
      <trkpt lat="45.80201" lon="4.50857">
        <ele>605</ele>
        <time>2016-08-23T10:11:38Z</time>
      </trkpt>
      <trkpt lat="45.80199" lon="4.50857">
        <ele>605</ele>
        <time>2016-08-23T10:11:39Z</time>
      </trkpt>
      <trkpt lat="45.80191" lon="4.50856">
        <ele>605</ele>
        <time>2016-08-23T10:11:43Z</time>
      </trkpt>
      <trkpt lat="45.80189" lon="4.50857">
        <ele>605</ele>
        <time>2016-08-23T10:11:44Z</time>
      </trkpt>
      <trkpt lat="45.80181" lon="4.50859">
        <ele>605</ele>
        <time>2016-08-23T10:11:48Z</time>
      </trkpt>
      <trkpt lat="45.80179" lon="4.50859">
        <ele>605</ele>
        <time>2016-08-23T10:11:49Z</time>
      </trkpt>
      <trkpt lat="45.80171" lon="4.5086">
        <ele>605</ele>
        <time>2016-08-23T10:11:53Z</time>
      </trkpt>
      <trkpt lat="45.80169" lon="4.50861">
        <ele>604</ele>
        <time>2016-08-23T10:11:54Z</time>
      </trkpt>
      <trkpt lat="45.80161" lon="4.5086">
        <ele>603</ele>
        <time>2016-08-23T10:11:58Z</time>
      </trkpt>
      <trkpt lat="45.80159" lon="4.50859">
        <ele>604</ele>
        <time>2016-08-23T10:11:59Z</time>
      </trkpt>
      <trkpt lat="45.80152" lon="4.50857">
        <ele>604</ele>
        <time>2016-08-23T10:12:03Z</time>
      </trkpt>
      <trkpt lat="45.8015" lon="4.50858">
        <ele>604</ele>
        <time>2016-08-23T10:12:04Z</time>
      </trkpt>
      <trkpt lat="45.80141" lon="4.50855">
        <ele>604</ele>
        <time>2016-08-23T10:12:08Z</time>
      </trkpt>
      <trkpt lat="45.80139" lon="4.50855">
        <ele>604</ele>
        <time>2016-08-23T10:12:09Z</time>
      </trkpt>
      <trkpt lat="45.80132" lon="4.50856">
        <ele>604</ele>
        <time>2016-08-23T10:12:12Z</time>
      </trkpt>
      <trkpt lat="45.8013" lon="4.50856">
        <ele>604</ele>
        <time>2016-08-23T10:12:13Z</time>
      </trkpt>
      <trkpt lat="45.80122" lon="4.50854">
        <ele>604</ele>
        <time>2016-08-23T10:12:17Z</time>
      </trkpt>
      <trkpt lat="45.80119" lon="4.50854">
        <ele>604</ele>
        <time>2016-08-23T10:12:18Z</time>
      </trkpt>
      <trkpt lat="45.80111" lon="4.50852">
        <ele>605</ele>
        <time>2016-08-23T10:12:21Z</time>
      </trkpt>
      <trkpt lat="45.80109" lon="4.50852">
        <ele>605</ele>
        <time>2016-08-23T10:12:22Z</time>
      </trkpt>
      <trkpt lat="45.80101" lon="4.50851">
        <ele>606</ele>
        <time>2016-08-23T10:12:24Z</time>
      </trkpt>
      <trkpt lat="45.80099" lon="4.50851">
        <ele>606</ele>
        <time>2016-08-23T10:12:25Z</time>
      </trkpt>
      <trkpt lat="45.80091" lon="4.50851">
        <ele>607</ele>
        <time>2016-08-23T10:12:28Z</time>
      </trkpt>
      <trkpt lat="45.80089" lon="4.50851">
        <ele>607</ele>
        <time>2016-08-23T10:12:29Z</time>
      </trkpt>
      <trkpt lat="45.80082" lon="4.50851">
        <ele>608</ele>
        <time>2016-08-23T10:12:32Z</time>
      </trkpt>
      <trkpt lat="45.8008" lon="4.50851">
        <ele>608</ele>
        <time>2016-08-23T10:12:33Z</time>
      </trkpt>
      <trkpt lat="45.80072" lon="4.50853">
        <ele>607</ele>
        <time>2016-08-23T10:12:37Z</time>
      </trkpt>
      <trkpt lat="45.80071" lon="4.50853">
        <ele>606</ele>
        <time>2016-08-23T10:12:38Z</time>
      </trkpt>
      <trkpt lat="45.80063" lon="4.50855">
        <ele>605</ele>
        <time>2016-08-23T10:12:42Z</time>
      </trkpt>
      <trkpt lat="45.8006" lon="4.50855">
        <ele>605</ele>
        <time>2016-08-23T10:12:43Z</time>
      </trkpt>
      <trkpt lat="45.80052" lon="4.50856">
        <ele>604</ele>
        <time>2016-08-23T10:12:48Z</time>
      </trkpt>
      <trkpt lat="45.8005" lon="4.50858">
        <ele>604</ele>
        <time>2016-08-23T10:12:49Z</time>
      </trkpt>
      <trkpt lat="45.80041" lon="4.50857">
        <ele>604</ele>
        <time>2016-08-23T10:12:53Z</time>
      </trkpt>
      <trkpt lat="45.80041" lon="4.50857">
        <ele>604</ele>
        <time>2016-08-23T10:12:54Z</time>
      </trkpt>
      <trkpt lat="45.80034" lon="4.50858">
        <ele>603</ele>
        <time>2016-08-23T10:12:59Z</time>
      </trkpt>
      <trkpt lat="45.80031" lon="4.50857">
        <ele>603</ele>
        <time>2016-08-23T10:13:00Z</time>
      </trkpt>
      <trkpt lat="45.80024" lon="4.50855">
        <ele>603</ele>
        <time>2016-08-23T10:13:03Z</time>
      </trkpt>
      <trkpt lat="45.80021" lon="4.50854">
        <ele>603</ele>
        <time>2016-08-23T10:13:04Z</time>
      </trkpt>
      <trkpt lat="45.80015" lon="4.50851">
        <ele>604</ele>
        <time>2016-08-23T10:13:07Z</time>
      </trkpt>
      <trkpt lat="45.80012" lon="4.50849">
        <ele>604</ele>
        <time>2016-08-23T10:13:08Z</time>
      </trkpt>
      <trkpt lat="45.80005" lon="4.50845">
        <ele>604</ele>
        <time>2016-08-23T10:13:11Z</time>
      </trkpt>
      <trkpt lat="45.80003" lon="4.50844">
        <ele>605</ele>
        <time>2016-08-23T10:13:12Z</time>
      </trkpt>
      <trkpt lat="45.79997" lon="4.5084">
        <ele>604</ele>
        <time>2016-08-23T10:13:16Z</time>
      </trkpt>
      <trkpt lat="45.79995" lon="4.50838">
        <ele>604</ele>
        <time>2016-08-23T10:13:17Z</time>
      </trkpt>
      <trkpt lat="45.79988" lon="4.50837">
        <ele>602</ele>
        <time>2016-08-23T10:13:20Z</time>
      </trkpt>
      <trkpt lat="45.79985" lon="4.50836">
        <ele>602</ele>
        <time>2016-08-23T10:13:21Z</time>
      </trkpt>
      <trkpt lat="45.79977" lon="4.50831">
        <ele>605</ele>
        <time>2016-08-23T10:13:25Z</time>
      </trkpt>
      <trkpt lat="45.79975" lon="4.5083">
        <ele>605</ele>
        <time>2016-08-23T10:13:26Z</time>
      </trkpt>
      <trkpt lat="45.7997" lon="4.50823">
        <ele>605</ele>
        <time>2016-08-23T10:13:30Z</time>
      </trkpt>
      <trkpt lat="45.79969" lon="4.50821">
        <ele>605</ele>
        <time>2016-08-23T10:13:31Z</time>
      </trkpt>
      <trkpt lat="45.79965" lon="4.50812">
        <ele>605</ele>
        <time>2016-08-23T10:13:34Z</time>
      </trkpt>
      <trkpt lat="45.79963" lon="4.50809">
        <ele>605</ele>
        <time>2016-08-23T10:13:35Z</time>
      </trkpt>
      <trkpt lat="45.79959" lon="4.50799">
        <ele>605</ele>
        <time>2016-08-23T10:13:38Z</time>
      </trkpt>
      <trkpt lat="45.79958" lon="4.50796">
        <ele>605</ele>
        <time>2016-08-23T10:13:39Z</time>
      </trkpt>
      <trkpt lat="45.79956" lon="4.50784">
        <ele>605</ele>
        <time>2016-08-23T10:13:43Z</time>
      </trkpt>
      <trkpt lat="45.79956" lon="4.5078">
        <ele>606</ele>
        <time>2016-08-23T10:13:44Z</time>
      </trkpt>
      <trkpt lat="45.79956" lon="4.5077">
        <ele>606</ele>
        <time>2016-08-23T10:13:47Z</time>
      </trkpt>
      <trkpt lat="45.79956" lon="4.50767">
        <ele>606</ele>
        <time>2016-08-23T10:13:48Z</time>
      </trkpt>
      <trkpt lat="45.79957" lon="4.50756">
        <ele>606</ele>
        <time>2016-08-23T10:13:52Z</time>
      </trkpt>
      <trkpt lat="45.79958" lon="4.50753">
        <ele>607</ele>
        <time>2016-08-23T10:13:53Z</time>
      </trkpt>
      <trkpt lat="45.79959" lon="4.50741">
        <ele>609</ele>
        <time>2016-08-23T10:13:57Z</time>
      </trkpt>
      <trkpt lat="45.79959" lon="4.50738">
        <ele>609</ele>
        <time>2016-08-23T10:13:58Z</time>
      </trkpt>
      <trkpt lat="45.79961" lon="4.50726">
        <ele>609</ele>
        <time>2016-08-23T10:14:02Z</time>
      </trkpt>
      <trkpt lat="45.79962" lon="4.50723">
        <ele>609</ele>
        <time>2016-08-23T10:14:03Z</time>
      </trkpt>
      <trkpt lat="45.79962" lon="4.50711">
        <ele>610</ele>
        <time>2016-08-23T10:14:07Z</time>
      </trkpt>
      <trkpt lat="45.79962" lon="4.50708">
        <ele>610</ele>
        <time>2016-08-23T10:14:08Z</time>
      </trkpt>
      <trkpt lat="45.79965" lon="4.50696">
        <ele>610</ele>
        <time>2016-08-23T10:14:12Z</time>
      </trkpt>
      <trkpt lat="45.79965" lon="4.50693">
        <ele>610</ele>
        <time>2016-08-23T10:14:13Z</time>
      </trkpt>
      <trkpt lat="45.79968" lon="4.50681">
        <ele>611</ele>
        <time>2016-08-23T10:14:17Z</time>
      </trkpt>
      <trkpt lat="45.79969" lon="4.50678">
        <ele>611</ele>
        <time>2016-08-23T10:14:18Z</time>
      </trkpt>
      <trkpt lat="45.79969" lon="4.50668">
        <ele>612</ele>
        <time>2016-08-23T10:14:21Z</time>
      </trkpt>
      <trkpt lat="45.7997" lon="4.50664">
        <ele>611</ele>
        <time>2016-08-23T10:14:22Z</time>
      </trkpt>
      <trkpt lat="45.79973" lon="4.50652">
        <ele>611</ele>
        <time>2016-08-23T10:14:26Z</time>
      </trkpt>
      <trkpt lat="45.79974" lon="4.50649">
        <ele>611</ele>
        <time>2016-08-23T10:14:27Z</time>
      </trkpt>
      <trkpt lat="45.79976" lon="4.50637">
        <ele>611</ele>
        <time>2016-08-23T10:14:31Z</time>
      </trkpt>
      <trkpt lat="45.79977" lon="4.50634">
        <ele>611</ele>
        <time>2016-08-23T10:14:32Z</time>
      </trkpt>
      <trkpt lat="45.79978" lon="4.50624">
        <ele>611</ele>
        <time>2016-08-23T10:14:35Z</time>
      </trkpt>
      <trkpt lat="45.79978" lon="4.50621">
        <ele>611</ele>
        <time>2016-08-23T10:14:36Z</time>
      </trkpt>
      <trkpt lat="45.79981" lon="4.50609">
        <ele>611</ele>
        <time>2016-08-23T10:14:40Z</time>
      </trkpt>
      <trkpt lat="45.79982" lon="4.50606">
        <ele>612</ele>
        <time>2016-08-23T10:14:41Z</time>
      </trkpt>
      <trkpt lat="45.79984" lon="4.50594">
        <ele>613</ele>
        <time>2016-08-23T10:14:45Z</time>
      </trkpt>
      <trkpt lat="45.79985" lon="4.50591">
        <ele>614</ele>
        <time>2016-08-23T10:14:46Z</time>
      </trkpt>
      <trkpt lat="45.79988" lon="4.50582">
        <ele>614</ele>
        <time>2016-08-23T10:14:49Z</time>
      </trkpt>
      <trkpt lat="45.79989" lon="4.50579">
        <ele>614</ele>
        <time>2016-08-23T10:14:50Z</time>
      </trkpt>
      <trkpt lat="45.79993" lon="4.5057">
        <ele>614</ele>
        <time>2016-08-23T10:14:53Z</time>
      </trkpt>
      <trkpt lat="45.79993" lon="4.50567">
        <ele>613</ele>
        <time>2016-08-23T10:14:54Z</time>
      </trkpt>
      <trkpt lat="45.79994" lon="4.50555">
        <ele>611</ele>
        <time>2016-08-23T10:14:57Z</time>
      </trkpt>
      <trkpt lat="45.79994" lon="4.50551">
        <ele>610</ele>
        <time>2016-08-23T10:14:58Z</time>
      </trkpt>
      <trkpt lat="45.79996" lon="4.50539">
        <ele>610</ele>
        <time>2016-08-23T10:15:02Z</time>
      </trkpt>
      <trkpt lat="45.79996" lon="4.50535">
        <ele>610</ele>
        <time>2016-08-23T10:15:03Z</time>
      </trkpt>
      <trkpt lat="45.79999" lon="4.50526">
        <ele>611</ele>
        <time>2016-08-23T10:15:06Z</time>
      </trkpt>
      <trkpt lat="45.79999" lon="4.50523">
        <ele>611</ele>
        <time>2016-08-23T10:15:07Z</time>
      </trkpt>
      <trkpt lat="45.80001" lon="4.50511">
        <ele>624</ele>
        <time>2016-08-23T10:15:11Z</time>
      </trkpt>
      <trkpt lat="45.80002" lon="4.50507">
        <ele>623</ele>
        <time>2016-08-23T10:15:12Z</time>
      </trkpt>
      <trkpt lat="45.80004" lon="4.50497">
        <ele>621</ele>
        <time>2016-08-23T10:15:15Z</time>
      </trkpt>
      <trkpt lat="45.80006" lon="4.50494">
        <ele>622</ele>
        <time>2016-08-23T10:15:16Z</time>
      </trkpt>
      <trkpt lat="45.80009" lon="4.50484">
        <ele>625</ele>
        <time>2016-08-23T10:15:19Z</time>
      </trkpt>
      <trkpt lat="45.8001" lon="4.5048">
        <ele>625</ele>
        <time>2016-08-23T10:15:20Z</time>
      </trkpt>
      <trkpt lat="45.80013" lon="4.50468">
        <ele>626</ele>
        <time>2016-08-23T10:15:23Z</time>
      </trkpt>
      <trkpt lat="45.80013" lon="4.50465">
        <ele>626</ele>
        <time>2016-08-23T10:15:24Z</time>
      </trkpt>
      <trkpt lat="45.80017" lon="4.50455">
        <ele>626</ele>
        <time>2016-08-23T10:15:27Z</time>
      </trkpt>
      <trkpt lat="45.80018" lon="4.50452">
        <ele>626</ele>
        <time>2016-08-23T10:15:28Z</time>
      </trkpt>
      <trkpt lat="45.80021" lon="4.50442">
        <ele>625</ele>
        <time>2016-08-23T10:15:31Z</time>
      </trkpt>
      <trkpt lat="45.80023" lon="4.50439">
        <ele>625</ele>
        <time>2016-08-23T10:15:32Z</time>
      </trkpt>
      <trkpt lat="45.80027" lon="4.5043">
        <ele>625</ele>
        <time>2016-08-23T10:15:35Z</time>
      </trkpt>
      <trkpt lat="45.80029" lon="4.50427">
        <ele>625</ele>
        <time>2016-08-23T10:15:36Z</time>
      </trkpt>
      <trkpt lat="45.80032" lon="4.50418">
        <ele>626</ele>
        <time>2016-08-23T10:15:39Z</time>
      </trkpt>
      <trkpt lat="45.80034" lon="4.50415">
        <ele>620</ele>
        <time>2016-08-23T10:15:40Z</time>
      </trkpt>
      <trkpt lat="45.80038" lon="4.50406">
        <ele>621</ele>
        <time>2016-08-23T10:15:43Z</time>
      </trkpt>
      <trkpt lat="45.8004" lon="4.50403">
        <ele>622</ele>
        <time>2016-08-23T10:15:44Z</time>
      </trkpt>
      <trkpt lat="45.80044" lon="4.50395">
        <ele>622</ele>
        <time>2016-08-23T10:15:47Z</time>
      </trkpt>
      <trkpt lat="45.80046" lon="4.50392">
        <ele>622</ele>
        <time>2016-08-23T10:15:48Z</time>
      </trkpt>
      <trkpt lat="45.80051" lon="4.50385">
        <ele>623</ele>
        <time>2016-08-23T10:15:51Z</time>
      </trkpt>
      <trkpt lat="45.80053" lon="4.50382">
        <ele>623</ele>
        <time>2016-08-23T10:15:52Z</time>
      </trkpt>
      <trkpt lat="45.8006" lon="4.50375">
        <ele>623</ele>
        <time>2016-08-23T10:15:55Z</time>
      </trkpt>
      <trkpt lat="45.80062" lon="4.50372">
        <ele>623</ele>
        <time>2016-08-23T10:15:56Z</time>
      </trkpt>
      <trkpt lat="45.80068" lon="4.50364">
        <ele>624</ele>
        <time>2016-08-23T10:15:59Z</time>
      </trkpt>
      <trkpt lat="45.8007" lon="4.50361">
        <ele>624</ele>
        <time>2016-08-23T10:16:00Z</time>
      </trkpt>
      <trkpt lat="45.80075" lon="4.50353">
        <ele>624</ele>
        <time>2016-08-23T10:16:03Z</time>
      </trkpt>
      <trkpt lat="45.80077" lon="4.50351">
        <ele>625</ele>
        <time>2016-08-23T10:16:04Z</time>
      </trkpt>
      <trkpt lat="45.80082" lon="4.50342">
        <ele>626</ele>
        <time>2016-08-23T10:16:07Z</time>
      </trkpt>
      <trkpt lat="45.80084" lon="4.50339">
        <ele>632</ele>
        <time>2016-08-23T10:16:08Z</time>
      </trkpt>
      <trkpt lat="45.80088" lon="4.5033">
        <ele>630</ele>
        <time>2016-08-23T10:16:11Z</time>
      </trkpt>
      <trkpt lat="45.8009" lon="4.50328">
        <ele>631</ele>
        <time>2016-08-23T10:16:12Z</time>
      </trkpt>
      <trkpt lat="45.80094" lon="4.50319">
        <ele>632</ele>
        <time>2016-08-23T10:16:15Z</time>
      </trkpt>
      <trkpt lat="45.80096" lon="4.50316">
        <ele>633</ele>
        <time>2016-08-23T10:16:16Z</time>
      </trkpt>
      <trkpt lat="45.801" lon="4.50309">
        <ele>634</ele>
        <time>2016-08-23T10:16:19Z</time>
      </trkpt>
      <trkpt lat="45.80101" lon="4.50305">
        <ele>634</ele>
        <time>2016-08-23T10:16:20Z</time>
      </trkpt>
      <trkpt lat="45.80105" lon="4.50295">
        <ele>634</ele>
        <time>2016-08-23T10:16:24Z</time>
      </trkpt>
      <trkpt lat="45.80103" lon="4.50291">
        <ele>633</ele>
        <time>2016-08-23T10:16:25Z</time>
      </trkpt>
      <trkpt lat="45.80106" lon="4.50281">
        <ele>633</ele>
        <time>2016-08-23T10:16:28Z</time>
      </trkpt>
      <trkpt lat="45.80108" lon="4.50278">
        <ele>633</ele>
        <time>2016-08-23T10:16:29Z</time>
      </trkpt>
      <trkpt lat="45.8011" lon="4.50268">
        <ele>632</ele>
        <time>2016-08-23T10:16:32Z</time>
      </trkpt>
      <trkpt lat="45.80111" lon="4.50265">
        <ele>632</ele>
        <time>2016-08-23T10:16:33Z</time>
      </trkpt>
      <trkpt lat="45.80116" lon="4.50255">
        <ele>633</ele>
        <time>2016-08-23T10:16:37Z</time>
      </trkpt>
      <trkpt lat="45.80117" lon="4.50252">
        <ele>633</ele>
        <time>2016-08-23T10:16:38Z</time>
      </trkpt>
      <trkpt lat="45.8012" lon="4.50241">
        <ele>631</ele>
        <time>2016-08-23T10:16:41Z</time>
      </trkpt>
      <trkpt lat="45.80122" lon="4.50239">
        <ele>631</ele>
        <time>2016-08-23T10:16:42Z</time>
      </trkpt>
      <trkpt lat="45.80126" lon="4.50229">
        <ele>632</ele>
        <time>2016-08-23T10:16:45Z</time>
      </trkpt>
      <trkpt lat="45.80127" lon="4.50226">
        <ele>632</ele>
        <time>2016-08-23T10:16:46Z</time>
      </trkpt>
      <trkpt lat="45.80131" lon="4.50214">
        <ele>632</ele>
        <time>2016-08-23T10:16:50Z</time>
      </trkpt>
      <trkpt lat="45.80132" lon="4.50211">
        <ele>632</ele>
        <time>2016-08-23T10:16:51Z</time>
      </trkpt>
      <trkpt lat="45.80135" lon="4.502">
        <ele>633</ele>
        <time>2016-08-23T10:16:54Z</time>
      </trkpt>
      <trkpt lat="45.80137" lon="4.50196">
        <ele>633</ele>
        <time>2016-08-23T10:16:55Z</time>
      </trkpt>
      <trkpt lat="45.8014" lon="4.50185">
        <ele>634</ele>
        <time>2016-08-23T10:16:58Z</time>
      </trkpt>
      <trkpt lat="45.80141" lon="4.50182">
        <ele>634</ele>
        <time>2016-08-23T10:16:59Z</time>
      </trkpt>
      <trkpt lat="45.80142" lon="4.50171">
        <ele>635</ele>
        <time>2016-08-23T10:17:02Z</time>
      </trkpt>
      <trkpt lat="45.80143" lon="4.50167">
        <ele>635</ele>
        <time>2016-08-23T10:17:03Z</time>
      </trkpt>
      <trkpt lat="45.80142" lon="4.50157">
        <ele>635</ele>
        <time>2016-08-23T10:17:06Z</time>
      </trkpt>
      <trkpt lat="45.80142" lon="4.50154">
        <ele>635</ele>
        <time>2016-08-23T10:17:07Z</time>
      </trkpt>
      <trkpt lat="45.80142" lon="4.50141">
        <ele>634</ele>
        <time>2016-08-23T10:17:11Z</time>
      </trkpt>
      <trkpt lat="45.80142" lon="4.50138">
        <ele>634</ele>
        <time>2016-08-23T10:17:12Z</time>
      </trkpt>
      <trkpt lat="45.80144" lon="4.50127">
        <ele>634</ele>
        <time>2016-08-23T10:17:15Z</time>
      </trkpt>
      <trkpt lat="45.80145" lon="4.50124">
        <ele>635</ele>
        <time>2016-08-23T10:17:16Z</time>
      </trkpt>
      <trkpt lat="45.80148" lon="4.50112">
        <ele>635</ele>
        <time>2016-08-23T10:17:20Z</time>
      </trkpt>
      <trkpt lat="45.80148" lon="4.50107">
        <ele>636</ele>
        <time>2016-08-23T10:17:21Z</time>
      </trkpt>
      <trkpt lat="45.80146" lon="4.50095">
        <ele>636</ele>
        <time>2016-08-23T10:17:24Z</time>
      </trkpt>
      <trkpt lat="45.80145" lon="4.50092">
        <ele>637</ele>
        <time>2016-08-23T10:17:25Z</time>
      </trkpt>
      <trkpt lat="45.80144" lon="4.50082">
        <ele>640</ele>
        <time>2016-08-23T10:17:27Z</time>
      </trkpt>
      <trkpt lat="45.80142" lon="4.50078">
        <ele>640</ele>
        <time>2016-08-23T10:17:28Z</time>
      </trkpt>
      <trkpt lat="45.80143" lon="4.50068">
        <ele>640</ele>
        <time>2016-08-23T10:17:31Z</time>
      </trkpt>
      <trkpt lat="45.80143" lon="4.50065">
        <ele>640</ele>
        <time>2016-08-23T10:17:32Z</time>
      </trkpt>
      <trkpt lat="45.80141" lon="4.50055">
        <ele>640</ele>
        <time>2016-08-23T10:17:35Z</time>
      </trkpt>
      <trkpt lat="45.80141" lon="4.50052">
        <ele>640</ele>
        <time>2016-08-23T10:17:36Z</time>
      </trkpt>
      <trkpt lat="45.80139" lon="4.50039">
        <ele>640</ele>
        <time>2016-08-23T10:17:40Z</time>
      </trkpt>
      <trkpt lat="45.80138" lon="4.50036">
        <ele>641</ele>
        <time>2016-08-23T10:17:41Z</time>
      </trkpt>
      <trkpt lat="45.80136" lon="4.50027">
        <ele>641</ele>
        <time>2016-08-23T10:17:44Z</time>
      </trkpt>
      <trkpt lat="45.80134" lon="4.50025">
        <ele>641</ele>
        <time>2016-08-23T10:17:45Z</time>
      </trkpt>
      <trkpt lat="45.80129" lon="4.50015">
        <ele>641</ele>
        <time>2016-08-23T10:17:49Z</time>
      </trkpt>
      <trkpt lat="45.80128" lon="4.50013">
        <ele>641</ele>
        <time>2016-08-23T10:17:50Z</time>
      </trkpt>
      <trkpt lat="45.80121" lon="4.50007">
        <ele>640</ele>
        <time>2016-08-23T10:17:53Z</time>
      </trkpt>
      <trkpt lat="45.80119" lon="4.50005">
        <ele>640</ele>
        <time>2016-08-23T10:17:54Z</time>
      </trkpt>
      <trkpt lat="45.80111" lon="4.50001">
        <ele>640</ele>
        <time>2016-08-23T10:17:57Z</time>
      </trkpt>
      <trkpt lat="45.80109" lon="4.5">
        <ele>639</ele>
        <time>2016-08-23T10:17:58Z</time>
      </trkpt>
      <trkpt lat="45.80104" lon="4.49995">
        <ele>646</ele>
        <time>2016-08-23T10:18:11Z</time>
      </trkpt>
      <trkpt lat="45.80103" lon="4.49995">
        <ele>646</ele>
        <time>2016-08-23T10:18:12Z</time>
      </trkpt>
      <trkpt lat="45.80095" lon="4.49991">
        <ele>644</ele>
        <time>2016-08-23T10:18:50Z</time>
      </trkpt>
      <trkpt lat="45.80094" lon="4.4999">
        <ele>644</ele>
        <time>2016-08-23T10:18:51Z</time>
      </trkpt>
      <trkpt lat="45.80088" lon="4.49989">
        <ele>643</ele>
        <time>2016-08-23T10:18:53Z</time>
      </trkpt>
      <trkpt lat="45.80085" lon="4.49988">
        <ele>643</ele>
        <time>2016-08-23T10:18:54Z</time>
      </trkpt>
      <trkpt lat="45.80079" lon="4.49987">
        <ele>641</ele>
        <time>2016-08-23T10:18:56Z</time>
      </trkpt>
      <trkpt lat="45.80076" lon="4.49987">
        <ele>641</ele>
        <time>2016-08-23T10:18:57Z</time>
      </trkpt>
      <trkpt lat="45.80068" lon="4.49986">
        <ele>642</ele>
        <time>2016-08-23T10:19:01Z</time>
      </trkpt>
      <trkpt lat="45.80065" lon="4.49985">
        <ele>642</ele>
        <time>2016-08-23T10:19:02Z</time>
      </trkpt>
      <trkpt lat="45.80059" lon="4.49985">
        <ele>642</ele>
        <time>2016-08-23T10:19:04Z</time>
      </trkpt>
      <trkpt lat="45.80055" lon="4.49985">
        <ele>642</ele>
        <time>2016-08-23T10:19:05Z</time>
      </trkpt>
      <trkpt lat="45.80049" lon="4.49986">
        <ele>642</ele>
        <time>2016-08-23T10:19:07Z</time>
      </trkpt>
      <trkpt lat="45.80046" lon="4.49985">
        <ele>642</ele>
        <time>2016-08-23T10:19:08Z</time>
      </trkpt>
      <trkpt lat="45.80039" lon="4.49985">
        <ele>642</ele>
        <time>2016-08-23T10:19:11Z</time>
      </trkpt>
      <trkpt lat="45.80036" lon="4.49984">
        <ele>642</ele>
        <time>2016-08-23T10:19:12Z</time>
      </trkpt>
      <trkpt lat="45.80029" lon="4.49982">
        <ele>642</ele>
        <time>2016-08-23T10:19:15Z</time>
      </trkpt>
      <trkpt lat="45.80026" lon="4.49981">
        <ele>642</ele>
        <time>2016-08-23T10:19:16Z</time>
      </trkpt>
      <trkpt lat="45.80017" lon="4.49979">
        <ele>641</ele>
        <time>2016-08-23T10:19:19Z</time>
      </trkpt>
      <trkpt lat="45.80014" lon="4.49979">
        <ele>641</ele>
        <time>2016-08-23T10:19:20Z</time>
      </trkpt>
      <trkpt lat="45.80007" lon="4.49978">
        <ele>641</ele>
        <time>2016-08-23T10:19:22Z</time>
      </trkpt>
      <trkpt lat="45.80004" lon="4.49978">
        <ele>641</ele>
        <time>2016-08-23T10:19:23Z</time>
      </trkpt>
      <trkpt lat="45.79998" lon="4.49976">
        <ele>639</ele>
        <time>2016-08-23T10:19:26Z</time>
      </trkpt>
      <trkpt lat="45.79995" lon="4.49975">
        <ele>639</ele>
        <time>2016-08-23T10:19:27Z</time>
      </trkpt>
      <trkpt lat="45.79989" lon="4.49971">
        <ele>639</ele>
        <time>2016-08-23T10:19:29Z</time>
      </trkpt>
      <trkpt lat="45.79986" lon="4.4997">
        <ele>639</ele>
        <time>2016-08-23T10:19:30Z</time>
      </trkpt>
      <trkpt lat="45.79978" lon="4.49967">
        <ele>640</ele>
        <time>2016-08-23T10:19:33Z</time>
      </trkpt>
      <trkpt lat="45.79974" lon="4.49968">
        <ele>640</ele>
        <time>2016-08-23T10:19:34Z</time>
      </trkpt>
      <trkpt lat="45.79965" lon="4.49966">
        <ele>640</ele>
        <time>2016-08-23T10:19:37Z</time>
      </trkpt>
      <trkpt lat="45.79963" lon="4.49964">
        <ele>640</ele>
        <time>2016-08-23T10:19:38Z</time>
      </trkpt>
      <trkpt lat="45.79955" lon="4.49958">
        <ele>640</ele>
        <time>2016-08-23T10:19:41Z</time>
      </trkpt>
      <trkpt lat="45.79952" lon="4.49957">
        <ele>640</ele>
        <time>2016-08-23T10:19:42Z</time>
      </trkpt>
      <trkpt lat="45.79946" lon="4.49952">
        <ele>641</ele>
        <time>2016-08-23T10:19:45Z</time>
      </trkpt>
      <trkpt lat="45.79944" lon="4.4995">
        <ele>641</ele>
        <time>2016-08-23T10:19:46Z</time>
      </trkpt>
      <trkpt lat="45.79937" lon="4.49945">
        <ele>642</ele>
        <time>2016-08-23T10:19:49Z</time>
      </trkpt>
      <trkpt lat="45.79935" lon="4.49943">
        <ele>642</ele>
        <time>2016-08-23T10:19:50Z</time>
      </trkpt>
      <trkpt lat="45.79928" lon="4.49937">
        <ele>643</ele>
        <time>2016-08-23T10:19:53Z</time>
      </trkpt>
      <trkpt lat="45.79926" lon="4.49935">
        <ele>643</ele>
        <time>2016-08-23T10:19:54Z</time>
      </trkpt>
      <trkpt lat="45.79919" lon="4.49929">
        <ele>645</ele>
        <time>2016-08-23T10:19:58Z</time>
      </trkpt>
      <trkpt lat="45.79916" lon="4.49927">
        <ele>643</ele>
        <time>2016-08-23T10:19:59Z</time>
      </trkpt>
      <trkpt lat="45.79909" lon="4.49924">
        <ele>643</ele>
        <time>2016-08-23T10:20:02Z</time>
      </trkpt>
      <trkpt lat="45.79906" lon="4.49922">
        <ele>643</ele>
        <time>2016-08-23T10:20:03Z</time>
      </trkpt>
      <trkpt lat="45.79898" lon="4.49918">
        <ele>641</ele>
        <time>2016-08-23T10:20:06Z</time>
      </trkpt>
      <trkpt lat="45.79896" lon="4.49916">
        <ele>653</ele>
        <time>2016-08-23T10:20:07Z</time>
      </trkpt>
      <trkpt lat="45.7989" lon="4.49912">
        <ele>654</ele>
        <time>2016-08-23T10:20:10Z</time>
      </trkpt>
      <trkpt lat="45.79888" lon="4.4991">
        <ele>654</ele>
        <time>2016-08-23T10:20:11Z</time>
      </trkpt>
      <trkpt lat="45.79881" lon="4.49904">
        <ele>654</ele>
        <time>2016-08-23T10:20:14Z</time>
      </trkpt>
      <trkpt lat="45.79878" lon="4.49903">
        <ele>654</ele>
        <time>2016-08-23T10:20:15Z</time>
      </trkpt>
      <trkpt lat="45.79871" lon="4.49897">
        <ele>655</ele>
        <time>2016-08-23T10:20:18Z</time>
      </trkpt>
      <trkpt lat="45.79868" lon="4.49895">
        <ele>655</ele>
        <time>2016-08-23T10:20:19Z</time>
      </trkpt>
      <trkpt lat="45.79861" lon="4.4989">
        <ele>655</ele>
        <time>2016-08-23T10:20:22Z</time>
      </trkpt>
      <trkpt lat="45.79859" lon="4.49889">
        <ele>655</ele>
        <time>2016-08-23T10:20:23Z</time>
      </trkpt>
      <trkpt lat="45.7985" lon="4.49887">
        <ele>655</ele>
        <time>2016-08-23T10:20:26Z</time>
      </trkpt>
      <trkpt lat="45.79847" lon="4.49886">
        <ele>655</ele>
        <time>2016-08-23T10:20:27Z</time>
      </trkpt>
      <trkpt lat="45.79838" lon="4.49883">
        <ele>655</ele>
        <time>2016-08-23T10:20:30Z</time>
      </trkpt>
      <trkpt lat="45.79836" lon="4.49882">
        <ele>655</ele>
        <time>2016-08-23T10:20:31Z</time>
      </trkpt>
      <trkpt lat="45.79827" lon="4.49881">
        <ele>656</ele>
        <time>2016-08-23T10:20:34Z</time>
      </trkpt>
      <trkpt lat="45.79825" lon="4.49881">
        <ele>656</ele>
        <time>2016-08-23T10:20:35Z</time>
      </trkpt>
      <trkpt lat="45.79818" lon="4.49881">
        <ele>656</ele>
        <time>2016-08-23T10:20:38Z</time>
      </trkpt>
      <trkpt lat="45.79816" lon="4.49881">
        <ele>656</ele>
        <time>2016-08-23T10:20:39Z</time>
      </trkpt>
      <trkpt lat="45.79808" lon="4.49885">
        <ele>656</ele>
        <time>2016-08-23T10:20:43Z</time>
      </trkpt>
      <trkpt lat="45.79806" lon="4.49885">
        <ele>656</ele>
        <time>2016-08-23T10:20:44Z</time>
      </trkpt>
      <trkpt lat="45.79797" lon="4.49887">
        <ele>656</ele>
        <time>2016-08-23T10:20:48Z</time>
      </trkpt>
      <trkpt lat="45.79795" lon="4.49888">
        <ele>656</ele>
        <time>2016-08-23T10:20:49Z</time>
      </trkpt>
      <trkpt lat="45.79787" lon="4.49888">
        <ele>656</ele>
        <time>2016-08-23T10:20:53Z</time>
      </trkpt>
      <trkpt lat="45.79786" lon="4.49887">
        <ele>657</ele>
        <time>2016-08-23T10:20:54Z</time>
      </trkpt>
      <trkpt lat="45.79778" lon="4.49886">
        <ele>657</ele>
        <time>2016-08-23T10:20:57Z</time>
      </trkpt>
      <trkpt lat="45.79776" lon="4.49887">
        <ele>657</ele>
        <time>2016-08-23T10:20:58Z</time>
      </trkpt>
      <trkpt lat="45.79768" lon="4.4989">
        <ele>656</ele>
        <time>2016-08-23T10:21:02Z</time>
      </trkpt>
      <trkpt lat="45.79766" lon="4.49891">
        <ele>656</ele>
        <time>2016-08-23T10:21:03Z</time>
      </trkpt>
      <trkpt lat="45.79757" lon="4.49893">
        <ele>655</ele>
        <time>2016-08-23T10:21:06Z</time>
      </trkpt>
      <trkpt lat="45.79754" lon="4.49894">
        <ele>655</ele>
        <time>2016-08-23T10:21:07Z</time>
      </trkpt>
      <trkpt lat="45.79747" lon="4.499">
        <ele>655</ele>
        <time>2016-08-23T10:21:11Z</time>
      </trkpt>
      <trkpt lat="45.79745" lon="4.499">
        <ele>655</ele>
        <time>2016-08-23T10:21:12Z</time>
      </trkpt>
      <trkpt lat="45.79737" lon="4.49901">
        <ele>656</ele>
        <time>2016-08-23T10:21:16Z</time>
      </trkpt>
      <trkpt lat="45.79735" lon="4.49902">
        <ele>656</ele>
        <time>2016-08-23T10:21:17Z</time>
      </trkpt>
      <trkpt lat="45.79727" lon="4.49905">
        <ele>657</ele>
        <time>2016-08-23T10:21:21Z</time>
      </trkpt>
      <trkpt lat="45.79725" lon="4.49906">
        <ele>657</ele>
        <time>2016-08-23T10:21:22Z</time>
      </trkpt>
      <trkpt lat="45.79717" lon="4.49913">
        <ele>658</ele>
        <time>2016-08-23T10:21:26Z</time>
      </trkpt>
      <trkpt lat="45.79715" lon="4.49915">
        <ele>658</ele>
        <time>2016-08-23T10:21:27Z</time>
      </trkpt>
      <trkpt lat="45.79708" lon="4.4992">
        <ele>648</ele>
        <time>2016-08-23T10:21:30Z</time>
      </trkpt>
      <trkpt lat="45.79703" lon="4.49918">
        <ele>648</ele>
        <time>2016-08-23T10:21:31Z</time>
      </trkpt>
      <trkpt lat="45.79696" lon="4.4992">
        <ele>649</ele>
        <time>2016-08-23T10:21:33Z</time>
      </trkpt>
      <trkpt lat="45.79693" lon="4.49922">
        <ele>650</ele>
        <time>2016-08-23T10:21:34Z</time>
      </trkpt>
      <trkpt lat="45.79686" lon="4.49926">
        <ele>651</ele>
        <time>2016-08-23T10:21:36Z</time>
      </trkpt>
      <trkpt lat="45.79682" lon="4.49929">
        <ele>651</ele>
        <time>2016-08-23T10:21:37Z</time>
      </trkpt>
      <trkpt lat="45.79676" lon="4.49934">
        <ele>651</ele>
        <time>2016-08-23T10:21:39Z</time>
      </trkpt>
      <trkpt lat="45.79673" lon="4.49936">
        <ele>651</ele>
        <time>2016-08-23T10:21:40Z</time>
      </trkpt>
      <trkpt lat="45.79669" lon="4.49938">
        <ele>651</ele>
        <time>2016-08-23T10:21:42Z</time>
      </trkpt>
      <trkpt lat="45.79665" lon="4.49942">
        <ele>652</ele>
        <time>2016-08-23T10:21:43Z</time>
      </trkpt>
      <trkpt lat="45.79657" lon="4.49946">
        <ele>651</ele>
        <time>2016-08-23T10:21:46Z</time>
      </trkpt>
      <trkpt lat="45.79655" lon="4.49947">
        <ele>651</ele>
        <time>2016-08-23T10:21:47Z</time>
      </trkpt>
      <trkpt lat="45.79648" lon="4.49952">
        <ele>650</ele>
        <time>2016-08-23T10:21:51Z</time>
      </trkpt>
      <trkpt lat="45.79646" lon="4.49953">
        <ele>650</ele>
        <time>2016-08-23T10:21:52Z</time>
      </trkpt>
      <trkpt lat="45.79637" lon="4.49955">
        <ele>649</ele>
        <time>2016-08-23T10:21:56Z</time>
      </trkpt>
      <trkpt lat="45.79635" lon="4.49954">
        <ele>649</ele>
        <time>2016-08-23T10:21:57Z</time>
      </trkpt>
      <trkpt lat="45.79627" lon="4.49954">
        <ele>649</ele>
        <time>2016-08-23T10:22:00Z</time>
      </trkpt>
      <trkpt lat="45.79624" lon="4.49954">
        <ele>649</ele>
        <time>2016-08-23T10:22:01Z</time>
      </trkpt>
      <trkpt lat="45.79616" lon="4.49951">
        <ele>649</ele>
        <time>2016-08-23T10:22:07Z</time>
      </trkpt>
      <trkpt lat="45.79615" lon="4.49949">
        <ele>649</ele>
        <time>2016-08-23T10:22:08Z</time>
      </trkpt>
      <trkpt lat="45.79611" lon="4.4994">
        <ele>649</ele>
        <time>2016-08-23T10:22:11Z</time>
      </trkpt>
      <trkpt lat="45.7961" lon="4.49936">
        <ele>649</ele>
        <time>2016-08-23T10:22:12Z</time>
      </trkpt>
      <trkpt lat="45.79609" lon="4.49926">
        <ele>649</ele>
        <time>2016-08-23T10:22:15Z</time>
      </trkpt>
      <trkpt lat="45.79608" lon="4.49922">
        <ele>649</ele>
        <time>2016-08-23T10:22:16Z</time>
      </trkpt>
      <trkpt lat="45.79606" lon="4.4991">
        <ele>652</ele>
        <time>2016-08-23T10:22:19Z</time>
      </trkpt>
      <trkpt lat="45.79606" lon="4.49905">
        <ele>652</ele>
        <time>2016-08-23T10:22:20Z</time>
      </trkpt>
      <trkpt lat="45.79606" lon="4.49896">
        <ele>653</ele>
        <time>2016-08-23T10:22:22Z</time>
      </trkpt>
      <trkpt lat="45.79607" lon="4.49891">
        <ele>653</ele>
        <time>2016-08-23T10:22:23Z</time>
      </trkpt>
      <trkpt lat="45.79607" lon="4.49881">
        <ele>653</ele>
        <time>2016-08-23T10:22:25Z</time>
      </trkpt>
      <trkpt lat="45.79607" lon="4.49876">
        <ele>653</ele>
        <time>2016-08-23T10:22:26Z</time>
      </trkpt>
      <trkpt lat="45.79608" lon="4.49865">
        <ele>653</ele>
        <time>2016-08-23T10:22:28Z</time>
      </trkpt>
      <trkpt lat="45.79608" lon="4.4986">
        <ele>653</ele>
        <time>2016-08-23T10:22:29Z</time>
      </trkpt>
      <trkpt lat="45.79609" lon="4.4985">
        <ele>653</ele>
        <time>2016-08-23T10:22:31Z</time>
      </trkpt>
      <trkpt lat="45.7961" lon="4.49845">
        <ele>652</ele>
        <time>2016-08-23T10:22:32Z</time>
      </trkpt>
      <trkpt lat="45.7961" lon="4.49834">
        <ele>652</ele>
        <time>2016-08-23T10:22:34Z</time>
      </trkpt>
      <trkpt lat="45.7961" lon="4.49829">
        <ele>654</ele>
        <time>2016-08-23T10:22:35Z</time>
      </trkpt>
      <trkpt lat="45.79612" lon="4.49818">
        <ele>654</ele>
        <time>2016-08-23T10:22:37Z</time>
      </trkpt>
      <trkpt lat="45.79612" lon="4.49812">
        <ele>655</ele>
        <time>2016-08-23T10:22:38Z</time>
      </trkpt>
      <trkpt lat="45.79612" lon="4.49801">
        <ele>655</ele>
        <time>2016-08-23T10:22:40Z</time>
      </trkpt>
      <trkpt lat="45.79612" lon="4.49795">
        <ele>655</ele>
        <time>2016-08-23T10:22:41Z</time>
      </trkpt>
      <trkpt lat="45.79613" lon="4.49783">
        <ele>655</ele>
        <time>2016-08-23T10:22:43Z</time>
      </trkpt>
      <trkpt lat="45.79613" lon="4.49777">
        <ele>655</ele>
        <time>2016-08-23T10:22:44Z</time>
      </trkpt>
      <trkpt lat="45.79614" lon="4.49765">
        <ele>655</ele>
        <time>2016-08-23T10:22:46Z</time>
      </trkpt>
      <trkpt lat="45.79614" lon="4.49758">
        <ele>655</ele>
        <time>2016-08-23T10:22:47Z</time>
      </trkpt>
      <trkpt lat="45.79615" lon="4.49747">
        <ele>655</ele>
        <time>2016-08-23T10:22:49Z</time>
      </trkpt>
      <trkpt lat="45.79616" lon="4.49741">
        <ele>655</ele>
        <time>2016-08-23T10:22:50Z</time>
      </trkpt>
      <trkpt lat="45.79616" lon="4.49734">
        <ele>655</ele>
        <time>2016-08-23T10:22:51Z</time>
      </trkpt>
      <trkpt lat="45.79617" lon="4.49728">
        <ele>656</ele>
        <time>2016-08-23T10:22:52Z</time>
      </trkpt>
      <trkpt lat="45.79618" lon="4.49716">
        <ele>656</ele>
        <time>2016-08-23T10:22:54Z</time>
      </trkpt>
      <trkpt lat="45.79619" lon="4.49709">
        <ele>656</ele>
        <time>2016-08-23T10:22:55Z</time>
      </trkpt>
      <trkpt lat="45.7962" lon="4.49697">
        <ele>656</ele>
        <time>2016-08-23T10:22:57Z</time>
      </trkpt>
      <trkpt lat="45.79621" lon="4.49691">
        <ele>656</ele>
        <time>2016-08-23T10:22:58Z</time>
      </trkpt>
      <trkpt lat="45.79622" lon="4.49679">
        <ele>656</ele>
        <time>2016-08-23T10:23:00Z</time>
      </trkpt>
      <trkpt lat="45.79622" lon="4.49673">
        <ele>656</ele>
        <time>2016-08-23T10:23:01Z</time>
      </trkpt>
      <trkpt lat="45.79623" lon="4.49661">
        <ele>654</ele>
        <time>2016-08-23T10:23:03Z</time>
      </trkpt>
      <trkpt lat="45.79624" lon="4.49655">
        <ele>654</ele>
        <time>2016-08-23T10:23:04Z</time>
      </trkpt>
      <trkpt lat="45.79626" lon="4.49643">
        <ele>654</ele>
        <time>2016-08-23T10:23:06Z</time>
      </trkpt>
      <trkpt lat="45.79627" lon="4.49637">
        <ele>654</ele>
        <time>2016-08-23T10:23:07Z</time>
      </trkpt>
      <trkpt lat="45.79628" lon="4.49631">
        <ele>654</ele>
        <time>2016-08-23T10:23:08Z</time>
      </trkpt>
      <trkpt lat="45.79629" lon="4.49625">
        <ele>654</ele>
        <time>2016-08-23T10:23:09Z</time>
      </trkpt>
      <trkpt lat="45.7963" lon="4.49618">
        <ele>654</ele>
        <time>2016-08-23T10:23:10Z</time>
      </trkpt>
      <trkpt lat="45.7963" lon="4.49611">
        <ele>654</ele>
        <time>2016-08-23T10:23:11Z</time>
      </trkpt>
      <trkpt lat="45.7963" lon="4.49604">
        <ele>654</ele>
        <time>2016-08-23T10:23:12Z</time>
      </trkpt>
      <trkpt lat="45.7963" lon="4.49598">
        <ele>654</ele>
        <time>2016-08-23T10:23:13Z</time>
      </trkpt>
      <trkpt lat="45.79632" lon="4.49585">
        <ele>654</ele>
        <time>2016-08-23T10:23:15Z</time>
      </trkpt>
      <trkpt lat="45.79633" lon="4.49579">
        <ele>650</ele>
        <time>2016-08-23T10:23:16Z</time>
      </trkpt>
      <trkpt lat="45.79635" lon="4.49573">
        <ele>650</ele>
        <time>2016-08-23T10:23:17Z</time>
      </trkpt>
      <trkpt lat="45.79637" lon="4.49566">
        <ele>650</ele>
        <time>2016-08-23T10:23:18Z</time>
      </trkpt>
      <trkpt lat="45.79639" lon="4.4956">
        <ele>650</ele>
        <time>2016-08-23T10:23:19Z</time>
      </trkpt>
      <trkpt lat="45.79641" lon="4.49553">
        <ele>650</ele>
        <time>2016-08-23T10:23:20Z</time>
      </trkpt>
      <trkpt lat="45.79644" lon="4.49547">
        <ele>649</ele>
        <time>2016-08-23T10:23:21Z</time>
      </trkpt>
      <trkpt lat="45.79646" lon="4.4954">
        <ele>649</ele>
        <time>2016-08-23T10:23:22Z</time>
      </trkpt>
      <trkpt lat="45.79649" lon="4.49533">
        <ele>649</ele>
        <time>2016-08-23T10:23:23Z</time>
      </trkpt>
      <trkpt lat="45.79652" lon="4.49527">
        <ele>649</ele>
        <time>2016-08-23T10:23:24Z</time>
      </trkpt>
      <trkpt lat="45.79655" lon="4.49521">
        <ele>649</ele>
        <time>2016-08-23T10:23:25Z</time>
      </trkpt>
      <trkpt lat="45.79658" lon="4.49516">
        <ele>649</ele>
        <time>2016-08-23T10:23:26Z</time>
      </trkpt>
      <trkpt lat="45.79662" lon="4.49512">
        <ele>650</ele>
        <time>2016-08-23T10:23:27Z</time>
      </trkpt>
      <trkpt lat="45.79666" lon="4.49508">
        <ele>650</ele>
        <time>2016-08-23T10:23:28Z</time>
      </trkpt>
      <trkpt lat="45.79671" lon="4.49504">
        <ele>654</ele>
        <time>2016-08-23T10:23:29Z</time>
      </trkpt>
      <trkpt lat="45.79675" lon="4.49501">
        <ele>655</ele>
        <time>2016-08-23T10:23:30Z</time>
      </trkpt>
      <trkpt lat="45.79679" lon="4.49498">
        <ele>649</ele>
        <time>2016-08-23T10:23:31Z</time>
      </trkpt>
      <trkpt lat="45.79684" lon="4.49496">
        <ele>649</ele>
        <time>2016-08-23T10:23:32Z</time>
      </trkpt>
      <trkpt lat="45.79689" lon="4.49495">
        <ele>649</ele>
        <time>2016-08-23T10:23:33Z</time>
      </trkpt>
      <trkpt lat="45.79694" lon="4.49493">
        <ele>649</ele>
        <time>2016-08-23T10:23:34Z</time>
      </trkpt>
      <trkpt lat="45.79702" lon="4.49491">
        <ele>649</ele>
        <time>2016-08-23T10:23:36Z</time>
      </trkpt>
      <trkpt lat="45.79706" lon="4.4949">
        <ele>649</ele>
        <time>2016-08-23T10:23:37Z</time>
      </trkpt>
      <trkpt lat="45.79714" lon="4.49488">
        <ele>650</ele>
        <time>2016-08-23T10:23:39Z</time>
      </trkpt>
      <trkpt lat="45.79718" lon="4.49487">
        <ele>650</ele>
        <time>2016-08-23T10:23:40Z</time>
      </trkpt>
      <trkpt lat="45.79726" lon="4.49485">
        <ele>651</ele>
        <time>2016-08-23T10:23:42Z</time>
      </trkpt>
      <trkpt lat="45.79731" lon="4.49484">
        <ele>652</ele>
        <time>2016-08-23T10:23:43Z</time>
      </trkpt>
      <trkpt lat="45.79739" lon="4.49482">
        <ele>653</ele>
        <time>2016-08-23T10:23:45Z</time>
      </trkpt>
      <trkpt lat="45.79742" lon="4.49481">
        <ele>653</ele>
        <time>2016-08-23T10:23:46Z</time>
      </trkpt>
      <trkpt lat="45.79749" lon="4.49481">
        <ele>653</ele>
        <time>2016-08-23T10:23:48Z</time>
      </trkpt>
      <trkpt lat="45.79752" lon="4.4948">
        <ele>655</ele>
        <time>2016-08-23T10:23:49Z</time>
      </trkpt>
      <trkpt lat="45.79759" lon="4.49479">
        <ele>654</ele>
        <time>2016-08-23T10:23:52Z</time>
      </trkpt>
      <trkpt lat="45.79762" lon="4.49479">
        <ele>654</ele>
        <time>2016-08-23T10:23:53Z</time>
      </trkpt>
      <trkpt lat="45.7977" lon="4.49478">
        <ele>653</ele>
        <time>2016-08-23T10:23:55Z</time>
      </trkpt>
      <trkpt lat="45.79774" lon="4.49478">
        <ele>653</ele>
        <time>2016-08-23T10:23:56Z</time>
      </trkpt>
      <trkpt lat="45.79781" lon="4.49477">
        <ele>653</ele>
        <time>2016-08-23T10:23:58Z</time>
      </trkpt>
      <trkpt lat="45.79785" lon="4.49478">
        <ele>652</ele>
        <time>2016-08-23T10:23:59Z</time>
      </trkpt>
      <trkpt lat="45.79792" lon="4.49478">
        <ele>652</ele>
        <time>2016-08-23T10:24:01Z</time>
      </trkpt>
      <trkpt lat="45.79797" lon="4.49478">
        <ele>652</ele>
        <time>2016-08-23T10:24:02Z</time>
      </trkpt>
      <trkpt lat="45.79802" lon="4.49478">
        <ele>652</ele>
        <time>2016-08-23T10:24:03Z</time>
      </trkpt>
      <trkpt lat="45.79806" lon="4.49479">
        <ele>653</ele>
        <time>2016-08-23T10:24:04Z</time>
      </trkpt>
      <trkpt lat="45.79811" lon="4.4948">
        <ele>653</ele>
        <time>2016-08-23T10:24:05Z</time>
      </trkpt>
      <trkpt lat="45.79815" lon="4.49481">
        <ele>653</ele>
        <time>2016-08-23T10:24:06Z</time>
      </trkpt>
      <trkpt lat="45.7982" lon="4.49491">
        <ele>655</ele>
        <time>2016-08-23T10:24:07Z</time>
      </trkpt>
      <trkpt lat="45.79823" lon="4.49493">
        <ele>656</ele>
        <time>2016-08-23T10:24:08Z</time>
      </trkpt>
      <trkpt lat="45.79831" lon="4.49496">
        <ele>657</ele>
        <time>2016-08-23T10:24:10Z</time>
      </trkpt>
      <trkpt lat="45.79835" lon="4.49498">
        <ele>658</ele>
        <time>2016-08-23T10:24:11Z</time>
      </trkpt>
      <trkpt lat="45.79841" lon="4.49499">
        <ele>656</ele>
        <time>2016-08-23T10:24:12Z</time>
      </trkpt>
      <trkpt lat="45.79846" lon="4.495">
        <ele>663</ele>
        <time>2016-08-23T10:24:13Z</time>
      </trkpt>
      <trkpt lat="45.79851" lon="4.49501">
        <ele>664</ele>
        <time>2016-08-23T10:24:14Z</time>
      </trkpt>
      <trkpt lat="45.79856" lon="4.495">
        <ele>654</ele>
        <time>2016-08-23T10:24:15Z</time>
      </trkpt>
      <trkpt lat="45.79861" lon="4.495">
        <ele>653</ele>
        <time>2016-08-23T10:24:16Z</time>
      </trkpt>
      <trkpt lat="45.79866" lon="4.49505">
        <ele>665</ele>
        <time>2016-08-23T10:24:17Z</time>
      </trkpt>
      <trkpt lat="45.79871" lon="4.49508">
        <ele>666</ele>
        <time>2016-08-23T10:24:18Z</time>
      </trkpt>
      <trkpt lat="45.79877" lon="4.49507">
        <ele>666</ele>
        <time>2016-08-23T10:24:19Z</time>
      </trkpt>
      <trkpt lat="45.79883" lon="4.49505">
        <ele>665</ele>
        <time>2016-08-23T10:24:20Z</time>
      </trkpt>
      <trkpt lat="45.79889" lon="4.49503">
        <ele>665</ele>
        <time>2016-08-23T10:24:21Z</time>
      </trkpt>
      <trkpt lat="45.79895" lon="4.49502">
        <ele>664</ele>
        <time>2016-08-23T10:24:22Z</time>
      </trkpt>
      <trkpt lat="45.79901" lon="4.495">
        <ele>654</ele>
        <time>2016-08-23T10:24:23Z</time>
      </trkpt>
      <trkpt lat="45.79907" lon="4.49497">
        <ele>655</ele>
        <time>2016-08-23T10:24:24Z</time>
      </trkpt>
      <trkpt lat="45.79914" lon="4.49494">
        <ele>655</ele>
        <time>2016-08-23T10:24:25Z</time>
      </trkpt>
      <trkpt lat="45.7992" lon="4.49491">
        <ele>657</ele>
        <time>2016-08-23T10:24:26Z</time>
      </trkpt>
      <trkpt lat="45.79927" lon="4.49487">
        <ele>657</ele>
        <time>2016-08-23T10:24:27Z</time>
      </trkpt>
      <trkpt lat="45.79932" lon="4.49483">
        <ele>657</ele>
        <time>2016-08-23T10:24:28Z</time>
      </trkpt>
      <trkpt lat="45.79937" lon="4.49478">
        <ele>656</ele>
        <time>2016-08-23T10:24:29Z</time>
      </trkpt>
      <trkpt lat="45.79941" lon="4.49473">
        <ele>656</ele>
        <time>2016-08-23T10:24:30Z</time>
      </trkpt>
      <trkpt lat="45.79946" lon="4.49468">
        <ele>656</ele>
        <time>2016-08-23T10:24:31Z</time>
      </trkpt>
      <trkpt lat="45.79951" lon="4.49463">
        <ele>656</ele>
        <time>2016-08-23T10:24:32Z</time>
      </trkpt>
      <trkpt lat="45.79958" lon="4.49455">
        <ele>656</ele>
        <time>2016-08-23T10:24:33Z</time>
      </trkpt>
      <trkpt lat="45.79963" lon="4.4945">
        <ele>656</ele>
        <time>2016-08-23T10:24:34Z</time>
      </trkpt>
      <trkpt lat="45.79968" lon="4.49446">
        <ele>656</ele>
        <time>2016-08-23T10:24:35Z</time>
      </trkpt>
      <trkpt lat="45.79972" lon="4.49442">
        <ele>656</ele>
        <time>2016-08-23T10:24:36Z</time>
      </trkpt>
      <trkpt lat="45.79976" lon="4.49437">
        <ele>656</ele>
        <time>2016-08-23T10:24:37Z</time>
      </trkpt>
      <trkpt lat="45.7998" lon="4.49433">
        <ele>656</ele>
        <time>2016-08-23T10:24:38Z</time>
      </trkpt>
      <trkpt lat="45.79983" lon="4.49428">
        <ele>656</ele>
        <time>2016-08-23T10:24:39Z</time>
      </trkpt>
      <trkpt lat="45.79987" lon="4.49424">
        <ele>657</ele>
        <time>2016-08-23T10:24:40Z</time>
      </trkpt>
      <trkpt lat="45.7999" lon="4.49419">
        <ele>657</ele>
        <time>2016-08-23T10:24:41Z</time>
      </trkpt>
      <trkpt lat="45.79993" lon="4.49414">
        <ele>653</ele>
        <time>2016-08-23T10:24:42Z</time>
      </trkpt>
      <trkpt lat="45.79997" lon="4.49409">
        <ele>653</ele>
        <time>2016-08-23T10:24:43Z</time>
      </trkpt>
      <trkpt lat="45.79999" lon="4.49404">
        <ele>651</ele>
        <time>2016-08-23T10:24:44Z</time>
      </trkpt>
      <trkpt lat="45.80002" lon="4.49399">
        <ele>659</ele>
        <time>2016-08-23T10:24:45Z</time>
      </trkpt>
      <trkpt lat="45.80005" lon="4.49394">
        <ele>660</ele>
        <time>2016-08-23T10:24:46Z</time>
      </trkpt>
      <trkpt lat="45.80008" lon="4.49389">
        <ele>660</ele>
        <time>2016-08-23T10:24:47Z</time>
      </trkpt>
      <trkpt lat="45.80011" lon="4.49384">
        <ele>660</ele>
        <time>2016-08-23T10:24:48Z</time>
      </trkpt>
      <trkpt lat="45.80014" lon="4.49379">
        <ele>660</ele>
        <time>2016-08-23T10:24:49Z</time>
      </trkpt>
      <trkpt lat="45.8002" lon="4.49375">
        <ele>660</ele>
        <time>2016-08-23T10:24:50Z</time>
      </trkpt>
      <trkpt lat="45.80023" lon="4.49368">
        <ele>660</ele>
        <time>2016-08-23T10:24:51Z</time>
      </trkpt>
      <trkpt lat="45.80025" lon="4.4936">
        <ele>659</ele>
        <time>2016-08-23T10:24:52Z</time>
      </trkpt>
      <trkpt lat="45.80026" lon="4.49352">
        <ele>658</ele>
        <time>2016-08-23T10:24:53Z</time>
      </trkpt>
      <trkpt lat="45.80029" lon="4.49345">
        <ele>658</ele>
        <time>2016-08-23T10:24:54Z</time>
      </trkpt>
      <trkpt lat="45.80033" lon="4.49335">
        <ele>659</ele>
        <time>2016-08-23T10:24:55Z</time>
      </trkpt>
      <trkpt lat="45.80036" lon="4.49326">
        <ele>654</ele>
        <time>2016-08-23T10:24:56Z</time>
      </trkpt>
      <trkpt lat="45.80037" lon="4.49318">
        <ele>654</ele>
        <time>2016-08-23T10:24:57Z</time>
      </trkpt>
      <trkpt lat="45.80037" lon="4.49311">
        <ele>654</ele>
        <time>2016-08-23T10:24:58Z</time>
      </trkpt>
      <trkpt lat="45.80037" lon="4.49303">
        <ele>653</ele>
        <time>2016-08-23T10:24:59Z</time>
      </trkpt>
      <trkpt lat="45.80037" lon="4.49295">
        <ele>653</ele>
        <time>2016-08-23T10:25:00Z</time>
      </trkpt>
      <trkpt lat="45.80038" lon="4.49286">
        <ele>653</ele>
        <time>2016-08-23T10:25:01Z</time>
      </trkpt>
      <trkpt lat="45.80038" lon="4.49278">
        <ele>653</ele>
        <time>2016-08-23T10:25:02Z</time>
      </trkpt>
      <trkpt lat="45.80039" lon="4.4927">
        <ele>652</ele>
        <time>2016-08-23T10:25:03Z</time>
      </trkpt>
      <trkpt lat="45.80039" lon="4.49261">
        <ele>652</ele>
        <time>2016-08-23T10:25:04Z</time>
      </trkpt>
      <trkpt lat="45.80037" lon="4.49253">
        <ele>652</ele>
        <time>2016-08-23T10:25:05Z</time>
      </trkpt>
      <trkpt lat="45.80038" lon="4.49245">
        <ele>648</ele>
        <time>2016-08-23T10:25:06Z</time>
      </trkpt>
      <trkpt lat="45.80038" lon="4.49238">
        <ele>648</ele>
        <time>2016-08-23T10:25:07Z</time>
      </trkpt>
      <trkpt lat="45.80037" lon="4.4923">
        <ele>648</ele>
        <time>2016-08-23T10:25:08Z</time>
      </trkpt>
      <trkpt lat="45.80038" lon="4.49221">
        <ele>648</ele>
        <time>2016-08-23T10:25:09Z</time>
      </trkpt>
      <trkpt lat="45.8004" lon="4.49213">
        <ele>648</ele>
        <time>2016-08-23T10:25:10Z</time>
      </trkpt>
      <trkpt lat="45.80042" lon="4.49205">
        <ele>648</ele>
        <time>2016-08-23T10:25:11Z</time>
      </trkpt>
      <trkpt lat="45.80045" lon="4.49197">
        <ele>648</ele>
        <time>2016-08-23T10:25:12Z</time>
      </trkpt>
      <trkpt lat="45.80048" lon="4.49189">
        <ele>648</ele>
        <time>2016-08-23T10:25:13Z</time>
      </trkpt>
      <trkpt lat="45.80049" lon="4.49181">
        <ele>648</ele>
        <time>2016-08-23T10:25:14Z</time>
      </trkpt>
      <trkpt lat="45.8005" lon="4.49173">
        <ele>648</ele>
        <time>2016-08-23T10:25:15Z</time>
      </trkpt>
      <trkpt lat="45.80051" lon="4.49165">
        <ele>645</ele>
        <time>2016-08-23T10:25:16Z</time>
      </trkpt>
      <trkpt lat="45.80053" lon="4.49157">
        <ele>645</ele>
        <time>2016-08-23T10:25:17Z</time>
      </trkpt>
      <trkpt lat="45.80054" lon="4.4915">
        <ele>645</ele>
        <time>2016-08-23T10:25:18Z</time>
      </trkpt>
      <trkpt lat="45.80057" lon="4.49142">
        <ele>644</ele>
        <time>2016-08-23T10:25:19Z</time>
      </trkpt>
      <trkpt lat="45.80059" lon="4.49135">
        <ele>644</ele>
        <time>2016-08-23T10:25:20Z</time>
      </trkpt>
      <trkpt lat="45.80061" lon="4.49129">
        <ele>644</ele>
        <time>2016-08-23T10:25:21Z</time>
      </trkpt>
      <trkpt lat="45.80063" lon="4.49123">
        <ele>644</ele>
        <time>2016-08-23T10:25:22Z</time>
      </trkpt>
      <trkpt lat="45.80066" lon="4.49117">
        <ele>644</ele>
        <time>2016-08-23T10:25:23Z</time>
      </trkpt>
      <trkpt lat="45.80069" lon="4.49111">
        <ele>644</ele>
        <time>2016-08-23T10:25:24Z</time>
      </trkpt>
      <trkpt lat="45.80072" lon="4.49105">
        <ele>644</ele>
        <time>2016-08-23T10:25:25Z</time>
      </trkpt>
      <trkpt lat="45.80075" lon="4.49101">
        <ele>644</ele>
        <time>2016-08-23T10:25:26Z</time>
      </trkpt>
      <trkpt lat="45.80078" lon="4.49096">
        <ele>645</ele>
        <time>2016-08-23T10:25:27Z</time>
      </trkpt>
      <trkpt lat="45.80081" lon="4.49091">
        <ele>646</ele>
        <time>2016-08-23T10:25:28Z</time>
      </trkpt>
      <trkpt lat="45.80084" lon="4.49086">
        <ele>648</ele>
        <time>2016-08-23T10:25:29Z</time>
      </trkpt>
      <trkpt lat="45.80087" lon="4.4908">
        <ele>648</ele>
        <time>2016-08-23T10:25:30Z</time>
      </trkpt>
      <trkpt lat="45.8009" lon="4.49076">
        <ele>648</ele>
        <time>2016-08-23T10:25:31Z</time>
      </trkpt>
      <trkpt lat="45.80094" lon="4.49072">
        <ele>649</ele>
        <time>2016-08-23T10:25:32Z</time>
      </trkpt>
      <trkpt lat="45.80097" lon="4.49067">
        <ele>649</ele>
        <time>2016-08-23T10:25:33Z</time>
      </trkpt>
      <trkpt lat="45.80101" lon="4.49062">
        <ele>650</ele>
        <time>2016-08-23T10:25:34Z</time>
      </trkpt>
      <trkpt lat="45.80104" lon="4.49056">
        <ele>650</ele>
        <time>2016-08-23T10:25:35Z</time>
      </trkpt>
      <trkpt lat="45.80107" lon="4.49051">
        <ele>650</ele>
        <time>2016-08-23T10:25:36Z</time>
      </trkpt>
      <trkpt lat="45.80111" lon="4.49045">
        <ele>650</ele>
        <time>2016-08-23T10:25:37Z</time>
      </trkpt>
      <trkpt lat="45.80113" lon="4.49039">
        <ele>650</ele>
        <time>2016-08-23T10:25:38Z</time>
      </trkpt>
      <trkpt lat="45.80116" lon="4.49033">
        <ele>650</ele>
        <time>2016-08-23T10:25:39Z</time>
      </trkpt>
      <trkpt lat="45.80118" lon="4.49027">
        <ele>649</ele>
        <time>2016-08-23T10:25:40Z</time>
      </trkpt>
      <trkpt lat="45.80121" lon="4.4902">
        <ele>649</ele>
        <time>2016-08-23T10:25:41Z</time>
      </trkpt>
      <trkpt lat="45.80124" lon="4.49014">
        <ele>650</ele>
        <time>2016-08-23T10:25:42Z</time>
      </trkpt>
      <trkpt lat="45.80128" lon="4.49008">
        <ele>650</ele>
        <time>2016-08-23T10:25:43Z</time>
      </trkpt>
      <trkpt lat="45.80131" lon="4.49001">
        <ele>651</ele>
        <time>2016-08-23T10:25:44Z</time>
      </trkpt>
      <trkpt lat="45.80134" lon="4.48994">
        <ele>645</ele>
        <time>2016-08-23T10:25:45Z</time>
      </trkpt>
      <trkpt lat="45.80137" lon="4.48987">
        <ele>646</ele>
        <time>2016-08-23T10:25:46Z</time>
      </trkpt>
      <trkpt lat="45.8014" lon="4.4898">
        <ele>646</ele>
        <time>2016-08-23T10:25:47Z</time>
      </trkpt>
      <trkpt lat="45.80142" lon="4.48973">
        <ele>646</ele>
        <time>2016-08-23T10:25:48Z</time>
      </trkpt>
      <trkpt lat="45.80145" lon="4.48967">
        <ele>645</ele>
        <time>2016-08-23T10:25:49Z</time>
      </trkpt>
      <trkpt lat="45.80147" lon="4.4896">
        <ele>645</ele>
        <time>2016-08-23T10:25:50Z</time>
      </trkpt>
      <trkpt lat="45.8015" lon="4.48955">
        <ele>645</ele>
        <time>2016-08-23T10:25:51Z</time>
      </trkpt>
      <trkpt lat="45.80153" lon="4.48949">
        <ele>645</ele>
        <time>2016-08-23T10:25:52Z</time>
      </trkpt>
      <trkpt lat="45.80156" lon="4.48943">
        <ele>646</ele>
        <time>2016-08-23T10:25:53Z</time>
      </trkpt>
      <trkpt lat="45.80159" lon="4.48935">
        <ele>646</ele>
        <time>2016-08-23T10:25:54Z</time>
      </trkpt>
      <trkpt lat="45.80161" lon="4.48927">
        <ele>647</ele>
        <time>2016-08-23T10:25:55Z</time>
      </trkpt>
      <trkpt lat="45.80163" lon="4.4892">
        <ele>649</ele>
        <time>2016-08-23T10:25:56Z</time>
      </trkpt>
      <trkpt lat="45.80165" lon="4.48912">
        <ele>648</ele>
        <time>2016-08-23T10:25:57Z</time>
      </trkpt>
      <trkpt lat="45.80166" lon="4.48904">
        <ele>645</ele>
        <time>2016-08-23T10:25:58Z</time>
      </trkpt>
      <trkpt lat="45.80167" lon="4.48896">
        <ele>653</ele>
        <time>2016-08-23T10:25:59Z</time>
      </trkpt>
      <trkpt lat="45.80167" lon="4.48887">
        <ele>653</ele>
        <time>2016-08-23T10:26:00Z</time>
      </trkpt>
      <trkpt lat="45.80168" lon="4.48879">
        <ele>653</ele>
        <time>2016-08-23T10:26:01Z</time>
      </trkpt>
      <trkpt lat="45.80168" lon="4.4887">
        <ele>653</ele>
        <time>2016-08-23T10:26:02Z</time>
      </trkpt>
      <trkpt lat="45.80168" lon="4.48862">
        <ele>652</ele>
        <time>2016-08-23T10:26:03Z</time>
      </trkpt>
      <trkpt lat="45.80167" lon="4.48853">
        <ele>650</ele>
        <time>2016-08-23T10:26:04Z</time>
      </trkpt>
      <trkpt lat="45.80168" lon="4.48844">
        <ele>648</ele>
        <time>2016-08-23T10:26:05Z</time>
      </trkpt>
      <trkpt lat="45.80168" lon="4.48835">
        <ele>645</ele>
        <time>2016-08-23T10:26:06Z</time>
      </trkpt>
      <trkpt lat="45.80168" lon="4.48826">
        <ele>646</ele>
        <time>2016-08-23T10:26:07Z</time>
      </trkpt>
      <trkpt lat="45.80168" lon="4.48817">
        <ele>648</ele>
        <time>2016-08-23T10:26:08Z</time>
      </trkpt>
      <trkpt lat="45.8017" lon="4.48807">
        <ele>649</ele>
        <time>2016-08-23T10:26:09Z</time>
      </trkpt>
      <trkpt lat="45.8017" lon="4.48797">
        <ele>650</ele>
        <time>2016-08-23T10:26:10Z</time>
      </trkpt>
      <trkpt lat="45.8017" lon="4.48788">
        <ele>650</ele>
        <time>2016-08-23T10:26:11Z</time>
      </trkpt>
      <trkpt lat="45.80169" lon="4.48778">
        <ele>649</ele>
        <time>2016-08-23T10:26:12Z</time>
      </trkpt>
      <trkpt lat="45.80169" lon="4.4877">
        <ele>648</ele>
        <time>2016-08-23T10:26:13Z</time>
      </trkpt>
      <trkpt lat="45.80169" lon="4.48761">
        <ele>647</ele>
        <time>2016-08-23T10:26:14Z</time>
      </trkpt>
      <trkpt lat="45.80168" lon="4.48752">
        <ele>644</ele>
        <time>2016-08-23T10:26:15Z</time>
      </trkpt>
      <trkpt lat="45.80168" lon="4.48744">
        <ele>645</ele>
        <time>2016-08-23T10:26:16Z</time>
      </trkpt>
      <trkpt lat="45.80169" lon="4.48735">
        <ele>647</ele>
        <time>2016-08-23T10:26:17Z</time>
      </trkpt>
      <trkpt lat="45.8017" lon="4.48727">
        <ele>648</ele>
        <time>2016-08-23T10:26:18Z</time>
      </trkpt>
      <trkpt lat="45.80172" lon="4.48719">
        <ele>649</ele>
        <time>2016-08-23T10:26:19Z</time>
      </trkpt>
      <trkpt lat="45.80173" lon="4.48712">
        <ele>649</ele>
        <time>2016-08-23T10:26:20Z</time>
      </trkpt>
      <trkpt lat="45.80176" lon="4.48706">
        <ele>649</ele>
        <time>2016-08-23T10:26:21Z</time>
      </trkpt>
      <trkpt lat="45.80179" lon="4.487">
        <ele>649</ele>
        <time>2016-08-23T10:26:22Z</time>
      </trkpt>
      <trkpt lat="45.80181" lon="4.48694">
        <ele>648</ele>
        <time>2016-08-23T10:26:23Z</time>
      </trkpt>
      <trkpt lat="45.80183" lon="4.48687">
        <ele>648</ele>
        <time>2016-08-23T10:26:24Z</time>
      </trkpt>
      <trkpt lat="45.80187" lon="4.48681">
        <ele>648</ele>
        <time>2016-08-23T10:26:25Z</time>
      </trkpt>
      <trkpt lat="45.8019" lon="4.48674">
        <ele>648</ele>
        <time>2016-08-23T10:26:26Z</time>
      </trkpt>
      <trkpt lat="45.80193" lon="4.48668">
        <ele>649</ele>
        <time>2016-08-23T10:26:27Z</time>
      </trkpt>
      <trkpt lat="45.80196" lon="4.48661">
        <ele>647</ele>
        <time>2016-08-23T10:26:28Z</time>
      </trkpt>
      <trkpt lat="45.80198" lon="4.48654">
        <ele>647</ele>
        <time>2016-08-23T10:26:29Z</time>
      </trkpt>
      <trkpt lat="45.802" lon="4.48646">
        <ele>648</ele>
        <time>2016-08-23T10:26:30Z</time>
      </trkpt>
      <trkpt lat="45.80201" lon="4.48639">
        <ele>648</ele>
        <time>2016-08-23T10:26:31Z</time>
      </trkpt>
      <trkpt lat="45.80202" lon="4.48631">
        <ele>648</ele>
        <time>2016-08-23T10:26:32Z</time>
      </trkpt>
      <trkpt lat="45.80202" lon="4.48623">
        <ele>647</ele>
        <time>2016-08-23T10:26:33Z</time>
      </trkpt>
      <trkpt lat="45.80202" lon="4.48615">
        <ele>647</ele>
        <time>2016-08-23T10:26:34Z</time>
      </trkpt>
      <trkpt lat="45.80203" lon="4.48607">
        <ele>647</ele>
        <time>2016-08-23T10:26:35Z</time>
      </trkpt>
      <trkpt lat="45.80203" lon="4.486">
        <ele>646</ele>
        <time>2016-08-23T10:26:36Z</time>
      </trkpt>
      <trkpt lat="45.80203" lon="4.48592">
        <ele>646</ele>
        <time>2016-08-23T10:26:37Z</time>
      </trkpt>
      <trkpt lat="45.80204" lon="4.48584">
        <ele>646</ele>
        <time>2016-08-23T10:26:38Z</time>
      </trkpt>
      <trkpt lat="45.80205" lon="4.48577">
        <ele>642</ele>
        <time>2016-08-23T10:26:39Z</time>
      </trkpt>
      <trkpt lat="45.80206" lon="4.48571">
        <ele>642</ele>
        <time>2016-08-23T10:26:40Z</time>
      </trkpt>
      <trkpt lat="45.80209" lon="4.48563">
        <ele>642</ele>
        <time>2016-08-23T10:26:41Z</time>
      </trkpt>
      <trkpt lat="45.8021" lon="4.48557">
        <ele>642</ele>
        <time>2016-08-23T10:26:42Z</time>
      </trkpt>
      <trkpt lat="45.80212" lon="4.48551">
        <ele>642</ele>
        <time>2016-08-23T10:26:43Z</time>
      </trkpt>
      <trkpt lat="45.80216" lon="4.48541">
        <ele>642</ele>
        <time>2016-08-23T10:26:45Z</time>
      </trkpt>
      <trkpt lat="45.80218" lon="4.48536">
        <ele>642</ele>
        <time>2016-08-23T10:26:46Z</time>
      </trkpt>
      <trkpt lat="45.80222" lon="4.48525">
        <ele>643</ele>
        <time>2016-08-23T10:26:48Z</time>
      </trkpt>
      <trkpt lat="45.80224" lon="4.48519">
        <ele>643</ele>
        <time>2016-08-23T10:26:49Z</time>
      </trkpt>
      <trkpt lat="45.80227" lon="4.48514">
        <ele>643</ele>
        <time>2016-08-23T10:26:50Z</time>
      </trkpt>
      <trkpt lat="45.80229" lon="4.48508">
        <ele>643</ele>
        <time>2016-08-23T10:26:51Z</time>
      </trkpt>
      <trkpt lat="45.80234" lon="4.48499">
        <ele>641</ele>
        <time>2016-08-23T10:26:53Z</time>
      </trkpt>
      <trkpt lat="45.80236" lon="4.48494">
        <ele>641</ele>
        <time>2016-08-23T10:26:54Z</time>
      </trkpt>
      <trkpt lat="45.80241" lon="4.48484">
        <ele>640</ele>
        <time>2016-08-23T10:26:56Z</time>
      </trkpt>
      <trkpt lat="45.80244" lon="4.4848">
        <ele>640</ele>
        <time>2016-08-23T10:26:57Z</time>
      </trkpt>
      <trkpt lat="45.80249" lon="4.48469">
        <ele>638</ele>
        <time>2016-08-23T10:26:59Z</time>
      </trkpt>
      <trkpt lat="45.80251" lon="4.48463">
        <ele>650</ele>
        <time>2016-08-23T10:27:00Z</time>
      </trkpt>
      <trkpt lat="45.80253" lon="4.48457">
        <ele>650</ele>
        <time>2016-08-23T10:27:01Z</time>
      </trkpt>
      <trkpt lat="45.80256" lon="4.48451">
        <ele>649</ele>
        <time>2016-08-23T10:27:02Z</time>
      </trkpt>
      <trkpt lat="45.80258" lon="4.48446">
        <ele>649</ele>
        <time>2016-08-23T10:27:03Z</time>
      </trkpt>
      <trkpt lat="45.8026" lon="4.4844">
        <ele>648</ele>
        <time>2016-08-23T10:27:04Z</time>
      </trkpt>
      <trkpt lat="45.80265" lon="4.48429">
        <ele>647</ele>
        <time>2016-08-23T10:27:06Z</time>
      </trkpt>
      <trkpt lat="45.80268" lon="4.48425">
        <ele>647</ele>
        <time>2016-08-23T10:27:07Z</time>
      </trkpt>
      <trkpt lat="45.80273" lon="4.48417">
        <ele>643</ele>
        <time>2016-08-23T10:27:09Z</time>
      </trkpt>
      <trkpt lat="45.80275" lon="4.48412">
        <ele>644</ele>
        <time>2016-08-23T10:27:10Z</time>
      </trkpt>
      <trkpt lat="45.80281" lon="4.48403">
        <ele>644</ele>
        <time>2016-08-23T10:27:12Z</time>
      </trkpt>
      <trkpt lat="45.80283" lon="4.48398">
        <ele>645</ele>
        <time>2016-08-23T10:27:13Z</time>
      </trkpt>
      <trkpt lat="45.80289" lon="4.4839">
        <ele>645</ele>
        <time>2016-08-23T10:27:15Z</time>
      </trkpt>
      <trkpt lat="45.80292" lon="4.48387">
        <ele>646</ele>
        <time>2016-08-23T10:27:16Z</time>
      </trkpt>
      <trkpt lat="45.80298" lon="4.4838">
        <ele>646</ele>
        <time>2016-08-23T10:27:18Z</time>
      </trkpt>
      <trkpt lat="45.803" lon="4.48376">
        <ele>646</ele>
        <time>2016-08-23T10:27:19Z</time>
      </trkpt>
      <trkpt lat="45.80306" lon="4.48369">
        <ele>646</ele>
        <time>2016-08-23T10:27:21Z</time>
      </trkpt>
      <trkpt lat="45.80308" lon="4.48365">
        <ele>646</ele>
        <time>2016-08-23T10:27:22Z</time>
      </trkpt>
      <trkpt lat="45.80313" lon="4.48358">
        <ele>647</ele>
        <time>2016-08-23T10:27:24Z</time>
      </trkpt>
      <trkpt lat="45.80315" lon="4.48353">
        <ele>647</ele>
        <time>2016-08-23T10:27:25Z</time>
      </trkpt>
      <trkpt lat="45.80318" lon="4.48344">
        <ele>648</ele>
        <time>2016-08-23T10:27:27Z</time>
      </trkpt>
      <trkpt lat="45.80319" lon="4.48339">
        <ele>648</ele>
        <time>2016-08-23T10:27:28Z</time>
      </trkpt>
      <trkpt lat="45.80321" lon="4.48331">
        <ele>646</ele>
        <time>2016-08-23T10:27:30Z</time>
      </trkpt>
      <trkpt lat="45.80323" lon="4.48326">
        <ele>646</ele>
        <time>2016-08-23T10:27:31Z</time>
      </trkpt>
      <trkpt lat="45.80326" lon="4.48316">
        <ele>644</ele>
        <time>2016-08-23T10:27:33Z</time>
      </trkpt>
      <trkpt lat="45.80327" lon="4.48311">
        <ele>644</ele>
        <time>2016-08-23T10:27:34Z</time>
      </trkpt>
      <trkpt lat="45.8033" lon="4.48301">
        <ele>643</ele>
        <time>2016-08-23T10:27:36Z</time>
      </trkpt>
      <trkpt lat="45.80331" lon="4.48297">
        <ele>642</ele>
        <time>2016-08-23T10:27:37Z</time>
      </trkpt>
      <trkpt lat="45.80335" lon="4.48288">
        <ele>654</ele>
        <time>2016-08-23T10:27:39Z</time>
      </trkpt>
      <trkpt lat="45.80336" lon="4.48283">
        <ele>654</ele>
        <time>2016-08-23T10:27:40Z</time>
      </trkpt>
      <trkpt lat="45.8034" lon="4.48273">
        <ele>653</ele>
        <time>2016-08-23T10:27:42Z</time>
      </trkpt>
      <trkpt lat="45.80342" lon="4.48269">
        <ele>652</ele>
        <time>2016-08-23T10:27:43Z</time>
      </trkpt>
      <trkpt lat="45.80345" lon="4.4826">
        <ele>651</ele>
        <time>2016-08-23T10:27:45Z</time>
      </trkpt>
      <trkpt lat="45.80348" lon="4.48256">
        <ele>651</ele>
        <time>2016-08-23T10:27:46Z</time>
      </trkpt>
      <trkpt lat="45.80351" lon="4.48248">
        <ele>649</ele>
        <time>2016-08-23T10:27:48Z</time>
      </trkpt>
      <trkpt lat="45.80354" lon="4.48245">
        <ele>649</ele>
        <time>2016-08-23T10:27:49Z</time>
      </trkpt>
      <trkpt lat="45.80357" lon="4.48237">
        <ele>650</ele>
        <time>2016-08-23T10:27:51Z</time>
      </trkpt>
      <trkpt lat="45.80359" lon="4.48234">
        <ele>650</ele>
        <time>2016-08-23T10:27:52Z</time>
      </trkpt>
      <trkpt lat="45.80363" lon="4.48226">
        <ele>650</ele>
        <time>2016-08-23T10:27:54Z</time>
      </trkpt>
      <trkpt lat="45.80364" lon="4.48222">
        <ele>650</ele>
        <time>2016-08-23T10:27:55Z</time>
      </trkpt>
      <trkpt lat="45.80369" lon="4.48215">
        <ele>651</ele>
        <time>2016-08-23T10:27:57Z</time>
      </trkpt>
      <trkpt lat="45.80371" lon="4.4821">
        <ele>651</ele>
        <time>2016-08-23T10:27:58Z</time>
      </trkpt>
      <trkpt lat="45.80376" lon="4.48202">
        <ele>651</ele>
        <time>2016-08-23T10:28:00Z</time>
      </trkpt>
      <trkpt lat="45.80378" lon="4.48198">
        <ele>651</ele>
        <time>2016-08-23T10:28:01Z</time>
      </trkpt>
      <trkpt lat="45.80382" lon="4.4819">
        <ele>651</ele>
        <time>2016-08-23T10:28:03Z</time>
      </trkpt>
      <trkpt lat="45.80383" lon="4.48186">
        <ele>651</ele>
        <time>2016-08-23T10:28:04Z</time>
      </trkpt>
      <trkpt lat="45.80388" lon="4.48179">
        <ele>652</ele>
        <time>2016-08-23T10:28:06Z</time>
      </trkpt>
      <trkpt lat="45.80389" lon="4.48175">
        <ele>652</ele>
        <time>2016-08-23T10:28:07Z</time>
      </trkpt>
      <trkpt lat="45.80394" lon="4.48169">
        <ele>652</ele>
        <time>2016-08-23T10:28:09Z</time>
      </trkpt>
      <trkpt lat="45.80396" lon="4.48165">
        <ele>649</ele>
        <time>2016-08-23T10:28:10Z</time>
      </trkpt>
      <trkpt lat="45.804" lon="4.48158">
        <ele>650</ele>
        <time>2016-08-23T10:28:12Z</time>
      </trkpt>
      <trkpt lat="45.80402" lon="4.48154">
        <ele>650</ele>
        <time>2016-08-23T10:28:13Z</time>
      </trkpt>
      <trkpt lat="45.80405" lon="4.48146">
        <ele>649</ele>
        <time>2016-08-23T10:28:15Z</time>
      </trkpt>
      <trkpt lat="45.80407" lon="4.48142">
        <ele>648</ele>
        <time>2016-08-23T10:28:16Z</time>
      </trkpt>
      <trkpt lat="45.80412" lon="4.48134">
        <ele>648</ele>
        <time>2016-08-23T10:28:18Z</time>
      </trkpt>
      <trkpt lat="45.80414" lon="4.4813">
        <ele>648</ele>
        <time>2016-08-23T10:28:19Z</time>
      </trkpt>
      <trkpt lat="45.80418" lon="4.48124">
        <ele>656</ele>
        <time>2016-08-23T10:28:21Z</time>
      </trkpt>
      <trkpt lat="45.8042" lon="4.4812">
        <ele>656</ele>
        <time>2016-08-23T10:28:22Z</time>
      </trkpt>
      <trkpt lat="45.80425" lon="4.48114">
        <ele>655</ele>
        <time>2016-08-23T10:28:24Z</time>
      </trkpt>
      <trkpt lat="45.80428" lon="4.48111">
        <ele>655</ele>
        <time>2016-08-23T10:28:25Z</time>
      </trkpt>
      <trkpt lat="45.80433" lon="4.48106">
        <ele>655</ele>
        <time>2016-08-23T10:28:27Z</time>
      </trkpt>
      <trkpt lat="45.80435" lon="4.48103">
        <ele>655</ele>
        <time>2016-08-23T10:28:28Z</time>
      </trkpt>
      <trkpt lat="45.80442" lon="4.48095">
        <ele>655</ele>
        <time>2016-08-23T10:28:31Z</time>
      </trkpt>
      <trkpt lat="45.80444" lon="4.48093">
        <ele>655</ele>
        <time>2016-08-23T10:28:32Z</time>
      </trkpt>
      <trkpt lat="45.80452" lon="4.48088">
        <ele>656</ele>
        <time>2016-08-23T10:28:35Z</time>
      </trkpt>
      <trkpt lat="45.80455" lon="4.48086">
        <ele>656</ele>
        <time>2016-08-23T10:28:36Z</time>
      </trkpt>
      <trkpt lat="45.80461" lon="4.48082">
        <ele>649</ele>
        <time>2016-08-23T10:28:38Z</time>
      </trkpt>
      <trkpt lat="45.80464" lon="4.4808">
        <ele>649</ele>
        <time>2016-08-23T10:28:39Z</time>
      </trkpt>
      <trkpt lat="45.8047" lon="4.48076">
        <ele>650</ele>
        <time>2016-08-23T10:28:41Z</time>
      </trkpt>
      <trkpt lat="45.80472" lon="4.48074">
        <ele>650</ele>
        <time>2016-08-23T10:28:42Z</time>
      </trkpt>
      <trkpt lat="45.80477" lon="4.4807">
        <ele>650</ele>
        <time>2016-08-23T10:28:44Z</time>
      </trkpt>
      <trkpt lat="45.80481" lon="4.48069">
        <ele>651</ele>
        <time>2016-08-23T10:28:45Z</time>
      </trkpt>
      <trkpt lat="45.80488" lon="4.48066">
        <ele>651</ele>
        <time>2016-08-23T10:28:47Z</time>
      </trkpt>
      <trkpt lat="45.80491" lon="4.48066">
        <ele>651</ele>
        <time>2016-08-23T10:28:48Z</time>
      </trkpt>
      <trkpt lat="45.80497" lon="4.48064">
        <ele>652</ele>
        <time>2016-08-23T10:28:50Z</time>
      </trkpt>
      <trkpt lat="45.805" lon="4.48063">
        <ele>657</ele>
        <time>2016-08-23T10:28:51Z</time>
      </trkpt>
      <trkpt lat="45.80509" lon="4.48061">
        <ele>657</ele>
        <time>2016-08-23T10:28:54Z</time>
      </trkpt>
      <trkpt lat="45.80512" lon="4.48061">
        <ele>657</ele>
        <time>2016-08-23T10:28:55Z</time>
      </trkpt>
      <trkpt lat="45.80518" lon="4.48062">
        <ele>657</ele>
        <time>2016-08-23T10:28:57Z</time>
      </trkpt>
      <trkpt lat="45.80522" lon="4.48062">
        <ele>657</ele>
        <time>2016-08-23T10:28:58Z</time>
      </trkpt>
      <trkpt lat="45.80528" lon="4.48061">
        <ele>657</ele>
        <time>2016-08-23T10:29:00Z</time>
      </trkpt>
      <trkpt lat="45.80531" lon="4.48061">
        <ele>658</ele>
        <time>2016-08-23T10:29:01Z</time>
      </trkpt>
      <trkpt lat="45.80537" lon="4.48061">
        <ele>658</ele>
        <time>2016-08-23T10:29:03Z</time>
      </trkpt>
      <trkpt lat="45.8054" lon="4.4806">
        <ele>658</ele>
        <time>2016-08-23T10:29:04Z</time>
      </trkpt>
      <trkpt lat="45.80547" lon="4.4806">
        <ele>659</ele>
        <time>2016-08-23T10:29:07Z</time>
      </trkpt>
      <trkpt lat="45.8055" lon="4.4806">
        <ele>659</ele>
        <time>2016-08-23T10:29:08Z</time>
      </trkpt>
      <trkpt lat="45.80557" lon="4.48057">
        <ele>659</ele>
        <time>2016-08-23T10:29:11Z</time>
      </trkpt>
      <trkpt lat="45.8056" lon="4.48055">
        <ele>659</ele>
        <time>2016-08-23T10:29:12Z</time>
      </trkpt>
      <trkpt lat="45.80568" lon="4.48049">
        <ele>659</ele>
        <time>2016-08-23T10:29:15Z</time>
      </trkpt>
      <trkpt lat="45.8057" lon="4.48047">
        <ele>659</ele>
        <time>2016-08-23T10:29:16Z</time>
      </trkpt>
      <trkpt lat="45.80573" lon="4.4804">
        <ele>659</ele>
        <time>2016-08-23T10:29:18Z</time>
      </trkpt>
      <trkpt lat="45.80575" lon="4.48035">
        <ele>659</ele>
        <time>2016-08-23T10:29:19Z</time>
      </trkpt>
      <trkpt lat="45.80578" lon="4.48026">
        <ele>659</ele>
        <time>2016-08-23T10:29:21Z</time>
      </trkpt>
      <trkpt lat="45.8058" lon="4.48021">
        <ele>659</ele>
        <time>2016-08-23T10:29:22Z</time>
      </trkpt>
      <trkpt lat="45.80582" lon="4.48012">
        <ele>660</ele>
        <time>2016-08-23T10:29:24Z</time>
      </trkpt>
      <trkpt lat="45.80582" lon="4.48008">
        <ele>660</ele>
        <time>2016-08-23T10:29:25Z</time>
      </trkpt>
      <trkpt lat="45.80585" lon="4.48">
        <ele>662</ele>
        <time>2016-08-23T10:29:27Z</time>
      </trkpt>
      <trkpt lat="45.80586" lon="4.47996">
        <ele>663</ele>
        <time>2016-08-23T10:29:28Z</time>
      </trkpt>
      <trkpt lat="45.80588" lon="4.47987">
        <ele>665</ele>
        <time>2016-08-23T10:29:30Z</time>
      </trkpt>
      <trkpt lat="45.80589" lon="4.47983">
        <ele>665</ele>
        <time>2016-08-23T10:29:31Z</time>
      </trkpt>
      <trkpt lat="45.80589" lon="4.47974">
        <ele>666</ele>
        <time>2016-08-23T10:29:33Z</time>
      </trkpt>
      <trkpt lat="45.8059" lon="4.4797">
        <ele>666</ele>
        <time>2016-08-23T10:29:34Z</time>
      </trkpt>
      <trkpt lat="45.80592" lon="4.47961">
        <ele>667</ele>
        <time>2016-08-23T10:29:36Z</time>
      </trkpt>
      <trkpt lat="45.80593" lon="4.47957">
        <ele>666</ele>
        <time>2016-08-23T10:29:37Z</time>
      </trkpt>
      <trkpt lat="45.80595" lon="4.47948">
        <ele>666</ele>
        <time>2016-08-23T10:29:39Z</time>
      </trkpt>
      <trkpt lat="45.80597" lon="4.47944">
        <ele>666</ele>
        <time>2016-08-23T10:29:40Z</time>
      </trkpt>
      <trkpt lat="45.80599" lon="4.47935">
        <ele>665</ele>
        <time>2016-08-23T10:29:42Z</time>
      </trkpt>
      <trkpt lat="45.806" lon="4.47931">
        <ele>665</ele>
        <time>2016-08-23T10:29:43Z</time>
      </trkpt>
      <trkpt lat="45.80602" lon="4.47922">
        <ele>664</ele>
        <time>2016-08-23T10:29:45Z</time>
      </trkpt>
      <trkpt lat="45.80602" lon="4.47918">
        <ele>664</ele>
        <time>2016-08-23T10:29:46Z</time>
      </trkpt>
      <trkpt lat="45.80605" lon="4.47909">
        <ele>662</ele>
        <time>2016-08-23T10:29:48Z</time>
      </trkpt>
      <trkpt lat="45.80607" lon="4.47905">
        <ele>662</ele>
        <time>2016-08-23T10:29:49Z</time>
      </trkpt>
      <trkpt lat="45.80611" lon="4.47896">
        <ele>662</ele>
        <time>2016-08-23T10:29:51Z</time>
      </trkpt>
      <trkpt lat="45.80612" lon="4.47892">
        <ele>662</ele>
        <time>2016-08-23T10:29:52Z</time>
      </trkpt>
      <trkpt lat="45.80616" lon="4.47883">
        <ele>662</ele>
        <time>2016-08-23T10:29:54Z</time>
      </trkpt>
      <trkpt lat="45.80618" lon="4.47879">
        <ele>663</ele>
        <time>2016-08-23T10:29:55Z</time>
      </trkpt>
      <trkpt lat="45.80623" lon="4.47872">
        <ele>663</ele>
        <time>2016-08-23T10:29:57Z</time>
      </trkpt>
      <trkpt lat="45.80626" lon="4.47868">
        <ele>663</ele>
        <time>2016-08-23T10:29:58Z</time>
      </trkpt>
      <trkpt lat="45.8063" lon="4.47861">
        <ele>663</ele>
        <time>2016-08-23T10:30:00Z</time>
      </trkpt>
      <trkpt lat="45.80632" lon="4.47857">
        <ele>663</ele>
        <time>2016-08-23T10:30:01Z</time>
      </trkpt>
      <trkpt lat="45.80637" lon="4.4785">
        <ele>663</ele>
        <time>2016-08-23T10:30:03Z</time>
      </trkpt>
      <trkpt lat="45.80639" lon="4.47846">
        <ele>663</ele>
        <time>2016-08-23T10:30:04Z</time>
      </trkpt>
      <trkpt lat="45.80644" lon="4.4784">
        <ele>664</ele>
        <time>2016-08-23T10:30:06Z</time>
      </trkpt>
      <trkpt lat="45.80646" lon="4.47837">
        <ele>664</ele>
        <time>2016-08-23T10:30:07Z</time>
      </trkpt>
      <trkpt lat="45.80651" lon="4.47831">
        <ele>660</ele>
        <time>2016-08-23T10:30:09Z</time>
      </trkpt>
      <trkpt lat="45.80653" lon="4.47829">
        <ele>661</ele>
        <time>2016-08-23T10:30:10Z</time>
      </trkpt>
      <trkpt lat="45.8066" lon="4.47821">
        <ele>661</ele>
        <time>2016-08-23T10:30:13Z</time>
      </trkpt>
      <trkpt lat="45.80663" lon="4.47818">
        <ele>661</ele>
        <time>2016-08-23T10:30:14Z</time>
      </trkpt>
      <trkpt lat="45.80668" lon="4.47813">
        <ele>667</ele>
        <time>2016-08-23T10:30:16Z</time>
      </trkpt>
      <trkpt lat="45.80671" lon="4.47811">
        <ele>667</ele>
        <time>2016-08-23T10:30:17Z</time>
      </trkpt>
      <trkpt lat="45.80677" lon="4.47803">
        <ele>667</ele>
        <time>2016-08-23T10:30:20Z</time>
      </trkpt>
      <trkpt lat="45.8068" lon="4.47801">
        <ele>667</ele>
        <time>2016-08-23T10:30:21Z</time>
      </trkpt>
      <trkpt lat="45.80685" lon="4.47796">
        <ele>667</ele>
        <time>2016-08-23T10:30:23Z</time>
      </trkpt>
      <trkpt lat="45.80687" lon="4.47793">
        <ele>667</ele>
        <time>2016-08-23T10:30:24Z</time>
      </trkpt>
      <trkpt lat="45.80692" lon="4.47787">
        <ele>666</ele>
        <time>2016-08-23T10:30:26Z</time>
      </trkpt>
      <trkpt lat="45.80695" lon="4.47785">
        <ele>666</ele>
        <time>2016-08-23T10:30:27Z</time>
      </trkpt>
      <trkpt lat="45.80701" lon="4.47779">
        <ele>666</ele>
        <time>2016-08-23T10:30:29Z</time>
      </trkpt>
      <trkpt lat="45.80704" lon="4.47777">
        <ele>667</ele>
        <time>2016-08-23T10:30:30Z</time>
      </trkpt>
      <trkpt lat="45.8071" lon="4.47772">
        <ele>667</ele>
        <time>2016-08-23T10:30:32Z</time>
      </trkpt>
      <trkpt lat="45.80713" lon="4.47769">
        <ele>667</ele>
        <time>2016-08-23T10:30:33Z</time>
      </trkpt>
      <trkpt lat="45.80718" lon="4.47765">
        <ele>667</ele>
        <time>2016-08-23T10:30:35Z</time>
      </trkpt>
      <trkpt lat="45.80721" lon="4.47762">
        <ele>667</ele>
        <time>2016-08-23T10:30:36Z</time>
      </trkpt>
      <trkpt lat="45.80727" lon="4.47758">
        <ele>667</ele>
        <time>2016-08-23T10:30:38Z</time>
      </trkpt>
      <trkpt lat="45.8073" lon="4.47756">
        <ele>668</ele>
        <time>2016-08-23T10:30:39Z</time>
      </trkpt>
      <trkpt lat="45.80735" lon="4.47752">
        <ele>668</ele>
        <time>2016-08-23T10:30:41Z</time>
      </trkpt>
      <trkpt lat="45.80738" lon="4.47749">
        <ele>664</ele>
        <time>2016-08-23T10:30:42Z</time>
      </trkpt>
      <trkpt lat="45.80743" lon="4.47745">
        <ele>665</ele>
        <time>2016-08-23T10:30:44Z</time>
      </trkpt>
      <trkpt lat="45.80746" lon="4.47743">
        <ele>665</ele>
        <time>2016-08-23T10:30:45Z</time>
      </trkpt>
      <trkpt lat="45.80751" lon="4.47738">
        <ele>669</ele>
        <time>2016-08-23T10:30:47Z</time>
      </trkpt>
      <trkpt lat="45.80754" lon="4.47735">
        <ele>669</ele>
        <time>2016-08-23T10:30:48Z</time>
      </trkpt>
      <trkpt lat="45.80759" lon="4.47731">
        <ele>669</ele>
        <time>2016-08-23T10:30:50Z</time>
      </trkpt>
      <trkpt lat="45.80762" lon="4.47729">
        <ele>669</ele>
        <time>2016-08-23T10:30:51Z</time>
      </trkpt>
      <trkpt lat="45.80769" lon="4.47723">
        <ele>670</ele>
        <time>2016-08-23T10:30:54Z</time>
      </trkpt>
      <trkpt lat="45.80772" lon="4.47722">
        <ele>670</ele>
        <time>2016-08-23T10:30:55Z</time>
      </trkpt>
      <trkpt lat="45.80779" lon="4.47715">
        <ele>670</ele>
        <time>2016-08-23T10:30:58Z</time>
      </trkpt>
      <trkpt lat="45.80781" lon="4.47713">
        <ele>670</ele>
        <time>2016-08-23T10:30:59Z</time>
      </trkpt>
      <trkpt lat="45.80787" lon="4.47706">
        <ele>670</ele>
        <time>2016-08-23T10:31:02Z</time>
      </trkpt>
      <trkpt lat="45.80789" lon="4.47705">
        <ele>670</ele>
        <time>2016-08-23T10:31:03Z</time>
      </trkpt>
      <trkpt lat="45.80796" lon="4.47698">
        <ele>670</ele>
        <time>2016-08-23T10:31:06Z</time>
      </trkpt>
      <trkpt lat="45.80799" lon="4.47696">
        <ele>671</ele>
        <time>2016-08-23T10:31:07Z</time>
      </trkpt>
      <trkpt lat="45.80805" lon="4.4769">
        <ele>671</ele>
        <time>2016-08-23T10:31:10Z</time>
      </trkpt>
      <trkpt lat="45.80807" lon="4.47687">
        <ele>671</ele>
        <time>2016-08-23T10:31:11Z</time>
      </trkpt>
      <trkpt lat="45.80813" lon="4.47679">
        <ele>671</ele>
        <time>2016-08-23T10:31:14Z</time>
      </trkpt>
      <trkpt lat="45.80815" lon="4.47677">
        <ele>671</ele>
        <time>2016-08-23T10:31:15Z</time>
      </trkpt>
      <trkpt lat="45.80822" lon="4.4767">
        <ele>672</ele>
        <time>2016-08-23T10:31:18Z</time>
      </trkpt>
      <trkpt lat="45.80824" lon="4.47667">
        <ele>670</ele>
        <time>2016-08-23T10:31:19Z</time>
      </trkpt>
      <trkpt lat="45.8083" lon="4.47658">
        <ele>670</ele>
        <time>2016-08-23T10:31:22Z</time>
      </trkpt>
      <trkpt lat="45.80832" lon="4.47656">
        <ele>669</ele>
        <time>2016-08-23T10:31:23Z</time>
      </trkpt>
      <trkpt lat="45.80838" lon="4.47648">
        <ele>677</ele>
        <time>2016-08-23T10:31:26Z</time>
      </trkpt>
      <trkpt lat="45.8084" lon="4.47645">
        <ele>677</ele>
        <time>2016-08-23T10:31:27Z</time>
      </trkpt>
      <trkpt lat="45.80846" lon="4.47637">
        <ele>678</ele>
        <time>2016-08-23T10:31:30Z</time>
      </trkpt>
      <trkpt lat="45.80848" lon="4.47634">
        <ele>678</ele>
        <time>2016-08-23T10:31:31Z</time>
      </trkpt>
      <trkpt lat="45.80854" lon="4.47627">
        <ele>678</ele>
        <time>2016-08-23T10:31:34Z</time>
      </trkpt>
      <trkpt lat="45.80857" lon="4.47623">
        <ele>678</ele>
        <time>2016-08-23T10:31:35Z</time>
      </trkpt>
      <trkpt lat="45.80861" lon="4.47618">
        <ele>678</ele>
        <time>2016-08-23T10:31:37Z</time>
      </trkpt>
      <trkpt lat="45.80863" lon="4.47615">
        <ele>678</ele>
        <time>2016-08-23T10:31:38Z</time>
      </trkpt>
      <trkpt lat="45.80868" lon="4.47609">
        <ele>679</ele>
        <time>2016-08-23T10:31:40Z</time>
      </trkpt>
      <trkpt lat="45.80871" lon="4.47606">
        <ele>679</ele>
        <time>2016-08-23T10:31:41Z</time>
      </trkpt>
      <trkpt lat="45.80875" lon="4.476">
        <ele>679</ele>
        <time>2016-08-23T10:31:43Z</time>
      </trkpt>
      <trkpt lat="45.80878" lon="4.47597">
        <ele>680</ele>
        <time>2016-08-23T10:31:44Z</time>
      </trkpt>
      <trkpt lat="45.80883" lon="4.47592">
        <ele>680</ele>
        <time>2016-08-23T10:31:46Z</time>
      </trkpt>
      <trkpt lat="45.80885" lon="4.47589">
        <ele>681</ele>
        <time>2016-08-23T10:31:47Z</time>
      </trkpt>
      <trkpt lat="45.80889" lon="4.47583">
        <ele>678</ele>
        <time>2016-08-23T10:31:49Z</time>
      </trkpt>
      <trkpt lat="45.80891" lon="4.47579">
        <ele>678</ele>
        <time>2016-08-23T10:31:50Z</time>
      </trkpt>
      <trkpt lat="45.80896" lon="4.47569">
        <ele>679</ele>
        <time>2016-08-23T10:31:53Z</time>
      </trkpt>
      <trkpt lat="45.80897" lon="4.47567">
        <ele>679</ele>
        <time>2016-08-23T10:31:54Z</time>
      </trkpt>
      <trkpt lat="45.80901" lon="4.47555">
        <ele>678</ele>
        <time>2016-08-23T10:31:57Z</time>
      </trkpt>
      <trkpt lat="45.80903" lon="4.4755">
        <ele>678</ele>
        <time>2016-08-23T10:31:58Z</time>
      </trkpt>
      <trkpt lat="45.80905" lon="4.47542">
        <ele>678</ele>
        <time>2016-08-23T10:32:00Z</time>
      </trkpt>
      <trkpt lat="45.80906" lon="4.47537">
        <ele>678</ele>
        <time>2016-08-23T10:32:01Z</time>
      </trkpt>
      <trkpt lat="45.80908" lon="4.47528">
        <ele>679</ele>
        <time>2016-08-23T10:32:03Z</time>
      </trkpt>
      <trkpt lat="45.80908" lon="4.47523">
        <ele>679</ele>
        <time>2016-08-23T10:32:04Z</time>
      </trkpt>
      <trkpt lat="45.80909" lon="4.47514">
        <ele>680</ele>
        <time>2016-08-23T10:32:06Z</time>
      </trkpt>
      <trkpt lat="45.80908" lon="4.47509">
        <ele>680</ele>
        <time>2016-08-23T10:32:07Z</time>
      </trkpt>
      <trkpt lat="45.80908" lon="4.475">
        <ele>681</ele>
        <time>2016-08-23T10:32:09Z</time>
      </trkpt>
      <trkpt lat="45.80908" lon="4.47495">
        <ele>680</ele>
        <time>2016-08-23T10:32:10Z</time>
      </trkpt>
      <trkpt lat="45.80908" lon="4.47483">
        <ele>679</ele>
        <time>2016-08-23T10:32:13Z</time>
      </trkpt>
      <trkpt lat="45.80907" lon="4.47478">
        <ele>678</ele>
        <time>2016-08-23T10:32:14Z</time>
      </trkpt>
      <trkpt lat="45.80909" lon="4.47466">
        <ele>677</ele>
        <time>2016-08-23T10:32:17Z</time>
      </trkpt>
      <trkpt lat="45.80909" lon="4.47462">
        <ele>677</ele>
        <time>2016-08-23T10:32:18Z</time>
      </trkpt>
      <trkpt lat="45.80909" lon="4.47453">
        <ele>677</ele>
        <time>2016-08-23T10:32:20Z</time>
      </trkpt>
      <trkpt lat="45.80911" lon="4.47448">
        <ele>678</ele>
        <time>2016-08-23T10:32:21Z</time>
      </trkpt>
      <trkpt lat="45.80912" lon="4.47439">
        <ele>678</ele>
        <time>2016-08-23T10:32:23Z</time>
      </trkpt>
      <trkpt lat="45.80913" lon="4.47435">
        <ele>679</ele>
        <time>2016-08-23T10:32:24Z</time>
      </trkpt>
      <trkpt lat="45.80912" lon="4.47426">
        <ele>681</ele>
        <time>2016-08-23T10:32:26Z</time>
      </trkpt>
      <trkpt lat="45.80912" lon="4.47421">
        <ele>682</ele>
        <time>2016-08-23T10:32:27Z</time>
      </trkpt>
      <trkpt lat="45.80912" lon="4.47409">
        <ele>682</ele>
        <time>2016-08-23T10:32:30Z</time>
      </trkpt>
      <trkpt lat="45.80912" lon="4.47405">
        <ele>681</ele>
        <time>2016-08-23T10:32:31Z</time>
      </trkpt>
      <trkpt lat="45.80912" lon="4.47396">
        <ele>681</ele>
        <time>2016-08-23T10:32:33Z</time>
      </trkpt>
      <trkpt lat="45.80911" lon="4.47392">
        <ele>680</ele>
        <time>2016-08-23T10:32:34Z</time>
      </trkpt>
      <trkpt lat="45.80912" lon="4.47383">
        <ele>680</ele>
        <time>2016-08-23T10:32:36Z</time>
      </trkpt>
      <trkpt lat="45.80912" lon="4.47378">
        <ele>680</ele>
        <time>2016-08-23T10:32:37Z</time>
      </trkpt>
      <trkpt lat="45.80912" lon="4.4737">
        <ele>681</ele>
        <time>2016-08-23T10:32:39Z</time>
      </trkpt>
      <trkpt lat="45.80913" lon="4.47365">
        <ele>681</ele>
        <time>2016-08-23T10:32:40Z</time>
      </trkpt>
      <trkpt lat="45.80913" lon="4.47355">
        <ele>682</ele>
        <time>2016-08-23T10:32:42Z</time>
      </trkpt>
      <trkpt lat="45.80914" lon="4.47351">
        <ele>682</ele>
        <time>2016-08-23T10:32:43Z</time>
      </trkpt>
      <trkpt lat="45.80914" lon="4.47342">
        <ele>684</ele>
        <time>2016-08-23T10:32:45Z</time>
      </trkpt>
      <trkpt lat="45.80915" lon="4.47337">
        <ele>685</ele>
        <time>2016-08-23T10:32:46Z</time>
      </trkpt>
      <trkpt lat="45.80915" lon="4.47329">
        <ele>685</ele>
        <time>2016-08-23T10:32:48Z</time>
      </trkpt>
      <trkpt lat="45.80915" lon="4.47324">
        <ele>685</ele>
        <time>2016-08-23T10:32:49Z</time>
      </trkpt>
      <trkpt lat="45.80916" lon="4.47315">
        <ele>685</ele>
        <time>2016-08-23T10:32:51Z</time>
      </trkpt>
      <trkpt lat="45.80916" lon="4.4731">
        <ele>684</ele>
        <time>2016-08-23T10:32:52Z</time>
      </trkpt>
      <trkpt lat="45.80915" lon="4.47301">
        <ele>684</ele>
        <time>2016-08-23T10:32:54Z</time>
      </trkpt>
      <trkpt lat="45.80915" lon="4.47297">
        <ele>684</ele>
        <time>2016-08-23T10:32:55Z</time>
      </trkpt>
      <trkpt lat="45.80916" lon="4.47288">
        <ele>684</ele>
        <time>2016-08-23T10:32:57Z</time>
      </trkpt>
      <trkpt lat="45.80916" lon="4.47283">
        <ele>684</ele>
        <time>2016-08-23T10:32:58Z</time>
      </trkpt>
      <trkpt lat="45.80916" lon="4.47274">
        <ele>684</ele>
        <time>2016-08-23T10:33:00Z</time>
      </trkpt>
      <trkpt lat="45.80917" lon="4.4727">
        <ele>684</ele>
        <time>2016-08-23T10:33:01Z</time>
      </trkpt>
      <trkpt lat="45.80916" lon="4.47258">
        <ele>685</ele>
        <time>2016-08-23T10:33:04Z</time>
      </trkpt>
      <trkpt lat="45.80917" lon="4.47255">
        <ele>685</ele>
        <time>2016-08-23T10:33:05Z</time>
      </trkpt>
      <trkpt lat="45.80919" lon="4.47249">
        <ele>685</ele>
        <time>2016-08-23T10:33:08Z</time>
      </trkpt>
      <trkpt lat="45.80919" lon="4.47248">
        <ele>685</ele>
        <time>2016-08-23T10:33:09Z</time>
      </trkpt>
      <trkpt lat="45.80919" lon="4.47249">
        <ele>685</ele>
        <time>2016-08-23T10:34:22Z</time>
      </trkpt>
      <trkpt lat="45.8092" lon="4.47253">
        <ele>685</ele>
        <time>2016-08-23T10:34:23Z</time>
      </trkpt>
      <trkpt lat="45.80925" lon="4.47263">
        <ele>686</ele>
        <time>2016-08-23T10:49:57Z</time>
      </trkpt>
      <trkpt lat="45.80931" lon="4.47257">
        <ele>686</ele>
        <time>2016-08-23T10:49:58Z</time>
      </trkpt>
      <trkpt lat="45.80926" lon="4.47252">
        <ele>686</ele>
        <time>2016-08-23T10:51:55Z</time>
      </trkpt>
      <trkpt lat="45.80917" lon="4.4725">
        <ele>685</ele>
        <time>2016-08-23T10:51:56Z</time>
      </trkpt>
      <trkpt lat="45.80923" lon="4.47243">
        <ele>684</ele>
        <time>2016-08-23T10:54:41Z</time>
      </trkpt>
      <trkpt lat="45.80925" lon="4.47242">
        <ele>684</ele>
        <time>2016-08-23T10:54:42Z</time>
      </trkpt>
      <trkpt lat="45.80932" lon="4.4724">
        <ele>684</ele>
        <time>2016-08-23T10:54:45Z</time>
      </trkpt>
      <trkpt lat="45.80935" lon="4.47239">
        <ele>684</ele>
        <time>2016-08-23T10:54:46Z</time>
      </trkpt>
      <trkpt lat="45.80943" lon="4.47237">
        <ele>683</ele>
        <time>2016-08-23T10:54:49Z</time>
      </trkpt>
      <trkpt lat="45.80946" lon="4.47237">
        <ele>683</ele>
        <time>2016-08-23T10:54:50Z</time>
      </trkpt>
      <trkpt lat="45.80953" lon="4.47236">
        <ele>683</ele>
        <time>2016-08-23T10:54:52Z</time>
      </trkpt>
      <trkpt lat="45.80957" lon="4.47236">
        <ele>683</ele>
        <time>2016-08-23T10:54:53Z</time>
      </trkpt>
      <trkpt lat="45.80963" lon="4.47234">
        <ele>683</ele>
        <time>2016-08-23T10:54:55Z</time>
      </trkpt>
      <trkpt lat="45.80966" lon="4.47234">
        <ele>683</ele>
        <time>2016-08-23T10:54:56Z</time>
      </trkpt>
      <trkpt lat="45.80972" lon="4.47232">
        <ele>683</ele>
        <time>2016-08-23T10:54:58Z</time>
      </trkpt>
      <trkpt lat="45.80976" lon="4.47231">
        <ele>684</ele>
        <time>2016-08-23T10:54:59Z</time>
      </trkpt>
      <trkpt lat="45.80982" lon="4.4723">
        <ele>684</ele>
        <time>2016-08-23T10:55:01Z</time>
      </trkpt>
      <trkpt lat="45.80986" lon="4.4723">
        <ele>684</ele>
        <time>2016-08-23T10:55:02Z</time>
      </trkpt>
      <trkpt lat="45.8099" lon="4.47229">
        <ele>684</ele>
        <time>2016-08-23T10:55:04Z</time>
      </trkpt>
      <trkpt lat="45.80991" lon="4.47228">
        <ele>684</ele>
        <time>2016-08-23T10:55:05Z</time>
      </trkpt>
      <trkpt lat="45.80991" lon="4.47227">
        <ele>684</ele>
        <time>2016-08-23T10:55:24Z</time>
      </trkpt>
      <trkpt lat="45.80993" lon="4.47225">
        <ele>684</ele>
        <time>2016-08-23T10:55:25Z</time>
      </trkpt>
      <trkpt lat="45.81" lon="4.47227">
        <ele>684</ele>
        <time>2016-08-23T10:55:28Z</time>
      </trkpt>
      <trkpt lat="45.81002" lon="4.47228">
        <ele>682</ele>
        <time>2016-08-23T10:55:29Z</time>
      </trkpt>
      <trkpt lat="45.81011" lon="4.47232">
        <ele>682</ele>
        <time>2016-08-23T10:55:32Z</time>
      </trkpt>
      <trkpt lat="45.81014" lon="4.47234">
        <ele>682</ele>
        <time>2016-08-23T10:55:33Z</time>
      </trkpt>
      <trkpt lat="45.81021" lon="4.47237">
        <ele>682</ele>
        <time>2016-08-23T10:55:35Z</time>
      </trkpt>
      <trkpt lat="45.81025" lon="4.47239">
        <ele>682</ele>
        <time>2016-08-23T10:55:36Z</time>
      </trkpt>
      <trkpt lat="45.81032" lon="4.47245">
        <ele>681</ele>
        <time>2016-08-23T10:55:38Z</time>
      </trkpt>
      <trkpt lat="45.81035" lon="4.47247">
        <ele>681</ele>
        <time>2016-08-23T10:55:39Z</time>
      </trkpt>
      <trkpt lat="45.81043" lon="4.47251">
        <ele>688</ele>
        <time>2016-08-23T10:55:41Z</time>
      </trkpt>
      <trkpt lat="45.81047" lon="4.47254">
        <ele>687</ele>
        <time>2016-08-23T10:55:42Z</time>
      </trkpt>
      <trkpt lat="45.81054" lon="4.47258">
        <ele>687</ele>
        <time>2016-08-23T10:55:44Z</time>
      </trkpt>
      <trkpt lat="45.81058" lon="4.4726">
        <ele>687</ele>
        <time>2016-08-23T10:55:45Z</time>
      </trkpt>
      <trkpt lat="45.81067" lon="4.47264">
        <ele>686</ele>
        <time>2016-08-23T10:55:47Z</time>
      </trkpt>
      <trkpt lat="45.81071" lon="4.47265">
        <ele>686</ele>
        <time>2016-08-23T10:55:48Z</time>
      </trkpt>
      <trkpt lat="45.81079" lon="4.47267">
        <ele>686</ele>
        <time>2016-08-23T10:55:50Z</time>
      </trkpt>
      <trkpt lat="45.81083" lon="4.47267">
        <ele>685</ele>
        <time>2016-08-23T10:55:51Z</time>
      </trkpt>
      <trkpt lat="45.81091" lon="4.47266">
        <ele>687</ele>
        <time>2016-08-23T10:55:53Z</time>
      </trkpt>
      <trkpt lat="45.81095" lon="4.47266">
        <ele>688</ele>
        <time>2016-08-23T10:55:54Z</time>
      </trkpt>
      <trkpt lat="45.81103" lon="4.47266">
        <ele>689</ele>
        <time>2016-08-23T10:55:56Z</time>
      </trkpt>
      <trkpt lat="45.81107" lon="4.47264">
        <ele>689</ele>
        <time>2016-08-23T10:55:57Z</time>
      </trkpt>
      <trkpt lat="45.81115" lon="4.47263">
        <ele>690</ele>
        <time>2016-08-23T10:55:59Z</time>
      </trkpt>
      <trkpt lat="45.81119" lon="4.47262">
        <ele>690</ele>
        <time>2016-08-23T10:56:00Z</time>
      </trkpt>
      <trkpt lat="45.81124" lon="4.47257">
        <ele>691</ele>
        <time>2016-08-23T10:56:02Z</time>
      </trkpt>
      <trkpt lat="45.81127" lon="4.47255">
        <ele>691</ele>
        <time>2016-08-23T10:56:03Z</time>
      </trkpt>
      <trkpt lat="45.81134" lon="4.47248">
        <ele>684</ele>
        <time>2016-08-23T10:56:05Z</time>
      </trkpt>
      <trkpt lat="45.81138" lon="4.47244">
        <ele>685</ele>
        <time>2016-08-23T10:56:06Z</time>
      </trkpt>
      <trkpt lat="45.81142" lon="4.4724">
        <ele>685</ele>
        <time>2016-08-23T10:56:07Z</time>
      </trkpt>
      <trkpt lat="45.81145" lon="4.47236">
        <ele>685</ele>
        <time>2016-08-23T10:56:08Z</time>
      </trkpt>
      <trkpt lat="45.81148" lon="4.4723">
        <ele>685</ele>
        <time>2016-08-23T10:56:09Z</time>
      </trkpt>
      <trkpt lat="45.81152" lon="4.47225">
        <ele>685</ele>
        <time>2016-08-23T10:56:10Z</time>
      </trkpt>
      <trkpt lat="45.81155" lon="4.47219">
        <ele>684</ele>
        <time>2016-08-23T10:56:11Z</time>
      </trkpt>
      <trkpt lat="45.81159" lon="4.47214">
        <ele>684</ele>
        <time>2016-08-23T10:56:12Z</time>
      </trkpt>
      <trkpt lat="45.81162" lon="4.47208">
        <ele>683</ele>
        <time>2016-08-23T10:56:13Z</time>
      </trkpt>
      <trkpt lat="45.81165" lon="4.47202">
        <ele>683</ele>
        <time>2016-08-23T10:56:14Z</time>
      </trkpt>
      <trkpt lat="45.81168" lon="4.47196">
        <ele>690</ele>
        <time>2016-08-23T10:56:15Z</time>
      </trkpt>
      <trkpt lat="45.8117" lon="4.4719">
        <ele>690</ele>
        <time>2016-08-23T10:56:16Z</time>
      </trkpt>
      <trkpt lat="45.81173" lon="4.47184">
        <ele>688</ele>
        <time>2016-08-23T10:56:17Z</time>
      </trkpt>
      <trkpt lat="45.81175" lon="4.47178">
        <ele>688</ele>
        <time>2016-08-23T10:56:18Z</time>
      </trkpt>
      <trkpt lat="45.81178" lon="4.47172">
        <ele>687</ele>
        <time>2016-08-23T10:56:19Z</time>
      </trkpt>
      <trkpt lat="45.8118" lon="4.47165">
        <ele>682</ele>
        <time>2016-08-23T10:56:20Z</time>
      </trkpt>
      <trkpt lat="45.81182" lon="4.47159">
        <ele>682</ele>
        <time>2016-08-23T10:56:21Z</time>
      </trkpt>
      <trkpt lat="45.81184" lon="4.47153">
        <ele>682</ele>
        <time>2016-08-23T10:56:22Z</time>
      </trkpt>
      <trkpt lat="45.81186" lon="4.47147">
        <ele>682</ele>
        <time>2016-08-23T10:56:23Z</time>
      </trkpt>
      <trkpt lat="45.81189" lon="4.47141">
        <ele>682</ele>
        <time>2016-08-23T10:56:24Z</time>
      </trkpt>
      <trkpt lat="45.81192" lon="4.47136">
        <ele>682</ele>
        <time>2016-08-23T10:56:25Z</time>
      </trkpt>
      <trkpt lat="45.81195" lon="4.4713">
        <ele>681</ele>
        <time>2016-08-23T10:56:26Z</time>
      </trkpt>
      <trkpt lat="45.81198" lon="4.47125">
        <ele>681</ele>
        <time>2016-08-23T10:56:27Z</time>
      </trkpt>
      <trkpt lat="45.81202" lon="4.47119">
        <ele>681</ele>
        <time>2016-08-23T10:56:28Z</time>
      </trkpt>
      <trkpt lat="45.81205" lon="4.47113">
        <ele>681</ele>
        <time>2016-08-23T10:56:29Z</time>
      </trkpt>
      <trkpt lat="45.81208" lon="4.47108">
        <ele>680</ele>
        <time>2016-08-23T10:56:30Z</time>
      </trkpt>
      <trkpt lat="45.81213" lon="4.47104">
        <ele>680</ele>
        <time>2016-08-23T10:56:31Z</time>
      </trkpt>
      <trkpt lat="45.81218" lon="4.471">
        <ele>680</ele>
        <time>2016-08-23T10:56:32Z</time>
      </trkpt>
      <trkpt lat="45.81224" lon="4.47095">
        <ele>680</ele>
        <time>2016-08-23T10:56:33Z</time>
      </trkpt>
      <trkpt lat="45.8123" lon="4.47091">
        <ele>680</ele>
        <time>2016-08-23T10:56:34Z</time>
      </trkpt>
      <trkpt lat="45.81236" lon="4.47088">
        <ele>679</ele>
        <time>2016-08-23T10:56:35Z</time>
      </trkpt>
      <trkpt lat="45.81242" lon="4.47086">
        <ele>678</ele>
        <time>2016-08-23T10:56:36Z</time>
      </trkpt>
      <trkpt lat="45.81249" lon="4.47084">
        <ele>677</ele>
        <time>2016-08-23T10:56:37Z</time>
      </trkpt>
      <trkpt lat="45.81257" lon="4.47083">
        <ele>675</ele>
        <time>2016-08-23T10:56:38Z</time>
      </trkpt>
      <trkpt lat="45.81264" lon="4.47082">
        <ele>674</ele>
        <time>2016-08-23T10:56:39Z</time>
      </trkpt>
      <trkpt lat="45.81271" lon="4.4708">
        <ele>674</ele>
        <time>2016-08-23T10:56:40Z</time>
      </trkpt>
      <trkpt lat="45.81279" lon="4.47079">
        <ele>673</ele>
        <time>2016-08-23T10:56:41Z</time>
      </trkpt>
      <trkpt lat="45.81286" lon="4.47078">
        <ele>673</ele>
        <time>2016-08-23T10:56:42Z</time>
      </trkpt>
      <trkpt lat="45.81294" lon="4.47078">
        <ele>673</ele>
        <time>2016-08-23T10:56:43Z</time>
      </trkpt>
      <trkpt lat="45.81302" lon="4.47077">
        <ele>673</ele>
        <time>2016-08-23T10:56:44Z</time>
      </trkpt>
      <trkpt lat="45.8131" lon="4.47077">
        <ele>674</ele>
        <time>2016-08-23T10:56:45Z</time>
      </trkpt>
      <trkpt lat="45.81318" lon="4.47076">
        <ele>675</ele>
        <time>2016-08-23T10:56:46Z</time>
      </trkpt>
      <trkpt lat="45.81325" lon="4.47076">
        <ele>676</ele>
        <time>2016-08-23T10:56:47Z</time>
      </trkpt>
      <trkpt lat="45.81333" lon="4.47077">
        <ele>677</ele>
        <time>2016-08-23T10:56:48Z</time>
      </trkpt>
      <trkpt lat="45.81341" lon="4.47077">
        <ele>677</ele>
        <time>2016-08-23T10:56:49Z</time>
      </trkpt>
      <trkpt lat="45.81348" lon="4.47077">
        <ele>676</ele>
        <time>2016-08-23T10:56:50Z</time>
      </trkpt>
      <trkpt lat="45.81355" lon="4.47078">
        <ele>675</ele>
        <time>2016-08-23T10:56:51Z</time>
      </trkpt>
      <trkpt lat="45.81362" lon="4.47078">
        <ele>675</ele>
        <time>2016-08-23T10:56:52Z</time>
      </trkpt>
      <trkpt lat="45.81369" lon="4.47079">
        <ele>675</ele>
        <time>2016-08-23T10:56:53Z</time>
      </trkpt>
      <trkpt lat="45.81376" lon="4.47079">
        <ele>675</ele>
        <time>2016-08-23T10:56:54Z</time>
      </trkpt>
      <trkpt lat="45.81383" lon="4.47079">
        <ele>676</ele>
        <time>2016-08-23T10:56:55Z</time>
      </trkpt>
      <trkpt lat="45.8139" lon="4.47078">
        <ele>676</ele>
        <time>2016-08-23T10:56:56Z</time>
      </trkpt>
      <trkpt lat="45.81396" lon="4.47077">
        <ele>677</ele>
        <time>2016-08-23T10:56:57Z</time>
      </trkpt>
      <trkpt lat="45.81403" lon="4.47076">
        <ele>678</ele>
        <time>2016-08-23T10:56:58Z</time>
      </trkpt>
      <trkpt lat="45.8141" lon="4.47073">
        <ele>679</ele>
        <time>2016-08-23T10:56:59Z</time>
      </trkpt>
      <trkpt lat="45.81416" lon="4.4707">
        <ele>679</ele>
        <time>2016-08-23T10:57:00Z</time>
      </trkpt>
      <trkpt lat="45.81422" lon="4.47068">
        <ele>681</ele>
        <time>2016-08-23T10:57:01Z</time>
      </trkpt>
      <trkpt lat="45.81429" lon="4.47066">
        <ele>680</ele>
        <time>2016-08-23T10:57:02Z</time>
      </trkpt>
      <trkpt lat="45.81436" lon="4.47064">
        <ele>680</ele>
        <time>2016-08-23T10:57:03Z</time>
      </trkpt>
      <trkpt lat="45.81442" lon="4.47062">
        <ele>680</ele>
        <time>2016-08-23T10:57:04Z</time>
      </trkpt>
      <trkpt lat="45.81448" lon="4.4706">
        <ele>680</ele>
        <time>2016-08-23T10:57:05Z</time>
      </trkpt>
      <trkpt lat="45.81455" lon="4.47058">
        <ele>680</ele>
        <time>2016-08-23T10:57:06Z</time>
      </trkpt>
      <trkpt lat="45.81461" lon="4.47055">
        <ele>680</ele>
        <time>2016-08-23T10:57:07Z</time>
      </trkpt>
      <trkpt lat="45.81467" lon="4.47054">
        <ele>680</ele>
        <time>2016-08-23T10:57:08Z</time>
      </trkpt>
      <trkpt lat="45.81474" lon="4.47053">
        <ele>680</ele>
        <time>2016-08-23T10:57:09Z</time>
      </trkpt>
      <trkpt lat="45.81481" lon="4.4705">
        <ele>680</ele>
        <time>2016-08-23T10:57:10Z</time>
      </trkpt>
      <trkpt lat="45.81487" lon="4.47047">
        <ele>680</ele>
        <time>2016-08-23T10:57:11Z</time>
      </trkpt>
      <trkpt lat="45.81493" lon="4.47044">
        <ele>680</ele>
        <time>2016-08-23T10:57:12Z</time>
      </trkpt>
      <trkpt lat="45.815" lon="4.4704">
        <ele>686</ele>
        <time>2016-08-23T10:57:13Z</time>
      </trkpt>
      <trkpt lat="45.81506" lon="4.47036">
        <ele>685</ele>
        <time>2016-08-23T10:57:14Z</time>
      </trkpt>
      <trkpt lat="45.81513" lon="4.47031">
        <ele>684</ele>
        <time>2016-08-23T10:57:15Z</time>
      </trkpt>
      <trkpt lat="45.81519" lon="4.47027">
        <ele>684</ele>
        <time>2016-08-23T10:57:16Z</time>
      </trkpt>
      <trkpt lat="45.81526" lon="4.47023">
        <ele>684</ele>
        <time>2016-08-23T10:57:17Z</time>
      </trkpt>
      <trkpt lat="45.81532" lon="4.47018">
        <ele>684</ele>
        <time>2016-08-23T10:57:18Z</time>
      </trkpt>
      <trkpt lat="45.81539" lon="4.47013">
        <ele>685</ele>
        <time>2016-08-23T10:57:19Z</time>
      </trkpt>
      <trkpt lat="45.81545" lon="4.47008">
        <ele>685</ele>
        <time>2016-08-23T10:57:20Z</time>
      </trkpt>
      <trkpt lat="45.8155" lon="4.47001">
        <ele>685</ele>
        <time>2016-08-23T10:57:21Z</time>
      </trkpt>
      <trkpt lat="45.81555" lon="4.46995">
        <ele>673</ele>
        <time>2016-08-23T10:57:22Z</time>
      </trkpt>
      <trkpt lat="45.8156" lon="4.46988">
        <ele>674</ele>
        <time>2016-08-23T10:57:23Z</time>
      </trkpt>
      <trkpt lat="45.81565" lon="4.46981">
        <ele>673</ele>
        <time>2016-08-23T10:57:24Z</time>
      </trkpt>
      <trkpt lat="45.8157" lon="4.46974">
        <ele>673</ele>
        <time>2016-08-23T10:57:25Z</time>
      </trkpt>
      <trkpt lat="45.81574" lon="4.46969">
        <ele>672</ele>
        <time>2016-08-23T10:57:26Z</time>
      </trkpt>
      <trkpt lat="45.81578" lon="4.46962">
        <ele>671</ele>
        <time>2016-08-23T10:57:27Z</time>
      </trkpt>
      <trkpt lat="45.81582" lon="4.46956">
        <ele>670</ele>
        <time>2016-08-23T10:57:28Z</time>
      </trkpt>
      <trkpt lat="45.81586" lon="4.4695">
        <ele>678</ele>
        <time>2016-08-23T10:57:29Z</time>
      </trkpt>
      <trkpt lat="45.8159" lon="4.46945">
        <ele>677</ele>
        <time>2016-08-23T10:57:30Z</time>
      </trkpt>
      <trkpt lat="45.81593" lon="4.46937">
        <ele>676</ele>
        <time>2016-08-23T10:57:31Z</time>
      </trkpt>
      <trkpt lat="45.81597" lon="4.46932">
        <ele>675</ele>
        <time>2016-08-23T10:57:32Z</time>
      </trkpt>
      <trkpt lat="45.81602" lon="4.46926">
        <ele>675</ele>
        <time>2016-08-23T10:57:33Z</time>
      </trkpt>
      <trkpt lat="45.81606" lon="4.46922">
        <ele>676</ele>
        <time>2016-08-23T10:57:34Z</time>
      </trkpt>
      <trkpt lat="45.81611" lon="4.46919">
        <ele>676</ele>
        <time>2016-08-23T10:57:35Z</time>
      </trkpt>
      <trkpt lat="45.81616" lon="4.46916">
        <ele>666</ele>
        <time>2016-08-23T10:57:36Z</time>
      </trkpt>
      <trkpt lat="45.81621" lon="4.46914">
        <ele>666</ele>
        <time>2016-08-23T10:57:37Z</time>
      </trkpt>
      <trkpt lat="45.81626" lon="4.46913">
        <ele>667</ele>
        <time>2016-08-23T10:57:38Z</time>
      </trkpt>
      <trkpt lat="45.81631" lon="4.46911">
        <ele>667</ele>
        <time>2016-08-23T10:57:39Z</time>
      </trkpt>
      <trkpt lat="45.81637" lon="4.4691">
        <ele>668</ele>
        <time>2016-08-23T10:57:40Z</time>
      </trkpt>
      <trkpt lat="45.81642" lon="4.46909">
        <ele>669</ele>
        <time>2016-08-23T10:57:41Z</time>
      </trkpt>
      <trkpt lat="45.81648" lon="4.46908">
        <ele>670</ele>
        <time>2016-08-23T10:57:42Z</time>
      </trkpt>
      <trkpt lat="45.81653" lon="4.46907">
        <ele>671</ele>
        <time>2016-08-23T10:57:43Z</time>
      </trkpt>
      <trkpt lat="45.81659" lon="4.46906">
        <ele>672</ele>
        <time>2016-08-23T10:57:44Z</time>
      </trkpt>
      <trkpt lat="45.81665" lon="4.46905">
        <ele>673</ele>
        <time>2016-08-23T10:57:45Z</time>
      </trkpt>
      <trkpt lat="45.8167" lon="4.46903">
        <ele>675</ele>
        <time>2016-08-23T10:57:46Z</time>
      </trkpt>
      <trkpt lat="45.81675" lon="4.46901">
        <ele>674</ele>
        <time>2016-08-23T10:57:47Z</time>
      </trkpt>
      <trkpt lat="45.81681" lon="4.46899">
        <ele>673</ele>
        <time>2016-08-23T10:57:48Z</time>
      </trkpt>
      <trkpt lat="45.81686" lon="4.46898">
        <ele>673</ele>
        <time>2016-08-23T10:57:49Z</time>
      </trkpt>
      <trkpt lat="45.81691" lon="4.46896">
        <ele>672</ele>
        <time>2016-08-23T10:57:50Z</time>
      </trkpt>
      <trkpt lat="45.81695" lon="4.46894">
        <ele>672</ele>
        <time>2016-08-23T10:57:51Z</time>
      </trkpt>
      <trkpt lat="45.817" lon="4.46891">
        <ele>672</ele>
        <time>2016-08-23T10:57:52Z</time>
      </trkpt>
      <trkpt lat="45.81704" lon="4.46889">
        <ele>672</ele>
        <time>2016-08-23T10:57:53Z</time>
      </trkpt>
      <trkpt lat="45.81708" lon="4.46886">
        <ele>671</ele>
        <time>2016-08-23T10:57:54Z</time>
      </trkpt>
      <trkpt lat="45.81713" lon="4.46884">
        <ele>671</ele>
        <time>2016-08-23T10:57:55Z</time>
      </trkpt>
      <trkpt lat="45.81717" lon="4.46881">
        <ele>671</ele>
        <time>2016-08-23T10:57:56Z</time>
      </trkpt>
      <trkpt lat="45.81725" lon="4.46876">
        <ele>671</ele>
        <time>2016-08-23T10:57:58Z</time>
      </trkpt>
      <trkpt lat="45.81729" lon="4.46874">
        <ele>671</ele>
        <time>2016-08-23T10:57:59Z</time>
      </trkpt>
      <trkpt lat="45.81734" lon="4.46873">
        <ele>670</ele>
        <time>2016-08-23T10:58:00Z</time>
      </trkpt>
      <trkpt lat="45.81738" lon="4.46872">
        <ele>670</ele>
        <time>2016-08-23T10:58:01Z</time>
      </trkpt>
      <trkpt lat="45.81747" lon="4.4687">
        <ele>670</ele>
        <time>2016-08-23T10:58:03Z</time>
      </trkpt>
      <trkpt lat="45.81752" lon="4.46871">
        <ele>670</ele>
        <time>2016-08-23T10:58:04Z</time>
      </trkpt>
      <trkpt lat="45.81757" lon="4.46871">
        <ele>670</ele>
        <time>2016-08-23T10:58:05Z</time>
      </trkpt>
      <trkpt lat="45.81761" lon="4.46871">
        <ele>670</ele>
        <time>2016-08-23T10:58:06Z</time>
      </trkpt>
      <trkpt lat="45.81766" lon="4.46872">
        <ele>670</ele>
        <time>2016-08-23T10:58:07Z</time>
      </trkpt>
      <trkpt lat="45.81771" lon="4.46874">
        <ele>670</ele>
        <time>2016-08-23T10:58:08Z</time>
      </trkpt>
      <trkpt lat="45.81776" lon="4.46876">
        <ele>670</ele>
        <time>2016-08-23T10:58:09Z</time>
      </trkpt>
      <trkpt lat="45.81781" lon="4.46878">
        <ele>670</ele>
        <time>2016-08-23T10:58:10Z</time>
      </trkpt>
      <trkpt lat="45.81786" lon="4.46881">
        <ele>670</ele>
        <time>2016-08-23T10:58:11Z</time>
      </trkpt>
      <trkpt lat="45.81791" lon="4.46884">
        <ele>671</ele>
        <time>2016-08-23T10:58:12Z</time>
      </trkpt>
      <trkpt lat="45.81796" lon="4.46888">
        <ele>671</ele>
        <time>2016-08-23T10:58:13Z</time>
      </trkpt>
      <trkpt lat="45.818" lon="4.46892">
        <ele>671</ele>
        <time>2016-08-23T10:58:14Z</time>
      </trkpt>
      <trkpt lat="45.81805" lon="4.46897">
        <ele>671</ele>
        <time>2016-08-23T10:58:15Z</time>
      </trkpt>
      <trkpt lat="45.8181" lon="4.46902">
        <ele>671</ele>
        <time>2016-08-23T10:58:16Z</time>
      </trkpt>
      <trkpt lat="45.81815" lon="4.46907">
        <ele>672</ele>
        <time>2016-08-23T10:58:17Z</time>
      </trkpt>
      <trkpt lat="45.81819" lon="4.46912">
        <ele>672</ele>
        <time>2016-08-23T10:58:18Z</time>
      </trkpt>
      <trkpt lat="45.81823" lon="4.46918">
        <ele>677</ele>
        <time>2016-08-23T10:58:19Z</time>
      </trkpt>
      <trkpt lat="45.81828" lon="4.46923">
        <ele>676</ele>
        <time>2016-08-23T10:58:20Z</time>
      </trkpt>
      <trkpt lat="45.81832" lon="4.46928">
        <ele>677</ele>
        <time>2016-08-23T10:58:21Z</time>
      </trkpt>
      <trkpt lat="45.81836" lon="4.46932">
        <ele>673</ele>
        <time>2016-08-23T10:58:22Z</time>
      </trkpt>
      <trkpt lat="45.81841" lon="4.46936">
        <ele>674</ele>
        <time>2016-08-23T10:58:23Z</time>
      </trkpt>
      <trkpt lat="45.81846" lon="4.4694">
        <ele>674</ele>
        <time>2016-08-23T10:58:24Z</time>
      </trkpt>
      <trkpt lat="45.8185" lon="4.46944">
        <ele>674</ele>
        <time>2016-08-23T10:58:25Z</time>
      </trkpt>
      <trkpt lat="45.81855" lon="4.46948">
        <ele>674</ele>
        <time>2016-08-23T10:58:26Z</time>
      </trkpt>
      <trkpt lat="45.8186" lon="4.46951">
        <ele>674</ele>
        <time>2016-08-23T10:58:27Z</time>
      </trkpt>
      <trkpt lat="45.81865" lon="4.46955">
        <ele>674</ele>
        <time>2016-08-23T10:58:28Z</time>
      </trkpt>
      <trkpt lat="45.8187" lon="4.46959">
        <ele>673</ele>
        <time>2016-08-23T10:58:29Z</time>
      </trkpt>
      <trkpt lat="45.81875" lon="4.46962">
        <ele>673</ele>
        <time>2016-08-23T10:58:30Z</time>
      </trkpt>
      <trkpt lat="45.8188" lon="4.46966">
        <ele>673</ele>
        <time>2016-08-23T10:58:31Z</time>
      </trkpt>
      <trkpt lat="45.81885" lon="4.4697">
        <ele>673</ele>
        <time>2016-08-23T10:58:32Z</time>
      </trkpt>
      <trkpt lat="45.8189" lon="4.46974">
        <ele>673</ele>
        <time>2016-08-23T10:58:33Z</time>
      </trkpt>
      <trkpt lat="45.81894" lon="4.46977">
        <ele>673</ele>
        <time>2016-08-23T10:58:34Z</time>
      </trkpt>
      <trkpt lat="45.81899" lon="4.46981">
        <ele>672</ele>
        <time>2016-08-23T10:58:35Z</time>
      </trkpt>
      <trkpt lat="45.81903" lon="4.46986">
        <ele>672</ele>
        <time>2016-08-23T10:58:36Z</time>
      </trkpt>
      <trkpt lat="45.81907" lon="4.46991">
        <ele>672</ele>
        <time>2016-08-23T10:58:37Z</time>
      </trkpt>
      <trkpt lat="45.81911" lon="4.46996">
        <ele>672</ele>
        <time>2016-08-23T10:58:38Z</time>
      </trkpt>
      <trkpt lat="45.81915" lon="4.47001">
        <ele>672</ele>
        <time>2016-08-23T10:58:39Z</time>
      </trkpt>
      <trkpt lat="45.81918" lon="4.47007">
        <ele>672</ele>
        <time>2016-08-23T10:58:40Z</time>
      </trkpt>
      <trkpt lat="45.8192" lon="4.47014">
        <ele>672</ele>
        <time>2016-08-23T10:58:41Z</time>
      </trkpt>
      <trkpt lat="45.81922" lon="4.4702">
        <ele>673</ele>
        <time>2016-08-23T10:58:42Z</time>
      </trkpt>
      <trkpt lat="45.81925" lon="4.47026">
        <ele>673</ele>
        <time>2016-08-23T10:58:43Z</time>
      </trkpt>
      <trkpt lat="45.81927" lon="4.47033">
        <ele>674</ele>
        <time>2016-08-23T10:58:44Z</time>
      </trkpt>
      <trkpt lat="45.81929" lon="4.47039">
        <ele>674</ele>
        <time>2016-08-23T10:58:45Z</time>
      </trkpt>
      <trkpt lat="45.81932" lon="4.47044">
        <ele>675</ele>
        <time>2016-08-23T10:58:46Z</time>
      </trkpt>
      <trkpt lat="45.81936" lon="4.4705">
        <ele>675</ele>
        <time>2016-08-23T10:58:47Z</time>
      </trkpt>
      <trkpt lat="45.8194" lon="4.47054">
        <ele>676</ele>
        <time>2016-08-23T10:58:48Z</time>
      </trkpt>
      <trkpt lat="45.81944" lon="4.47058">
        <ele>676</ele>
        <time>2016-08-23T10:58:49Z</time>
      </trkpt>
      <trkpt lat="45.81949" lon="4.47061">
        <ele>676</ele>
        <time>2016-08-23T10:58:50Z</time>
      </trkpt>
      <trkpt lat="45.81955" lon="4.47064">
        <ele>675</ele>
        <time>2016-08-23T10:58:51Z</time>
      </trkpt>
      <trkpt lat="45.81961" lon="4.47067">
        <ele>675</ele>
        <time>2016-08-23T10:58:52Z</time>
      </trkpt>
      <trkpt lat="45.81967" lon="4.47069">
        <ele>675</ele>
        <time>2016-08-23T10:58:53Z</time>
      </trkpt>
      <trkpt lat="45.81973" lon="4.4707">
        <ele>675</ele>
        <time>2016-08-23T10:58:54Z</time>
      </trkpt>
      <trkpt lat="45.81979" lon="4.4707">
        <ele>675</ele>
        <time>2016-08-23T10:58:55Z</time>
      </trkpt>
      <trkpt lat="45.81985" lon="4.4707">
        <ele>675</ele>
        <time>2016-08-23T10:58:56Z</time>
      </trkpt>
      <trkpt lat="45.81992" lon="4.47068">
        <ele>675</ele>
        <time>2016-08-23T10:58:57Z</time>
      </trkpt>
      <trkpt lat="45.81998" lon="4.47066">
        <ele>675</ele>
        <time>2016-08-23T10:58:58Z</time>
      </trkpt>
      <trkpt lat="45.82005" lon="4.47063">
        <ele>674</ele>
        <time>2016-08-23T10:58:59Z</time>
      </trkpt>
      <trkpt lat="45.82011" lon="4.47061">
        <ele>674</ele>
        <time>2016-08-23T10:59:00Z</time>
      </trkpt>
      <trkpt lat="45.82017" lon="4.47059">
        <ele>673</ele>
        <time>2016-08-23T10:59:01Z</time>
      </trkpt>
      <trkpt lat="45.82023" lon="4.47057">
        <ele>673</ele>
        <time>2016-08-23T10:59:02Z</time>
      </trkpt>
      <trkpt lat="45.82029" lon="4.47055">
        <ele>673</ele>
        <time>2016-08-23T10:59:03Z</time>
      </trkpt>
      <trkpt lat="45.82035" lon="4.47053">
        <ele>673</ele>
        <time>2016-08-23T10:59:04Z</time>
      </trkpt>
      <trkpt lat="45.82041" lon="4.47052">
        <ele>673</ele>
        <time>2016-08-23T10:59:05Z</time>
      </trkpt>
      <trkpt lat="45.82048" lon="4.47051">
        <ele>673</ele>
        <time>2016-08-23T10:59:06Z</time>
      </trkpt>
      <trkpt lat="45.82053" lon="4.4705">
        <ele>673</ele>
        <time>2016-08-23T10:59:07Z</time>
      </trkpt>
      <trkpt lat="45.82059" lon="4.47048">
        <ele>673</ele>
        <time>2016-08-23T10:59:08Z</time>
      </trkpt>
      <trkpt lat="45.82064" lon="4.47047">
        <ele>673</ele>
        <time>2016-08-23T10:59:09Z</time>
      </trkpt>
      <trkpt lat="45.8207" lon="4.47045">
        <ele>673</ele>
        <time>2016-08-23T10:59:10Z</time>
      </trkpt>
      <trkpt lat="45.82076" lon="4.47043">
        <ele>673</ele>
        <time>2016-08-23T10:59:11Z</time>
      </trkpt>
      <trkpt lat="45.82081" lon="4.47041">
        <ele>673</ele>
        <time>2016-08-23T10:59:12Z</time>
      </trkpt>
      <trkpt lat="45.82087" lon="4.47039">
        <ele>675</ele>
        <time>2016-08-23T10:59:13Z</time>
      </trkpt>
      <trkpt lat="45.82093" lon="4.47036">
        <ele>674</ele>
        <time>2016-08-23T10:59:14Z</time>
      </trkpt>
      <trkpt lat="45.82098" lon="4.47033">
        <ele>674</ele>
        <time>2016-08-23T10:59:15Z</time>
      </trkpt>
      <trkpt lat="45.82103" lon="4.4703">
        <ele>674</ele>
        <time>2016-08-23T10:59:16Z</time>
      </trkpt>
      <trkpt lat="45.82108" lon="4.47028">
        <ele>674</ele>
        <time>2016-08-23T10:59:17Z</time>
      </trkpt>
      <trkpt lat="45.82113" lon="4.47025">
        <ele>674</ele>
        <time>2016-08-23T10:59:18Z</time>
      </trkpt>
      <trkpt lat="45.82117" lon="4.47022">
        <ele>674</ele>
        <time>2016-08-23T10:59:19Z</time>
      </trkpt>
      <trkpt lat="45.82122" lon="4.47019">
        <ele>674</ele>
        <time>2016-08-23T10:59:20Z</time>
      </trkpt>
      <trkpt lat="45.82127" lon="4.47017">
        <ele>674</ele>
        <time>2016-08-23T10:59:21Z</time>
      </trkpt>
      <trkpt lat="45.82131" lon="4.47014">
        <ele>674</ele>
        <time>2016-08-23T10:59:22Z</time>
      </trkpt>
      <trkpt lat="45.82139" lon="4.47009">
        <ele>673</ele>
        <time>2016-08-23T10:59:24Z</time>
      </trkpt>
      <trkpt lat="45.82143" lon="4.47007">
        <ele>673</ele>
        <time>2016-08-23T10:59:25Z</time>
      </trkpt>
      <trkpt lat="45.82147" lon="4.47004">
        <ele>673</ele>
        <time>2016-08-23T10:59:26Z</time>
      </trkpt>
      <trkpt lat="45.82151" lon="4.47001">
        <ele>673</ele>
        <time>2016-08-23T10:59:27Z</time>
      </trkpt>
      <trkpt lat="45.82155" lon="4.46998">
        <ele>668</ele>
        <time>2016-08-23T10:59:28Z</time>
      </trkpt>
      <trkpt lat="45.8216" lon="4.46994">
        <ele>668</ele>
        <time>2016-08-23T10:59:29Z</time>
      </trkpt>
      <trkpt lat="45.82164" lon="4.4699">
        <ele>668</ele>
        <time>2016-08-23T10:59:30Z</time>
      </trkpt>
      <trkpt lat="45.82169" lon="4.46986">
        <ele>669</ele>
        <time>2016-08-23T10:59:31Z</time>
      </trkpt>
      <trkpt lat="45.82173" lon="4.46983">
        <ele>668</ele>
        <time>2016-08-23T10:59:32Z</time>
      </trkpt>
      <trkpt lat="45.82178" lon="4.4698">
        <ele>667</ele>
        <time>2016-08-23T10:59:33Z</time>
      </trkpt>
      <trkpt lat="45.82182" lon="4.46977">
        <ele>667</ele>
        <time>2016-08-23T10:59:34Z</time>
      </trkpt>
      <trkpt lat="45.82186" lon="4.46974">
        <ele>667</ele>
        <time>2016-08-23T10:59:35Z</time>
      </trkpt>
      <trkpt lat="45.8219" lon="4.46972">
        <ele>666</ele>
        <time>2016-08-23T10:59:36Z</time>
      </trkpt>
      <trkpt lat="45.82195" lon="4.4697">
        <ele>666</ele>
        <time>2016-08-23T10:59:37Z</time>
      </trkpt>
      <trkpt lat="45.822" lon="4.46971">
        <ele>666</ele>
        <time>2016-08-23T10:59:38Z</time>
      </trkpt>
      <trkpt lat="45.82206" lon="4.46972">
        <ele>666</ele>
        <time>2016-08-23T10:59:39Z</time>
      </trkpt>
      <trkpt lat="45.82212" lon="4.46974">
        <ele>666</ele>
        <time>2016-08-23T10:59:40Z</time>
      </trkpt>
      <trkpt lat="45.82218" lon="4.46977">
        <ele>666</ele>
        <time>2016-08-23T10:59:41Z</time>
      </trkpt>
      <trkpt lat="45.82223" lon="4.4698">
        <ele>667</ele>
        <time>2016-08-23T10:59:42Z</time>
      </trkpt>
      <trkpt lat="45.82229" lon="4.46983">
        <ele>667</ele>
        <time>2016-08-23T10:59:43Z</time>
      </trkpt>
      <trkpt lat="45.82233" lon="4.46986">
        <ele>668</ele>
        <time>2016-08-23T10:59:44Z</time>
      </trkpt>
      <trkpt lat="45.82238" lon="4.4699">
        <ele>668</ele>
        <time>2016-08-23T10:59:45Z</time>
      </trkpt>
      <trkpt lat="45.82242" lon="4.46993">
        <ele>669</ele>
        <time>2016-08-23T10:59:46Z</time>
      </trkpt>
      <trkpt lat="45.82246" lon="4.46998">
        <ele>670</ele>
        <time>2016-08-23T10:59:47Z</time>
      </trkpt>
      <trkpt lat="45.8225" lon="4.47002">
        <ele>671</ele>
        <time>2016-08-23T10:59:48Z</time>
      </trkpt>
      <trkpt lat="45.82254" lon="4.47007">
        <ele>671</ele>
        <time>2016-08-23T10:59:49Z</time>
      </trkpt>
      <trkpt lat="45.82257" lon="4.47013">
        <ele>671</ele>
        <time>2016-08-23T10:59:50Z</time>
      </trkpt>
      <trkpt lat="45.8226" lon="4.47019">
        <ele>671</ele>
        <time>2016-08-23T10:59:51Z</time>
      </trkpt>
      <trkpt lat="45.82263" lon="4.47026">
        <ele>671</ele>
        <time>2016-08-23T10:59:52Z</time>
      </trkpt>
      <trkpt lat="45.82266" lon="4.47033">
        <ele>671</ele>
        <time>2016-08-23T10:59:53Z</time>
      </trkpt>
      <trkpt lat="45.82269" lon="4.47039">
        <ele>671</ele>
        <time>2016-08-23T10:59:54Z</time>
      </trkpt>
      <trkpt lat="45.82273" lon="4.47046">
        <ele>671</ele>
        <time>2016-08-23T10:59:55Z</time>
      </trkpt>
      <trkpt lat="45.82277" lon="4.47052">
        <ele>672</ele>
        <time>2016-08-23T10:59:56Z</time>
      </trkpt>
      <trkpt lat="45.82281" lon="4.47057">
        <ele>672</ele>
        <time>2016-08-23T10:59:57Z</time>
      </trkpt>
      <trkpt lat="45.82286" lon="4.47062">
        <ele>672</ele>
        <time>2016-08-23T10:59:58Z</time>
      </trkpt>
      <trkpt lat="45.8229" lon="4.47067">
        <ele>671</ele>
        <time>2016-08-23T10:59:59Z</time>
      </trkpt>
      <trkpt lat="45.82295" lon="4.47071">
        <ele>671</ele>
        <time>2016-08-23T11:00:00Z</time>
      </trkpt>
      <trkpt lat="45.823" lon="4.47075">
        <ele>671</ele>
        <time>2016-08-23T11:00:01Z</time>
      </trkpt>
      <trkpt lat="45.82305" lon="4.4708">
        <ele>671</ele>
        <time>2016-08-23T11:00:02Z</time>
      </trkpt>
      <trkpt lat="45.8231" lon="4.47084">
        <ele>677</ele>
        <time>2016-08-23T11:00:03Z</time>
      </trkpt>
      <trkpt lat="45.82315" lon="4.47087">
        <ele>677</ele>
        <time>2016-08-23T11:00:04Z</time>
      </trkpt>
      <trkpt lat="45.8232" lon="4.4709">
        <ele>676</ele>
        <time>2016-08-23T11:00:05Z</time>
      </trkpt>
      <trkpt lat="45.82326" lon="4.47094">
        <ele>675</ele>
        <time>2016-08-23T11:00:06Z</time>
      </trkpt>
      <trkpt lat="45.82331" lon="4.47097">
        <ele>675</ele>
        <time>2016-08-23T11:00:07Z</time>
      </trkpt>
      <trkpt lat="45.82336" lon="4.471">
        <ele>673</ele>
        <time>2016-08-23T11:00:08Z</time>
      </trkpt>
      <trkpt lat="45.82342" lon="4.47103">
        <ele>673</ele>
        <time>2016-08-23T11:00:09Z</time>
      </trkpt>
      <trkpt lat="45.82347" lon="4.47105">
        <ele>673</ele>
        <time>2016-08-23T11:00:10Z</time>
      </trkpt>
      <trkpt lat="45.82353" lon="4.47106">
        <ele>674</ele>
        <time>2016-08-23T11:00:11Z</time>
      </trkpt>
      <trkpt lat="45.82359" lon="4.47108">
        <ele>674</ele>
        <time>2016-08-23T11:00:12Z</time>
      </trkpt>
      <trkpt lat="45.82365" lon="4.4711">
        <ele>674</ele>
        <time>2016-08-23T11:00:13Z</time>
      </trkpt>
      <trkpt lat="45.82371" lon="4.47112">
        <ele>674</ele>
        <time>2016-08-23T11:00:14Z</time>
      </trkpt>
      <trkpt lat="45.82377" lon="4.47113">
        <ele>674</ele>
        <time>2016-08-23T11:00:15Z</time>
      </trkpt>
      <trkpt lat="45.82383" lon="4.47114">
        <ele>673</ele>
        <time>2016-08-23T11:00:16Z</time>
      </trkpt>
      <trkpt lat="45.82389" lon="4.47115">
        <ele>673</ele>
        <time>2016-08-23T11:00:17Z</time>
      </trkpt>
      <trkpt lat="45.82395" lon="4.47116">
        <ele>673</ele>
        <time>2016-08-23T11:00:18Z</time>
      </trkpt>
      <trkpt lat="45.82401" lon="4.47118">
        <ele>673</ele>
        <time>2016-08-23T11:00:19Z</time>
      </trkpt>
      <trkpt lat="45.82407" lon="4.47119">
        <ele>673</ele>
        <time>2016-08-23T11:00:20Z</time>
      </trkpt>
      <trkpt lat="45.82413" lon="4.4712">
        <ele>673</ele>
        <time>2016-08-23T11:00:21Z</time>
      </trkpt>
      <trkpt lat="45.82418" lon="4.47121">
        <ele>670</ele>
        <time>2016-08-23T11:00:22Z</time>
      </trkpt>
      <trkpt lat="45.82423" lon="4.47122">
        <ele>670</ele>
        <time>2016-08-23T11:00:23Z</time>
      </trkpt>
      <trkpt lat="45.82428" lon="4.47121">
        <ele>670</ele>
        <time>2016-08-23T11:00:24Z</time>
      </trkpt>
      <trkpt lat="45.82434" lon="4.47121">
        <ele>670</ele>
        <time>2016-08-23T11:00:25Z</time>
      </trkpt>
      <trkpt lat="45.82439" lon="4.47122">
        <ele>670</ele>
        <time>2016-08-23T11:00:26Z</time>
      </trkpt>
      <trkpt lat="45.82445" lon="4.47123">
        <ele>670</ele>
        <time>2016-08-23T11:00:27Z</time>
      </trkpt>
      <trkpt lat="45.82451" lon="4.47123">
        <ele>670</ele>
        <time>2016-08-23T11:00:28Z</time>
      </trkpt>
      <trkpt lat="45.82456" lon="4.47124">
        <ele>670</ele>
        <time>2016-08-23T11:00:29Z</time>
      </trkpt>
      <trkpt lat="45.82462" lon="4.47125">
        <ele>670</ele>
        <time>2016-08-23T11:00:30Z</time>
      </trkpt>
      <trkpt lat="45.82468" lon="4.47126">
        <ele>670</ele>
        <time>2016-08-23T11:00:31Z</time>
      </trkpt>
      <trkpt lat="45.82474" lon="4.47126">
        <ele>670</ele>
        <time>2016-08-23T11:00:32Z</time>
      </trkpt>
      <trkpt lat="45.8248" lon="4.47126">
        <ele>670</ele>
        <time>2016-08-23T11:00:33Z</time>
      </trkpt>
      <trkpt lat="45.82486" lon="4.47126">
        <ele>670</ele>
        <time>2016-08-23T11:00:34Z</time>
      </trkpt>
      <trkpt lat="45.82492" lon="4.47126">
        <ele>670</ele>
        <time>2016-08-23T11:00:35Z</time>
      </trkpt>
      <trkpt lat="45.82499" lon="4.47126">
        <ele>670</ele>
        <time>2016-08-23T11:00:36Z</time>
      </trkpt>
      <trkpt lat="45.82506" lon="4.47126">
        <ele>670</ele>
        <time>2016-08-23T11:00:37Z</time>
      </trkpt>
      <trkpt lat="45.82512" lon="4.47125">
        <ele>670</ele>
        <time>2016-08-23T11:00:38Z</time>
      </trkpt>
      <trkpt lat="45.82518" lon="4.47125">
        <ele>670</ele>
        <time>2016-08-23T11:00:39Z</time>
      </trkpt>
      <trkpt lat="45.82525" lon="4.47125">
        <ele>670</ele>
        <time>2016-08-23T11:00:40Z</time>
      </trkpt>
      <trkpt lat="45.82531" lon="4.47124">
        <ele>670</ele>
        <time>2016-08-23T11:00:41Z</time>
      </trkpt>
      <trkpt lat="45.82537" lon="4.47124">
        <ele>670</ele>
        <time>2016-08-23T11:00:42Z</time>
      </trkpt>
      <trkpt lat="45.82543" lon="4.47124">
        <ele>670</ele>
        <time>2016-08-23T11:00:43Z</time>
      </trkpt>
      <trkpt lat="45.82548" lon="4.47123">
        <ele>670</ele>
        <time>2016-08-23T11:00:44Z</time>
      </trkpt>
      <trkpt lat="45.82554" lon="4.47123">
        <ele>670</ele>
        <time>2016-08-23T11:00:45Z</time>
      </trkpt>
      <trkpt lat="45.82559" lon="4.47122">
        <ele>670</ele>
        <time>2016-08-23T11:00:46Z</time>
      </trkpt>
      <trkpt lat="45.82563" lon="4.47121">
        <ele>670</ele>
        <time>2016-08-23T11:00:47Z</time>
      </trkpt>
      <trkpt lat="45.82568" lon="4.4712">
        <ele>670</ele>
        <time>2016-08-23T11:00:48Z</time>
      </trkpt>
      <trkpt lat="45.82574" lon="4.47121">
        <ele>670</ele>
        <time>2016-08-23T11:00:49Z</time>
      </trkpt>
      <trkpt lat="45.8258" lon="4.47121">
        <ele>670</ele>
        <time>2016-08-23T11:00:50Z</time>
      </trkpt>
      <trkpt lat="45.82585" lon="4.47121">
        <ele>672</ele>
        <time>2016-08-23T11:00:51Z</time>
      </trkpt>
      <trkpt lat="45.82592" lon="4.4712">
        <ele>672</ele>
        <time>2016-08-23T11:00:52Z</time>
      </trkpt>
      <trkpt lat="45.82598" lon="4.4712">
        <ele>673</ele>
        <time>2016-08-23T11:00:53Z</time>
      </trkpt>
      <trkpt lat="45.82604" lon="4.47119">
        <ele>673</ele>
        <time>2016-08-23T11:00:54Z</time>
      </trkpt>
      <trkpt lat="45.8261" lon="4.47118">
        <ele>673</ele>
        <time>2016-08-23T11:00:55Z</time>
      </trkpt>
      <trkpt lat="45.82616" lon="4.47116">
        <ele>673</ele>
        <time>2016-08-23T11:00:56Z</time>
      </trkpt>
      <trkpt lat="45.82622" lon="4.47114">
        <ele>673</ele>
        <time>2016-08-23T11:00:57Z</time>
      </trkpt>
      <trkpt lat="45.82627" lon="4.47112">
        <ele>673</ele>
        <time>2016-08-23T11:00:58Z</time>
      </trkpt>
      <trkpt lat="45.82632" lon="4.4711">
        <ele>673</ele>
        <time>2016-08-23T11:00:59Z</time>
      </trkpt>
      <trkpt lat="45.82637" lon="4.47107">
        <ele>673</ele>
        <time>2016-08-23T11:01:00Z</time>
      </trkpt>
      <trkpt lat="45.82642" lon="4.47104">
        <ele>673</ele>
        <time>2016-08-23T11:01:01Z</time>
      </trkpt>
      <trkpt lat="45.82647" lon="4.47102">
        <ele>672</ele>
        <time>2016-08-23T11:01:02Z</time>
      </trkpt>
      <trkpt lat="45.82652" lon="4.471">
        <ele>672</ele>
        <time>2016-08-23T11:01:03Z</time>
      </trkpt>
      <trkpt lat="45.82657" lon="4.47097">
        <ele>671</ele>
        <time>2016-08-23T11:01:04Z</time>
      </trkpt>
      <trkpt lat="45.82662" lon="4.47095">
        <ele>671</ele>
        <time>2016-08-23T11:01:05Z</time>
      </trkpt>
      <trkpt lat="45.82667" lon="4.47091">
        <ele>673</ele>
        <time>2016-08-23T11:01:06Z</time>
      </trkpt>
      <trkpt lat="45.82673" lon="4.47088">
        <ele>673</ele>
        <time>2016-08-23T11:01:07Z</time>
      </trkpt>
      <trkpt lat="45.82678" lon="4.47085">
        <ele>674</ele>
        <time>2016-08-23T11:01:08Z</time>
      </trkpt>
      <trkpt lat="45.82682" lon="4.47081">
        <ele>668</ele>
        <time>2016-08-23T11:01:09Z</time>
      </trkpt>
      <trkpt lat="45.82687" lon="4.47078">
        <ele>668</ele>
        <time>2016-08-23T11:01:10Z</time>
      </trkpt>
      <trkpt lat="45.82692" lon="4.47075">
        <ele>669</ele>
        <time>2016-08-23T11:01:11Z</time>
      </trkpt>
      <trkpt lat="45.82697" lon="4.47072">
        <ele>669</ele>
        <time>2016-08-23T11:01:12Z</time>
      </trkpt>
      <trkpt lat="45.82702" lon="4.47069">
        <ele>669</ele>
        <time>2016-08-23T11:01:13Z</time>
      </trkpt>
      <trkpt lat="45.82706" lon="4.47066">
        <ele>670</ele>
        <time>2016-08-23T11:01:14Z</time>
      </trkpt>
      <trkpt lat="45.82711" lon="4.47063">
        <ele>670</ele>
        <time>2016-08-23T11:01:15Z</time>
      </trkpt>
      <trkpt lat="45.82719" lon="4.47057">
        <ele>670</ele>
        <time>2016-08-23T11:01:17Z</time>
      </trkpt>
      <trkpt lat="45.82722" lon="4.47053">
        <ele>670</ele>
        <time>2016-08-23T11:01:18Z</time>
      </trkpt>
      <trkpt lat="45.82726" lon="4.4705">
        <ele>670</ele>
        <time>2016-08-23T11:01:19Z</time>
      </trkpt>
      <trkpt lat="45.8273" lon="4.47047">
        <ele>670</ele>
        <time>2016-08-23T11:01:20Z</time>
      </trkpt>
      <trkpt lat="45.82735" lon="4.47044">
        <ele>670</ele>
        <time>2016-08-23T11:01:21Z</time>
      </trkpt>
      <trkpt lat="45.8274" lon="4.47041">
        <ele>670</ele>
        <time>2016-08-23T11:01:22Z</time>
      </trkpt>
      <trkpt lat="45.82744" lon="4.47038">
        <ele>670</ele>
        <time>2016-08-23T11:01:23Z</time>
      </trkpt>
      <trkpt lat="45.82749" lon="4.47036">
        <ele>669</ele>
        <time>2016-08-23T11:01:24Z</time>
      </trkpt>
      <trkpt lat="45.82753" lon="4.47033">
        <ele>676</ele>
        <time>2016-08-23T11:01:25Z</time>
      </trkpt>
      <trkpt lat="45.82758" lon="4.47031">
        <ele>675</ele>
        <time>2016-08-23T11:01:26Z</time>
      </trkpt>
      <trkpt lat="45.82762" lon="4.47028">
        <ele>675</ele>
        <time>2016-08-23T11:01:27Z</time>
      </trkpt>
      <trkpt lat="45.82767" lon="4.47026">
        <ele>675</ele>
        <time>2016-08-23T11:01:28Z</time>
      </trkpt>
      <trkpt lat="45.82771" lon="4.47024">
        <ele>675</ele>
        <time>2016-08-23T11:01:29Z</time>
      </trkpt>
      <trkpt lat="45.82776" lon="4.47022">
        <ele>675</ele>
        <time>2016-08-23T11:01:30Z</time>
      </trkpt>
      <trkpt lat="45.8278" lon="4.4702">
        <ele>675</ele>
        <time>2016-08-23T11:01:31Z</time>
      </trkpt>
      <trkpt lat="45.82785" lon="4.47018">
        <ele>675</ele>
        <time>2016-08-23T11:01:32Z</time>
      </trkpt>
      <trkpt lat="45.82789" lon="4.47017">
        <ele>676</ele>
        <time>2016-08-23T11:01:33Z</time>
      </trkpt>
      <trkpt lat="45.82794" lon="4.47016">
        <ele>676</ele>
        <time>2016-08-23T11:01:34Z</time>
      </trkpt>
      <trkpt lat="45.82802" lon="4.47015">
        <ele>676</ele>
        <time>2016-08-23T11:01:36Z</time>
      </trkpt>
      <trkpt lat="45.82807" lon="4.47015">
        <ele>676</ele>
        <time>2016-08-23T11:01:37Z</time>
      </trkpt>
      <trkpt lat="45.82814" lon="4.47014">
        <ele>675</ele>
        <time>2016-08-23T11:01:39Z</time>
      </trkpt>
      <trkpt lat="45.82819" lon="4.47014">
        <ele>675</ele>
        <time>2016-08-23T11:01:40Z</time>
      </trkpt>
      <trkpt lat="45.82827" lon="4.47012">
        <ele>674</ele>
        <time>2016-08-23T11:01:42Z</time>
      </trkpt>
      <trkpt lat="45.82831" lon="4.47012">
        <ele>674</ele>
        <time>2016-08-23T11:01:43Z</time>
      </trkpt>
      <trkpt lat="45.82839" lon="4.47012">
        <ele>674</ele>
        <time>2016-08-23T11:01:45Z</time>
      </trkpt>
      <trkpt lat="45.82843" lon="4.47012">
        <ele>675</ele>
        <time>2016-08-23T11:01:46Z</time>
      </trkpt>
      <trkpt lat="45.82851" lon="4.47013">
        <ele>676</ele>
        <time>2016-08-23T11:01:48Z</time>
      </trkpt>
      <trkpt lat="45.82855" lon="4.47014">
        <ele>676</ele>
        <time>2016-08-23T11:01:49Z</time>
      </trkpt>
      <trkpt lat="45.82863" lon="4.47017">
        <ele>676</ele>
        <time>2016-08-23T11:01:51Z</time>
      </trkpt>
      <trkpt lat="45.82866" lon="4.47018">
        <ele>676</ele>
        <time>2016-08-23T11:01:52Z</time>
      </trkpt>
      <trkpt lat="45.82874" lon="4.47019">
        <ele>676</ele>
        <time>2016-08-23T11:01:54Z</time>
      </trkpt>
      <trkpt lat="45.82878" lon="4.4702">
        <ele>676</ele>
        <time>2016-08-23T11:01:55Z</time>
      </trkpt>
      <trkpt lat="45.82885" lon="4.47022">
        <ele>676</ele>
        <time>2016-08-23T11:01:57Z</time>
      </trkpt>
      <trkpt lat="45.82889" lon="4.47023">
        <ele>676</ele>
        <time>2016-08-23T11:01:58Z</time>
      </trkpt>
      <trkpt lat="45.82896" lon="4.47026">
        <ele>676</ele>
        <time>2016-08-23T11:02:00Z</time>
      </trkpt>
      <trkpt lat="45.829" lon="4.47027">
        <ele>676</ele>
        <time>2016-08-23T11:02:01Z</time>
      </trkpt>
      <trkpt lat="45.82909" lon="4.4703">
        <ele>676</ele>
        <time>2016-08-23T11:02:03Z</time>
      </trkpt>
      <trkpt lat="45.82912" lon="4.47031">
        <ele>676</ele>
        <time>2016-08-23T11:02:04Z</time>
      </trkpt>
      <trkpt lat="45.82921" lon="4.47034">
        <ele>673</ele>
        <time>2016-08-23T11:02:06Z</time>
      </trkpt>
      <trkpt lat="45.82924" lon="4.47036">
        <ele>673</ele>
        <time>2016-08-23T11:02:07Z</time>
      </trkpt>
      <trkpt lat="45.82932" lon="4.47039">
        <ele>673</ele>
        <time>2016-08-23T11:02:09Z</time>
      </trkpt>
      <trkpt lat="45.82936" lon="4.47041">
        <ele>673</ele>
        <time>2016-08-23T11:02:10Z</time>
      </trkpt>
      <trkpt lat="45.82943" lon="4.47043">
        <ele>673</ele>
        <time>2016-08-23T11:02:12Z</time>
      </trkpt>
      <trkpt lat="45.82946" lon="4.47044">
        <ele>673</ele>
        <time>2016-08-23T11:02:13Z</time>
      </trkpt>
      <trkpt lat="45.82953" lon="4.47049">
        <ele>673</ele>
        <time>2016-08-23T11:02:15Z</time>
      </trkpt>
      <trkpt lat="45.82956" lon="4.47051">
        <ele>673</ele>
        <time>2016-08-23T11:02:16Z</time>
      </trkpt>
      <trkpt lat="45.82963" lon="4.47056">
        <ele>673</ele>
        <time>2016-08-23T11:02:18Z</time>
      </trkpt>
      <trkpt lat="45.82966" lon="4.47058">
        <ele>673</ele>
        <time>2016-08-23T11:02:19Z</time>
      </trkpt>
      <trkpt lat="45.82972" lon="4.47064">
        <ele>674</ele>
        <time>2016-08-23T11:02:21Z</time>
      </trkpt>
      <trkpt lat="45.82976" lon="4.47067">
        <ele>674</ele>
        <time>2016-08-23T11:02:22Z</time>
      </trkpt>
      <trkpt lat="45.82982" lon="4.47073">
        <ele>674</ele>
        <time>2016-08-23T11:02:24Z</time>
      </trkpt>
      <trkpt lat="45.82985" lon="4.47076">
        <ele>674</ele>
        <time>2016-08-23T11:02:25Z</time>
      </trkpt>
      <trkpt lat="45.82991" lon="4.47084">
        <ele>679</ele>
        <time>2016-08-23T11:02:27Z</time>
      </trkpt>
      <trkpt lat="45.82994" lon="4.47088">
        <ele>678</ele>
        <time>2016-08-23T11:02:28Z</time>
      </trkpt>
      <trkpt lat="45.82998" lon="4.47097">
        <ele>680</ele>
        <time>2016-08-23T11:02:30Z</time>
      </trkpt>
      <trkpt lat="45.83" lon="4.47102">
        <ele>674</ele>
        <time>2016-08-23T11:02:31Z</time>
      </trkpt>
      <trkpt lat="45.83004" lon="4.47112">
        <ele>674</ele>
        <time>2016-08-23T11:02:33Z</time>
      </trkpt>
      <trkpt lat="45.83005" lon="4.47117">
        <ele>674</ele>
        <time>2016-08-23T11:02:34Z</time>
      </trkpt>
      <trkpt lat="45.83009" lon="4.47127">
        <ele>674</ele>
        <time>2016-08-23T11:02:36Z</time>
      </trkpt>
      <trkpt lat="45.8301" lon="4.47132">
        <ele>675</ele>
        <time>2016-08-23T11:02:37Z</time>
      </trkpt>
      <trkpt lat="45.83013" lon="4.47142">
        <ele>676</ele>
        <time>2016-08-23T11:02:39Z</time>
      </trkpt>
      <trkpt lat="45.83014" lon="4.47147">
        <ele>677</ele>
        <time>2016-08-23T11:02:40Z</time>
      </trkpt>
      <trkpt lat="45.83016" lon="4.47158">
        <ele>678</ele>
        <time>2016-08-23T11:02:42Z</time>
      </trkpt>
      <trkpt lat="45.83017" lon="4.47163">
        <ele>679</ele>
        <time>2016-08-23T11:02:43Z</time>
      </trkpt>
      <trkpt lat="45.83021" lon="4.47172">
        <ele>683</ele>
        <time>2016-08-23T11:02:45Z</time>
      </trkpt>
      <trkpt lat="45.83022" lon="4.47177">
        <ele>683</ele>
        <time>2016-08-23T11:02:46Z</time>
      </trkpt>
      <trkpt lat="45.83025" lon="4.47186">
        <ele>683</ele>
        <time>2016-08-23T11:02:48Z</time>
      </trkpt>
      <trkpt lat="45.83027" lon="4.4719">
        <ele>683</ele>
        <time>2016-08-23T11:02:49Z</time>
      </trkpt>
      <trkpt lat="45.83028" lon="4.472">
        <ele>683</ele>
        <time>2016-08-23T11:02:51Z</time>
      </trkpt>
      <trkpt lat="45.83028" lon="4.47204">
        <ele>683</ele>
        <time>2016-08-23T11:02:52Z</time>
      </trkpt>
      <trkpt lat="45.83029" lon="4.47215">
        <ele>684</ele>
        <time>2016-08-23T11:02:54Z</time>
      </trkpt>
      <trkpt lat="45.83031" lon="4.4722">
        <ele>684</ele>
        <time>2016-08-23T11:02:55Z</time>
      </trkpt>
      <trkpt lat="45.83034" lon="4.47229">
        <ele>685</ele>
        <time>2016-08-23T11:02:57Z</time>
      </trkpt>
      <trkpt lat="45.83034" lon="4.47234">
        <ele>685</ele>
        <time>2016-08-23T11:02:58Z</time>
      </trkpt>
      <trkpt lat="45.83037" lon="4.47245">
        <ele>685</ele>
        <time>2016-08-23T11:03:00Z</time>
      </trkpt>
      <trkpt lat="45.83038" lon="4.4725">
        <ele>692</ele>
        <time>2016-08-23T11:03:01Z</time>
      </trkpt>
      <trkpt lat="45.83041" lon="4.47259">
        <ele>691</ele>
        <time>2016-08-23T11:03:03Z</time>
      </trkpt>
      <trkpt lat="45.83042" lon="4.47262">
        <ele>691</ele>
        <time>2016-08-23T11:03:04Z</time>
      </trkpt>
      <trkpt lat="45.83045" lon="4.47271">
        <ele>691</ele>
        <time>2016-08-23T11:03:06Z</time>
      </trkpt>
      <trkpt lat="45.83047" lon="4.47276">
        <ele>690</ele>
        <time>2016-08-23T11:03:07Z</time>
      </trkpt>
      <trkpt lat="45.83049" lon="4.47286">
        <ele>691</ele>
        <time>2016-08-23T11:03:09Z</time>
      </trkpt>
      <trkpt lat="45.83049" lon="4.47291">
        <ele>691</ele>
        <time>2016-08-23T11:03:10Z</time>
      </trkpt>
      <trkpt lat="45.83052" lon="4.47301">
        <ele>691</ele>
        <time>2016-08-23T11:03:12Z</time>
      </trkpt>
      <trkpt lat="45.83054" lon="4.47306">
        <ele>691</ele>
        <time>2016-08-23T11:03:13Z</time>
      </trkpt>
      <trkpt lat="45.83057" lon="4.47316">
        <ele>690</ele>
        <time>2016-08-23T11:03:15Z</time>
      </trkpt>
      <trkpt lat="45.83059" lon="4.47321">
        <ele>690</ele>
        <time>2016-08-23T11:03:16Z</time>
      </trkpt>
      <trkpt lat="45.83063" lon="4.4733">
        <ele>689</ele>
        <time>2016-08-23T11:03:18Z</time>
      </trkpt>
      <trkpt lat="45.83065" lon="4.47335">
        <ele>693</ele>
        <time>2016-08-23T11:03:19Z</time>
      </trkpt>
      <trkpt lat="45.83071" lon="4.47344">
        <ele>692</ele>
        <time>2016-08-23T11:03:21Z</time>
      </trkpt>
      <trkpt lat="45.83073" lon="4.47348">
        <ele>693</ele>
        <time>2016-08-23T11:03:22Z</time>
      </trkpt>
      <trkpt lat="45.83077" lon="4.47356">
        <ele>694</ele>
        <time>2016-08-23T11:03:24Z</time>
      </trkpt>
      <trkpt lat="45.83079" lon="4.4736">
        <ele>695</ele>
        <time>2016-08-23T11:03:25Z</time>
      </trkpt>
      <trkpt lat="45.83084" lon="4.47368">
        <ele>682</ele>
        <time>2016-08-23T11:03:27Z</time>
      </trkpt>
      <trkpt lat="45.83085" lon="4.47372">
        <ele>682</ele>
        <time>2016-08-23T11:03:28Z</time>
      </trkpt>
      <trkpt lat="45.83089" lon="4.47379">
        <ele>683</ele>
        <time>2016-08-23T11:03:30Z</time>
      </trkpt>
      <trkpt lat="45.83091" lon="4.47383">
        <ele>683</ele>
        <time>2016-08-23T11:03:31Z</time>
      </trkpt>
      <trkpt lat="45.83096" lon="4.4739">
        <ele>684</ele>
        <time>2016-08-23T11:03:33Z</time>
      </trkpt>
      <trkpt lat="45.83098" lon="4.47393">
        <ele>684</ele>
        <time>2016-08-23T11:03:34Z</time>
      </trkpt>
      <trkpt lat="45.83102" lon="4.474">
        <ele>685</ele>
        <time>2016-08-23T11:03:36Z</time>
      </trkpt>
      <trkpt lat="45.83105" lon="4.47404">
        <ele>685</ele>
        <time>2016-08-23T11:03:37Z</time>
      </trkpt>
      <trkpt lat="45.8311" lon="4.4741">
        <ele>684</ele>
        <time>2016-08-23T11:03:39Z</time>
      </trkpt>
      <trkpt lat="45.83113" lon="4.47412">
        <ele>684</ele>
        <time>2016-08-23T11:03:40Z</time>
      </trkpt>
      <trkpt lat="45.83118" lon="4.47418">
        <ele>692</ele>
        <time>2016-08-23T11:03:42Z</time>
      </trkpt>
      <trkpt lat="45.8312" lon="4.47421">
        <ele>692</ele>
        <time>2016-08-23T11:03:43Z</time>
      </trkpt>
      <trkpt lat="45.83125" lon="4.47428">
        <ele>691</ele>
        <time>2016-08-23T11:03:45Z</time>
      </trkpt>
      <trkpt lat="45.83128" lon="4.47431">
        <ele>691</ele>
        <time>2016-08-23T11:03:46Z</time>
      </trkpt>
      <trkpt lat="45.83135" lon="4.47437">
        <ele>691</ele>
        <time>2016-08-23T11:03:48Z</time>
      </trkpt>
      <trkpt lat="45.83138" lon="4.4744">
        <ele>691</ele>
        <time>2016-08-23T11:03:49Z</time>
      </trkpt>
      <trkpt lat="45.83144" lon="4.47446">
        <ele>691</ele>
        <time>2016-08-23T11:03:51Z</time>
      </trkpt>
      <trkpt lat="45.83147" lon="4.47449">
        <ele>691</ele>
        <time>2016-08-23T11:03:52Z</time>
      </trkpt>
      <trkpt lat="45.83153" lon="4.47455">
        <ele>691</ele>
        <time>2016-08-23T11:03:54Z</time>
      </trkpt>
      <trkpt lat="45.83155" lon="4.47458">
        <ele>692</ele>
        <time>2016-08-23T11:03:55Z</time>
      </trkpt>
      <trkpt lat="45.83161" lon="4.47464">
        <ele>692</ele>
        <time>2016-08-23T11:03:57Z</time>
      </trkpt>
      <trkpt lat="45.83163" lon="4.47467">
        <ele>692</ele>
        <time>2016-08-23T11:03:58Z</time>
      </trkpt>
      <trkpt lat="45.83167" lon="4.47474">
        <ele>683</ele>
        <time>2016-08-23T11:04:00Z</time>
      </trkpt>
      <trkpt lat="45.83169" lon="4.47477">
        <ele>684</ele>
        <time>2016-08-23T11:04:01Z</time>
      </trkpt>
      <trkpt lat="45.83174" lon="4.47483">
        <ele>686</ele>
        <time>2016-08-23T11:04:03Z</time>
      </trkpt>
      <trkpt lat="45.83176" lon="4.47487">
        <ele>686</ele>
        <time>2016-08-23T11:04:04Z</time>
      </trkpt>
      <trkpt lat="45.83181" lon="4.47496">
        <ele>687</ele>
        <time>2016-08-23T11:04:06Z</time>
      </trkpt>
      <trkpt lat="45.83183" lon="4.475">
        <ele>686</ele>
        <time>2016-08-23T11:04:07Z</time>
      </trkpt>
      <trkpt lat="45.83186" lon="4.4751">
        <ele>689</ele>
        <time>2016-08-23T11:04:09Z</time>
      </trkpt>
      <trkpt lat="45.83187" lon="4.47514">
        <ele>689</ele>
        <time>2016-08-23T11:04:10Z</time>
      </trkpt>
      <trkpt lat="45.8319" lon="4.47525">
        <ele>688</ele>
        <time>2016-08-23T11:04:12Z</time>
      </trkpt>
      <trkpt lat="45.83191" lon="4.4753">
        <ele>688</ele>
        <time>2016-08-23T11:04:13Z</time>
      </trkpt>
      <trkpt lat="45.83194" lon="4.47541">
        <ele>688</ele>
        <time>2016-08-23T11:04:15Z</time>
      </trkpt>
      <trkpt lat="45.83195" lon="4.47547">
        <ele>688</ele>
        <time>2016-08-23T11:04:16Z</time>
      </trkpt>
      <trkpt lat="45.83197" lon="4.47557">
        <ele>688</ele>
        <time>2016-08-23T11:04:18Z</time>
      </trkpt>
      <trkpt lat="45.83198" lon="4.47562">
        <ele>689</ele>
        <time>2016-08-23T11:04:19Z</time>
      </trkpt>
      <trkpt lat="45.832" lon="4.47572">
        <ele>689</ele>
        <time>2016-08-23T11:04:21Z</time>
      </trkpt>
      <trkpt lat="45.832" lon="4.47577">
        <ele>689</ele>
        <time>2016-08-23T11:04:22Z</time>
      </trkpt>
      <trkpt lat="45.83201" lon="4.47587">
        <ele>691</ele>
        <time>2016-08-23T11:04:24Z</time>
      </trkpt>
      <trkpt lat="45.832" lon="4.47593">
        <ele>691</ele>
        <time>2016-08-23T11:04:25Z</time>
      </trkpt>
      <trkpt lat="45.832" lon="4.47604">
        <ele>691</ele>
        <time>2016-08-23T11:04:27Z</time>
      </trkpt>
      <trkpt lat="45.832" lon="4.4761">
        <ele>690</ele>
        <time>2016-08-23T11:04:28Z</time>
      </trkpt>
      <trkpt lat="45.832" lon="4.47621">
        <ele>690</ele>
        <time>2016-08-23T11:04:30Z</time>
      </trkpt>
      <trkpt lat="45.832" lon="4.47626">
        <ele>690</ele>
        <time>2016-08-23T11:04:31Z</time>
      </trkpt>
      <trkpt lat="45.83201" lon="4.47637">
        <ele>690</ele>
        <time>2016-08-23T11:04:33Z</time>
      </trkpt>
      <trkpt lat="45.83201" lon="4.47643">
        <ele>690</ele>
        <time>2016-08-23T11:04:34Z</time>
      </trkpt>
      <trkpt lat="45.83203" lon="4.47654">
        <ele>690</ele>
        <time>2016-08-23T11:04:36Z</time>
      </trkpt>
      <trkpt lat="45.83205" lon="4.4766">
        <ele>690</ele>
        <time>2016-08-23T11:04:37Z</time>
      </trkpt>
      <trkpt lat="45.83208" lon="4.47671">
        <ele>691</ele>
        <time>2016-08-23T11:04:39Z</time>
      </trkpt>
      <trkpt lat="45.8321" lon="4.47676">
        <ele>691</ele>
        <time>2016-08-23T11:04:40Z</time>
      </trkpt>
      <trkpt lat="45.83213" lon="4.47686">
        <ele>691</ele>
        <time>2016-08-23T11:04:42Z</time>
      </trkpt>
      <trkpt lat="45.83215" lon="4.47691">
        <ele>691</ele>
        <time>2016-08-23T11:04:43Z</time>
      </trkpt>
      <trkpt lat="45.83218" lon="4.477">
        <ele>691</ele>
        <time>2016-08-23T11:04:45Z</time>
      </trkpt>
      <trkpt lat="45.8322" lon="4.47704">
        <ele>691</ele>
        <time>2016-08-23T11:04:46Z</time>
      </trkpt>
      <trkpt lat="45.83224" lon="4.47713">
        <ele>691</ele>
        <time>2016-08-23T11:04:48Z</time>
      </trkpt>
      <trkpt lat="45.83226" lon="4.47718">
        <ele>691</ele>
        <time>2016-08-23T11:04:49Z</time>
      </trkpt>
      <trkpt lat="45.8323" lon="4.47726">
        <ele>691</ele>
        <time>2016-08-23T11:04:51Z</time>
      </trkpt>
      <trkpt lat="45.83231" lon="4.47731">
        <ele>691</ele>
        <time>2016-08-23T11:04:52Z</time>
      </trkpt>
      <trkpt lat="45.83235" lon="4.4774">
        <ele>690</ele>
        <time>2016-08-23T11:04:54Z</time>
      </trkpt>
      <trkpt lat="45.83237" lon="4.47745">
        <ele>690</ele>
        <time>2016-08-23T11:04:55Z</time>
      </trkpt>
      <trkpt lat="45.83239" lon="4.47755">
        <ele>691</ele>
        <time>2016-08-23T11:04:57Z</time>
      </trkpt>
      <trkpt lat="45.8324" lon="4.4776">
        <ele>691</ele>
        <time>2016-08-23T11:04:58Z</time>
      </trkpt>
      <trkpt lat="45.83244" lon="4.47768">
        <ele>691</ele>
        <time>2016-08-23T11:05:00Z</time>
      </trkpt>
      <trkpt lat="45.83245" lon="4.47773">
        <ele>692</ele>
        <time>2016-08-23T11:05:01Z</time>
      </trkpt>
      <trkpt lat="45.83247" lon="4.47783">
        <ele>692</ele>
        <time>2016-08-23T11:05:03Z</time>
      </trkpt>
      <trkpt lat="45.83248" lon="4.47788">
        <ele>692</ele>
        <time>2016-08-23T11:05:04Z</time>
      </trkpt>
      <trkpt lat="45.8325" lon="4.47798">
        <ele>693</ele>
        <time>2016-08-23T11:05:06Z</time>
      </trkpt>
      <trkpt lat="45.8325" lon="4.47804">
        <ele>691</ele>
        <time>2016-08-23T11:05:07Z</time>
      </trkpt>
      <trkpt lat="45.83251" lon="4.47815">
        <ele>691</ele>
        <time>2016-08-23T11:05:09Z</time>
      </trkpt>
      <trkpt lat="45.83251" lon="4.47821">
        <ele>692</ele>
        <time>2016-08-23T11:05:10Z</time>
      </trkpt>
      <trkpt lat="45.8325" lon="4.47833">
        <ele>693</ele>
        <time>2016-08-23T11:05:12Z</time>
      </trkpt>
      <trkpt lat="45.83249" lon="4.47839">
        <ele>693</ele>
        <time>2016-08-23T11:05:13Z</time>
      </trkpt>
      <trkpt lat="45.83247" lon="4.47845">
        <ele>692</ele>
        <time>2016-08-23T11:05:14Z</time>
      </trkpt>
      <trkpt lat="45.83246" lon="4.47851">
        <ele>692</ele>
        <time>2016-08-23T11:05:15Z</time>
      </trkpt>
      <trkpt lat="45.83245" lon="4.47858">
        <ele>691</ele>
        <time>2016-08-23T11:05:16Z</time>
      </trkpt>
      <trkpt lat="45.83244" lon="4.47865">
        <ele>691</ele>
        <time>2016-08-23T11:05:17Z</time>
      </trkpt>
      <trkpt lat="45.83243" lon="4.47873">
        <ele>691</ele>
        <time>2016-08-23T11:05:18Z</time>
      </trkpt>
      <trkpt lat="45.83243" lon="4.47882">
        <ele>690</ele>
        <time>2016-08-23T11:05:19Z</time>
      </trkpt>
      <trkpt lat="45.83243" lon="4.4789">
        <ele>690</ele>
        <time>2016-08-23T11:05:20Z</time>
      </trkpt>
      <trkpt lat="45.83242" lon="4.47899">
        <ele>690</ele>
        <time>2016-08-23T11:05:21Z</time>
      </trkpt>
      <trkpt lat="45.83242" lon="4.47909">
        <ele>690</ele>
        <time>2016-08-23T11:05:22Z</time>
      </trkpt>
      <trkpt lat="45.83243" lon="4.47919">
        <ele>688</ele>
        <time>2016-08-23T11:05:23Z</time>
      </trkpt>
      <trkpt lat="45.83244" lon="4.4793">
        <ele>686</ele>
        <time>2016-08-23T11:05:24Z</time>
      </trkpt>
      <trkpt lat="45.83246" lon="4.47941">
        <ele>685</ele>
        <time>2016-08-23T11:05:25Z</time>
      </trkpt>
      <trkpt lat="45.83252" lon="4.47952">
        <ele>686</ele>
        <time>2016-08-23T11:05:26Z</time>
      </trkpt>
      <trkpt lat="45.83257" lon="4.47962">
        <ele>685</ele>
        <time>2016-08-23T11:05:27Z</time>
      </trkpt>
      <trkpt lat="45.83264" lon="4.4797">
        <ele>684</ele>
        <time>2016-08-23T11:05:28Z</time>
      </trkpt>
      <trkpt lat="45.83271" lon="4.47978">
        <ele>684</ele>
        <time>2016-08-23T11:05:29Z</time>
      </trkpt>
      <trkpt lat="45.8328" lon="4.47984">
        <ele>684</ele>
        <time>2016-08-23T11:05:30Z</time>
      </trkpt>
      <trkpt lat="45.83289" lon="4.47989">
        <ele>684</ele>
        <time>2016-08-23T11:05:31Z</time>
      </trkpt>
      <trkpt lat="45.83298" lon="4.47992">
        <ele>684</ele>
        <time>2016-08-23T11:05:32Z</time>
      </trkpt>
      <trkpt lat="45.83308" lon="4.47995">
        <ele>684</ele>
        <time>2016-08-23T11:05:33Z</time>
      </trkpt>
      <trkpt lat="45.83318" lon="4.47998">
        <ele>684</ele>
        <time>2016-08-23T11:05:34Z</time>
      </trkpt>
      <trkpt lat="45.83327" lon="4.48">
        <ele>680</ele>
        <time>2016-08-23T11:05:35Z</time>
      </trkpt>
      <trkpt lat="45.83337" lon="4.48003">
        <ele>682</ele>
        <time>2016-08-23T11:05:36Z</time>
      </trkpt>
      <trkpt lat="45.83347" lon="4.48006">
        <ele>680</ele>
        <time>2016-08-23T11:05:37Z</time>
      </trkpt>
      <trkpt lat="45.83357" lon="4.48009">
        <ele>679</ele>
        <time>2016-08-23T11:05:38Z</time>
      </trkpt>
      <trkpt lat="45.83367" lon="4.48014">
        <ele>678</ele>
        <time>2016-08-23T11:05:39Z</time>
      </trkpt>
      <trkpt lat="45.83377" lon="4.48018">
        <ele>678</ele>
        <time>2016-08-23T11:05:40Z</time>
      </trkpt>
      <trkpt lat="45.83386" lon="4.48024">
        <ele>678</ele>
        <time>2016-08-23T11:05:41Z</time>
      </trkpt>
      <trkpt lat="45.83396" lon="4.48029">
        <ele>678</ele>
        <time>2016-08-23T11:05:42Z</time>
      </trkpt>
      <trkpt lat="45.83406" lon="4.48034">
        <ele>678</ele>
        <time>2016-08-23T11:05:43Z</time>
      </trkpt>
      <trkpt lat="45.83416" lon="4.48039">
        <ele>677</ele>
        <time>2016-08-23T11:05:44Z</time>
      </trkpt>
      <trkpt lat="45.83426" lon="4.48044">
        <ele>679</ele>
        <time>2016-08-23T11:05:45Z</time>
      </trkpt>
      <trkpt lat="45.83436" lon="4.4805">
        <ele>678</ele>
        <time>2016-08-23T11:05:46Z</time>
      </trkpt>
      <trkpt lat="45.83446" lon="4.48054">
        <ele>678</ele>
        <time>2016-08-23T11:05:47Z</time>
      </trkpt>
      <trkpt lat="45.83456" lon="4.48059">
        <ele>678</ele>
        <time>2016-08-23T11:05:48Z</time>
      </trkpt>
      <trkpt lat="45.83466" lon="4.48063">
        <ele>678</ele>
        <time>2016-08-23T11:05:49Z</time>
      </trkpt>
      <trkpt lat="45.83476" lon="4.48069">
        <ele>677</ele>
        <time>2016-08-23T11:05:50Z</time>
      </trkpt>
      <trkpt lat="45.83486" lon="4.48075">
        <ele>675</ele>
        <time>2016-08-23T11:05:51Z</time>
      </trkpt>
      <trkpt lat="45.83495" lon="4.48082">
        <ele>673</ele>
        <time>2016-08-23T11:05:52Z</time>
      </trkpt>
      <trkpt lat="45.83504" lon="4.4809">
        <ele>670</ele>
        <time>2016-08-23T11:05:53Z</time>
      </trkpt>
      <trkpt lat="45.83513" lon="4.48098">
        <ele>669</ele>
        <time>2016-08-23T11:05:54Z</time>
      </trkpt>
      <trkpt lat="45.83523" lon="4.48106">
        <ele>669</ele>
        <time>2016-08-23T11:05:55Z</time>
      </trkpt>
      <trkpt lat="45.83532" lon="4.48114">
        <ele>668</ele>
        <time>2016-08-23T11:05:56Z</time>
      </trkpt>
      <trkpt lat="45.83541" lon="4.48122">
        <ele>668</ele>
        <time>2016-08-23T11:05:57Z</time>
      </trkpt>
      <trkpt lat="45.8355" lon="4.4813">
        <ele>668</ele>
        <time>2016-08-23T11:05:58Z</time>
      </trkpt>
      <trkpt lat="45.83559" lon="4.4814">
        <ele>668</ele>
        <time>2016-08-23T11:05:59Z</time>
      </trkpt>
      <trkpt lat="45.83566" lon="4.4815">
        <ele>668</ele>
        <time>2016-08-23T11:06:00Z</time>
      </trkpt>
      <trkpt lat="45.83573" lon="4.48163">
        <ele>667</ele>
        <time>2016-08-23T11:06:01Z</time>
      </trkpt>
      <trkpt lat="45.83577" lon="4.48176">
        <ele>664</ele>
        <time>2016-08-23T11:06:02Z</time>
      </trkpt>
      <trkpt lat="45.83581" lon="4.48191">
        <ele>662</ele>
        <time>2016-08-23T11:06:03Z</time>
      </trkpt>
      <trkpt lat="45.83582" lon="4.48206">
        <ele>661</ele>
        <time>2016-08-23T11:06:04Z</time>
      </trkpt>
      <trkpt lat="45.83584" lon="4.48221">
        <ele>667</ele>
        <time>2016-08-23T11:06:05Z</time>
      </trkpt>
      <trkpt lat="45.83586" lon="4.48236">
        <ele>665</ele>
        <time>2016-08-23T11:06:06Z</time>
      </trkpt>
      <trkpt lat="45.83588" lon="4.4825">
        <ele>662</ele>
        <time>2016-08-23T11:06:07Z</time>
      </trkpt>
      <trkpt lat="45.8359" lon="4.48264">
        <ele>663</ele>
        <time>2016-08-23T11:06:08Z</time>
      </trkpt>
      <trkpt lat="45.83593" lon="4.48278">
        <ele>663</ele>
        <time>2016-08-23T11:06:09Z</time>
      </trkpt>
      <trkpt lat="45.83595" lon="4.48292">
        <ele>663</ele>
        <time>2016-08-23T11:06:10Z</time>
      </trkpt>
      <trkpt lat="45.83598" lon="4.48306">
        <ele>662</ele>
        <time>2016-08-23T11:06:11Z</time>
      </trkpt>
      <trkpt lat="45.83602" lon="4.48319">
        <ele>661</ele>
        <time>2016-08-23T11:06:12Z</time>
      </trkpt>
      <trkpt lat="45.83606" lon="4.48333">
        <ele>661</ele>
        <time>2016-08-23T11:06:13Z</time>
      </trkpt>
      <trkpt lat="45.8361" lon="4.48346">
        <ele>659</ele>
        <time>2016-08-23T11:06:14Z</time>
      </trkpt>
      <trkpt lat="45.83615" lon="4.48359">
        <ele>659</ele>
        <time>2016-08-23T11:06:15Z</time>
      </trkpt>
      <trkpt lat="45.83619" lon="4.48372">
        <ele>659</ele>
        <time>2016-08-23T11:06:16Z</time>
      </trkpt>
      <trkpt lat="45.83622" lon="4.48386">
        <ele>659</ele>
        <time>2016-08-23T11:06:17Z</time>
      </trkpt>
      <trkpt lat="45.83624" lon="4.48401">
        <ele>659</ele>
        <time>2016-08-23T11:06:18Z</time>
      </trkpt>
      <trkpt lat="45.83625" lon="4.48415">
        <ele>659</ele>
        <time>2016-08-23T11:06:19Z</time>
      </trkpt>
      <trkpt lat="45.83625" lon="4.4843">
        <ele>657</ele>
        <time>2016-08-23T11:06:20Z</time>
      </trkpt>
      <trkpt lat="45.83624" lon="4.48444">
        <ele>657</ele>
        <time>2016-08-23T11:06:21Z</time>
      </trkpt>
      <trkpt lat="45.83623" lon="4.48459">
        <ele>657</ele>
        <time>2016-08-23T11:06:22Z</time>
      </trkpt>
      <trkpt lat="45.83622" lon="4.48473">
        <ele>657</ele>
        <time>2016-08-23T11:06:23Z</time>
      </trkpt>
      <trkpt lat="45.83621" lon="4.48487">
        <ele>656</ele>
        <time>2016-08-23T11:06:24Z</time>
      </trkpt>
      <trkpt lat="45.8362" lon="4.48501">
        <ele>655</ele>
        <time>2016-08-23T11:06:25Z</time>
      </trkpt>
      <trkpt lat="45.83619" lon="4.48515">
        <ele>655</ele>
        <time>2016-08-23T11:06:26Z</time>
      </trkpt>
      <trkpt lat="45.83617" lon="4.48529">
        <ele>654</ele>
        <time>2016-08-23T11:06:27Z</time>
      </trkpt>
      <trkpt lat="45.83616" lon="4.48543">
        <ele>654</ele>
        <time>2016-08-23T11:06:28Z</time>
      </trkpt>
      <trkpt lat="45.83613" lon="4.48556">
        <ele>653</ele>
        <time>2016-08-23T11:06:29Z</time>
      </trkpt>
      <trkpt lat="45.8361" lon="4.4857">
        <ele>652</ele>
        <time>2016-08-23T11:06:30Z</time>
      </trkpt>
      <trkpt lat="45.83606" lon="4.48583">
        <ele>651</ele>
        <time>2016-08-23T11:06:31Z</time>
      </trkpt>
      <trkpt lat="45.83603" lon="4.48596">
        <ele>650</ele>
        <time>2016-08-23T11:06:32Z</time>
      </trkpt>
      <trkpt lat="45.836" lon="4.48609">
        <ele>651</ele>
        <time>2016-08-23T11:06:33Z</time>
      </trkpt>
      <trkpt lat="45.83597" lon="4.48623">
        <ele>651</ele>
        <time>2016-08-23T11:06:34Z</time>
      </trkpt>
      <trkpt lat="45.83594" lon="4.48637">
        <ele>650</ele>
        <time>2016-08-23T11:06:35Z</time>
      </trkpt>
      <trkpt lat="45.83592" lon="4.4865">
        <ele>649</ele>
        <time>2016-08-23T11:06:36Z</time>
      </trkpt>
      <trkpt lat="45.8359" lon="4.48664">
        <ele>646</ele>
        <time>2016-08-23T11:06:37Z</time>
      </trkpt>
      <trkpt lat="45.83588" lon="4.48678">
        <ele>647</ele>
        <time>2016-08-23T11:06:38Z</time>
      </trkpt>
      <trkpt lat="45.83586" lon="4.48691">
        <ele>648</ele>
        <time>2016-08-23T11:06:39Z</time>
      </trkpt>
      <trkpt lat="45.83584" lon="4.48705">
        <ele>649</ele>
        <time>2016-08-23T11:06:40Z</time>
      </trkpt>
      <trkpt lat="45.83583" lon="4.48719">
        <ele>635</ele>
        <time>2016-08-23T11:06:41Z</time>
      </trkpt>
      <trkpt lat="45.83582" lon="4.48733">
        <ele>636</ele>
        <time>2016-08-23T11:06:42Z</time>
      </trkpt>
      <trkpt lat="45.83582" lon="4.48747">
        <ele>640</ele>
        <time>2016-08-23T11:06:43Z</time>
      </trkpt>
      <trkpt lat="45.83583" lon="4.48761">
        <ele>636</ele>
        <time>2016-08-23T11:06:44Z</time>
      </trkpt>
      <trkpt lat="45.83584" lon="4.48775">
        <ele>643</ele>
        <time>2016-08-23T11:06:45Z</time>
      </trkpt>
      <trkpt lat="45.83587" lon="4.48789">
        <ele>642</ele>
        <time>2016-08-23T11:06:46Z</time>
      </trkpt>
      <trkpt lat="45.83591" lon="4.48803">
        <ele>641</ele>
        <time>2016-08-23T11:06:47Z</time>
      </trkpt>
      <trkpt lat="45.83597" lon="4.48814">
        <ele>639</ele>
        <time>2016-08-23T11:06:48Z</time>
      </trkpt>
      <trkpt lat="45.83603" lon="4.48825">
        <ele>639</ele>
        <time>2016-08-23T11:06:49Z</time>
      </trkpt>
      <trkpt lat="45.83612" lon="4.48835">
        <ele>636</ele>
        <time>2016-08-23T11:06:50Z</time>
      </trkpt>
      <trkpt lat="45.8362" lon="4.48843">
        <ele>637</ele>
        <time>2016-08-23T11:06:51Z</time>
      </trkpt>
      <trkpt lat="45.83628" lon="4.4885">
        <ele>638</ele>
        <time>2016-08-23T11:06:52Z</time>
      </trkpt>
      <trkpt lat="45.83636" lon="4.48857">
        <ele>639</ele>
        <time>2016-08-23T11:06:53Z</time>
      </trkpt>
      <trkpt lat="45.83641" lon="4.48866">
        <ele>639</ele>
        <time>2016-08-23T11:06:54Z</time>
      </trkpt>
      <trkpt lat="45.83645" lon="4.48876">
        <ele>639</ele>
        <time>2016-08-23T11:06:55Z</time>
      </trkpt>
      <trkpt lat="45.83647" lon="4.48886">
        <ele>639</ele>
        <time>2016-08-23T11:06:56Z</time>
      </trkpt>
      <trkpt lat="45.83644" lon="4.48897">
        <ele>639</ele>
        <time>2016-08-23T11:06:57Z</time>
      </trkpt>
      <trkpt lat="45.83641" lon="4.48908">
        <ele>639</ele>
        <time>2016-08-23T11:06:58Z</time>
      </trkpt>
      <trkpt lat="45.83636" lon="4.48918">
        <ele>638</ele>
        <time>2016-08-23T11:06:59Z</time>
      </trkpt>
      <trkpt lat="45.83631" lon="4.48928">
        <ele>637</ele>
        <time>2016-08-23T11:07:00Z</time>
      </trkpt>
      <trkpt lat="45.83625" lon="4.48938">
        <ele>636</ele>
        <time>2016-08-23T11:07:01Z</time>
      </trkpt>
      <trkpt lat="45.83619" lon="4.48948">
        <ele>635</ele>
        <time>2016-08-23T11:07:02Z</time>
      </trkpt>
      <trkpt lat="45.83614" lon="4.48957">
        <ele>635</ele>
        <time>2016-08-23T11:07:03Z</time>
      </trkpt>
      <trkpt lat="45.83607" lon="4.48966">
        <ele>634</ele>
        <time>2016-08-23T11:07:04Z</time>
      </trkpt>
      <trkpt lat="45.83602" lon="4.48976">
        <ele>634</ele>
        <time>2016-08-23T11:07:05Z</time>
      </trkpt>
      <trkpt lat="45.83597" lon="4.48986">
        <ele>632</ele>
        <time>2016-08-23T11:07:06Z</time>
      </trkpt>
      <trkpt lat="45.83593" lon="4.48996">
        <ele>631</ele>
        <time>2016-08-23T11:07:07Z</time>
      </trkpt>
      <trkpt lat="45.8359" lon="4.49007">
        <ele>630</ele>
        <time>2016-08-23T11:07:08Z</time>
      </trkpt>
      <trkpt lat="45.83587" lon="4.49019">
        <ele>631</ele>
        <time>2016-08-23T11:07:09Z</time>
      </trkpt>
      <trkpt lat="45.83585" lon="4.49031">
        <ele>631</ele>
        <time>2016-08-23T11:07:10Z</time>
      </trkpt>
      <trkpt lat="45.83584" lon="4.49043">
        <ele>631</ele>
        <time>2016-08-23T11:07:11Z</time>
      </trkpt>
      <trkpt lat="45.83587" lon="4.49057">
        <ele>629</ele>
        <time>2016-08-23T11:07:12Z</time>
      </trkpt>
      <trkpt lat="45.83591" lon="4.49068">
        <ele>628</ele>
        <time>2016-08-23T11:07:13Z</time>
      </trkpt>
      <trkpt lat="45.83597" lon="4.4908">
        <ele>627</ele>
        <time>2016-08-23T11:07:14Z</time>
      </trkpt>
      <trkpt lat="45.83604" lon="4.4909">
        <ele>625</ele>
        <time>2016-08-23T11:07:15Z</time>
      </trkpt>
      <trkpt lat="45.83611" lon="4.491">
        <ele>626</ele>
        <time>2016-08-23T11:07:16Z</time>
      </trkpt>
      <trkpt lat="45.83617" lon="4.4911">
        <ele>627</ele>
        <time>2016-08-23T11:07:17Z</time>
      </trkpt>
      <trkpt lat="45.83623" lon="4.4912">
        <ele>627</ele>
        <time>2016-08-23T11:07:18Z</time>
      </trkpt>
      <trkpt lat="45.83627" lon="4.4913">
        <ele>627</ele>
        <time>2016-08-23T11:07:19Z</time>
      </trkpt>
      <trkpt lat="45.83631" lon="4.4914">
        <ele>627</ele>
        <time>2016-08-23T11:07:20Z</time>
      </trkpt>
      <trkpt lat="45.83633" lon="4.49151">
        <ele>627</ele>
        <time>2016-08-23T11:07:21Z</time>
      </trkpt>
      <trkpt lat="45.83635" lon="4.49163">
        <ele>627</ele>
        <time>2016-08-23T11:07:22Z</time>
      </trkpt>
      <trkpt lat="45.83634" lon="4.49175">
        <ele>627</ele>
        <time>2016-08-23T11:07:23Z</time>
      </trkpt>
      <trkpt lat="45.83632" lon="4.49186">
        <ele>627</ele>
        <time>2016-08-23T11:07:24Z</time>
      </trkpt>
      <trkpt lat="45.83624" lon="4.49195">
        <ele>627</ele>
        <time>2016-08-23T11:07:25Z</time>
      </trkpt>
      <trkpt lat="45.83618" lon="4.49204">
        <ele>626</ele>
        <time>2016-08-23T11:07:26Z</time>
      </trkpt>
      <trkpt lat="45.8361" lon="4.49211">
        <ele>626</ele>
        <time>2016-08-23T11:07:27Z</time>
      </trkpt>
      <trkpt lat="45.83601" lon="4.49216">
        <ele>625</ele>
        <time>2016-08-23T11:07:28Z</time>
      </trkpt>
      <trkpt lat="45.83592" lon="4.49221">
        <ele>625</ele>
        <time>2016-08-23T11:07:29Z</time>
      </trkpt>
      <trkpt lat="45.83583" lon="4.49226">
        <ele>616</ele>
        <time>2016-08-23T11:07:30Z</time>
      </trkpt>
      <trkpt lat="45.83573" lon="4.49231">
        <ele>616</ele>
        <time>2016-08-23T11:07:31Z</time>
      </trkpt>
      <trkpt lat="45.83564" lon="4.49236">
        <ele>616</ele>
        <time>2016-08-23T11:07:32Z</time>
      </trkpt>
      <trkpt lat="45.83555" lon="4.49241">
        <ele>615</ele>
        <time>2016-08-23T11:07:33Z</time>
      </trkpt>
      <trkpt lat="45.83545" lon="4.49245">
        <ele>614</ele>
        <time>2016-08-23T11:07:34Z</time>
      </trkpt>
      <trkpt lat="45.83535" lon="4.49248">
        <ele>613</ele>
        <time>2016-08-23T11:07:35Z</time>
      </trkpt>
      <trkpt lat="45.83525" lon="4.49252">
        <ele>620</ele>
        <time>2016-08-23T11:07:36Z</time>
      </trkpt>
      <trkpt lat="45.83514" lon="4.49255">
        <ele>617</ele>
        <time>2016-08-23T11:07:37Z</time>
      </trkpt>
      <trkpt lat="45.83504" lon="4.49258">
        <ele>615</ele>
        <time>2016-08-23T11:07:38Z</time>
      </trkpt>
      <trkpt lat="45.83494" lon="4.49261">
        <ele>611</ele>
        <time>2016-08-23T11:07:39Z</time>
      </trkpt>
      <trkpt lat="45.83484" lon="4.49263">
        <ele>611</ele>
        <time>2016-08-23T11:07:40Z</time>
      </trkpt>
      <trkpt lat="45.83473" lon="4.49266">
        <ele>611</ele>
        <time>2016-08-23T11:07:41Z</time>
      </trkpt>
      <trkpt lat="45.83463" lon="4.49269">
        <ele>610</ele>
        <time>2016-08-23T11:07:42Z</time>
      </trkpt>
      <trkpt lat="45.83453" lon="4.49274">
        <ele>609</ele>
        <time>2016-08-23T11:07:43Z</time>
      </trkpt>
      <trkpt lat="45.83443" lon="4.49279">
        <ele>609</ele>
        <time>2016-08-23T11:07:44Z</time>
      </trkpt>
      <trkpt lat="45.83434" lon="4.49286">
        <ele>609</ele>
        <time>2016-08-23T11:07:45Z</time>
      </trkpt>
      <trkpt lat="45.83424" lon="4.49294">
        <ele>610</ele>
        <time>2016-08-23T11:07:46Z</time>
      </trkpt>
      <trkpt lat="45.83415" lon="4.49302">
        <ele>600</ele>
        <time>2016-08-23T11:07:47Z</time>
      </trkpt>
      <trkpt lat="45.83405" lon="4.4931">
        <ele>600</ele>
        <time>2016-08-23T11:07:48Z</time>
      </trkpt>
      <trkpt lat="45.83396" lon="4.49318">
        <ele>600</ele>
        <time>2016-08-23T11:07:49Z</time>
      </trkpt>
      <trkpt lat="45.83387" lon="4.49327">
        <ele>599</ele>
        <time>2016-08-23T11:07:50Z</time>
      </trkpt>
      <trkpt lat="45.83378" lon="4.49336">
        <ele>606</ele>
        <time>2016-08-23T11:07:51Z</time>
      </trkpt>
      <trkpt lat="45.83369" lon="4.49347">
        <ele>605</ele>
        <time>2016-08-23T11:07:52Z</time>
      </trkpt>
      <trkpt lat="45.83362" lon="4.49358">
        <ele>605</ele>
        <time>2016-08-23T11:07:53Z</time>
      </trkpt>
      <trkpt lat="45.83355" lon="4.49371">
        <ele>605</ele>
        <time>2016-08-23T11:07:54Z</time>
      </trkpt>
      <trkpt lat="45.83348" lon="4.49384">
        <ele>606</ele>
        <time>2016-08-23T11:07:55Z</time>
      </trkpt>
      <trkpt lat="45.83341" lon="4.49397">
        <ele>606</ele>
        <time>2016-08-23T11:07:56Z</time>
      </trkpt>
      <trkpt lat="45.83334" lon="4.49409">
        <ele>604</ele>
        <time>2016-08-23T11:07:57Z</time>
      </trkpt>
      <trkpt lat="45.83327" lon="4.49421">
        <ele>601</ele>
        <time>2016-08-23T11:07:58Z</time>
      </trkpt>
      <trkpt lat="45.8332" lon="4.49433">
        <ele>598</ele>
        <time>2016-08-23T11:07:59Z</time>
      </trkpt>
      <trkpt lat="45.83313" lon="4.49446">
        <ele>597</ele>
        <time>2016-08-23T11:08:00Z</time>
      </trkpt>
      <trkpt lat="45.83306" lon="4.49459">
        <ele>597</ele>
        <time>2016-08-23T11:08:01Z</time>
      </trkpt>
      <trkpt lat="45.83299" lon="4.4947">
        <ele>596</ele>
        <time>2016-08-23T11:08:02Z</time>
      </trkpt>
      <trkpt lat="45.83292" lon="4.49481">
        <ele>596</ele>
        <time>2016-08-23T11:08:03Z</time>
      </trkpt>
      <trkpt lat="45.83284" lon="4.49491">
        <ele>594</ele>
        <time>2016-08-23T11:08:04Z</time>
      </trkpt>
      <trkpt lat="45.83276" lon="4.49501">
        <ele>599</ele>
        <time>2016-08-23T11:08:05Z</time>
      </trkpt>
      <trkpt lat="45.83267" lon="4.49511">
        <ele>597</ele>
        <time>2016-08-23T11:08:06Z</time>
      </trkpt>
      <trkpt lat="45.8326" lon="4.49522">
        <ele>598</ele>
        <time>2016-08-23T11:08:07Z</time>
      </trkpt>
      <trkpt lat="45.83252" lon="4.49533">
        <ele>599</ele>
        <time>2016-08-23T11:08:08Z</time>
      </trkpt>
      <trkpt lat="45.83245" lon="4.49545">
        <ele>586</ele>
        <time>2016-08-23T11:08:09Z</time>
      </trkpt>
      <trkpt lat="45.83238" lon="4.49556">
        <ele>587</ele>
        <time>2016-08-23T11:08:10Z</time>
      </trkpt>
      <trkpt lat="45.83231" lon="4.49568">
        <ele>588</ele>
        <time>2016-08-23T11:08:11Z</time>
      </trkpt>
      <trkpt lat="45.83224" lon="4.49579">
        <ele>587</ele>
        <time>2016-08-23T11:08:12Z</time>
      </trkpt>
      <trkpt lat="45.83215" lon="4.49589">
        <ele>593</ele>
        <time>2016-08-23T11:08:13Z</time>
      </trkpt>
      <trkpt lat="45.83207" lon="4.49598">
        <ele>591</ele>
        <time>2016-08-23T11:08:14Z</time>
      </trkpt>
      <trkpt lat="45.83197" lon="4.49606">
        <ele>590</ele>
        <time>2016-08-23T11:08:15Z</time>
      </trkpt>
      <trkpt lat="45.83188" lon="4.49613">
        <ele>590</ele>
        <time>2016-08-23T11:08:16Z</time>
      </trkpt>
      <trkpt lat="45.83178" lon="4.49619">
        <ele>589</ele>
        <time>2016-08-23T11:08:17Z</time>
      </trkpt>
      <trkpt lat="45.83169" lon="4.49627">
        <ele>590</ele>
        <time>2016-08-23T11:08:18Z</time>
      </trkpt>
      <trkpt lat="45.83161" lon="4.49635">
        <ele>576</ele>
        <time>2016-08-23T11:08:19Z</time>
      </trkpt>
      <trkpt lat="45.83152" lon="4.49645">
        <ele>576</ele>
        <time>2016-08-23T11:08:20Z</time>
      </trkpt>
      <trkpt lat="45.83144" lon="4.49656">
        <ele>576</ele>
        <time>2016-08-23T11:08:21Z</time>
      </trkpt>
      <trkpt lat="45.83137" lon="4.49668">
        <ele>581</ele>
        <time>2016-08-23T11:08:22Z</time>
      </trkpt>
      <trkpt lat="45.83131" lon="4.49681">
        <ele>580</ele>
        <time>2016-08-23T11:08:23Z</time>
      </trkpt>
      <trkpt lat="45.83126" lon="4.49694">
        <ele>579</ele>
        <time>2016-08-23T11:08:24Z</time>
      </trkpt>
      <trkpt lat="45.83121" lon="4.49707">
        <ele>579</ele>
        <time>2016-08-23T11:08:25Z</time>
      </trkpt>
      <trkpt lat="45.83116" lon="4.49721">
        <ele>579</ele>
        <time>2016-08-23T11:08:26Z</time>
      </trkpt>
      <trkpt lat="45.83111" lon="4.49735">
        <ele>578</ele>
        <time>2016-08-23T11:08:27Z</time>
      </trkpt>
      <trkpt lat="45.83106" lon="4.49748">
        <ele>577</ele>
        <time>2016-08-23T11:08:28Z</time>
      </trkpt>
      <trkpt lat="45.83102" lon="4.49762">
        <ele>582</ele>
        <time>2016-08-23T11:08:29Z</time>
      </trkpt>
      <trkpt lat="45.83096" lon="4.49775">
        <ele>583</ele>
        <time>2016-08-23T11:08:30Z</time>
      </trkpt>
      <trkpt lat="45.83091" lon="4.49788">
        <ele>584</ele>
        <time>2016-08-23T11:08:31Z</time>
      </trkpt>
      <trkpt lat="45.83087" lon="4.49802">
        <ele>584</ele>
        <time>2016-08-23T11:08:32Z</time>
      </trkpt>
      <trkpt lat="45.83082" lon="4.49815">
        <ele>569</ele>
        <time>2016-08-23T11:08:33Z</time>
      </trkpt>
      <trkpt lat="45.83078" lon="4.49829">
        <ele>573</ele>
        <time>2016-08-23T11:08:34Z</time>
      </trkpt>
      <trkpt lat="45.83075" lon="4.49844">
        <ele>572</ele>
        <time>2016-08-23T11:08:35Z</time>
      </trkpt>
      <trkpt lat="45.83073" lon="4.49858">
        <ele>569</ele>
        <time>2016-08-23T11:08:36Z</time>
      </trkpt>
      <trkpt lat="45.83071" lon="4.49872">
        <ele>568</ele>
        <time>2016-08-23T11:08:37Z</time>
      </trkpt>
      <trkpt lat="45.8307" lon="4.49887">
        <ele>569</ele>
        <time>2016-08-23T11:08:38Z</time>
      </trkpt>
      <trkpt lat="45.83069" lon="4.49901">
        <ele>571</ele>
        <time>2016-08-23T11:08:39Z</time>
      </trkpt>
      <trkpt lat="45.83068" lon="4.49916">
        <ele>573</ele>
        <time>2016-08-23T11:08:40Z</time>
      </trkpt>
      <trkpt lat="45.83068" lon="4.4993">
        <ele>571</ele>
        <time>2016-08-23T11:08:41Z</time>
      </trkpt>
      <trkpt lat="45.83068" lon="4.49945">
        <ele>569</ele>
        <time>2016-08-23T11:08:42Z</time>
      </trkpt>
      <trkpt lat="45.83069" lon="4.49959">
        <ele>568</ele>
        <time>2016-08-23T11:08:43Z</time>
      </trkpt>
      <trkpt lat="45.83071" lon="4.49973">
        <ele>569</ele>
        <time>2016-08-23T11:08:44Z</time>
      </trkpt>
      <trkpt lat="45.83073" lon="4.49988">
        <ele>572</ele>
        <time>2016-08-23T11:08:45Z</time>
      </trkpt>
      <trkpt lat="45.83075" lon="4.50002">
        <ele>573</ele>
        <time>2016-08-23T11:08:46Z</time>
      </trkpt>
      <trkpt lat="45.83077" lon="4.50016">
        <ele>569</ele>
        <time>2016-08-23T11:08:47Z</time>
      </trkpt>
      <trkpt lat="45.8308" lon="4.50031">
        <ele>565</ele>
        <time>2016-08-23T11:08:48Z</time>
      </trkpt>
      <trkpt lat="45.83081" lon="4.50046">
        <ele>564</ele>
        <time>2016-08-23T11:08:49Z</time>
      </trkpt>
      <trkpt lat="45.83082" lon="4.5006">
        <ele>565</ele>
        <time>2016-08-23T11:08:50Z</time>
      </trkpt>
      <trkpt lat="45.83083" lon="4.50075">
        <ele>568</ele>
        <time>2016-08-23T11:08:51Z</time>
      </trkpt>
      <trkpt lat="45.83084" lon="4.5009">
        <ele>574</ele>
        <time>2016-08-23T11:08:52Z</time>
      </trkpt>
      <trkpt lat="45.83085" lon="4.50104">
        <ele>577</ele>
        <time>2016-08-23T11:08:53Z</time>
      </trkpt>
      <trkpt lat="45.83087" lon="4.50118">
        <ele>578</ele>
        <time>2016-08-23T11:08:54Z</time>
      </trkpt>
      <trkpt lat="45.83089" lon="4.50132">
        <ele>576</ele>
        <time>2016-08-23T11:08:55Z</time>
      </trkpt>
      <trkpt lat="45.83091" lon="4.50146">
        <ele>574</ele>
        <time>2016-08-23T11:08:56Z</time>
      </trkpt>
      <trkpt lat="45.83094" lon="4.50159">
        <ele>570</ele>
        <time>2016-08-23T11:08:57Z</time>
      </trkpt>
      <trkpt lat="45.83097" lon="4.50172">
        <ele>564</ele>
        <time>2016-08-23T11:08:58Z</time>
      </trkpt>
      <trkpt lat="45.83101" lon="4.50185">
        <ele>565</ele>
        <time>2016-08-23T11:08:59Z</time>
      </trkpt>
      <trkpt lat="45.83104" lon="4.50198">
        <ele>565</ele>
        <time>2016-08-23T11:09:00Z</time>
      </trkpt>
      <trkpt lat="45.83109" lon="4.50209">
        <ele>564</ele>
        <time>2016-08-23T11:09:01Z</time>
      </trkpt>
      <trkpt lat="45.83115" lon="4.50218">
        <ele>564</ele>
        <time>2016-08-23T11:09:02Z</time>
      </trkpt>
      <trkpt lat="45.83122" lon="4.50224">
        <ele>564</ele>
        <time>2016-08-23T11:09:03Z</time>
      </trkpt>
      <trkpt lat="45.8313" lon="4.50227">
        <ele>565</ele>
        <time>2016-08-23T11:09:04Z</time>
      </trkpt>
      <trkpt lat="45.83138" lon="4.50227">
        <ele>566</ele>
        <time>2016-08-23T11:09:05Z</time>
      </trkpt>
      <trkpt lat="45.83146" lon="4.50228">
        <ele>566</ele>
        <time>2016-08-23T11:09:06Z</time>
      </trkpt>
      <trkpt lat="45.83154" lon="4.50227">
        <ele>567</ele>
        <time>2016-08-23T11:09:07Z</time>
      </trkpt>
      <trkpt lat="45.83162" lon="4.50228">
        <ele>567</ele>
        <time>2016-08-23T11:09:08Z</time>
      </trkpt>
      <trkpt lat="45.8317" lon="4.50229">
        <ele>578</ele>
        <time>2016-08-23T11:09:09Z</time>
      </trkpt>
      <trkpt lat="45.83178" lon="4.50233">
        <ele>578</ele>
        <time>2016-08-23T11:09:10Z</time>
      </trkpt>
      <trkpt lat="45.83185" lon="4.50237">
        <ele>579</ele>
        <time>2016-08-23T11:09:11Z</time>
      </trkpt>
      <trkpt lat="45.83193" lon="4.50244">
        <ele>580</ele>
        <time>2016-08-23T11:09:12Z</time>
      </trkpt>
      <trkpt lat="45.832" lon="4.50251">
        <ele>567</ele>
        <time>2016-08-23T11:09:13Z</time>
      </trkpt>
      <trkpt lat="45.83205" lon="4.5026">
        <ele>567</ele>
        <time>2016-08-23T11:09:14Z</time>
      </trkpt>
      <trkpt lat="45.83209" lon="4.5027">
        <ele>567</ele>
        <time>2016-08-23T11:09:15Z</time>
      </trkpt>
      <trkpt lat="45.83214" lon="4.50279">
        <ele>566</ele>
        <time>2016-08-23T11:09:16Z</time>
      </trkpt>
      <trkpt lat="45.83219" lon="4.50289">
        <ele>566</ele>
        <time>2016-08-23T11:09:17Z</time>
      </trkpt>
      <trkpt lat="45.83224" lon="4.50299">
        <ele>565</ele>
        <time>2016-08-23T11:09:18Z</time>
      </trkpt>
      <trkpt lat="45.8323" lon="4.50308">
        <ele>564</ele>
        <time>2016-08-23T11:09:19Z</time>
      </trkpt>
      <trkpt lat="45.83236" lon="4.50317">
        <ele>563</ele>
        <time>2016-08-23T11:09:20Z</time>
      </trkpt>
      <trkpt lat="45.83243" lon="4.50326">
        <ele>563</ele>
        <time>2016-08-23T11:09:21Z</time>
      </trkpt>
      <trkpt lat="45.8325" lon="4.50334">
        <ele>561</ele>
        <time>2016-08-23T11:09:22Z</time>
      </trkpt>
      <trkpt lat="45.83257" lon="4.50342">
        <ele>560</ele>
        <time>2016-08-23T11:09:23Z</time>
      </trkpt>
      <trkpt lat="45.83264" lon="4.5035">
        <ele>559</ele>
        <time>2016-08-23T11:09:24Z</time>
      </trkpt>
      <trkpt lat="45.83272" lon="4.50358">
        <ele>558</ele>
        <time>2016-08-23T11:09:25Z</time>
      </trkpt>
      <trkpt lat="45.83279" lon="4.50366">
        <ele>557</ele>
        <time>2016-08-23T11:09:26Z</time>
      </trkpt>
      <trkpt lat="45.83287" lon="4.50374">
        <ele>556</ele>
        <time>2016-08-23T11:09:27Z</time>
      </trkpt>
      <trkpt lat="45.83295" lon="4.50382">
        <ele>555</ele>
        <time>2016-08-23T11:09:28Z</time>
      </trkpt>
      <trkpt lat="45.83303" lon="4.50389">
        <ele>555</ele>
        <time>2016-08-23T11:09:29Z</time>
      </trkpt>
      <trkpt lat="45.83311" lon="4.50397">
        <ele>554</ele>
        <time>2016-08-23T11:09:30Z</time>
      </trkpt>
      <trkpt lat="45.8332" lon="4.50404">
        <ele>552</ele>
        <time>2016-08-23T11:09:31Z</time>
      </trkpt>
      <trkpt lat="45.83328" lon="4.5041">
        <ele>550</ele>
        <time>2016-08-23T11:09:32Z</time>
      </trkpt>
      <trkpt lat="45.83337" lon="4.50416">
        <ele>551</ele>
        <time>2016-08-23T11:09:33Z</time>
      </trkpt>
      <trkpt lat="45.83346" lon="4.50422">
        <ele>546</ele>
        <time>2016-08-23T11:09:34Z</time>
      </trkpt>
      <trkpt lat="45.83355" lon="4.50427">
        <ele>545</ele>
        <time>2016-08-23T11:09:35Z</time>
      </trkpt>
      <trkpt lat="45.83364" lon="4.50432">
        <ele>545</ele>
        <time>2016-08-23T11:09:36Z</time>
      </trkpt>
      <trkpt lat="45.83373" lon="4.50436">
        <ele>545</ele>
        <time>2016-08-23T11:09:37Z</time>
      </trkpt>
      <trkpt lat="45.83383" lon="4.5044">
        <ele>545</ele>
        <time>2016-08-23T11:09:38Z</time>
      </trkpt>
      <trkpt lat="45.83392" lon="4.50445">
        <ele>545</ele>
        <time>2016-08-23T11:09:39Z</time>
      </trkpt>
      <trkpt lat="45.83401" lon="4.50451">
        <ele>545</ele>
        <time>2016-08-23T11:09:40Z</time>
      </trkpt>
      <trkpt lat="45.83409" lon="4.50459">
        <ele>544</ele>
        <time>2016-08-23T11:09:41Z</time>
      </trkpt>
      <trkpt lat="45.83417" lon="4.50467">
        <ele>551</ele>
        <time>2016-08-23T11:09:42Z</time>
      </trkpt>
      <trkpt lat="45.83425" lon="4.50476">
        <ele>549</ele>
        <time>2016-08-23T11:09:43Z</time>
      </trkpt>
      <trkpt lat="45.83432" lon="4.50484">
        <ele>548</ele>
        <time>2016-08-23T11:09:44Z</time>
      </trkpt>
      <trkpt lat="45.8344" lon="4.50494">
        <ele>548</ele>
        <time>2016-08-23T11:09:45Z</time>
      </trkpt>
      <trkpt lat="45.83446" lon="4.50505">
        <ele>536</ele>
        <time>2016-08-23T11:09:46Z</time>
      </trkpt>
      <trkpt lat="45.83453" lon="4.50516">
        <ele>536</ele>
        <time>2016-08-23T11:09:47Z</time>
      </trkpt>
      <trkpt lat="45.83459" lon="4.50528">
        <ele>535</ele>
        <time>2016-08-23T11:09:48Z</time>
      </trkpt>
      <trkpt lat="45.83464" lon="4.50541">
        <ele>534</ele>
        <time>2016-08-23T11:09:49Z</time>
      </trkpt>
      <trkpt lat="45.8347" lon="4.50553">
        <ele>533</ele>
        <time>2016-08-23T11:09:50Z</time>
      </trkpt>
      <trkpt lat="45.83476" lon="4.50566">
        <ele>533</ele>
        <time>2016-08-23T11:09:51Z</time>
      </trkpt>
      <trkpt lat="45.83483" lon="4.50577">
        <ele>532</ele>
        <time>2016-08-23T11:09:52Z</time>
      </trkpt>
      <trkpt lat="45.83489" lon="4.50589">
        <ele>525</ele>
        <time>2016-08-23T11:09:53Z</time>
      </trkpt>
      <trkpt lat="45.83496" lon="4.506">
        <ele>524</ele>
        <time>2016-08-23T11:09:54Z</time>
      </trkpt>
      <trkpt lat="45.83502" lon="4.50609">
        <ele>524</ele>
        <time>2016-08-23T11:09:55Z</time>
      </trkpt>
      <trkpt lat="45.83509" lon="4.50617">
        <ele>523</ele>
        <time>2016-08-23T11:09:56Z</time>
      </trkpt>
      <trkpt lat="45.83516" lon="4.50621">
        <ele>522</ele>
        <time>2016-08-23T11:09:57Z</time>
      </trkpt>
      <trkpt lat="45.83522" lon="4.50622">
        <ele>522</ele>
        <time>2016-08-23T11:09:58Z</time>
      </trkpt>
      <trkpt lat="45.83529" lon="4.5062">
        <ele>522</ele>
        <time>2016-08-23T11:09:59Z</time>
      </trkpt>
      <trkpt lat="45.83535" lon="4.50614">
        <ele>522</ele>
        <time>2016-08-23T11:10:00Z</time>
      </trkpt>
      <trkpt lat="45.8354" lon="4.50605">
        <ele>523</ele>
        <time>2016-08-23T11:10:01Z</time>
      </trkpt>
      <trkpt lat="45.83544" lon="4.50596">
        <ele>523</ele>
        <time>2016-08-23T11:10:02Z</time>
      </trkpt>
      <trkpt lat="45.83548" lon="4.50587">
        <ele>524</ele>
        <time>2016-08-23T11:10:03Z</time>
      </trkpt>
      <trkpt lat="45.83553" lon="4.50579">
        <ele>535</ele>
        <time>2016-08-23T11:10:04Z</time>
      </trkpt>
      <trkpt lat="45.83561" lon="4.50573">
        <ele>534</ele>
        <time>2016-08-23T11:10:05Z</time>
      </trkpt>
      <trkpt lat="45.83569" lon="4.5057">
        <ele>533</ele>
        <time>2016-08-23T11:10:06Z</time>
      </trkpt>
      <trkpt lat="45.83577" lon="4.50568">
        <ele>532</ele>
        <time>2016-08-23T11:10:07Z</time>
      </trkpt>
      <trkpt lat="45.83586" lon="4.50568">
        <ele>531</ele>
        <time>2016-08-23T11:10:08Z</time>
      </trkpt>
      <trkpt lat="45.83595" lon="4.50569">
        <ele>532</ele>
        <time>2016-08-23T11:10:09Z</time>
      </trkpt>
      <trkpt lat="45.83604" lon="4.50572">
        <ele>533</ele>
        <time>2016-08-23T11:10:10Z</time>
      </trkpt>
      <trkpt lat="45.83612" lon="4.50576">
        <ele>533</ele>
        <time>2016-08-23T11:10:11Z</time>
      </trkpt>
      <trkpt lat="45.8362" lon="4.50582">
        <ele>534</ele>
        <time>2016-08-23T11:10:12Z</time>
      </trkpt>
      <trkpt lat="45.83627" lon="4.5059">
        <ele>524</ele>
        <time>2016-08-23T11:10:13Z</time>
      </trkpt>
      <trkpt lat="45.83633" lon="4.50601">
        <ele>524</ele>
        <time>2016-08-23T11:10:14Z</time>
      </trkpt>
      <trkpt lat="45.83638" lon="4.50611">
        <ele>523</ele>
        <time>2016-08-23T11:10:15Z</time>
      </trkpt>
      <trkpt lat="45.83644" lon="4.50622">
        <ele>523</ele>
        <time>2016-08-23T11:10:16Z</time>
      </trkpt>
      <trkpt lat="45.83649" lon="4.50633">
        <ele>522</ele>
        <time>2016-08-23T11:10:17Z</time>
      </trkpt>
      <trkpt lat="45.83655" lon="4.50643">
        <ele>521</ele>
        <time>2016-08-23T11:10:18Z</time>
      </trkpt>
      <trkpt lat="45.83662" lon="4.50653">
        <ele>521</ele>
        <time>2016-08-23T11:10:19Z</time>
      </trkpt>
      <trkpt lat="45.83668" lon="4.50663">
        <ele>521</ele>
        <time>2016-08-23T11:10:20Z</time>
      </trkpt>
      <trkpt lat="45.83675" lon="4.50673">
        <ele>519</ele>
        <time>2016-08-23T11:10:21Z</time>
      </trkpt>
      <trkpt lat="45.83682" lon="4.50682">
        <ele>519</ele>
        <time>2016-08-23T11:10:22Z</time>
      </trkpt>
      <trkpt lat="45.83689" lon="4.50692">
        <ele>518</ele>
        <time>2016-08-23T11:10:23Z</time>
      </trkpt>
      <trkpt lat="45.83696" lon="4.50701">
        <ele>518</ele>
        <time>2016-08-23T11:10:24Z</time>
      </trkpt>
      <trkpt lat="45.83704" lon="4.50711">
        <ele>518</ele>
        <time>2016-08-23T11:10:25Z</time>
      </trkpt>
      <trkpt lat="45.83711" lon="4.5072">
        <ele>518</ele>
        <time>2016-08-23T11:10:26Z</time>
      </trkpt>
      <trkpt lat="45.83719" lon="4.50727">
        <ele>517</ele>
        <time>2016-08-23T11:10:27Z</time>
      </trkpt>
      <trkpt lat="45.83728" lon="4.50734">
        <ele>517</ele>
        <time>2016-08-23T11:10:28Z</time>
      </trkpt>
      <trkpt lat="45.83737" lon="4.50741">
        <ele>517</ele>
        <time>2016-08-23T11:10:29Z</time>
      </trkpt>
      <trkpt lat="45.83746" lon="4.50746">
        <ele>516</ele>
        <time>2016-08-23T11:10:30Z</time>
      </trkpt>
      <trkpt lat="45.83755" lon="4.50752">
        <ele>516</ele>
        <time>2016-08-23T11:10:31Z</time>
      </trkpt>
      <trkpt lat="45.83763" lon="4.50758">
        <ele>515</ele>
        <time>2016-08-23T11:10:32Z</time>
      </trkpt>
      <trkpt lat="45.8377" lon="4.50765">
        <ele>515</ele>
        <time>2016-08-23T11:10:33Z</time>
      </trkpt>
      <trkpt lat="45.83774" lon="4.50776">
        <ele>515</ele>
        <time>2016-08-23T11:10:34Z</time>
      </trkpt>
      <trkpt lat="45.83778" lon="4.50787">
        <ele>514</ele>
        <time>2016-08-23T11:10:35Z</time>
      </trkpt>
      <trkpt lat="45.83781" lon="4.50798">
        <ele>514</ele>
        <time>2016-08-23T11:10:36Z</time>
      </trkpt>
      <trkpt lat="45.83785" lon="4.5081">
        <ele>514</ele>
        <time>2016-08-23T11:10:37Z</time>
      </trkpt>
      <trkpt lat="45.83789" lon="4.50821">
        <ele>513</ele>
        <time>2016-08-23T11:10:38Z</time>
      </trkpt>
      <trkpt lat="45.83793" lon="4.50833">
        <ele>513</ele>
        <time>2016-08-23T11:10:39Z</time>
      </trkpt>
      <trkpt lat="45.83797" lon="4.50844">
        <ele>510</ele>
        <time>2016-08-23T11:10:40Z</time>
      </trkpt>
      <trkpt lat="45.83801" lon="4.50854">
        <ele>509</ele>
        <time>2016-08-23T11:10:41Z</time>
      </trkpt>
      <trkpt lat="45.83805" lon="4.50864">
        <ele>509</ele>
        <time>2016-08-23T11:10:42Z</time>
      </trkpt>
      <trkpt lat="45.83808" lon="4.50874">
        <ele>509</ele>
        <time>2016-08-23T11:10:43Z</time>
      </trkpt>
      <trkpt lat="45.83811" lon="4.50884">
        <ele>509</ele>
        <time>2016-08-23T11:10:44Z</time>
      </trkpt>
      <trkpt lat="45.83814" lon="4.50894">
        <ele>509</ele>
        <time>2016-08-23T11:10:45Z</time>
      </trkpt>
      <trkpt lat="45.83818" lon="4.50903">
        <ele>509</ele>
        <time>2016-08-23T11:10:46Z</time>
      </trkpt>
      <trkpt lat="45.83821" lon="4.50912">
        <ele>509</ele>
        <time>2016-08-23T11:10:47Z</time>
      </trkpt>
      <trkpt lat="45.83825" lon="4.50922">
        <ele>507</ele>
        <time>2016-08-23T11:10:48Z</time>
      </trkpt>
      <trkpt lat="45.83828" lon="4.50931">
        <ele>506</ele>
        <time>2016-08-23T11:10:49Z</time>
      </trkpt>
      <trkpt lat="45.83832" lon="4.5094">
        <ele>506</ele>
        <time>2016-08-23T11:10:50Z</time>
      </trkpt>
      <trkpt lat="45.83835" lon="4.50949">
        <ele>512</ele>
        <time>2016-08-23T11:10:51Z</time>
      </trkpt>
      <trkpt lat="45.83838" lon="4.50959">
        <ele>512</ele>
        <time>2016-08-23T11:10:52Z</time>
      </trkpt>
      <trkpt lat="45.83843" lon="4.50968">
        <ele>512</ele>
        <time>2016-08-23T11:10:53Z</time>
      </trkpt>
      <trkpt lat="45.83846" lon="4.50978">
        <ele>511</ele>
        <time>2016-08-23T11:10:54Z</time>
      </trkpt>
      <trkpt lat="45.83848" lon="4.50989">
        <ele>510</ele>
        <time>2016-08-23T11:10:55Z</time>
      </trkpt>
      <trkpt lat="45.8385" lon="4.50999">
        <ele>510</ele>
        <time>2016-08-23T11:10:56Z</time>
      </trkpt>
      <trkpt lat="45.83852" lon="4.51009">
        <ele>508</ele>
        <time>2016-08-23T11:10:57Z</time>
      </trkpt>
      <trkpt lat="45.83855" lon="4.51019">
        <ele>508</ele>
        <time>2016-08-23T11:10:58Z</time>
      </trkpt>
      <trkpt lat="45.83857" lon="4.5103">
        <ele>508</ele>
        <time>2016-08-23T11:10:59Z</time>
      </trkpt>
      <trkpt lat="45.8386" lon="4.5104">
        <ele>508</ele>
        <time>2016-08-23T11:11:00Z</time>
      </trkpt>
      <trkpt lat="45.83862" lon="4.51051">
        <ele>507</ele>
        <time>2016-08-23T11:11:01Z</time>
      </trkpt>
      <trkpt lat="45.83864" lon="4.51062">
        <ele>507</ele>
        <time>2016-08-23T11:11:02Z</time>
      </trkpt>
      <trkpt lat="45.83866" lon="4.51073">
        <ele>507</ele>
        <time>2016-08-23T11:11:03Z</time>
      </trkpt>
      <trkpt lat="45.83869" lon="4.51084">
        <ele>503</ele>
        <time>2016-08-23T11:11:04Z</time>
      </trkpt>
      <trkpt lat="45.83871" lon="4.51096">
        <ele>503</ele>
        <time>2016-08-23T11:11:05Z</time>
      </trkpt>
      <trkpt lat="45.83874" lon="4.51107">
        <ele>503</ele>
        <time>2016-08-23T11:11:06Z</time>
      </trkpt>
      <trkpt lat="45.83876" lon="4.51118">
        <ele>503</ele>
        <time>2016-08-23T11:11:07Z</time>
      </trkpt>
      <trkpt lat="45.83879" lon="4.5113">
        <ele>503</ele>
        <time>2016-08-23T11:11:08Z</time>
      </trkpt>
      <trkpt lat="45.83881" lon="4.51142">
        <ele>503</ele>
        <time>2016-08-23T11:11:09Z</time>
      </trkpt>
      <trkpt lat="45.83882" lon="4.51155">
        <ele>503</ele>
        <time>2016-08-23T11:11:10Z</time>
      </trkpt>
      <trkpt lat="45.83883" lon="4.51167">
        <ele>502</ele>
        <time>2016-08-23T11:11:11Z</time>
      </trkpt>
      <trkpt lat="45.83881" lon="4.5118">
        <ele>502</ele>
        <time>2016-08-23T11:11:12Z</time>
      </trkpt>
      <trkpt lat="45.83879" lon="4.51191">
        <ele>502</ele>
        <time>2016-08-23T11:11:13Z</time>
      </trkpt>
      <trkpt lat="45.83874" lon="4.51202">
        <ele>502</ele>
        <time>2016-08-23T11:11:14Z</time>
      </trkpt>
      <trkpt lat="45.83869" lon="4.51212">
        <ele>502</ele>
        <time>2016-08-23T11:11:15Z</time>
      </trkpt>
      <trkpt lat="45.83864" lon="4.51221">
        <ele>502</ele>
        <time>2016-08-23T11:11:16Z</time>
      </trkpt>
      <trkpt lat="45.8386" lon="4.51231">
        <ele>501</ele>
        <time>2016-08-23T11:11:17Z</time>
      </trkpt>
      <trkpt lat="45.83855" lon="4.51241">
        <ele>500</ele>
        <time>2016-08-23T11:11:18Z</time>
      </trkpt>
      <trkpt lat="45.83851" lon="4.5125">
        <ele>502</ele>
        <time>2016-08-23T11:11:19Z</time>
      </trkpt>
      <trkpt lat="45.83847" lon="4.51259">
        <ele>502</ele>
        <time>2016-08-23T11:11:20Z</time>
      </trkpt>
      <trkpt lat="45.83843" lon="4.51269">
        <ele>503</ele>
        <time>2016-08-23T11:11:21Z</time>
      </trkpt>
      <trkpt lat="45.8384" lon="4.51279">
        <ele>504</ele>
        <time>2016-08-23T11:11:22Z</time>
      </trkpt>
      <trkpt lat="45.83836" lon="4.51289">
        <ele>505</ele>
        <time>2016-08-23T11:11:23Z</time>
      </trkpt>
      <trkpt lat="45.83833" lon="4.51299">
        <ele>495</ele>
        <time>2016-08-23T11:11:24Z</time>
      </trkpt>
      <trkpt lat="45.8383" lon="4.51309">
        <ele>496</ele>
        <time>2016-08-23T11:11:25Z</time>
      </trkpt>
      <trkpt lat="45.83827" lon="4.51318">
        <ele>497</ele>
        <time>2016-08-23T11:11:26Z</time>
      </trkpt>
      <trkpt lat="45.83824" lon="4.51328">
        <ele>499</ele>
        <time>2016-08-23T11:11:27Z</time>
      </trkpt>
      <trkpt lat="45.83822" lon="4.51338">
        <ele>499</ele>
        <time>2016-08-23T11:11:28Z</time>
      </trkpt>
      <trkpt lat="45.8382" lon="4.51347">
        <ele>498</ele>
        <time>2016-08-23T11:11:29Z</time>
      </trkpt>
      <trkpt lat="45.83819" lon="4.51357">
        <ele>497</ele>
        <time>2016-08-23T11:11:30Z</time>
      </trkpt>
      <trkpt lat="45.83819" lon="4.51366">
        <ele>496</ele>
        <time>2016-08-23T11:11:31Z</time>
      </trkpt>
      <trkpt lat="45.83819" lon="4.51375">
        <ele>496</ele>
        <time>2016-08-23T11:11:32Z</time>
      </trkpt>
      <trkpt lat="45.83819" lon="4.51384">
        <ele>497</ele>
        <time>2016-08-23T11:11:33Z</time>
      </trkpt>
      <trkpt lat="45.8382" lon="4.51393">
        <ele>497</ele>
        <time>2016-08-23T11:11:34Z</time>
      </trkpt>
      <trkpt lat="45.8382" lon="4.51401">
        <ele>499</ele>
        <time>2016-08-23T11:11:35Z</time>
      </trkpt>
      <trkpt lat="45.83821" lon="4.5141">
        <ele>500</ele>
        <time>2016-08-23T11:11:36Z</time>
      </trkpt>
      <trkpt lat="45.83822" lon="4.51418">
        <ele>501</ele>
        <time>2016-08-23T11:11:37Z</time>
      </trkpt>
      <trkpt lat="45.83822" lon="4.51426">
        <ele>500</ele>
        <time>2016-08-23T11:11:38Z</time>
      </trkpt>
      <trkpt lat="45.83822" lon="4.51434">
        <ele>499</ele>
        <time>2016-08-23T11:11:39Z</time>
      </trkpt>
      <trkpt lat="45.83822" lon="4.51442">
        <ele>498</ele>
        <time>2016-08-23T11:11:40Z</time>
      </trkpt>
      <trkpt lat="45.83822" lon="4.5145">
        <ele>497</ele>
        <time>2016-08-23T11:11:41Z</time>
      </trkpt>
      <trkpt lat="45.83821" lon="4.51459">
        <ele>497</ele>
        <time>2016-08-23T11:11:42Z</time>
      </trkpt>
      <trkpt lat="45.83821" lon="4.51468">
        <ele>497</ele>
        <time>2016-08-23T11:11:43Z</time>
      </trkpt>
      <trkpt lat="45.8382" lon="4.51477">
        <ele>497</ele>
        <time>2016-08-23T11:11:44Z</time>
      </trkpt>
      <trkpt lat="45.8382" lon="4.51487">
        <ele>498</ele>
        <time>2016-08-23T11:11:45Z</time>
      </trkpt>
      <trkpt lat="45.83821" lon="4.51497">
        <ele>499</ele>
        <time>2016-08-23T11:11:46Z</time>
      </trkpt>
      <trkpt lat="45.83822" lon="4.51507">
        <ele>497</ele>
        <time>2016-08-23T11:11:47Z</time>
      </trkpt>
      <trkpt lat="45.83823" lon="4.51517">
        <ele>496</ele>
        <time>2016-08-23T11:11:48Z</time>
      </trkpt>
      <trkpt lat="45.83825" lon="4.51527">
        <ele>494</ele>
        <time>2016-08-23T11:11:49Z</time>
      </trkpt>
      <trkpt lat="45.83827" lon="4.51536">
        <ele>493</ele>
        <time>2016-08-23T11:11:50Z</time>
      </trkpt>
      <trkpt lat="45.8383" lon="4.51546">
        <ele>493</ele>
        <time>2016-08-23T11:11:51Z</time>
      </trkpt>
      <trkpt lat="45.83833" lon="4.51555">
        <ele>492</ele>
        <time>2016-08-23T11:11:52Z</time>
      </trkpt>
      <trkpt lat="45.83836" lon="4.51564">
        <ele>503</ele>
        <time>2016-08-23T11:11:53Z</time>
      </trkpt>
      <trkpt lat="45.83839" lon="4.51573">
        <ele>500</ele>
        <time>2016-08-23T11:11:54Z</time>
      </trkpt>
      <trkpt lat="45.83841" lon="4.51583">
        <ele>499</ele>
        <time>2016-08-23T11:11:55Z</time>
      </trkpt>
      <trkpt lat="45.83844" lon="4.51593">
        <ele>497</ele>
        <time>2016-08-23T11:11:56Z</time>
      </trkpt>
      <trkpt lat="45.83847" lon="4.51602">
        <ele>498</ele>
        <time>2016-08-23T11:11:57Z</time>
      </trkpt>
      <trkpt lat="45.8385" lon="4.51612">
        <ele>498</ele>
        <time>2016-08-23T11:11:58Z</time>
      </trkpt>
      <trkpt lat="45.83853" lon="4.51622">
        <ele>498</ele>
        <time>2016-08-23T11:11:59Z</time>
      </trkpt>
      <trkpt lat="45.83856" lon="4.51631">
        <ele>497</ele>
        <time>2016-08-23T11:12:00Z</time>
      </trkpt>
      <trkpt lat="45.83859" lon="4.51641">
        <ele>497</ele>
        <time>2016-08-23T11:12:01Z</time>
      </trkpt>
      <trkpt lat="45.83862" lon="4.5165">
        <ele>496</ele>
        <time>2016-08-23T11:12:02Z</time>
      </trkpt>
      <trkpt lat="45.83865" lon="4.5166">
        <ele>496</ele>
        <time>2016-08-23T11:12:03Z</time>
      </trkpt>
      <trkpt lat="45.83869" lon="4.51669">
        <ele>492</ele>
        <time>2016-08-23T11:12:04Z</time>
      </trkpt>
      <trkpt lat="45.83872" lon="4.51679">
        <ele>492</ele>
        <time>2016-08-23T11:12:05Z</time>
      </trkpt>
      <trkpt lat="45.83875" lon="4.51689">
        <ele>493</ele>
        <time>2016-08-23T11:12:06Z</time>
      </trkpt>
      <trkpt lat="45.83878" lon="4.51699">
        <ele>493</ele>
        <time>2016-08-23T11:12:07Z</time>
      </trkpt>
      <trkpt lat="45.8388" lon="4.5171">
        <ele>492</ele>
        <time>2016-08-23T11:12:08Z</time>
      </trkpt>
      <trkpt lat="45.8388" lon="4.51721">
        <ele>492</ele>
        <time>2016-08-23T11:12:09Z</time>
      </trkpt>
      <trkpt lat="45.83879" lon="4.51733">
        <ele>492</ele>
        <time>2016-08-23T11:12:10Z</time>
      </trkpt>
      <trkpt lat="45.83877" lon="4.51744">
        <ele>491</ele>
        <time>2016-08-23T11:12:11Z</time>
      </trkpt>
      <trkpt lat="45.83873" lon="4.51753">
        <ele>491</ele>
        <time>2016-08-23T11:12:12Z</time>
      </trkpt>
      <trkpt lat="45.83868" lon="4.51762">
        <ele>490</ele>
        <time>2016-08-23T11:12:13Z</time>
      </trkpt>
      <trkpt lat="45.83863" lon="4.5177">
        <ele>490</ele>
        <time>2016-08-23T11:12:14Z</time>
      </trkpt>
      <trkpt lat="45.83858" lon="4.51779">
        <ele>490</ele>
        <time>2016-08-23T11:12:15Z</time>
      </trkpt>
      <trkpt lat="45.83853" lon="4.51787">
        <ele>490</ele>
        <time>2016-08-23T11:12:16Z</time>
      </trkpt>
      <trkpt lat="45.83848" lon="4.51795">
        <ele>490</ele>
        <time>2016-08-23T11:12:17Z</time>
      </trkpt>
      <trkpt lat="45.83843" lon="4.51802">
        <ele>490</ele>
        <time>2016-08-23T11:12:18Z</time>
      </trkpt>
      <trkpt lat="45.83839" lon="4.5181">
        <ele>489</ele>
        <time>2016-08-23T11:12:19Z</time>
      </trkpt>
      <trkpt lat="45.83833" lon="4.51818">
        <ele>483</ele>
        <time>2016-08-23T11:12:20Z</time>
      </trkpt>
      <trkpt lat="45.83829" lon="4.51827">
        <ele>484</ele>
        <time>2016-08-23T11:12:21Z</time>
      </trkpt>
      <trkpt lat="45.83825" lon="4.51835">
        <ele>484</ele>
        <time>2016-08-23T11:12:22Z</time>
      </trkpt>
      <trkpt lat="45.83821" lon="4.51844">
        <ele>484</ele>
        <time>2016-08-23T11:12:23Z</time>
      </trkpt>
      <trkpt lat="45.83818" lon="4.51852">
        <ele>483</ele>
        <time>2016-08-23T11:12:24Z</time>
      </trkpt>
      <trkpt lat="45.83815" lon="4.51861">
        <ele>482</ele>
        <time>2016-08-23T11:12:25Z</time>
      </trkpt>
      <trkpt lat="45.83812" lon="4.5187">
        <ele>482</ele>
        <time>2016-08-23T11:12:26Z</time>
      </trkpt>
      <trkpt lat="45.8381" lon="4.51879">
        <ele>482</ele>
        <time>2016-08-23T11:12:27Z</time>
      </trkpt>
      <trkpt lat="45.83808" lon="4.51889">
        <ele>482</ele>
        <time>2016-08-23T11:12:28Z</time>
      </trkpt>
      <trkpt lat="45.83807" lon="4.51899">
        <ele>483</ele>
        <time>2016-08-23T11:12:29Z</time>
      </trkpt>
      <trkpt lat="45.83805" lon="4.51909">
        <ele>483</ele>
        <time>2016-08-23T11:12:30Z</time>
      </trkpt>
      <trkpt lat="45.83803" lon="4.51919">
        <ele>483</ele>
        <time>2016-08-23T11:12:31Z</time>
      </trkpt>
      <trkpt lat="45.83801" lon="4.51929">
        <ele>483</ele>
        <time>2016-08-23T11:12:32Z</time>
      </trkpt>
      <trkpt lat="45.83799" lon="4.51939">
        <ele>483</ele>
        <time>2016-08-23T11:12:33Z</time>
      </trkpt>
      <trkpt lat="45.83797" lon="4.51948">
        <ele>483</ele>
        <time>2016-08-23T11:12:34Z</time>
      </trkpt>
      <trkpt lat="45.83795" lon="4.51958">
        <ele>483</ele>
        <time>2016-08-23T11:12:35Z</time>
      </trkpt>
      <trkpt lat="45.83794" lon="4.51967">
        <ele>483</ele>
        <time>2016-08-23T11:12:36Z</time>
      </trkpt>
      <trkpt lat="45.83793" lon="4.51978">
        <ele>483</ele>
        <time>2016-08-23T11:12:37Z</time>
      </trkpt>
      <trkpt lat="45.83791" lon="4.51988">
        <ele>482</ele>
        <time>2016-08-23T11:12:38Z</time>
      </trkpt>
      <trkpt lat="45.8379" lon="4.51999">
        <ele>482</ele>
        <time>2016-08-23T11:12:39Z</time>
      </trkpt>
      <trkpt lat="45.83789" lon="4.52009">
        <ele>482</ele>
        <time>2016-08-23T11:12:40Z</time>
      </trkpt>
      <trkpt lat="45.83787" lon="4.5202">
        <ele>482</ele>
        <time>2016-08-23T11:12:41Z</time>
      </trkpt>
      <trkpt lat="45.83786" lon="4.5203">
        <ele>482</ele>
        <time>2016-08-23T11:12:42Z</time>
      </trkpt>
      <trkpt lat="45.83784" lon="4.52041">
        <ele>482</ele>
        <time>2016-08-23T11:12:43Z</time>
      </trkpt>
      <trkpt lat="45.83783" lon="4.52051">
        <ele>482</ele>
        <time>2016-08-23T11:12:44Z</time>
      </trkpt>
      <trkpt lat="45.83781" lon="4.52061">
        <ele>481</ele>
        <time>2016-08-23T11:12:45Z</time>
      </trkpt>
      <trkpt lat="45.8378" lon="4.52072">
        <ele>481</ele>
        <time>2016-08-23T11:12:46Z</time>
      </trkpt>
      <trkpt lat="45.83779" lon="4.52083">
        <ele>481</ele>
        <time>2016-08-23T11:12:47Z</time>
      </trkpt>
      <trkpt lat="45.83779" lon="4.52093">
        <ele>480</ele>
        <time>2016-08-23T11:12:48Z</time>
      </trkpt>
      <trkpt lat="45.8378" lon="4.52103">
        <ele>480</ele>
        <time>2016-08-23T11:12:49Z</time>
      </trkpt>
      <trkpt lat="45.83781" lon="4.52113">
        <ele>480</ele>
        <time>2016-08-23T11:12:50Z</time>
      </trkpt>
      <trkpt lat="45.83782" lon="4.52123">
        <ele>480</ele>
        <time>2016-08-23T11:12:51Z</time>
      </trkpt>
      <trkpt lat="45.83783" lon="4.52133">
        <ele>480</ele>
        <time>2016-08-23T11:12:52Z</time>
      </trkpt>
      <trkpt lat="45.83784" lon="4.52143">
        <ele>480</ele>
        <time>2016-08-23T11:12:53Z</time>
      </trkpt>
      <trkpt lat="45.83785" lon="4.52153">
        <ele>480</ele>
        <time>2016-08-23T11:12:54Z</time>
      </trkpt>
      <trkpt lat="45.83786" lon="4.52162">
        <ele>480</ele>
        <time>2016-08-23T11:12:55Z</time>
      </trkpt>
      <trkpt lat="45.83788" lon="4.52172">
        <ele>480</ele>
        <time>2016-08-23T11:12:56Z</time>
      </trkpt>
      <trkpt lat="45.83789" lon="4.52182">
        <ele>481</ele>
        <time>2016-08-23T11:12:57Z</time>
      </trkpt>
      <trkpt lat="45.83789" lon="4.52192">
        <ele>481</ele>
        <time>2016-08-23T11:12:58Z</time>
      </trkpt>
      <trkpt lat="45.83789" lon="4.52202">
        <ele>481</ele>
        <time>2016-08-23T11:12:59Z</time>
      </trkpt>
      <trkpt lat="45.83788" lon="4.52212">
        <ele>481</ele>
        <time>2016-08-23T11:13:00Z</time>
      </trkpt>
      <trkpt lat="45.83787" lon="4.52222">
        <ele>481</ele>
        <time>2016-08-23T11:13:01Z</time>
      </trkpt>
      <trkpt lat="45.83784" lon="4.52232">
        <ele>480</ele>
        <time>2016-08-23T11:13:02Z</time>
      </trkpt>
      <trkpt lat="45.8378" lon="4.52241">
        <ele>479</ele>
        <time>2016-08-23T11:13:03Z</time>
      </trkpt>
      <trkpt lat="45.83776" lon="4.5225">
        <ele>479</ele>
        <time>2016-08-23T11:13:04Z</time>
      </trkpt>
      <trkpt lat="45.83771" lon="4.52257">
        <ele>481</ele>
        <time>2016-08-23T11:13:05Z</time>
      </trkpt>
      <trkpt lat="45.83765" lon="4.52265">
        <ele>481</ele>
        <time>2016-08-23T11:13:06Z</time>
      </trkpt>
      <trkpt lat="45.83759" lon="4.52272">
        <ele>481</ele>
        <time>2016-08-23T11:13:07Z</time>
      </trkpt>
      <trkpt lat="45.83753" lon="4.52279">
        <ele>482</ele>
        <time>2016-08-23T11:13:08Z</time>
      </trkpt>
      <trkpt lat="45.83748" lon="4.52286">
        <ele>470</ele>
        <time>2016-08-23T11:13:09Z</time>
      </trkpt>
      <trkpt lat="45.83742" lon="4.52294">
        <ele>471</ele>
        <time>2016-08-23T11:13:10Z</time>
      </trkpt>
      <trkpt lat="45.83737" lon="4.52301">
        <ele>471</ele>
        <time>2016-08-23T11:13:11Z</time>
      </trkpt>
      <trkpt lat="45.83732" lon="4.52309">
        <ele>471</ele>
        <time>2016-08-23T11:13:12Z</time>
      </trkpt>
      <trkpt lat="45.83727" lon="4.52317">
        <ele>472</ele>
        <time>2016-08-23T11:13:13Z</time>
      </trkpt>
      <trkpt lat="45.83723" lon="4.52326">
        <ele>471</ele>
        <time>2016-08-23T11:13:14Z</time>
      </trkpt>
      <trkpt lat="45.83718" lon="4.52335">
        <ele>476</ele>
        <time>2016-08-23T11:13:15Z</time>
      </trkpt>
      <trkpt lat="45.83714" lon="4.52344">
        <ele>476</ele>
        <time>2016-08-23T11:13:16Z</time>
      </trkpt>
      <trkpt lat="45.83709" lon="4.52353">
        <ele>475</ele>
        <time>2016-08-23T11:13:17Z</time>
      </trkpt>
      <trkpt lat="45.83704" lon="4.52362">
        <ele>475</ele>
        <time>2016-08-23T11:13:18Z</time>
      </trkpt>
      <trkpt lat="45.83699" lon="4.52371">
        <ele>475</ele>
        <time>2016-08-23T11:13:19Z</time>
      </trkpt>
      <trkpt lat="45.83694" lon="4.52381">
        <ele>475</ele>
        <time>2016-08-23T11:13:20Z</time>
      </trkpt>
      <trkpt lat="45.83689" lon="4.5239">
        <ele>474</ele>
        <time>2016-08-23T11:13:21Z</time>
      </trkpt>
      <trkpt lat="45.83684" lon="4.52399">
        <ele>473</ele>
        <time>2016-08-23T11:13:22Z</time>
      </trkpt>
      <trkpt lat="45.83679" lon="4.52408">
        <ele>472</ele>
        <time>2016-08-23T11:13:23Z</time>
      </trkpt>
      <trkpt lat="45.83674" lon="4.52417">
        <ele>474</ele>
        <time>2016-08-23T11:13:24Z</time>
      </trkpt>
      <trkpt lat="45.83668" lon="4.52426">
        <ele>475</ele>
        <time>2016-08-23T11:13:25Z</time>
      </trkpt>
      <trkpt lat="45.83662" lon="4.52435">
        <ele>467</ele>
        <time>2016-08-23T11:13:26Z</time>
      </trkpt>
      <trkpt lat="45.83657" lon="4.52443">
        <ele>467</ele>
        <time>2016-08-23T11:13:27Z</time>
      </trkpt>
      <trkpt lat="45.8365" lon="4.5245">
        <ele>467</ele>
        <time>2016-08-23T11:13:28Z</time>
      </trkpt>
      <trkpt lat="45.83645" lon="4.52458">
        <ele>467</ele>
        <time>2016-08-23T11:13:29Z</time>
      </trkpt>
      <trkpt lat="45.83639" lon="4.52465">
        <ele>467</ele>
        <time>2016-08-23T11:13:30Z</time>
      </trkpt>
      <trkpt lat="45.83633" lon="4.52473">
        <ele>467</ele>
        <time>2016-08-23T11:13:31Z</time>
      </trkpt>
      <trkpt lat="45.83627" lon="4.52481">
        <ele>467</ele>
        <time>2016-08-23T11:13:32Z</time>
      </trkpt>
      <trkpt lat="45.83622" lon="4.52488">
        <ele>466</ele>
        <time>2016-08-23T11:13:33Z</time>
      </trkpt>
      <trkpt lat="45.83617" lon="4.52497">
        <ele>465</ele>
        <time>2016-08-23T11:13:34Z</time>
      </trkpt>
      <trkpt lat="45.83613" lon="4.52506">
        <ele>470</ele>
        <time>2016-08-23T11:13:35Z</time>
      </trkpt>
      <trkpt lat="45.83608" lon="4.52515">
        <ele>470</ele>
        <time>2016-08-23T11:13:36Z</time>
      </trkpt>
      <trkpt lat="45.83604" lon="4.52525">
        <ele>470</ele>
        <time>2016-08-23T11:13:37Z</time>
      </trkpt>
      <trkpt lat="45.83601" lon="4.52536">
        <ele>471</ele>
        <time>2016-08-23T11:13:38Z</time>
      </trkpt>
      <trkpt lat="45.83597" lon="4.52546">
        <ele>471</ele>
        <time>2016-08-23T11:13:39Z</time>
      </trkpt>
      <trkpt lat="45.83594" lon="4.52557">
        <ele>470</ele>
        <time>2016-08-23T11:13:40Z</time>
      </trkpt>
      <trkpt lat="45.83591" lon="4.52567">
        <ele>469</ele>
        <time>2016-08-23T11:13:41Z</time>
      </trkpt>
      <trkpt lat="45.83588" lon="4.52579">
        <ele>465</ele>
        <time>2016-08-23T11:13:42Z</time>
      </trkpt>
      <trkpt lat="45.83586" lon="4.5259">
        <ele>466</ele>
        <time>2016-08-23T11:13:43Z</time>
      </trkpt>
      <trkpt lat="45.83585" lon="4.52602">
        <ele>470</ele>
        <time>2016-08-23T11:13:44Z</time>
      </trkpt>
      <trkpt lat="45.83585" lon="4.52614">
        <ele>472</ele>
        <time>2016-08-23T11:13:45Z</time>
      </trkpt>
      <trkpt lat="45.83584" lon="4.52626">
        <ele>472</ele>
        <time>2016-08-23T11:13:46Z</time>
      </trkpt>
      <trkpt lat="45.83585" lon="4.52637">
        <ele>472</ele>
        <time>2016-08-23T11:13:47Z</time>
      </trkpt>
      <trkpt lat="45.83587" lon="4.52648">
        <ele>470</ele>
        <time>2016-08-23T11:13:48Z</time>
      </trkpt>
      <trkpt lat="45.83589" lon="4.5266">
        <ele>466</ele>
        <time>2016-08-23T11:13:49Z</time>
      </trkpt>
      <trkpt lat="45.83591" lon="4.52671">
        <ele>465</ele>
        <time>2016-08-23T11:13:50Z</time>
      </trkpt>
      <trkpt lat="45.83593" lon="4.52683">
        <ele>467</ele>
        <time>2016-08-23T11:13:51Z</time>
      </trkpt>
      <trkpt lat="45.83594" lon="4.52694">
        <ele>468</ele>
        <time>2016-08-23T11:13:52Z</time>
      </trkpt>
      <trkpt lat="45.83596" lon="4.52705">
        <ele>469</ele>
        <time>2016-08-23T11:13:53Z</time>
      </trkpt>
      <trkpt lat="45.83599" lon="4.52716">
        <ele>468</ele>
        <time>2016-08-23T11:13:54Z</time>
      </trkpt>
      <trkpt lat="45.83601" lon="4.52728">
        <ele>467</ele>
        <time>2016-08-23T11:13:55Z</time>
      </trkpt>
      <trkpt lat="45.83603" lon="4.5274">
        <ele>466</ele>
        <time>2016-08-23T11:13:56Z</time>
      </trkpt>
      <trkpt lat="45.83604" lon="4.52752">
        <ele>463</ele>
        <time>2016-08-23T11:13:57Z</time>
      </trkpt>
      <trkpt lat="45.83604" lon="4.52764">
        <ele>464</ele>
        <time>2016-08-23T11:13:58Z</time>
      </trkpt>
      <trkpt lat="45.83605" lon="4.52776">
        <ele>464</ele>
        <time>2016-08-23T11:13:59Z</time>
      </trkpt>
      <trkpt lat="45.83604" lon="4.52788">
        <ele>465</ele>
        <time>2016-08-23T11:14:00Z</time>
      </trkpt>
      <trkpt lat="45.83604" lon="4.528">
        <ele>464</ele>
        <time>2016-08-23T11:14:01Z</time>
      </trkpt>
      <trkpt lat="45.83602" lon="4.52813">
        <ele>463</ele>
        <time>2016-08-23T11:14:02Z</time>
      </trkpt>
      <trkpt lat="45.83601" lon="4.52825">
        <ele>461</ele>
        <time>2016-08-23T11:14:03Z</time>
      </trkpt>
      <trkpt lat="45.83599" lon="4.52836">
        <ele>460</ele>
        <time>2016-08-23T11:14:04Z</time>
      </trkpt>
      <trkpt lat="45.83595" lon="4.52848">
        <ele>460</ele>
        <time>2016-08-23T11:14:05Z</time>
      </trkpt>
      <trkpt lat="45.83592" lon="4.5286">
        <ele>462</ele>
        <time>2016-08-23T11:14:06Z</time>
      </trkpt>
      <trkpt lat="45.83588" lon="4.52872">
        <ele>462</ele>
        <time>2016-08-23T11:14:07Z</time>
      </trkpt>
      <trkpt lat="45.83585" lon="4.52884">
        <ele>462</ele>
        <time>2016-08-23T11:14:08Z</time>
      </trkpt>
      <trkpt lat="45.83583" lon="4.52896">
        <ele>449</ele>
        <time>2016-08-23T11:14:09Z</time>
      </trkpt>
      <trkpt lat="45.8358" lon="4.52908">
        <ele>451</ele>
        <time>2016-08-23T11:14:10Z</time>
      </trkpt>
      <trkpt lat="45.83577" lon="4.5292">
        <ele>452</ele>
        <time>2016-08-23T11:14:11Z</time>
      </trkpt>
      <trkpt lat="45.83574" lon="4.52932">
        <ele>451</ele>
        <time>2016-08-23T11:14:12Z</time>
      </trkpt>
      <trkpt lat="45.83571" lon="4.52944">
        <ele>450</ele>
        <time>2016-08-23T11:14:13Z</time>
      </trkpt>
      <trkpt lat="45.83567" lon="4.52955">
        <ele>450</ele>
        <time>2016-08-23T11:14:14Z</time>
      </trkpt>
      <trkpt lat="45.83562" lon="4.52966">
        <ele>450</ele>
        <time>2016-08-23T11:14:15Z</time>
      </trkpt>
      <trkpt lat="45.83557" lon="4.52976">
        <ele>450</ele>
        <time>2016-08-23T11:14:16Z</time>
      </trkpt>
      <trkpt lat="45.8355" lon="4.52984">
        <ele>450</ele>
        <time>2016-08-23T11:14:17Z</time>
      </trkpt>
      <trkpt lat="45.83543" lon="4.52992">
        <ele>449</ele>
        <time>2016-08-23T11:14:18Z</time>
      </trkpt>
      <trkpt lat="45.83535" lon="4.52998">
        <ele>448</ele>
        <time>2016-08-23T11:14:19Z</time>
      </trkpt>
      <trkpt lat="45.83527" lon="4.53004">
        <ele>454</ele>
        <time>2016-08-23T11:14:20Z</time>
      </trkpt>
      <trkpt lat="45.83518" lon="4.53008">
        <ele>452</ele>
        <time>2016-08-23T11:14:21Z</time>
      </trkpt>
      <trkpt lat="45.8351" lon="4.53012">
        <ele>451</ele>
        <time>2016-08-23T11:14:22Z</time>
      </trkpt>
      <trkpt lat="45.83501" lon="4.53016">
        <ele>451</ele>
        <time>2016-08-23T11:14:23Z</time>
      </trkpt>
      <trkpt lat="45.83492" lon="4.5302">
        <ele>445</ele>
        <time>2016-08-23T11:14:24Z</time>
      </trkpt>
      <trkpt lat="45.83484" lon="4.53025">
        <ele>445</ele>
        <time>2016-08-23T11:14:25Z</time>
      </trkpt>
      <trkpt lat="45.83476" lon="4.53031">
        <ele>445</ele>
        <time>2016-08-23T11:14:26Z</time>
      </trkpt>
      <trkpt lat="45.83469" lon="4.53039">
        <ele>445</ele>
        <time>2016-08-23T11:14:27Z</time>
      </trkpt>
      <trkpt lat="45.83462" lon="4.53048">
        <ele>446</ele>
        <time>2016-08-23T11:14:28Z</time>
      </trkpt>
      <trkpt lat="45.83455" lon="4.53057">
        <ele>446</ele>
        <time>2016-08-23T11:14:29Z</time>
      </trkpt>
      <trkpt lat="45.83449" lon="4.53067">
        <ele>445</ele>
        <time>2016-08-23T11:14:30Z</time>
      </trkpt>
      <trkpt lat="45.83443" lon="4.53077">
        <ele>445</ele>
        <time>2016-08-23T11:14:31Z</time>
      </trkpt>
      <trkpt lat="45.83437" lon="4.53087">
        <ele>451</ele>
        <time>2016-08-23T11:14:32Z</time>
      </trkpt>
      <trkpt lat="45.83431" lon="4.53097">
        <ele>451</ele>
        <time>2016-08-23T11:14:33Z</time>
      </trkpt>
      <trkpt lat="45.83424" lon="4.53107">
        <ele>452</ele>
        <time>2016-08-23T11:14:34Z</time>
      </trkpt>
      <trkpt lat="45.83416" lon="4.53115">
        <ele>442</ele>
        <time>2016-08-23T11:14:35Z</time>
      </trkpt>
      <trkpt lat="45.83407" lon="4.5312">
        <ele>442</ele>
        <time>2016-08-23T11:14:36Z</time>
      </trkpt>
      <trkpt lat="45.83398" lon="4.53125">
        <ele>442</ele>
        <time>2016-08-23T11:14:37Z</time>
      </trkpt>
      <trkpt lat="45.83389" lon="4.53128">
        <ele>441</ele>
        <time>2016-08-23T11:14:38Z</time>
      </trkpt>
      <trkpt lat="45.8338" lon="4.53133">
        <ele>441</ele>
        <time>2016-08-23T11:14:39Z</time>
      </trkpt>
      <trkpt lat="45.83371" lon="4.53137">
        <ele>440</ele>
        <time>2016-08-23T11:14:40Z</time>
      </trkpt>
      <trkpt lat="45.83363" lon="4.53142">
        <ele>439</ele>
        <time>2016-08-23T11:14:41Z</time>
      </trkpt>
      <trkpt lat="45.83355" lon="4.53147">
        <ele>439</ele>
        <time>2016-08-23T11:14:42Z</time>
      </trkpt>
      <trkpt lat="45.83347" lon="4.53154">
        <ele>438</ele>
        <time>2016-08-23T11:14:43Z</time>
      </trkpt>
      <trkpt lat="45.83339" lon="4.53161">
        <ele>438</ele>
        <time>2016-08-23T11:14:44Z</time>
      </trkpt>
      <trkpt lat="45.83333" lon="4.53169">
        <ele>437</ele>
        <time>2016-08-23T11:14:45Z</time>
      </trkpt>
      <trkpt lat="45.83328" lon="4.53178">
        <ele>436</ele>
        <time>2016-08-23T11:14:46Z</time>
      </trkpt>
      <trkpt lat="45.83324" lon="4.53188">
        <ele>436</ele>
        <time>2016-08-23T11:14:47Z</time>
      </trkpt>
      <trkpt lat="45.83321" lon="4.53198">
        <ele>436</ele>
        <time>2016-08-23T11:14:48Z</time>
      </trkpt>
      <trkpt lat="45.83317" lon="4.53208">
        <ele>436</ele>
        <time>2016-08-23T11:14:49Z</time>
      </trkpt>
      <trkpt lat="45.83314" lon="4.53219">
        <ele>436</ele>
        <time>2016-08-23T11:14:50Z</time>
      </trkpt>
      <trkpt lat="45.83313" lon="4.5323">
        <ele>437</ele>
        <time>2016-08-23T11:14:51Z</time>
      </trkpt>
      <trkpt lat="45.83312" lon="4.53241">
        <ele>438</ele>
        <time>2016-08-23T11:14:52Z</time>
      </trkpt>
      <trkpt lat="45.83313" lon="4.53251">
        <ele>441</ele>
        <time>2016-08-23T11:14:53Z</time>
      </trkpt>
      <trkpt lat="45.83315" lon="4.53261">
        <ele>441</ele>
        <time>2016-08-23T11:14:54Z</time>
      </trkpt>
      <trkpt lat="45.83317" lon="4.5327">
        <ele>441</ele>
        <time>2016-08-23T11:14:55Z</time>
      </trkpt>
      <trkpt lat="45.83318" lon="4.53279">
        <ele>441</ele>
        <time>2016-08-23T11:14:56Z</time>
      </trkpt>
      <trkpt lat="45.83319" lon="4.53286">
        <ele>441</ele>
        <time>2016-08-23T11:14:57Z</time>
      </trkpt>
      <trkpt lat="45.83319" lon="4.53293">
        <ele>441</ele>
        <time>2016-08-23T11:14:58Z</time>
      </trkpt>
      <trkpt lat="45.83318" lon="4.533">
        <ele>441</ele>
        <time>2016-08-23T11:14:59Z</time>
      </trkpt>
      <trkpt lat="45.83316" lon="4.53312">
        <ele>442</ele>
        <time>2016-08-23T11:15:01Z</time>
      </trkpt>
      <trkpt lat="45.83315" lon="4.53317">
        <ele>442</ele>
        <time>2016-08-23T11:15:02Z</time>
      </trkpt>
      <trkpt lat="45.83312" lon="4.53327">
        <ele>442</ele>
        <time>2016-08-23T11:15:04Z</time>
      </trkpt>
      <trkpt lat="45.8331" lon="4.53332">
        <ele>442</ele>
        <time>2016-08-23T11:15:05Z</time>
      </trkpt>
      <trkpt lat="45.83307" lon="4.53341">
        <ele>444</ele>
        <time>2016-08-23T11:15:07Z</time>
      </trkpt>
      <trkpt lat="45.83305" lon="4.53345">
        <ele>443</ele>
        <time>2016-08-23T11:15:08Z</time>
      </trkpt>
      <trkpt lat="45.83302" lon="4.53357">
        <ele>443</ele>
        <time>2016-08-23T11:15:11Z</time>
      </trkpt>
      <trkpt lat="45.83301" lon="4.53361">
        <ele>443</ele>
        <time>2016-08-23T11:15:12Z</time>
      </trkpt>
      <trkpt lat="45.833" lon="4.53371">
        <ele>443</ele>
        <time>2016-08-23T11:15:15Z</time>
      </trkpt>
      <trkpt lat="45.83299" lon="4.53374">
        <ele>443</ele>
        <time>2016-08-23T11:15:16Z</time>
      </trkpt>
      <trkpt lat="45.83298" lon="4.53385">
        <ele>443</ele>
        <time>2016-08-23T11:15:19Z</time>
      </trkpt>
      <trkpt lat="45.83297" lon="4.53389">
        <ele>443</ele>
        <time>2016-08-23T11:15:20Z</time>
      </trkpt>
      <trkpt lat="45.83297" lon="4.53398">
        <ele>443</ele>
        <time>2016-08-23T11:15:22Z</time>
      </trkpt>
      <trkpt lat="45.83297" lon="4.53402">
        <ele>443</ele>
        <time>2016-08-23T11:15:23Z</time>
      </trkpt>
      <trkpt lat="45.83296" lon="4.53411">
        <ele>443</ele>
        <time>2016-08-23T11:15:25Z</time>
      </trkpt>
      <trkpt lat="45.83296" lon="4.53415">
        <ele>443</ele>
        <time>2016-08-23T11:15:26Z</time>
      </trkpt>
      <trkpt lat="45.83297" lon="4.53427">
        <ele>444</ele>
        <time>2016-08-23T11:15:29Z</time>
      </trkpt>
      <trkpt lat="45.83298" lon="4.5343">
        <ele>444</ele>
        <time>2016-08-23T11:15:30Z</time>
      </trkpt>
      <trkpt lat="45.83298" lon="4.53442">
        <ele>444</ele>
        <time>2016-08-23T11:15:33Z</time>
      </trkpt>
      <trkpt lat="45.83298" lon="4.53447">
        <ele>444</ele>
        <time>2016-08-23T11:15:34Z</time>
      </trkpt>
      <trkpt lat="45.83298" lon="4.53459">
        <ele>444</ele>
        <time>2016-08-23T11:15:37Z</time>
      </trkpt>
      <trkpt lat="45.83298" lon="4.53463">
        <ele>443</ele>
        <time>2016-08-23T11:15:38Z</time>
      </trkpt>
      <trkpt lat="45.83299" lon="4.53475">
        <ele>444</ele>
        <time>2016-08-23T11:15:41Z</time>
      </trkpt>
      <trkpt lat="45.833" lon="4.53479">
        <ele>444</ele>
        <time>2016-08-23T11:15:42Z</time>
      </trkpt>
      <trkpt lat="45.83302" lon="4.53489">
        <ele>444</ele>
        <time>2016-08-23T11:15:45Z</time>
      </trkpt>
      <trkpt lat="45.83303" lon="4.53492">
        <ele>444</ele>
        <time>2016-08-23T11:15:46Z</time>
      </trkpt>
      <trkpt lat="45.83306" lon="4.53503">
        <ele>443</ele>
        <time>2016-08-23T11:15:49Z</time>
      </trkpt>
      <trkpt lat="45.83308" lon="4.53505">
        <ele>443</ele>
        <time>2016-08-23T11:15:50Z</time>
      </trkpt>
      <trkpt lat="45.83315" lon="4.53511">
        <ele>444</ele>
        <time>2016-08-23T11:15:53Z</time>
      </trkpt>
      <trkpt lat="45.83316" lon="4.53513">
        <ele>444</ele>
        <time>2016-08-23T11:15:54Z</time>
      </trkpt>
      <trkpt lat="45.83323" lon="4.53521">
        <ele>444</ele>
        <time>2016-08-23T11:15:57Z</time>
      </trkpt>
      <trkpt lat="45.83326" lon="4.53522">
        <ele>444</ele>
        <time>2016-08-23T11:15:58Z</time>
      </trkpt>
      <trkpt lat="45.83333" lon="4.53526">
        <ele>444</ele>
        <time>2016-08-23T11:16:01Z</time>
      </trkpt>
      <trkpt lat="45.83336" lon="4.53527">
        <ele>453</ele>
        <time>2016-08-23T11:16:02Z</time>
      </trkpt>
      <trkpt lat="45.83343" lon="4.53532">
        <ele>454</ele>
        <time>2016-08-23T11:16:05Z</time>
      </trkpt>
      <trkpt lat="45.83345" lon="4.53533">
        <ele>454</ele>
        <time>2016-08-23T11:16:06Z</time>
      </trkpt>
      <trkpt lat="45.83352" lon="4.53535">
        <ele>454</ele>
        <time>2016-08-23T11:16:09Z</time>
      </trkpt>
      <trkpt lat="45.83354" lon="4.53534">
        <ele>454</ele>
        <time>2016-08-23T11:16:10Z</time>
      </trkpt>
      <trkpt lat="45.83361" lon="4.53537">
        <ele>455</ele>
        <time>2016-08-23T11:16:14Z</time>
      </trkpt>
      <trkpt lat="45.83363" lon="4.53538">
        <ele>455</ele>
        <time>2016-08-23T11:16:15Z</time>
      </trkpt>
      <trkpt lat="45.8337" lon="4.53539">
        <ele>456</ele>
        <time>2016-08-23T11:16:19Z</time>
      </trkpt>
      <trkpt lat="45.83372" lon="4.5354">
        <ele>456</ele>
        <time>2016-08-23T11:16:20Z</time>
      </trkpt>
      <trkpt lat="45.83379" lon="4.53542">
        <ele>456</ele>
        <time>2016-08-23T11:16:24Z</time>
      </trkpt>
      <trkpt lat="45.83381" lon="4.53543">
        <ele>457</ele>
        <time>2016-08-23T11:16:25Z</time>
      </trkpt>
      <trkpt lat="45.83389" lon="4.53547">
        <ele>457</ele>
        <time>2016-08-23T11:16:29Z</time>
      </trkpt>
      <trkpt lat="45.8339" lon="4.53547">
        <ele>457</ele>
        <time>2016-08-23T11:16:30Z</time>
      </trkpt>
      <trkpt lat="45.83397" lon="4.5355">
        <ele>458</ele>
        <time>2016-08-23T11:16:34Z</time>
      </trkpt>
      <trkpt lat="45.83399" lon="4.5355">
        <ele>458</ele>
        <time>2016-08-23T11:16:35Z</time>
      </trkpt>
      <trkpt lat="45.83407" lon="4.53552">
        <ele>458</ele>
        <time>2016-08-23T11:16:39Z</time>
      </trkpt>
      <trkpt lat="45.83408" lon="4.53552">
        <ele>458</ele>
        <time>2016-08-23T11:16:40Z</time>
      </trkpt>
      <trkpt lat="45.83416" lon="4.53553">
        <ele>458</ele>
        <time>2016-08-23T11:16:45Z</time>
      </trkpt>
      <trkpt lat="45.83418" lon="4.53554">
        <ele>466</ele>
        <time>2016-08-23T11:16:46Z</time>
      </trkpt>
      <trkpt lat="45.83426" lon="4.53557">
        <ele>466</ele>
        <time>2016-08-23T11:16:51Z</time>
      </trkpt>
      <trkpt lat="45.83427" lon="4.53558">
        <ele>466</ele>
        <time>2016-08-23T11:16:52Z</time>
      </trkpt>
      <trkpt lat="45.83434" lon="4.53562">
        <ele>466</ele>
        <time>2016-08-23T11:16:57Z</time>
      </trkpt>
      <trkpt lat="45.83436" lon="4.53563">
        <ele>466</ele>
        <time>2016-08-23T11:16:58Z</time>
      </trkpt>
      <trkpt lat="45.83443" lon="4.53568">
        <ele>467</ele>
        <time>2016-08-23T11:17:03Z</time>
      </trkpt>
      <trkpt lat="45.83445" lon="4.53569">
        <ele>467</ele>
        <time>2016-08-23T11:17:04Z</time>
      </trkpt>
      <trkpt lat="45.83452" lon="4.53574">
        <ele>468</ele>
        <time>2016-08-23T11:17:09Z</time>
      </trkpt>
      <trkpt lat="45.83454" lon="4.53575">
        <ele>468</ele>
        <time>2016-08-23T11:17:10Z</time>
      </trkpt>
      <trkpt lat="45.83461" lon="4.53582">
        <ele>468</ele>
        <time>2016-08-23T11:17:15Z</time>
      </trkpt>
      <trkpt lat="45.83462" lon="4.53583">
        <ele>468</ele>
        <time>2016-08-23T11:17:16Z</time>
      </trkpt>
      <trkpt lat="45.83469" lon="4.5359">
        <ele>466</ele>
        <time>2016-08-23T11:17:21Z</time>
      </trkpt>
      <trkpt lat="45.8347" lon="4.53591">
        <ele>466</ele>
        <time>2016-08-23T11:17:22Z</time>
      </trkpt>
      <trkpt lat="45.83475" lon="4.53601">
        <ele>466</ele>
        <time>2016-08-23T11:17:28Z</time>
      </trkpt>
      <trkpt lat="45.83476" lon="4.53603">
        <ele>466</ele>
        <time>2016-08-23T11:17:29Z</time>
      </trkpt>
      <trkpt lat="45.83481" lon="4.53612">
        <ele>466</ele>
        <time>2016-08-23T11:17:34Z</time>
      </trkpt>
      <trkpt lat="45.83482" lon="4.53614">
        <ele>466</ele>
        <time>2016-08-23T11:17:35Z</time>
      </trkpt>
      <trkpt lat="45.83487" lon="4.53623">
        <ele>466</ele>
        <time>2016-08-23T11:17:40Z</time>
      </trkpt>
      <trkpt lat="45.83488" lon="4.53626">
        <ele>466</ele>
        <time>2016-08-23T11:17:41Z</time>
      </trkpt>
      <trkpt lat="45.83495" lon="4.53633">
        <ele>466</ele>
        <time>2016-08-23T11:17:46Z</time>
      </trkpt>
      <trkpt lat="45.83496" lon="4.53635">
        <ele>466</ele>
        <time>2016-08-23T11:17:47Z</time>
      </trkpt>
      <trkpt lat="45.83501" lon="4.53645">
        <ele>470</ele>
        <time>2016-08-23T11:17:52Z</time>
      </trkpt>
      <trkpt lat="45.83501" lon="4.53647">
        <ele>470</ele>
        <time>2016-08-23T11:17:53Z</time>
      </trkpt>
      <trkpt lat="45.83506" lon="4.53655">
        <ele>469</ele>
        <time>2016-08-23T11:17:57Z</time>
      </trkpt>
      <trkpt lat="45.83508" lon="4.53658">
        <ele>469</ele>
        <time>2016-08-23T11:17:58Z</time>
      </trkpt>
      <trkpt lat="45.83515" lon="4.53665">
        <ele>470</ele>
        <time>2016-08-23T11:18:02Z</time>
      </trkpt>
      <trkpt lat="45.83517" lon="4.53666">
        <ele>470</ele>
        <time>2016-08-23T11:18:03Z</time>
      </trkpt>
      <trkpt lat="45.83525" lon="4.53673">
        <ele>469</ele>
        <time>2016-08-23T11:18:07Z</time>
      </trkpt>
      <trkpt lat="45.83527" lon="4.53674">
        <ele>469</ele>
        <time>2016-08-23T11:18:08Z</time>
      </trkpt>
      <trkpt lat="45.83534" lon="4.53678">
        <ele>470</ele>
        <time>2016-08-23T11:18:11Z</time>
      </trkpt>
      <trkpt lat="45.83536" lon="4.5368">
        <ele>470</ele>
        <time>2016-08-23T11:18:12Z</time>
      </trkpt>
      <trkpt lat="45.83542" lon="4.53686">
        <ele>470</ele>
        <time>2016-08-23T11:18:15Z</time>
      </trkpt>
      <trkpt lat="45.83544" lon="4.53688">
        <ele>470</ele>
        <time>2016-08-23T11:18:16Z</time>
      </trkpt>
      <trkpt lat="45.8355" lon="4.53692">
        <ele>470</ele>
        <time>2016-08-23T11:18:18Z</time>
      </trkpt>
      <trkpt lat="45.83552" lon="4.53695">
        <ele>470</ele>
        <time>2016-08-23T11:18:19Z</time>
      </trkpt>
      <trkpt lat="45.83558" lon="4.537">
        <ele>470</ele>
        <time>2016-08-23T11:18:21Z</time>
      </trkpt>
      <trkpt lat="45.83562" lon="4.53702">
        <ele>470</ele>
        <time>2016-08-23T11:18:22Z</time>
      </trkpt>
      <trkpt lat="45.83569" lon="4.53707">
        <ele>470</ele>
        <time>2016-08-23T11:18:24Z</time>
      </trkpt>
      <trkpt lat="45.83573" lon="4.5371">
        <ele>470</ele>
        <time>2016-08-23T11:18:25Z</time>
      </trkpt>
      <trkpt lat="45.83577" lon="4.53713">
        <ele>470</ele>
        <time>2016-08-23T11:18:26Z</time>
      </trkpt>
      <trkpt lat="45.83581" lon="4.53716">
        <ele>470</ele>
        <time>2016-08-23T11:18:27Z</time>
      </trkpt>
      <trkpt lat="45.83586" lon="4.5372">
        <ele>474</ele>
        <time>2016-08-23T11:18:28Z</time>
      </trkpt>
      <trkpt lat="45.8359" lon="4.53724">
        <ele>474</ele>
        <time>2016-08-23T11:18:29Z</time>
      </trkpt>
      <trkpt lat="45.83595" lon="4.53728">
        <ele>473</ele>
        <time>2016-08-23T11:18:30Z</time>
      </trkpt>
      <trkpt lat="45.83599" lon="4.53732">
        <ele>473</ele>
        <time>2016-08-23T11:18:31Z</time>
      </trkpt>
      <trkpt lat="45.83604" lon="4.53736">
        <ele>473</ele>
        <time>2016-08-23T11:18:32Z</time>
      </trkpt>
      <trkpt lat="45.83609" lon="4.5374">
        <ele>474</ele>
        <time>2016-08-23T11:18:33Z</time>
      </trkpt>
      <trkpt lat="45.83614" lon="4.53744">
        <ele>474</ele>
        <time>2016-08-23T11:18:34Z</time>
      </trkpt>
      <trkpt lat="45.83619" lon="4.53749">
        <ele>475</ele>
        <time>2016-08-23T11:18:35Z</time>
      </trkpt>
      <trkpt lat="45.83624" lon="4.53754">
        <ele>468</ele>
        <time>2016-08-23T11:18:36Z</time>
      </trkpt>
      <trkpt lat="45.83629" lon="4.5376">
        <ele>468</ele>
        <time>2016-08-23T11:18:37Z</time>
      </trkpt>
      <trkpt lat="45.83634" lon="4.53767">
        <ele>468</ele>
        <time>2016-08-23T11:18:38Z</time>
      </trkpt>
      <trkpt lat="45.83639" lon="4.53774">
        <ele>468</ele>
        <time>2016-08-23T11:18:39Z</time>
      </trkpt>
      <trkpt lat="45.83645" lon="4.5378">
        <ele>467</ele>
        <time>2016-08-23T11:18:40Z</time>
      </trkpt>
      <trkpt lat="45.8365" lon="4.53788">
        <ele>467</ele>
        <time>2016-08-23T11:18:41Z</time>
      </trkpt>
      <trkpt lat="45.83656" lon="4.53796">
        <ele>466</ele>
        <time>2016-08-23T11:18:42Z</time>
      </trkpt>
      <trkpt lat="45.83661" lon="4.53803">
        <ele>465</ele>
        <time>2016-08-23T11:18:43Z</time>
      </trkpt>
      <trkpt lat="45.83667" lon="4.53812">
        <ele>471</ele>
        <time>2016-08-23T11:18:44Z</time>
      </trkpt>
      <trkpt lat="45.83673" lon="4.5382">
        <ele>469</ele>
        <time>2016-08-23T11:18:45Z</time>
      </trkpt>
      <trkpt lat="45.8368" lon="4.53828">
        <ele>469</ele>
        <time>2016-08-23T11:18:46Z</time>
      </trkpt>
      <trkpt lat="45.83686" lon="4.53836">
        <ele>461</ele>
        <time>2016-08-23T11:18:47Z</time>
      </trkpt>
      <trkpt lat="45.83693" lon="4.53844">
        <ele>461</ele>
        <time>2016-08-23T11:18:48Z</time>
      </trkpt>
      <trkpt lat="45.837" lon="4.53852">
        <ele>462</ele>
        <time>2016-08-23T11:18:49Z</time>
      </trkpt>
      <trkpt lat="45.83707" lon="4.53859">
        <ele>462</ele>
        <time>2016-08-23T11:18:50Z</time>
      </trkpt>
      <trkpt lat="45.83715" lon="4.53868">
        <ele>462</ele>
        <time>2016-08-23T11:18:51Z</time>
      </trkpt>
      <trkpt lat="45.83722" lon="4.53875">
        <ele>461</ele>
        <time>2016-08-23T11:18:52Z</time>
      </trkpt>
      <trkpt lat="45.8373" lon="4.53882">
        <ele>461</ele>
        <time>2016-08-23T11:18:53Z</time>
      </trkpt>
      <trkpt lat="45.83739" lon="4.53889">
        <ele>461</ele>
        <time>2016-08-23T11:18:54Z</time>
      </trkpt>
      <trkpt lat="45.83748" lon="4.53895">
        <ele>460</ele>
        <time>2016-08-23T11:18:55Z</time>
      </trkpt>
      <trkpt lat="45.83757" lon="4.53901">
        <ele>466</ele>
        <time>2016-08-23T11:18:56Z</time>
      </trkpt>
      <trkpt lat="45.83766" lon="4.53907">
        <ele>466</ele>
        <time>2016-08-23T11:18:57Z</time>
      </trkpt>
      <trkpt lat="45.83775" lon="4.53913">
        <ele>467</ele>
        <time>2016-08-23T11:18:58Z</time>
      </trkpt>
      <trkpt lat="45.83784" lon="4.53919">
        <ele>454</ele>
        <time>2016-08-23T11:18:59Z</time>
      </trkpt>
      <trkpt lat="45.83792" lon="4.53926">
        <ele>454</ele>
        <time>2016-08-23T11:19:00Z</time>
      </trkpt>
      <trkpt lat="45.83801" lon="4.53932">
        <ele>454</ele>
        <time>2016-08-23T11:19:01Z</time>
      </trkpt>
      <trkpt lat="45.8381" lon="4.53937">
        <ele>455</ele>
        <time>2016-08-23T11:19:02Z</time>
      </trkpt>
      <trkpt lat="45.83819" lon="4.53942">
        <ele>455</ele>
        <time>2016-08-23T11:19:03Z</time>
      </trkpt>
      <trkpt lat="45.83828" lon="4.53947">
        <ele>454</ele>
        <time>2016-08-23T11:19:04Z</time>
      </trkpt>
      <trkpt lat="45.83837" lon="4.53952">
        <ele>455</ele>
        <time>2016-08-23T11:19:05Z</time>
      </trkpt>
      <trkpt lat="45.83847" lon="4.53957">
        <ele>455</ele>
        <time>2016-08-23T11:19:06Z</time>
      </trkpt>
      <trkpt lat="45.83857" lon="4.53961">
        <ele>454</ele>
        <time>2016-08-23T11:19:07Z</time>
      </trkpt>
      <trkpt lat="45.83867" lon="4.53964">
        <ele>454</ele>
        <time>2016-08-23T11:19:08Z</time>
      </trkpt>
      <trkpt lat="45.83877" lon="4.53967">
        <ele>453</ele>
        <time>2016-08-23T11:19:09Z</time>
      </trkpt>
      <trkpt lat="45.83887" lon="4.5397">
        <ele>453</ele>
        <time>2016-08-23T11:19:10Z</time>
      </trkpt>
      <trkpt lat="45.83898" lon="4.53971">
        <ele>452</ele>
        <time>2016-08-23T11:19:11Z</time>
      </trkpt>
      <trkpt lat="45.83908" lon="4.53972">
        <ele>452</ele>
        <time>2016-08-23T11:19:12Z</time>
      </trkpt>
      <trkpt lat="45.83918" lon="4.53974">
        <ele>450</ele>
        <time>2016-08-23T11:19:13Z</time>
      </trkpt>
      <trkpt lat="45.83928" lon="4.53976">
        <ele>450</ele>
        <time>2016-08-23T11:19:14Z</time>
      </trkpt>
      <trkpt lat="45.83939" lon="4.53977">
        <ele>450</ele>
        <time>2016-08-23T11:19:15Z</time>
      </trkpt>
      <trkpt lat="45.83949" lon="4.53978">
        <ele>449</ele>
        <time>2016-08-23T11:19:16Z</time>
      </trkpt>
      <trkpt lat="45.8396" lon="4.53979">
        <ele>449</ele>
        <time>2016-08-23T11:19:17Z</time>
      </trkpt>
      <trkpt lat="45.8397" lon="4.53979">
        <ele>448</ele>
        <time>2016-08-23T11:19:18Z</time>
      </trkpt>
      <trkpt lat="45.83981" lon="4.53977">
        <ele>447</ele>
        <time>2016-08-23T11:19:19Z</time>
      </trkpt>
      <trkpt lat="45.83992" lon="4.53976">
        <ele>447</ele>
        <time>2016-08-23T11:19:20Z</time>
      </trkpt>
      <trkpt lat="45.84003" lon="4.53973">
        <ele>442</ele>
        <time>2016-08-23T11:19:21Z</time>
      </trkpt>
      <trkpt lat="45.84013" lon="4.53971">
        <ele>443</ele>
        <time>2016-08-23T11:19:22Z</time>
      </trkpt>
      <trkpt lat="45.84023" lon="4.53968">
        <ele>443</ele>
        <time>2016-08-23T11:19:23Z</time>
      </trkpt>
      <trkpt lat="45.84034" lon="4.53965">
        <ele>443</ele>
        <time>2016-08-23T11:19:24Z</time>
      </trkpt>
      <trkpt lat="45.84044" lon="4.53961">
        <ele>443</ele>
        <time>2016-08-23T11:19:25Z</time>
      </trkpt>
      <trkpt lat="45.84054" lon="4.53955">
        <ele>444</ele>
        <time>2016-08-23T11:19:26Z</time>
      </trkpt>
      <trkpt lat="45.84063" lon="4.53947">
        <ele>445</ele>
        <time>2016-08-23T11:19:27Z</time>
      </trkpt>
      <trkpt lat="45.84072" lon="4.53939">
        <ele>446</ele>
        <time>2016-08-23T11:19:28Z</time>
      </trkpt>
      <trkpt lat="45.84081" lon="4.53934">
        <ele>447</ele>
        <time>2016-08-23T11:19:29Z</time>
      </trkpt>
      <trkpt lat="45.8409" lon="4.53931">
        <ele>442</ele>
        <time>2016-08-23T11:19:30Z</time>
      </trkpt>
      <trkpt lat="45.84099" lon="4.53932">
        <ele>440</ele>
        <time>2016-08-23T11:19:31Z</time>
      </trkpt>
      <trkpt lat="45.84108" lon="4.53935">
        <ele>437</ele>
        <time>2016-08-23T11:19:32Z</time>
      </trkpt>
      <trkpt lat="45.84117" lon="4.53939">
        <ele>435</ele>
        <time>2016-08-23T11:19:33Z</time>
      </trkpt>
      <trkpt lat="45.84126" lon="4.53941">
        <ele>434</ele>
        <time>2016-08-23T11:19:34Z</time>
      </trkpt>
      <trkpt lat="45.84136" lon="4.5394">
        <ele>433</ele>
        <time>2016-08-23T11:19:35Z</time>
      </trkpt>
      <trkpt lat="45.84146" lon="4.53938">
        <ele>433</ele>
        <time>2016-08-23T11:19:36Z</time>
      </trkpt>
      <trkpt lat="45.84155" lon="4.53936">
        <ele>433</ele>
        <time>2016-08-23T11:19:37Z</time>
      </trkpt>
      <trkpt lat="45.84164" lon="4.53931">
        <ele>433</ele>
        <time>2016-08-23T11:19:38Z</time>
      </trkpt>
      <trkpt lat="45.84173" lon="4.53926">
        <ele>429</ele>
        <time>2016-08-23T11:19:39Z</time>
      </trkpt>
      <trkpt lat="45.84182" lon="4.53919">
        <ele>428</ele>
        <time>2016-08-23T11:19:40Z</time>
      </trkpt>
      <trkpt lat="45.84191" lon="4.53914">
        <ele>435</ele>
        <time>2016-08-23T11:19:41Z</time>
      </trkpt>
      <trkpt lat="45.842" lon="4.53908">
        <ele>434</ele>
        <time>2016-08-23T11:19:42Z</time>
      </trkpt>
      <trkpt lat="45.84208" lon="4.53902">
        <ele>434</ele>
        <time>2016-08-23T11:19:43Z</time>
      </trkpt>
      <trkpt lat="45.84217" lon="4.53895">
        <ele>433</ele>
        <time>2016-08-23T11:19:44Z</time>
      </trkpt>
      <trkpt lat="45.84225" lon="4.53889">
        <ele>433</ele>
        <time>2016-08-23T11:19:45Z</time>
      </trkpt>
      <trkpt lat="45.84234" lon="4.53882">
        <ele>433</ele>
        <time>2016-08-23T11:19:46Z</time>
      </trkpt>
      <trkpt lat="45.84242" lon="4.53874">
        <ele>433</ele>
        <time>2016-08-23T11:19:47Z</time>
      </trkpt>
      <trkpt lat="45.84251" lon="4.53866">
        <ele>425</ele>
        <time>2016-08-23T11:19:48Z</time>
      </trkpt>
      <trkpt lat="45.84259" lon="4.53858">
        <ele>426</ele>
        <time>2016-08-23T11:19:49Z</time>
      </trkpt>
      <trkpt lat="45.84267" lon="4.5385">
        <ele>427</ele>
        <time>2016-08-23T11:19:50Z</time>
      </trkpt>
      <trkpt lat="45.84276" lon="4.5384">
        <ele>426</ele>
        <time>2016-08-23T11:19:51Z</time>
      </trkpt>
      <trkpt lat="45.84284" lon="4.5383">
        <ele>433</ele>
        <time>2016-08-23T11:19:52Z</time>
      </trkpt>
      <trkpt lat="45.84291" lon="4.53821">
        <ele>432</ele>
        <time>2016-08-23T11:19:53Z</time>
      </trkpt>
      <trkpt lat="45.84299" lon="4.53811">
        <ele>432</ele>
        <time>2016-08-23T11:19:54Z</time>
      </trkpt>
      <trkpt lat="45.84307" lon="4.538">
        <ele>432</ele>
        <time>2016-08-23T11:19:55Z</time>
      </trkpt>
      <trkpt lat="45.84314" lon="4.5379">
        <ele>432</ele>
        <time>2016-08-23T11:19:56Z</time>
      </trkpt>
      <trkpt lat="45.84322" lon="4.5378">
        <ele>432</ele>
        <time>2016-08-23T11:19:57Z</time>
      </trkpt>
      <trkpt lat="45.84329" lon="4.5377">
        <ele>432</ele>
        <time>2016-08-23T11:19:58Z</time>
      </trkpt>
      <trkpt lat="45.84337" lon="4.5376">
        <ele>426</ele>
        <time>2016-08-23T11:19:59Z</time>
      </trkpt>
      <trkpt lat="45.84345" lon="4.53749">
        <ele>428</ele>
        <time>2016-08-23T11:20:00Z</time>
      </trkpt>
      <trkpt lat="45.84352" lon="4.5374">
        <ele>426</ele>
        <time>2016-08-23T11:20:01Z</time>
      </trkpt>
      <trkpt lat="45.84361" lon="4.53731">
        <ele>425</ele>
        <time>2016-08-23T11:20:02Z</time>
      </trkpt>
      <trkpt lat="45.8437" lon="4.53722">
        <ele>424</ele>
        <time>2016-08-23T11:20:03Z</time>
      </trkpt>
      <trkpt lat="45.84379" lon="4.53714">
        <ele>423</ele>
        <time>2016-08-23T11:20:04Z</time>
      </trkpt>
      <trkpt lat="45.84389" lon="4.53709">
        <ele>423</ele>
        <time>2016-08-23T11:20:05Z</time>
      </trkpt>
      <trkpt lat="45.844" lon="4.53705">
        <ele>422</ele>
        <time>2016-08-23T11:20:06Z</time>
      </trkpt>
      <trkpt lat="45.8441" lon="4.53702">
        <ele>421</ele>
        <time>2016-08-23T11:20:07Z</time>
      </trkpt>
      <trkpt lat="45.84421" lon="4.53702">
        <ele>414</ele>
        <time>2016-08-23T11:20:08Z</time>
      </trkpt>
      <trkpt lat="45.84432" lon="4.53704">
        <ele>414</ele>
        <time>2016-08-23T11:20:09Z</time>
      </trkpt>
      <trkpt lat="45.84443" lon="4.53705">
        <ele>413</ele>
        <time>2016-08-23T11:20:10Z</time>
      </trkpt>
      <trkpt lat="45.84453" lon="4.53706">
        <ele>413</ele>
        <time>2016-08-23T11:20:11Z</time>
      </trkpt>
      <trkpt lat="45.84463" lon="4.53703">
        <ele>412</ele>
        <time>2016-08-23T11:20:12Z</time>
      </trkpt>
      <trkpt lat="45.84472" lon="4.53698">
        <ele>412</ele>
        <time>2016-08-23T11:20:13Z</time>
      </trkpt>
      <trkpt lat="45.8448" lon="4.53691">
        <ele>412</ele>
        <time>2016-08-23T11:20:14Z</time>
      </trkpt>
      <trkpt lat="45.84488" lon="4.53682">
        <ele>412</ele>
        <time>2016-08-23T11:20:15Z</time>
      </trkpt>
      <trkpt lat="45.84495" lon="4.53673">
        <ele>411</ele>
        <time>2016-08-23T11:20:16Z</time>
      </trkpt>
      <trkpt lat="45.84501" lon="4.53662">
        <ele>410</ele>
        <time>2016-08-23T11:20:17Z</time>
      </trkpt>
      <trkpt lat="45.84507" lon="4.53651">
        <ele>408</ele>
        <time>2016-08-23T11:20:18Z</time>
      </trkpt>
      <trkpt lat="45.84512" lon="4.53638">
        <ele>407</ele>
        <time>2016-08-23T11:20:19Z</time>
      </trkpt>
      <trkpt lat="45.84516" lon="4.53625">
        <ele>406</ele>
        <time>2016-08-23T11:20:20Z</time>
      </trkpt>
      <trkpt lat="45.84519" lon="4.53611">
        <ele>406</ele>
        <time>2016-08-23T11:20:21Z</time>
      </trkpt>
      <trkpt lat="45.84521" lon="4.53597">
        <ele>406</ele>
        <time>2016-08-23T11:20:22Z</time>
      </trkpt>
      <trkpt lat="45.84521" lon="4.53583">
        <ele>406</ele>
        <time>2016-08-23T11:20:23Z</time>
      </trkpt>
      <trkpt lat="45.84522" lon="4.53569">
        <ele>405</ele>
        <time>2016-08-23T11:20:24Z</time>
      </trkpt>
      <trkpt lat="45.84522" lon="4.53554">
        <ele>404</ele>
        <time>2016-08-23T11:20:25Z</time>
      </trkpt>
      <trkpt lat="45.84521" lon="4.5354">
        <ele>404</ele>
        <time>2016-08-23T11:20:26Z</time>
      </trkpt>
      <trkpt lat="45.84521" lon="4.53525">
        <ele>404</ele>
        <time>2016-08-23T11:20:27Z</time>
      </trkpt>
      <trkpt lat="45.8452" lon="4.53511">
        <ele>404</ele>
        <time>2016-08-23T11:20:28Z</time>
      </trkpt>
      <trkpt lat="45.84519" lon="4.53496">
        <ele>403</ele>
        <time>2016-08-23T11:20:29Z</time>
      </trkpt>
      <trkpt lat="45.84518" lon="4.53482">
        <ele>403</ele>
        <time>2016-08-23T11:20:30Z</time>
      </trkpt>
      <trkpt lat="45.84517" lon="4.53468">
        <ele>402</ele>
        <time>2016-08-23T11:20:31Z</time>
      </trkpt>
      <trkpt lat="45.84515" lon="4.53454">
        <ele>402</ele>
        <time>2016-08-23T11:20:32Z</time>
      </trkpt>
      <trkpt lat="45.84512" lon="4.53441">
        <ele>402</ele>
        <time>2016-08-23T11:20:33Z</time>
      </trkpt>
      <trkpt lat="45.8451" lon="4.53428">
        <ele>402</ele>
        <time>2016-08-23T11:20:34Z</time>
      </trkpt>
      <trkpt lat="45.84508" lon="4.53415">
        <ele>403</ele>
        <time>2016-08-23T11:20:35Z</time>
      </trkpt>
      <trkpt lat="45.84507" lon="4.53403">
        <ele>402</ele>
        <time>2016-08-23T11:20:36Z</time>
      </trkpt>
      <trkpt lat="45.84506" lon="4.53391">
        <ele>401</ele>
        <time>2016-08-23T11:20:37Z</time>
      </trkpt>
      <trkpt lat="45.84506" lon="4.53378">
        <ele>401</ele>
        <time>2016-08-23T11:20:38Z</time>
      </trkpt>
      <trkpt lat="45.84505" lon="4.53365">
        <ele>401</ele>
        <time>2016-08-23T11:20:39Z</time>
      </trkpt>
      <trkpt lat="45.84506" lon="4.53352">
        <ele>402</ele>
        <time>2016-08-23T11:20:40Z</time>
      </trkpt>
      <trkpt lat="45.84506" lon="4.5334">
        <ele>403</ele>
        <time>2016-08-23T11:20:41Z</time>
      </trkpt>
      <trkpt lat="45.84507" lon="4.53329">
        <ele>403</ele>
        <time>2016-08-23T11:20:42Z</time>
      </trkpt>
      <trkpt lat="45.84508" lon="4.53317">
        <ele>403</ele>
        <time>2016-08-23T11:20:43Z</time>
      </trkpt>
      <trkpt lat="45.8451" lon="4.53307">
        <ele>402</ele>
        <time>2016-08-23T11:20:44Z</time>
      </trkpt>
      <trkpt lat="45.84511" lon="4.53295">
        <ele>402</ele>
        <time>2016-08-23T11:20:45Z</time>
      </trkpt>
      <trkpt lat="45.84512" lon="4.53285">
        <ele>403</ele>
        <time>2016-08-23T11:20:46Z</time>
      </trkpt>
      <trkpt lat="45.84513" lon="4.53276">
        <ele>403</ele>
        <time>2016-08-23T11:20:47Z</time>
      </trkpt>
      <trkpt lat="45.84514" lon="4.53267">
        <ele>403</ele>
        <time>2016-08-23T11:20:48Z</time>
      </trkpt>
      <trkpt lat="45.84515" lon="4.53258">
        <ele>403</ele>
        <time>2016-08-23T11:20:49Z</time>
      </trkpt>
      <trkpt lat="45.84516" lon="4.5325">
        <ele>405</ele>
        <time>2016-08-23T11:20:50Z</time>
      </trkpt>
      <trkpt lat="45.84518" lon="4.53242">
        <ele>405</ele>
        <time>2016-08-23T11:20:51Z</time>
      </trkpt>
      <trkpt lat="45.84519" lon="4.53236">
        <ele>405</ele>
        <time>2016-08-23T11:20:52Z</time>
      </trkpt>
      <trkpt lat="45.84521" lon="4.53229">
        <ele>405</ele>
        <time>2016-08-23T11:20:53Z</time>
      </trkpt>
      <trkpt lat="45.84523" lon="4.53222">
        <ele>405</ele>
        <time>2016-08-23T11:20:54Z</time>
      </trkpt>
      <trkpt lat="45.84525" lon="4.53216">
        <ele>406</ele>
        <time>2016-08-23T11:20:55Z</time>
      </trkpt>
      <trkpt lat="45.84527" lon="4.53209">
        <ele>406</ele>
        <time>2016-08-23T11:20:56Z</time>
      </trkpt>
      <trkpt lat="45.84529" lon="4.53203">
        <ele>406</ele>
        <time>2016-08-23T11:20:57Z</time>
      </trkpt>
      <trkpt lat="45.84532" lon="4.53198">
        <ele>406</ele>
        <time>2016-08-23T11:20:58Z</time>
      </trkpt>
      <trkpt lat="45.84535" lon="4.53193">
        <ele>406</ele>
        <time>2016-08-23T11:20:59Z</time>
      </trkpt>
      <trkpt lat="45.84538" lon="4.53187">
        <ele>406</ele>
        <time>2016-08-23T11:21:00Z</time>
      </trkpt>
      <trkpt lat="45.84541" lon="4.53182">
        <ele>406</ele>
        <time>2016-08-23T11:21:01Z</time>
      </trkpt>
      <trkpt lat="45.84548" lon="4.53174">
        <ele>406</ele>
        <time>2016-08-23T11:21:03Z</time>
      </trkpt>
      <trkpt lat="45.84551" lon="4.5317">
        <ele>406</ele>
        <time>2016-08-23T11:21:04Z</time>
      </trkpt>
      <trkpt lat="45.84558" lon="4.53163">
        <ele>409</ele>
        <time>2016-08-23T11:21:06Z</time>
      </trkpt>
      <trkpt lat="45.84562" lon="4.5316">
        <ele>409</ele>
        <time>2016-08-23T11:21:07Z</time>
      </trkpt>
      <trkpt lat="45.8457" lon="4.53154">
        <ele>409</ele>
        <time>2016-08-23T11:21:09Z</time>
      </trkpt>
      <trkpt lat="45.84574" lon="4.53151">
        <ele>409</ele>
        <time>2016-08-23T11:21:10Z</time>
      </trkpt>
      <trkpt lat="45.84582" lon="4.53147">
        <ele>409</ele>
        <time>2016-08-23T11:21:12Z</time>
      </trkpt>
      <trkpt lat="45.84586" lon="4.53145">
        <ele>409</ele>
        <time>2016-08-23T11:21:13Z</time>
      </trkpt>
      <trkpt lat="45.84594" lon="4.53141">
        <ele>410</ele>
        <time>2016-08-23T11:21:15Z</time>
      </trkpt>
      <trkpt lat="45.84597" lon="4.53139">
        <ele>410</ele>
        <time>2016-08-23T11:21:16Z</time>
      </trkpt>
      <trkpt lat="45.84605" lon="4.53135">
        <ele>410</ele>
        <time>2016-08-23T11:21:18Z</time>
      </trkpt>
      <trkpt lat="45.84609" lon="4.53133">
        <ele>410</ele>
        <time>2016-08-23T11:21:19Z</time>
      </trkpt>
      <trkpt lat="45.84616" lon="4.5313">
        <ele>410</ele>
        <time>2016-08-23T11:21:21Z</time>
      </trkpt>
      <trkpt lat="45.84619" lon="4.53128">
        <ele>410</ele>
        <time>2016-08-23T11:21:22Z</time>
      </trkpt>
      <trkpt lat="45.84625" lon="4.53123">
        <ele>410</ele>
        <time>2016-08-23T11:21:24Z</time>
      </trkpt>
      <trkpt lat="45.84628" lon="4.53121">
        <ele>410</ele>
        <time>2016-08-23T11:21:25Z</time>
      </trkpt>
      <trkpt lat="45.84635" lon="4.53115">
        <ele>411</ele>
        <time>2016-08-23T11:21:27Z</time>
      </trkpt>
      <trkpt lat="45.84639" lon="4.53113">
        <ele>411</ele>
        <time>2016-08-23T11:21:28Z</time>
      </trkpt>
      <trkpt lat="45.84646" lon="4.53109">
        <ele>411</ele>
        <time>2016-08-23T11:21:30Z</time>
      </trkpt>
      <trkpt lat="45.8465" lon="4.53107">
        <ele>411</ele>
        <time>2016-08-23T11:21:31Z</time>
      </trkpt>
      <trkpt lat="45.84658" lon="4.53102">
        <ele>411</ele>
        <time>2016-08-23T11:21:33Z</time>
      </trkpt>
      <trkpt lat="45.84662" lon="4.531">
        <ele>412</ele>
        <time>2016-08-23T11:21:34Z</time>
      </trkpt>
      <trkpt lat="45.84669" lon="4.53095">
        <ele>412</ele>
        <time>2016-08-23T11:21:36Z</time>
      </trkpt>
      <trkpt lat="45.84673" lon="4.53092">
        <ele>412</ele>
        <time>2016-08-23T11:21:37Z</time>
      </trkpt>
      <trkpt lat="45.8468" lon="4.53087">
        <ele>412</ele>
        <time>2016-08-23T11:21:39Z</time>
      </trkpt>
      <trkpt lat="45.84683" lon="4.53084">
        <ele>411</ele>
        <time>2016-08-23T11:21:40Z</time>
      </trkpt>
      <trkpt lat="45.84689" lon="4.53078">
        <ele>414</ele>
        <time>2016-08-23T11:21:42Z</time>
      </trkpt>
      <trkpt lat="45.84692" lon="4.53075">
        <ele>414</ele>
        <time>2016-08-23T11:21:43Z</time>
      </trkpt>
      <trkpt lat="45.84699" lon="4.53071">
        <ele>414</ele>
        <time>2016-08-23T11:21:45Z</time>
      </trkpt>
      <trkpt lat="45.84703" lon="4.5307">
        <ele>414</ele>
        <time>2016-08-23T11:21:46Z</time>
      </trkpt>
      <trkpt lat="45.84711" lon="4.53068">
        <ele>414</ele>
        <time>2016-08-23T11:21:48Z</time>
      </trkpt>
      <trkpt lat="45.84716" lon="4.53069">
        <ele>413</ele>
        <time>2016-08-23T11:21:49Z</time>
      </trkpt>
      <trkpt lat="45.84722" lon="4.53073">
        <ele>413</ele>
        <time>2016-08-23T11:21:51Z</time>
      </trkpt>
      <trkpt lat="45.84724" lon="4.53078">
        <ele>413</ele>
        <time>2016-08-23T11:21:52Z</time>
      </trkpt>
      <trkpt lat="45.84725" lon="4.53083">
        <ele>413</ele>
        <time>2016-08-23T11:21:53Z</time>
      </trkpt>
      <trkpt lat="45.84724" lon="4.53091">
        <ele>410</ele>
        <time>2016-08-23T11:21:54Z</time>
      </trkpt>
      <trkpt lat="45.84724" lon="4.53099">
        <ele>410</ele>
        <time>2016-08-23T11:21:55Z</time>
      </trkpt>
      <trkpt lat="45.84723" lon="4.53106">
        <ele>410</ele>
        <time>2016-08-23T11:21:56Z</time>
      </trkpt>
      <trkpt lat="45.84723" lon="4.53114">
        <ele>410</ele>
        <time>2016-08-23T11:21:57Z</time>
      </trkpt>
      <trkpt lat="45.84723" lon="4.53123">
        <ele>409</ele>
        <time>2016-08-23T11:21:58Z</time>
      </trkpt>
      <trkpt lat="45.84725" lon="4.53132">
        <ele>409</ele>
        <time>2016-08-23T11:21:59Z</time>
      </trkpt>
      <trkpt lat="45.84728" lon="4.53142">
        <ele>409</ele>
        <time>2016-08-23T11:22:00Z</time>
      </trkpt>
      <trkpt lat="45.84731" lon="4.53149">
        <ele>408</ele>
        <time>2016-08-23T11:22:01Z</time>
      </trkpt>
      <trkpt lat="45.84734" lon="4.53154">
        <ele>408</ele>
        <time>2016-08-23T11:22:02Z</time>
      </trkpt>
      <trkpt lat="45.84741" lon="4.53155">
        <ele>408</ele>
        <time>2016-08-23T11:22:03Z</time>
      </trkpt>
      <trkpt lat="45.84746" lon="4.53154">
        <ele>407</ele>
        <time>2016-08-23T11:22:04Z</time>
      </trkpt>
      <trkpt lat="45.84752" lon="4.5315">
        <ele>406</ele>
        <time>2016-08-23T11:22:06Z</time>
      </trkpt>
      <trkpt lat="45.84758" lon="4.5315">
        <ele>406</ele>
        <time>2016-08-23T11:22:07Z</time>
      </trkpt>
      <trkpt lat="45.84765" lon="4.53148">
        <ele>406</ele>
        <time>2016-08-23T11:22:08Z</time>
      </trkpt>
      <trkpt lat="45.84772" lon="4.53147">
        <ele>406</ele>
        <time>2016-08-23T11:22:09Z</time>
      </trkpt>
      <trkpt lat="45.84778" lon="4.53145">
        <ele>406</ele>
        <time>2016-08-23T11:22:10Z</time>
      </trkpt>
      <trkpt lat="45.84785" lon="4.53144">
        <ele>406</ele>
        <time>2016-08-23T11:22:11Z</time>
      </trkpt>
      <trkpt lat="45.84793" lon="4.53145">
        <ele>405</ele>
        <time>2016-08-23T11:22:12Z</time>
      </trkpt>
      <trkpt lat="45.84801" lon="4.53145">
        <ele>405</ele>
        <time>2016-08-23T11:22:13Z</time>
      </trkpt>
      <trkpt lat="45.84809" lon="4.53146">
        <ele>404</ele>
        <time>2016-08-23T11:22:14Z</time>
      </trkpt>
      <trkpt lat="45.84816" lon="4.53148">
        <ele>404</ele>
        <time>2016-08-23T11:22:15Z</time>
      </trkpt>
      <trkpt lat="45.84824" lon="4.5315">
        <ele>403</ele>
        <time>2016-08-23T11:22:16Z</time>
      </trkpt>
      <trkpt lat="45.84833" lon="4.53152">
        <ele>402</ele>
        <time>2016-08-23T11:22:17Z</time>
      </trkpt>
      <trkpt lat="45.84841" lon="4.53155">
        <ele>401</ele>
        <time>2016-08-23T11:22:18Z</time>
      </trkpt>
      <trkpt lat="45.8485" lon="4.53158">
        <ele>401</ele>
        <time>2016-08-23T11:22:19Z</time>
      </trkpt>
      <trkpt lat="45.84858" lon="4.53162">
        <ele>401</ele>
        <time>2016-08-23T11:22:20Z</time>
      </trkpt>
      <trkpt lat="45.84867" lon="4.53165">
        <ele>401</ele>
        <time>2016-08-23T11:22:21Z</time>
      </trkpt>
      <trkpt lat="45.84876" lon="4.53169">
        <ele>395</ele>
        <time>2016-08-23T11:22:22Z</time>
      </trkpt>
      <trkpt lat="45.84885" lon="4.53173">
        <ele>395</ele>
        <time>2016-08-23T11:22:23Z</time>
      </trkpt>
      <trkpt lat="45.84893" lon="4.53178">
        <ele>395</ele>
        <time>2016-08-23T11:22:24Z</time>
      </trkpt>
      <trkpt lat="45.84901" lon="4.53183">
        <ele>395</ele>
        <time>2016-08-23T11:22:25Z</time>
      </trkpt>
      <trkpt lat="45.84909" lon="4.53188">
        <ele>395</ele>
        <time>2016-08-23T11:22:26Z</time>
      </trkpt>
      <trkpt lat="45.84917" lon="4.53194">
        <ele>392</ele>
        <time>2016-08-23T11:22:27Z</time>
      </trkpt>
      <trkpt lat="45.84925" lon="4.53199">
        <ele>391</ele>
        <time>2016-08-23T11:22:28Z</time>
      </trkpt>
      <trkpt lat="45.84933" lon="4.53203">
        <ele>391</ele>
        <time>2016-08-23T11:22:29Z</time>
      </trkpt>
      <trkpt lat="45.84942" lon="4.53206">
        <ele>390</ele>
        <time>2016-08-23T11:22:30Z</time>
      </trkpt>
      <trkpt lat="45.84951" lon="4.53207">
        <ele>390</ele>
        <time>2016-08-23T11:22:31Z</time>
      </trkpt>
      <trkpt lat="45.84961" lon="4.53208">
        <ele>389</ele>
        <time>2016-08-23T11:22:32Z</time>
      </trkpt>
      <trkpt lat="45.84971" lon="4.53207">
        <ele>389</ele>
        <time>2016-08-23T11:22:33Z</time>
      </trkpt>
      <trkpt lat="45.84981" lon="4.53205">
        <ele>389</ele>
        <time>2016-08-23T11:22:34Z</time>
      </trkpt>
      <trkpt lat="45.84991" lon="4.53201">
        <ele>389</ele>
        <time>2016-08-23T11:22:35Z</time>
      </trkpt>
      <trkpt lat="45.85" lon="4.53197">
        <ele>385</ele>
        <time>2016-08-23T11:22:36Z</time>
      </trkpt>
      <trkpt lat="45.8501" lon="4.53192">
        <ele>386</ele>
        <time>2016-08-23T11:22:37Z</time>
      </trkpt>
      <trkpt lat="45.8502" lon="4.53187">
        <ele>385</ele>
        <time>2016-08-23T11:22:38Z</time>
      </trkpt>
      <trkpt lat="45.8503" lon="4.53183">
        <ele>385</ele>
        <time>2016-08-23T11:22:39Z</time>
      </trkpt>
      <trkpt lat="45.8504" lon="4.53178">
        <ele>384</ele>
        <time>2016-08-23T11:22:40Z</time>
      </trkpt>
      <trkpt lat="45.8505" lon="4.53174">
        <ele>384</ele>
        <time>2016-08-23T11:22:41Z</time>
      </trkpt>
      <trkpt lat="45.8506" lon="4.53168">
        <ele>383</ele>
        <time>2016-08-23T11:22:42Z</time>
      </trkpt>
      <trkpt lat="45.8507" lon="4.53162">
        <ele>385</ele>
        <time>2016-08-23T11:22:43Z</time>
      </trkpt>
      <trkpt lat="45.85079" lon="4.53155">
        <ele>385</ele>
        <time>2016-08-23T11:22:44Z</time>
      </trkpt>
      <trkpt lat="45.85087" lon="4.53145">
        <ele>379</ele>
        <time>2016-08-23T11:22:45Z</time>
      </trkpt>
      <trkpt lat="45.85095" lon="4.53134">
        <ele>378</ele>
        <time>2016-08-23T11:22:46Z</time>
      </trkpt>
      <trkpt lat="45.85102" lon="4.53122">
        <ele>378</ele>
        <time>2016-08-23T11:22:47Z</time>
      </trkpt>
      <trkpt lat="45.85109" lon="4.53109">
        <ele>378</ele>
        <time>2016-08-23T11:22:48Z</time>
      </trkpt>
      <trkpt lat="45.85115" lon="4.53095">
        <ele>378</ele>
        <time>2016-08-23T11:22:49Z</time>
      </trkpt>
      <trkpt lat="45.85121" lon="4.53081">
        <ele>379</ele>
        <time>2016-08-23T11:22:50Z</time>
      </trkpt>
      <trkpt lat="45.85127" lon="4.53067">
        <ele>378</ele>
        <time>2016-08-23T11:22:51Z</time>
      </trkpt>
      <trkpt lat="45.85133" lon="4.53052">
        <ele>378</ele>
        <time>2016-08-23T11:22:52Z</time>
      </trkpt>
      <trkpt lat="45.85138" lon="4.53038">
        <ele>378</ele>
        <time>2016-08-23T11:22:53Z</time>
      </trkpt>
      <trkpt lat="45.85143" lon="4.53023">
        <ele>377</ele>
        <time>2016-08-23T11:22:54Z</time>
      </trkpt>
      <trkpt lat="45.85147" lon="4.53007">
        <ele>376</ele>
        <time>2016-08-23T11:22:55Z</time>
      </trkpt>
      <trkpt lat="45.85151" lon="4.52992">
        <ele>377</ele>
        <time>2016-08-23T11:22:56Z</time>
      </trkpt>
      <trkpt lat="45.85154" lon="4.52976">
        <ele>379</ele>
        <time>2016-08-23T11:22:57Z</time>
      </trkpt>
      <trkpt lat="45.85157" lon="4.52961">
        <ele>380</ele>
        <time>2016-08-23T11:22:58Z</time>
      </trkpt>
      <trkpt lat="45.8516" lon="4.52947">
        <ele>380</ele>
        <time>2016-08-23T11:22:59Z</time>
      </trkpt>
      <trkpt lat="45.85163" lon="4.52935">
        <ele>379</ele>
        <time>2016-08-23T11:23:00Z</time>
      </trkpt>
      <trkpt lat="45.85167" lon="4.52923">
        <ele>377</ele>
        <time>2016-08-23T11:23:01Z</time>
      </trkpt>
      <trkpt lat="45.85172" lon="4.52914">
        <ele>376</ele>
        <time>2016-08-23T11:23:02Z</time>
      </trkpt>
      <trkpt lat="45.85178" lon="4.52908">
        <ele>376</ele>
        <time>2016-08-23T11:23:03Z</time>
      </trkpt>
      <trkpt lat="45.85186" lon="4.52906">
        <ele>377</ele>
        <time>2016-08-23T11:23:04Z</time>
      </trkpt>
      <trkpt lat="45.85195" lon="4.52905">
        <ele>377</ele>
        <time>2016-08-23T11:23:05Z</time>
      </trkpt>
      <trkpt lat="45.85202" lon="4.52909">
        <ele>376</ele>
        <time>2016-08-23T11:23:06Z</time>
      </trkpt>
      <trkpt lat="45.85209" lon="4.52917">
        <ele>376</ele>
        <time>2016-08-23T11:23:07Z</time>
      </trkpt>
      <trkpt lat="45.85215" lon="4.52926">
        <ele>372</ele>
        <time>2016-08-23T11:23:08Z</time>
      </trkpt>
      <trkpt lat="45.8522" lon="4.52936">
        <ele>372</ele>
        <time>2016-08-23T11:23:09Z</time>
      </trkpt>
      <trkpt lat="45.85225" lon="4.52946">
        <ele>371</ele>
        <time>2016-08-23T11:23:10Z</time>
      </trkpt>
      <trkpt lat="45.8523" lon="4.52957">
        <ele>371</ele>
        <time>2016-08-23T11:23:11Z</time>
      </trkpt>
      <trkpt lat="45.85236" lon="4.52968">
        <ele>370</ele>
        <time>2016-08-23T11:23:12Z</time>
      </trkpt>
      <trkpt lat="45.85241" lon="4.52978">
        <ele>369</ele>
        <time>2016-08-23T11:23:13Z</time>
      </trkpt>
      <trkpt lat="45.85247" lon="4.5299">
        <ele>368</ele>
        <time>2016-08-23T11:23:14Z</time>
      </trkpt>
      <trkpt lat="45.85253" lon="4.53001">
        <ele>366</ele>
        <time>2016-08-23T11:23:15Z</time>
      </trkpt>
      <trkpt lat="45.85259" lon="4.53011">
        <ele>365</ele>
        <time>2016-08-23T11:23:16Z</time>
      </trkpt>
      <trkpt lat="45.85265" lon="4.53022">
        <ele>365</ele>
        <time>2016-08-23T11:23:17Z</time>
      </trkpt>
      <trkpt lat="45.85272" lon="4.53034">
        <ele>365</ele>
        <time>2016-08-23T11:23:18Z</time>
      </trkpt>
      <trkpt lat="45.85278" lon="4.53045">
        <ele>365</ele>
        <time>2016-08-23T11:23:19Z</time>
      </trkpt>
      <trkpt lat="45.85284" lon="4.53057">
        <ele>364</ele>
        <time>2016-08-23T11:23:20Z</time>
      </trkpt>
      <trkpt lat="45.8529" lon="4.53069">
        <ele>364</ele>
        <time>2016-08-23T11:23:21Z</time>
      </trkpt>
      <trkpt lat="45.85296" lon="4.53081">
        <ele>364</ele>
        <time>2016-08-23T11:23:22Z</time>
      </trkpt>
      <trkpt lat="45.85302" lon="4.53093">
        <ele>361</ele>
        <time>2016-08-23T11:23:23Z</time>
      </trkpt>
      <trkpt lat="45.85309" lon="4.53103">
        <ele>361</ele>
        <time>2016-08-23T11:23:24Z</time>
      </trkpt>
      <trkpt lat="45.85315" lon="4.53114">
        <ele>361</ele>
        <time>2016-08-23T11:23:25Z</time>
      </trkpt>
      <trkpt lat="45.85322" lon="4.53125">
        <ele>360</ele>
        <time>2016-08-23T11:23:26Z</time>
      </trkpt>
      <trkpt lat="45.85328" lon="4.53137">
        <ele>359</ele>
        <time>2016-08-23T11:23:27Z</time>
      </trkpt>
      <trkpt lat="45.85335" lon="4.53148">
        <ele>358</ele>
        <time>2016-08-23T11:23:28Z</time>
      </trkpt>
      <trkpt lat="45.85342" lon="4.53159">
        <ele>357</ele>
        <time>2016-08-23T11:23:29Z</time>
      </trkpt>
      <trkpt lat="45.85348" lon="4.53171">
        <ele>355</ele>
        <time>2016-08-23T11:23:30Z</time>
      </trkpt>
      <trkpt lat="45.85355" lon="4.53182">
        <ele>355</ele>
        <time>2016-08-23T11:23:31Z</time>
      </trkpt>
      <trkpt lat="45.85362" lon="4.53194">
        <ele>355</ele>
        <time>2016-08-23T11:23:32Z</time>
      </trkpt>
      <trkpt lat="45.85368" lon="4.53206">
        <ele>354</ele>
        <time>2016-08-23T11:23:33Z</time>
      </trkpt>
      <trkpt lat="45.85374" lon="4.53217">
        <ele>354</ele>
        <time>2016-08-23T11:23:34Z</time>
      </trkpt>
      <trkpt lat="45.85381" lon="4.53229">
        <ele>354</ele>
        <time>2016-08-23T11:23:35Z</time>
      </trkpt>
      <trkpt lat="45.85387" lon="4.53241">
        <ele>353</ele>
        <time>2016-08-23T11:23:36Z</time>
      </trkpt>
      <trkpt lat="45.85393" lon="4.53253">
        <ele>351</ele>
        <time>2016-08-23T11:23:37Z</time>
      </trkpt>
      <trkpt lat="45.85399" lon="4.53265">
        <ele>351</ele>
        <time>2016-08-23T11:23:38Z</time>
      </trkpt>
      <trkpt lat="45.85406" lon="4.53276">
        <ele>351</ele>
        <time>2016-08-23T11:23:39Z</time>
      </trkpt>
      <trkpt lat="45.85412" lon="4.53287">
        <ele>350</ele>
        <time>2016-08-23T11:23:40Z</time>
      </trkpt>
      <trkpt lat="45.8542" lon="4.53298">
        <ele>349</ele>
        <time>2016-08-23T11:23:41Z</time>
      </trkpt>
      <trkpt lat="45.85428" lon="4.53308">
        <ele>349</ele>
        <time>2016-08-23T11:23:42Z</time>
      </trkpt>
      <trkpt lat="45.85437" lon="4.53316">
        <ele>348</ele>
        <time>2016-08-23T11:23:43Z</time>
      </trkpt>
      <trkpt lat="45.85446" lon="4.53323">
        <ele>348</ele>
        <time>2016-08-23T11:23:44Z</time>
      </trkpt>
      <trkpt lat="45.85456" lon="4.53328">
        <ele>348</ele>
        <time>2016-08-23T11:23:45Z</time>
      </trkpt>
      <trkpt lat="45.85466" lon="4.53334">
        <ele>346</ele>
        <time>2016-08-23T11:23:46Z</time>
      </trkpt>
      <trkpt lat="45.85476" lon="4.5334">
        <ele>346</ele>
        <time>2016-08-23T11:23:47Z</time>
      </trkpt>
      <trkpt lat="45.85486" lon="4.53346">
        <ele>346</ele>
        <time>2016-08-23T11:23:48Z</time>
      </trkpt>
      <trkpt lat="45.85496" lon="4.53352">
        <ele>346</ele>
        <time>2016-08-23T11:23:49Z</time>
      </trkpt>
      <trkpt lat="45.85505" lon="4.53359">
        <ele>345</ele>
        <time>2016-08-23T11:23:50Z</time>
      </trkpt>
      <trkpt lat="45.85515" lon="4.53366">
        <ele>344</ele>
        <time>2016-08-23T11:23:51Z</time>
      </trkpt>
      <trkpt lat="45.85525" lon="4.53373">
        <ele>344</ele>
        <time>2016-08-23T11:23:52Z</time>
      </trkpt>
      <trkpt lat="45.85534" lon="4.53379">
        <ele>344</ele>
        <time>2016-08-23T11:23:53Z</time>
      </trkpt>
      <trkpt lat="45.85544" lon="4.53385">
        <ele>343</ele>
        <time>2016-08-23T11:23:54Z</time>
      </trkpt>
      <trkpt lat="45.85554" lon="4.53391">
        <ele>343</ele>
        <time>2016-08-23T11:23:55Z</time>
      </trkpt>
      <trkpt lat="45.85564" lon="4.53397">
        <ele>342</ele>
        <time>2016-08-23T11:23:56Z</time>
      </trkpt>
      <trkpt lat="45.85574" lon="4.53403">
        <ele>342</ele>
        <time>2016-08-23T11:23:57Z</time>
      </trkpt>
      <trkpt lat="45.85584" lon="4.53409">
        <ele>340</ele>
        <time>2016-08-23T11:23:58Z</time>
      </trkpt>
      <trkpt lat="45.85594" lon="4.53415">
        <ele>340</ele>
        <time>2016-08-23T11:23:59Z</time>
      </trkpt>
      <trkpt lat="45.85603" lon="4.53422">
        <ele>338</ele>
        <time>2016-08-23T11:24:00Z</time>
      </trkpt>
      <trkpt lat="45.85613" lon="4.53428">
        <ele>338</ele>
        <time>2016-08-23T11:24:01Z</time>
      </trkpt>
      <trkpt lat="45.85623" lon="4.53434">
        <ele>337</ele>
        <time>2016-08-23T11:24:02Z</time>
      </trkpt>
      <trkpt lat="45.85633" lon="4.5344">
        <ele>337</ele>
        <time>2016-08-23T11:24:03Z</time>
      </trkpt>
      <trkpt lat="45.85642" lon="4.53446">
        <ele>337</ele>
        <time>2016-08-23T11:24:04Z</time>
      </trkpt>
      <trkpt lat="45.85652" lon="4.53451">
        <ele>337</ele>
        <time>2016-08-23T11:24:05Z</time>
      </trkpt>
      <trkpt lat="45.85662" lon="4.53455">
        <ele>336</ele>
        <time>2016-08-23T11:24:06Z</time>
      </trkpt>
      <trkpt lat="45.85673" lon="4.53458">
        <ele>333</ele>
        <time>2016-08-23T11:24:07Z</time>
      </trkpt>
      <trkpt lat="45.85684" lon="4.53459">
        <ele>333</ele>
        <time>2016-08-23T11:24:08Z</time>
      </trkpt>
      <trkpt lat="45.85695" lon="4.53459">
        <ele>332</ele>
        <time>2016-08-23T11:24:09Z</time>
      </trkpt>
      <trkpt lat="45.85705" lon="4.53458">
        <ele>332</ele>
        <time>2016-08-23T11:24:10Z</time>
      </trkpt>
      <trkpt lat="45.85716" lon="4.53458">
        <ele>332</ele>
        <time>2016-08-23T11:24:11Z</time>
      </trkpt>
      <trkpt lat="45.85727" lon="4.53458">
        <ele>331</ele>
        <time>2016-08-23T11:24:12Z</time>
      </trkpt>
      <trkpt lat="45.85738" lon="4.53458">
        <ele>331</ele>
        <time>2016-08-23T11:24:13Z</time>
      </trkpt>
      <trkpt lat="45.85748" lon="4.53458">
        <ele>331</ele>
        <time>2016-08-23T11:24:14Z</time>
      </trkpt>
      <trkpt lat="45.85759" lon="4.53458">
        <ele>329</ele>
        <time>2016-08-23T11:24:15Z</time>
      </trkpt>
      <trkpt lat="45.8577" lon="4.53458">
        <ele>328</ele>
        <time>2016-08-23T11:24:16Z</time>
      </trkpt>
      <trkpt lat="45.8578" lon="4.53457">
        <ele>328</ele>
        <time>2016-08-23T11:24:17Z</time>
      </trkpt>
      <trkpt lat="45.85791" lon="4.53456">
        <ele>328</ele>
        <time>2016-08-23T11:24:18Z</time>
      </trkpt>
      <trkpt lat="45.85802" lon="4.53457">
        <ele>328</ele>
        <time>2016-08-23T11:24:19Z</time>
      </trkpt>
      <trkpt lat="45.85812" lon="4.53459">
        <ele>328</ele>
        <time>2016-08-23T11:24:20Z</time>
      </trkpt>
      <trkpt lat="45.85821" lon="4.53463">
        <ele>328</ele>
        <time>2016-08-23T11:24:21Z</time>
      </trkpt>
      <trkpt lat="45.85829" lon="4.53469">
        <ele>328</ele>
        <time>2016-08-23T11:24:22Z</time>
      </trkpt>
      <trkpt lat="45.85837" lon="4.53477">
        <ele>329</ele>
        <time>2016-08-23T11:24:23Z</time>
      </trkpt>
      <trkpt lat="45.85843" lon="4.53486">
        <ele>328</ele>
        <time>2016-08-23T11:24:24Z</time>
      </trkpt>
      <trkpt lat="45.85848" lon="4.53495">
        <ele>328</ele>
        <time>2016-08-23T11:24:25Z</time>
      </trkpt>
      <trkpt lat="45.85853" lon="4.53504">
        <ele>328</ele>
        <time>2016-08-23T11:24:26Z</time>
      </trkpt>
      <trkpt lat="45.85858" lon="4.53513">
        <ele>329</ele>
        <time>2016-08-23T11:24:27Z</time>
      </trkpt>
      <trkpt lat="45.85862" lon="4.53521">
        <ele>329</ele>
        <time>2016-08-23T11:24:28Z</time>
      </trkpt>
      <trkpt lat="45.85867" lon="4.53528">
        <ele>329</ele>
        <time>2016-08-23T11:24:29Z</time>
      </trkpt>
      <trkpt lat="45.85871" lon="4.53534">
        <ele>329</ele>
        <time>2016-08-23T11:24:30Z</time>
      </trkpt>
      <trkpt lat="45.85875" lon="4.5354">
        <ele>330</ele>
        <time>2016-08-23T11:24:31Z</time>
      </trkpt>
      <trkpt lat="45.85879" lon="4.53545">
        <ele>330</ele>
        <time>2016-08-23T11:24:32Z</time>
      </trkpt>
      <trkpt lat="45.85883" lon="4.5355">
        <ele>330</ele>
        <time>2016-08-23T11:24:33Z</time>
      </trkpt>
      <trkpt lat="45.85887" lon="4.53556">
        <ele>330</ele>
        <time>2016-08-23T11:24:34Z</time>
      </trkpt>
      <trkpt lat="45.85891" lon="4.53561">
        <ele>330</ele>
        <time>2016-08-23T11:24:35Z</time>
      </trkpt>
      <trkpt lat="45.85895" lon="4.53566">
        <ele>330</ele>
        <time>2016-08-23T11:24:36Z</time>
      </trkpt>
      <trkpt lat="45.85899" lon="4.5357">
        <ele>330</ele>
        <time>2016-08-23T11:24:37Z</time>
      </trkpt>
      <trkpt lat="45.85904" lon="4.53575">
        <ele>330</ele>
        <time>2016-08-23T11:24:38Z</time>
      </trkpt>
      <trkpt lat="45.85907" lon="4.53579">
        <ele>331</ele>
        <time>2016-08-23T11:24:39Z</time>
      </trkpt>
      <trkpt lat="45.85912" lon="4.53584">
        <ele>331</ele>
        <time>2016-08-23T11:24:40Z</time>
      </trkpt>
      <trkpt lat="45.85916" lon="4.53588">
        <ele>331</ele>
        <time>2016-08-23T11:24:41Z</time>
      </trkpt>
      <trkpt lat="45.8592" lon="4.53591">
        <ele>332</ele>
        <time>2016-08-23T11:24:42Z</time>
      </trkpt>
      <trkpt lat="45.85926" lon="4.53599">
        <ele>332</ele>
        <time>2016-08-23T11:24:44Z</time>
      </trkpt>
      <trkpt lat="45.85929" lon="4.53602">
        <ele>333</ele>
        <time>2016-08-23T11:24:45Z</time>
      </trkpt>
      <trkpt lat="45.85936" lon="4.5361">
        <ele>333</ele>
        <time>2016-08-23T11:24:47Z</time>
      </trkpt>
      <trkpt lat="45.8594" lon="4.53614">
        <ele>333</ele>
        <time>2016-08-23T11:24:48Z</time>
      </trkpt>
      <trkpt lat="45.85947" lon="4.53622">
        <ele>333</ele>
        <time>2016-08-23T11:24:50Z</time>
      </trkpt>
      <trkpt lat="45.8595" lon="4.53626">
        <ele>334</ele>
        <time>2016-08-23T11:24:51Z</time>
      </trkpt>
      <trkpt lat="45.85956" lon="4.53634">
        <ele>334</ele>
        <time>2016-08-23T11:24:53Z</time>
      </trkpt>
      <trkpt lat="45.85959" lon="4.53637">
        <ele>334</ele>
        <time>2016-08-23T11:24:54Z</time>
      </trkpt>
      <trkpt lat="45.85965" lon="4.53644">
        <ele>334</ele>
        <time>2016-08-23T11:24:56Z</time>
      </trkpt>
      <trkpt lat="45.85967" lon="4.53647">
        <ele>334</ele>
        <time>2016-08-23T11:24:57Z</time>
      </trkpt>
      <trkpt lat="45.85972" lon="4.53658">
        <ele>335</ele>
        <time>2016-08-23T11:24:59Z</time>
      </trkpt>
      <trkpt lat="45.85974" lon="4.53663">
        <ele>335</ele>
        <time>2016-08-23T11:25:00Z</time>
      </trkpt>
      <trkpt lat="45.85977" lon="4.53675">
        <ele>334</ele>
        <time>2016-08-23T11:25:02Z</time>
      </trkpt>
      <trkpt lat="45.85978" lon="4.53681">
        <ele>334</ele>
        <time>2016-08-23T11:25:03Z</time>
      </trkpt>
      <trkpt lat="45.85979" lon="4.53687">
        <ele>334</ele>
        <time>2016-08-23T11:25:04Z</time>
      </trkpt>
      <trkpt lat="45.85981" lon="4.53693">
        <ele>334</ele>
        <time>2016-08-23T11:25:05Z</time>
      </trkpt>
      <trkpt lat="45.85982" lon="4.537">
        <ele>334</ele>
        <time>2016-08-23T11:25:06Z</time>
      </trkpt>
      <trkpt lat="45.85984" lon="4.53707">
        <ele>334</ele>
        <time>2016-08-23T11:25:07Z</time>
      </trkpt>
      <trkpt lat="45.85985" lon="4.53718">
        <ele>334</ele>
        <time>2016-08-23T11:25:09Z</time>
      </trkpt>
      <trkpt lat="45.85986" lon="4.53725">
        <ele>334</ele>
        <time>2016-08-23T11:25:10Z</time>
      </trkpt>
      <trkpt lat="45.85987" lon="4.53731">
        <ele>334</ele>
        <time>2016-08-23T11:25:11Z</time>
      </trkpt>
      <trkpt lat="45.85988" lon="4.53738">
        <ele>334</ele>
        <time>2016-08-23T11:25:12Z</time>
      </trkpt>
      <trkpt lat="45.85991" lon="4.5375">
        <ele>335</ele>
        <time>2016-08-23T11:25:14Z</time>
      </trkpt>
      <trkpt lat="45.85992" lon="4.53756">
        <ele>334</ele>
        <time>2016-08-23T11:25:15Z</time>
      </trkpt>
      <trkpt lat="45.85994" lon="4.53764">
        <ele>333</ele>
        <time>2016-08-23T11:25:16Z</time>
      </trkpt>
      <trkpt lat="45.85995" lon="4.5377">
        <ele>333</ele>
        <time>2016-08-23T11:25:17Z</time>
      </trkpt>
      <trkpt lat="45.85998" lon="4.53782">
        <ele>332</ele>
        <time>2016-08-23T11:25:19Z</time>
      </trkpt>
      <trkpt lat="45.85999" lon="4.53788">
        <ele>332</ele>
        <time>2016-08-23T11:25:20Z</time>
      </trkpt>
      <trkpt lat="45.86" lon="4.53799">
        <ele>337</ele>
        <time>2016-08-23T11:25:22Z</time>
      </trkpt>
      <trkpt lat="45.86001" lon="4.53804">
        <ele>336</ele>
        <time>2016-08-23T11:25:23Z</time>
      </trkpt>
      <trkpt lat="45.86003" lon="4.53816">
        <ele>336</ele>
        <time>2016-08-23T11:25:25Z</time>
      </trkpt>
      <trkpt lat="45.86004" lon="4.53822">
        <ele>335</ele>
        <time>2016-08-23T11:25:26Z</time>
      </trkpt>
      <trkpt lat="45.86007" lon="4.53834">
        <ele>335</ele>
        <time>2016-08-23T11:25:28Z</time>
      </trkpt>
      <trkpt lat="45.86007" lon="4.53841">
        <ele>335</ele>
        <time>2016-08-23T11:25:29Z</time>
      </trkpt>
      <trkpt lat="45.86009" lon="4.53848">
        <ele>336</ele>
        <time>2016-08-23T11:25:30Z</time>
      </trkpt>
      <trkpt lat="45.8601" lon="4.53855">
        <ele>336</ele>
        <time>2016-08-23T11:25:31Z</time>
      </trkpt>
      <trkpt lat="45.86011" lon="4.53862">
        <ele>336</ele>
        <time>2016-08-23T11:25:32Z</time>
      </trkpt>
      <trkpt lat="45.86013" lon="4.5387">
        <ele>336</ele>
        <time>2016-08-23T11:25:33Z</time>
      </trkpt>
      <trkpt lat="45.86015" lon="4.53877">
        <ele>336</ele>
        <time>2016-08-23T11:25:34Z</time>
      </trkpt>
      <trkpt lat="45.86017" lon="4.53884">
        <ele>336</ele>
        <time>2016-08-23T11:25:35Z</time>
      </trkpt>
      <trkpt lat="45.86019" lon="4.53892">
        <ele>336</ele>
        <time>2016-08-23T11:25:36Z</time>
      </trkpt>
      <trkpt lat="45.86021" lon="4.53898">
        <ele>336</ele>
        <time>2016-08-23T11:25:37Z</time>
      </trkpt>
      <trkpt lat="45.86024" lon="4.53905">
        <ele>336</ele>
        <time>2016-08-23T11:25:38Z</time>
      </trkpt>
      <trkpt lat="45.86026" lon="4.53911">
        <ele>336</ele>
        <time>2016-08-23T11:25:39Z</time>
      </trkpt>
      <trkpt lat="45.86028" lon="4.53917">
        <ele>335</ele>
        <time>2016-08-23T11:25:40Z</time>
      </trkpt>
      <trkpt lat="45.8603" lon="4.53923">
        <ele>335</ele>
        <time>2016-08-23T11:25:41Z</time>
      </trkpt>
      <trkpt lat="45.86032" lon="4.5393">
        <ele>335</ele>
        <time>2016-08-23T11:25:42Z</time>
      </trkpt>
      <trkpt lat="45.86035" lon="4.53936">
        <ele>335</ele>
        <time>2016-08-23T11:25:43Z</time>
      </trkpt>
      <trkpt lat="45.86037" lon="4.53943">
        <ele>335</ele>
        <time>2016-08-23T11:25:44Z</time>
      </trkpt>
      <trkpt lat="45.86041" lon="4.53951">
        <ele>335</ele>
        <time>2016-08-23T11:25:45Z</time>
      </trkpt>
      <trkpt lat="45.86044" lon="4.53959">
        <ele>335</ele>
        <time>2016-08-23T11:25:46Z</time>
      </trkpt>
      <trkpt lat="45.86047" lon="4.53968">
        <ele>335</ele>
        <time>2016-08-23T11:25:47Z</time>
      </trkpt>
      <trkpt lat="45.86049" lon="4.53976">
        <ele>335</ele>
        <time>2016-08-23T11:25:48Z</time>
      </trkpt>
      <trkpt lat="45.86051" lon="4.53985">
        <ele>335</ele>
        <time>2016-08-23T11:25:49Z</time>
      </trkpt>
      <trkpt lat="45.86052" lon="4.53994">
        <ele>335</ele>
        <time>2016-08-23T11:25:50Z</time>
      </trkpt>
      <trkpt lat="45.86054" lon="4.54004">
        <ele>333</ele>
        <time>2016-08-23T11:25:51Z</time>
      </trkpt>
      <trkpt lat="45.86056" lon="4.54014">
        <ele>333</ele>
        <time>2016-08-23T11:25:52Z</time>
      </trkpt>
      <trkpt lat="45.86058" lon="4.54024">
        <ele>333</ele>
        <time>2016-08-23T11:25:53Z</time>
      </trkpt>
      <trkpt lat="45.8606" lon="4.54036">
        <ele>333</ele>
        <time>2016-08-23T11:25:54Z</time>
      </trkpt>
      <trkpt lat="45.86063" lon="4.54046">
        <ele>332</ele>
        <time>2016-08-23T11:25:55Z</time>
      </trkpt>
      <trkpt lat="45.86067" lon="4.54057">
        <ele>332</ele>
        <time>2016-08-23T11:25:56Z</time>
      </trkpt>
      <trkpt lat="45.8607" lon="4.54068">
        <ele>332</ele>
        <time>2016-08-23T11:25:57Z</time>
      </trkpt>
      <trkpt lat="45.86073" lon="4.54079">
        <ele>331</ele>
        <time>2016-08-23T11:25:58Z</time>
      </trkpt>
      <trkpt lat="45.86076" lon="4.54092">
        <ele>330</ele>
        <time>2016-08-23T11:25:59Z</time>
      </trkpt>
      <trkpt lat="45.86079" lon="4.54104">
        <ele>329</ele>
        <time>2016-08-23T11:26:00Z</time>
      </trkpt>
      <trkpt lat="45.86082" lon="4.54116">
        <ele>329</ele>
        <time>2016-08-23T11:26:01Z</time>
      </trkpt>
      <trkpt lat="45.86084" lon="4.5413">
        <ele>327</ele>
        <time>2016-08-23T11:26:02Z</time>
      </trkpt>
      <trkpt lat="45.86087" lon="4.54143">
        <ele>327</ele>
        <time>2016-08-23T11:26:03Z</time>
      </trkpt>
      <trkpt lat="45.86089" lon="4.54156">
        <ele>327</ele>
        <time>2016-08-23T11:26:04Z</time>
      </trkpt>
      <trkpt lat="45.86093" lon="4.5417">
        <ele>326</ele>
        <time>2016-08-23T11:26:05Z</time>
      </trkpt>
      <trkpt lat="45.86096" lon="4.54183">
        <ele>324</ele>
        <time>2016-08-23T11:26:06Z</time>
      </trkpt>
      <trkpt lat="45.86098" lon="4.54196">
        <ele>323</ele>
        <time>2016-08-23T11:26:07Z</time>
      </trkpt>
      <trkpt lat="45.86099" lon="4.54209">
        <ele>323</ele>
        <time>2016-08-23T11:26:08Z</time>
      </trkpt>
      <trkpt lat="45.86099" lon="4.54223">
        <ele>322</ele>
        <time>2016-08-23T11:26:09Z</time>
      </trkpt>
      <trkpt lat="45.86098" lon="4.54236">
        <ele>322</ele>
        <time>2016-08-23T11:26:10Z</time>
      </trkpt>
      <trkpt lat="45.86097" lon="4.54249">
        <ele>322</ele>
        <time>2016-08-23T11:26:11Z</time>
      </trkpt>
      <trkpt lat="45.86098" lon="4.54263">
        <ele>320</ele>
        <time>2016-08-23T11:26:12Z</time>
      </trkpt>
      <trkpt lat="45.86101" lon="4.54275">
        <ele>319</ele>
        <time>2016-08-23T11:26:13Z</time>
      </trkpt>
      <trkpt lat="45.86106" lon="4.54286">
        <ele>318</ele>
        <time>2016-08-23T11:26:14Z</time>
      </trkpt>
      <trkpt lat="45.86113" lon="4.54295">
        <ele>318</ele>
        <time>2016-08-23T11:26:15Z</time>
      </trkpt>
      <trkpt lat="45.8612" lon="4.54304">
        <ele>317</ele>
        <time>2016-08-23T11:26:16Z</time>
      </trkpt>
      <trkpt lat="45.86127" lon="4.54311">
        <ele>317</ele>
        <time>2016-08-23T11:26:17Z</time>
      </trkpt>
      <trkpt lat="45.86134" lon="4.54319">
        <ele>317</ele>
        <time>2016-08-23T11:26:18Z</time>
      </trkpt>
      <trkpt lat="45.86141" lon="4.54326">
        <ele>316</ele>
        <time>2016-08-23T11:26:19Z</time>
      </trkpt>
      <trkpt lat="45.86148" lon="4.54334">
        <ele>314</ele>
        <time>2016-08-23T11:26:20Z</time>
      </trkpt>
      <trkpt lat="45.86155" lon="4.54343">
        <ele>314</ele>
        <time>2016-08-23T11:26:21Z</time>
      </trkpt>
      <trkpt lat="45.86162" lon="4.54349">
        <ele>314</ele>
        <time>2016-08-23T11:26:22Z</time>
      </trkpt>
      <trkpt lat="45.8617" lon="4.54355">
        <ele>313</ele>
        <time>2016-08-23T11:26:23Z</time>
      </trkpt>
      <trkpt lat="45.86179" lon="4.54363">
        <ele>312</ele>
        <time>2016-08-23T11:26:24Z</time>
      </trkpt>
      <trkpt lat="45.86188" lon="4.54371">
        <ele>311</ele>
        <time>2016-08-23T11:26:25Z</time>
      </trkpt>
      <trkpt lat="45.86198" lon="4.5438">
        <ele>311</ele>
        <time>2016-08-23T11:26:26Z</time>
      </trkpt>
      <trkpt lat="45.86209" lon="4.54388">
        <ele>310</ele>
        <time>2016-08-23T11:26:27Z</time>
      </trkpt>
      <trkpt lat="45.86219" lon="4.54396">
        <ele>310</ele>
        <time>2016-08-23T11:26:28Z</time>
      </trkpt>
      <trkpt lat="45.8623" lon="4.54405">
        <ele>309</ele>
        <time>2016-08-23T11:26:29Z</time>
      </trkpt>
      <trkpt lat="45.86241" lon="4.54413">
        <ele>307</ele>
        <time>2016-08-23T11:26:30Z</time>
      </trkpt>
      <trkpt lat="45.86252" lon="4.5442">
        <ele>305</ele>
        <time>2016-08-23T11:26:31Z</time>
      </trkpt>
      <trkpt lat="45.86264" lon="4.54425">
        <ele>304</ele>
        <time>2016-08-23T11:26:32Z</time>
      </trkpt>
      <trkpt lat="45.86276" lon="4.54431">
        <ele>303</ele>
        <time>2016-08-23T11:26:33Z</time>
      </trkpt>
      <trkpt lat="45.86287" lon="4.54437">
        <ele>302</ele>
        <time>2016-08-23T11:26:34Z</time>
      </trkpt>
      <trkpt lat="45.86299" lon="4.54442">
        <ele>301</ele>
        <time>2016-08-23T11:26:35Z</time>
      </trkpt>
      <trkpt lat="45.86311" lon="4.54446">
        <ele>301</ele>
        <time>2016-08-23T11:26:36Z</time>
      </trkpt>
      <trkpt lat="45.86324" lon="4.5445">
        <ele>300</ele>
        <time>2016-08-23T11:26:37Z</time>
      </trkpt>
      <trkpt lat="45.86337" lon="4.54454">
        <ele>295</ele>
        <time>2016-08-23T11:26:38Z</time>
      </trkpt>
      <trkpt lat="45.8635" lon="4.54457">
        <ele>295</ele>
        <time>2016-08-23T11:26:39Z</time>
      </trkpt>
      <trkpt lat="45.86364" lon="4.54461">
        <ele>295</ele>
        <time>2016-08-23T11:26:40Z</time>
      </trkpt>
      <trkpt lat="45.86377" lon="4.54463">
        <ele>294</ele>
        <time>2016-08-23T11:26:41Z</time>
      </trkpt>
      <trkpt lat="45.86391" lon="4.54465">
        <ele>294</ele>
        <time>2016-08-23T11:26:42Z</time>
      </trkpt>
      <trkpt lat="45.86404" lon="4.54467">
        <ele>293</ele>
        <time>2016-08-23T11:26:43Z</time>
      </trkpt>
      <trkpt lat="45.86416" lon="4.54469">
        <ele>293</ele>
        <time>2016-08-23T11:26:44Z</time>
      </trkpt>
      <trkpt lat="45.86427" lon="4.54472">
        <ele>294</ele>
        <time>2016-08-23T11:26:45Z</time>
      </trkpt>
      <trkpt lat="45.86438" lon="4.54474">
        <ele>294</ele>
        <time>2016-08-23T11:26:46Z</time>
      </trkpt>
      <trkpt lat="45.86448" lon="4.54476">
        <ele>295</ele>
        <time>2016-08-23T11:26:47Z</time>
      </trkpt>
      <trkpt lat="45.86457" lon="4.54477">
        <ele>295</ele>
        <time>2016-08-23T11:26:48Z</time>
      </trkpt>
      <trkpt lat="45.86465" lon="4.54479">
        <ele>296</ele>
        <time>2016-08-23T11:26:49Z</time>
      </trkpt>
      <trkpt lat="45.86473" lon="4.5448">
        <ele>296</ele>
        <time>2016-08-23T11:26:50Z</time>
      </trkpt>
      <trkpt lat="45.86479" lon="4.54482">
        <ele>297</ele>
        <time>2016-08-23T11:26:51Z</time>
      </trkpt>
      <trkpt lat="45.86484" lon="4.54483">
        <ele>297</ele>
        <time>2016-08-23T11:26:52Z</time>
      </trkpt>
      <trkpt lat="45.8649" lon="4.54484">
        <ele>297</ele>
        <time>2016-08-23T11:26:53Z</time>
      </trkpt>
      <trkpt lat="45.86494" lon="4.54485">
        <ele>298</ele>
        <time>2016-08-23T11:26:54Z</time>
      </trkpt>
      <trkpt lat="45.86502" lon="4.54487">
        <ele>301</ele>
        <time>2016-08-23T11:26:56Z</time>
      </trkpt>
      <trkpt lat="45.86505" lon="4.54489">
        <ele>301</ele>
        <time>2016-08-23T11:26:57Z</time>
      </trkpt>
      <trkpt lat="45.86512" lon="4.54491">
        <ele>301</ele>
        <time>2016-08-23T11:26:59Z</time>
      </trkpt>
      <trkpt lat="45.86515" lon="4.54493">
        <ele>301</ele>
        <time>2016-08-23T11:27:00Z</time>
      </trkpt>
      <trkpt lat="45.86524" lon="4.54495">
        <ele>302</ele>
        <time>2016-08-23T11:27:03Z</time>
      </trkpt>
      <trkpt lat="45.86527" lon="4.54497">
        <ele>302</ele>
        <time>2016-08-23T11:27:04Z</time>
      </trkpt>
      <trkpt lat="45.86533" lon="4.545">
        <ele>303</ele>
        <time>2016-08-23T11:27:06Z</time>
      </trkpt>
      <trkpt lat="45.86536" lon="4.54501">
        <ele>304</ele>
        <time>2016-08-23T11:27:07Z</time>
      </trkpt>
      <trkpt lat="45.86542" lon="4.54505">
        <ele>304</ele>
        <time>2016-08-23T11:27:09Z</time>
      </trkpt>
      <trkpt lat="45.86545" lon="4.54507">
        <ele>304</ele>
        <time>2016-08-23T11:27:10Z</time>
      </trkpt>
      <trkpt lat="45.86552" lon="4.54512">
        <ele>305</ele>
        <time>2016-08-23T11:27:13Z</time>
      </trkpt>
      <trkpt lat="45.86555" lon="4.54513">
        <ele>305</ele>
        <time>2016-08-23T11:27:14Z</time>
      </trkpt>
      <trkpt lat="45.86562" lon="4.54516">
        <ele>305</ele>
        <time>2016-08-23T11:27:17Z</time>
      </trkpt>
      <trkpt lat="45.86565" lon="4.54518">
        <ele>306</ele>
        <time>2016-08-23T11:27:18Z</time>
      </trkpt>
      <trkpt lat="45.86572" lon="4.54523">
        <ele>306</ele>
        <time>2016-08-23T11:27:21Z</time>
      </trkpt>
      <trkpt lat="45.86574" lon="4.54525">
        <ele>306</ele>
        <time>2016-08-23T11:27:22Z</time>
      </trkpt>
      <trkpt lat="45.8658" lon="4.54529">
        <ele>306</ele>
        <time>2016-08-23T11:27:25Z</time>
      </trkpt>
      <trkpt lat="45.86582" lon="4.54531">
        <ele>306</ele>
        <time>2016-08-23T11:27:26Z</time>
      </trkpt>
      <trkpt lat="45.86588" lon="4.54537">
        <ele>309</ele>
        <time>2016-08-23T11:27:29Z</time>
      </trkpt>
      <trkpt lat="45.8659" lon="4.54538">
        <ele>309</ele>
        <time>2016-08-23T11:27:30Z</time>
      </trkpt>
      <trkpt lat="45.86597" lon="4.54542">
        <ele>309</ele>
        <time>2016-08-23T11:27:33Z</time>
      </trkpt>
      <trkpt lat="45.86599" lon="4.54543">
        <ele>309</ele>
        <time>2016-08-23T11:27:34Z</time>
      </trkpt>
      <trkpt lat="45.86605" lon="4.54548">
        <ele>310</ele>
        <time>2016-08-23T11:27:37Z</time>
      </trkpt>
      <trkpt lat="45.86608" lon="4.54551">
        <ele>310</ele>
        <time>2016-08-23T11:27:38Z</time>
      </trkpt>
      <trkpt lat="45.86614" lon="4.54557">
        <ele>310</ele>
        <time>2016-08-23T11:27:41Z</time>
      </trkpt>
      <trkpt lat="45.86616" lon="4.54559">
        <ele>310</ele>
        <time>2016-08-23T11:27:42Z</time>
      </trkpt>
      <trkpt lat="45.86622" lon="4.54564">
        <ele>310</ele>
        <time>2016-08-23T11:27:45Z</time>
      </trkpt>
      <trkpt lat="45.86624" lon="4.54566">
        <ele>310</ele>
        <time>2016-08-23T11:27:46Z</time>
      </trkpt>
      <trkpt lat="45.8663" lon="4.5457">
        <ele>310</ele>
        <time>2016-08-23T11:27:49Z</time>
      </trkpt>
      <trkpt lat="45.86632" lon="4.54572">
        <ele>310</ele>
        <time>2016-08-23T11:27:50Z</time>
      </trkpt>
      <trkpt lat="45.86639" lon="4.54577">
        <ele>311</ele>
        <time>2016-08-23T11:27:53Z</time>
      </trkpt>
      <trkpt lat="45.86642" lon="4.54578">
        <ele>311</ele>
        <time>2016-08-23T11:27:54Z</time>
      </trkpt>
      <trkpt lat="45.86648" lon="4.54585">
        <ele>311</ele>
        <time>2016-08-23T11:27:57Z</time>
      </trkpt>
      <trkpt lat="45.8665" lon="4.54587">
        <ele>311</ele>
        <time>2016-08-23T11:27:58Z</time>
      </trkpt>
      <trkpt lat="45.86658" lon="4.54593">
        <ele>311</ele>
        <time>2016-08-23T11:28:01Z</time>
      </trkpt>
      <trkpt lat="45.8666" lon="4.54595">
        <ele>311</ele>
        <time>2016-08-23T11:28:02Z</time>
      </trkpt>
      <trkpt lat="45.86668" lon="4.54601">
        <ele>313</ele>
        <time>2016-08-23T11:28:05Z</time>
      </trkpt>
      <trkpt lat="45.8667" lon="4.54602">
        <ele>313</ele>
        <time>2016-08-23T11:28:06Z</time>
      </trkpt>
      <trkpt lat="45.86678" lon="4.54608">
        <ele>313</ele>
        <time>2016-08-23T11:28:09Z</time>
      </trkpt>
      <trkpt lat="45.8668" lon="4.5461">
        <ele>313</ele>
        <time>2016-08-23T11:28:10Z</time>
      </trkpt>
      <trkpt lat="45.86686" lon="4.54615">
        <ele>313</ele>
        <time>2016-08-23T11:28:13Z</time>
      </trkpt>
      <trkpt lat="45.86688" lon="4.54617">
        <ele>313</ele>
        <time>2016-08-23T11:28:14Z</time>
      </trkpt>
      <trkpt lat="45.86693" lon="4.54624">
        <ele>313</ele>
        <time>2016-08-23T11:28:17Z</time>
      </trkpt>
      <trkpt lat="45.86695" lon="4.54625">
        <ele>313</ele>
        <time>2016-08-23T11:28:18Z</time>
      </trkpt>
      <trkpt lat="45.86701" lon="4.54634">
        <ele>314</ele>
        <time>2016-08-23T11:28:22Z</time>
      </trkpt>
      <trkpt lat="45.86703" lon="4.54637">
        <ele>314</ele>
        <time>2016-08-23T11:28:23Z</time>
      </trkpt>
      <trkpt lat="45.86708" lon="4.54642">
        <ele>314</ele>
        <time>2016-08-23T11:28:25Z</time>
      </trkpt>
      <trkpt lat="45.86711" lon="4.54644">
        <ele>314</ele>
        <time>2016-08-23T11:28:26Z</time>
      </trkpt>
      <trkpt lat="45.86717" lon="4.54649">
        <ele>314</ele>
        <time>2016-08-23T11:28:28Z</time>
      </trkpt>
      <trkpt lat="45.8672" lon="4.54652">
        <ele>314</ele>
        <time>2016-08-23T11:28:29Z</time>
      </trkpt>
      <trkpt lat="45.86725" lon="4.54658">
        <ele>314</ele>
        <time>2016-08-23T11:28:31Z</time>
      </trkpt>
      <trkpt lat="45.86728" lon="4.54661">
        <ele>314</ele>
        <time>2016-08-23T11:28:32Z</time>
      </trkpt>
      <trkpt lat="45.86733" lon="4.54667">
        <ele>314</ele>
        <time>2016-08-23T11:28:34Z</time>
      </trkpt>
      <trkpt lat="45.86735" lon="4.5467">
        <ele>314</ele>
        <time>2016-08-23T11:28:35Z</time>
      </trkpt>
      <trkpt lat="45.8674" lon="4.54678">
        <ele>314</ele>
        <time>2016-08-23T11:28:37Z</time>
      </trkpt>
      <trkpt lat="45.86743" lon="4.54681">
        <ele>314</ele>
        <time>2016-08-23T11:28:38Z</time>
      </trkpt>
      <trkpt lat="45.86748" lon="4.54687">
        <ele>314</ele>
        <time>2016-08-23T11:28:40Z</time>
      </trkpt>
      <trkpt lat="45.86751" lon="4.5469">
        <ele>315</ele>
        <time>2016-08-23T11:28:41Z</time>
      </trkpt>
      <trkpt lat="45.86757" lon="4.54698">
        <ele>315</ele>
        <time>2016-08-23T11:28:44Z</time>
      </trkpt>
      <trkpt lat="45.8676" lon="4.54701">
        <ele>316</ele>
        <time>2016-08-23T11:28:45Z</time>
      </trkpt>
      <trkpt lat="45.86765" lon="4.54708">
        <ele>316</ele>
        <time>2016-08-23T11:28:47Z</time>
      </trkpt>
      <trkpt lat="45.86768" lon="4.54712">
        <ele>316</ele>
        <time>2016-08-23T11:28:48Z</time>
      </trkpt>
      <trkpt lat="45.86773" lon="4.54719">
        <ele>316</ele>
        <time>2016-08-23T11:28:50Z</time>
      </trkpt>
      <trkpt lat="45.86777" lon="4.54722">
        <ele>316</ele>
        <time>2016-08-23T11:28:51Z</time>
      </trkpt>
      <trkpt lat="45.86784" lon="4.54729">
        <ele>316</ele>
        <time>2016-08-23T11:28:53Z</time>
      </trkpt>
      <trkpt lat="45.86787" lon="4.54733">
        <ele>316</ele>
        <time>2016-08-23T11:28:54Z</time>
      </trkpt>
      <trkpt lat="45.86793" lon="4.54742">
        <ele>316</ele>
        <time>2016-08-23T11:28:56Z</time>
      </trkpt>
      <trkpt lat="45.86795" lon="4.54746">
        <ele>316</ele>
        <time>2016-08-23T11:28:57Z</time>
      </trkpt>
      <trkpt lat="45.86801" lon="4.54754">
        <ele>316</ele>
        <time>2016-08-23T11:28:59Z</time>
      </trkpt>
      <trkpt lat="45.86804" lon="4.54757">
        <ele>316</ele>
        <time>2016-08-23T11:29:00Z</time>
      </trkpt>
      <trkpt lat="45.86809" lon="4.54763">
        <ele>316</ele>
        <time>2016-08-23T11:29:02Z</time>
      </trkpt>
      <trkpt lat="45.86812" lon="4.54767">
        <ele>316</ele>
        <time>2016-08-23T11:29:03Z</time>
      </trkpt>
      <trkpt lat="45.86819" lon="4.54774">
        <ele>316</ele>
        <time>2016-08-23T11:29:05Z</time>
      </trkpt>
      <trkpt lat="45.86822" lon="4.54777">
        <ele>316</ele>
        <time>2016-08-23T11:29:06Z</time>
      </trkpt>
      <trkpt lat="45.86827" lon="4.54784">
        <ele>316</ele>
        <time>2016-08-23T11:29:08Z</time>
      </trkpt>
      <trkpt lat="45.8683" lon="4.54788">
        <ele>316</ele>
        <time>2016-08-23T11:29:09Z</time>
      </trkpt>
      <trkpt lat="45.86836" lon="4.54795">
        <ele>317</ele>
        <time>2016-08-23T11:29:11Z</time>
      </trkpt>
      <trkpt lat="45.86839" lon="4.54799">
        <ele>317</ele>
        <time>2016-08-23T11:29:12Z</time>
      </trkpt>
      <trkpt lat="45.86845" lon="4.54805">
        <ele>317</ele>
        <time>2016-08-23T11:29:14Z</time>
      </trkpt>
      <trkpt lat="45.86847" lon="4.54808">
        <ele>317</ele>
        <time>2016-08-23T11:29:15Z</time>
      </trkpt>
      <trkpt lat="45.86853" lon="4.54815">
        <ele>317</ele>
        <time>2016-08-23T11:29:17Z</time>
      </trkpt>
      <trkpt lat="45.86855" lon="4.54817">
        <ele>317</ele>
        <time>2016-08-23T11:29:18Z</time>
      </trkpt>
      <trkpt lat="45.8686" lon="4.54823">
        <ele>317</ele>
        <time>2016-08-23T11:29:20Z</time>
      </trkpt>
      <trkpt lat="45.86863" lon="4.54827">
        <ele>317</ele>
        <time>2016-08-23T11:29:21Z</time>
      </trkpt>
      <trkpt lat="45.86868" lon="4.54833">
        <ele>317</ele>
        <time>2016-08-23T11:29:23Z</time>
      </trkpt>
      <trkpt lat="45.86871" lon="4.54836">
        <ele>318</ele>
        <time>2016-08-23T11:29:24Z</time>
      </trkpt>
      <trkpt lat="45.86876" lon="4.54843">
        <ele>318</ele>
        <time>2016-08-23T11:29:26Z</time>
      </trkpt>
      <trkpt lat="45.86879" lon="4.54846">
        <ele>318</ele>
        <time>2016-08-23T11:29:27Z</time>
      </trkpt>
      <trkpt lat="45.86883" lon="4.54852">
        <ele>318</ele>
        <time>2016-08-23T11:29:29Z</time>
      </trkpt>
      <trkpt lat="45.86886" lon="4.54855">
        <ele>318</ele>
        <time>2016-08-23T11:29:30Z</time>
      </trkpt>
      <trkpt lat="45.86893" lon="4.54863">
        <ele>318</ele>
        <time>2016-08-23T11:29:32Z</time>
      </trkpt>
      <trkpt lat="45.86896" lon="4.54867">
        <ele>318</ele>
        <time>2016-08-23T11:29:33Z</time>
      </trkpt>
      <trkpt lat="45.86901" lon="4.54873">
        <ele>319</ele>
        <time>2016-08-23T11:29:35Z</time>
      </trkpt>
      <trkpt lat="45.86903" lon="4.54876">
        <ele>319</ele>
        <time>2016-08-23T11:29:36Z</time>
      </trkpt>
      <trkpt lat="45.86909" lon="4.54881">
        <ele>319</ele>
        <time>2016-08-23T11:29:38Z</time>
      </trkpt>
      <trkpt lat="45.86911" lon="4.54884">
        <ele>319</ele>
        <time>2016-08-23T11:29:39Z</time>
      </trkpt>
      <trkpt lat="45.86917" lon="4.5489">
        <ele>319</ele>
        <time>2016-08-23T11:29:41Z</time>
      </trkpt>
      <trkpt lat="45.86919" lon="4.54893">
        <ele>321</ele>
        <time>2016-08-23T11:29:42Z</time>
      </trkpt>
      <trkpt lat="45.86924" lon="4.54899">
        <ele>321</ele>
        <time>2016-08-23T11:29:44Z</time>
      </trkpt>
      <trkpt lat="45.86927" lon="4.54902">
        <ele>321</ele>
        <time>2016-08-23T11:29:45Z</time>
      </trkpt>
      <trkpt lat="45.86931" lon="4.54908">
        <ele>321</ele>
        <time>2016-08-23T11:29:47Z</time>
      </trkpt>
      <trkpt lat="45.86934" lon="4.54911">
        <ele>321</ele>
        <time>2016-08-23T11:29:48Z</time>
      </trkpt>
      <trkpt lat="45.86939" lon="4.54917">
        <ele>321</ele>
        <time>2016-08-23T11:29:50Z</time>
      </trkpt>
      <trkpt lat="45.86942" lon="4.5492">
        <ele>321</ele>
        <time>2016-08-23T11:29:51Z</time>
      </trkpt>
      <trkpt lat="45.86946" lon="4.54927">
        <ele>322</ele>
        <time>2016-08-23T11:29:53Z</time>
      </trkpt>
      <trkpt lat="45.86948" lon="4.5493">
        <ele>322</ele>
        <time>2016-08-23T11:29:54Z</time>
      </trkpt>
      <trkpt lat="45.86953" lon="4.54936">
        <ele>322</ele>
        <time>2016-08-23T11:29:56Z</time>
      </trkpt>
      <trkpt lat="45.86956" lon="4.54939">
        <ele>322</ele>
        <time>2016-08-23T11:29:57Z</time>
      </trkpt>
      <trkpt lat="45.86961" lon="4.54945">
        <ele>322</ele>
        <time>2016-08-23T11:29:59Z</time>
      </trkpt>
      <trkpt lat="45.86963" lon="4.54948">
        <ele>322</ele>
        <time>2016-08-23T11:30:00Z</time>
      </trkpt>
      <trkpt lat="45.86967" lon="4.54956">
        <ele>322</ele>
        <time>2016-08-23T11:30:02Z</time>
      </trkpt>
      <trkpt lat="45.8697" lon="4.54959">
        <ele>322</ele>
        <time>2016-08-23T11:30:03Z</time>
      </trkpt>
      <trkpt lat="45.86976" lon="4.54966">
        <ele>322</ele>
        <time>2016-08-23T11:30:05Z</time>
      </trkpt>
      <trkpt lat="45.86978" lon="4.54969">
        <ele>322</ele>
        <time>2016-08-23T11:30:06Z</time>
      </trkpt>
      <trkpt lat="45.86984" lon="4.54974">
        <ele>322</ele>
        <time>2016-08-23T11:30:08Z</time>
      </trkpt>
      <trkpt lat="45.86987" lon="4.54977">
        <ele>322</ele>
        <time>2016-08-23T11:30:09Z</time>
      </trkpt>
      <trkpt lat="45.86992" lon="4.54983">
        <ele>323</ele>
        <time>2016-08-23T11:30:11Z</time>
      </trkpt>
      <trkpt lat="45.86995" lon="4.54987">
        <ele>323</ele>
        <time>2016-08-23T11:30:12Z</time>
      </trkpt>
      <trkpt lat="45.87" lon="4.54993">
        <ele>323</ele>
        <time>2016-08-23T11:30:14Z</time>
      </trkpt>
      <trkpt lat="45.87003" lon="4.54996">
        <ele>323</ele>
        <time>2016-08-23T11:30:15Z</time>
      </trkpt>
      <trkpt lat="45.87008" lon="4.55003">
        <ele>324</ele>
        <time>2016-08-23T11:30:17Z</time>
      </trkpt>
      <trkpt lat="45.87011" lon="4.55006">
        <ele>324</ele>
        <time>2016-08-23T11:30:18Z</time>
      </trkpt>
      <trkpt lat="45.87017" lon="4.55012">
        <ele>324</ele>
        <time>2016-08-23T11:30:20Z</time>
      </trkpt>
      <trkpt lat="45.8702" lon="4.55015">
        <ele>324</ele>
        <time>2016-08-23T11:30:21Z</time>
      </trkpt>
      <trkpt lat="45.87026" lon="4.55021">
        <ele>325</ele>
        <time>2016-08-23T11:30:23Z</time>
      </trkpt>
      <trkpt lat="45.87028" lon="4.55025">
        <ele>325</ele>
        <time>2016-08-23T11:30:24Z</time>
      </trkpt>
      <trkpt lat="45.87033" lon="4.55031">
        <ele>325</ele>
        <time>2016-08-23T11:30:26Z</time>
      </trkpt>
      <trkpt lat="45.87036" lon="4.55035">
        <ele>325</ele>
        <time>2016-08-23T11:30:27Z</time>
      </trkpt>
      <trkpt lat="45.87041" lon="4.55041">
        <ele>325</ele>
        <time>2016-08-23T11:30:29Z</time>
      </trkpt>
      <trkpt lat="45.87044" lon="4.55044">
        <ele>325</ele>
        <time>2016-08-23T11:30:30Z</time>
      </trkpt>
      <trkpt lat="45.87049" lon="4.55051">
        <ele>325</ele>
        <time>2016-08-23T11:30:32Z</time>
      </trkpt>
      <trkpt lat="45.87052" lon="4.55054">
        <ele>326</ele>
        <time>2016-08-23T11:30:33Z</time>
      </trkpt>
      <trkpt lat="45.87057" lon="4.5506">
        <ele>326</ele>
        <time>2016-08-23T11:30:35Z</time>
      </trkpt>
      <trkpt lat="45.8706" lon="4.55063">
        <ele>326</ele>
        <time>2016-08-23T11:30:36Z</time>
      </trkpt>
      <trkpt lat="45.87066" lon="4.55069">
        <ele>326</ele>
        <time>2016-08-23T11:30:38Z</time>
      </trkpt>
      <trkpt lat="45.87069" lon="4.55072">
        <ele>326</ele>
        <time>2016-08-23T11:30:39Z</time>
      </trkpt>
      <trkpt lat="45.87074" lon="4.55078">
        <ele>326</ele>
        <time>2016-08-23T11:30:41Z</time>
      </trkpt>
      <trkpt lat="45.87077" lon="4.55082">
        <ele>327</ele>
        <time>2016-08-23T11:30:42Z</time>
      </trkpt>
      <trkpt lat="45.87083" lon="4.55088">
        <ele>327</ele>
        <time>2016-08-23T11:30:44Z</time>
      </trkpt>
      <trkpt lat="45.87086" lon="4.55092">
        <ele>328</ele>
        <time>2016-08-23T11:30:45Z</time>
      </trkpt>
      <trkpt lat="45.87091" lon="4.55098">
        <ele>329</ele>
        <time>2016-08-23T11:30:47Z</time>
      </trkpt>
      <trkpt lat="45.87094" lon="4.55101">
        <ele>329</ele>
        <time>2016-08-23T11:30:48Z</time>
      </trkpt>
      <trkpt lat="45.87099" lon="4.55108">
        <ele>330</ele>
        <time>2016-08-23T11:30:50Z</time>
      </trkpt>
      <trkpt lat="45.87101" lon="4.55111">
        <ele>330</ele>
        <time>2016-08-23T11:30:51Z</time>
      </trkpt>
      <trkpt lat="45.87106" lon="4.55118">
        <ele>330</ele>
        <time>2016-08-23T11:30:53Z</time>
      </trkpt>
      <trkpt lat="45.87109" lon="4.55121">
        <ele>331</ele>
        <time>2016-08-23T11:30:54Z</time>
      </trkpt>
      <trkpt lat="45.87115" lon="4.55127">
        <ele>331</ele>
        <time>2016-08-23T11:30:56Z</time>
      </trkpt>
      <trkpt lat="45.87117" lon="4.5513">
        <ele>331</ele>
        <time>2016-08-23T11:30:57Z</time>
      </trkpt>
      <trkpt lat="45.87124" lon="4.55137">
        <ele>331</ele>
        <time>2016-08-23T11:30:59Z</time>
      </trkpt>
      <trkpt lat="45.87126" lon="4.55141">
        <ele>331</ele>
        <time>2016-08-23T11:31:00Z</time>
      </trkpt>
      <trkpt lat="45.87132" lon="4.55149">
        <ele>331</ele>
        <time>2016-08-23T11:31:02Z</time>
      </trkpt>
      <trkpt lat="45.87135" lon="4.55152">
        <ele>332</ele>
        <time>2016-08-23T11:31:03Z</time>
      </trkpt>
      <trkpt lat="45.87141" lon="4.5516">
        <ele>332</ele>
        <time>2016-08-23T11:31:05Z</time>
      </trkpt>
      <trkpt lat="45.87143" lon="4.55163">
        <ele>332</ele>
        <time>2016-08-23T11:31:06Z</time>
      </trkpt>
      <trkpt lat="45.8715" lon="4.55167">
        <ele>334</ele>
        <time>2016-08-23T11:31:08Z</time>
      </trkpt>
      <trkpt lat="45.87153" lon="4.55169">
        <ele>334</ele>
        <time>2016-08-23T11:31:09Z</time>
      </trkpt>
      <trkpt lat="45.87158" lon="4.55173">
        <ele>334</ele>
        <time>2016-08-23T11:31:11Z</time>
      </trkpt>
      <trkpt lat="45.87161" lon="4.55174">
        <ele>333</ele>
        <time>2016-08-23T11:31:12Z</time>
      </trkpt>
      <trkpt lat="45.87169" lon="4.55179">
        <ele>333</ele>
        <time>2016-08-23T11:31:14Z</time>
      </trkpt>
      <trkpt lat="45.87173" lon="4.55182">
        <ele>333</ele>
        <time>2016-08-23T11:31:15Z</time>
      </trkpt>
      <trkpt lat="45.87177" lon="4.55192">
        <ele>333</ele>
        <time>2016-08-23T11:31:17Z</time>
      </trkpt>
      <trkpt lat="45.8718" lon="4.55197">
        <ele>333</ele>
        <time>2016-08-23T11:31:18Z</time>
      </trkpt>
      <trkpt lat="45.87185" lon="4.55205">
        <ele>333</ele>
        <time>2016-08-23T11:31:20Z</time>
      </trkpt>
      <trkpt lat="45.87188" lon="4.55208">
        <ele>333</ele>
        <time>2016-08-23T11:31:21Z</time>
      </trkpt>
      <trkpt lat="45.87194" lon="4.55215">
        <ele>333</ele>
        <time>2016-08-23T11:31:23Z</time>
      </trkpt>
      <trkpt lat="45.87197" lon="4.55218">
        <ele>334</ele>
        <time>2016-08-23T11:31:24Z</time>
      </trkpt>
      <trkpt lat="45.87202" lon="4.55225">
        <ele>334</ele>
        <time>2016-08-23T11:31:26Z</time>
      </trkpt>
      <trkpt lat="45.87205" lon="4.55228">
        <ele>334</ele>
        <time>2016-08-23T11:31:27Z</time>
      </trkpt>
      <trkpt lat="45.8721" lon="4.55234">
        <ele>334</ele>
        <time>2016-08-23T11:31:29Z</time>
      </trkpt>
      <trkpt lat="45.87213" lon="4.55237">
        <ele>334</ele>
        <time>2016-08-23T11:31:30Z</time>
      </trkpt>
      <trkpt lat="45.8722" lon="4.55244">
        <ele>334</ele>
        <time>2016-08-23T11:31:33Z</time>
      </trkpt>
      <trkpt lat="45.87223" lon="4.55246">
        <ele>334</ele>
        <time>2016-08-23T11:31:34Z</time>
      </trkpt>
      <trkpt lat="45.8723" lon="4.55251">
        <ele>335</ele>
        <time>2016-08-23T11:31:36Z</time>
      </trkpt>
      <trkpt lat="45.87233" lon="4.55254">
        <ele>335</ele>
        <time>2016-08-23T11:31:37Z</time>
      </trkpt>
      <trkpt lat="45.87239" lon="4.55258">
        <ele>334</ele>
        <time>2016-08-23T11:31:39Z</time>
      </trkpt>
      <trkpt lat="45.87242" lon="4.55261">
        <ele>334</ele>
        <time>2016-08-23T11:31:40Z</time>
      </trkpt>
      <trkpt lat="45.87248" lon="4.55265">
        <ele>335</ele>
        <time>2016-08-23T11:31:42Z</time>
      </trkpt>
      <trkpt lat="45.87251" lon="4.55268">
        <ele>335</ele>
        <time>2016-08-23T11:31:43Z</time>
      </trkpt>
      <trkpt lat="45.87257" lon="4.55273">
        <ele>336</ele>
        <time>2016-08-23T11:31:45Z</time>
      </trkpt>
      <trkpt lat="45.8726" lon="4.55275">
        <ele>336</ele>
        <time>2016-08-23T11:31:46Z</time>
      </trkpt>
      <trkpt lat="45.87267" lon="4.55279">
        <ele>336</ele>
        <time>2016-08-23T11:31:48Z</time>
      </trkpt>
      <trkpt lat="45.8727" lon="4.55282">
        <ele>336</ele>
        <time>2016-08-23T11:31:49Z</time>
      </trkpt>
      <trkpt lat="45.87277" lon="4.55288">
        <ele>336</ele>
        <time>2016-08-23T11:31:51Z</time>
      </trkpt>
      <trkpt lat="45.8728" lon="4.5529">
        <ele>336</ele>
        <time>2016-08-23T11:31:52Z</time>
      </trkpt>
      <trkpt lat="45.87286" lon="4.55294">
        <ele>336</ele>
        <time>2016-08-23T11:31:54Z</time>
      </trkpt>
      <trkpt lat="45.8729" lon="4.55296">
        <ele>336</ele>
        <time>2016-08-23T11:31:55Z</time>
      </trkpt>
      <trkpt lat="45.87295" lon="4.55301">
        <ele>337</ele>
        <time>2016-08-23T11:31:57Z</time>
      </trkpt>
      <trkpt lat="45.87297" lon="4.55303">
        <ele>337</ele>
        <time>2016-08-23T11:31:58Z</time>
      </trkpt>
      <trkpt lat="45.87303" lon="4.55307">
        <ele>337</ele>
        <time>2016-08-23T11:32:00Z</time>
      </trkpt>
      <trkpt lat="45.87306" lon="4.55309">
        <ele>337</ele>
        <time>2016-08-23T11:32:01Z</time>
      </trkpt>
      <trkpt lat="45.87312" lon="4.55315">
        <ele>337</ele>
        <time>2016-08-23T11:32:03Z</time>
      </trkpt>
      <trkpt lat="45.87314" lon="4.55318">
        <ele>337</ele>
        <time>2016-08-23T11:32:04Z</time>
      </trkpt>
      <trkpt lat="45.8732" lon="4.55323">
        <ele>337</ele>
        <time>2016-08-23T11:32:06Z</time>
      </trkpt>
      <trkpt lat="45.87323" lon="4.55325">
        <ele>337</ele>
        <time>2016-08-23T11:32:07Z</time>
      </trkpt>
      <trkpt lat="45.87329" lon="4.5533">
        <ele>338</ele>
        <time>2016-08-23T11:32:09Z</time>
      </trkpt>
      <trkpt lat="45.87332" lon="4.55332">
        <ele>338</ele>
        <time>2016-08-23T11:32:10Z</time>
      </trkpt>
      <trkpt lat="45.87337" lon="4.55336">
        <ele>338</ele>
        <time>2016-08-23T11:32:12Z</time>
      </trkpt>
      <trkpt lat="45.8734" lon="4.55337">
        <ele>338</ele>
        <time>2016-08-23T11:32:13Z</time>
      </trkpt>
      <trkpt lat="45.87346" lon="4.55341">
        <ele>339</ele>
        <time>2016-08-23T11:32:15Z</time>
      </trkpt>
      <trkpt lat="45.87349" lon="4.55343">
        <ele>339</ele>
        <time>2016-08-23T11:32:16Z</time>
      </trkpt>
      <trkpt lat="45.87355" lon="4.55346">
        <ele>339</ele>
        <time>2016-08-23T11:32:18Z</time>
      </trkpt>
      <trkpt lat="45.87358" lon="4.55348">
        <ele>339</ele>
        <time>2016-08-23T11:32:19Z</time>
      </trkpt>
      <trkpt lat="45.87364" lon="4.55353">
        <ele>339</ele>
        <time>2016-08-23T11:32:21Z</time>
      </trkpt>
      <trkpt lat="45.87367" lon="4.55355">
        <ele>339</ele>
        <time>2016-08-23T11:32:22Z</time>
      </trkpt>
      <trkpt lat="45.87373" lon="4.55359">
        <ele>339</ele>
        <time>2016-08-23T11:32:24Z</time>
      </trkpt>
      <trkpt lat="45.87377" lon="4.5536">
        <ele>339</ele>
        <time>2016-08-23T11:32:25Z</time>
      </trkpt>
      <trkpt lat="45.87383" lon="4.55365">
        <ele>339</ele>
        <time>2016-08-23T11:32:27Z</time>
      </trkpt>
      <trkpt lat="45.87385" lon="4.55367">
        <ele>339</ele>
        <time>2016-08-23T11:32:28Z</time>
      </trkpt>
      <trkpt lat="45.87391" lon="4.55372">
        <ele>339</ele>
        <time>2016-08-23T11:32:30Z</time>
      </trkpt>
      <trkpt lat="45.87394" lon="4.55374">
        <ele>339</ele>
        <time>2016-08-23T11:32:31Z</time>
      </trkpt>
      <trkpt lat="45.874" lon="4.55379">
        <ele>339</ele>
        <time>2016-08-23T11:32:33Z</time>
      </trkpt>
      <trkpt lat="45.87403" lon="4.5538">
        <ele>339</ele>
        <time>2016-08-23T11:32:34Z</time>
      </trkpt>
      <trkpt lat="45.87408" lon="4.55384">
        <ele>339</ele>
        <time>2016-08-23T11:32:36Z</time>
      </trkpt>
      <trkpt lat="45.87411" lon="4.55386">
        <ele>339</ele>
        <time>2016-08-23T11:32:37Z</time>
      </trkpt>
      <trkpt lat="45.87417" lon="4.5539">
        <ele>341</ele>
        <time>2016-08-23T11:32:39Z</time>
      </trkpt>
      <trkpt lat="45.8742" lon="4.55392">
        <ele>341</ele>
        <time>2016-08-23T11:32:40Z</time>
      </trkpt>
      <trkpt lat="45.87426" lon="4.55395">
        <ele>341</ele>
        <time>2016-08-23T11:32:42Z</time>
      </trkpt>
      <trkpt lat="45.87429" lon="4.55397">
        <ele>341</ele>
        <time>2016-08-23T11:32:43Z</time>
      </trkpt>
      <trkpt lat="45.87434" lon="4.55401">
        <ele>341</ele>
        <time>2016-08-23T11:32:45Z</time>
      </trkpt>
      <trkpt lat="45.87437" lon="4.55403">
        <ele>341</ele>
        <time>2016-08-23T11:32:46Z</time>
      </trkpt>
      <trkpt lat="45.87444" lon="4.55407">
        <ele>341</ele>
        <time>2016-08-23T11:32:48Z</time>
      </trkpt>
      <trkpt lat="45.87446" lon="4.55409">
        <ele>341</ele>
        <time>2016-08-23T11:32:49Z</time>
      </trkpt>
      <trkpt lat="45.87452" lon="4.55413">
        <ele>341</ele>
        <time>2016-08-23T11:32:51Z</time>
      </trkpt>
      <trkpt lat="45.87455" lon="4.55415">
        <ele>341</ele>
        <time>2016-08-23T11:32:52Z</time>
      </trkpt>
      <trkpt lat="45.87461" lon="4.5542">
        <ele>342</ele>
        <time>2016-08-23T11:32:54Z</time>
      </trkpt>
      <trkpt lat="45.87464" lon="4.55422">
        <ele>342</ele>
        <time>2016-08-23T11:32:55Z</time>
      </trkpt>
      <trkpt lat="45.8747" lon="4.55424">
        <ele>342</ele>
        <time>2016-08-23T11:32:57Z</time>
      </trkpt>
      <trkpt lat="45.87473" lon="4.55426">
        <ele>342</ele>
        <time>2016-08-23T11:32:58Z</time>
      </trkpt>
      <trkpt lat="45.87479" lon="4.5543">
        <ele>342</ele>
        <time>2016-08-23T11:33:00Z</time>
      </trkpt>
      <trkpt lat="45.87482" lon="4.55432">
        <ele>342</ele>
        <time>2016-08-23T11:33:01Z</time>
      </trkpt>
      <trkpt lat="45.87488" lon="4.55437">
        <ele>342</ele>
        <time>2016-08-23T11:33:03Z</time>
      </trkpt>
      <trkpt lat="45.8749" lon="4.55439">
        <ele>342</ele>
        <time>2016-08-23T11:33:04Z</time>
      </trkpt>
      <trkpt lat="45.87496" lon="4.55444">
        <ele>342</ele>
        <time>2016-08-23T11:33:06Z</time>
      </trkpt>
      <trkpt lat="45.87499" lon="4.55446">
        <ele>342</ele>
        <time>2016-08-23T11:33:07Z</time>
      </trkpt>
      <trkpt lat="45.87504" lon="4.55451">
        <ele>345</ele>
        <time>2016-08-23T11:33:09Z</time>
      </trkpt>
      <trkpt lat="45.87507" lon="4.55453">
        <ele>345</ele>
        <time>2016-08-23T11:33:10Z</time>
      </trkpt>
      <trkpt lat="45.87514" lon="4.55457">
        <ele>345</ele>
        <time>2016-08-23T11:33:12Z</time>
      </trkpt>
      <trkpt lat="45.87517" lon="4.55459">
        <ele>345</ele>
        <time>2016-08-23T11:33:13Z</time>
      </trkpt>
      <trkpt lat="45.87522" lon="4.55464">
        <ele>345</ele>
        <time>2016-08-23T11:33:15Z</time>
      </trkpt>
      <trkpt lat="45.87525" lon="4.55465">
        <ele>345</ele>
        <time>2016-08-23T11:33:16Z</time>
      </trkpt>
      <trkpt lat="45.87531" lon="4.55469">
        <ele>345</ele>
        <time>2016-08-23T11:33:18Z</time>
      </trkpt>
      <trkpt lat="45.87534" lon="4.55471">
        <ele>346</ele>
        <time>2016-08-23T11:33:19Z</time>
      </trkpt>
      <trkpt lat="45.87539" lon="4.55475">
        <ele>346</ele>
        <time>2016-08-23T11:33:21Z</time>
      </trkpt>
      <trkpt lat="45.87543" lon="4.55477">
        <ele>346</ele>
        <time>2016-08-23T11:33:22Z</time>
      </trkpt>
      <trkpt lat="45.87549" lon="4.55481">
        <ele>346</ele>
        <time>2016-08-23T11:33:24Z</time>
      </trkpt>
      <trkpt lat="45.87551" lon="4.55483">
        <ele>346</ele>
        <time>2016-08-23T11:33:25Z</time>
      </trkpt>
      <trkpt lat="45.87558" lon="4.55486">
        <ele>346</ele>
        <time>2016-08-23T11:33:27Z</time>
      </trkpt>
      <trkpt lat="45.87562" lon="4.55488">
        <ele>347</ele>
        <time>2016-08-23T11:33:28Z</time>
      </trkpt>
      <trkpt lat="45.87569" lon="4.55493">
        <ele>347</ele>
        <time>2016-08-23T11:33:30Z</time>
      </trkpt>
      <trkpt lat="45.87571" lon="4.55496">
        <ele>347</ele>
        <time>2016-08-23T11:33:31Z</time>
      </trkpt>
      <trkpt lat="45.87577" lon="4.55503">
        <ele>348</ele>
        <time>2016-08-23T11:33:33Z</time>
      </trkpt>
      <trkpt lat="45.8758" lon="4.55506">
        <ele>348</ele>
        <time>2016-08-23T11:33:34Z</time>
      </trkpt>
      <trkpt lat="45.87587" lon="4.5551">
        <ele>348</ele>
        <time>2016-08-23T11:33:36Z</time>
      </trkpt>
      <trkpt lat="45.87591" lon="4.55512">
        <ele>349</ele>
        <time>2016-08-23T11:33:37Z</time>
      </trkpt>
      <trkpt lat="45.87598" lon="4.55518">
        <ele>349</ele>
        <time>2016-08-23T11:33:39Z</time>
      </trkpt>
      <trkpt lat="45.87601" lon="4.55521">
        <ele>349</ele>
        <time>2016-08-23T11:33:40Z</time>
      </trkpt>
      <trkpt lat="45.87608" lon="4.55524">
        <ele>349</ele>
        <time>2016-08-23T11:33:42Z</time>
      </trkpt>
      <trkpt lat="45.8761" lon="4.55526">
        <ele>349</ele>
        <time>2016-08-23T11:33:43Z</time>
      </trkpt>
      <trkpt lat="45.87617" lon="4.5553">
        <ele>349</ele>
        <time>2016-08-23T11:33:45Z</time>
      </trkpt>
      <trkpt lat="45.8762" lon="4.55532">
        <ele>349</ele>
        <time>2016-08-23T11:33:46Z</time>
      </trkpt>
      <trkpt lat="45.87626" lon="4.55537">
        <ele>349</ele>
        <time>2016-08-23T11:33:48Z</time>
      </trkpt>
      <trkpt lat="45.87629" lon="4.55539">
        <ele>350</ele>
        <time>2016-08-23T11:33:49Z</time>
      </trkpt>
      <trkpt lat="45.87635" lon="4.55544">
        <ele>350</ele>
        <time>2016-08-23T11:33:51Z</time>
      </trkpt>
      <trkpt lat="45.87638" lon="4.55546">
        <ele>350</ele>
        <time>2016-08-23T11:33:52Z</time>
      </trkpt>
      <trkpt lat="45.87644" lon="4.5555">
        <ele>350</ele>
        <time>2016-08-23T11:33:54Z</time>
      </trkpt>
      <trkpt lat="45.87647" lon="4.55553">
        <ele>350</ele>
        <time>2016-08-23T11:33:55Z</time>
      </trkpt>
      <trkpt lat="45.87653" lon="4.55558">
        <ele>350</ele>
        <time>2016-08-23T11:33:57Z</time>
      </trkpt>
      <trkpt lat="45.87656" lon="4.5556">
        <ele>350</ele>
        <time>2016-08-23T11:33:58Z</time>
      </trkpt>
      <trkpt lat="45.87662" lon="4.55565">
        <ele>350</ele>
        <time>2016-08-23T11:34:00Z</time>
      </trkpt>
      <trkpt lat="45.87665" lon="4.55567">
        <ele>350</ele>
        <time>2016-08-23T11:34:01Z</time>
      </trkpt>
      <trkpt lat="45.87671" lon="4.55571">
        <ele>352</ele>
        <time>2016-08-23T11:34:03Z</time>
      </trkpt>
      <trkpt lat="45.87674" lon="4.55572">
        <ele>352</ele>
        <time>2016-08-23T11:34:04Z</time>
      </trkpt>
      <trkpt lat="45.8768" lon="4.55575">
        <ele>352</ele>
        <time>2016-08-23T11:34:06Z</time>
      </trkpt>
      <trkpt lat="45.87683" lon="4.55576">
        <ele>352</ele>
        <time>2016-08-23T11:34:07Z</time>
      </trkpt>
      <trkpt lat="45.87689" lon="4.55581">
        <ele>352</ele>
        <time>2016-08-23T11:34:09Z</time>
      </trkpt>
      <trkpt lat="45.87691" lon="4.55583">
        <ele>352</ele>
        <time>2016-08-23T11:34:10Z</time>
      </trkpt>
      <trkpt lat="45.87697" lon="4.55588">
        <ele>353</ele>
        <time>2016-08-23T11:34:12Z</time>
      </trkpt>
      <trkpt lat="45.877" lon="4.55591">
        <ele>353</ele>
        <time>2016-08-23T11:34:13Z</time>
      </trkpt>
      <trkpt lat="45.87707" lon="4.55595">
        <ele>353</ele>
        <time>2016-08-23T11:34:15Z</time>
      </trkpt>
      <trkpt lat="45.8771" lon="4.55597">
        <ele>353</ele>
        <time>2016-08-23T11:34:16Z</time>
      </trkpt>
      <trkpt lat="45.87716" lon="4.55602">
        <ele>354</ele>
        <time>2016-08-23T11:34:18Z</time>
      </trkpt>
      <trkpt lat="45.87719" lon="4.55604">
        <ele>354</ele>
        <time>2016-08-23T11:34:19Z</time>
      </trkpt>
      <trkpt lat="45.87725" lon="4.55608">
        <ele>354</ele>
        <time>2016-08-23T11:34:21Z</time>
      </trkpt>
      <trkpt lat="45.87728" lon="4.5561">
        <ele>354</ele>
        <time>2016-08-23T11:34:22Z</time>
      </trkpt>
      <trkpt lat="45.87736" lon="4.55614">
        <ele>354</ele>
        <time>2016-08-23T11:34:25Z</time>
      </trkpt>
      <trkpt lat="45.87738" lon="4.55616">
        <ele>354</ele>
        <time>2016-08-23T11:34:26Z</time>
      </trkpt>
      <trkpt lat="45.87743" lon="4.55619">
        <ele>354</ele>
        <time>2016-08-23T11:34:28Z</time>
      </trkpt>
      <trkpt lat="45.87746" lon="4.55621">
        <ele>354</ele>
        <time>2016-08-23T11:34:29Z</time>
      </trkpt>
      <trkpt lat="45.87752" lon="4.55626">
        <ele>356</ele>
        <time>2016-08-23T11:34:31Z</time>
      </trkpt>
      <trkpt lat="45.87754" lon="4.55628">
        <ele>356</ele>
        <time>2016-08-23T11:34:32Z</time>
      </trkpt>
      <trkpt lat="45.8776" lon="4.55633">
        <ele>356</ele>
        <time>2016-08-23T11:34:34Z</time>
      </trkpt>
      <trkpt lat="45.87763" lon="4.55635">
        <ele>356</ele>
        <time>2016-08-23T11:34:35Z</time>
      </trkpt>
      <trkpt lat="45.87769" lon="4.55639">
        <ele>356</ele>
        <time>2016-08-23T11:34:37Z</time>
      </trkpt>
      <trkpt lat="45.87772" lon="4.55641">
        <ele>356</ele>
        <time>2016-08-23T11:34:38Z</time>
      </trkpt>
      <trkpt lat="45.87778" lon="4.55646">
        <ele>356</ele>
        <time>2016-08-23T11:34:40Z</time>
      </trkpt>
      <trkpt lat="45.87781" lon="4.55649">
        <ele>356</ele>
        <time>2016-08-23T11:34:41Z</time>
      </trkpt>
      <trkpt lat="45.87786" lon="4.55653">
        <ele>356</ele>
        <time>2016-08-23T11:34:43Z</time>
      </trkpt>
      <trkpt lat="45.87789" lon="4.55655">
        <ele>356</ele>
        <time>2016-08-23T11:34:44Z</time>
      </trkpt>
      <trkpt lat="45.87795" lon="4.55659">
        <ele>357</ele>
        <time>2016-08-23T11:34:46Z</time>
      </trkpt>
      <trkpt lat="45.87798" lon="4.55661">
        <ele>357</ele>
        <time>2016-08-23T11:34:47Z</time>
      </trkpt>
      <trkpt lat="45.87804" lon="4.55665">
        <ele>357</ele>
        <time>2016-08-23T11:34:49Z</time>
      </trkpt>
      <trkpt lat="45.87807" lon="4.55667">
        <ele>358</ele>
        <time>2016-08-23T11:34:50Z</time>
      </trkpt>
      <trkpt lat="45.87814" lon="4.55672">
        <ele>358</ele>
        <time>2016-08-23T11:34:52Z</time>
      </trkpt>
      <trkpt lat="45.87817" lon="4.55674">
        <ele>358</ele>
        <time>2016-08-23T11:34:53Z</time>
      </trkpt>
      <trkpt lat="45.87823" lon="4.55679">
        <ele>358</ele>
        <time>2016-08-23T11:34:55Z</time>
      </trkpt>
      <trkpt lat="45.87826" lon="4.5568">
        <ele>358</ele>
        <time>2016-08-23T11:34:56Z</time>
      </trkpt>
      <trkpt lat="45.87832" lon="4.55684">
        <ele>358</ele>
        <time>2016-08-23T11:34:58Z</time>
      </trkpt>
      <trkpt lat="45.87834" lon="4.55685">
        <ele>359</ele>
        <time>2016-08-23T11:34:59Z</time>
      </trkpt>
      <trkpt lat="45.8784" lon="4.5569">
        <ele>358</ele>
        <time>2016-08-23T11:35:01Z</time>
      </trkpt>
      <trkpt lat="45.87843" lon="4.55692">
        <ele>358</ele>
        <time>2016-08-23T11:35:02Z</time>
      </trkpt>
      <trkpt lat="45.8785" lon="4.55695">
        <ele>358</ele>
        <time>2016-08-23T11:35:04Z</time>
      </trkpt>
      <trkpt lat="45.87853" lon="4.55697">
        <ele>358</ele>
        <time>2016-08-23T11:35:05Z</time>
      </trkpt>
      <trkpt lat="45.8786" lon="4.55702">
        <ele>358</ele>
        <time>2016-08-23T11:35:07Z</time>
      </trkpt>
      <trkpt lat="45.87863" lon="4.55705">
        <ele>358</ele>
        <time>2016-08-23T11:35:08Z</time>
      </trkpt>
      <trkpt lat="45.87869" lon="4.5571">
        <ele>358</ele>
        <time>2016-08-23T11:35:10Z</time>
      </trkpt>
      <trkpt lat="45.87873" lon="4.55713">
        <ele>358</ele>
        <time>2016-08-23T11:35:11Z</time>
      </trkpt>
      <trkpt lat="45.8788" lon="4.55717">
        <ele>358</ele>
        <time>2016-08-23T11:35:13Z</time>
      </trkpt>
      <trkpt lat="45.87884" lon="4.55718">
        <ele>358</ele>
        <time>2016-08-23T11:35:14Z</time>
      </trkpt>
      <trkpt lat="45.87891" lon="4.55724">
        <ele>358</ele>
        <time>2016-08-23T11:35:17Z</time>
      </trkpt>
      <trkpt lat="45.87892" lon="4.55728">
        <ele>358</ele>
        <time>2016-08-23T11:35:18Z</time>
      </trkpt>
      <trkpt lat="45.87893" lon="4.55738">
        <ele>358</ele>
        <time>2016-08-23T11:35:20Z</time>
      </trkpt>
      <trkpt lat="45.87893" lon="4.55742">
        <ele>358</ele>
        <time>2016-08-23T11:35:21Z</time>
      </trkpt>
      <trkpt lat="45.87893" lon="4.55752">
        <ele>359</ele>
        <time>2016-08-23T11:35:23Z</time>
      </trkpt>
      <trkpt lat="45.87892" lon="4.55757">
        <ele>359</ele>
        <time>2016-08-23T11:35:24Z</time>
      </trkpt>
      <trkpt lat="45.87891" lon="4.55767">
        <ele>359</ele>
        <time>2016-08-23T11:35:26Z</time>
      </trkpt>
      <trkpt lat="45.87891" lon="4.55772">
        <ele>359</ele>
        <time>2016-08-23T11:35:27Z</time>
      </trkpt>
      <trkpt lat="45.87892" lon="4.55782">
        <ele>359</ele>
        <time>2016-08-23T11:35:29Z</time>
      </trkpt>
      <trkpt lat="45.87891" lon="4.55788">
        <ele>359</ele>
        <time>2016-08-23T11:35:30Z</time>
      </trkpt>
      <trkpt lat="45.87892" lon="4.55797">
        <ele>360</ele>
        <time>2016-08-23T11:35:32Z</time>
      </trkpt>
      <trkpt lat="45.87892" lon="4.55802">
        <ele>360</ele>
        <time>2016-08-23T11:35:33Z</time>
      </trkpt>
      <trkpt lat="45.87894" lon="4.55812">
        <ele>360</ele>
        <time>2016-08-23T11:35:35Z</time>
      </trkpt>
      <trkpt lat="45.87895" lon="4.55816">
        <ele>360</ele>
        <time>2016-08-23T11:35:36Z</time>
      </trkpt>
      <trkpt lat="45.87896" lon="4.55825">
        <ele>360</ele>
        <time>2016-08-23T11:35:38Z</time>
      </trkpt>
      <trkpt lat="45.87896" lon="4.5583">
        <ele>360</ele>
        <time>2016-08-23T11:35:39Z</time>
      </trkpt>
      <trkpt lat="45.87898" lon="4.55839">
        <ele>361</ele>
        <time>2016-08-23T11:35:41Z</time>
      </trkpt>
      <trkpt lat="45.87898" lon="4.55843">
        <ele>361</ele>
        <time>2016-08-23T11:35:42Z</time>
      </trkpt>
      <trkpt lat="45.87899" lon="4.55854">
        <ele>362</ele>
        <time>2016-08-23T11:35:44Z</time>
      </trkpt>
      <trkpt lat="45.879" lon="4.55859">
        <ele>362</ele>
        <time>2016-08-23T11:35:45Z</time>
      </trkpt>
      <trkpt lat="45.87902" lon="4.55868">
        <ele>362</ele>
        <time>2016-08-23T11:35:47Z</time>
      </trkpt>
      <trkpt lat="45.879" lon="4.55874">
        <ele>362</ele>
        <time>2016-08-23T11:35:48Z</time>
      </trkpt>
      <trkpt lat="45.87899" lon="4.55885">
        <ele>362</ele>
        <time>2016-08-23T11:35:50Z</time>
      </trkpt>
      <trkpt lat="45.87899" lon="4.5589">
        <ele>362</ele>
        <time>2016-08-23T11:35:51Z</time>
      </trkpt>
      <trkpt lat="45.87903" lon="4.55899">
        <ele>363</ele>
        <time>2016-08-23T11:35:53Z</time>
      </trkpt>
      <trkpt lat="45.87904" lon="4.55903">
        <ele>363</ele>
        <time>2016-08-23T11:35:54Z</time>
      </trkpt>
      <trkpt lat="45.87908" lon="4.55911">
        <ele>363</ele>
        <time>2016-08-23T11:35:56Z</time>
      </trkpt>
      <trkpt lat="45.87911" lon="4.55914">
        <ele>363</ele>
        <time>2016-08-23T11:35:57Z</time>
      </trkpt>
      <trkpt lat="45.87916" lon="4.5592">
        <ele>363</ele>
        <time>2016-08-23T11:35:59Z</time>
      </trkpt>
      <trkpt lat="45.87919" lon="4.55924">
        <ele>363</ele>
        <time>2016-08-23T11:36:00Z</time>
      </trkpt>
      <trkpt lat="45.87926" lon="4.55932">
        <ele>364</ele>
        <time>2016-08-23T11:36:02Z</time>
      </trkpt>
      <trkpt lat="45.87929" lon="4.55936">
        <ele>364</ele>
        <time>2016-08-23T11:36:03Z</time>
      </trkpt>
      <trkpt lat="45.87934" lon="4.55942">
        <ele>364</ele>
        <time>2016-08-23T11:36:05Z</time>
      </trkpt>
      <trkpt lat="45.87936" lon="4.55946">
        <ele>364</ele>
        <time>2016-08-23T11:36:06Z</time>
      </trkpt>
      <trkpt lat="45.8794" lon="4.55954">
        <ele>364</ele>
        <time>2016-08-23T11:36:08Z</time>
      </trkpt>
      <trkpt lat="45.87942" lon="4.55958">
        <ele>364</ele>
        <time>2016-08-23T11:36:09Z</time>
      </trkpt>
      <trkpt lat="45.87948" lon="4.55965">
        <ele>365</ele>
        <time>2016-08-23T11:36:11Z</time>
      </trkpt>
      <trkpt lat="45.87951" lon="4.55968">
        <ele>365</ele>
        <time>2016-08-23T11:36:12Z</time>
      </trkpt>
      <trkpt lat="45.87956" lon="4.55974">
        <ele>365</ele>
        <time>2016-08-23T11:36:14Z</time>
      </trkpt>
      <trkpt lat="45.87959" lon="4.55977">
        <ele>365</ele>
        <time>2016-08-23T11:36:15Z</time>
      </trkpt>
      <trkpt lat="45.87965" lon="4.55982">
        <ele>365</ele>
        <time>2016-08-23T11:36:17Z</time>
      </trkpt>
      <trkpt lat="45.87967" lon="4.55984">
        <ele>365</ele>
        <time>2016-08-23T11:36:18Z</time>
      </trkpt>
      <trkpt lat="45.87974" lon="4.5599">
        <ele>365</ele>
        <time>2016-08-23T11:36:21Z</time>
      </trkpt>
      <trkpt lat="45.87979" lon="4.55993">
        <ele>365</ele>
        <time>2016-08-23T11:36:22Z</time>
      </trkpt>
      <trkpt lat="45.87985" lon="4.55999">
        <ele>365</ele>
        <time>2016-08-23T11:36:24Z</time>
      </trkpt>
      <trkpt lat="45.87988" lon="4.56001">
        <ele>368</ele>
        <time>2016-08-23T11:36:25Z</time>
      </trkpt>
      <trkpt lat="45.87991" lon="4.56003">
        <ele>367</ele>
        <time>2016-08-23T11:36:26Z</time>
      </trkpt>
      <trkpt lat="45.87997" lon="4.56005">
        <ele>367</ele>
        <time>2016-08-23T11:36:27Z</time>
      </trkpt>
      <trkpt lat="45.88003" lon="4.56008">
        <ele>366</ele>
        <time>2016-08-23T11:36:29Z</time>
      </trkpt>
      <trkpt lat="45.88007" lon="4.56009">
        <ele>366</ele>
        <time>2016-08-23T11:36:30Z</time>
      </trkpt>
      <trkpt lat="45.88015" lon="4.56011">
        <ele>366</ele>
        <time>2016-08-23T11:36:32Z</time>
      </trkpt>
      <trkpt lat="45.88019" lon="4.56012">
        <ele>366</ele>
        <time>2016-08-23T11:36:33Z</time>
      </trkpt>
      <trkpt lat="45.88027" lon="4.56012">
        <ele>366</ele>
        <time>2016-08-23T11:36:35Z</time>
      </trkpt>
      <trkpt lat="45.8803" lon="4.56012">
        <ele>366</ele>
        <time>2016-08-23T11:36:36Z</time>
      </trkpt>
      <trkpt lat="45.88034" lon="4.56014">
        <ele>366</ele>
        <time>2016-08-23T11:36:37Z</time>
      </trkpt>
      <trkpt lat="45.88039" lon="4.56018">
        <ele>366</ele>
        <time>2016-08-23T11:36:38Z</time>
      </trkpt>
      <trkpt lat="45.88044" lon="4.5602">
        <ele>366</ele>
        <time>2016-08-23T11:36:39Z</time>
      </trkpt>
      <trkpt lat="45.88049" lon="4.56021">
        <ele>366</ele>
        <time>2016-08-23T11:36:40Z</time>
      </trkpt>
      <trkpt lat="45.88055" lon="4.56024">
        <ele>365</ele>
        <time>2016-08-23T11:36:42Z</time>
      </trkpt>
      <trkpt lat="45.88058" lon="4.56026">
        <ele>365</ele>
        <time>2016-08-23T11:36:43Z</time>
      </trkpt>
      <trkpt lat="45.88065" lon="4.56031">
        <ele>365</ele>
        <time>2016-08-23T11:36:45Z</time>
      </trkpt>
      <trkpt lat="45.88068" lon="4.56033">
        <ele>365</ele>
        <time>2016-08-23T11:36:46Z</time>
      </trkpt>
      <trkpt lat="45.88074" lon="4.56038">
        <ele>365</ele>
        <time>2016-08-23T11:36:48Z</time>
      </trkpt>
      <trkpt lat="45.88077" lon="4.56042">
        <ele>366</ele>
        <time>2016-08-23T11:36:49Z</time>
      </trkpt>
      <trkpt lat="45.88083" lon="4.56047">
        <ele>366</ele>
        <time>2016-08-23T11:36:51Z</time>
      </trkpt>
      <trkpt lat="45.88086" lon="4.56049">
        <ele>363</ele>
        <time>2016-08-23T11:36:52Z</time>
      </trkpt>
      <trkpt lat="45.88092" lon="4.56052">
        <ele>363</ele>
        <time>2016-08-23T11:36:54Z</time>
      </trkpt>
      <trkpt lat="45.88095" lon="4.56055">
        <ele>363</ele>
        <time>2016-08-23T11:36:55Z</time>
      </trkpt>
      <trkpt lat="45.881" lon="4.5606">
        <ele>364</ele>
        <time>2016-08-23T11:36:57Z</time>
      </trkpt>
      <trkpt lat="45.88103" lon="4.56062">
        <ele>364</ele>
        <time>2016-08-23T11:36:58Z</time>
      </trkpt>
      <trkpt lat="45.88108" lon="4.56068">
        <ele>364</ele>
        <time>2016-08-23T11:37:00Z</time>
      </trkpt>
      <trkpt lat="45.8811" lon="4.56071">
        <ele>364</ele>
        <time>2016-08-23T11:37:01Z</time>
      </trkpt>
      <trkpt lat="45.88114" lon="4.56081">
        <ele>364</ele>
        <time>2016-08-23T11:37:04Z</time>
      </trkpt>
      <trkpt lat="45.88115" lon="4.56084">
        <ele>368</ele>
        <time>2016-08-23T11:37:05Z</time>
      </trkpt>
      <trkpt lat="45.88121" lon="4.56094">
        <ele>368</ele>
        <time>2016-08-23T11:37:09Z</time>
      </trkpt>
      <trkpt lat="45.88123" lon="4.56096">
        <ele>368</ele>
        <time>2016-08-23T11:37:10Z</time>
      </trkpt>
      <trkpt lat="45.88127" lon="4.56104">
        <ele>368</ele>
        <time>2016-08-23T11:37:13Z</time>
      </trkpt>
      <trkpt lat="45.88129" lon="4.56106">
        <ele>368</ele>
        <time>2016-08-23T11:37:14Z</time>
      </trkpt>
      <trkpt lat="45.88132" lon="4.56118">
        <ele>369</ele>
        <time>2016-08-23T11:37:18Z</time>
      </trkpt>
      <trkpt lat="45.88134" lon="4.5612">
        <ele>369</ele>
        <time>2016-08-23T11:37:19Z</time>
      </trkpt>
      <trkpt lat="45.88138" lon="4.56129">
        <ele>369</ele>
        <time>2016-08-23T11:37:22Z</time>
      </trkpt>
      <trkpt lat="45.88139" lon="4.56132">
        <ele>369</ele>
        <time>2016-08-23T11:37:23Z</time>
      </trkpt>
      <trkpt lat="45.88141" lon="4.56141">
        <ele>370</ele>
        <time>2016-08-23T11:37:26Z</time>
      </trkpt>
      <trkpt lat="45.88142" lon="4.56144">
        <ele>370</ele>
        <time>2016-08-23T11:37:27Z</time>
      </trkpt>
      <trkpt lat="45.88142" lon="4.56156">
        <ele>371</ele>
        <time>2016-08-23T11:37:31Z</time>
      </trkpt>
      <trkpt lat="45.88141" lon="4.5616">
        <ele>371</ele>
        <time>2016-08-23T11:37:32Z</time>
      </trkpt>
      <trkpt lat="45.8814" lon="4.5617">
        <ele>374</ele>
        <time>2016-08-23T11:37:35Z</time>
      </trkpt>
      <trkpt lat="45.8814" lon="4.56174">
        <ele>374</ele>
        <time>2016-08-23T11:37:36Z</time>
      </trkpt>
      <trkpt lat="45.88137" lon="4.56183">
        <ele>374</ele>
        <time>2016-08-23T11:37:39Z</time>
      </trkpt>
      <trkpt lat="45.88136" lon="4.56186">
        <ele>374</ele>
        <time>2016-08-23T11:37:40Z</time>
      </trkpt>
      <trkpt lat="45.8813" lon="4.56195">
        <ele>374</ele>
        <time>2016-08-23T11:37:44Z</time>
      </trkpt>
      <trkpt lat="45.88129" lon="4.56196">
        <ele>374</ele>
        <time>2016-08-23T11:37:45Z</time>
      </trkpt>
      <trkpt lat="45.88122" lon="4.56203">
        <ele>375</ele>
        <time>2016-08-23T11:37:49Z</time>
      </trkpt>
      <trkpt lat="45.8812" lon="4.56204">
        <ele>375</ele>
        <time>2016-08-23T11:37:50Z</time>
      </trkpt>
      <trkpt lat="45.88114" lon="4.5621">
        <ele>375</ele>
        <time>2016-08-23T11:37:53Z</time>
      </trkpt>
      <trkpt lat="45.88113" lon="4.56212">
        <ele>375</ele>
        <time>2016-08-23T11:37:54Z</time>
      </trkpt>
      <trkpt lat="45.88107" lon="4.56219">
        <ele>375</ele>
        <time>2016-08-23T11:37:57Z</time>
      </trkpt>
      <trkpt lat="45.88106" lon="4.56221">
        <ele>375</ele>
        <time>2016-08-23T11:37:58Z</time>
      </trkpt>
      <trkpt lat="45.88099" lon="4.56228">
        <ele>375</ele>
        <time>2016-08-23T11:38:02Z</time>
      </trkpt>
      <trkpt lat="45.88097" lon="4.5623">
        <ele>376</ele>
        <time>2016-08-23T11:38:03Z</time>
      </trkpt>
      <trkpt lat="45.88091" lon="4.56236">
        <ele>376</ele>
        <time>2016-08-23T11:38:06Z</time>
      </trkpt>
      <trkpt lat="45.88089" lon="4.56238">
        <ele>376</ele>
        <time>2016-08-23T11:38:07Z</time>
      </trkpt>
      <trkpt lat="45.88083" lon="4.56244">
        <ele>377</ele>
        <time>2016-08-23T11:38:10Z</time>
      </trkpt>
      <trkpt lat="45.88081" lon="4.56246">
        <ele>377</ele>
        <time>2016-08-23T11:38:11Z</time>
      </trkpt>
      <trkpt lat="45.88075" lon="4.56252">
        <ele>377</ele>
        <time>2016-08-23T11:38:14Z</time>
      </trkpt>
      <trkpt lat="45.88073" lon="4.56254">
        <ele>378</ele>
        <time>2016-08-23T11:38:15Z</time>
      </trkpt>
      <trkpt lat="45.88067" lon="4.5626">
        <ele>378</ele>
        <time>2016-08-23T11:38:18Z</time>
      </trkpt>
      <trkpt lat="45.88065" lon="4.56262">
        <ele>378</ele>
        <time>2016-08-23T11:38:19Z</time>
      </trkpt>
      <trkpt lat="45.88059" lon="4.56269">
        <ele>378</ele>
        <time>2016-08-23T11:38:22Z</time>
      </trkpt>
      <trkpt lat="45.88057" lon="4.56271">
        <ele>378</ele>
        <time>2016-08-23T11:38:23Z</time>
      </trkpt>
      <trkpt lat="45.88051" lon="4.56278">
        <ele>378</ele>
        <time>2016-08-23T11:38:26Z</time>
      </trkpt>
      <trkpt lat="45.88049" lon="4.5628">
        <ele>378</ele>
        <time>2016-08-23T11:38:27Z</time>
      </trkpt>
      <trkpt lat="45.88043" lon="4.56285">
        <ele>379</ele>
        <time>2016-08-23T11:38:30Z</time>
      </trkpt>
      <trkpt lat="45.88041" lon="4.56287">
        <ele>379</ele>
        <time>2016-08-23T11:38:31Z</time>
      </trkpt>
      <trkpt lat="45.88035" lon="4.56293">
        <ele>379</ele>
        <time>2016-08-23T11:38:34Z</time>
      </trkpt>
      <trkpt lat="45.88032" lon="4.56295">
        <ele>379</ele>
        <time>2016-08-23T11:38:35Z</time>
      </trkpt>
      <trkpt lat="45.88027" lon="4.56302">
        <ele>379</ele>
        <time>2016-08-23T11:38:38Z</time>
      </trkpt>
      <trkpt lat="45.88025" lon="4.56305">
        <ele>379</ele>
        <time>2016-08-23T11:38:39Z</time>
      </trkpt>
      <trkpt lat="45.88019" lon="4.56312">
        <ele>379</ele>
        <time>2016-08-23T11:38:42Z</time>
      </trkpt>
      <trkpt lat="45.88017" lon="4.56314">
        <ele>379</ele>
        <time>2016-08-23T11:38:43Z</time>
      </trkpt>
      <trkpt lat="45.8801" lon="4.5632">
        <ele>379</ele>
        <time>2016-08-23T11:38:46Z</time>
      </trkpt>
      <trkpt lat="45.88008" lon="4.56321">
        <ele>379</ele>
        <time>2016-08-23T11:38:47Z</time>
      </trkpt>
      <trkpt lat="45.87999" lon="4.56325">
        <ele>381</ele>
        <time>2016-08-23T11:38:50Z</time>
      </trkpt>
      <trkpt lat="45.87996" lon="4.56326">
        <ele>381</ele>
        <time>2016-08-23T11:38:51Z</time>
      </trkpt>
      <trkpt lat="45.87989" lon="4.5633">
        <ele>381</ele>
        <time>2016-08-23T11:38:54Z</time>
      </trkpt>
      <trkpt lat="45.87986" lon="4.56331">
        <ele>381</ele>
        <time>2016-08-23T11:38:55Z</time>
      </trkpt>
      <trkpt lat="45.87978" lon="4.56333">
        <ele>381</ele>
        <time>2016-08-23T11:38:58Z</time>
      </trkpt>
      <trkpt lat="45.87975" lon="4.56334">
        <ele>381</ele>
        <time>2016-08-23T11:38:59Z</time>
      </trkpt>
      <trkpt lat="45.87967" lon="4.56336">
        <ele>381</ele>
        <time>2016-08-23T11:39:02Z</time>
      </trkpt>
      <trkpt lat="45.87964" lon="4.56336">
        <ele>381</ele>
        <time>2016-08-23T11:39:03Z</time>
      </trkpt>
      <trkpt lat="45.87956" lon="4.56337">
        <ele>381</ele>
        <time>2016-08-23T11:39:06Z</time>
      </trkpt>
      <trkpt lat="45.87954" lon="4.56338">
        <ele>381</ele>
        <time>2016-08-23T11:39:07Z</time>
      </trkpt>
      <trkpt lat="45.87947" lon="4.5634">
        <ele>382</ele>
        <time>2016-08-23T11:39:10Z</time>
      </trkpt>
      <trkpt lat="45.87944" lon="4.5634">
        <ele>382</ele>
        <time>2016-08-23T11:39:11Z</time>
      </trkpt>
      <trkpt lat="45.87936" lon="4.56343">
        <ele>382</ele>
        <time>2016-08-23T11:39:14Z</time>
      </trkpt>
      <trkpt lat="45.87933" lon="4.56344">
        <ele>382</ele>
        <time>2016-08-23T11:39:15Z</time>
      </trkpt>
      <trkpt lat="45.87926" lon="4.56345">
        <ele>383</ele>
        <time>2016-08-23T11:39:17Z</time>
      </trkpt>
      <trkpt lat="45.87923" lon="4.56345">
        <ele>383</ele>
        <time>2016-08-23T11:39:18Z</time>
      </trkpt>
      <trkpt lat="45.87917" lon="4.56346">
        <ele>383</ele>
        <time>2016-08-23T11:39:20Z</time>
      </trkpt>
      <trkpt lat="45.87914" lon="4.56345">
        <ele>385</ele>
        <time>2016-08-23T11:39:21Z</time>
      </trkpt>
      <trkpt lat="45.87906" lon="4.56346">
        <ele>385</ele>
        <time>2016-08-23T11:39:24Z</time>
      </trkpt>
      <trkpt lat="45.87904" lon="4.56346">
        <ele>386</ele>
        <time>2016-08-23T11:39:25Z</time>
      </trkpt>
      <trkpt lat="45.87896" lon="4.56348">
        <ele>386</ele>
        <time>2016-08-23T11:39:28Z</time>
      </trkpt>
      <trkpt lat="45.87893" lon="4.56349">
        <ele>386</ele>
        <time>2016-08-23T11:39:29Z</time>
      </trkpt>
      <trkpt lat="45.87886" lon="4.56351">
        <ele>386</ele>
        <time>2016-08-23T11:39:32Z</time>
      </trkpt>
      <trkpt lat="45.87884" lon="4.56353">
        <ele>386</ele>
        <time>2016-08-23T11:39:33Z</time>
      </trkpt>
      <trkpt lat="45.87876" lon="4.56355">
        <ele>387</ele>
        <time>2016-08-23T11:39:36Z</time>
      </trkpt>
      <trkpt lat="45.87873" lon="4.56355">
        <ele>387</ele>
        <time>2016-08-23T11:39:37Z</time>
      </trkpt>
      <trkpt lat="45.87866" lon="4.56357">
        <ele>387</ele>
        <time>2016-08-23T11:39:39Z</time>
      </trkpt>
      <trkpt lat="45.87863" lon="4.56358">
        <ele>387</ele>
        <time>2016-08-23T11:39:40Z</time>
      </trkpt>
      <trkpt lat="45.87857" lon="4.56359">
        <ele>387</ele>
        <time>2016-08-23T11:39:42Z</time>
      </trkpt>
      <trkpt lat="45.87854" lon="4.56359">
        <ele>387</ele>
        <time>2016-08-23T11:39:43Z</time>
      </trkpt>
      <trkpt lat="45.87846" lon="4.56364">
        <ele>387</ele>
        <time>2016-08-23T11:39:47Z</time>
      </trkpt>
      <trkpt lat="45.87844" lon="4.56365">
        <ele>387</ele>
        <time>2016-08-23T11:39:48Z</time>
      </trkpt>
      <trkpt lat="45.87837" lon="4.56367">
        <ele>387</ele>
        <time>2016-08-23T11:39:51Z</time>
      </trkpt>
      <trkpt lat="45.87834" lon="4.56368">
        <ele>388</ele>
        <time>2016-08-23T11:39:52Z</time>
      </trkpt>
      <trkpt lat="45.87826" lon="4.5637">
        <ele>388</ele>
        <time>2016-08-23T11:39:55Z</time>
      </trkpt>
      <trkpt lat="45.87824" lon="4.56372">
        <ele>389</ele>
        <time>2016-08-23T11:39:56Z</time>
      </trkpt>
      <trkpt lat="45.87817" lon="4.56375">
        <ele>389</ele>
        <time>2016-08-23T11:39:59Z</time>
      </trkpt>
      <trkpt lat="45.87814" lon="4.56376">
        <ele>389</ele>
        <time>2016-08-23T11:40:00Z</time>
      </trkpt>
      <trkpt lat="45.87807" lon="4.56381">
        <ele>389</ele>
        <time>2016-08-23T11:40:03Z</time>
      </trkpt>
      <trkpt lat="45.87805" lon="4.56382">
        <ele>389</ele>
        <time>2016-08-23T11:40:04Z</time>
      </trkpt>
      <trkpt lat="45.87797" lon="4.56385">
        <ele>389</ele>
        <time>2016-08-23T11:40:07Z</time>
      </trkpt>
      <trkpt lat="45.87795" lon="4.56387">
        <ele>389</ele>
        <time>2016-08-23T11:40:08Z</time>
      </trkpt>
      <trkpt lat="45.87789" lon="4.56391">
        <ele>389</ele>
        <time>2016-08-23T11:40:11Z</time>
      </trkpt>
      <trkpt lat="45.87787" lon="4.56393">
        <ele>389</ele>
        <time>2016-08-23T11:40:12Z</time>
      </trkpt>
      <trkpt lat="45.8778" lon="4.56398">
        <ele>389</ele>
        <time>2016-08-23T11:40:15Z</time>
      </trkpt>
      <trkpt lat="45.87778" lon="4.56399">
        <ele>389</ele>
        <time>2016-08-23T11:40:16Z</time>
      </trkpt>
      <trkpt lat="45.87771" lon="4.56407">
        <ele>390</ele>
        <time>2016-08-23T11:40:19Z</time>
      </trkpt>
      <trkpt lat="45.87769" lon="4.56408">
        <ele>390</ele>
        <time>2016-08-23T11:40:20Z</time>
      </trkpt>
      <trkpt lat="45.87762" lon="4.56413">
        <ele>391</ele>
        <time>2016-08-23T11:40:23Z</time>
      </trkpt>
      <trkpt lat="45.8776" lon="4.56414">
        <ele>391</ele>
        <time>2016-08-23T11:40:24Z</time>
      </trkpt>
      <trkpt lat="45.87751" lon="4.56418">
        <ele>392</ele>
        <time>2016-08-23T11:40:27Z</time>
      </trkpt>
      <trkpt lat="45.87749" lon="4.56419">
        <ele>392</ele>
        <time>2016-08-23T11:40:28Z</time>
      </trkpt>
      <trkpt lat="45.87742" lon="4.56424">
        <ele>393</ele>
        <time>2016-08-23T11:40:31Z</time>
      </trkpt>
      <trkpt lat="45.87739" lon="4.56426">
        <ele>393</ele>
        <time>2016-08-23T11:40:32Z</time>
      </trkpt>
      <trkpt lat="45.87733" lon="4.56429">
        <ele>394</ele>
        <time>2016-08-23T11:40:35Z</time>
      </trkpt>
      <trkpt lat="45.8773" lon="4.5643">
        <ele>394</ele>
        <time>2016-08-23T11:40:36Z</time>
      </trkpt>
      <trkpt lat="45.87723" lon="4.56433">
        <ele>394</ele>
        <time>2016-08-23T11:40:39Z</time>
      </trkpt>
      <trkpt lat="45.87721" lon="4.56435">
        <ele>394</ele>
        <time>2016-08-23T11:40:40Z</time>
      </trkpt>
      <trkpt lat="45.87714" lon="4.56439">
        <ele>395</ele>
        <time>2016-08-23T11:40:43Z</time>
      </trkpt>
      <trkpt lat="45.87711" lon="4.56441">
        <ele>395</ele>
        <time>2016-08-23T11:40:44Z</time>
      </trkpt>
      <trkpt lat="45.87704" lon="4.56447">
        <ele>395</ele>
        <time>2016-08-23T11:40:47Z</time>
      </trkpt>
      <trkpt lat="45.87702" lon="4.56449">
        <ele>395</ele>
        <time>2016-08-23T11:40:48Z</time>
      </trkpt>
      <trkpt lat="45.87696" lon="4.56459">
        <ele>395</ele>
        <time>2016-08-23T11:40:51Z</time>
      </trkpt>
      <trkpt lat="45.87694" lon="4.56462">
        <ele>395</ele>
        <time>2016-08-23T11:40:52Z</time>
      </trkpt>
      <trkpt lat="45.87691" lon="4.56473">
        <ele>396</ele>
        <time>2016-08-23T11:40:55Z</time>
      </trkpt>
      <trkpt lat="45.87691" lon="4.56477">
        <ele>396</ele>
        <time>2016-08-23T11:40:56Z</time>
      </trkpt>
      <trkpt lat="45.87689" lon="4.56488">
        <ele>396</ele>
        <time>2016-08-23T11:40:59Z</time>
      </trkpt>
      <trkpt lat="45.87688" lon="4.56492">
        <ele>397</ele>
        <time>2016-08-23T11:41:00Z</time>
      </trkpt>
      <trkpt lat="45.87687" lon="4.56501">
        <ele>399</ele>
        <time>2016-08-23T11:41:02Z</time>
      </trkpt>
      <trkpt lat="45.87687" lon="4.56505">
        <ele>399</ele>
        <time>2016-08-23T11:41:03Z</time>
      </trkpt>
      <trkpt lat="45.87686" lon="4.56518">
        <ele>399</ele>
        <time>2016-08-23T11:41:06Z</time>
      </trkpt>
      <trkpt lat="45.87686" lon="4.56521">
        <ele>399</ele>
        <time>2016-08-23T11:41:07Z</time>
      </trkpt>
      <trkpt lat="45.87685" lon="4.56533">
        <ele>399</ele>
        <time>2016-08-23T11:41:10Z</time>
      </trkpt>
      <trkpt lat="45.87685" lon="4.56537">
        <ele>399</ele>
        <time>2016-08-23T11:41:11Z</time>
      </trkpt>
      <trkpt lat="45.87683" lon="4.56547">
        <ele>400</ele>
        <time>2016-08-23T11:41:14Z</time>
      </trkpt>
      <trkpt lat="45.87682" lon="4.56551">
        <ele>400</ele>
        <time>2016-08-23T11:41:15Z</time>
      </trkpt>
      <trkpt lat="45.87679" lon="4.56562">
        <ele>400</ele>
        <time>2016-08-23T11:41:18Z</time>
      </trkpt>
      <trkpt lat="45.87678" lon="4.56565">
        <ele>400</ele>
        <time>2016-08-23T11:41:19Z</time>
      </trkpt>
      <trkpt lat="45.87674" lon="4.56573">
        <ele>400</ele>
        <time>2016-08-23T11:41:21Z</time>
      </trkpt>
      <trkpt lat="45.87673" lon="4.56576">
        <ele>400</ele>
        <time>2016-08-23T11:41:22Z</time>
      </trkpt>
      <trkpt lat="45.87671" lon="4.56585">
        <ele>400</ele>
        <time>2016-08-23T11:41:24Z</time>
      </trkpt>
      <trkpt lat="45.8767" lon="4.56589">
        <ele>400</ele>
        <time>2016-08-23T11:41:25Z</time>
      </trkpt>
      <trkpt lat="45.87667" lon="4.56598">
        <ele>399</ele>
        <time>2016-08-23T11:41:27Z</time>
      </trkpt>
      <trkpt lat="45.87665" lon="4.56602">
        <ele>399</ele>
        <time>2016-08-23T11:41:28Z</time>
      </trkpt>
      <trkpt lat="45.8766" lon="4.56612">
        <ele>398</ele>
        <time>2016-08-23T11:41:30Z</time>
      </trkpt>
      <trkpt lat="45.87658" lon="4.56618">
        <ele>398</ele>
        <time>2016-08-23T11:41:31Z</time>
      </trkpt>
      <trkpt lat="45.87655" lon="4.56628">
        <ele>398</ele>
        <time>2016-08-23T11:41:33Z</time>
      </trkpt>
      <trkpt lat="45.87653" lon="4.56633">
        <ele>398</ele>
        <time>2016-08-23T11:41:34Z</time>
      </trkpt>
      <trkpt lat="45.87648" lon="4.56643">
        <ele>397</ele>
        <time>2016-08-23T11:41:36Z</time>
      </trkpt>
      <trkpt lat="45.87646" lon="4.56648">
        <ele>397</ele>
        <time>2016-08-23T11:41:37Z</time>
      </trkpt>
      <trkpt lat="45.87642" lon="4.56658">
        <ele>397</ele>
        <time>2016-08-23T11:41:39Z</time>
      </trkpt>
      <trkpt lat="45.87639" lon="4.56663">
        <ele>397</ele>
        <time>2016-08-23T11:41:40Z</time>
      </trkpt>
      <trkpt lat="45.87635" lon="4.56673">
        <ele>396</ele>
        <time>2016-08-23T11:41:42Z</time>
      </trkpt>
      <trkpt lat="45.87634" lon="4.56677">
        <ele>396</ele>
        <time>2016-08-23T11:41:43Z</time>
      </trkpt>
      <trkpt lat="45.8763" lon="4.56686">
        <ele>396</ele>
        <time>2016-08-23T11:41:45Z</time>
      </trkpt>
      <trkpt lat="45.87628" lon="4.5669">
        <ele>396</ele>
        <time>2016-08-23T11:41:46Z</time>
      </trkpt>
      <trkpt lat="45.87625" lon="4.567">
        <ele>396</ele>
        <time>2016-08-23T11:41:48Z</time>
      </trkpt>
      <trkpt lat="45.87623" lon="4.56705">
        <ele>396</ele>
        <time>2016-08-23T11:41:49Z</time>
      </trkpt>
      <trkpt lat="45.87619" lon="4.56715">
        <ele>396</ele>
        <time>2016-08-23T11:41:51Z</time>
      </trkpt>
      <trkpt lat="45.87617" lon="4.5672">
        <ele>396</ele>
        <time>2016-08-23T11:41:52Z</time>
      </trkpt>
      <trkpt lat="45.87613" lon="4.5673">
        <ele>396</ele>
        <time>2016-08-23T11:41:54Z</time>
      </trkpt>
      <trkpt lat="45.87611" lon="4.56735">
        <ele>396</ele>
        <time>2016-08-23T11:41:55Z</time>
      </trkpt>
      <trkpt lat="45.87607" lon="4.56745">
        <ele>396</ele>
        <time>2016-08-23T11:41:57Z</time>
      </trkpt>
      <trkpt lat="45.87605" lon="4.5675">
        <ele>397</ele>
        <time>2016-08-23T11:41:58Z</time>
      </trkpt>
      <trkpt lat="45.87601" lon="4.56759">
        <ele>399</ele>
        <time>2016-08-23T11:42:00Z</time>
      </trkpt>
      <trkpt lat="45.87599" lon="4.56763">
        <ele>399</ele>
        <time>2016-08-23T11:42:01Z</time>
      </trkpt>
      <trkpt lat="45.87596" lon="4.56772">
        <ele>399</ele>
        <time>2016-08-23T11:42:03Z</time>
      </trkpt>
      <trkpt lat="45.87594" lon="4.56777">
        <ele>400</ele>
        <time>2016-08-23T11:42:04Z</time>
      </trkpt>
      <trkpt lat="45.8759" lon="4.56785">
        <ele>400</ele>
        <time>2016-08-23T11:42:06Z</time>
      </trkpt>
      <trkpt lat="45.87588" lon="4.56789">
        <ele>400</ele>
        <time>2016-08-23T11:42:07Z</time>
      </trkpt>
      <trkpt lat="45.87585" lon="4.56797">
        <ele>401</ele>
        <time>2016-08-23T11:42:09Z</time>
      </trkpt>
      <trkpt lat="45.87583" lon="4.56801">
        <ele>399</ele>
        <time>2016-08-23T11:42:10Z</time>
      </trkpt>
      <trkpt lat="45.87579" lon="4.56809">
        <ele>400</ele>
        <time>2016-08-23T11:42:12Z</time>
      </trkpt>
      <trkpt lat="45.87578" lon="4.56813">
        <ele>400</ele>
        <time>2016-08-23T11:42:13Z</time>
      </trkpt>
      <trkpt lat="45.87574" lon="4.56821">
        <ele>401</ele>
        <time>2016-08-23T11:42:15Z</time>
      </trkpt>
      <trkpt lat="45.87572" lon="4.56826">
        <ele>401</ele>
        <time>2016-08-23T11:42:16Z</time>
      </trkpt>
      <trkpt lat="45.87568" lon="4.56834">
        <ele>404</ele>
        <time>2016-08-23T11:42:18Z</time>
      </trkpt>
      <trkpt lat="45.87566" lon="4.56837">
        <ele>404</ele>
        <time>2016-08-23T11:42:19Z</time>
      </trkpt>
      <trkpt lat="45.87562" lon="4.56849">
        <ele>404</ele>
        <time>2016-08-23T11:42:22Z</time>
      </trkpt>
      <trkpt lat="45.87561" lon="4.56853">
        <ele>404</ele>
        <time>2016-08-23T11:42:23Z</time>
      </trkpt>
      <trkpt lat="45.87558" lon="4.56861">
        <ele>404</ele>
        <time>2016-08-23T11:42:25Z</time>
      </trkpt>
      <trkpt lat="45.87556" lon="4.56865">
        <ele>405</ele>
        <time>2016-08-23T11:42:26Z</time>
      </trkpt>
      <trkpt lat="45.87552" lon="4.56876">
        <ele>405</ele>
        <time>2016-08-23T11:42:29Z</time>
      </trkpt>
      <trkpt lat="45.8755" lon="4.56879">
        <ele>405</ele>
        <time>2016-08-23T11:42:30Z</time>
      </trkpt>
      <trkpt lat="45.87545" lon="4.5689">
        <ele>405</ele>
        <time>2016-08-23T11:42:33Z</time>
      </trkpt>
      <trkpt lat="45.87544" lon="4.56894">
        <ele>405</ele>
        <time>2016-08-23T11:42:34Z</time>
      </trkpt>
      <trkpt lat="45.87539" lon="4.56904">
        <ele>406</ele>
        <time>2016-08-23T11:42:37Z</time>
      </trkpt>
      <trkpt lat="45.87538" lon="4.56908">
        <ele>406</ele>
        <time>2016-08-23T11:42:38Z</time>
      </trkpt>
      <trkpt lat="45.87533" lon="4.56917">
        <ele>410</ele>
        <time>2016-08-23T11:42:41Z</time>
      </trkpt>
      <trkpt lat="45.87532" lon="4.5692">
        <ele>409</ele>
        <time>2016-08-23T11:42:42Z</time>
      </trkpt>
      <trkpt lat="45.87529" lon="4.56927">
        <ele>409</ele>
        <time>2016-08-23T11:42:44Z</time>
      </trkpt>
      <trkpt lat="45.87527" lon="4.56931">
        <ele>409</ele>
        <time>2016-08-23T11:42:45Z</time>
      </trkpt>
      <trkpt lat="45.87523" lon="4.5694">
        <ele>410</ele>
        <time>2016-08-23T11:42:48Z</time>
      </trkpt>
      <trkpt lat="45.87522" lon="4.56943">
        <ele>410</ele>
        <time>2016-08-23T11:42:49Z</time>
      </trkpt>
      <trkpt lat="45.87517" lon="4.56952">
        <ele>410</ele>
        <time>2016-08-23T11:42:52Z</time>
      </trkpt>
      <trkpt lat="45.87516" lon="4.56955">
        <ele>410</ele>
        <time>2016-08-23T11:42:53Z</time>
      </trkpt>
      <trkpt lat="45.87512" lon="4.56965">
        <ele>410</ele>
        <time>2016-08-23T11:42:56Z</time>
      </trkpt>
      <trkpt lat="45.87511" lon="4.56968">
        <ele>410</ele>
        <time>2016-08-23T11:42:57Z</time>
      </trkpt>
      <trkpt lat="45.87507" lon="4.56978">
        <ele>409</ele>
        <time>2016-08-23T11:43:00Z</time>
      </trkpt>
      <trkpt lat="45.87506" lon="4.56981">
        <ele>409</ele>
        <time>2016-08-23T11:43:01Z</time>
      </trkpt>
      <trkpt lat="45.87503" lon="4.56989">
        <ele>408</ele>
        <time>2016-08-23T11:43:03Z</time>
      </trkpt>
      <trkpt lat="45.87502" lon="4.56994">
        <ele>408</ele>
        <time>2016-08-23T11:43:04Z</time>
      </trkpt>
      <trkpt lat="45.87501" lon="4.57003">
        <ele>408</ele>
        <time>2016-08-23T11:43:06Z</time>
      </trkpt>
      <trkpt lat="45.875" lon="4.57007">
        <ele>406</ele>
        <time>2016-08-23T11:43:07Z</time>
      </trkpt>
      <trkpt lat="45.87499" lon="4.57017">
        <ele>406</ele>
        <time>2016-08-23T11:43:09Z</time>
      </trkpt>
      <trkpt lat="45.87499" lon="4.57022">
        <ele>405</ele>
        <time>2016-08-23T11:43:10Z</time>
      </trkpt>
      <trkpt lat="45.875" lon="4.57031">
        <ele>405</ele>
        <time>2016-08-23T11:43:12Z</time>
      </trkpt>
      <trkpt lat="45.875" lon="4.57036">
        <ele>407</ele>
        <time>2016-08-23T11:43:13Z</time>
      </trkpt>
      <trkpt lat="45.87502" lon="4.57045">
        <ele>410</ele>
        <time>2016-08-23T11:43:15Z</time>
      </trkpt>
      <trkpt lat="45.87502" lon="4.57051">
        <ele>410</ele>
        <time>2016-08-23T11:43:16Z</time>
      </trkpt>
      <trkpt lat="45.87506" lon="4.5706">
        <ele>410</ele>
        <time>2016-08-23T11:43:18Z</time>
      </trkpt>
      <trkpt lat="45.87508" lon="4.57065">
        <ele>409</ele>
        <time>2016-08-23T11:43:19Z</time>
      </trkpt>
      <trkpt lat="45.87512" lon="4.57075">
        <ele>409</ele>
        <time>2016-08-23T11:43:21Z</time>
      </trkpt>
      <trkpt lat="45.87514" lon="4.5708">
        <ele>409</ele>
        <time>2016-08-23T11:43:22Z</time>
      </trkpt>
      <trkpt lat="45.87519" lon="4.57089">
        <ele>408</ele>
        <time>2016-08-23T11:43:24Z</time>
      </trkpt>
      <trkpt lat="45.87522" lon="4.57094">
        <ele>408</ele>
        <time>2016-08-23T11:43:25Z</time>
      </trkpt>
      <trkpt lat="45.87525" lon="4.57099">
        <ele>409</ele>
        <time>2016-08-23T11:43:26Z</time>
      </trkpt>
      <trkpt lat="45.87528" lon="4.57103">
        <ele>409</ele>
        <time>2016-08-23T11:43:27Z</time>
      </trkpt>
      <trkpt lat="45.87534" lon="4.57112">
        <ele>409</ele>
        <time>2016-08-23T11:43:29Z</time>
      </trkpt>
      <trkpt lat="45.87537" lon="4.57117">
        <ele>409</ele>
        <time>2016-08-23T11:43:30Z</time>
      </trkpt>
      <trkpt lat="45.87543" lon="4.57126">
        <ele>409</ele>
        <time>2016-08-23T11:43:32Z</time>
      </trkpt>
      <trkpt lat="45.87546" lon="4.57131">
        <ele>409</ele>
        <time>2016-08-23T11:43:33Z</time>
      </trkpt>
      <trkpt lat="45.87549" lon="4.57135">
        <ele>409</ele>
        <time>2016-08-23T11:43:34Z</time>
      </trkpt>
      <trkpt lat="45.87552" lon="4.5714">
        <ele>409</ele>
        <time>2016-08-23T11:43:35Z</time>
      </trkpt>
      <trkpt lat="45.87555" lon="4.57146">
        <ele>409</ele>
        <time>2016-08-23T11:43:36Z</time>
      </trkpt>
      <trkpt lat="45.87558" lon="4.57152">
        <ele>410</ele>
        <time>2016-08-23T11:43:37Z</time>
      </trkpt>
      <trkpt lat="45.8756" lon="4.5716">
        <ele>410</ele>
        <time>2016-08-23T11:43:38Z</time>
      </trkpt>
      <trkpt lat="45.87562" lon="4.57167">
        <ele>408</ele>
        <time>2016-08-23T11:43:39Z</time>
      </trkpt>
      <trkpt lat="45.87564" lon="4.57175">
        <ele>408</ele>
        <time>2016-08-23T11:43:40Z</time>
      </trkpt>
      <trkpt lat="45.87566" lon="4.57183">
        <ele>407</ele>
        <time>2016-08-23T11:43:41Z</time>
      </trkpt>
      <trkpt lat="45.87567" lon="4.57192">
        <ele>407</ele>
        <time>2016-08-23T11:43:42Z</time>
      </trkpt>
      <trkpt lat="45.87569" lon="4.572">
        <ele>406</ele>
        <time>2016-08-23T11:43:43Z</time>
      </trkpt>
      <trkpt lat="45.8757" lon="4.5721">
        <ele>406</ele>
        <time>2016-08-23T11:43:44Z</time>
      </trkpt>
      <trkpt lat="45.87572" lon="4.57219">
        <ele>406</ele>
        <time>2016-08-23T11:43:45Z</time>
      </trkpt>
      <trkpt lat="45.87574" lon="4.57229">
        <ele>406</ele>
        <time>2016-08-23T11:43:46Z</time>
      </trkpt>
      <trkpt lat="45.87575" lon="4.5724">
        <ele>406</ele>
        <time>2016-08-23T11:43:47Z</time>
      </trkpt>
      <trkpt lat="45.87577" lon="4.57251">
        <ele>405</ele>
        <time>2016-08-23T11:43:48Z</time>
      </trkpt>
      <trkpt lat="45.87579" lon="4.57262">
        <ele>404</ele>
        <time>2016-08-23T11:43:49Z</time>
      </trkpt>
      <trkpt lat="45.8758" lon="4.57273">
        <ele>403</ele>
        <time>2016-08-23T11:43:50Z</time>
      </trkpt>
      <trkpt lat="45.87581" lon="4.57284">
        <ele>402</ele>
        <time>2016-08-23T11:43:51Z</time>
      </trkpt>
      <trkpt lat="45.87581" lon="4.57294">
        <ele>402</ele>
        <time>2016-08-23T11:43:52Z</time>
      </trkpt>
      <trkpt lat="45.87582" lon="4.57305">
        <ele>401</ele>
        <time>2016-08-23T11:43:53Z</time>
      </trkpt>
      <trkpt lat="45.87582" lon="4.57316">
        <ele>401</ele>
        <time>2016-08-23T11:43:54Z</time>
      </trkpt>
      <trkpt lat="45.87583" lon="4.57328">
        <ele>400</ele>
        <time>2016-08-23T11:43:55Z</time>
      </trkpt>
      <trkpt lat="45.87584" lon="4.57339">
        <ele>399</ele>
        <time>2016-08-23T11:43:56Z</time>
      </trkpt>
      <trkpt lat="45.87585" lon="4.57351">
        <ele>398</ele>
        <time>2016-08-23T11:43:57Z</time>
      </trkpt>
      <trkpt lat="45.87586" lon="4.57363">
        <ele>397</ele>
        <time>2016-08-23T11:43:58Z</time>
      </trkpt>
      <trkpt lat="45.87586" lon="4.57374">
        <ele>396</ele>
        <time>2016-08-23T11:43:59Z</time>
      </trkpt>
      <trkpt lat="45.87587" lon="4.57386">
        <ele>396</ele>
        <time>2016-08-23T11:44:00Z</time>
      </trkpt>
      <trkpt lat="45.87588" lon="4.57398">
        <ele>396</ele>
        <time>2016-08-23T11:44:01Z</time>
      </trkpt>
      <trkpt lat="45.87589" lon="4.5741">
        <ele>396</ele>
        <time>2016-08-23T11:44:02Z</time>
      </trkpt>
      <trkpt lat="45.8759" lon="4.57422">
        <ele>395</ele>
        <time>2016-08-23T11:44:03Z</time>
      </trkpt>
      <trkpt lat="45.87591" lon="4.57433">
        <ele>394</ele>
        <time>2016-08-23T11:44:04Z</time>
      </trkpt>
      <trkpt lat="45.87591" lon="4.57445">
        <ele>394</ele>
        <time>2016-08-23T11:44:05Z</time>
      </trkpt>
      <trkpt lat="45.87591" lon="4.57456">
        <ele>394</ele>
        <time>2016-08-23T11:44:06Z</time>
      </trkpt>
      <trkpt lat="45.87592" lon="4.57467">
        <ele>394</ele>
        <time>2016-08-23T11:44:07Z</time>
      </trkpt>
      <trkpt lat="45.87592" lon="4.57477">
        <ele>394</ele>
        <time>2016-08-23T11:44:08Z</time>
      </trkpt>
      <trkpt lat="45.87592" lon="4.57488">
        <ele>394</ele>
        <time>2016-08-23T11:44:09Z</time>
      </trkpt>
      <trkpt lat="45.87593" lon="4.57497">
        <ele>395</ele>
        <time>2016-08-23T11:44:10Z</time>
      </trkpt>
      <trkpt lat="45.87593" lon="4.57506">
        <ele>395</ele>
        <time>2016-08-23T11:44:11Z</time>
      </trkpt>
      <trkpt lat="45.87594" lon="4.57515">
        <ele>395</ele>
        <time>2016-08-23T11:44:12Z</time>
      </trkpt>
      <trkpt lat="45.87595" lon="4.57522">
        <ele>395</ele>
        <time>2016-08-23T11:44:13Z</time>
      </trkpt>
      <trkpt lat="45.87595" lon="4.5753">
        <ele>395</ele>
        <time>2016-08-23T11:44:14Z</time>
      </trkpt>
      <trkpt lat="45.87595" lon="4.57538">
        <ele>395</ele>
        <time>2016-08-23T11:44:15Z</time>
      </trkpt>
      <trkpt lat="45.87596" lon="4.57545">
        <ele>395</ele>
        <time>2016-08-23T11:44:16Z</time>
      </trkpt>
      <trkpt lat="45.87596" lon="4.57551">
        <ele>395</ele>
        <time>2016-08-23T11:44:17Z</time>
      </trkpt>
      <trkpt lat="45.87597" lon="4.57559">
        <ele>395</ele>
        <time>2016-08-23T11:44:18Z</time>
      </trkpt>
      <trkpt lat="45.87598" lon="4.57566">
        <ele>395</ele>
        <time>2016-08-23T11:44:19Z</time>
      </trkpt>
      <trkpt lat="45.87598" lon="4.57573">
        <ele>396</ele>
        <time>2016-08-23T11:44:20Z</time>
      </trkpt>
      <trkpt lat="45.87598" lon="4.5758">
        <ele>396</ele>
        <time>2016-08-23T11:44:21Z</time>
      </trkpt>
      <trkpt lat="45.87599" lon="4.57588">
        <ele>397</ele>
        <time>2016-08-23T11:44:22Z</time>
      </trkpt>
      <trkpt lat="45.876" lon="4.57596">
        <ele>397</ele>
        <time>2016-08-23T11:44:23Z</time>
      </trkpt>
      <trkpt lat="45.876" lon="4.57604">
        <ele>397</ele>
        <time>2016-08-23T11:44:24Z</time>
      </trkpt>
      <trkpt lat="45.876" lon="4.57612">
        <ele>397</ele>
        <time>2016-08-23T11:44:25Z</time>
      </trkpt>
      <trkpt lat="45.87601" lon="4.5762">
        <ele>397</ele>
        <time>2016-08-23T11:44:26Z</time>
      </trkpt>
      <trkpt lat="45.87601" lon="4.57628">
        <ele>397</ele>
        <time>2016-08-23T11:44:27Z</time>
      </trkpt>
      <trkpt lat="45.87602" lon="4.57636">
        <ele>397</ele>
        <time>2016-08-23T11:44:28Z</time>
      </trkpt>
      <trkpt lat="45.87602" lon="4.57644">
        <ele>398</ele>
        <time>2016-08-23T11:44:29Z</time>
      </trkpt>
      <trkpt lat="45.87601" lon="4.57652">
        <ele>398</ele>
        <time>2016-08-23T11:44:30Z</time>
      </trkpt>
      <trkpt lat="45.87601" lon="4.57659">
        <ele>399</ele>
        <time>2016-08-23T11:44:31Z</time>
      </trkpt>
      <trkpt lat="45.876" lon="4.57667">
        <ele>400</ele>
        <time>2016-08-23T11:44:32Z</time>
      </trkpt>
      <trkpt lat="45.876" lon="4.57675">
        <ele>400</ele>
        <time>2016-08-23T11:44:33Z</time>
      </trkpt>
      <trkpt lat="45.87599" lon="4.57682">
        <ele>400</ele>
        <time>2016-08-23T11:44:34Z</time>
      </trkpt>
      <trkpt lat="45.87599" lon="4.5769">
        <ele>399</ele>
        <time>2016-08-23T11:44:35Z</time>
      </trkpt>
      <trkpt lat="45.87599" lon="4.57698">
        <ele>399</ele>
        <time>2016-08-23T11:44:36Z</time>
      </trkpt>
      <trkpt lat="45.87598" lon="4.57705">
        <ele>399</ele>
        <time>2016-08-23T11:44:37Z</time>
      </trkpt>
      <trkpt lat="45.87597" lon="4.57713">
        <ele>399</ele>
        <time>2016-08-23T11:44:38Z</time>
      </trkpt>
      <trkpt lat="45.87597" lon="4.57721">
        <ele>400</ele>
        <time>2016-08-23T11:44:39Z</time>
      </trkpt>
      <trkpt lat="45.87596" lon="4.57728">
        <ele>400</ele>
        <time>2016-08-23T11:44:40Z</time>
      </trkpt>
      <trkpt lat="45.87595" lon="4.57736">
        <ele>401</ele>
        <time>2016-08-23T11:44:41Z</time>
      </trkpt>
      <trkpt lat="45.87594" lon="4.57743">
        <ele>401</ele>
        <time>2016-08-23T11:44:42Z</time>
      </trkpt>
      <trkpt lat="45.87593" lon="4.5775">
        <ele>401</ele>
        <time>2016-08-23T11:44:43Z</time>
      </trkpt>
      <trkpt lat="45.87593" lon="4.57757">
        <ele>401</ele>
        <time>2016-08-23T11:44:44Z</time>
      </trkpt>
      <trkpt lat="45.87592" lon="4.57764">
        <ele>400</ele>
        <time>2016-08-23T11:44:45Z</time>
      </trkpt>
      <trkpt lat="45.87591" lon="4.57771">
        <ele>399</ele>
        <time>2016-08-23T11:44:46Z</time>
      </trkpt>
      <trkpt lat="45.87589" lon="4.57778">
        <ele>398</ele>
        <time>2016-08-23T11:44:47Z</time>
      </trkpt>
      <trkpt lat="45.87589" lon="4.57785">
        <ele>398</ele>
        <time>2016-08-23T11:44:48Z</time>
      </trkpt>
      <trkpt lat="45.87586" lon="4.5779">
        <ele>398</ele>
        <time>2016-08-23T11:44:49Z</time>
      </trkpt>
      <trkpt lat="45.87585" lon="4.57797">
        <ele>398</ele>
        <time>2016-08-23T11:44:50Z</time>
      </trkpt>
      <trkpt lat="45.87584" lon="4.57803">
        <ele>398</ele>
        <time>2016-08-23T11:44:51Z</time>
      </trkpt>
      <trkpt lat="45.87583" lon="4.57809">
        <ele>402</ele>
        <time>2016-08-23T11:44:52Z</time>
      </trkpt>
      <trkpt lat="45.87582" lon="4.57816">
        <ele>402</ele>
        <time>2016-08-23T11:44:53Z</time>
      </trkpt>
      <trkpt lat="45.87579" lon="4.57827">
        <ele>401</ele>
        <time>2016-08-23T11:44:55Z</time>
      </trkpt>
      <trkpt lat="45.87578" lon="4.57833">
        <ele>401</ele>
        <time>2016-08-23T11:44:56Z</time>
      </trkpt>
      <trkpt lat="45.87576" lon="4.57838">
        <ele>401</ele>
        <time>2016-08-23T11:44:57Z</time>
      </trkpt>
      <trkpt lat="45.87574" lon="4.57844">
        <ele>400</ele>
        <time>2016-08-23T11:44:58Z</time>
      </trkpt>
      <trkpt lat="45.87571" lon="4.5785">
        <ele>400</ele>
        <time>2016-08-23T11:44:59Z</time>
      </trkpt>
      <trkpt lat="45.87568" lon="4.57855">
        <ele>400</ele>
        <time>2016-08-23T11:45:00Z</time>
      </trkpt>
      <trkpt lat="45.87565" lon="4.57861">
        <ele>400</ele>
        <time>2016-08-23T11:45:01Z</time>
      </trkpt>
      <trkpt lat="45.87562" lon="4.57866">
        <ele>400</ele>
        <time>2016-08-23T11:45:02Z</time>
      </trkpt>
      <trkpt lat="45.87559" lon="4.57872">
        <ele>399</ele>
        <time>2016-08-23T11:45:03Z</time>
      </trkpt>
      <trkpt lat="45.87556" lon="4.57877">
        <ele>399</ele>
        <time>2016-08-23T11:45:04Z</time>
      </trkpt>
      <trkpt lat="45.87552" lon="4.57883">
        <ele>399</ele>
        <time>2016-08-23T11:45:05Z</time>
      </trkpt>
      <trkpt lat="45.87549" lon="4.57889">
        <ele>399</ele>
        <time>2016-08-23T11:45:06Z</time>
      </trkpt>
      <trkpt lat="45.87546" lon="4.57894">
        <ele>399</ele>
        <time>2016-08-23T11:45:07Z</time>
      </trkpt>
      <trkpt lat="45.87544" lon="4.579">
        <ele>399</ele>
        <time>2016-08-23T11:45:08Z</time>
      </trkpt>
      <trkpt lat="45.87541" lon="4.57907">
        <ele>399</ele>
        <time>2016-08-23T11:45:09Z</time>
      </trkpt>
      <trkpt lat="45.87538" lon="4.57914">
        <ele>399</ele>
        <time>2016-08-23T11:45:10Z</time>
      </trkpt>
      <trkpt lat="45.87536" lon="4.57921">
        <ele>397</ele>
        <time>2016-08-23T11:45:11Z</time>
      </trkpt>
      <trkpt lat="45.87534" lon="4.57928">
        <ele>397</ele>
        <time>2016-08-23T11:45:12Z</time>
      </trkpt>
      <trkpt lat="45.87532" lon="4.57936">
        <ele>397</ele>
        <time>2016-08-23T11:45:13Z</time>
      </trkpt>
      <trkpt lat="45.8753" lon="4.57943">
        <ele>397</ele>
        <time>2016-08-23T11:45:14Z</time>
      </trkpt>
      <trkpt lat="45.87529" lon="4.5795">
        <ele>397</ele>
        <time>2016-08-23T11:45:15Z</time>
      </trkpt>
      <trkpt lat="45.87529" lon="4.57957">
        <ele>397</ele>
        <time>2016-08-23T11:45:16Z</time>
      </trkpt>
      <trkpt lat="45.87528" lon="4.57964">
        <ele>397</ele>
        <time>2016-08-23T11:45:17Z</time>
      </trkpt>
      <trkpt lat="45.87528" lon="4.57972">
        <ele>397</ele>
        <time>2016-08-23T11:45:18Z</time>
      </trkpt>
      <trkpt lat="45.87528" lon="4.57979">
        <ele>397</ele>
        <time>2016-08-23T11:45:19Z</time>
      </trkpt>
      <trkpt lat="45.87528" lon="4.57986">
        <ele>396</ele>
        <time>2016-08-23T11:45:20Z</time>
      </trkpt>
      <trkpt lat="45.87528" lon="4.57993">
        <ele>396</ele>
        <time>2016-08-23T11:45:21Z</time>
      </trkpt>
      <trkpt lat="45.87528" lon="4.58">
        <ele>396</ele>
        <time>2016-08-23T11:45:22Z</time>
      </trkpt>
      <trkpt lat="45.87528" lon="4.58007">
        <ele>396</ele>
        <time>2016-08-23T11:45:23Z</time>
      </trkpt>
      <trkpt lat="45.87528" lon="4.58015">
        <ele>396</ele>
        <time>2016-08-23T11:45:24Z</time>
      </trkpt>
      <trkpt lat="45.87529" lon="4.58022">
        <ele>396</ele>
        <time>2016-08-23T11:45:25Z</time>
      </trkpt>
      <trkpt lat="45.87529" lon="4.5803">
        <ele>396</ele>
        <time>2016-08-23T11:45:26Z</time>
      </trkpt>
      <trkpt lat="45.8753" lon="4.58038">
        <ele>396</ele>
        <time>2016-08-23T11:45:27Z</time>
      </trkpt>
      <trkpt lat="45.8753" lon="4.58045">
        <ele>396</ele>
        <time>2016-08-23T11:45:28Z</time>
      </trkpt>
      <trkpt lat="45.87532" lon="4.58058">
        <ele>397</ele>
        <time>2016-08-23T11:45:30Z</time>
      </trkpt>
      <trkpt lat="45.87532" lon="4.58065">
        <ele>397</ele>
        <time>2016-08-23T11:45:31Z</time>
      </trkpt>
      <trkpt lat="45.87533" lon="4.58072">
        <ele>397</ele>
        <time>2016-08-23T11:45:32Z</time>
      </trkpt>
      <trkpt lat="45.87533" lon="4.5808">
        <ele>397</ele>
        <time>2016-08-23T11:45:33Z</time>
      </trkpt>
      <trkpt lat="45.87533" lon="4.58087">
        <ele>398</ele>
        <time>2016-08-23T11:45:34Z</time>
      </trkpt>
      <trkpt lat="45.87534" lon="4.58096">
        <ele>398</ele>
        <time>2016-08-23T11:45:35Z</time>
      </trkpt>
      <trkpt lat="45.87534" lon="4.58104">
        <ele>398</ele>
        <time>2016-08-23T11:45:36Z</time>
      </trkpt>
      <trkpt lat="45.87534" lon="4.58113">
        <ele>398</ele>
        <time>2016-08-23T11:45:37Z</time>
      </trkpt>
      <trkpt lat="45.87534" lon="4.58121">
        <ele>398</ele>
        <time>2016-08-23T11:45:38Z</time>
      </trkpt>
      <trkpt lat="45.87534" lon="4.58129">
        <ele>398</ele>
        <time>2016-08-23T11:45:39Z</time>
      </trkpt>
      <trkpt lat="45.87533" lon="4.58136">
        <ele>399</ele>
        <time>2016-08-23T11:45:40Z</time>
      </trkpt>
      <trkpt lat="45.87533" lon="4.58143">
        <ele>399</ele>
        <time>2016-08-23T11:45:41Z</time>
      </trkpt>
      <trkpt lat="45.87533" lon="4.5815">
        <ele>399</ele>
        <time>2016-08-23T11:45:42Z</time>
      </trkpt>
      <trkpt lat="45.87533" lon="4.58156">
        <ele>399</ele>
        <time>2016-08-23T11:45:43Z</time>
      </trkpt>
      <trkpt lat="45.87533" lon="4.58163">
        <ele>399</ele>
        <time>2016-08-23T11:45:44Z</time>
      </trkpt>
      <trkpt lat="45.87533" lon="4.5817">
        <ele>401</ele>
        <time>2016-08-23T11:45:45Z</time>
      </trkpt>
      <trkpt lat="45.87533" lon="4.58177">
        <ele>401</ele>
        <time>2016-08-23T11:45:46Z</time>
      </trkpt>
      <trkpt lat="45.87533" lon="4.58184">
        <ele>401</ele>
        <time>2016-08-23T11:45:47Z</time>
      </trkpt>
      <trkpt lat="45.87533" lon="4.58191">
        <ele>401</ele>
        <time>2016-08-23T11:45:48Z</time>
      </trkpt>
      <trkpt lat="45.87533" lon="4.58199">
        <ele>401</ele>
        <time>2016-08-23T11:45:49Z</time>
      </trkpt>
      <trkpt lat="45.87534" lon="4.58207">
        <ele>401</ele>
        <time>2016-08-23T11:45:50Z</time>
      </trkpt>
      <trkpt lat="45.87533" lon="4.58215">
        <ele>401</ele>
        <time>2016-08-23T11:45:51Z</time>
      </trkpt>
      <trkpt lat="45.87533" lon="4.58224">
        <ele>401</ele>
        <time>2016-08-23T11:45:52Z</time>
      </trkpt>
      <trkpt lat="45.87533" lon="4.58232">
        <ele>401</ele>
        <time>2016-08-23T11:45:53Z</time>
      </trkpt>
      <trkpt lat="45.87533" lon="4.58239">
        <ele>401</ele>
        <time>2016-08-23T11:45:54Z</time>
      </trkpt>
      <trkpt lat="45.87533" lon="4.58247">
        <ele>402</ele>
        <time>2016-08-23T11:45:55Z</time>
      </trkpt>
      <trkpt lat="45.87533" lon="4.58253">
        <ele>402</ele>
        <time>2016-08-23T11:45:56Z</time>
      </trkpt>
      <trkpt lat="45.87533" lon="4.5826">
        <ele>402</ele>
        <time>2016-08-23T11:45:57Z</time>
      </trkpt>
      <trkpt lat="45.87534" lon="4.58272">
        <ele>402</ele>
        <time>2016-08-23T11:45:59Z</time>
      </trkpt>
      <trkpt lat="45.87535" lon="4.58278">
        <ele>402</ele>
        <time>2016-08-23T11:46:00Z</time>
      </trkpt>
      <trkpt lat="45.87538" lon="4.58289">
        <ele>401</ele>
        <time>2016-08-23T11:46:02Z</time>
      </trkpt>
      <trkpt lat="45.8754" lon="4.58295">
        <ele>401</ele>
        <time>2016-08-23T11:46:03Z</time>
      </trkpt>
      <trkpt lat="45.87542" lon="4.583">
        <ele>401</ele>
        <time>2016-08-23T11:46:04Z</time>
      </trkpt>
      <trkpt lat="45.87544" lon="4.58306">
        <ele>401</ele>
        <time>2016-08-23T11:46:05Z</time>
      </trkpt>
      <trkpt lat="45.87546" lon="4.58312">
        <ele>401</ele>
        <time>2016-08-23T11:46:06Z</time>
      </trkpt>
      <trkpt lat="45.87549" lon="4.58317">
        <ele>401</ele>
        <time>2016-08-23T11:46:07Z</time>
      </trkpt>
      <trkpt lat="45.87555" lon="4.58326">
        <ele>400</ele>
        <time>2016-08-23T11:46:09Z</time>
      </trkpt>
      <trkpt lat="45.87559" lon="4.5833">
        <ele>400</ele>
        <time>2016-08-23T11:46:10Z</time>
      </trkpt>
      <trkpt lat="45.87565" lon="4.58338">
        <ele>399</ele>
        <time>2016-08-23T11:46:12Z</time>
      </trkpt>
      <trkpt lat="45.87568" lon="4.58344">
        <ele>399</ele>
        <time>2016-08-23T11:46:13Z</time>
      </trkpt>
      <trkpt lat="45.87571" lon="4.58349">
        <ele>399</ele>
        <time>2016-08-23T11:46:14Z</time>
      </trkpt>
      <trkpt lat="45.87574" lon="4.58355">
        <ele>399</ele>
        <time>2016-08-23T11:46:15Z</time>
      </trkpt>
      <trkpt lat="45.87576" lon="4.58362">
        <ele>399</ele>
        <time>2016-08-23T11:46:16Z</time>
      </trkpt>
      <trkpt lat="45.87578" lon="4.58369">
        <ele>399</ele>
        <time>2016-08-23T11:46:17Z</time>
      </trkpt>
      <trkpt lat="45.87581" lon="4.58377">
        <ele>399</ele>
        <time>2016-08-23T11:46:18Z</time>
      </trkpt>
      <trkpt lat="45.87583" lon="4.58385">
        <ele>399</ele>
        <time>2016-08-23T11:46:19Z</time>
      </trkpt>
      <trkpt lat="45.87584" lon="4.58393">
        <ele>396</ele>
        <time>2016-08-23T11:46:20Z</time>
      </trkpt>
      <trkpt lat="45.87584" lon="4.58401">
        <ele>397</ele>
        <time>2016-08-23T11:46:21Z</time>
      </trkpt>
      <trkpt lat="45.87584" lon="4.5841">
        <ele>397</ele>
        <time>2016-08-23T11:46:22Z</time>
      </trkpt>
      <trkpt lat="45.87583" lon="4.58419">
        <ele>398</ele>
        <time>2016-08-23T11:46:23Z</time>
      </trkpt>
      <trkpt lat="45.87581" lon="4.58427">
        <ele>397</ele>
        <time>2016-08-23T11:46:24Z</time>
      </trkpt>
      <trkpt lat="45.87578" lon="4.58435">
        <ele>396</ele>
        <time>2016-08-23T11:46:25Z</time>
      </trkpt>
      <trkpt lat="45.87574" lon="4.58442">
        <ele>396</ele>
        <time>2016-08-23T11:46:26Z</time>
      </trkpt>
      <trkpt lat="45.87567" lon="4.58449">
        <ele>396</ele>
        <time>2016-08-23T11:46:27Z</time>
      </trkpt>
      <trkpt lat="45.87561" lon="4.58454">
        <ele>395</ele>
        <time>2016-08-23T11:46:28Z</time>
      </trkpt>
      <trkpt lat="45.87554" lon="4.58457">
        <ele>395</ele>
        <time>2016-08-23T11:46:29Z</time>
      </trkpt>
      <trkpt lat="45.87547" lon="4.58458">
        <ele>395</ele>
        <time>2016-08-23T11:46:30Z</time>
      </trkpt>
      <trkpt lat="45.8754" lon="4.58458">
        <ele>395</ele>
        <time>2016-08-23T11:46:31Z</time>
      </trkpt>
      <trkpt lat="45.87532" lon="4.58458">
        <ele>395</ele>
        <time>2016-08-23T11:46:32Z</time>
      </trkpt>
      <trkpt lat="45.87524" lon="4.58459">
        <ele>395</ele>
        <time>2016-08-23T11:46:33Z</time>
      </trkpt>
      <trkpt lat="45.87515" lon="4.5846">
        <ele>395</ele>
        <time>2016-08-23T11:46:34Z</time>
      </trkpt>
      <trkpt lat="45.87506" lon="4.58461">
        <ele>395</ele>
        <time>2016-08-23T11:46:35Z</time>
      </trkpt>
      <trkpt lat="45.87498" lon="4.58464">
        <ele>395</ele>
        <time>2016-08-23T11:46:36Z</time>
      </trkpt>
      <trkpt lat="45.87489" lon="4.58467">
        <ele>395</ele>
        <time>2016-08-23T11:46:37Z</time>
      </trkpt>
      <trkpt lat="45.87481" lon="4.58472">
        <ele>395</ele>
        <time>2016-08-23T11:46:38Z</time>
      </trkpt>
      <trkpt lat="45.87473" lon="4.58477">
        <ele>395</ele>
        <time>2016-08-23T11:46:39Z</time>
      </trkpt>
      <trkpt lat="45.87466" lon="4.58483">
        <ele>395</ele>
        <time>2016-08-23T11:46:40Z</time>
      </trkpt>
      <trkpt lat="45.87457" lon="4.58488">
        <ele>395</ele>
        <time>2016-08-23T11:46:41Z</time>
      </trkpt>
      <trkpt lat="45.87449" lon="4.58492">
        <ele>395</ele>
        <time>2016-08-23T11:46:42Z</time>
      </trkpt>
      <trkpt lat="45.8744" lon="4.58496">
        <ele>395</ele>
        <time>2016-08-23T11:46:43Z</time>
      </trkpt>
      <trkpt lat="45.87432" lon="4.585">
        <ele>395</ele>
        <time>2016-08-23T11:46:44Z</time>
      </trkpt>
      <trkpt lat="45.87423" lon="4.58503">
        <ele>392</ele>
        <time>2016-08-23T11:46:45Z</time>
      </trkpt>
      <trkpt lat="45.87414" lon="4.58506">
        <ele>392</ele>
        <time>2016-08-23T11:46:46Z</time>
      </trkpt>
      <trkpt lat="45.87405" lon="4.58509">
        <ele>390</ele>
        <time>2016-08-23T11:46:47Z</time>
      </trkpt>
      <trkpt lat="45.87395" lon="4.58512">
        <ele>389</ele>
        <time>2016-08-23T11:46:48Z</time>
      </trkpt>
      <trkpt lat="45.87386" lon="4.58514">
        <ele>388</ele>
        <time>2016-08-23T11:46:49Z</time>
      </trkpt>
      <trkpt lat="45.87377" lon="4.58516">
        <ele>387</ele>
        <time>2016-08-23T11:46:50Z</time>
      </trkpt>
      <trkpt lat="45.87368" lon="4.58518">
        <ele>387</ele>
        <time>2016-08-23T11:46:51Z</time>
      </trkpt>
      <trkpt lat="45.87358" lon="4.5852">
        <ele>387</ele>
        <time>2016-08-23T11:46:52Z</time>
      </trkpt>
      <trkpt lat="45.87348" lon="4.5852">
        <ele>387</ele>
        <time>2016-08-23T11:46:53Z</time>
      </trkpt>
      <trkpt lat="45.87339" lon="4.58522">
        <ele>387</ele>
        <time>2016-08-23T11:46:54Z</time>
      </trkpt>
      <trkpt lat="45.87329" lon="4.58525">
        <ele>385</ele>
        <time>2016-08-23T11:46:55Z</time>
      </trkpt>
      <trkpt lat="45.87321" lon="4.58528">
        <ele>385</ele>
        <time>2016-08-23T11:46:56Z</time>
      </trkpt>
      <trkpt lat="45.87311" lon="4.58531">
        <ele>384</ele>
        <time>2016-08-23T11:46:57Z</time>
      </trkpt>
      <trkpt lat="45.87302" lon="4.58535">
        <ele>384</ele>
        <time>2016-08-23T11:46:58Z</time>
      </trkpt>
      <trkpt lat="45.87293" lon="4.5854">
        <ele>383</ele>
        <time>2016-08-23T11:46:59Z</time>
      </trkpt>
      <trkpt lat="45.87284" lon="4.58546">
        <ele>383</ele>
        <time>2016-08-23T11:47:00Z</time>
      </trkpt>
      <trkpt lat="45.87276" lon="4.58552">
        <ele>383</ele>
        <time>2016-08-23T11:47:01Z</time>
      </trkpt>
      <trkpt lat="45.87269" lon="4.58559">
        <ele>382</ele>
        <time>2016-08-23T11:47:02Z</time>
      </trkpt>
      <trkpt lat="45.87261" lon="4.58567">
        <ele>381</ele>
        <time>2016-08-23T11:47:03Z</time>
      </trkpt>
      <trkpt lat="45.87255" lon="4.58575">
        <ele>380</ele>
        <time>2016-08-23T11:47:04Z</time>
      </trkpt>
      <trkpt lat="45.87249" lon="4.58583">
        <ele>379</ele>
        <time>2016-08-23T11:47:05Z</time>
      </trkpt>
      <trkpt lat="45.87243" lon="4.58592">
        <ele>378</ele>
        <time>2016-08-23T11:47:06Z</time>
      </trkpt>
      <trkpt lat="45.87237" lon="4.586">
        <ele>378</ele>
        <time>2016-08-23T11:47:07Z</time>
      </trkpt>
      <trkpt lat="45.87232" lon="4.58609">
        <ele>377</ele>
        <time>2016-08-23T11:47:08Z</time>
      </trkpt>
      <trkpt lat="45.87227" lon="4.58618">
        <ele>377</ele>
        <time>2016-08-23T11:47:09Z</time>
      </trkpt>
      <trkpt lat="45.87223" lon="4.58627">
        <ele>377</ele>
        <time>2016-08-23T11:47:10Z</time>
      </trkpt>
      <trkpt lat="45.8722" lon="4.58635">
        <ele>376</ele>
        <time>2016-08-23T11:47:11Z</time>
      </trkpt>
      <trkpt lat="45.87216" lon="4.58643">
        <ele>376</ele>
        <time>2016-08-23T11:47:12Z</time>
      </trkpt>
      <trkpt lat="45.87213" lon="4.58651">
        <ele>376</ele>
        <time>2016-08-23T11:47:13Z</time>
      </trkpt>
      <trkpt lat="45.87209" lon="4.58659">
        <ele>376</ele>
        <time>2016-08-23T11:47:14Z</time>
      </trkpt>
      <trkpt lat="45.87206" lon="4.58667">
        <ele>376</ele>
        <time>2016-08-23T11:47:15Z</time>
      </trkpt>
      <trkpt lat="45.87203" lon="4.58674">
        <ele>375</ele>
        <time>2016-08-23T11:47:16Z</time>
      </trkpt>
      <trkpt lat="45.872" lon="4.58681">
        <ele>375</ele>
        <time>2016-08-23T11:47:17Z</time>
      </trkpt>
      <trkpt lat="45.87197" lon="4.58689">
        <ele>376</ele>
        <time>2016-08-23T11:47:18Z</time>
      </trkpt>
      <trkpt lat="45.87194" lon="4.58696">
        <ele>376</ele>
        <time>2016-08-23T11:47:19Z</time>
      </trkpt>
      <trkpt lat="45.87191" lon="4.58703">
        <ele>376</ele>
        <time>2016-08-23T11:47:20Z</time>
      </trkpt>
      <trkpt lat="45.87187" lon="4.5871">
        <ele>376</ele>
        <time>2016-08-23T11:47:21Z</time>
      </trkpt>
      <trkpt lat="45.87184" lon="4.58717">
        <ele>376</ele>
        <time>2016-08-23T11:47:22Z</time>
      </trkpt>
      <trkpt lat="45.87181" lon="4.58724">
        <ele>376</ele>
        <time>2016-08-23T11:47:23Z</time>
      </trkpt>
      <trkpt lat="45.87178" lon="4.58731">
        <ele>376</ele>
        <time>2016-08-23T11:47:24Z</time>
      </trkpt>
      <trkpt lat="45.87175" lon="4.58738">
        <ele>376</ele>
        <time>2016-08-23T11:47:25Z</time>
      </trkpt>
      <trkpt lat="45.87172" lon="4.58745">
        <ele>377</ele>
        <time>2016-08-23T11:47:26Z</time>
      </trkpt>
      <trkpt lat="45.87169" lon="4.58753">
        <ele>377</ele>
        <time>2016-08-23T11:47:27Z</time>
      </trkpt>
      <trkpt lat="45.87166" lon="4.5876">
        <ele>377</ele>
        <time>2016-08-23T11:47:28Z</time>
      </trkpt>
      <trkpt lat="45.87162" lon="4.58767">
        <ele>377</ele>
        <time>2016-08-23T11:47:29Z</time>
      </trkpt>
      <trkpt lat="45.87159" lon="4.58774">
        <ele>377</ele>
        <time>2016-08-23T11:47:30Z</time>
      </trkpt>
      <trkpt lat="45.87156" lon="4.58782">
        <ele>377</ele>
        <time>2016-08-23T11:47:31Z</time>
      </trkpt>
      <trkpt lat="45.87152" lon="4.58789">
        <ele>377</ele>
        <time>2016-08-23T11:47:32Z</time>
      </trkpt>
      <trkpt lat="45.87149" lon="4.58797">
        <ele>378</ele>
        <time>2016-08-23T11:47:33Z</time>
      </trkpt>
      <trkpt lat="45.87146" lon="4.58805">
        <ele>378</ele>
        <time>2016-08-23T11:47:34Z</time>
      </trkpt>
      <trkpt lat="45.87143" lon="4.58812">
        <ele>378</ele>
        <time>2016-08-23T11:47:35Z</time>
      </trkpt>
      <trkpt lat="45.8714" lon="4.58819">
        <ele>378</ele>
        <time>2016-08-23T11:47:36Z</time>
      </trkpt>
      <trkpt lat="45.87137" lon="4.58826">
        <ele>378</ele>
        <time>2016-08-23T11:47:37Z</time>
      </trkpt>
      <trkpt lat="45.87134" lon="4.58832">
        <ele>378</ele>
        <time>2016-08-23T11:47:38Z</time>
      </trkpt>
      <trkpt lat="45.87131" lon="4.58839">
        <ele>377</ele>
        <time>2016-08-23T11:47:39Z</time>
      </trkpt>
      <trkpt lat="45.87128" lon="4.58845">
        <ele>377</ele>
        <time>2016-08-23T11:47:40Z</time>
      </trkpt>
      <trkpt lat="45.87126" lon="4.58851">
        <ele>377</ele>
        <time>2016-08-23T11:47:41Z</time>
      </trkpt>
      <trkpt lat="45.87123" lon="4.58858">
        <ele>377</ele>
        <time>2016-08-23T11:47:42Z</time>
      </trkpt>
      <trkpt lat="45.8712" lon="4.58864">
        <ele>377</ele>
        <time>2016-08-23T11:47:43Z</time>
      </trkpt>
      <trkpt lat="45.87117" lon="4.5887">
        <ele>377</ele>
        <time>2016-08-23T11:47:44Z</time>
      </trkpt>
      <trkpt lat="45.87114" lon="4.58877">
        <ele>377</ele>
        <time>2016-08-23T11:47:45Z</time>
      </trkpt>
      <trkpt lat="45.87111" lon="4.58884">
        <ele>377</ele>
        <time>2016-08-23T11:47:46Z</time>
      </trkpt>
      <trkpt lat="45.87108" lon="4.5889">
        <ele>377</ele>
        <time>2016-08-23T11:47:47Z</time>
      </trkpt>
      <trkpt lat="45.87105" lon="4.58897">
        <ele>376</ele>
        <time>2016-08-23T11:47:48Z</time>
      </trkpt>
      <trkpt lat="45.87102" lon="4.58903">
        <ele>376</ele>
        <time>2016-08-23T11:47:49Z</time>
      </trkpt>
      <trkpt lat="45.87099" lon="4.5891">
        <ele>376</ele>
        <time>2016-08-23T11:47:50Z</time>
      </trkpt>
      <trkpt lat="45.87096" lon="4.58916">
        <ele>376</ele>
        <time>2016-08-23T11:47:51Z</time>
      </trkpt>
      <trkpt lat="45.87093" lon="4.58922">
        <ele>374</ele>
        <time>2016-08-23T11:47:52Z</time>
      </trkpt>
      <trkpt lat="45.87089" lon="4.58929">
        <ele>374</ele>
        <time>2016-08-23T11:47:53Z</time>
      </trkpt>
      <trkpt lat="45.87086" lon="4.58936">
        <ele>374</ele>
        <time>2016-08-23T11:47:54Z</time>
      </trkpt>
      <trkpt lat="45.87083" lon="4.58943">
        <ele>374</ele>
        <time>2016-08-23T11:47:55Z</time>
      </trkpt>
      <trkpt lat="45.87079" lon="4.58951">
        <ele>373</ele>
        <time>2016-08-23T11:47:56Z</time>
      </trkpt>
      <trkpt lat="45.87076" lon="4.58958">
        <ele>373</ele>
        <time>2016-08-23T11:47:57Z</time>
      </trkpt>
      <trkpt lat="45.87072" lon="4.58966">
        <ele>373</ele>
        <time>2016-08-23T11:47:58Z</time>
      </trkpt>
      <trkpt lat="45.87068" lon="4.58973">
        <ele>372</ele>
        <time>2016-08-23T11:47:59Z</time>
      </trkpt>
      <trkpt lat="45.87064" lon="4.5898">
        <ele>372</ele>
        <time>2016-08-23T11:48:00Z</time>
      </trkpt>
      <trkpt lat="45.8706" lon="4.58988">
        <ele>372</ele>
        <time>2016-08-23T11:48:01Z</time>
      </trkpt>
      <trkpt lat="45.87056" lon="4.58995">
        <ele>372</ele>
        <time>2016-08-23T11:48:02Z</time>
      </trkpt>
      <trkpt lat="45.87051" lon="4.59002">
        <ele>370</ele>
        <time>2016-08-23T11:48:03Z</time>
      </trkpt>
      <trkpt lat="45.87047" lon="4.59009">
        <ele>370</ele>
        <time>2016-08-23T11:48:04Z</time>
      </trkpt>
      <trkpt lat="45.87042" lon="4.59016">
        <ele>370</ele>
        <time>2016-08-23T11:48:05Z</time>
      </trkpt>
      <trkpt lat="45.87037" lon="4.59024">
        <ele>370</ele>
        <time>2016-08-23T11:48:06Z</time>
      </trkpt>
      <trkpt lat="45.87032" lon="4.59032">
        <ele>370</ele>
        <time>2016-08-23T11:48:07Z</time>
      </trkpt>
      <trkpt lat="45.87028" lon="4.5904">
        <ele>370</ele>
        <time>2016-08-23T11:48:08Z</time>
      </trkpt>
      <trkpt lat="45.87022" lon="4.59047">
        <ele>369</ele>
        <time>2016-08-23T11:48:09Z</time>
      </trkpt>
      <trkpt lat="45.87017" lon="4.59055">
        <ele>369</ele>
        <time>2016-08-23T11:48:10Z</time>
      </trkpt>
      <trkpt lat="45.87012" lon="4.59062">
        <ele>369</ele>
        <time>2016-08-23T11:48:11Z</time>
      </trkpt>
      <trkpt lat="45.87007" lon="4.5907">
        <ele>369</ele>
        <time>2016-08-23T11:48:12Z</time>
      </trkpt>
      <trkpt lat="45.87001" lon="4.59078">
        <ele>369</ele>
        <time>2016-08-23T11:48:13Z</time>
      </trkpt>
      <trkpt lat="45.86996" lon="4.59086">
        <ele>369</ele>
        <time>2016-08-23T11:48:14Z</time>
      </trkpt>
      <trkpt lat="45.8699" lon="4.59094">
        <ele>368</ele>
        <time>2016-08-23T11:48:15Z</time>
      </trkpt>
      <trkpt lat="45.86984" lon="4.59102">
        <ele>367</ele>
        <time>2016-08-23T11:48:16Z</time>
      </trkpt>
      <trkpt lat="45.86978" lon="4.5911">
        <ele>367</ele>
        <time>2016-08-23T11:48:17Z</time>
      </trkpt>
      <trkpt lat="45.86972" lon="4.59118">
        <ele>367</ele>
        <time>2016-08-23T11:48:18Z</time>
      </trkpt>
      <trkpt lat="45.86965" lon="4.59127">
        <ele>367</ele>
        <time>2016-08-23T11:48:19Z</time>
      </trkpt>
      <trkpt lat="45.86959" lon="4.59134">
        <ele>366</ele>
        <time>2016-08-23T11:48:20Z</time>
      </trkpt>
      <trkpt lat="45.86952" lon="4.59142">
        <ele>366</ele>
        <time>2016-08-23T11:48:21Z</time>
      </trkpt>
      <trkpt lat="45.86944" lon="4.5915">
        <ele>366</ele>
        <time>2016-08-23T11:48:22Z</time>
      </trkpt>
      <trkpt lat="45.86937" lon="4.59158">
        <ele>366</ele>
        <time>2016-08-23T11:48:23Z</time>
      </trkpt>
      <trkpt lat="45.8693" lon="4.59167">
        <ele>366</ele>
        <time>2016-08-23T11:48:24Z</time>
      </trkpt>
      <trkpt lat="45.86923" lon="4.59175">
        <ele>364</ele>
        <time>2016-08-23T11:48:25Z</time>
      </trkpt>
      <trkpt lat="45.86917" lon="4.59183">
        <ele>363</ele>
        <time>2016-08-23T11:48:26Z</time>
      </trkpt>
      <trkpt lat="45.8691" lon="4.59191">
        <ele>362</ele>
        <time>2016-08-23T11:48:27Z</time>
      </trkpt>
      <trkpt lat="45.86903" lon="4.592">
        <ele>362</ele>
        <time>2016-08-23T11:48:28Z</time>
      </trkpt>
      <trkpt lat="45.86897" lon="4.59208">
        <ele>361</ele>
        <time>2016-08-23T11:48:29Z</time>
      </trkpt>
      <trkpt lat="45.8689" lon="4.59216">
        <ele>361</ele>
        <time>2016-08-23T11:48:30Z</time>
      </trkpt>
      <trkpt lat="45.86883" lon="4.59224">
        <ele>361</ele>
        <time>2016-08-23T11:48:31Z</time>
      </trkpt>
      <trkpt lat="45.86876" lon="4.59232">
        <ele>360</ele>
        <time>2016-08-23T11:48:32Z</time>
      </trkpt>
      <trkpt lat="45.86869" lon="4.5924">
        <ele>360</ele>
        <time>2016-08-23T11:48:33Z</time>
      </trkpt>
      <trkpt lat="45.86862" lon="4.59249">
        <ele>360</ele>
        <time>2016-08-23T11:48:34Z</time>
      </trkpt>
      <trkpt lat="45.86855" lon="4.59257">
        <ele>358</ele>
        <time>2016-08-23T11:48:35Z</time>
      </trkpt>
      <trkpt lat="45.86848" lon="4.59265">
        <ele>358</ele>
        <time>2016-08-23T11:48:36Z</time>
      </trkpt>
      <trkpt lat="45.86842" lon="4.59274">
        <ele>358</ele>
        <time>2016-08-23T11:48:37Z</time>
      </trkpt>
      <trkpt lat="45.86836" lon="4.59283">
        <ele>357</ele>
        <time>2016-08-23T11:48:38Z</time>
      </trkpt>
      <trkpt lat="45.86829" lon="4.59291">
        <ele>358</ele>
        <time>2016-08-23T11:48:39Z</time>
      </trkpt>
      <trkpt lat="45.86824" lon="4.593">
        <ele>358</ele>
        <time>2016-08-23T11:48:40Z</time>
      </trkpt>
      <trkpt lat="45.86818" lon="4.59309">
        <ele>357</ele>
        <time>2016-08-23T11:48:41Z</time>
      </trkpt>
      <trkpt lat="45.86812" lon="4.59318">
        <ele>357</ele>
        <time>2016-08-23T11:48:42Z</time>
      </trkpt>
      <trkpt lat="45.86808" lon="4.59328">
        <ele>357</ele>
        <time>2016-08-23T11:48:43Z</time>
      </trkpt>
      <trkpt lat="45.86804" lon="4.59337">
        <ele>356</ele>
        <time>2016-08-23T11:48:44Z</time>
      </trkpt>
      <trkpt lat="45.86801" lon="4.59347">
        <ele>356</ele>
        <time>2016-08-23T11:48:45Z</time>
      </trkpt>
      <trkpt lat="45.86798" lon="4.59357">
        <ele>356</ele>
        <time>2016-08-23T11:48:46Z</time>
      </trkpt>
      <trkpt lat="45.86795" lon="4.59367">
        <ele>356</ele>
        <time>2016-08-23T11:48:47Z</time>
      </trkpt>
      <trkpt lat="45.86792" lon="4.59377">
        <ele>356</ele>
        <time>2016-08-23T11:48:48Z</time>
      </trkpt>
      <trkpt lat="45.86789" lon="4.59386">
        <ele>356</ele>
        <time>2016-08-23T11:48:49Z</time>
      </trkpt>
      <trkpt lat="45.86786" lon="4.59395">
        <ele>356</ele>
        <time>2016-08-23T11:48:50Z</time>
      </trkpt>
      <trkpt lat="45.86784" lon="4.59403">
        <ele>356</ele>
        <time>2016-08-23T11:48:51Z</time>
      </trkpt>
      <trkpt lat="45.86782" lon="4.59412">
        <ele>356</ele>
        <time>2016-08-23T11:48:52Z</time>
      </trkpt>
      <trkpt lat="45.86779" lon="4.59421">
        <ele>356</ele>
        <time>2016-08-23T11:48:53Z</time>
      </trkpt>
      <trkpt lat="45.86777" lon="4.59429">
        <ele>356</ele>
        <time>2016-08-23T11:48:54Z</time>
      </trkpt>
      <trkpt lat="45.86775" lon="4.59437">
        <ele>356</ele>
        <time>2016-08-23T11:48:55Z</time>
      </trkpt>
      <trkpt lat="45.86772" lon="4.59445">
        <ele>356</ele>
        <time>2016-08-23T11:48:56Z</time>
      </trkpt>
      <trkpt lat="45.8677" lon="4.59453">
        <ele>356</ele>
        <time>2016-08-23T11:48:57Z</time>
      </trkpt>
      <trkpt lat="45.86768" lon="4.5946">
        <ele>356</ele>
        <time>2016-08-23T11:48:58Z</time>
      </trkpt>
      <trkpt lat="45.86765" lon="4.59468">
        <ele>356</ele>
        <time>2016-08-23T11:48:59Z</time>
      </trkpt>
      <trkpt lat="45.86763" lon="4.59475">
        <ele>357</ele>
        <time>2016-08-23T11:49:00Z</time>
      </trkpt>
      <trkpt lat="45.86761" lon="4.59483">
        <ele>357</ele>
        <time>2016-08-23T11:49:01Z</time>
      </trkpt>
      <trkpt lat="45.86759" lon="4.5949">
        <ele>357</ele>
        <time>2016-08-23T11:49:02Z</time>
      </trkpt>
      <trkpt lat="45.86756" lon="4.59497">
        <ele>357</ele>
        <time>2016-08-23T11:49:03Z</time>
      </trkpt>
      <trkpt lat="45.86754" lon="4.59503">
        <ele>357</ele>
        <time>2016-08-23T11:49:04Z</time>
      </trkpt>
      <trkpt lat="45.86752" lon="4.59511">
        <ele>357</ele>
        <time>2016-08-23T11:49:05Z</time>
      </trkpt>
      <trkpt lat="45.86749" lon="4.59518">
        <ele>356</ele>
        <time>2016-08-23T11:49:06Z</time>
      </trkpt>
      <trkpt lat="45.86747" lon="4.59525">
        <ele>356</ele>
        <time>2016-08-23T11:49:07Z</time>
      </trkpt>
      <trkpt lat="45.86745" lon="4.59532">
        <ele>356</ele>
        <time>2016-08-23T11:49:08Z</time>
      </trkpt>
      <trkpt lat="45.86743" lon="4.5954">
        <ele>356</ele>
        <time>2016-08-23T11:49:09Z</time>
      </trkpt>
      <trkpt lat="45.86741" lon="4.59547">
        <ele>356</ele>
        <time>2016-08-23T11:49:10Z</time>
      </trkpt>
      <trkpt lat="45.86738" lon="4.59555">
        <ele>356</ele>
        <time>2016-08-23T11:49:11Z</time>
      </trkpt>
      <trkpt lat="45.86736" lon="4.59562">
        <ele>356</ele>
        <time>2016-08-23T11:49:12Z</time>
      </trkpt>
      <trkpt lat="45.86734" lon="4.5957">
        <ele>356</ele>
        <time>2016-08-23T11:49:13Z</time>
      </trkpt>
      <trkpt lat="45.86732" lon="4.59577">
        <ele>356</ele>
        <time>2016-08-23T11:49:14Z</time>
      </trkpt>
      <trkpt lat="45.8673" lon="4.59583">
        <ele>356</ele>
        <time>2016-08-23T11:49:15Z</time>
      </trkpt>
      <trkpt lat="45.86728" lon="4.5959">
        <ele>356</ele>
        <time>2016-08-23T11:49:16Z</time>
      </trkpt>
      <trkpt lat="45.86727" lon="4.59596">
        <ele>355</ele>
        <time>2016-08-23T11:49:17Z</time>
      </trkpt>
      <trkpt lat="45.86725" lon="4.59602">
        <ele>355</ele>
        <time>2016-08-23T11:49:18Z</time>
      </trkpt>
      <trkpt lat="45.86723" lon="4.59609">
        <ele>355</ele>
        <time>2016-08-23T11:49:19Z</time>
      </trkpt>
      <trkpt lat="45.86721" lon="4.59616">
        <ele>355</ele>
        <time>2016-08-23T11:49:20Z</time>
      </trkpt>
      <trkpt lat="45.86718" lon="4.59623">
        <ele>355</ele>
        <time>2016-08-23T11:49:21Z</time>
      </trkpt>
      <trkpt lat="45.86716" lon="4.5963">
        <ele>355</ele>
        <time>2016-08-23T11:49:22Z</time>
      </trkpt>
      <trkpt lat="45.86714" lon="4.59638">
        <ele>355</ele>
        <time>2016-08-23T11:49:23Z</time>
      </trkpt>
      <trkpt lat="45.86711" lon="4.59645">
        <ele>355</ele>
        <time>2016-08-23T11:49:24Z</time>
      </trkpt>
      <trkpt lat="45.86709" lon="4.59652">
        <ele>355</ele>
        <time>2016-08-23T11:49:25Z</time>
      </trkpt>
      <trkpt lat="45.86707" lon="4.59658">
        <ele>355</ele>
        <time>2016-08-23T11:49:26Z</time>
      </trkpt>
      <trkpt lat="45.86704" lon="4.59665">
        <ele>355</ele>
        <time>2016-08-23T11:49:27Z</time>
      </trkpt>
      <trkpt lat="45.86701" lon="4.59671">
        <ele>354</ele>
        <time>2016-08-23T11:49:28Z</time>
      </trkpt>
      <trkpt lat="45.86699" lon="4.59678">
        <ele>354</ele>
        <time>2016-08-23T11:49:29Z</time>
      </trkpt>
      <trkpt lat="45.86697" lon="4.59684">
        <ele>354</ele>
        <time>2016-08-23T11:49:30Z</time>
      </trkpt>
      <trkpt lat="45.86694" lon="4.59691">
        <ele>354</ele>
        <time>2016-08-23T11:49:31Z</time>
      </trkpt>
      <trkpt lat="45.86691" lon="4.59697">
        <ele>354</ele>
        <time>2016-08-23T11:49:32Z</time>
      </trkpt>
      <trkpt lat="45.86687" lon="4.59704">
        <ele>354</ele>
        <time>2016-08-23T11:49:33Z</time>
      </trkpt>
      <trkpt lat="45.86684" lon="4.5971">
        <ele>354</ele>
        <time>2016-08-23T11:49:34Z</time>
      </trkpt>
      <trkpt lat="45.8668" lon="4.59717">
        <ele>354</ele>
        <time>2016-08-23T11:49:35Z</time>
      </trkpt>
      <trkpt lat="45.86677" lon="4.59723">
        <ele>354</ele>
        <time>2016-08-23T11:49:36Z</time>
      </trkpt>
      <trkpt lat="45.86673" lon="4.5973">
        <ele>354</ele>
        <time>2016-08-23T11:49:37Z</time>
      </trkpt>
      <trkpt lat="45.86669" lon="4.59736">
        <ele>354</ele>
        <time>2016-08-23T11:49:38Z</time>
      </trkpt>
      <trkpt lat="45.86666" lon="4.59741">
        <ele>353</ele>
        <time>2016-08-23T11:49:39Z</time>
      </trkpt>
      <trkpt lat="45.86662" lon="4.59747">
        <ele>353</ele>
        <time>2016-08-23T11:49:40Z</time>
      </trkpt>
      <trkpt lat="45.86658" lon="4.59752">
        <ele>354</ele>
        <time>2016-08-23T11:49:41Z</time>
      </trkpt>
      <trkpt lat="45.86654" lon="4.59757">
        <ele>353</ele>
        <time>2016-08-23T11:49:42Z</time>
      </trkpt>
      <trkpt lat="45.8665" lon="4.59761">
        <ele>353</ele>
        <time>2016-08-23T11:49:43Z</time>
      </trkpt>
      <trkpt lat="45.86646" lon="4.59766">
        <ele>353</ele>
        <time>2016-08-23T11:49:44Z</time>
      </trkpt>
      <trkpt lat="45.86641" lon="4.59771">
        <ele>353</ele>
        <time>2016-08-23T11:49:45Z</time>
      </trkpt>
      <trkpt lat="45.86637" lon="4.59776">
        <ele>353</ele>
        <time>2016-08-23T11:49:46Z</time>
      </trkpt>
      <trkpt lat="45.86633" lon="4.59781">
        <ele>353</ele>
        <time>2016-08-23T11:49:47Z</time>
      </trkpt>
      <trkpt lat="45.86628" lon="4.59786">
        <ele>353</ele>
        <time>2016-08-23T11:49:48Z</time>
      </trkpt>
      <trkpt lat="45.86623" lon="4.5979">
        <ele>353</ele>
        <time>2016-08-23T11:49:49Z</time>
      </trkpt>
      <trkpt lat="45.86618" lon="4.59794">
        <ele>353</ele>
        <time>2016-08-23T11:49:50Z</time>
      </trkpt>
      <trkpt lat="45.86613" lon="4.59798">
        <ele>353</ele>
        <time>2016-08-23T11:49:51Z</time>
      </trkpt>
      <trkpt lat="45.86609" lon="4.59801">
        <ele>353</ele>
        <time>2016-08-23T11:49:52Z</time>
      </trkpt>
      <trkpt lat="45.86604" lon="4.59805">
        <ele>353</ele>
        <time>2016-08-23T11:49:53Z</time>
      </trkpt>
      <trkpt lat="45.866" lon="4.59808">
        <ele>353</ele>
        <time>2016-08-23T11:49:54Z</time>
      </trkpt>
      <trkpt lat="45.86595" lon="4.59811">
        <ele>353</ele>
        <time>2016-08-23T11:49:55Z</time>
      </trkpt>
      <trkpt lat="45.86591" lon="4.59815">
        <ele>353</ele>
        <time>2016-08-23T11:49:56Z</time>
      </trkpt>
      <trkpt lat="45.86587" lon="4.59818">
        <ele>353</ele>
        <time>2016-08-23T11:49:57Z</time>
      </trkpt>
      <trkpt lat="45.86582" lon="4.59822">
        <ele>351</ele>
        <time>2016-08-23T11:49:58Z</time>
      </trkpt>
      <trkpt lat="45.86578" lon="4.59825">
        <ele>351</ele>
        <time>2016-08-23T11:49:59Z</time>
      </trkpt>
      <trkpt lat="45.86573" lon="4.59829">
        <ele>351</ele>
        <time>2016-08-23T11:50:00Z</time>
      </trkpt>
      <trkpt lat="45.86568" lon="4.59832">
        <ele>350</ele>
        <time>2016-08-23T11:50:01Z</time>
      </trkpt>
      <trkpt lat="45.86564" lon="4.59836">
        <ele>352</ele>
        <time>2016-08-23T11:50:02Z</time>
      </trkpt>
      <trkpt lat="45.86559" lon="4.5984">
        <ele>352</ele>
        <time>2016-08-23T11:50:03Z</time>
      </trkpt>
      <trkpt lat="45.86554" lon="4.59844">
        <ele>352</ele>
        <time>2016-08-23T11:50:04Z</time>
      </trkpt>
      <trkpt lat="45.86549" lon="4.59847">
        <ele>352</ele>
        <time>2016-08-23T11:50:05Z</time>
      </trkpt>
      <trkpt lat="45.86544" lon="4.59851">
        <ele>352</ele>
        <time>2016-08-23T11:50:06Z</time>
      </trkpt>
      <trkpt lat="45.86539" lon="4.59855">
        <ele>352</ele>
        <time>2016-08-23T11:50:07Z</time>
      </trkpt>
      <trkpt lat="45.86535" lon="4.59859">
        <ele>352</ele>
        <time>2016-08-23T11:50:08Z</time>
      </trkpt>
      <trkpt lat="45.8653" lon="4.59862">
        <ele>352</ele>
        <time>2016-08-23T11:50:09Z</time>
      </trkpt>
      <trkpt lat="45.86526" lon="4.59866">
        <ele>352</ele>
        <time>2016-08-23T11:50:10Z</time>
      </trkpt>
      <trkpt lat="45.86521" lon="4.59869">
        <ele>352</ele>
        <time>2016-08-23T11:50:11Z</time>
      </trkpt>
      <trkpt lat="45.86517" lon="4.59873">
        <ele>352</ele>
        <time>2016-08-23T11:50:12Z</time>
      </trkpt>
      <trkpt lat="45.86513" lon="4.59876">
        <ele>352</ele>
        <time>2016-08-23T11:50:13Z</time>
      </trkpt>
      <trkpt lat="45.86509" lon="4.59879">
        <ele>352</ele>
        <time>2016-08-23T11:50:14Z</time>
      </trkpt>
      <trkpt lat="45.86505" lon="4.59883">
        <ele>352</ele>
        <time>2016-08-23T11:50:15Z</time>
      </trkpt>
      <trkpt lat="45.865" lon="4.59886">
        <ele>352</ele>
        <time>2016-08-23T11:50:16Z</time>
      </trkpt>
      <trkpt lat="45.86496" lon="4.59889">
        <ele>349</ele>
        <time>2016-08-23T11:50:17Z</time>
      </trkpt>
      <trkpt lat="45.86492" lon="4.59893">
        <ele>349</ele>
        <time>2016-08-23T11:50:18Z</time>
      </trkpt>
      <trkpt lat="45.86488" lon="4.59896">
        <ele>349</ele>
        <time>2016-08-23T11:50:19Z</time>
      </trkpt>
      <trkpt lat="45.86484" lon="4.59899">
        <ele>350</ele>
        <time>2016-08-23T11:50:20Z</time>
      </trkpt>
      <trkpt lat="45.8648" lon="4.59903">
        <ele>349</ele>
        <time>2016-08-23T11:50:21Z</time>
      </trkpt>
      <trkpt lat="45.86476" lon="4.59907">
        <ele>349</ele>
        <time>2016-08-23T11:50:22Z</time>
      </trkpt>
      <trkpt lat="45.86471" lon="4.5991">
        <ele>349</ele>
        <time>2016-08-23T11:50:23Z</time>
      </trkpt>
      <trkpt lat="45.86466" lon="4.59914">
        <ele>349</ele>
        <time>2016-08-23T11:50:24Z</time>
      </trkpt>
      <trkpt lat="45.86461" lon="4.59918">
        <ele>352</ele>
        <time>2016-08-23T11:50:25Z</time>
      </trkpt>
      <trkpt lat="45.86456" lon="4.59922">
        <ele>351</ele>
        <time>2016-08-23T11:50:26Z</time>
      </trkpt>
      <trkpt lat="45.86451" lon="4.59926">
        <ele>351</ele>
        <time>2016-08-23T11:50:27Z</time>
      </trkpt>
      <trkpt lat="45.86446" lon="4.5993">
        <ele>351</ele>
        <time>2016-08-23T11:50:28Z</time>
      </trkpt>
      <trkpt lat="45.86441" lon="4.59935">
        <ele>351</ele>
        <time>2016-08-23T11:50:29Z</time>
      </trkpt>
      <trkpt lat="45.86435" lon="4.59939">
        <ele>350</ele>
        <time>2016-08-23T11:50:30Z</time>
      </trkpt>
      <trkpt lat="45.8643" lon="4.59944">
        <ele>350</ele>
        <time>2016-08-23T11:50:31Z</time>
      </trkpt>
      <trkpt lat="45.86424" lon="4.59948">
        <ele>350</ele>
        <time>2016-08-23T11:50:32Z</time>
      </trkpt>
      <trkpt lat="45.86418" lon="4.59952">
        <ele>350</ele>
        <time>2016-08-23T11:50:33Z</time>
      </trkpt>
      <trkpt lat="45.86412" lon="4.59957">
        <ele>345</ele>
        <time>2016-08-23T11:50:34Z</time>
      </trkpt>
      <trkpt lat="45.86407" lon="4.59963">
        <ele>345</ele>
        <time>2016-08-23T11:50:35Z</time>
      </trkpt>
      <trkpt lat="45.86401" lon="4.59968">
        <ele>345</ele>
        <time>2016-08-23T11:50:36Z</time>
      </trkpt>
      <trkpt lat="45.86395" lon="4.59974">
        <ele>345</ele>
        <time>2016-08-23T11:50:37Z</time>
      </trkpt>
      <trkpt lat="45.86389" lon="4.59981">
        <ele>345</ele>
        <time>2016-08-23T11:50:38Z</time>
      </trkpt>
      <trkpt lat="45.86383" lon="4.59988">
        <ele>345</ele>
        <time>2016-08-23T11:50:39Z</time>
      </trkpt>
      <trkpt lat="45.86377" lon="4.59995">
        <ele>345</ele>
        <time>2016-08-23T11:50:40Z</time>
      </trkpt>
      <trkpt lat="45.86371" lon="4.60002">
        <ele>345</ele>
        <time>2016-08-23T11:50:41Z</time>
      </trkpt>
      <trkpt lat="45.86366" lon="4.60011">
        <ele>345</ele>
        <time>2016-08-23T11:50:42Z</time>
      </trkpt>
      <trkpt lat="45.86361" lon="4.6002">
        <ele>345</ele>
        <time>2016-08-23T11:50:43Z</time>
      </trkpt>
      <trkpt lat="45.86356" lon="4.60029">
        <ele>344</ele>
        <time>2016-08-23T11:50:44Z</time>
      </trkpt>
      <trkpt lat="45.86351" lon="4.60039">
        <ele>344</ele>
        <time>2016-08-23T11:50:45Z</time>
      </trkpt>
      <trkpt lat="45.86346" lon="4.60049">
        <ele>344</ele>
        <time>2016-08-23T11:50:46Z</time>
      </trkpt>
      <trkpt lat="45.86341" lon="4.60059">
        <ele>344</ele>
        <time>2016-08-23T11:50:47Z</time>
      </trkpt>
      <trkpt lat="45.86336" lon="4.6007">
        <ele>343</ele>
        <time>2016-08-23T11:50:48Z</time>
      </trkpt>
      <trkpt lat="45.86332" lon="4.60081">
        <ele>342</ele>
        <time>2016-08-23T11:50:49Z</time>
      </trkpt>
      <trkpt lat="45.86328" lon="4.60092">
        <ele>342</ele>
        <time>2016-08-23T11:50:50Z</time>
      </trkpt>
      <trkpt lat="45.86324" lon="4.60104">
        <ele>342</ele>
        <time>2016-08-23T11:50:51Z</time>
      </trkpt>
      <trkpt lat="45.86321" lon="4.60116">
        <ele>343</ele>
        <time>2016-08-23T11:50:52Z</time>
      </trkpt>
      <trkpt lat="45.86317" lon="4.60128">
        <ele>343</ele>
        <time>2016-08-23T11:50:53Z</time>
      </trkpt>
      <trkpt lat="45.86314" lon="4.60139">
        <ele>344</ele>
        <time>2016-08-23T11:50:54Z</time>
      </trkpt>
      <trkpt lat="45.8631" lon="4.6015">
        <ele>344</ele>
        <time>2016-08-23T11:50:55Z</time>
      </trkpt>
      <trkpt lat="45.86307" lon="4.60161">
        <ele>344</ele>
        <time>2016-08-23T11:50:56Z</time>
      </trkpt>
      <trkpt lat="45.86304" lon="4.60171">
        <ele>345</ele>
        <time>2016-08-23T11:50:57Z</time>
      </trkpt>
      <trkpt lat="45.86301" lon="4.60181">
        <ele>345</ele>
        <time>2016-08-23T11:50:58Z</time>
      </trkpt>
      <trkpt lat="45.86299" lon="4.60191">
        <ele>344</ele>
        <time>2016-08-23T11:50:59Z</time>
      </trkpt>
      <trkpt lat="45.86296" lon="4.60201">
        <ele>344</ele>
        <time>2016-08-23T11:51:00Z</time>
      </trkpt>
      <trkpt lat="45.86293" lon="4.6021">
        <ele>344</ele>
        <time>2016-08-23T11:51:01Z</time>
      </trkpt>
      <trkpt lat="45.86291" lon="4.6022">
        <ele>344</ele>
        <time>2016-08-23T11:51:02Z</time>
      </trkpt>
      <trkpt lat="45.86288" lon="4.60228">
        <ele>344</ele>
        <time>2016-08-23T11:51:03Z</time>
      </trkpt>
      <trkpt lat="45.86286" lon="4.60237">
        <ele>344</ele>
        <time>2016-08-23T11:51:04Z</time>
      </trkpt>
      <trkpt lat="45.86285" lon="4.60246">
        <ele>343</ele>
        <time>2016-08-23T11:51:05Z</time>
      </trkpt>
      <trkpt lat="45.86285" lon="4.60254">
        <ele>344</ele>
        <time>2016-08-23T11:51:06Z</time>
      </trkpt>
      <trkpt lat="45.86284" lon="4.60263">
        <ele>344</ele>
        <time>2016-08-23T11:51:07Z</time>
      </trkpt>
      <trkpt lat="45.86283" lon="4.60271">
        <ele>344</ele>
        <time>2016-08-23T11:51:08Z</time>
      </trkpt>
      <trkpt lat="45.86282" lon="4.60278">
        <ele>344</ele>
        <time>2016-08-23T11:51:09Z</time>
      </trkpt>
      <trkpt lat="45.86282" lon="4.60286">
        <ele>344</ele>
        <time>2016-08-23T11:51:10Z</time>
      </trkpt>
      <trkpt lat="45.86281" lon="4.60294">
        <ele>344</ele>
        <time>2016-08-23T11:51:11Z</time>
      </trkpt>
      <trkpt lat="45.86281" lon="4.60302">
        <ele>344</ele>
        <time>2016-08-23T11:51:12Z</time>
      </trkpt>
      <trkpt lat="45.8628" lon="4.6031">
        <ele>344</ele>
        <time>2016-08-23T11:51:13Z</time>
      </trkpt>
      <trkpt lat="45.86279" lon="4.60318">
        <ele>344</ele>
        <time>2016-08-23T11:51:14Z</time>
      </trkpt>
      <trkpt lat="45.86277" lon="4.60326">
        <ele>344</ele>
        <time>2016-08-23T11:51:15Z</time>
      </trkpt>
      <trkpt lat="45.86276" lon="4.60335">
        <ele>344</ele>
        <time>2016-08-23T11:51:16Z</time>
      </trkpt>
      <trkpt lat="45.86275" lon="4.60343">
        <ele>344</ele>
        <time>2016-08-23T11:51:17Z</time>
      </trkpt>
      <trkpt lat="45.86273" lon="4.60351">
        <ele>344</ele>
        <time>2016-08-23T11:51:18Z</time>
      </trkpt>
      <trkpt lat="45.86271" lon="4.60359">
        <ele>344</ele>
        <time>2016-08-23T11:51:19Z</time>
      </trkpt>
      <trkpt lat="45.86269" lon="4.60367">
        <ele>344</ele>
        <time>2016-08-23T11:51:20Z</time>
      </trkpt>
      <trkpt lat="45.86268" lon="4.60374">
        <ele>344</ele>
        <time>2016-08-23T11:51:21Z</time>
      </trkpt>
      <trkpt lat="45.86267" lon="4.60382">
        <ele>344</ele>
        <time>2016-08-23T11:51:22Z</time>
      </trkpt>
      <trkpt lat="45.86266" lon="4.60389">
        <ele>344</ele>
        <time>2016-08-23T11:51:23Z</time>
      </trkpt>
      <trkpt lat="45.86265" lon="4.60396">
        <ele>344</ele>
        <time>2016-08-23T11:51:24Z</time>
      </trkpt>
      <trkpt lat="45.86263" lon="4.60404">
        <ele>343</ele>
        <time>2016-08-23T11:51:25Z</time>
      </trkpt>
      <trkpt lat="45.86261" lon="4.60411">
        <ele>343</ele>
        <time>2016-08-23T11:51:26Z</time>
      </trkpt>
      <trkpt lat="45.8626" lon="4.60418">
        <ele>343</ele>
        <time>2016-08-23T11:51:27Z</time>
      </trkpt>
      <trkpt lat="45.86258" lon="4.60425">
        <ele>343</ele>
        <time>2016-08-23T11:51:28Z</time>
      </trkpt>
      <trkpt lat="45.86256" lon="4.60432">
        <ele>343</ele>
        <time>2016-08-23T11:51:29Z</time>
      </trkpt>
      <trkpt lat="45.86253" lon="4.60438">
        <ele>343</ele>
        <time>2016-08-23T11:51:30Z</time>
      </trkpt>
      <trkpt lat="45.86251" lon="4.60445">
        <ele>343</ele>
        <time>2016-08-23T11:51:31Z</time>
      </trkpt>
      <trkpt lat="45.8625" lon="4.60451">
        <ele>341</ele>
        <time>2016-08-23T11:51:32Z</time>
      </trkpt>
      <trkpt lat="45.86248" lon="4.60458">
        <ele>341</ele>
        <time>2016-08-23T11:51:33Z</time>
      </trkpt>
      <trkpt lat="45.86245" lon="4.6047">
        <ele>341</ele>
        <time>2016-08-23T11:51:35Z</time>
      </trkpt>
      <trkpt lat="45.86244" lon="4.60475">
        <ele>341</ele>
        <time>2016-08-23T11:51:36Z</time>
      </trkpt>
      <trkpt lat="45.86241" lon="4.60487">
        <ele>341</ele>
        <time>2016-08-23T11:51:38Z</time>
      </trkpt>
      <trkpt lat="45.8624" lon="4.60493">
        <ele>341</ele>
        <time>2016-08-23T11:51:39Z</time>
      </trkpt>
      <trkpt lat="45.86239" lon="4.605">
        <ele>341</ele>
        <time>2016-08-23T11:51:40Z</time>
      </trkpt>
      <trkpt lat="45.86237" lon="4.60506">
        <ele>341</ele>
        <time>2016-08-23T11:51:41Z</time>
      </trkpt>
      <trkpt lat="45.86236" lon="4.60512">
        <ele>341</ele>
        <time>2016-08-23T11:51:42Z</time>
      </trkpt>
      <trkpt lat="45.86233" lon="4.60518">
        <ele>341</ele>
        <time>2016-08-23T11:51:43Z</time>
      </trkpt>
      <trkpt lat="45.86232" lon="4.60524">
        <ele>341</ele>
        <time>2016-08-23T11:51:44Z</time>
      </trkpt>
      <trkpt lat="45.86231" lon="4.60531">
        <ele>341</ele>
        <time>2016-08-23T11:51:45Z</time>
      </trkpt>
      <trkpt lat="45.86229" lon="4.60543">
        <ele>341</ele>
        <time>2016-08-23T11:51:47Z</time>
      </trkpt>
      <trkpt lat="45.86228" lon="4.60549">
        <ele>341</ele>
        <time>2016-08-23T11:51:48Z</time>
      </trkpt>
      <trkpt lat="45.86227" lon="4.60555">
        <ele>341</ele>
        <time>2016-08-23T11:51:49Z</time>
      </trkpt>
      <trkpt lat="45.86226" lon="4.60561">
        <ele>341</ele>
        <time>2016-08-23T11:51:50Z</time>
      </trkpt>
      <trkpt lat="45.86225" lon="4.60569">
        <ele>341</ele>
        <time>2016-08-23T11:51:51Z</time>
      </trkpt>
      <trkpt lat="45.86226" lon="4.60576">
        <ele>341</ele>
        <time>2016-08-23T11:51:52Z</time>
      </trkpt>
      <trkpt lat="45.86227" lon="4.60583">
        <ele>342</ele>
        <time>2016-08-23T11:51:53Z</time>
      </trkpt>
      <trkpt lat="45.86229" lon="4.6059">
        <ele>341</ele>
        <time>2016-08-23T11:51:54Z</time>
      </trkpt>
      <trkpt lat="45.86229" lon="4.60598">
        <ele>341</ele>
        <time>2016-08-23T11:51:55Z</time>
      </trkpt>
      <trkpt lat="45.86229" lon="4.60605">
        <ele>341</ele>
        <time>2016-08-23T11:51:56Z</time>
      </trkpt>
      <trkpt lat="45.86229" lon="4.60613">
        <ele>341</ele>
        <time>2016-08-23T11:51:57Z</time>
      </trkpt>
      <trkpt lat="45.86228" lon="4.6062">
        <ele>341</ele>
        <time>2016-08-23T11:51:58Z</time>
      </trkpt>
      <trkpt lat="45.86227" lon="4.60627">
        <ele>341</ele>
        <time>2016-08-23T11:51:59Z</time>
      </trkpt>
      <trkpt lat="45.86227" lon="4.60634">
        <ele>341</ele>
        <time>2016-08-23T11:52:00Z</time>
      </trkpt>
      <trkpt lat="45.86226" lon="4.60642">
        <ele>341</ele>
        <time>2016-08-23T11:52:01Z</time>
      </trkpt>
      <trkpt lat="45.86226" lon="4.60649">
        <ele>341</ele>
        <time>2016-08-23T11:52:02Z</time>
      </trkpt>
      <trkpt lat="45.86226" lon="4.60656">
        <ele>341</ele>
        <time>2016-08-23T11:52:03Z</time>
      </trkpt>
      <trkpt lat="45.86225" lon="4.60663">
        <ele>341</ele>
        <time>2016-08-23T11:52:04Z</time>
      </trkpt>
      <trkpt lat="45.86225" lon="4.6067">
        <ele>340</ele>
        <time>2016-08-23T11:52:05Z</time>
      </trkpt>
      <trkpt lat="45.86226" lon="4.60677">
        <ele>340</ele>
        <time>2016-08-23T11:52:06Z</time>
      </trkpt>
      <trkpt lat="45.86227" lon="4.60685">
        <ele>340</ele>
        <time>2016-08-23T11:52:07Z</time>
      </trkpt>
      <trkpt lat="45.86228" lon="4.60692">
        <ele>340</ele>
        <time>2016-08-23T11:52:08Z</time>
      </trkpt>
      <trkpt lat="45.86229" lon="4.60699">
        <ele>340</ele>
        <time>2016-08-23T11:52:09Z</time>
      </trkpt>
      <trkpt lat="45.8623" lon="4.60707">
        <ele>340</ele>
        <time>2016-08-23T11:52:10Z</time>
      </trkpt>
      <trkpt lat="45.86231" lon="4.60714">
        <ele>340</ele>
        <time>2016-08-23T11:52:11Z</time>
      </trkpt>
      <trkpt lat="45.86232" lon="4.60721">
        <ele>340</ele>
        <time>2016-08-23T11:52:12Z</time>
      </trkpt>
      <trkpt lat="45.86232" lon="4.60729">
        <ele>340</ele>
        <time>2016-08-23T11:52:13Z</time>
      </trkpt>
      <trkpt lat="45.86234" lon="4.60736">
        <ele>340</ele>
        <time>2016-08-23T11:52:14Z</time>
      </trkpt>
      <trkpt lat="45.86236" lon="4.60743">
        <ele>341</ele>
        <time>2016-08-23T11:52:15Z</time>
      </trkpt>
      <trkpt lat="45.86238" lon="4.60751">
        <ele>340</ele>
        <time>2016-08-23T11:52:16Z</time>
      </trkpt>
      <trkpt lat="45.8624" lon="4.60759">
        <ele>340</ele>
        <time>2016-08-23T11:52:17Z</time>
      </trkpt>
      <trkpt lat="45.86243" lon="4.60766">
        <ele>340</ele>
        <time>2016-08-23T11:52:18Z</time>
      </trkpt>
      <trkpt lat="45.86245" lon="4.60774">
        <ele>339</ele>
        <time>2016-08-23T11:52:19Z</time>
      </trkpt>
      <trkpt lat="45.86248" lon="4.60781">
        <ele>339</ele>
        <time>2016-08-23T11:52:20Z</time>
      </trkpt>
      <trkpt lat="45.8625" lon="4.60788">
        <ele>339</ele>
        <time>2016-08-23T11:52:21Z</time>
      </trkpt>
      <trkpt lat="45.86253" lon="4.60796">
        <ele>342</ele>
        <time>2016-08-23T11:52:22Z</time>
      </trkpt>
      <trkpt lat="45.86257" lon="4.60802">
        <ele>341</ele>
        <time>2016-08-23T11:52:23Z</time>
      </trkpt>
      <trkpt lat="45.86262" lon="4.60807">
        <ele>341</ele>
        <time>2016-08-23T11:52:24Z</time>
      </trkpt>
      <trkpt lat="45.86266" lon="4.60812">
        <ele>341</ele>
        <time>2016-08-23T11:52:25Z</time>
      </trkpt>
      <trkpt lat="45.86271" lon="4.60816">
        <ele>341</ele>
        <time>2016-08-23T11:52:26Z</time>
      </trkpt>
      <trkpt lat="45.86275" lon="4.6082">
        <ele>341</ele>
        <time>2016-08-23T11:52:27Z</time>
      </trkpt>
      <trkpt lat="45.8628" lon="4.60823">
        <ele>341</ele>
        <time>2016-08-23T11:52:28Z</time>
      </trkpt>
      <trkpt lat="45.86285" lon="4.60826">
        <ele>342</ele>
        <time>2016-08-23T11:52:29Z</time>
      </trkpt>
      <trkpt lat="45.8629" lon="4.60829">
        <ele>342</ele>
        <time>2016-08-23T11:52:30Z</time>
      </trkpt>
      <trkpt lat="45.86295" lon="4.60833">
        <ele>342</ele>
        <time>2016-08-23T11:52:31Z</time>
      </trkpt>
      <trkpt lat="45.86301" lon="4.60836">
        <ele>338</ele>
        <time>2016-08-23T11:52:32Z</time>
      </trkpt>
      <trkpt lat="45.86306" lon="4.60838">
        <ele>338</ele>
        <time>2016-08-23T11:52:33Z</time>
      </trkpt>
      <trkpt lat="45.8631" lon="4.60839">
        <ele>339</ele>
        <time>2016-08-23T11:52:34Z</time>
      </trkpt>
      <trkpt lat="45.86315" lon="4.60841">
        <ele>339</ele>
        <time>2016-08-23T11:52:35Z</time>
      </trkpt>
      <trkpt lat="45.86321" lon="4.60844">
        <ele>339</ele>
        <time>2016-08-23T11:52:36Z</time>
      </trkpt>
      <trkpt lat="45.86327" lon="4.60847">
        <ele>339</ele>
        <time>2016-08-23T11:52:37Z</time>
      </trkpt>
      <trkpt lat="45.86333" lon="4.6085">
        <ele>339</ele>
        <time>2016-08-23T11:52:38Z</time>
      </trkpt>
      <trkpt lat="45.86339" lon="4.60853">
        <ele>340</ele>
        <time>2016-08-23T11:52:39Z</time>
      </trkpt>
      <trkpt lat="45.86346" lon="4.60857">
        <ele>340</ele>
        <time>2016-08-23T11:52:40Z</time>
      </trkpt>
      <trkpt lat="45.86352" lon="4.60861">
        <ele>340</ele>
        <time>2016-08-23T11:52:41Z</time>
      </trkpt>
      <trkpt lat="45.86358" lon="4.60866">
        <ele>340</ele>
        <time>2016-08-23T11:52:42Z</time>
      </trkpt>
      <trkpt lat="45.86364" lon="4.60871">
        <ele>340</ele>
        <time>2016-08-23T11:52:43Z</time>
      </trkpt>
      <trkpt lat="45.86369" lon="4.60877">
        <ele>339</ele>
        <time>2016-08-23T11:52:44Z</time>
      </trkpt>
      <trkpt lat="45.86374" lon="4.60884">
        <ele>339</ele>
        <time>2016-08-23T11:52:45Z</time>
      </trkpt>
      <trkpt lat="45.86378" lon="4.60891">
        <ele>339</ele>
        <time>2016-08-23T11:52:46Z</time>
      </trkpt>
      <trkpt lat="45.86382" lon="4.60899">
        <ele>339</ele>
        <time>2016-08-23T11:52:47Z</time>
      </trkpt>
      <trkpt lat="45.86385" lon="4.60907">
        <ele>339</ele>
        <time>2016-08-23T11:52:48Z</time>
      </trkpt>
      <trkpt lat="45.86387" lon="4.60915">
        <ele>339</ele>
        <time>2016-08-23T11:52:49Z</time>
      </trkpt>
      <trkpt lat="45.86389" lon="4.60925">
        <ele>336</ele>
        <time>2016-08-23T11:52:50Z</time>
      </trkpt>
      <trkpt lat="45.8639" lon="4.60934">
        <ele>336</ele>
        <time>2016-08-23T11:52:51Z</time>
      </trkpt>
      <trkpt lat="45.8639" lon="4.60944">
        <ele>336</ele>
        <time>2016-08-23T11:52:52Z</time>
      </trkpt>
      <trkpt lat="45.86389" lon="4.60953">
        <ele>336</ele>
        <time>2016-08-23T11:52:53Z</time>
      </trkpt>
      <trkpt lat="45.86387" lon="4.60963">
        <ele>336</ele>
        <time>2016-08-23T11:52:54Z</time>
      </trkpt>
      <trkpt lat="45.86385" lon="4.60972">
        <ele>336</ele>
        <time>2016-08-23T11:52:55Z</time>
      </trkpt>
      <trkpt lat="45.86383" lon="4.60981">
        <ele>335</ele>
        <time>2016-08-23T11:52:56Z</time>
      </trkpt>
      <trkpt lat="45.8638" lon="4.6099">
        <ele>335</ele>
        <time>2016-08-23T11:52:57Z</time>
      </trkpt>
      <trkpt lat="45.86377" lon="4.60998">
        <ele>335</ele>
        <time>2016-08-23T11:52:58Z</time>
      </trkpt>
      <trkpt lat="45.86374" lon="4.61007">
        <ele>336</ele>
        <time>2016-08-23T11:52:59Z</time>
      </trkpt>
      <trkpt lat="45.86371" lon="4.61015">
        <ele>336</ele>
        <time>2016-08-23T11:53:00Z</time>
      </trkpt>
      <trkpt lat="45.86368" lon="4.61023">
        <ele>336</ele>
        <time>2016-08-23T11:53:01Z</time>
      </trkpt>
      <trkpt lat="45.86365" lon="4.61031">
        <ele>336</ele>
        <time>2016-08-23T11:53:02Z</time>
      </trkpt>
      <trkpt lat="45.86361" lon="4.61038">
        <ele>336</ele>
        <time>2016-08-23T11:53:03Z</time>
      </trkpt>
      <trkpt lat="45.86357" lon="4.61047">
        <ele>336</ele>
        <time>2016-08-23T11:53:04Z</time>
      </trkpt>
      <trkpt lat="45.86354" lon="4.61056">
        <ele>336</ele>
        <time>2016-08-23T11:53:05Z</time>
      </trkpt>
      <trkpt lat="45.86351" lon="4.61066">
        <ele>336</ele>
        <time>2016-08-23T11:53:06Z</time>
      </trkpt>
      <trkpt lat="45.86348" lon="4.61074">
        <ele>336</ele>
        <time>2016-08-23T11:53:07Z</time>
      </trkpt>
      <trkpt lat="45.86344" lon="4.61083">
        <ele>335</ele>
        <time>2016-08-23T11:53:08Z</time>
      </trkpt>
      <trkpt lat="45.8634" lon="4.6109">
        <ele>336</ele>
        <time>2016-08-23T11:53:09Z</time>
      </trkpt>
      <trkpt lat="45.86337" lon="4.61098">
        <ele>336</ele>
        <time>2016-08-23T11:53:10Z</time>
      </trkpt>
      <trkpt lat="45.86333" lon="4.61107">
        <ele>332</ele>
        <time>2016-08-23T11:53:11Z</time>
      </trkpt>
      <trkpt lat="45.86331" lon="4.61116">
        <ele>331</ele>
        <time>2016-08-23T11:53:12Z</time>
      </trkpt>
      <trkpt lat="45.86328" lon="4.61125">
        <ele>331</ele>
        <time>2016-08-23T11:53:13Z</time>
      </trkpt>
      <trkpt lat="45.86326" lon="4.61134">
        <ele>331</ele>
        <time>2016-08-23T11:53:14Z</time>
      </trkpt>
      <trkpt lat="45.86322" lon="4.61143">
        <ele>331</ele>
        <time>2016-08-23T11:53:15Z</time>
      </trkpt>
      <trkpt lat="45.8632" lon="4.61151">
        <ele>331</ele>
        <time>2016-08-23T11:53:16Z</time>
      </trkpt>
      <trkpt lat="45.86317" lon="4.6116">
        <ele>332</ele>
        <time>2016-08-23T11:53:17Z</time>
      </trkpt>
      <trkpt lat="45.86315" lon="4.61169">
        <ele>332</ele>
        <time>2016-08-23T11:53:18Z</time>
      </trkpt>
      <trkpt lat="45.86312" lon="4.61177">
        <ele>331</ele>
        <time>2016-08-23T11:53:19Z</time>
      </trkpt>
      <trkpt lat="45.86309" lon="4.61186">
        <ele>331</ele>
        <time>2016-08-23T11:53:20Z</time>
      </trkpt>
      <trkpt lat="45.86307" lon="4.61195">
        <ele>331</ele>
        <time>2016-08-23T11:53:21Z</time>
      </trkpt>
      <trkpt lat="45.86305" lon="4.61204">
        <ele>331</ele>
        <time>2016-08-23T11:53:22Z</time>
      </trkpt>
      <trkpt lat="45.86302" lon="4.61213">
        <ele>331</ele>
        <time>2016-08-23T11:53:23Z</time>
      </trkpt>
      <trkpt lat="45.863" lon="4.61222">
        <ele>331</ele>
        <time>2016-08-23T11:53:24Z</time>
      </trkpt>
      <trkpt lat="45.86298" lon="4.61231">
        <ele>331</ele>
        <time>2016-08-23T11:53:25Z</time>
      </trkpt>
      <trkpt lat="45.86296" lon="4.6124">
        <ele>330</ele>
        <time>2016-08-23T11:53:26Z</time>
      </trkpt>
      <trkpt lat="45.86294" lon="4.61248">
        <ele>330</ele>
        <time>2016-08-23T11:53:27Z</time>
      </trkpt>
      <trkpt lat="45.86292" lon="4.61257">
        <ele>330</ele>
        <time>2016-08-23T11:53:28Z</time>
      </trkpt>
      <trkpt lat="45.8629" lon="4.61265">
        <ele>330</ele>
        <time>2016-08-23T11:53:29Z</time>
      </trkpt>
      <trkpt lat="45.86288" lon="4.61273">
        <ele>329</ele>
        <time>2016-08-23T11:53:30Z</time>
      </trkpt>
      <trkpt lat="45.86286" lon="4.61282">
        <ele>329</ele>
        <time>2016-08-23T11:53:31Z</time>
      </trkpt>
      <trkpt lat="45.86284" lon="4.6129">
        <ele>329</ele>
        <time>2016-08-23T11:53:32Z</time>
      </trkpt>
      <trkpt lat="45.86283" lon="4.61299">
        <ele>329</ele>
        <time>2016-08-23T11:53:33Z</time>
      </trkpt>
      <trkpt lat="45.86282" lon="4.61308">
        <ele>329</ele>
        <time>2016-08-23T11:53:34Z</time>
      </trkpt>
      <trkpt lat="45.8628" lon="4.61316">
        <ele>329</ele>
        <time>2016-08-23T11:53:35Z</time>
      </trkpt>
      <trkpt lat="45.86279" lon="4.61325">
        <ele>328</ele>
        <time>2016-08-23T11:53:36Z</time>
      </trkpt>
      <trkpt lat="45.86277" lon="4.61334">
        <ele>327</ele>
        <time>2016-08-23T11:53:37Z</time>
      </trkpt>
      <trkpt lat="45.86276" lon="4.61343">
        <ele>327</ele>
        <time>2016-08-23T11:53:38Z</time>
      </trkpt>
      <trkpt lat="45.86274" lon="4.61353">
        <ele>327</ele>
        <time>2016-08-23T11:53:39Z</time>
      </trkpt>
      <trkpt lat="45.86273" lon="4.61364">
        <ele>328</ele>
        <time>2016-08-23T11:53:40Z</time>
      </trkpt>
      <trkpt lat="45.86271" lon="4.61374">
        <ele>328</ele>
        <time>2016-08-23T11:53:41Z</time>
      </trkpt>
      <trkpt lat="45.86269" lon="4.61384">
        <ele>328</ele>
        <time>2016-08-23T11:53:42Z</time>
      </trkpt>
      <trkpt lat="45.86268" lon="4.61394">
        <ele>327</ele>
        <time>2016-08-23T11:53:43Z</time>
      </trkpt>
      <trkpt lat="45.86266" lon="4.61404">
        <ele>327</ele>
        <time>2016-08-23T11:53:44Z</time>
      </trkpt>
      <trkpt lat="45.86264" lon="4.61414">
        <ele>327</ele>
        <time>2016-08-23T11:53:45Z</time>
      </trkpt>
      <trkpt lat="45.8626" lon="4.61424">
        <ele>326</ele>
        <time>2016-08-23T11:53:46Z</time>
      </trkpt>
      <trkpt lat="45.86257" lon="4.61434">
        <ele>326</ele>
        <time>2016-08-23T11:53:47Z</time>
      </trkpt>
      <trkpt lat="45.86253" lon="4.61443">
        <ele>326</ele>
        <time>2016-08-23T11:53:48Z</time>
      </trkpt>
      <trkpt lat="45.8625" lon="4.61453">
        <ele>324</ele>
        <time>2016-08-23T11:53:49Z</time>
      </trkpt>
      <trkpt lat="45.86246" lon="4.61462">
        <ele>324</ele>
        <time>2016-08-23T11:53:50Z</time>
      </trkpt>
      <trkpt lat="45.86242" lon="4.61471">
        <ele>324</ele>
        <time>2016-08-23T11:53:51Z</time>
      </trkpt>
      <trkpt lat="45.86239" lon="4.61481">
        <ele>324</ele>
        <time>2016-08-23T11:53:52Z</time>
      </trkpt>
      <trkpt lat="45.86236" lon="4.6149">
        <ele>324</ele>
        <time>2016-08-23T11:53:53Z</time>
      </trkpt>
      <trkpt lat="45.86233" lon="4.61499">
        <ele>324</ele>
        <time>2016-08-23T11:53:54Z</time>
      </trkpt>
      <trkpt lat="45.8623" lon="4.61508">
        <ele>323</ele>
        <time>2016-08-23T11:53:55Z</time>
      </trkpt>
      <trkpt lat="45.86227" lon="4.61518">
        <ele>322</ele>
        <time>2016-08-23T11:53:56Z</time>
      </trkpt>
      <trkpt lat="45.86224" lon="4.61527">
        <ele>322</ele>
        <time>2016-08-23T11:53:57Z</time>
      </trkpt>
      <trkpt lat="45.8622" lon="4.61536">
        <ele>322</ele>
        <time>2016-08-23T11:53:58Z</time>
      </trkpt>
      <trkpt lat="45.86215" lon="4.61544">
        <ele>322</ele>
        <time>2016-08-23T11:53:59Z</time>
      </trkpt>
      <trkpt lat="45.8621" lon="4.61551">
        <ele>322</ele>
        <time>2016-08-23T11:54:00Z</time>
      </trkpt>
      <trkpt lat="45.86204" lon="4.61557">
        <ele>321</ele>
        <time>2016-08-23T11:54:01Z</time>
      </trkpt>
      <trkpt lat="45.86198" lon="4.61561">
        <ele>321</ele>
        <time>2016-08-23T11:54:02Z</time>
      </trkpt>
      <trkpt lat="45.86191" lon="4.61565">
        <ele>321</ele>
        <time>2016-08-23T11:54:03Z</time>
      </trkpt>
      <trkpt lat="45.86184" lon="4.6157">
        <ele>321</ele>
        <time>2016-08-23T11:54:04Z</time>
      </trkpt>
      <trkpt lat="45.86177" lon="4.61574">
        <ele>320</ele>
        <time>2016-08-23T11:54:05Z</time>
      </trkpt>
      <trkpt lat="45.8617" lon="4.61579">
        <ele>320</ele>
        <time>2016-08-23T11:54:06Z</time>
      </trkpt>
      <trkpt lat="45.86164" lon="4.61585">
        <ele>319</ele>
        <time>2016-08-23T11:54:07Z</time>
      </trkpt>
      <trkpt lat="45.86158" lon="4.61591">
        <ele>319</ele>
        <time>2016-08-23T11:54:08Z</time>
      </trkpt>
      <trkpt lat="45.86153" lon="4.61599">
        <ele>318</ele>
        <time>2016-08-23T11:54:09Z</time>
      </trkpt>
      <trkpt lat="45.86148" lon="4.61607">
        <ele>318</ele>
        <time>2016-08-23T11:54:10Z</time>
      </trkpt>
      <trkpt lat="45.86143" lon="4.61616">
        <ele>318</ele>
        <time>2016-08-23T11:54:11Z</time>
      </trkpt>
      <trkpt lat="45.86139" lon="4.61625">
        <ele>318</ele>
        <time>2016-08-23T11:54:12Z</time>
      </trkpt>
      <trkpt lat="45.86134" lon="4.61634">
        <ele>318</ele>
        <time>2016-08-23T11:54:13Z</time>
      </trkpt>
      <trkpt lat="45.86129" lon="4.61643">
        <ele>318</ele>
        <time>2016-08-23T11:54:14Z</time>
      </trkpt>
      <trkpt lat="45.86125" lon="4.61652">
        <ele>318</ele>
        <time>2016-08-23T11:54:15Z</time>
      </trkpt>
      <trkpt lat="45.8612" lon="4.6166">
        <ele>318</ele>
        <time>2016-08-23T11:54:16Z</time>
      </trkpt>
      <trkpt lat="45.86117" lon="4.6167">
        <ele>318</ele>
        <time>2016-08-23T11:54:17Z</time>
      </trkpt>
      <trkpt lat="45.86114" lon="4.6168">
        <ele>318</ele>
        <time>2016-08-23T11:54:18Z</time>
      </trkpt>
      <trkpt lat="45.86111" lon="4.61691">
        <ele>318</ele>
        <time>2016-08-23T11:54:19Z</time>
      </trkpt>
      <trkpt lat="45.86108" lon="4.61702">
        <ele>319</ele>
        <time>2016-08-23T11:54:20Z</time>
      </trkpt>
      <trkpt lat="45.86106" lon="4.61713">
        <ele>319</ele>
        <time>2016-08-23T11:54:21Z</time>
      </trkpt>
      <trkpt lat="45.86103" lon="4.61724">
        <ele>318</ele>
        <time>2016-08-23T11:54:22Z</time>
      </trkpt>
      <trkpt lat="45.86099" lon="4.61735">
        <ele>318</ele>
        <time>2016-08-23T11:54:23Z</time>
      </trkpt>
      <trkpt lat="45.86094" lon="4.61744">
        <ele>317</ele>
        <time>2016-08-23T11:54:24Z</time>
      </trkpt>
      <trkpt lat="45.86088" lon="4.61752">
        <ele>317</ele>
        <time>2016-08-23T11:54:25Z</time>
      </trkpt>
      <trkpt lat="45.86081" lon="4.61758">
        <ele>315</ele>
        <time>2016-08-23T11:54:26Z</time>
      </trkpt>
      <trkpt lat="45.86074" lon="4.61764">
        <ele>315</ele>
        <time>2016-08-23T11:54:27Z</time>
      </trkpt>
      <trkpt lat="45.86067" lon="4.61769">
        <ele>315</ele>
        <time>2016-08-23T11:54:28Z</time>
      </trkpt>
      <trkpt lat="45.86061" lon="4.61774">
        <ele>314</ele>
        <time>2016-08-23T11:54:29Z</time>
      </trkpt>
      <trkpt lat="45.86054" lon="4.61779">
        <ele>314</ele>
        <time>2016-08-23T11:54:30Z</time>
      </trkpt>
      <trkpt lat="45.86047" lon="4.61785">
        <ele>314</ele>
        <time>2016-08-23T11:54:31Z</time>
      </trkpt>
      <trkpt lat="45.86041" lon="4.61791">
        <ele>314</ele>
        <time>2016-08-23T11:54:32Z</time>
      </trkpt>
      <trkpt lat="45.86035" lon="4.61798">
        <ele>313</ele>
        <time>2016-08-23T11:54:33Z</time>
      </trkpt>
      <trkpt lat="45.86029" lon="4.61805">
        <ele>313</ele>
        <time>2016-08-23T11:54:34Z</time>
      </trkpt>
      <trkpt lat="45.86024" lon="4.61813">
        <ele>313</ele>
        <time>2016-08-23T11:54:35Z</time>
      </trkpt>
      <trkpt lat="45.86018" lon="4.61822">
        <ele>312</ele>
        <time>2016-08-23T11:54:36Z</time>
      </trkpt>
      <trkpt lat="45.86013" lon="4.6183">
        <ele>312</ele>
        <time>2016-08-23T11:54:37Z</time>
      </trkpt>
      <trkpt lat="45.86008" lon="4.61838">
        <ele>311</ele>
        <time>2016-08-23T11:54:38Z</time>
      </trkpt>
      <trkpt lat="45.86002" lon="4.61846">
        <ele>311</ele>
        <time>2016-08-23T11:54:39Z</time>
      </trkpt>
      <trkpt lat="45.85997" lon="4.61853">
        <ele>309</ele>
        <time>2016-08-23T11:54:40Z</time>
      </trkpt>
      <trkpt lat="45.85992" lon="4.61862">
        <ele>309</ele>
        <time>2016-08-23T11:54:41Z</time>
      </trkpt>
      <trkpt lat="45.85987" lon="4.6187">
        <ele>309</ele>
        <time>2016-08-23T11:54:42Z</time>
      </trkpt>
      <trkpt lat="45.85983" lon="4.61879">
        <ele>309</ele>
        <time>2016-08-23T11:54:43Z</time>
      </trkpt>
      <trkpt lat="45.85979" lon="4.61889">
        <ele>309</ele>
        <time>2016-08-23T11:54:44Z</time>
      </trkpt>
      <trkpt lat="45.85975" lon="4.61899">
        <ele>309</ele>
        <time>2016-08-23T11:54:45Z</time>
      </trkpt>
      <trkpt lat="45.85973" lon="4.61909">
        <ele>309</ele>
        <time>2016-08-23T11:54:46Z</time>
      </trkpt>
      <trkpt lat="45.85972" lon="4.6192">
        <ele>308</ele>
        <time>2016-08-23T11:54:47Z</time>
      </trkpt>
      <trkpt lat="45.8597" lon="4.61931">
        <ele>308</ele>
        <time>2016-08-23T11:54:48Z</time>
      </trkpt>
      <trkpt lat="45.8597" lon="4.61942">
        <ele>308</ele>
        <time>2016-08-23T11:54:49Z</time>
      </trkpt>
      <trkpt lat="45.85969" lon="4.61952">
        <ele>307</ele>
        <time>2016-08-23T11:54:50Z</time>
      </trkpt>
      <trkpt lat="45.85968" lon="4.61963">
        <ele>307</ele>
        <time>2016-08-23T11:54:51Z</time>
      </trkpt>
      <trkpt lat="45.85966" lon="4.61974">
        <ele>307</ele>
        <time>2016-08-23T11:54:52Z</time>
      </trkpt>
      <trkpt lat="45.85964" lon="4.61985">
        <ele>307</ele>
        <time>2016-08-23T11:54:53Z</time>
      </trkpt>
      <trkpt lat="45.85961" lon="4.61995">
        <ele>307</ele>
        <time>2016-08-23T11:54:54Z</time>
      </trkpt>
      <trkpt lat="45.85958" lon="4.62005">
        <ele>305</ele>
        <time>2016-08-23T11:54:55Z</time>
      </trkpt>
      <trkpt lat="45.85954" lon="4.62015">
        <ele>305</ele>
        <time>2016-08-23T11:54:56Z</time>
      </trkpt>
      <trkpt lat="45.8595" lon="4.62024">
        <ele>305</ele>
        <time>2016-08-23T11:54:57Z</time>
      </trkpt>
      <trkpt lat="45.85946" lon="4.62033">
        <ele>304</ele>
        <time>2016-08-23T11:54:58Z</time>
      </trkpt>
      <trkpt lat="45.85942" lon="4.62043">
        <ele>304</ele>
        <time>2016-08-23T11:54:59Z</time>
      </trkpt>
      <trkpt lat="45.85938" lon="4.62052">
        <ele>304</ele>
        <time>2016-08-23T11:55:00Z</time>
      </trkpt>
      <trkpt lat="45.85934" lon="4.62061">
        <ele>304</ele>
        <time>2016-08-23T11:55:01Z</time>
      </trkpt>
      <trkpt lat="45.8593" lon="4.6207">
        <ele>303</ele>
        <time>2016-08-23T11:55:02Z</time>
      </trkpt>
      <trkpt lat="45.85927" lon="4.62079">
        <ele>303</ele>
        <time>2016-08-23T11:55:03Z</time>
      </trkpt>
      <trkpt lat="45.85924" lon="4.62088">
        <ele>303</ele>
        <time>2016-08-23T11:55:04Z</time>
      </trkpt>
      <trkpt lat="45.8592" lon="4.62097">
        <ele>303</ele>
        <time>2016-08-23T11:55:05Z</time>
      </trkpt>
      <trkpt lat="45.85915" lon="4.62106">
        <ele>301</ele>
        <time>2016-08-23T11:55:06Z</time>
      </trkpt>
      <trkpt lat="45.85912" lon="4.62115">
        <ele>301</ele>
        <time>2016-08-23T11:55:07Z</time>
      </trkpt>
      <trkpt lat="45.85908" lon="4.62125">
        <ele>301</ele>
        <time>2016-08-23T11:55:08Z</time>
      </trkpt>
      <trkpt lat="45.85905" lon="4.62134">
        <ele>301</ele>
        <time>2016-08-23T11:55:09Z</time>
      </trkpt>
      <trkpt lat="45.85901" lon="4.62144">
        <ele>301</ele>
        <time>2016-08-23T11:55:10Z</time>
      </trkpt>
      <trkpt lat="45.85898" lon="4.62154">
        <ele>300</ele>
        <time>2016-08-23T11:55:11Z</time>
      </trkpt>
      <trkpt lat="45.85894" lon="4.62163">
        <ele>300</ele>
        <time>2016-08-23T11:55:12Z</time>
      </trkpt>
      <trkpt lat="45.8589" lon="4.62173">
        <ele>300</ele>
        <time>2016-08-23T11:55:13Z</time>
      </trkpt>
      <trkpt lat="45.85886" lon="4.62182">
        <ele>300</ele>
        <time>2016-08-23T11:55:14Z</time>
      </trkpt>
      <trkpt lat="45.85882" lon="4.62192">
        <ele>299</ele>
        <time>2016-08-23T11:55:15Z</time>
      </trkpt>
      <trkpt lat="45.85878" lon="4.62201">
        <ele>299</ele>
        <time>2016-08-23T11:55:16Z</time>
      </trkpt>
      <trkpt lat="45.85874" lon="4.6221">
        <ele>299</ele>
        <time>2016-08-23T11:55:17Z</time>
      </trkpt>
      <trkpt lat="45.8587" lon="4.6222">
        <ele>299</ele>
        <time>2016-08-23T11:55:18Z</time>
      </trkpt>
      <trkpt lat="45.85866" lon="4.62228">
        <ele>299</ele>
        <time>2016-08-23T11:55:19Z</time>
      </trkpt>
      <trkpt lat="45.85861" lon="4.62237">
        <ele>299</ele>
        <time>2016-08-23T11:55:20Z</time>
      </trkpt>
      <trkpt lat="45.85857" lon="4.62244">
        <ele>299</ele>
        <time>2016-08-23T11:55:21Z</time>
      </trkpt>
      <trkpt lat="45.85851" lon="4.62252">
        <ele>299</ele>
        <time>2016-08-23T11:55:22Z</time>
      </trkpt>
      <trkpt lat="45.85846" lon="4.62258">
        <ele>299</ele>
        <time>2016-08-23T11:55:23Z</time>
      </trkpt>
      <trkpt lat="45.85841" lon="4.62264">
        <ele>299</ele>
        <time>2016-08-23T11:55:24Z</time>
      </trkpt>
      <trkpt lat="45.85835" lon="4.6227">
        <ele>298</ele>
        <time>2016-08-23T11:55:25Z</time>
      </trkpt>
      <trkpt lat="45.8583" lon="4.62275">
        <ele>298</ele>
        <time>2016-08-23T11:55:26Z</time>
      </trkpt>
      <trkpt lat="45.85825" lon="4.6228">
        <ele>298</ele>
        <time>2016-08-23T11:55:27Z</time>
      </trkpt>
      <trkpt lat="45.8582" lon="4.62286">
        <ele>298</ele>
        <time>2016-08-23T11:55:28Z</time>
      </trkpt>
      <trkpt lat="45.85815" lon="4.62291">
        <ele>298</ele>
        <time>2016-08-23T11:55:29Z</time>
      </trkpt>
      <trkpt lat="45.8581" lon="4.62297">
        <ele>298</ele>
        <time>2016-08-23T11:55:30Z</time>
      </trkpt>
      <trkpt lat="45.85805" lon="4.62302">
        <ele>297</ele>
        <time>2016-08-23T11:55:31Z</time>
      </trkpt>
      <trkpt lat="45.85799" lon="4.62308">
        <ele>297</ele>
        <time>2016-08-23T11:55:32Z</time>
      </trkpt>
      <trkpt lat="45.85794" lon="4.62315">
        <ele>297</ele>
        <time>2016-08-23T11:55:33Z</time>
      </trkpt>
      <trkpt lat="45.85789" lon="4.62321">
        <ele>297</ele>
        <time>2016-08-23T11:55:34Z</time>
      </trkpt>
      <trkpt lat="45.85784" lon="4.62329">
        <ele>297</ele>
        <time>2016-08-23T11:55:35Z</time>
      </trkpt>
      <trkpt lat="45.85779" lon="4.62336">
        <ele>296</ele>
        <time>2016-08-23T11:55:36Z</time>
      </trkpt>
      <trkpt lat="45.85775" lon="4.62343">
        <ele>296</ele>
        <time>2016-08-23T11:55:37Z</time>
      </trkpt>
      <trkpt lat="45.8577" lon="4.62351">
        <ele>296</ele>
        <time>2016-08-23T11:55:38Z</time>
      </trkpt>
      <trkpt lat="45.85765" lon="4.62358">
        <ele>296</ele>
        <time>2016-08-23T11:55:39Z</time>
      </trkpt>
      <trkpt lat="45.85761" lon="4.62365">
        <ele>296</ele>
        <time>2016-08-23T11:55:40Z</time>
      </trkpt>
      <trkpt lat="45.85757" lon="4.62373">
        <ele>296</ele>
        <time>2016-08-23T11:55:41Z</time>
      </trkpt>
      <trkpt lat="45.85753" lon="4.6238">
        <ele>296</ele>
        <time>2016-08-23T11:55:42Z</time>
      </trkpt>
      <trkpt lat="45.85749" lon="4.62386">
        <ele>295</ele>
        <time>2016-08-23T11:55:43Z</time>
      </trkpt>
      <trkpt lat="45.85745" lon="4.62393">
        <ele>295</ele>
        <time>2016-08-23T11:55:44Z</time>
      </trkpt>
      <trkpt lat="45.85741" lon="4.62399">
        <ele>295</ele>
        <time>2016-08-23T11:55:45Z</time>
      </trkpt>
      <trkpt lat="45.85738" lon="4.62406">
        <ele>295</ele>
        <time>2016-08-23T11:55:46Z</time>
      </trkpt>
      <trkpt lat="45.85734" lon="4.62412">
        <ele>295</ele>
        <time>2016-08-23T11:55:47Z</time>
      </trkpt>
      <trkpt lat="45.85731" lon="4.62419">
        <ele>295</ele>
        <time>2016-08-23T11:55:48Z</time>
      </trkpt>
      <trkpt lat="45.85728" lon="4.62425">
        <ele>295</ele>
        <time>2016-08-23T11:55:49Z</time>
      </trkpt>
      <trkpt lat="45.85725" lon="4.62432">
        <ele>295</ele>
        <time>2016-08-23T11:55:50Z</time>
      </trkpt>
      <trkpt lat="45.85722" lon="4.62439">
        <ele>295</ele>
        <time>2016-08-23T11:55:51Z</time>
      </trkpt>
      <trkpt lat="45.85719" lon="4.62445">
        <ele>295</ele>
        <time>2016-08-23T11:55:52Z</time>
      </trkpt>
      <trkpt lat="45.85716" lon="4.62452">
        <ele>295</ele>
        <time>2016-08-23T11:55:53Z</time>
      </trkpt>
      <trkpt lat="45.85712" lon="4.62459">
        <ele>295</ele>
        <time>2016-08-23T11:55:54Z</time>
      </trkpt>
      <trkpt lat="45.85709" lon="4.62467">
        <ele>295</ele>
        <time>2016-08-23T11:55:55Z</time>
      </trkpt>
      <trkpt lat="45.85706" lon="4.62474">
        <ele>295</ele>
        <time>2016-08-23T11:55:56Z</time>
      </trkpt>
      <trkpt lat="45.85703" lon="4.62483">
        <ele>295</ele>
        <time>2016-08-23T11:55:57Z</time>
      </trkpt>
      <trkpt lat="45.85699" lon="4.62491">
        <ele>295</ele>
        <time>2016-08-23T11:55:58Z</time>
      </trkpt>
      <trkpt lat="45.85697" lon="4.625">
        <ele>295</ele>
        <time>2016-08-23T11:55:59Z</time>
      </trkpt>
      <trkpt lat="45.85694" lon="4.62509">
        <ele>295</ele>
        <time>2016-08-23T11:56:00Z</time>
      </trkpt>
      <trkpt lat="45.85691" lon="4.62517">
        <ele>295</ele>
        <time>2016-08-23T11:56:01Z</time>
      </trkpt>
      <trkpt lat="45.85689" lon="4.62526">
        <ele>295</ele>
        <time>2016-08-23T11:56:02Z</time>
      </trkpt>
      <trkpt lat="45.85687" lon="4.62534">
        <ele>295</ele>
        <time>2016-08-23T11:56:03Z</time>
      </trkpt>
      <trkpt lat="45.85684" lon="4.62542">
        <ele>295</ele>
        <time>2016-08-23T11:56:04Z</time>
      </trkpt>
      <trkpt lat="45.85682" lon="4.6255">
        <ele>295</ele>
        <time>2016-08-23T11:56:05Z</time>
      </trkpt>
      <trkpt lat="45.8568" lon="4.62558">
        <ele>295</ele>
        <time>2016-08-23T11:56:06Z</time>
      </trkpt>
      <trkpt lat="45.85678" lon="4.62566">
        <ele>295</ele>
        <time>2016-08-23T11:56:07Z</time>
      </trkpt>
      <trkpt lat="45.85675" lon="4.62575">
        <ele>295</ele>
        <time>2016-08-23T11:56:08Z</time>
      </trkpt>
      <trkpt lat="45.85673" lon="4.62582">
        <ele>295</ele>
        <time>2016-08-23T11:56:09Z</time>
      </trkpt>
      <trkpt lat="45.8567" lon="4.62589">
        <ele>295</ele>
        <time>2016-08-23T11:56:10Z</time>
      </trkpt>
      <trkpt lat="45.85668" lon="4.62597">
        <ele>295</ele>
        <time>2016-08-23T11:56:11Z</time>
      </trkpt>
      <trkpt lat="45.85666" lon="4.62605">
        <ele>294</ele>
        <time>2016-08-23T11:56:12Z</time>
      </trkpt>
      <trkpt lat="45.85664" lon="4.62613">
        <ele>294</ele>
        <time>2016-08-23T11:56:13Z</time>
      </trkpt>
      <trkpt lat="45.85662" lon="4.6262">
        <ele>294</ele>
        <time>2016-08-23T11:56:14Z</time>
      </trkpt>
      <trkpt lat="45.8566" lon="4.62627">
        <ele>294</ele>
        <time>2016-08-23T11:56:15Z</time>
      </trkpt>
      <trkpt lat="45.85657" lon="4.62635">
        <ele>294</ele>
        <time>2016-08-23T11:56:16Z</time>
      </trkpt>
      <trkpt lat="45.85655" lon="4.62643">
        <ele>294</ele>
        <time>2016-08-23T11:56:17Z</time>
      </trkpt>
      <trkpt lat="45.85652" lon="4.62651">
        <ele>294</ele>
        <time>2016-08-23T11:56:18Z</time>
      </trkpt>
      <trkpt lat="45.8565" lon="4.62658">
        <ele>294</ele>
        <time>2016-08-23T11:56:19Z</time>
      </trkpt>
      <trkpt lat="45.85647" lon="4.62666">
        <ele>294</ele>
        <time>2016-08-23T11:56:20Z</time>
      </trkpt>
      <trkpt lat="45.85645" lon="4.62674">
        <ele>293</ele>
        <time>2016-08-23T11:56:21Z</time>
      </trkpt>
      <trkpt lat="45.85643" lon="4.62682">
        <ele>293</ele>
        <time>2016-08-23T11:56:22Z</time>
      </trkpt>
      <trkpt lat="45.85642" lon="4.6269">
        <ele>293</ele>
        <time>2016-08-23T11:56:23Z</time>
      </trkpt>
      <trkpt lat="45.8564" lon="4.62698">
        <ele>293</ele>
        <time>2016-08-23T11:56:24Z</time>
      </trkpt>
      <trkpt lat="45.85639" lon="4.62706">
        <ele>293</ele>
        <time>2016-08-23T11:56:25Z</time>
      </trkpt>
      <trkpt lat="45.85637" lon="4.62714">
        <ele>293</ele>
        <time>2016-08-23T11:56:26Z</time>
      </trkpt>
      <trkpt lat="45.85636" lon="4.62722">
        <ele>293</ele>
        <time>2016-08-23T11:56:27Z</time>
      </trkpt>
      <trkpt lat="45.85635" lon="4.62731">
        <ele>293</ele>
        <time>2016-08-23T11:56:28Z</time>
      </trkpt>
      <trkpt lat="45.85634" lon="4.62739">
        <ele>292</ele>
        <time>2016-08-23T11:56:29Z</time>
      </trkpt>
      <trkpt lat="45.85632" lon="4.62748">
        <ele>292</ele>
        <time>2016-08-23T11:56:30Z</time>
      </trkpt>
      <trkpt lat="45.8563" lon="4.62755">
        <ele>291</ele>
        <time>2016-08-23T11:56:31Z</time>
      </trkpt>
      <trkpt lat="45.85629" lon="4.62763">
        <ele>291</ele>
        <time>2016-08-23T11:56:32Z</time>
      </trkpt>
      <trkpt lat="45.85628" lon="4.62771">
        <ele>291</ele>
        <time>2016-08-23T11:56:33Z</time>
      </trkpt>
      <trkpt lat="45.85627" lon="4.62779">
        <ele>291</ele>
        <time>2016-08-23T11:56:34Z</time>
      </trkpt>
      <trkpt lat="45.85626" lon="4.62787">
        <ele>291</ele>
        <time>2016-08-23T11:56:35Z</time>
      </trkpt>
      <trkpt lat="45.85625" lon="4.62796">
        <ele>290</ele>
        <time>2016-08-23T11:56:36Z</time>
      </trkpt>
      <trkpt lat="45.85624" lon="4.62804">
        <ele>290</ele>
        <time>2016-08-23T11:56:37Z</time>
      </trkpt>
      <trkpt lat="45.85622" lon="4.62811">
        <ele>290</ele>
        <time>2016-08-23T11:56:38Z</time>
      </trkpt>
      <trkpt lat="45.85621" lon="4.62819">
        <ele>290</ele>
        <time>2016-08-23T11:56:39Z</time>
      </trkpt>
      <trkpt lat="45.8562" lon="4.62828">
        <ele>290</ele>
        <time>2016-08-23T11:56:40Z</time>
      </trkpt>
      <trkpt lat="45.85618" lon="4.62836">
        <ele>289</ele>
        <time>2016-08-23T11:56:41Z</time>
      </trkpt>
      <trkpt lat="45.85617" lon="4.62844">
        <ele>289</ele>
        <time>2016-08-23T11:56:42Z</time>
      </trkpt>
      <trkpt lat="45.85616" lon="4.62852">
        <ele>289</ele>
        <time>2016-08-23T11:56:43Z</time>
      </trkpt>
      <trkpt lat="45.85614" lon="4.62861">
        <ele>289</ele>
        <time>2016-08-23T11:56:44Z</time>
      </trkpt>
      <trkpt lat="45.85613" lon="4.6287">
        <ele>288</ele>
        <time>2016-08-23T11:56:45Z</time>
      </trkpt>
      <trkpt lat="45.85612" lon="4.6288">
        <ele>288</ele>
        <time>2016-08-23T11:56:46Z</time>
      </trkpt>
      <trkpt lat="45.85611" lon="4.6289">
        <ele>288</ele>
        <time>2016-08-23T11:56:47Z</time>
      </trkpt>
      <trkpt lat="45.8561" lon="4.629">
        <ele>288</ele>
        <time>2016-08-23T11:56:48Z</time>
      </trkpt>
      <trkpt lat="45.85609" lon="4.6291">
        <ele>288</ele>
        <time>2016-08-23T11:56:49Z</time>
      </trkpt>
      <trkpt lat="45.85608" lon="4.6292">
        <ele>289</ele>
        <time>2016-08-23T11:56:50Z</time>
      </trkpt>
      <trkpt lat="45.85608" lon="4.62931">
        <ele>289</ele>
        <time>2016-08-23T11:56:51Z</time>
      </trkpt>
      <trkpt lat="45.85609" lon="4.62941">
        <ele>289</ele>
        <time>2016-08-23T11:56:52Z</time>
      </trkpt>
      <trkpt lat="45.8561" lon="4.62952">
        <ele>289</ele>
        <time>2016-08-23T11:56:53Z</time>
      </trkpt>
      <trkpt lat="45.85612" lon="4.62962">
        <ele>290</ele>
        <time>2016-08-23T11:56:54Z</time>
      </trkpt>
      <trkpt lat="45.85615" lon="4.62973">
        <ele>290</ele>
        <time>2016-08-23T11:56:55Z</time>
      </trkpt>
      <trkpt lat="45.85618" lon="4.62983">
        <ele>290</ele>
        <time>2016-08-23T11:56:56Z</time>
      </trkpt>
      <trkpt lat="45.85621" lon="4.62993">
        <ele>290</ele>
        <time>2016-08-23T11:56:57Z</time>
      </trkpt>
      <trkpt lat="45.85623" lon="4.63003">
        <ele>291</ele>
        <time>2016-08-23T11:56:58Z</time>
      </trkpt>
      <trkpt lat="45.85626" lon="4.63012">
        <ele>291</ele>
        <time>2016-08-23T11:56:59Z</time>
      </trkpt>
      <trkpt lat="45.85629" lon="4.63022">
        <ele>291</ele>
        <time>2016-08-23T11:57:00Z</time>
      </trkpt>
      <trkpt lat="45.85632" lon="4.63034">
        <ele>291</ele>
        <time>2016-08-23T11:57:01Z</time>
      </trkpt>
      <trkpt lat="45.85634" lon="4.63045">
        <ele>291</ele>
        <time>2016-08-23T11:57:02Z</time>
      </trkpt>
      <trkpt lat="45.85636" lon="4.63057">
        <ele>291</ele>
        <time>2016-08-23T11:57:03Z</time>
      </trkpt>
      <trkpt lat="45.85636" lon="4.6307">
        <ele>291</ele>
        <time>2016-08-23T11:57:04Z</time>
      </trkpt>
      <trkpt lat="45.85635" lon="4.63083">
        <ele>291</ele>
        <time>2016-08-23T11:57:05Z</time>
      </trkpt>
      <trkpt lat="45.85632" lon="4.63095">
        <ele>288</ele>
        <time>2016-08-23T11:57:06Z</time>
      </trkpt>
      <trkpt lat="45.85629" lon="4.63108">
        <ele>287</ele>
        <time>2016-08-23T11:57:07Z</time>
      </trkpt>
      <trkpt lat="45.85624" lon="4.6312">
        <ele>287</ele>
        <time>2016-08-23T11:57:08Z</time>
      </trkpt>
      <trkpt lat="45.85619" lon="4.6313">
        <ele>286</ele>
        <time>2016-08-23T11:57:09Z</time>
      </trkpt>
      <trkpt lat="45.85613" lon="4.63141">
        <ele>286</ele>
        <time>2016-08-23T11:57:10Z</time>
      </trkpt>
      <trkpt lat="45.85606" lon="4.63151">
        <ele>286</ele>
        <time>2016-08-23T11:57:11Z</time>
      </trkpt>
      <trkpt lat="45.856" lon="4.63161">
        <ele>286</ele>
        <time>2016-08-23T11:57:12Z</time>
      </trkpt>
      <trkpt lat="45.85592" lon="4.6317">
        <ele>283</ele>
        <time>2016-08-23T11:57:13Z</time>
      </trkpt>
      <trkpt lat="45.85586" lon="4.6318">
        <ele>282</ele>
        <time>2016-08-23T11:57:14Z</time>
      </trkpt>
      <trkpt lat="45.8558" lon="4.63192">
        <ele>281</ele>
        <time>2016-08-23T11:57:15Z</time>
      </trkpt>
      <trkpt lat="45.85573" lon="4.63203">
        <ele>280</ele>
        <time>2016-08-23T11:57:16Z</time>
      </trkpt>
      <trkpt lat="45.85567" lon="4.63215">
        <ele>279</ele>
        <time>2016-08-23T11:57:17Z</time>
      </trkpt>
      <trkpt lat="45.85562" lon="4.63227">
        <ele>278</ele>
        <time>2016-08-23T11:57:18Z</time>
      </trkpt>
      <trkpt lat="45.85557" lon="4.6324">
        <ele>277</ele>
        <time>2016-08-23T11:57:19Z</time>
      </trkpt>
      <trkpt lat="45.85554" lon="4.63254">
        <ele>273</ele>
        <time>2016-08-23T11:57:20Z</time>
      </trkpt>
      <trkpt lat="45.85551" lon="4.63269">
        <ele>272</ele>
        <time>2016-08-23T11:57:21Z</time>
      </trkpt>
      <trkpt lat="45.85548" lon="4.63283">
        <ele>272</ele>
        <time>2016-08-23T11:57:22Z</time>
      </trkpt>
      <trkpt lat="45.85546" lon="4.63298">
        <ele>272</ele>
        <time>2016-08-23T11:57:23Z</time>
      </trkpt>
      <trkpt lat="45.85544" lon="4.63312">
        <ele>272</ele>
        <time>2016-08-23T11:57:24Z</time>
      </trkpt>
      <trkpt lat="45.8554" lon="4.63325">
        <ele>272</ele>
        <time>2016-08-23T11:57:25Z</time>
      </trkpt>
      <trkpt lat="45.85535" lon="4.63338">
        <ele>268</ele>
        <time>2016-08-23T11:57:26Z</time>
      </trkpt>
      <trkpt lat="45.85529" lon="4.63347">
        <ele>268</ele>
        <time>2016-08-23T11:57:27Z</time>
      </trkpt>
      <trkpt lat="45.85521" lon="4.63356">
        <ele>269</ele>
        <time>2016-08-23T11:57:28Z</time>
      </trkpt>
      <trkpt lat="45.85513" lon="4.63363">
        <ele>268</ele>
        <time>2016-08-23T11:57:29Z</time>
      </trkpt>
      <trkpt lat="45.85505" lon="4.6337">
        <ele>268</ele>
        <time>2016-08-23T11:57:30Z</time>
      </trkpt>
      <trkpt lat="45.85496" lon="4.63378">
        <ele>270</ele>
        <time>2016-08-23T11:57:31Z</time>
      </trkpt>
      <trkpt lat="45.85488" lon="4.63385">
        <ele>270</ele>
        <time>2016-08-23T11:57:32Z</time>
      </trkpt>
      <trkpt lat="45.8548" lon="4.63393">
        <ele>270</ele>
        <time>2016-08-23T11:57:33Z</time>
      </trkpt>
      <trkpt lat="45.85472" lon="4.63401">
        <ele>269</ele>
        <time>2016-08-23T11:57:34Z</time>
      </trkpt>
      <trkpt lat="45.85465" lon="4.6341">
        <ele>269</ele>
        <time>2016-08-23T11:57:35Z</time>
      </trkpt>
      <trkpt lat="45.85458" lon="4.6342">
        <ele>266</ele>
        <time>2016-08-23T11:57:36Z</time>
      </trkpt>
      <trkpt lat="45.85452" lon="4.63431">
        <ele>266</ele>
        <time>2016-08-23T11:57:37Z</time>
      </trkpt>
      <trkpt lat="45.85447" lon="4.63443">
        <ele>265</ele>
        <time>2016-08-23T11:57:38Z</time>
      </trkpt>
      <trkpt lat="45.85444" lon="4.63456">
        <ele>265</ele>
        <time>2016-08-23T11:57:39Z</time>
      </trkpt>
      <trkpt lat="45.8544" lon="4.63468">
        <ele>265</ele>
        <time>2016-08-23T11:57:40Z</time>
      </trkpt>
      <trkpt lat="45.85438" lon="4.63481">
        <ele>264</ele>
        <time>2016-08-23T11:57:41Z</time>
      </trkpt>
      <trkpt lat="45.85437" lon="4.63495">
        <ele>264</ele>
        <time>2016-08-23T11:57:42Z</time>
      </trkpt>
      <trkpt lat="45.85436" lon="4.63508">
        <ele>263</ele>
        <time>2016-08-23T11:57:43Z</time>
      </trkpt>
      <trkpt lat="45.85437" lon="4.63522">
        <ele>263</ele>
        <time>2016-08-23T11:57:44Z</time>
      </trkpt>
      <trkpt lat="45.85437" lon="4.63535">
        <ele>263</ele>
        <time>2016-08-23T11:57:45Z</time>
      </trkpt>
      <trkpt lat="45.85437" lon="4.63548">
        <ele>263</ele>
        <time>2016-08-23T11:57:46Z</time>
      </trkpt>
      <trkpt lat="45.85437" lon="4.63562">
        <ele>263</ele>
        <time>2016-08-23T11:57:47Z</time>
      </trkpt>
      <trkpt lat="45.85437" lon="4.63575">
        <ele>262</ele>
        <time>2016-08-23T11:57:48Z</time>
      </trkpt>
      <trkpt lat="45.85437" lon="4.63589">
        <ele>261</ele>
        <time>2016-08-23T11:57:49Z</time>
      </trkpt>
      <trkpt lat="45.85438" lon="4.63602">
        <ele>261</ele>
        <time>2016-08-23T11:57:50Z</time>
      </trkpt>
      <trkpt lat="45.85438" lon="4.63615">
        <ele>261</ele>
        <time>2016-08-23T11:57:51Z</time>
      </trkpt>
      <trkpt lat="45.85438" lon="4.63628">
        <ele>260</ele>
        <time>2016-08-23T11:57:52Z</time>
      </trkpt>
      <trkpt lat="45.85437" lon="4.63641">
        <ele>260</ele>
        <time>2016-08-23T11:57:53Z</time>
      </trkpt>
      <trkpt lat="45.85436" lon="4.63654">
        <ele>260</ele>
        <time>2016-08-23T11:57:54Z</time>
      </trkpt>
      <trkpt lat="45.85436" lon="4.63668">
        <ele>258</ele>
        <time>2016-08-23T11:57:55Z</time>
      </trkpt>
      <trkpt lat="45.85434" lon="4.63681">
        <ele>257</ele>
        <time>2016-08-23T11:57:56Z</time>
      </trkpt>
      <trkpt lat="45.85431" lon="4.63694">
        <ele>257</ele>
        <time>2016-08-23T11:57:57Z</time>
      </trkpt>
      <trkpt lat="45.85428" lon="4.63707">
        <ele>257</ele>
        <time>2016-08-23T11:57:58Z</time>
      </trkpt>
      <trkpt lat="45.85425" lon="4.63719">
        <ele>257</ele>
        <time>2016-08-23T11:57:59Z</time>
      </trkpt>
      <trkpt lat="45.85421" lon="4.63731">
        <ele>256</ele>
        <time>2016-08-23T11:58:00Z</time>
      </trkpt>
      <trkpt lat="45.85416" lon="4.63743">
        <ele>256</ele>
        <time>2016-08-23T11:58:01Z</time>
      </trkpt>
      <trkpt lat="45.8541" lon="4.63754">
        <ele>255</ele>
        <time>2016-08-23T11:58:02Z</time>
      </trkpt>
      <trkpt lat="45.85404" lon="4.63764">
        <ele>256</ele>
        <time>2016-08-23T11:58:03Z</time>
      </trkpt>
      <trkpt lat="45.85397" lon="4.63774">
        <ele>256</ele>
        <time>2016-08-23T11:58:04Z</time>
      </trkpt>
      <trkpt lat="45.8539" lon="4.63784">
        <ele>256</ele>
        <time>2016-08-23T11:58:05Z</time>
      </trkpt>
      <trkpt lat="45.85384" lon="4.63795">
        <ele>257</ele>
        <time>2016-08-23T11:58:06Z</time>
      </trkpt>
      <trkpt lat="45.85377" lon="4.63805">
        <ele>256</ele>
        <time>2016-08-23T11:58:07Z</time>
      </trkpt>
      <trkpt lat="45.85371" lon="4.63815">
        <ele>256</ele>
        <time>2016-08-23T11:58:08Z</time>
      </trkpt>
      <trkpt lat="45.85364" lon="4.63824">
        <ele>256</ele>
        <time>2016-08-23T11:58:09Z</time>
      </trkpt>
      <trkpt lat="45.85357" lon="4.63833">
        <ele>256</ele>
        <time>2016-08-23T11:58:10Z</time>
      </trkpt>
      <trkpt lat="45.85351" lon="4.63843">
        <ele>255</ele>
        <time>2016-08-23T11:58:11Z</time>
      </trkpt>
      <trkpt lat="45.85343" lon="4.63852">
        <ele>255</ele>
        <time>2016-08-23T11:58:12Z</time>
      </trkpt>
      <trkpt lat="45.85335" lon="4.63862">
        <ele>255</ele>
        <time>2016-08-23T11:58:13Z</time>
      </trkpt>
      <trkpt lat="45.85327" lon="4.63871">
        <ele>253</ele>
        <time>2016-08-23T11:58:14Z</time>
      </trkpt>
      <trkpt lat="45.85319" lon="4.6388">
        <ele>253</ele>
        <time>2016-08-23T11:58:15Z</time>
      </trkpt>
      <trkpt lat="45.85311" lon="4.6389">
        <ele>253</ele>
        <time>2016-08-23T11:58:16Z</time>
      </trkpt>
      <trkpt lat="45.85303" lon="4.63901">
        <ele>252</ele>
        <time>2016-08-23T11:58:17Z</time>
      </trkpt>
      <trkpt lat="45.85295" lon="4.63912">
        <ele>252</ele>
        <time>2016-08-23T11:58:18Z</time>
      </trkpt>
      <trkpt lat="45.85288" lon="4.63924">
        <ele>250</ele>
        <time>2016-08-23T11:58:19Z</time>
      </trkpt>
      <trkpt lat="45.85281" lon="4.63936">
        <ele>250</ele>
        <time>2016-08-23T11:58:20Z</time>
      </trkpt>
      <trkpt lat="45.85275" lon="4.63949">
        <ele>250</ele>
        <time>2016-08-23T11:58:21Z</time>
      </trkpt>
      <trkpt lat="45.85269" lon="4.63962">
        <ele>250</ele>
        <time>2016-08-23T11:58:22Z</time>
      </trkpt>
      <trkpt lat="45.85264" lon="4.63975">
        <ele>249</ele>
        <time>2016-08-23T11:58:23Z</time>
      </trkpt>
      <trkpt lat="45.8526" lon="4.63989">
        <ele>248</ele>
        <time>2016-08-23T11:58:24Z</time>
      </trkpt>
      <trkpt lat="45.85256" lon="4.64003">
        <ele>247</ele>
        <time>2016-08-23T11:58:25Z</time>
      </trkpt>
      <trkpt lat="45.85253" lon="4.64018">
        <ele>248</ele>
        <time>2016-08-23T11:58:26Z</time>
      </trkpt>
      <trkpt lat="45.8525" lon="4.64032">
        <ele>245</ele>
        <time>2016-08-23T11:58:27Z</time>
      </trkpt>
      <trkpt lat="45.85247" lon="4.64046">
        <ele>244</ele>
        <time>2016-08-23T11:58:28Z</time>
      </trkpt>
      <trkpt lat="45.85246" lon="4.64062">
        <ele>244</ele>
        <time>2016-08-23T11:58:29Z</time>
      </trkpt>
      <trkpt lat="45.85244" lon="4.64077">
        <ele>244</ele>
        <time>2016-08-23T11:58:30Z</time>
      </trkpt>
      <trkpt lat="45.85243" lon="4.64094">
        <ele>243</ele>
        <time>2016-08-23T11:58:31Z</time>
      </trkpt>
      <trkpt lat="45.85242" lon="4.6411">
        <ele>242</ele>
        <time>2016-08-23T11:58:32Z</time>
      </trkpt>
      <trkpt lat="45.85241" lon="4.64126">
        <ele>242</ele>
        <time>2016-08-23T11:58:33Z</time>
      </trkpt>
      <trkpt lat="45.8524" lon="4.64143">
        <ele>242</ele>
        <time>2016-08-23T11:58:34Z</time>
      </trkpt>
      <trkpt lat="45.8524" lon="4.64159">
        <ele>242</ele>
        <time>2016-08-23T11:58:35Z</time>
      </trkpt>
      <trkpt lat="45.85242" lon="4.64175">
        <ele>241</ele>
        <time>2016-08-23T11:58:36Z</time>
      </trkpt>
      <trkpt lat="45.85244" lon="4.6419">
        <ele>239</ele>
        <time>2016-08-23T11:58:37Z</time>
      </trkpt>
      <trkpt lat="45.85246" lon="4.64206">
        <ele>238</ele>
        <time>2016-08-23T11:58:38Z</time>
      </trkpt>
      <trkpt lat="45.85249" lon="4.6422">
        <ele>237</ele>
        <time>2016-08-23T11:58:39Z</time>
      </trkpt>
      <trkpt lat="45.85251" lon="4.64236">
        <ele>240</ele>
        <time>2016-08-23T11:58:40Z</time>
      </trkpt>
      <trkpt lat="45.85252" lon="4.64252">
        <ele>237</ele>
        <time>2016-08-23T11:58:41Z</time>
      </trkpt>
      <trkpt lat="45.85252" lon="4.64268">
        <ele>239</ele>
        <time>2016-08-23T11:58:42Z</time>
      </trkpt>
      <trkpt lat="45.8525" lon="4.64284">
        <ele>235</ele>
        <time>2016-08-23T11:58:43Z</time>
      </trkpt>
      <trkpt lat="45.85247" lon="4.643">
        <ele>235</ele>
        <time>2016-08-23T11:58:44Z</time>
      </trkpt>
      <trkpt lat="45.85243" lon="4.64313">
        <ele>235</ele>
        <time>2016-08-23T11:58:45Z</time>
      </trkpt>
      <trkpt lat="45.85238" lon="4.64325">
        <ele>236</ele>
        <time>2016-08-23T11:58:46Z</time>
      </trkpt>
      <trkpt lat="45.85231" lon="4.64337">
        <ele>237</ele>
        <time>2016-08-23T11:58:47Z</time>
      </trkpt>
      <trkpt lat="45.85224" lon="4.64348">
        <ele>237</ele>
        <time>2016-08-23T11:58:48Z</time>
      </trkpt>
      <trkpt lat="45.85216" lon="4.64358">
        <ele>237</ele>
        <time>2016-08-23T11:58:49Z</time>
      </trkpt>
      <trkpt lat="45.85209" lon="4.64368">
        <ele>237</ele>
        <time>2016-08-23T11:58:50Z</time>
      </trkpt>
      <trkpt lat="45.85201" lon="4.64379">
        <ele>237</ele>
        <time>2016-08-23T11:58:51Z</time>
      </trkpt>
      <trkpt lat="45.85195" lon="4.6439">
        <ele>236</ele>
        <time>2016-08-23T11:58:52Z</time>
      </trkpt>
      <trkpt lat="45.85188" lon="4.64402">
        <ele>236</ele>
        <time>2016-08-23T11:58:53Z</time>
      </trkpt>
      <trkpt lat="45.85181" lon="4.64415">
        <ele>235</ele>
        <time>2016-08-23T11:58:54Z</time>
      </trkpt>
      <trkpt lat="45.85176" lon="4.64428">
        <ele>236</ele>
        <time>2016-08-23T11:58:55Z</time>
      </trkpt>
      <trkpt lat="45.85171" lon="4.64442">
        <ele>237</ele>
        <time>2016-08-23T11:58:56Z</time>
      </trkpt>
      <trkpt lat="45.85167" lon="4.64456">
        <ele>237</ele>
        <time>2016-08-23T11:58:57Z</time>
      </trkpt>
      <trkpt lat="45.85165" lon="4.64468">
        <ele>230</ele>
        <time>2016-08-23T11:58:58Z</time>
      </trkpt>
      <trkpt lat="45.85164" lon="4.6448">
        <ele>230</ele>
        <time>2016-08-23T11:58:59Z</time>
      </trkpt>
      <trkpt lat="45.85164" lon="4.64491">
        <ele>231</ele>
        <time>2016-08-23T11:59:00Z</time>
      </trkpt>
      <trkpt lat="45.85163" lon="4.64501">
        <ele>231</ele>
        <time>2016-08-23T11:59:01Z</time>
      </trkpt>
      <trkpt lat="45.85162" lon="4.64511">
        <ele>230</ele>
        <time>2016-08-23T11:59:02Z</time>
      </trkpt>
      <trkpt lat="45.8516" lon="4.64518">
        <ele>229</ele>
        <time>2016-08-23T11:59:03Z</time>
      </trkpt>
      <trkpt lat="45.85158" lon="4.64526">
        <ele>229</ele>
        <time>2016-08-23T11:59:04Z</time>
      </trkpt>
      <trkpt lat="45.85154" lon="4.64532">
        <ele>228</ele>
        <time>2016-08-23T11:59:05Z</time>
      </trkpt>
      <trkpt lat="45.85149" lon="4.64537">
        <ele>228</ele>
        <time>2016-08-23T11:59:06Z</time>
      </trkpt>
      <trkpt lat="45.85145" lon="4.64542">
        <ele>228</ele>
        <time>2016-08-23T11:59:07Z</time>
      </trkpt>
      <trkpt lat="45.85138" lon="4.64546">
        <ele>228</ele>
        <time>2016-08-23T11:59:09Z</time>
      </trkpt>
      <trkpt lat="45.85134" lon="4.64546">
        <ele>227</ele>
        <time>2016-08-23T11:59:10Z</time>
      </trkpt>
      <trkpt lat="45.85127" lon="4.64544">
        <ele>227</ele>
        <time>2016-08-23T11:59:26Z</time>
      </trkpt>
      <trkpt lat="45.85124" lon="4.64543">
        <ele>227</ele>
        <time>2016-08-23T11:59:27Z</time>
      </trkpt>
      <trkpt lat="45.8512" lon="4.64554">
        <ele>227</ele>
        <time>2016-08-23T11:59:30Z</time>
      </trkpt>
      <trkpt lat="45.8512" lon="4.64558">
        <ele>227</ele>
        <time>2016-08-23T11:59:31Z</time>
      </trkpt>
      <trkpt lat="45.85121" lon="4.64564">
        <ele>226</ele>
        <time>2016-08-23T11:59:32Z</time>
      </trkpt>
      <trkpt lat="45.85122" lon="4.64573">
        <ele>226</ele>
        <time>2016-08-23T11:59:33Z</time>
      </trkpt>
      <trkpt lat="45.85123" lon="4.64584">
        <ele>225</ele>
        <time>2016-08-23T11:59:35Z</time>
      </trkpt>
      <trkpt lat="45.85124" lon="4.64593">
        <ele>225</ele>
        <time>2016-08-23T11:59:36Z</time>
      </trkpt>
      <trkpt lat="45.85125" lon="4.64602">
        <ele>225</ele>
        <time>2016-08-23T11:59:37Z</time>
      </trkpt>
      <trkpt lat="45.85126" lon="4.6461">
        <ele>225</ele>
        <time>2016-08-23T11:59:38Z</time>
      </trkpt>
      <trkpt lat="45.85127" lon="4.64617">
        <ele>225</ele>
        <time>2016-08-23T11:59:39Z</time>
      </trkpt>
      <trkpt lat="45.85129" lon="4.64624">
        <ele>225</ele>
        <time>2016-08-23T11:59:40Z</time>
      </trkpt>
      <trkpt lat="45.8513" lon="4.64631">
        <ele>225</ele>
        <time>2016-08-23T11:59:41Z</time>
      </trkpt>
      <trkpt lat="45.85132" lon="4.64638">
        <ele>225</ele>
        <time>2016-08-23T11:59:42Z</time>
      </trkpt>
      <trkpt lat="45.85133" lon="4.64645">
        <ele>225</ele>
        <time>2016-08-23T11:59:43Z</time>
      </trkpt>
      <trkpt lat="45.85135" lon="4.64653">
        <ele>225</ele>
        <time>2016-08-23T11:59:44Z</time>
      </trkpt>
      <trkpt lat="45.85137" lon="4.64661">
        <ele>226</ele>
        <time>2016-08-23T11:59:45Z</time>
      </trkpt>
      <trkpt lat="45.85139" lon="4.64669">
        <ele>224</ele>
        <time>2016-08-23T11:59:46Z</time>
      </trkpt>
      <trkpt lat="45.85141" lon="4.64677">
        <ele>224</ele>
        <time>2016-08-23T11:59:47Z</time>
      </trkpt>
      <trkpt lat="45.85143" lon="4.64684">
        <ele>224</ele>
        <time>2016-08-23T11:59:48Z</time>
      </trkpt>
      <trkpt lat="45.85145" lon="4.64691">
        <ele>224</ele>
        <time>2016-08-23T11:59:49Z</time>
      </trkpt>
      <trkpt lat="45.85146" lon="4.64697">
        <ele>224</ele>
        <time>2016-08-23T11:59:50Z</time>
      </trkpt>
      <trkpt lat="45.85148" lon="4.64703">
        <ele>223</ele>
        <time>2016-08-23T11:59:51Z</time>
      </trkpt>
      <trkpt lat="45.8515" lon="4.6471">
        <ele>223</ele>
        <time>2016-08-23T11:59:52Z</time>
      </trkpt>
      <trkpt lat="45.85152" lon="4.64716">
        <ele>223</ele>
        <time>2016-08-23T11:59:53Z</time>
      </trkpt>
      <trkpt lat="45.85153" lon="4.64723">
        <ele>222</ele>
        <time>2016-08-23T11:59:54Z</time>
      </trkpt>
      <trkpt lat="45.85155" lon="4.64729">
        <ele>222</ele>
        <time>2016-08-23T11:59:55Z</time>
      </trkpt>
      <trkpt lat="45.85156" lon="4.64735">
        <ele>221</ele>
        <time>2016-08-23T11:59:56Z</time>
      </trkpt>
      <trkpt lat="45.85158" lon="4.64742">
        <ele>221</ele>
        <time>2016-08-23T11:59:57Z</time>
      </trkpt>
      <trkpt lat="45.8516" lon="4.64749">
        <ele>220</ele>
        <time>2016-08-23T11:59:58Z</time>
      </trkpt>
      <trkpt lat="45.85162" lon="4.64756">
        <ele>220</ele>
        <time>2016-08-23T11:59:59Z</time>
      </trkpt>
      <trkpt lat="45.85165" lon="4.64763">
        <ele>220</ele>
        <time>2016-08-23T12:00:00Z</time>
      </trkpt>
      <trkpt lat="45.85168" lon="4.64771">
        <ele>221</ele>
        <time>2016-08-23T12:00:01Z</time>
      </trkpt>
      <trkpt lat="45.85171" lon="4.64778">
        <ele>221</ele>
        <time>2016-08-23T12:00:02Z</time>
      </trkpt>
      <trkpt lat="45.85174" lon="4.64786">
        <ele>221</ele>
        <time>2016-08-23T12:00:03Z</time>
      </trkpt>
      <trkpt lat="45.85178" lon="4.64793">
        <ele>221</ele>
        <time>2016-08-23T12:00:04Z</time>
      </trkpt>
      <trkpt lat="45.85182" lon="4.648">
        <ele>221</ele>
        <time>2016-08-23T12:00:05Z</time>
      </trkpt>
      <trkpt lat="45.85185" lon="4.64806">
        <ele>221</ele>
        <time>2016-08-23T12:00:06Z</time>
      </trkpt>
      <trkpt lat="45.85188" lon="4.64812">
        <ele>220</ele>
        <time>2016-08-23T12:00:07Z</time>
      </trkpt>
      <trkpt lat="45.85191" lon="4.64818">
        <ele>220</ele>
        <time>2016-08-23T12:00:08Z</time>
      </trkpt>
      <trkpt lat="45.85194" lon="4.64825">
        <ele>220</ele>
        <time>2016-08-23T12:00:09Z</time>
      </trkpt>
      <trkpt lat="45.85197" lon="4.64831">
        <ele>220</ele>
        <time>2016-08-23T12:00:10Z</time>
      </trkpt>
      <trkpt lat="45.85201" lon="4.64837">
        <ele>218</ele>
        <time>2016-08-23T12:00:11Z</time>
      </trkpt>
      <trkpt lat="45.85204" lon="4.64843">
        <ele>218</ele>
        <time>2016-08-23T12:00:12Z</time>
      </trkpt>
      <trkpt lat="45.85208" lon="4.64849">
        <ele>218</ele>
        <time>2016-08-23T12:00:13Z</time>
      </trkpt>
      <trkpt lat="45.85211" lon="4.64855">
        <ele>218</ele>
        <time>2016-08-23T12:00:14Z</time>
      </trkpt>
      <trkpt lat="45.85213" lon="4.64861">
        <ele>218</ele>
        <time>2016-08-23T12:00:15Z</time>
      </trkpt>
      <trkpt lat="45.85216" lon="4.64867">
        <ele>218</ele>
        <time>2016-08-23T12:00:16Z</time>
      </trkpt>
      <trkpt lat="45.85219" lon="4.64873">
        <ele>218</ele>
        <time>2016-08-23T12:00:17Z</time>
      </trkpt>
      <trkpt lat="45.85222" lon="4.64879">
        <ele>218</ele>
        <time>2016-08-23T12:00:18Z</time>
      </trkpt>
      <trkpt lat="45.85225" lon="4.64886">
        <ele>217</ele>
        <time>2016-08-23T12:00:19Z</time>
      </trkpt>
      <trkpt lat="45.85229" lon="4.64891">
        <ele>217</ele>
        <time>2016-08-23T12:00:20Z</time>
      </trkpt>
      <trkpt lat="45.85232" lon="4.64897">
        <ele>217</ele>
        <time>2016-08-23T12:00:21Z</time>
      </trkpt>
      <trkpt lat="45.85235" lon="4.64904">
        <ele>216</ele>
        <time>2016-08-23T12:00:22Z</time>
      </trkpt>
      <trkpt lat="45.85239" lon="4.6491">
        <ele>215</ele>
        <time>2016-08-23T12:00:23Z</time>
      </trkpt>
      <trkpt lat="45.85242" lon="4.64917">
        <ele>214</ele>
        <time>2016-08-23T12:00:24Z</time>
      </trkpt>
      <trkpt lat="45.85246" lon="4.64923">
        <ele>216</ele>
        <time>2016-08-23T12:00:25Z</time>
      </trkpt>
      <trkpt lat="45.85249" lon="4.6493">
        <ele>217</ele>
        <time>2016-08-23T12:00:26Z</time>
      </trkpt>
      <trkpt lat="45.85252" lon="4.64935">
        <ele>216</ele>
        <time>2016-08-23T12:00:27Z</time>
      </trkpt>
      <trkpt lat="45.85256" lon="4.6494">
        <ele>216</ele>
        <time>2016-08-23T12:00:28Z</time>
      </trkpt>
      <trkpt lat="45.8526" lon="4.64945">
        <ele>217</ele>
        <time>2016-08-23T12:00:29Z</time>
      </trkpt>
      <trkpt lat="45.85264" lon="4.6495">
        <ele>217</ele>
        <time>2016-08-23T12:00:30Z</time>
      </trkpt>
      <trkpt lat="45.85268" lon="4.64955">
        <ele>217</ele>
        <time>2016-08-23T12:00:31Z</time>
      </trkpt>
      <trkpt lat="45.85272" lon="4.64961">
        <ele>217</ele>
        <time>2016-08-23T12:00:32Z</time>
      </trkpt>
      <trkpt lat="45.85276" lon="4.64966">
        <ele>217</ele>
        <time>2016-08-23T12:00:33Z</time>
      </trkpt>
      <trkpt lat="45.8528" lon="4.64971">
        <ele>218</ele>
        <time>2016-08-23T12:00:34Z</time>
      </trkpt>
      <trkpt lat="45.85285" lon="4.64977">
        <ele>218</ele>
        <time>2016-08-23T12:00:35Z</time>
      </trkpt>
      <trkpt lat="45.8529" lon="4.64983">
        <ele>218</ele>
        <time>2016-08-23T12:00:36Z</time>
      </trkpt>
      <trkpt lat="45.85294" lon="4.64987">
        <ele>218</ele>
        <time>2016-08-23T12:00:37Z</time>
      </trkpt>
      <trkpt lat="45.85298" lon="4.64991">
        <ele>218</ele>
        <time>2016-08-23T12:00:38Z</time>
      </trkpt>
      <trkpt lat="45.85302" lon="4.64996">
        <ele>218</ele>
        <time>2016-08-23T12:00:39Z</time>
      </trkpt>
      <trkpt lat="45.85305" lon="4.65">
        <ele>220</ele>
        <time>2016-08-23T12:00:40Z</time>
      </trkpt>
      <trkpt lat="45.85309" lon="4.65005">
        <ele>220</ele>
        <time>2016-08-23T12:00:41Z</time>
      </trkpt>
      <trkpt lat="45.85313" lon="4.6501">
        <ele>220</ele>
        <time>2016-08-23T12:00:42Z</time>
      </trkpt>
      <trkpt lat="45.85318" lon="4.65014">
        <ele>220</ele>
        <time>2016-08-23T12:00:43Z</time>
      </trkpt>
      <trkpt lat="45.85322" lon="4.65018">
        <ele>220</ele>
        <time>2016-08-23T12:00:44Z</time>
      </trkpt>
      <trkpt lat="45.85326" lon="4.65023">
        <ele>220</ele>
        <time>2016-08-23T12:00:45Z</time>
      </trkpt>
      <trkpt lat="45.8533" lon="4.65027">
        <ele>221</ele>
        <time>2016-08-23T12:00:46Z</time>
      </trkpt>
      <trkpt lat="45.85334" lon="4.65031">
        <ele>220</ele>
        <time>2016-08-23T12:00:47Z</time>
      </trkpt>
      <trkpt lat="45.85338" lon="4.65035">
        <ele>221</ele>
        <time>2016-08-23T12:00:48Z</time>
      </trkpt>
      <trkpt lat="45.85342" lon="4.65039">
        <ele>221</ele>
        <time>2016-08-23T12:00:49Z</time>
      </trkpt>
      <trkpt lat="45.85346" lon="4.65043">
        <ele>221</ele>
        <time>2016-08-23T12:00:50Z</time>
      </trkpt>
      <trkpt lat="45.8535" lon="4.65047">
        <ele>221</ele>
        <time>2016-08-23T12:00:51Z</time>
      </trkpt>
      <trkpt lat="45.85355" lon="4.65051">
        <ele>221</ele>
        <time>2016-08-23T12:00:52Z</time>
      </trkpt>
      <trkpt lat="45.85359" lon="4.65056">
        <ele>222</ele>
        <time>2016-08-23T12:00:53Z</time>
      </trkpt>
      <trkpt lat="45.85363" lon="4.6506">
        <ele>222</ele>
        <time>2016-08-23T12:00:54Z</time>
      </trkpt>
      <trkpt lat="45.85367" lon="4.65064">
        <ele>222</ele>
        <time>2016-08-23T12:00:55Z</time>
      </trkpt>
      <trkpt lat="45.85372" lon="4.65069">
        <ele>222</ele>
        <time>2016-08-23T12:00:56Z</time>
      </trkpt>
      <trkpt lat="45.85377" lon="4.65073">
        <ele>222</ele>
        <time>2016-08-23T12:00:57Z</time>
      </trkpt>
      <trkpt lat="45.85382" lon="4.65077">
        <ele>222</ele>
        <time>2016-08-23T12:00:58Z</time>
      </trkpt>
      <trkpt lat="45.85387" lon="4.65081">
        <ele>222</ele>
        <time>2016-08-23T12:00:59Z</time>
      </trkpt>
      <trkpt lat="45.85392" lon="4.65086">
        <ele>223</ele>
        <time>2016-08-23T12:01:00Z</time>
      </trkpt>
      <trkpt lat="45.85397" lon="4.6509">
        <ele>223</ele>
        <time>2016-08-23T12:01:01Z</time>
      </trkpt>
      <trkpt lat="45.85402" lon="4.65095">
        <ele>223</ele>
        <time>2016-08-23T12:01:02Z</time>
      </trkpt>
      <trkpt lat="45.85406" lon="4.65099">
        <ele>223</ele>
        <time>2016-08-23T12:01:03Z</time>
      </trkpt>
      <trkpt lat="45.85411" lon="4.65104">
        <ele>223</ele>
        <time>2016-08-23T12:01:04Z</time>
      </trkpt>
      <trkpt lat="45.85415" lon="4.65109">
        <ele>223</ele>
        <time>2016-08-23T12:01:05Z</time>
      </trkpt>
      <trkpt lat="45.85423" lon="4.65124">
        <ele>220</ele>
        <time>2016-08-23T12:01:06Z</time>
      </trkpt>
      <trkpt lat="45.85427" lon="4.6513">
        <ele>219</ele>
        <time>2016-08-23T12:01:07Z</time>
      </trkpt>
      <trkpt lat="45.85431" lon="4.65134">
        <ele>219</ele>
        <time>2016-08-23T12:01:08Z</time>
      </trkpt>
      <trkpt lat="45.85435" lon="4.65134">
        <ele>219</ele>
        <time>2016-08-23T12:01:09Z</time>
      </trkpt>
      <trkpt lat="45.8544" lon="4.65136">
        <ele>219</ele>
        <time>2016-08-23T12:01:10Z</time>
      </trkpt>
      <trkpt lat="45.85445" lon="4.65138">
        <ele>219</ele>
        <time>2016-08-23T12:01:11Z</time>
      </trkpt>
      <trkpt lat="45.85449" lon="4.65141">
        <ele>219</ele>
        <time>2016-08-23T12:01:12Z</time>
      </trkpt>
      <trkpt lat="45.85454" lon="4.65144">
        <ele>219</ele>
        <time>2016-08-23T12:01:13Z</time>
      </trkpt>
      <trkpt lat="45.85457" lon="4.6515">
        <ele>218</ele>
        <time>2016-08-23T12:01:14Z</time>
      </trkpt>
      <trkpt lat="45.8546" lon="4.65156">
        <ele>218</ele>
        <time>2016-08-23T12:01:15Z</time>
      </trkpt>
      <trkpt lat="45.85464" lon="4.6516">
        <ele>218</ele>
        <time>2016-08-23T12:01:16Z</time>
      </trkpt>
      <trkpt lat="45.85468" lon="4.65164">
        <ele>218</ele>
        <time>2016-08-23T12:01:17Z</time>
      </trkpt>
      <trkpt lat="45.85472" lon="4.65167">
        <ele>217</ele>
        <time>2016-08-23T12:01:18Z</time>
      </trkpt>
      <trkpt lat="45.85476" lon="4.6517">
        <ele>216</ele>
        <time>2016-08-23T12:01:19Z</time>
      </trkpt>
      <trkpt lat="45.85481" lon="4.65174">
        <ele>216</ele>
        <time>2016-08-23T12:01:20Z</time>
      </trkpt>
      <trkpt lat="45.85485" lon="4.65177">
        <ele>216</ele>
        <time>2016-08-23T12:01:21Z</time>
      </trkpt>
      <trkpt lat="45.85489" lon="4.6518">
        <ele>216</ele>
        <time>2016-08-23T12:01:22Z</time>
      </trkpt>
      <trkpt lat="45.85494" lon="4.65184">
        <ele>216</ele>
        <time>2016-08-23T12:01:23Z</time>
      </trkpt>
      <trkpt lat="45.85498" lon="4.65188">
        <ele>216</ele>
        <time>2016-08-23T12:01:24Z</time>
      </trkpt>
      <trkpt lat="45.85502" lon="4.65192">
        <ele>214</ele>
        <time>2016-08-23T12:01:25Z</time>
      </trkpt>
      <trkpt lat="45.85506" lon="4.65196">
        <ele>214</ele>
        <time>2016-08-23T12:01:26Z</time>
      </trkpt>
      <trkpt lat="45.85511" lon="4.652">
        <ele>214</ele>
        <time>2016-08-23T12:01:27Z</time>
      </trkpt>
      <trkpt lat="45.85515" lon="4.65204">
        <ele>214</ele>
        <time>2016-08-23T12:01:28Z</time>
      </trkpt>
      <trkpt lat="45.85519" lon="4.65208">
        <ele>214</ele>
        <time>2016-08-23T12:01:29Z</time>
      </trkpt>
      <trkpt lat="45.85524" lon="4.65213">
        <ele>214</ele>
        <time>2016-08-23T12:01:30Z</time>
      </trkpt>
      <trkpt lat="45.85528" lon="4.65216">
        <ele>214</ele>
        <time>2016-08-23T12:01:31Z</time>
      </trkpt>
      <trkpt lat="45.85533" lon="4.6522">
        <ele>214</ele>
        <time>2016-08-23T12:01:32Z</time>
      </trkpt>
      <trkpt lat="45.85538" lon="4.65223">
        <ele>214</ele>
        <time>2016-08-23T12:01:33Z</time>
      </trkpt>
      <trkpt lat="45.85542" lon="4.65226">
        <ele>213</ele>
        <time>2016-08-23T12:01:34Z</time>
      </trkpt>
      <trkpt lat="45.85547" lon="4.6523">
        <ele>213</ele>
        <time>2016-08-23T12:01:35Z</time>
      </trkpt>
      <trkpt lat="45.85551" lon="4.65232">
        <ele>213</ele>
        <time>2016-08-23T12:01:36Z</time>
      </trkpt>
      <trkpt lat="45.85556" lon="4.65234">
        <ele>213</ele>
        <time>2016-08-23T12:01:37Z</time>
      </trkpt>
      <trkpt lat="45.8556" lon="4.65237">
        <ele>213</ele>
        <time>2016-08-23T12:01:38Z</time>
      </trkpt>
      <trkpt lat="45.85565" lon="4.65238">
        <ele>213</ele>
        <time>2016-08-23T12:01:39Z</time>
      </trkpt>
      <trkpt lat="45.85569" lon="4.65241">
        <ele>213</ele>
        <time>2016-08-23T12:01:40Z</time>
      </trkpt>
      <trkpt lat="45.85574" lon="4.65243">
        <ele>212</ele>
        <time>2016-08-23T12:01:41Z</time>
      </trkpt>
      <trkpt lat="45.8558" lon="4.65245">
        <ele>212</ele>
        <time>2016-08-23T12:01:42Z</time>
      </trkpt>
      <trkpt lat="45.85585" lon="4.65246">
        <ele>212</ele>
        <time>2016-08-23T12:01:43Z</time>
      </trkpt>
      <trkpt lat="45.8559" lon="4.65248">
        <ele>213</ele>
        <time>2016-08-23T12:01:44Z</time>
      </trkpt>
      <trkpt lat="45.85596" lon="4.6525">
        <ele>212</ele>
        <time>2016-08-23T12:01:45Z</time>
      </trkpt>
      <trkpt lat="45.85601" lon="4.65253">
        <ele>212</ele>
        <time>2016-08-23T12:01:46Z</time>
      </trkpt>
      <trkpt lat="45.85606" lon="4.65256">
        <ele>212</ele>
        <time>2016-08-23T12:01:47Z</time>
      </trkpt>
      <trkpt lat="45.85612" lon="4.65259">
        <ele>213</ele>
        <time>2016-08-23T12:01:48Z</time>
      </trkpt>
      <trkpt lat="45.85617" lon="4.65262">
        <ele>213</ele>
        <time>2016-08-23T12:01:49Z</time>
      </trkpt>
      <trkpt lat="45.85622" lon="4.65265">
        <ele>213</ele>
        <time>2016-08-23T12:01:50Z</time>
      </trkpt>
      <trkpt lat="45.85627" lon="4.65268">
        <ele>213</ele>
        <time>2016-08-23T12:01:51Z</time>
      </trkpt>
      <trkpt lat="45.85633" lon="4.65271">
        <ele>213</ele>
        <time>2016-08-23T12:01:52Z</time>
      </trkpt>
      <trkpt lat="45.85637" lon="4.65274">
        <ele>214</ele>
        <time>2016-08-23T12:01:53Z</time>
      </trkpt>
      <trkpt lat="45.85642" lon="4.65277">
        <ele>214</ele>
        <time>2016-08-23T12:01:54Z</time>
      </trkpt>
      <trkpt lat="45.85646" lon="4.65279">
        <ele>214</ele>
        <time>2016-08-23T12:01:55Z</time>
      </trkpt>
      <trkpt lat="45.8565" lon="4.65282">
        <ele>214</ele>
        <time>2016-08-23T12:01:56Z</time>
      </trkpt>
      <trkpt lat="45.85654" lon="4.65285">
        <ele>214</ele>
        <time>2016-08-23T12:01:57Z</time>
      </trkpt>
      <trkpt lat="45.85658" lon="4.6529">
        <ele>213</ele>
        <time>2016-08-23T12:01:58Z</time>
      </trkpt>
      <trkpt lat="45.85663" lon="4.65294">
        <ele>213</ele>
        <time>2016-08-23T12:01:59Z</time>
      </trkpt>
      <trkpt lat="45.85667" lon="4.65298">
        <ele>217</ele>
        <time>2016-08-23T12:02:00Z</time>
      </trkpt>
      <trkpt lat="45.85672" lon="4.65302">
        <ele>216</ele>
        <time>2016-08-23T12:02:01Z</time>
      </trkpt>
      <trkpt lat="45.85676" lon="4.65306">
        <ele>216</ele>
        <time>2016-08-23T12:02:02Z</time>
      </trkpt>
      <trkpt lat="45.8568" lon="4.65311">
        <ele>216</ele>
        <time>2016-08-23T12:02:03Z</time>
      </trkpt>
      <trkpt lat="45.85683" lon="4.65316">
        <ele>216</ele>
        <time>2016-08-23T12:02:04Z</time>
      </trkpt>
      <trkpt lat="45.85687" lon="4.65321">
        <ele>216</ele>
        <time>2016-08-23T12:02:05Z</time>
      </trkpt>
      <trkpt lat="45.85691" lon="4.65326">
        <ele>216</ele>
        <time>2016-08-23T12:02:06Z</time>
      </trkpt>
      <trkpt lat="45.85695" lon="4.65331">
        <ele>216</ele>
        <time>2016-08-23T12:02:07Z</time>
      </trkpt>
      <trkpt lat="45.85699" lon="4.65335">
        <ele>213</ele>
        <time>2016-08-23T12:02:08Z</time>
      </trkpt>
      <trkpt lat="45.85703" lon="4.6534">
        <ele>214</ele>
        <time>2016-08-23T12:02:09Z</time>
      </trkpt>
      <trkpt lat="45.85706" lon="4.65346">
        <ele>214</ele>
        <time>2016-08-23T12:02:10Z</time>
      </trkpt>
      <trkpt lat="45.85709" lon="4.65353">
        <ele>214</ele>
        <time>2016-08-23T12:02:11Z</time>
      </trkpt>
      <trkpt lat="45.85713" lon="4.65359">
        <ele>214</ele>
        <time>2016-08-23T12:02:12Z</time>
      </trkpt>
      <trkpt lat="45.85716" lon="4.65366">
        <ele>214</ele>
        <time>2016-08-23T12:02:13Z</time>
      </trkpt>
      <trkpt lat="45.85719" lon="4.65373">
        <ele>214</ele>
        <time>2016-08-23T12:02:14Z</time>
      </trkpt>
      <trkpt lat="45.85722" lon="4.65381">
        <ele>214</ele>
        <time>2016-08-23T12:02:15Z</time>
      </trkpt>
      <trkpt lat="45.85725" lon="4.65389">
        <ele>214</ele>
        <time>2016-08-23T12:02:16Z</time>
      </trkpt>
      <trkpt lat="45.85727" lon="4.65395">
        <ele>214</ele>
        <time>2016-08-23T12:02:17Z</time>
      </trkpt>
      <trkpt lat="45.8573" lon="4.65401">
        <ele>214</ele>
        <time>2016-08-23T12:02:18Z</time>
      </trkpt>
      <trkpt lat="45.85732" lon="4.65407">
        <ele>214</ele>
        <time>2016-08-23T12:02:19Z</time>
      </trkpt>
      <trkpt lat="45.85735" lon="4.65414">
        <ele>214</ele>
        <time>2016-08-23T12:02:20Z</time>
      </trkpt>
      <trkpt lat="45.85737" lon="4.6542">
        <ele>213</ele>
        <time>2016-08-23T12:02:21Z</time>
      </trkpt>
      <trkpt lat="45.85739" lon="4.65427">
        <ele>213</ele>
        <time>2016-08-23T12:02:22Z</time>
      </trkpt>
      <trkpt lat="45.85742" lon="4.65438">
        <ele>212</ele>
        <time>2016-08-23T12:02:24Z</time>
      </trkpt>
      <trkpt lat="45.85744" lon="4.65445">
        <ele>212</ele>
        <time>2016-08-23T12:02:25Z</time>
      </trkpt>
      <trkpt lat="45.85746" lon="4.65451">
        <ele>212</ele>
        <time>2016-08-23T12:02:26Z</time>
      </trkpt>
      <trkpt lat="45.85747" lon="4.65457">
        <ele>211</ele>
        <time>2016-08-23T12:02:27Z</time>
      </trkpt>
      <trkpt lat="45.85749" lon="4.65464">
        <ele>211</ele>
        <time>2016-08-23T12:02:28Z</time>
      </trkpt>
      <trkpt lat="45.85751" lon="4.6547">
        <ele>214</ele>
        <time>2016-08-23T12:02:29Z</time>
      </trkpt>
      <trkpt lat="45.85753" lon="4.65476">
        <ele>214</ele>
        <time>2016-08-23T12:02:30Z</time>
      </trkpt>
      <trkpt lat="45.85755" lon="4.65481">
        <ele>213</ele>
        <time>2016-08-23T12:02:31Z</time>
      </trkpt>
      <trkpt lat="45.85757" lon="4.65488">
        <ele>213</ele>
        <time>2016-08-23T12:02:32Z</time>
      </trkpt>
      <trkpt lat="45.85759" lon="4.65495">
        <ele>212</ele>
        <time>2016-08-23T12:02:33Z</time>
      </trkpt>
      <trkpt lat="45.85762" lon="4.65502">
        <ele>211</ele>
        <time>2016-08-23T12:02:34Z</time>
      </trkpt>
      <trkpt lat="45.85765" lon="4.65509">
        <ele>212</ele>
        <time>2016-08-23T12:02:35Z</time>
      </trkpt>
      <trkpt lat="45.85768" lon="4.65516">
        <ele>212</ele>
        <time>2016-08-23T12:02:36Z</time>
      </trkpt>
      <trkpt lat="45.85771" lon="4.65523">
        <ele>213</ele>
        <time>2016-08-23T12:02:37Z</time>
      </trkpt>
      <trkpt lat="45.85774" lon="4.65529">
        <ele>213</ele>
        <time>2016-08-23T12:02:38Z</time>
      </trkpt>
      <trkpt lat="45.85777" lon="4.65536">
        <ele>213</ele>
        <time>2016-08-23T12:02:39Z</time>
      </trkpt>
      <trkpt lat="45.8578" lon="4.65542">
        <ele>213</ele>
        <time>2016-08-23T12:02:40Z</time>
      </trkpt>
      <trkpt lat="45.85784" lon="4.65549">
        <ele>213</ele>
        <time>2016-08-23T12:02:41Z</time>
      </trkpt>
      <trkpt lat="45.85788" lon="4.65555">
        <ele>213</ele>
        <time>2016-08-23T12:02:42Z</time>
      </trkpt>
      <trkpt lat="45.85791" lon="4.65562">
        <ele>213</ele>
        <time>2016-08-23T12:02:43Z</time>
      </trkpt>
      <trkpt lat="45.85794" lon="4.65569">
        <ele>213</ele>
        <time>2016-08-23T12:02:44Z</time>
      </trkpt>
      <trkpt lat="45.85797" lon="4.65575">
        <ele>213</ele>
        <time>2016-08-23T12:02:45Z</time>
      </trkpt>
      <trkpt lat="45.858" lon="4.65581">
        <ele>213</ele>
        <time>2016-08-23T12:02:46Z</time>
      </trkpt>
      <trkpt lat="45.85803" lon="4.65588">
        <ele>213</ele>
        <time>2016-08-23T12:02:47Z</time>
      </trkpt>
      <trkpt lat="45.85806" lon="4.65593">
        <ele>213</ele>
        <time>2016-08-23T12:02:48Z</time>
      </trkpt>
      <trkpt lat="45.8581" lon="4.65598">
        <ele>213</ele>
        <time>2016-08-23T12:02:49Z</time>
      </trkpt>
      <trkpt lat="45.85813" lon="4.65603">
        <ele>213</ele>
        <time>2016-08-23T12:02:50Z</time>
      </trkpt>
      <trkpt lat="45.85815" lon="4.65608">
        <ele>212</ele>
        <time>2016-08-23T12:02:51Z</time>
      </trkpt>
      <trkpt lat="45.85819" lon="4.65613">
        <ele>212</ele>
        <time>2016-08-23T12:02:52Z</time>
      </trkpt>
      <trkpt lat="45.85822" lon="4.65619">
        <ele>212</ele>
        <time>2016-08-23T12:02:53Z</time>
      </trkpt>
      <trkpt lat="45.85825" lon="4.65625">
        <ele>212</ele>
        <time>2016-08-23T12:02:54Z</time>
      </trkpt>
      <trkpt lat="45.85829" lon="4.65631">
        <ele>212</ele>
        <time>2016-08-23T12:02:55Z</time>
      </trkpt>
      <trkpt lat="45.85832" lon="4.65637">
        <ele>212</ele>
        <time>2016-08-23T12:02:56Z</time>
      </trkpt>
      <trkpt lat="45.85836" lon="4.65642">
        <ele>212</ele>
        <time>2016-08-23T12:02:57Z</time>
      </trkpt>
      <trkpt lat="45.85839" lon="4.65648">
        <ele>212</ele>
        <time>2016-08-23T12:02:58Z</time>
      </trkpt>
      <trkpt lat="45.85842" lon="4.65654">
        <ele>211</ele>
        <time>2016-08-23T12:02:59Z</time>
      </trkpt>
      <trkpt lat="45.85845" lon="4.6566">
        <ele>211</ele>
        <time>2016-08-23T12:03:00Z</time>
      </trkpt>
      <trkpt lat="45.85849" lon="4.65666">
        <ele>211</ele>
        <time>2016-08-23T12:03:01Z</time>
      </trkpt>
      <trkpt lat="45.85852" lon="4.65673">
        <ele>209</ele>
        <time>2016-08-23T12:03:02Z</time>
      </trkpt>
      <trkpt lat="45.85855" lon="4.65679">
        <ele>209</ele>
        <time>2016-08-23T12:03:03Z</time>
      </trkpt>
      <trkpt lat="45.85857" lon="4.65686">
        <ele>209</ele>
        <time>2016-08-23T12:03:04Z</time>
      </trkpt>
      <trkpt lat="45.8586" lon="4.65693">
        <ele>208</ele>
        <time>2016-08-23T12:03:05Z</time>
      </trkpt>
      <trkpt lat="45.85864" lon="4.657">
        <ele>208</ele>
        <time>2016-08-23T12:03:06Z</time>
      </trkpt>
      <trkpt lat="45.85865" lon="4.65708">
        <ele>208</ele>
        <time>2016-08-23T12:03:07Z</time>
      </trkpt>
      <trkpt lat="45.85867" lon="4.65716">
        <ele>208</ele>
        <time>2016-08-23T12:03:08Z</time>
      </trkpt>
      <trkpt lat="45.85868" lon="4.65724">
        <ele>208</ele>
        <time>2016-08-23T12:03:09Z</time>
      </trkpt>
      <trkpt lat="45.85869" lon="4.65733">
        <ele>208</ele>
        <time>2016-08-23T12:03:10Z</time>
      </trkpt>
      <trkpt lat="45.85871" lon="4.65741">
        <ele>208</ele>
        <time>2016-08-23T12:03:11Z</time>
      </trkpt>
      <trkpt lat="45.85872" lon="4.65748">
        <ele>207</ele>
        <time>2016-08-23T12:03:12Z</time>
      </trkpt>
      <trkpt lat="45.85873" lon="4.65755">
        <ele>208</ele>
        <time>2016-08-23T12:03:13Z</time>
      </trkpt>
      <trkpt lat="45.85874" lon="4.65762">
        <ele>208</ele>
        <time>2016-08-23T12:03:14Z</time>
      </trkpt>
      <trkpt lat="45.85874" lon="4.6577">
        <ele>209</ele>
        <time>2016-08-23T12:03:15Z</time>
      </trkpt>
      <trkpt lat="45.85875" lon="4.65778">
        <ele>209</ele>
        <time>2016-08-23T12:03:16Z</time>
      </trkpt>
      <trkpt lat="45.85875" lon="4.65785">
        <ele>209</ele>
        <time>2016-08-23T12:03:17Z</time>
      </trkpt>
      <trkpt lat="45.85875" lon="4.65793">
        <ele>209</ele>
        <time>2016-08-23T12:03:18Z</time>
      </trkpt>
      <trkpt lat="45.85874" lon="4.65801">
        <ele>210</ele>
        <time>2016-08-23T12:03:19Z</time>
      </trkpt>
      <trkpt lat="45.85873" lon="4.65809">
        <ele>210</ele>
        <time>2016-08-23T12:03:20Z</time>
      </trkpt>
      <trkpt lat="45.85872" lon="4.65817">
        <ele>210</ele>
        <time>2016-08-23T12:03:21Z</time>
      </trkpt>
      <trkpt lat="45.8587" lon="4.65825">
        <ele>210</ele>
        <time>2016-08-23T12:03:22Z</time>
      </trkpt>
      <trkpt lat="45.85868" lon="4.65833">
        <ele>210</ele>
        <time>2016-08-23T12:03:23Z</time>
      </trkpt>
      <trkpt lat="45.85866" lon="4.6584">
        <ele>218</ele>
        <time>2016-08-23T12:03:24Z</time>
      </trkpt>
      <trkpt lat="45.85863" lon="4.65846">
        <ele>218</ele>
        <time>2016-08-23T12:03:25Z</time>
      </trkpt>
      <trkpt lat="45.8586" lon="4.65853">
        <ele>219</ele>
        <time>2016-08-23T12:03:26Z</time>
      </trkpt>
      <trkpt lat="45.85857" lon="4.65859">
        <ele>219</ele>
        <time>2016-08-23T12:03:27Z</time>
      </trkpt>
      <trkpt lat="45.85854" lon="4.65865">
        <ele>220</ele>
        <time>2016-08-23T12:03:28Z</time>
      </trkpt>
      <trkpt lat="45.85851" lon="4.65871">
        <ele>220</ele>
        <time>2016-08-23T12:03:29Z</time>
      </trkpt>
      <trkpt lat="45.85848" lon="4.65877">
        <ele>221</ele>
        <time>2016-08-23T12:03:30Z</time>
      </trkpt>
      <trkpt lat="45.85844" lon="4.65883">
        <ele>222</ele>
        <time>2016-08-23T12:03:31Z</time>
      </trkpt>
      <trkpt lat="45.8584" lon="4.65888">
        <ele>222</ele>
        <time>2016-08-23T12:03:32Z</time>
      </trkpt>
      <trkpt lat="45.85836" lon="4.65892">
        <ele>222</ele>
        <time>2016-08-23T12:03:33Z</time>
      </trkpt>
      <trkpt lat="45.85831" lon="4.65898">
        <ele>218</ele>
        <time>2016-08-23T12:03:34Z</time>
      </trkpt>
      <trkpt lat="45.85826" lon="4.65903">
        <ele>219</ele>
        <time>2016-08-23T12:03:35Z</time>
      </trkpt>
      <trkpt lat="45.85822" lon="4.65907">
        <ele>219</ele>
        <time>2016-08-23T12:03:36Z</time>
      </trkpt>
      <trkpt lat="45.85817" lon="4.65912">
        <ele>219</ele>
        <time>2016-08-23T12:03:37Z</time>
      </trkpt>
      <trkpt lat="45.85812" lon="4.65915">
        <ele>218</ele>
        <time>2016-08-23T12:03:38Z</time>
      </trkpt>
      <trkpt lat="45.85808" lon="4.65919">
        <ele>223</ele>
        <time>2016-08-23T12:03:39Z</time>
      </trkpt>
      <trkpt lat="45.85803" lon="4.65922">
        <ele>223</ele>
        <time>2016-08-23T12:03:40Z</time>
      </trkpt>
      <trkpt lat="45.85799" lon="4.65926">
        <ele>223</ele>
        <time>2016-08-23T12:03:41Z</time>
      </trkpt>
      <trkpt lat="45.85795" lon="4.6593">
        <ele>223</ele>
        <time>2016-08-23T12:03:42Z</time>
      </trkpt>
      <trkpt lat="45.8579" lon="4.65934">
        <ele>222</ele>
        <time>2016-08-23T12:03:43Z</time>
      </trkpt>
      <trkpt lat="45.85785" lon="4.65937">
        <ele>222</ele>
        <time>2016-08-23T12:03:44Z</time>
      </trkpt>
      <trkpt lat="45.85779" lon="4.65941">
        <ele>222</ele>
        <time>2016-08-23T12:03:45Z</time>
      </trkpt>
      <trkpt lat="45.85774" lon="4.65946">
        <ele>221</ele>
        <time>2016-08-23T12:03:46Z</time>
      </trkpt>
      <trkpt lat="45.85769" lon="4.65951">
        <ele>221</ele>
        <time>2016-08-23T12:03:47Z</time>
      </trkpt>
      <trkpt lat="45.85765" lon="4.65957">
        <ele>221</ele>
        <time>2016-08-23T12:03:48Z</time>
      </trkpt>
      <trkpt lat="45.85759" lon="4.65961">
        <ele>221</ele>
        <time>2016-08-23T12:03:49Z</time>
      </trkpt>
      <trkpt lat="45.85754" lon="4.65967">
        <ele>221</ele>
        <time>2016-08-23T12:03:50Z</time>
      </trkpt>
      <trkpt lat="45.8575" lon="4.65972">
        <ele>213</ele>
        <time>2016-08-23T12:03:51Z</time>
      </trkpt>
      <trkpt lat="45.85746" lon="4.65979">
        <ele>214</ele>
        <time>2016-08-23T12:03:52Z</time>
      </trkpt>
      <trkpt lat="45.85742" lon="4.65985">
        <ele>214</ele>
        <time>2016-08-23T12:03:53Z</time>
      </trkpt>
      <trkpt lat="45.85739" lon="4.65992">
        <ele>215</ele>
        <time>2016-08-23T12:03:54Z</time>
      </trkpt>
      <trkpt lat="45.85737" lon="4.65999">
        <ele>215</ele>
        <time>2016-08-23T12:03:55Z</time>
      </trkpt>
      <trkpt lat="45.85734" lon="4.66006">
        <ele>216</ele>
        <time>2016-08-23T12:03:56Z</time>
      </trkpt>
      <trkpt lat="45.85732" lon="4.66014">
        <ele>215</ele>
        <time>2016-08-23T12:03:57Z</time>
      </trkpt>
      <trkpt lat="45.8573" lon="4.66022">
        <ele>215</ele>
        <time>2016-08-23T12:03:58Z</time>
      </trkpt>
      <trkpt lat="45.85728" lon="4.6603">
        <ele>215</ele>
        <time>2016-08-23T12:03:59Z</time>
      </trkpt>
      <trkpt lat="45.85726" lon="4.66038">
        <ele>215</ele>
        <time>2016-08-23T12:04:00Z</time>
      </trkpt>
      <trkpt lat="45.85724" lon="4.66046">
        <ele>216</ele>
        <time>2016-08-23T12:04:01Z</time>
      </trkpt>
      <trkpt lat="45.85722" lon="4.66053">
        <ele>216</ele>
        <time>2016-08-23T12:04:02Z</time>
      </trkpt>
      <trkpt lat="45.8572" lon="4.66061">
        <ele>216</ele>
        <time>2016-08-23T12:04:03Z</time>
      </trkpt>
      <trkpt lat="45.85719" lon="4.66068">
        <ele>216</ele>
        <time>2016-08-23T12:04:04Z</time>
      </trkpt>
      <trkpt lat="45.85718" lon="4.66076">
        <ele>216</ele>
        <time>2016-08-23T12:04:05Z</time>
      </trkpt>
      <trkpt lat="45.85717" lon="4.66084">
        <ele>219</ele>
        <time>2016-08-23T12:04:06Z</time>
      </trkpt>
      <trkpt lat="45.85715" lon="4.66092">
        <ele>219</ele>
        <time>2016-08-23T12:04:07Z</time>
      </trkpt>
      <trkpt lat="45.85714" lon="4.66099">
        <ele>219</ele>
        <time>2016-08-23T12:04:08Z</time>
      </trkpt>
      <trkpt lat="45.85712" lon="4.66107">
        <ele>219</ele>
        <time>2016-08-23T12:04:09Z</time>
      </trkpt>
      <trkpt lat="45.85711" lon="4.66114">
        <ele>219</ele>
        <time>2016-08-23T12:04:10Z</time>
      </trkpt>
      <trkpt lat="45.8571" lon="4.66121">
        <ele>219</ele>
        <time>2016-08-23T12:04:11Z</time>
      </trkpt>
      <trkpt lat="45.85708" lon="4.66128">
        <ele>219</ele>
        <time>2016-08-23T12:04:12Z</time>
      </trkpt>
      <trkpt lat="45.85707" lon="4.66136">
        <ele>219</ele>
        <time>2016-08-23T12:04:13Z</time>
      </trkpt>
      <trkpt lat="45.85707" lon="4.66143">
        <ele>219</ele>
        <time>2016-08-23T12:04:14Z</time>
      </trkpt>
      <trkpt lat="45.85706" lon="4.6615">
        <ele>219</ele>
        <time>2016-08-23T12:04:15Z</time>
      </trkpt>
      <trkpt lat="45.85705" lon="4.66158">
        <ele>218</ele>
        <time>2016-08-23T12:04:16Z</time>
      </trkpt>
      <trkpt lat="45.85704" lon="4.66165">
        <ele>218</ele>
        <time>2016-08-23T12:04:17Z</time>
      </trkpt>
      <trkpt lat="45.85703" lon="4.66172">
        <ele>220</ele>
        <time>2016-08-23T12:04:18Z</time>
      </trkpt>
      <trkpt lat="45.85703" lon="4.66179">
        <ele>220</ele>
        <time>2016-08-23T12:04:19Z</time>
      </trkpt>
      <trkpt lat="45.85701" lon="4.66186">
        <ele>220</ele>
        <time>2016-08-23T12:04:20Z</time>
      </trkpt>
      <trkpt lat="45.857" lon="4.66192">
        <ele>220</ele>
        <time>2016-08-23T12:04:21Z</time>
      </trkpt>
      <trkpt lat="45.85699" lon="4.66199">
        <ele>221</ele>
        <time>2016-08-23T12:04:22Z</time>
      </trkpt>
      <trkpt lat="45.85698" lon="4.66205">
        <ele>221</ele>
        <time>2016-08-23T12:04:23Z</time>
      </trkpt>
      <trkpt lat="45.85695" lon="4.66217">
        <ele>220</ele>
        <time>2016-08-23T12:04:25Z</time>
      </trkpt>
      <trkpt lat="45.85694" lon="4.66223">
        <ele>220</ele>
        <time>2016-08-23T12:04:26Z</time>
      </trkpt>
      <trkpt lat="45.85692" lon="4.66235">
        <ele>220</ele>
        <time>2016-08-23T12:04:28Z</time>
      </trkpt>
      <trkpt lat="45.8569" lon="4.66241">
        <ele>219</ele>
        <time>2016-08-23T12:04:29Z</time>
      </trkpt>
      <trkpt lat="45.85687" lon="4.66252">
        <ele>220</ele>
        <time>2016-08-23T12:04:31Z</time>
      </trkpt>
      <trkpt lat="45.85686" lon="4.66258">
        <ele>220</ele>
        <time>2016-08-23T12:04:32Z</time>
      </trkpt>
      <trkpt lat="45.85683" lon="4.6627">
        <ele>220</ele>
        <time>2016-08-23T12:04:34Z</time>
      </trkpt>
      <trkpt lat="45.85682" lon="4.66277">
        <ele>221</ele>
        <time>2016-08-23T12:04:35Z</time>
      </trkpt>
      <trkpt lat="45.85679" lon="4.66288">
        <ele>221</ele>
        <time>2016-08-23T12:04:37Z</time>
      </trkpt>
      <trkpt lat="45.85677" lon="4.66294">
        <ele>221</ele>
        <time>2016-08-23T12:04:38Z</time>
      </trkpt>
      <trkpt lat="45.85674" lon="4.66306">
        <ele>221</ele>
        <time>2016-08-23T12:04:40Z</time>
      </trkpt>
      <trkpt lat="45.85673" lon="4.66312">
        <ele>220</ele>
        <time>2016-08-23T12:04:41Z</time>
      </trkpt>
      <trkpt lat="45.85669" lon="4.66324">
        <ele>218</ele>
        <time>2016-08-23T12:04:43Z</time>
      </trkpt>
      <trkpt lat="45.85667" lon="4.66329">
        <ele>217</ele>
        <time>2016-08-23T12:04:44Z</time>
      </trkpt>
      <trkpt lat="45.85664" lon="4.66339">
        <ele>215</ele>
        <time>2016-08-23T12:04:46Z</time>
      </trkpt>
      <trkpt lat="45.85662" lon="4.66344">
        <ele>215</ele>
        <time>2016-08-23T12:04:47Z</time>
      </trkpt>
      <trkpt lat="45.85658" lon="4.66354">
        <ele>214</ele>
        <time>2016-08-23T12:04:49Z</time>
      </trkpt>
      <trkpt lat="45.85656" lon="4.66359">
        <ele>214</ele>
        <time>2016-08-23T12:04:50Z</time>
      </trkpt>
      <trkpt lat="45.85652" lon="4.6637">
        <ele>214</ele>
        <time>2016-08-23T12:04:52Z</time>
      </trkpt>
      <trkpt lat="45.85649" lon="4.66375">
        <ele>214</ele>
        <time>2016-08-23T12:04:53Z</time>
      </trkpt>
      <trkpt lat="45.85645" lon="4.66385">
        <ele>214</ele>
        <time>2016-08-23T12:04:55Z</time>
      </trkpt>
      <trkpt lat="45.85643" lon="4.6639">
        <ele>214</ele>
        <time>2016-08-23T12:04:56Z</time>
      </trkpt>
      <trkpt lat="45.8564" lon="4.664">
        <ele>215</ele>
        <time>2016-08-23T12:04:58Z</time>
      </trkpt>
      <trkpt lat="45.85638" lon="4.66405">
        <ele>215</ele>
        <time>2016-08-23T12:04:59Z</time>
      </trkpt>
      <trkpt lat="45.85635" lon="4.66416">
        <ele>214</ele>
        <time>2016-08-23T12:05:01Z</time>
      </trkpt>
      <trkpt lat="45.85633" lon="4.66422">
        <ele>215</ele>
        <time>2016-08-23T12:05:02Z</time>
      </trkpt>
      <trkpt lat="45.85633" lon="4.66429">
        <ele>215</ele>
        <time>2016-08-23T12:05:03Z</time>
      </trkpt>
      <trkpt lat="45.85631" lon="4.66435">
        <ele>215</ele>
        <time>2016-08-23T12:05:04Z</time>
      </trkpt>
      <trkpt lat="45.85628" lon="4.66447">
        <ele>214</ele>
        <time>2016-08-23T12:05:06Z</time>
      </trkpt>
      <trkpt lat="45.85627" lon="4.66452">
        <ele>214</ele>
        <time>2016-08-23T12:05:07Z</time>
      </trkpt>
      <trkpt lat="45.85625" lon="4.66463">
        <ele>214</ele>
        <time>2016-08-23T12:05:09Z</time>
      </trkpt>
      <trkpt lat="45.85624" lon="4.66469">
        <ele>214</ele>
        <time>2016-08-23T12:05:10Z</time>
      </trkpt>
      <trkpt lat="45.85622" lon="4.66481">
        <ele>214</ele>
        <time>2016-08-23T12:05:12Z</time>
      </trkpt>
      <trkpt lat="45.85622" lon="4.66487">
        <ele>214</ele>
        <time>2016-08-23T12:05:13Z</time>
      </trkpt>
      <trkpt lat="45.85622" lon="4.66495">
        <ele>214</ele>
        <time>2016-08-23T12:05:14Z</time>
      </trkpt>
      <trkpt lat="45.85621" lon="4.66502">
        <ele>213</ele>
        <time>2016-08-23T12:05:15Z</time>
      </trkpt>
      <trkpt lat="45.85621" lon="4.66509">
        <ele>213</ele>
        <time>2016-08-23T12:05:16Z</time>
      </trkpt>
      <trkpt lat="45.8562" lon="4.66516">
        <ele>213</ele>
        <time>2016-08-23T12:05:17Z</time>
      </trkpt>
      <trkpt lat="45.85619" lon="4.66528">
        <ele>213</ele>
        <time>2016-08-23T12:05:19Z</time>
      </trkpt>
      <trkpt lat="45.8562" lon="4.66536">
        <ele>213</ele>
        <time>2016-08-23T12:05:20Z</time>
      </trkpt>
      <trkpt lat="45.8562" lon="4.66543">
        <ele>213</ele>
        <time>2016-08-23T12:05:21Z</time>
      </trkpt>
      <trkpt lat="45.8562" lon="4.66551">
        <ele>213</ele>
        <time>2016-08-23T12:05:22Z</time>
      </trkpt>
      <trkpt lat="45.8562" lon="4.66558">
        <ele>213</ele>
        <time>2016-08-23T12:05:23Z</time>
      </trkpt>
      <trkpt lat="45.85621" lon="4.66565">
        <ele>213</ele>
        <time>2016-08-23T12:05:24Z</time>
      </trkpt>
      <trkpt lat="45.85621" lon="4.66574">
        <ele>213</ele>
        <time>2016-08-23T12:05:25Z</time>
      </trkpt>
      <trkpt lat="45.8562" lon="4.66581">
        <ele>213</ele>
        <time>2016-08-23T12:05:26Z</time>
      </trkpt>
      <trkpt lat="45.8562" lon="4.66589">
        <ele>213</ele>
        <time>2016-08-23T12:05:27Z</time>
      </trkpt>
      <trkpt lat="45.8562" lon="4.66597">
        <ele>213</ele>
        <time>2016-08-23T12:05:28Z</time>
      </trkpt>
      <trkpt lat="45.85619" lon="4.66604">
        <ele>213</ele>
        <time>2016-08-23T12:05:29Z</time>
      </trkpt>
      <trkpt lat="45.85618" lon="4.66612">
        <ele>213</ele>
        <time>2016-08-23T12:05:30Z</time>
      </trkpt>
      <trkpt lat="45.85618" lon="4.66619">
        <ele>213</ele>
        <time>2016-08-23T12:05:31Z</time>
      </trkpt>
      <trkpt lat="45.85617" lon="4.66626">
        <ele>213</ele>
        <time>2016-08-23T12:05:32Z</time>
      </trkpt>
      <trkpt lat="45.85617" lon="4.66633">
        <ele>213</ele>
        <time>2016-08-23T12:05:33Z</time>
      </trkpt>
      <trkpt lat="45.85616" lon="4.6664">
        <ele>213</ele>
        <time>2016-08-23T12:05:34Z</time>
      </trkpt>
      <trkpt lat="45.85616" lon="4.66647">
        <ele>212</ele>
        <time>2016-08-23T12:05:35Z</time>
      </trkpt>
      <trkpt lat="45.85616" lon="4.66654">
        <ele>212</ele>
        <time>2016-08-23T12:05:36Z</time>
      </trkpt>
      <trkpt lat="45.85616" lon="4.66661">
        <ele>212</ele>
        <time>2016-08-23T12:05:37Z</time>
      </trkpt>
      <trkpt lat="45.85616" lon="4.66669">
        <ele>211</ele>
        <time>2016-08-23T12:05:38Z</time>
      </trkpt>
      <trkpt lat="45.85616" lon="4.66676">
        <ele>211</ele>
        <time>2016-08-23T12:05:39Z</time>
      </trkpt>
      <trkpt lat="45.85616" lon="4.66684">
        <ele>211</ele>
        <time>2016-08-23T12:05:40Z</time>
      </trkpt>
      <trkpt lat="45.85617" lon="4.66692">
        <ele>211</ele>
        <time>2016-08-23T12:05:41Z</time>
      </trkpt>
      <trkpt lat="45.85618" lon="4.66701">
        <ele>212</ele>
        <time>2016-08-23T12:05:42Z</time>
      </trkpt>
      <trkpt lat="45.85618" lon="4.66708">
        <ele>211</ele>
        <time>2016-08-23T12:05:43Z</time>
      </trkpt>
      <trkpt lat="45.85619" lon="4.66716">
        <ele>211</ele>
        <time>2016-08-23T12:05:44Z</time>
      </trkpt>
      <trkpt lat="45.8562" lon="4.66724">
        <ele>211</ele>
        <time>2016-08-23T12:05:45Z</time>
      </trkpt>
      <trkpt lat="45.85621" lon="4.66732">
        <ele>211</ele>
        <time>2016-08-23T12:05:46Z</time>
      </trkpt>
      <trkpt lat="45.85621" lon="4.6674">
        <ele>211</ele>
        <time>2016-08-23T12:05:47Z</time>
      </trkpt>
      <trkpt lat="45.85622" lon="4.66748">
        <ele>211</ele>
        <time>2016-08-23T12:05:48Z</time>
      </trkpt>
      <trkpt lat="45.85623" lon="4.66756">
        <ele>210</ele>
        <time>2016-08-23T12:05:49Z</time>
      </trkpt>
      <trkpt lat="45.85624" lon="4.66764">
        <ele>210</ele>
        <time>2016-08-23T12:05:50Z</time>
      </trkpt>
      <trkpt lat="45.85624" lon="4.66772">
        <ele>210</ele>
        <time>2016-08-23T12:05:51Z</time>
      </trkpt>
      <trkpt lat="45.85625" lon="4.6678">
        <ele>210</ele>
        <time>2016-08-23T12:05:52Z</time>
      </trkpt>
      <trkpt lat="45.85625" lon="4.66788">
        <ele>210</ele>
        <time>2016-08-23T12:05:53Z</time>
      </trkpt>
      <trkpt lat="45.85626" lon="4.66796">
        <ele>210</ele>
        <time>2016-08-23T12:05:54Z</time>
      </trkpt>
      <trkpt lat="45.85627" lon="4.66804">
        <ele>210</ele>
        <time>2016-08-23T12:05:55Z</time>
      </trkpt>
      <trkpt lat="45.85627" lon="4.66812">
        <ele>210</ele>
        <time>2016-08-23T12:05:56Z</time>
      </trkpt>
      <trkpt lat="45.85628" lon="4.66819">
        <ele>210</ele>
        <time>2016-08-23T12:05:57Z</time>
      </trkpt>
      <trkpt lat="45.85629" lon="4.66826">
        <ele>210</ele>
        <time>2016-08-23T12:05:58Z</time>
      </trkpt>
      <trkpt lat="45.8563" lon="4.66834">
        <ele>209</ele>
        <time>2016-08-23T12:05:59Z</time>
      </trkpt>
      <trkpt lat="45.8563" lon="4.6684">
        <ele>209</ele>
        <time>2016-08-23T12:06:00Z</time>
      </trkpt>
      <trkpt lat="45.8563" lon="4.66847">
        <ele>209</ele>
        <time>2016-08-23T12:06:01Z</time>
      </trkpt>
      <trkpt lat="45.85631" lon="4.66855">
        <ele>208</ele>
        <time>2016-08-23T12:06:02Z</time>
      </trkpt>
      <trkpt lat="45.85632" lon="4.66862">
        <ele>208</ele>
        <time>2016-08-23T12:06:03Z</time>
      </trkpt>
      <trkpt lat="45.85634" lon="4.6687">
        <ele>208</ele>
        <time>2016-08-23T12:06:04Z</time>
      </trkpt>
      <trkpt lat="45.85636" lon="4.66877">
        <ele>208</ele>
        <time>2016-08-23T12:06:05Z</time>
      </trkpt>
      <trkpt lat="45.85639" lon="4.66885">
        <ele>208</ele>
        <time>2016-08-23T12:06:06Z</time>
      </trkpt>
      <trkpt lat="45.85642" lon="4.66892">
        <ele>208</ele>
        <time>2016-08-23T12:06:07Z</time>
      </trkpt>
      <trkpt lat="45.85646" lon="4.66899">
        <ele>208</ele>
        <time>2016-08-23T12:06:08Z</time>
      </trkpt>
      <trkpt lat="45.85651" lon="4.66905">
        <ele>208</ele>
        <time>2016-08-23T12:06:09Z</time>
      </trkpt>
      <trkpt lat="45.85656" lon="4.66909">
        <ele>208</ele>
        <time>2016-08-23T12:06:10Z</time>
      </trkpt>
      <trkpt lat="45.85662" lon="4.66913">
        <ele>208</ele>
        <time>2016-08-23T12:06:11Z</time>
      </trkpt>
      <trkpt lat="45.85668" lon="4.66915">
        <ele>208</ele>
        <time>2016-08-23T12:06:12Z</time>
      </trkpt>
      <trkpt lat="45.85673" lon="4.66918">
        <ele>208</ele>
        <time>2016-08-23T12:06:13Z</time>
      </trkpt>
      <trkpt lat="45.8568" lon="4.6692">
        <ele>208</ele>
        <time>2016-08-23T12:06:14Z</time>
      </trkpt>
      <trkpt lat="45.85686" lon="4.66922">
        <ele>209</ele>
        <time>2016-08-23T12:06:15Z</time>
      </trkpt>
      <trkpt lat="45.85692" lon="4.66924">
        <ele>209</ele>
        <time>2016-08-23T12:06:16Z</time>
      </trkpt>
      <trkpt lat="45.85699" lon="4.66927">
        <ele>209</ele>
        <time>2016-08-23T12:06:17Z</time>
      </trkpt>
      <trkpt lat="45.85705" lon="4.66929">
        <ele>209</ele>
        <time>2016-08-23T12:06:18Z</time>
      </trkpt>
      <trkpt lat="45.85712" lon="4.66932">
        <ele>209</ele>
        <time>2016-08-23T12:06:19Z</time>
      </trkpt>
      <trkpt lat="45.85718" lon="4.66935">
        <ele>210</ele>
        <time>2016-08-23T12:06:20Z</time>
      </trkpt>
      <trkpt lat="45.85725" lon="4.66938">
        <ele>210</ele>
        <time>2016-08-23T12:06:21Z</time>
      </trkpt>
      <trkpt lat="45.85731" lon="4.66941">
        <ele>210</ele>
        <time>2016-08-23T12:06:22Z</time>
      </trkpt>
      <trkpt lat="45.85738" lon="4.66943">
        <ele>210</ele>
        <time>2016-08-23T12:06:23Z</time>
      </trkpt>
      <trkpt lat="45.85745" lon="4.66946">
        <ele>210</ele>
        <time>2016-08-23T12:06:24Z</time>
      </trkpt>
      <trkpt lat="45.85752" lon="4.66947">
        <ele>210</ele>
        <time>2016-08-23T12:06:25Z</time>
      </trkpt>
      <trkpt lat="45.8576" lon="4.66949">
        <ele>210</ele>
        <time>2016-08-23T12:06:26Z</time>
      </trkpt>
      <trkpt lat="45.85767" lon="4.66949">
        <ele>210</ele>
        <time>2016-08-23T12:06:27Z</time>
      </trkpt>
      <trkpt lat="45.85774" lon="4.66949">
        <ele>210</ele>
        <time>2016-08-23T12:06:28Z</time>
      </trkpt>
      <trkpt lat="45.85781" lon="4.66948">
        <ele>210</ele>
        <time>2016-08-23T12:06:29Z</time>
      </trkpt>
      <trkpt lat="45.85789" lon="4.66947">
        <ele>210</ele>
        <time>2016-08-23T12:06:30Z</time>
      </trkpt>
      <trkpt lat="45.85796" lon="4.66946">
        <ele>210</ele>
        <time>2016-08-23T12:06:31Z</time>
      </trkpt>
      <trkpt lat="45.85804" lon="4.66946">
        <ele>209</ele>
        <time>2016-08-23T12:06:32Z</time>
      </trkpt>
      <trkpt lat="45.85811" lon="4.66945">
        <ele>209</ele>
        <time>2016-08-23T12:06:33Z</time>
      </trkpt>
      <trkpt lat="45.85818" lon="4.66946">
        <ele>209</ele>
        <time>2016-08-23T12:06:34Z</time>
      </trkpt>
      <trkpt lat="45.85826" lon="4.66948">
        <ele>209</ele>
        <time>2016-08-23T12:06:35Z</time>
      </trkpt>
      <trkpt lat="45.85833" lon="4.6695">
        <ele>209</ele>
        <time>2016-08-23T12:06:36Z</time>
      </trkpt>
      <trkpt lat="45.85841" lon="4.66952">
        <ele>208</ele>
        <time>2016-08-23T12:06:37Z</time>
      </trkpt>
      <trkpt lat="45.85848" lon="4.66954">
        <ele>208</ele>
        <time>2016-08-23T12:06:38Z</time>
      </trkpt>
      <trkpt lat="45.85856" lon="4.66956">
        <ele>207</ele>
        <time>2016-08-23T12:06:39Z</time>
      </trkpt>
      <trkpt lat="45.85863" lon="4.66958">
        <ele>207</ele>
        <time>2016-08-23T12:06:40Z</time>
      </trkpt>
      <trkpt lat="45.8587" lon="4.66959">
        <ele>207</ele>
        <time>2016-08-23T12:06:41Z</time>
      </trkpt>
      <trkpt lat="45.85878" lon="4.66962">
        <ele>207</ele>
        <time>2016-08-23T12:06:42Z</time>
      </trkpt>
      <trkpt lat="45.85885" lon="4.66965">
        <ele>207</ele>
        <time>2016-08-23T12:06:43Z</time>
      </trkpt>
      <trkpt lat="45.85892" lon="4.6697">
        <ele>207</ele>
        <time>2016-08-23T12:06:44Z</time>
      </trkpt>
      <trkpt lat="45.85897" lon="4.66976">
        <ele>207</ele>
        <time>2016-08-23T12:06:45Z</time>
      </trkpt>
      <trkpt lat="45.85902" lon="4.66983">
        <ele>207</ele>
        <time>2016-08-23T12:06:46Z</time>
      </trkpt>
      <trkpt lat="45.85903" lon="4.66991">
        <ele>207</ele>
        <time>2016-08-23T12:06:47Z</time>
      </trkpt>
      <trkpt lat="45.85904" lon="4.66997">
        <ele>206</ele>
        <time>2016-08-23T12:06:48Z</time>
      </trkpt>
      <trkpt lat="45.85904" lon="4.67005">
        <ele>206</ele>
        <time>2016-08-23T12:06:49Z</time>
      </trkpt>
      <trkpt lat="45.85904" lon="4.67012">
        <ele>205</ele>
        <time>2016-08-23T12:06:50Z</time>
      </trkpt>
      <trkpt lat="45.85902" lon="4.6702">
        <ele>205</ele>
        <time>2016-08-23T12:06:51Z</time>
      </trkpt>
      <trkpt lat="45.85901" lon="4.67029">
        <ele>205</ele>
        <time>2016-08-23T12:06:52Z</time>
      </trkpt>
      <trkpt lat="45.85899" lon="4.67037">
        <ele>205</ele>
        <time>2016-08-23T12:06:53Z</time>
      </trkpt>
      <trkpt lat="45.85898" lon="4.67045">
        <ele>205</ele>
        <time>2016-08-23T12:06:54Z</time>
      </trkpt>
      <trkpt lat="45.85897" lon="4.67053">
        <ele>205</ele>
        <time>2016-08-23T12:06:55Z</time>
      </trkpt>
      <trkpt lat="45.85896" lon="4.67062">
        <ele>205</ele>
        <time>2016-08-23T12:06:56Z</time>
      </trkpt>
      <trkpt lat="45.85895" lon="4.6707">
        <ele>205</ele>
        <time>2016-08-23T12:06:57Z</time>
      </trkpt>
      <trkpt lat="45.85894" lon="4.67079">
        <ele>205</ele>
        <time>2016-08-23T12:06:58Z</time>
      </trkpt>
      <trkpt lat="45.85893" lon="4.67086">
        <ele>204</ele>
        <time>2016-08-23T12:06:59Z</time>
      </trkpt>
      <trkpt lat="45.85892" lon="4.67093">
        <ele>204</ele>
        <time>2016-08-23T12:07:00Z</time>
      </trkpt>
      <trkpt lat="45.85891" lon="4.671">
        <ele>204</ele>
        <time>2016-08-23T12:07:01Z</time>
      </trkpt>
      <trkpt lat="45.85891" lon="4.67108">
        <ele>204</ele>
        <time>2016-08-23T12:07:02Z</time>
      </trkpt>
      <trkpt lat="45.8589" lon="4.67115">
        <ele>204</ele>
        <time>2016-08-23T12:07:03Z</time>
      </trkpt>
      <trkpt lat="45.85889" lon="4.67123">
        <ele>204</ele>
        <time>2016-08-23T12:07:04Z</time>
      </trkpt>
      <trkpt lat="45.85889" lon="4.67131">
        <ele>204</ele>
        <time>2016-08-23T12:07:05Z</time>
      </trkpt>
      <trkpt lat="45.85888" lon="4.67139">
        <ele>204</ele>
        <time>2016-08-23T12:07:06Z</time>
      </trkpt>
      <trkpt lat="45.85887" lon="4.67147">
        <ele>204</ele>
        <time>2016-08-23T12:07:07Z</time>
      </trkpt>
      <trkpt lat="45.85887" lon="4.67155">
        <ele>204</ele>
        <time>2016-08-23T12:07:08Z</time>
      </trkpt>
      <trkpt lat="45.85886" lon="4.67163">
        <ele>204</ele>
        <time>2016-08-23T12:07:09Z</time>
      </trkpt>
      <trkpt lat="45.85885" lon="4.6717">
        <ele>204</ele>
        <time>2016-08-23T12:07:10Z</time>
      </trkpt>
      <trkpt lat="45.85884" lon="4.67177">
        <ele>204</ele>
        <time>2016-08-23T12:07:11Z</time>
      </trkpt>
      <trkpt lat="45.85883" lon="4.67185">
        <ele>204</ele>
        <time>2016-08-23T12:07:12Z</time>
      </trkpt>
      <trkpt lat="45.85882" lon="4.67191">
        <ele>204</ele>
        <time>2016-08-23T12:07:13Z</time>
      </trkpt>
      <trkpt lat="45.85881" lon="4.67198">
        <ele>204</ele>
        <time>2016-08-23T12:07:14Z</time>
      </trkpt>
      <trkpt lat="45.85881" lon="4.67204">
        <ele>204</ele>
        <time>2016-08-23T12:07:15Z</time>
      </trkpt>
      <trkpt lat="45.85881" lon="4.67211">
        <ele>204</ele>
        <time>2016-08-23T12:07:16Z</time>
      </trkpt>
      <trkpt lat="45.8588" lon="4.67217">
        <ele>204</ele>
        <time>2016-08-23T12:07:17Z</time>
      </trkpt>
      <trkpt lat="45.85879" lon="4.67225">
        <ele>204</ele>
        <time>2016-08-23T12:07:18Z</time>
      </trkpt>
      <trkpt lat="45.85878" lon="4.67231">
        <ele>204</ele>
        <time>2016-08-23T12:07:19Z</time>
      </trkpt>
      <trkpt lat="45.85877" lon="4.67238">
        <ele>204</ele>
        <time>2016-08-23T12:07:20Z</time>
      </trkpt>
      <trkpt lat="45.85876" lon="4.67245">
        <ele>204</ele>
        <time>2016-08-23T12:07:21Z</time>
      </trkpt>
      <trkpt lat="45.85876" lon="4.67252">
        <ele>205</ele>
        <time>2016-08-23T12:07:22Z</time>
      </trkpt>
      <trkpt lat="45.85875" lon="4.67259">
        <ele>205</ele>
        <time>2016-08-23T12:07:23Z</time>
      </trkpt>
      <trkpt lat="45.85875" lon="4.67265">
        <ele>205</ele>
        <time>2016-08-23T12:07:24Z</time>
      </trkpt>
      <trkpt lat="45.85874" lon="4.67272">
        <ele>205</ele>
        <time>2016-08-23T12:07:25Z</time>
      </trkpt>
      <trkpt lat="45.85873" lon="4.67279">
        <ele>205</ele>
        <time>2016-08-23T12:07:26Z</time>
      </trkpt>
      <trkpt lat="45.85872" lon="4.67286">
        <ele>205</ele>
        <time>2016-08-23T12:07:27Z</time>
      </trkpt>
      <trkpt lat="45.85871" lon="4.67294">
        <ele>205</ele>
        <time>2016-08-23T12:07:28Z</time>
      </trkpt>
      <trkpt lat="45.8587" lon="4.673">
        <ele>205</ele>
        <time>2016-08-23T12:07:29Z</time>
      </trkpt>
      <trkpt lat="45.8587" lon="4.67307">
        <ele>205</ele>
        <time>2016-08-23T12:07:30Z</time>
      </trkpt>
      <trkpt lat="45.85869" lon="4.67314">
        <ele>205</ele>
        <time>2016-08-23T12:07:31Z</time>
      </trkpt>
      <trkpt lat="45.85868" lon="4.6732">
        <ele>205</ele>
        <time>2016-08-23T12:07:32Z</time>
      </trkpt>
      <trkpt lat="45.85868" lon="4.67333">
        <ele>205</ele>
        <time>2016-08-23T12:07:34Z</time>
      </trkpt>
      <trkpt lat="45.85868" lon="4.67339">
        <ele>208</ele>
        <time>2016-08-23T12:07:35Z</time>
      </trkpt>
      <trkpt lat="45.85867" lon="4.67346">
        <ele>208</ele>
        <time>2016-08-23T12:07:36Z</time>
      </trkpt>
      <trkpt lat="45.85867" lon="4.67353">
        <ele>208</ele>
        <time>2016-08-23T12:07:37Z</time>
      </trkpt>
      <trkpt lat="45.85866" lon="4.6736">
        <ele>208</ele>
        <time>2016-08-23T12:07:38Z</time>
      </trkpt>
      <trkpt lat="45.85865" lon="4.67368">
        <ele>208</ele>
        <time>2016-08-23T12:07:39Z</time>
      </trkpt>
      <trkpt lat="45.85864" lon="4.67375">
        <ele>208</ele>
        <time>2016-08-23T12:07:40Z</time>
      </trkpt>
      <trkpt lat="45.85864" lon="4.67382">
        <ele>208</ele>
        <time>2016-08-23T12:07:41Z</time>
      </trkpt>
      <trkpt lat="45.85863" lon="4.67389">
        <ele>208</ele>
        <time>2016-08-23T12:07:42Z</time>
      </trkpt>
      <trkpt lat="45.85862" lon="4.67396">
        <ele>208</ele>
        <time>2016-08-23T12:07:43Z</time>
      </trkpt>
      <trkpt lat="45.85862" lon="4.67402">
        <ele>208</ele>
        <time>2016-08-23T12:07:44Z</time>
      </trkpt>
      <trkpt lat="45.85861" lon="4.67409">
        <ele>208</ele>
        <time>2016-08-23T12:07:45Z</time>
      </trkpt>
      <trkpt lat="45.8586" lon="4.67415">
        <ele>208</ele>
        <time>2016-08-23T12:07:46Z</time>
      </trkpt>
      <trkpt lat="45.8586" lon="4.67422">
        <ele>211</ele>
        <time>2016-08-23T12:07:47Z</time>
      </trkpt>
      <trkpt lat="45.85859" lon="4.67428">
        <ele>211</ele>
        <time>2016-08-23T12:07:48Z</time>
      </trkpt>
      <trkpt lat="45.85858" lon="4.67435">
        <ele>212</ele>
        <time>2016-08-23T12:07:49Z</time>
      </trkpt>
      <trkpt lat="45.85858" lon="4.67443">
        <ele>212</ele>
        <time>2016-08-23T12:07:50Z</time>
      </trkpt>
      <trkpt lat="45.85857" lon="4.6745">
        <ele>212</ele>
        <time>2016-08-23T12:07:51Z</time>
      </trkpt>
      <trkpt lat="45.85855" lon="4.67457">
        <ele>213</ele>
        <time>2016-08-23T12:07:52Z</time>
      </trkpt>
      <trkpt lat="45.85853" lon="4.67465">
        <ele>213</ele>
        <time>2016-08-23T12:07:53Z</time>
      </trkpt>
      <trkpt lat="45.85851" lon="4.67472">
        <ele>212</ele>
        <time>2016-08-23T12:07:54Z</time>
      </trkpt>
      <trkpt lat="45.85848" lon="4.6748">
        <ele>212</ele>
        <time>2016-08-23T12:07:55Z</time>
      </trkpt>
      <trkpt lat="45.85846" lon="4.67487">
        <ele>211</ele>
        <time>2016-08-23T12:07:56Z</time>
      </trkpt>
      <trkpt lat="45.85843" lon="4.67493">
        <ele>210</ele>
        <time>2016-08-23T12:07:57Z</time>
      </trkpt>
      <trkpt lat="45.8584" lon="4.675">
        <ele>208</ele>
        <time>2016-08-23T12:07:58Z</time>
      </trkpt>
      <trkpt lat="45.85838" lon="4.67506">
        <ele>211</ele>
        <time>2016-08-23T12:07:59Z</time>
      </trkpt>
      <trkpt lat="45.85834" lon="4.67511">
        <ele>213</ele>
        <time>2016-08-23T12:08:00Z</time>
      </trkpt>
      <trkpt lat="45.85831" lon="4.67517">
        <ele>208</ele>
        <time>2016-08-23T12:08:01Z</time>
      </trkpt>
      <trkpt lat="45.85828" lon="4.67523">
        <ele>209</ele>
        <time>2016-08-23T12:08:02Z</time>
      </trkpt>
      <trkpt lat="45.85824" lon="4.67528">
        <ele>209</ele>
        <time>2016-08-23T12:08:03Z</time>
      </trkpt>
      <trkpt lat="45.8582" lon="4.67533">
        <ele>210</ele>
        <time>2016-08-23T12:08:04Z</time>
      </trkpt>
      <trkpt lat="45.85816" lon="4.67538">
        <ele>210</ele>
        <time>2016-08-23T12:08:05Z</time>
      </trkpt>
      <trkpt lat="45.85813" lon="4.67543">
        <ele>210</ele>
        <time>2016-08-23T12:08:06Z</time>
      </trkpt>
      <trkpt lat="45.85809" lon="4.67547">
        <ele>211</ele>
        <time>2016-08-23T12:08:07Z</time>
      </trkpt>
      <trkpt lat="45.85805" lon="4.67552">
        <ele>211</ele>
        <time>2016-08-23T12:08:08Z</time>
      </trkpt>
      <trkpt lat="45.85802" lon="4.67557">
        <ele>211</ele>
        <time>2016-08-23T12:08:09Z</time>
      </trkpt>
      <trkpt lat="45.85798" lon="4.67562">
        <ele>211</ele>
        <time>2016-08-23T12:08:10Z</time>
      </trkpt>
      <trkpt lat="45.85794" lon="4.67567">
        <ele>211</ele>
        <time>2016-08-23T12:08:11Z</time>
      </trkpt>
      <trkpt lat="45.8579" lon="4.67572">
        <ele>211</ele>
        <time>2016-08-23T12:08:12Z</time>
      </trkpt>
      <trkpt lat="45.85785" lon="4.67576">
        <ele>210</ele>
        <time>2016-08-23T12:08:13Z</time>
      </trkpt>
      <trkpt lat="45.85781" lon="4.67582">
        <ele>210</ele>
        <time>2016-08-23T12:08:14Z</time>
      </trkpt>
      <trkpt lat="45.85776" lon="4.67587">
        <ele>217</ele>
        <time>2016-08-23T12:08:15Z</time>
      </trkpt>
      <trkpt lat="45.85772" lon="4.67593">
        <ele>216</ele>
        <time>2016-08-23T12:08:16Z</time>
      </trkpt>
      <trkpt lat="45.85768" lon="4.67597">
        <ele>216</ele>
        <time>2016-08-23T12:08:17Z</time>
      </trkpt>
      <trkpt lat="45.85763" lon="4.676">
        <ele>215</ele>
        <time>2016-08-23T12:08:18Z</time>
      </trkpt>
      <trkpt lat="45.85758" lon="4.67604">
        <ele>216</ele>
        <time>2016-08-23T12:08:19Z</time>
      </trkpt>
      <trkpt lat="45.85753" lon="4.67607">
        <ele>216</ele>
        <time>2016-08-23T12:08:20Z</time>
      </trkpt>
      <trkpt lat="45.85748" lon="4.67609">
        <ele>210</ele>
        <time>2016-08-23T12:08:21Z</time>
      </trkpt>
      <trkpt lat="45.85742" lon="4.67613">
        <ele>210</ele>
        <time>2016-08-23T12:08:22Z</time>
      </trkpt>
      <trkpt lat="45.85737" lon="4.67616">
        <ele>210</ele>
        <time>2016-08-23T12:08:23Z</time>
      </trkpt>
      <trkpt lat="45.85732" lon="4.67619">
        <ele>211</ele>
        <time>2016-08-23T12:08:24Z</time>
      </trkpt>
      <trkpt lat="45.85726" lon="4.67623">
        <ele>211</ele>
        <time>2016-08-23T12:08:25Z</time>
      </trkpt>
      <trkpt lat="45.85721" lon="4.67626">
        <ele>211</ele>
        <time>2016-08-23T12:08:26Z</time>
      </trkpt>
      <trkpt lat="45.85716" lon="4.67629">
        <ele>211</ele>
        <time>2016-08-23T12:08:27Z</time>
      </trkpt>
      <trkpt lat="45.85712" lon="4.67632">
        <ele>211</ele>
        <time>2016-08-23T12:08:28Z</time>
      </trkpt>
      <trkpt lat="45.85707" lon="4.67636">
        <ele>211</ele>
        <time>2016-08-23T12:08:29Z</time>
      </trkpt>
      <trkpt lat="45.85703" lon="4.67639">
        <ele>211</ele>
        <time>2016-08-23T12:08:30Z</time>
      </trkpt>
      <trkpt lat="45.85698" lon="4.67641">
        <ele>211</ele>
        <time>2016-08-23T12:08:31Z</time>
      </trkpt>
      <trkpt lat="45.85693" lon="4.67645">
        <ele>210</ele>
        <time>2016-08-23T12:08:32Z</time>
      </trkpt>
      <trkpt lat="45.85689" lon="4.67648">
        <ele>210</ele>
        <time>2016-08-23T12:08:33Z</time>
      </trkpt>
      <trkpt lat="45.85684" lon="4.67652">
        <ele>210</ele>
        <time>2016-08-23T12:08:34Z</time>
      </trkpt>
      <trkpt lat="45.85679" lon="4.67656">
        <ele>210</ele>
        <time>2016-08-23T12:08:35Z</time>
      </trkpt>
      <trkpt lat="45.85675" lon="4.6766">
        <ele>210</ele>
        <time>2016-08-23T12:08:36Z</time>
      </trkpt>
      <trkpt lat="45.85671" lon="4.67663">
        <ele>209</ele>
        <time>2016-08-23T12:08:37Z</time>
      </trkpt>
      <trkpt lat="45.85666" lon="4.67667">
        <ele>209</ele>
        <time>2016-08-23T12:08:38Z</time>
      </trkpt>
      <trkpt lat="45.85661" lon="4.67671">
        <ele>209</ele>
        <time>2016-08-23T12:08:39Z</time>
      </trkpt>
      <trkpt lat="45.85657" lon="4.67674">
        <ele>209</ele>
        <time>2016-08-23T12:08:40Z</time>
      </trkpt>
      <trkpt lat="45.85653" lon="4.67678">
        <ele>209</ele>
        <time>2016-08-23T12:08:41Z</time>
      </trkpt>
      <trkpt lat="45.85649" lon="4.67681">
        <ele>209</ele>
        <time>2016-08-23T12:08:42Z</time>
      </trkpt>
      <trkpt lat="45.85645" lon="4.67684">
        <ele>209</ele>
        <time>2016-08-23T12:08:43Z</time>
      </trkpt>
      <trkpt lat="45.85641" lon="4.67688">
        <ele>209</ele>
        <time>2016-08-23T12:08:44Z</time>
      </trkpt>
      <trkpt lat="45.85637" lon="4.67692">
        <ele>209</ele>
        <time>2016-08-23T12:08:45Z</time>
      </trkpt>
      <trkpt lat="45.85632" lon="4.67697">
        <ele>209</ele>
        <time>2016-08-23T12:08:46Z</time>
      </trkpt>
      <trkpt lat="45.85628" lon="4.67701">
        <ele>209</ele>
        <time>2016-08-23T12:08:47Z</time>
      </trkpt>
      <trkpt lat="45.85623" lon="4.67706">
        <ele>209</ele>
        <time>2016-08-23T12:08:48Z</time>
      </trkpt>
      <trkpt lat="45.85619" lon="4.67711">
        <ele>209</ele>
        <time>2016-08-23T12:08:49Z</time>
      </trkpt>
      <trkpt lat="45.85616" lon="4.67716">
        <ele>209</ele>
        <time>2016-08-23T12:08:50Z</time>
      </trkpt>
      <trkpt lat="45.85613" lon="4.67723">
        <ele>208</ele>
        <time>2016-08-23T12:08:51Z</time>
      </trkpt>
      <trkpt lat="45.8561" lon="4.67729">
        <ele>208</ele>
        <time>2016-08-23T12:08:52Z</time>
      </trkpt>
      <trkpt lat="45.85607" lon="4.67734">
        <ele>208</ele>
        <time>2016-08-23T12:08:53Z</time>
      </trkpt>
      <trkpt lat="45.85603" lon="4.6774">
        <ele>207</ele>
        <time>2016-08-23T12:08:54Z</time>
      </trkpt>
      <trkpt lat="45.856" lon="4.67746">
        <ele>206</ele>
        <time>2016-08-23T12:08:55Z</time>
      </trkpt>
      <trkpt lat="45.85597" lon="4.67753">
        <ele>207</ele>
        <time>2016-08-23T12:08:56Z</time>
      </trkpt>
      <trkpt lat="45.85595" lon="4.67759">
        <ele>207</ele>
        <time>2016-08-23T12:08:57Z</time>
      </trkpt>
      <trkpt lat="45.85592" lon="4.67766">
        <ele>208</ele>
        <time>2016-08-23T12:08:58Z</time>
      </trkpt>
      <trkpt lat="45.8559" lon="4.67773">
        <ele>209</ele>
        <time>2016-08-23T12:08:59Z</time>
      </trkpt>
      <trkpt lat="45.85588" lon="4.6778">
        <ele>209</ele>
        <time>2016-08-23T12:09:00Z</time>
      </trkpt>
      <trkpt lat="45.85585" lon="4.67787">
        <ele>209</ele>
        <time>2016-08-23T12:09:01Z</time>
      </trkpt>
      <trkpt lat="45.85583" lon="4.67795">
        <ele>206</ele>
        <time>2016-08-23T12:09:02Z</time>
      </trkpt>
      <trkpt lat="45.85581" lon="4.67802">
        <ele>206</ele>
        <time>2016-08-23T12:09:03Z</time>
      </trkpt>
      <trkpt lat="45.8558" lon="4.6781">
        <ele>206</ele>
        <time>2016-08-23T12:09:04Z</time>
      </trkpt>
      <trkpt lat="45.85578" lon="4.67817">
        <ele>206</ele>
        <time>2016-08-23T12:09:05Z</time>
      </trkpt>
      <trkpt lat="45.85577" lon="4.67824">
        <ele>206</ele>
        <time>2016-08-23T12:09:06Z</time>
      </trkpt>
      <trkpt lat="45.85575" lon="4.6783">
        <ele>206</ele>
        <time>2016-08-23T12:09:07Z</time>
      </trkpt>
      <trkpt lat="45.85573" lon="4.67837">
        <ele>206</ele>
        <time>2016-08-23T12:09:08Z</time>
      </trkpt>
      <trkpt lat="45.85572" lon="4.67843">
        <ele>206</ele>
        <time>2016-08-23T12:09:09Z</time>
      </trkpt>
      <trkpt lat="45.85571" lon="4.6785">
        <ele>206</ele>
        <time>2016-08-23T12:09:10Z</time>
      </trkpt>
      <trkpt lat="45.85572" lon="4.67857">
        <ele>206</ele>
        <time>2016-08-23T12:09:11Z</time>
      </trkpt>
      <trkpt lat="45.85571" lon="4.67863">
        <ele>207</ele>
        <time>2016-08-23T12:09:12Z</time>
      </trkpt>
      <trkpt lat="45.85572" lon="4.67871">
        <ele>207</ele>
        <time>2016-08-23T12:09:13Z</time>
      </trkpt>
      <trkpt lat="45.85573" lon="4.67878">
        <ele>207</ele>
        <time>2016-08-23T12:09:14Z</time>
      </trkpt>
      <trkpt lat="45.85574" lon="4.67884">
        <ele>206</ele>
        <time>2016-08-23T12:09:15Z</time>
      </trkpt>
      <trkpt lat="45.85574" lon="4.67896">
        <ele>206</ele>
        <time>2016-08-23T12:09:17Z</time>
      </trkpt>
      <trkpt lat="45.85576" lon="4.67902">
        <ele>206</ele>
        <time>2016-08-23T12:09:18Z</time>
      </trkpt>
      <trkpt lat="45.85575" lon="4.67913">
        <ele>205</ele>
        <time>2016-08-23T12:09:20Z</time>
      </trkpt>
      <trkpt lat="45.85574" lon="4.67918">
        <ele>204</ele>
        <time>2016-08-23T12:09:21Z</time>
      </trkpt>
      <trkpt lat="45.85572" lon="4.67924">
        <ele>205</ele>
        <time>2016-08-23T12:09:22Z</time>
      </trkpt>
      <trkpt lat="45.85568" lon="4.67928">
        <ele>205</ele>
        <time>2016-08-23T12:09:23Z</time>
      </trkpt>
      <trkpt lat="45.85564" lon="4.67932">
        <ele>205</ele>
        <time>2016-08-23T12:09:24Z</time>
      </trkpt>
      <trkpt lat="45.8556" lon="4.67936">
        <ele>205</ele>
        <time>2016-08-23T12:09:25Z</time>
      </trkpt>
      <trkpt lat="45.85553" lon="4.67942">
        <ele>205</ele>
        <time>2016-08-23T12:09:27Z</time>
      </trkpt>
      <trkpt lat="45.85549" lon="4.67946">
        <ele>205</ele>
        <time>2016-08-23T12:09:28Z</time>
      </trkpt>
      <trkpt lat="45.85542" lon="4.67952">
        <ele>205</ele>
        <time>2016-08-23T12:09:30Z</time>
      </trkpt>
      <trkpt lat="45.8554" lon="4.67954">
        <ele>205</ele>
        <time>2016-08-23T12:09:31Z</time>
      </trkpt>
      <trkpt lat="45.85534" lon="4.67963">
        <ele>205</ele>
        <time>2016-08-23T12:09:37Z</time>
      </trkpt>
      <trkpt lat="45.85533" lon="4.67964">
        <ele>205</ele>
        <time>2016-08-23T12:09:38Z</time>
      </trkpt>
      <trkpt lat="45.85527" lon="4.67971">
        <ele>205</ele>
        <time>2016-08-23T12:09:43Z</time>
      </trkpt>
      <trkpt lat="45.85525" lon="4.67972">
        <ele>206</ele>
        <time>2016-08-23T12:09:44Z</time>
      </trkpt>
      <trkpt lat="45.85518" lon="4.67979">
        <ele>206</ele>
        <time>2016-08-23T12:09:47Z</time>
      </trkpt>
      <trkpt lat="45.85515" lon="4.67981">
        <ele>206</ele>
        <time>2016-08-23T12:09:48Z</time>
      </trkpt>
      <trkpt lat="45.85507" lon="4.67987">
        <ele>206</ele>
        <time>2016-08-23T12:09:51Z</time>
      </trkpt>
      <trkpt lat="45.85505" lon="4.67989">
        <ele>206</ele>
        <time>2016-08-23T12:09:52Z</time>
      </trkpt>
      <trkpt lat="45.85498" lon="4.67994">
        <ele>207</ele>
        <time>2016-08-23T12:09:54Z</time>
      </trkpt>
      <trkpt lat="45.85496" lon="4.67996">
        <ele>207</ele>
        <time>2016-08-23T12:09:55Z</time>
      </trkpt>
      <trkpt lat="45.85489" lon="4.68003">
        <ele>207</ele>
        <time>2016-08-23T12:10:00Z</time>
      </trkpt>
      <trkpt lat="45.85488" lon="4.68004">
        <ele>207</ele>
        <time>2016-08-23T12:10:01Z</time>
      </trkpt>
      <trkpt lat="45.85485" lon="4.68014">
        <ele>207</ele>
        <time>2016-08-23T12:10:05Z</time>
      </trkpt>
      <trkpt lat="45.85485" lon="4.68017">
        <ele>207</ele>
        <time>2016-08-23T12:10:06Z</time>
      </trkpt>
      <trkpt lat="45.85486" lon="4.68026">
        <ele>207</ele>
        <time>2016-08-23T12:10:08Z</time>
      </trkpt>
      <trkpt lat="45.85486" lon="4.6803">
        <ele>207</ele>
        <time>2016-08-23T12:10:09Z</time>
      </trkpt>
      <trkpt lat="45.85486" lon="4.68041">
        <ele>207</ele>
        <time>2016-08-23T12:10:11Z</time>
      </trkpt>
      <trkpt lat="45.85486" lon="4.68047">
        <ele>206</ele>
        <time>2016-08-23T12:10:12Z</time>
      </trkpt>
      <trkpt lat="45.85487" lon="4.68055">
        <ele>206</ele>
        <time>2016-08-23T12:10:13Z</time>
      </trkpt>
      <trkpt lat="45.85488" lon="4.68061">
        <ele>206</ele>
        <time>2016-08-23T12:10:14Z</time>
      </trkpt>
      <trkpt lat="45.85489" lon="4.68068">
        <ele>206</ele>
        <time>2016-08-23T12:10:15Z</time>
      </trkpt>
      <trkpt lat="45.8549" lon="4.68076">
        <ele>205</ele>
        <time>2016-08-23T12:10:16Z</time>
      </trkpt>
      <trkpt lat="45.85491" lon="4.68085">
        <ele>204</ele>
        <time>2016-08-23T12:10:17Z</time>
      </trkpt>
      <trkpt lat="45.85492" lon="4.68093">
        <ele>204</ele>
        <time>2016-08-23T12:10:18Z</time>
      </trkpt>
      <trkpt lat="45.85493" lon="4.68101">
        <ele>204</ele>
        <time>2016-08-23T12:10:19Z</time>
      </trkpt>
      <trkpt lat="45.85494" lon="4.68108">
        <ele>204</ele>
        <time>2016-08-23T12:10:20Z</time>
      </trkpt>
      <trkpt lat="45.85494" lon="4.68116">
        <ele>204</ele>
        <time>2016-08-23T12:10:21Z</time>
      </trkpt>
      <trkpt lat="45.85495" lon="4.68123">
        <ele>204</ele>
        <time>2016-08-23T12:10:22Z</time>
      </trkpt>
      <trkpt lat="45.85496" lon="4.6813">
        <ele>204</ele>
        <time>2016-08-23T12:10:23Z</time>
      </trkpt>
      <trkpt lat="45.85498" lon="4.68143">
        <ele>204</ele>
        <time>2016-08-23T12:10:24Z</time>
      </trkpt>
      <trkpt lat="45.85499" lon="4.68153">
        <ele>204</ele>
        <time>2016-08-23T12:10:25Z</time>
      </trkpt>
      <trkpt lat="45.855" lon="4.68162">
        <ele>204</ele>
        <time>2016-08-23T12:10:26Z</time>
      </trkpt>
      <trkpt lat="45.85501" lon="4.6817">
        <ele>204</ele>
        <time>2016-08-23T12:10:27Z</time>
      </trkpt>
      <trkpt lat="45.855" lon="4.68177">
        <ele>204</ele>
        <time>2016-08-23T12:10:28Z</time>
      </trkpt>
      <trkpt lat="45.85501" lon="4.68184">
        <ele>204</ele>
        <time>2016-08-23T12:10:29Z</time>
      </trkpt>
      <trkpt lat="45.85501" lon="4.68192">
        <ele>203</ele>
        <time>2016-08-23T12:10:30Z</time>
      </trkpt>
      <trkpt lat="45.85502" lon="4.68199">
        <ele>203</ele>
        <time>2016-08-23T12:10:31Z</time>
      </trkpt>
      <trkpt lat="45.85502" lon="4.68206">
        <ele>203</ele>
        <time>2016-08-23T12:10:32Z</time>
      </trkpt>
      <trkpt lat="45.85501" lon="4.68218">
        <ele>203</ele>
        <time>2016-08-23T12:10:34Z</time>
      </trkpt>
      <trkpt lat="45.85502" lon="4.68226">
        <ele>203</ele>
        <time>2016-08-23T12:10:35Z</time>
      </trkpt>
      <trkpt lat="45.85503" lon="4.68234">
        <ele>203</ele>
        <time>2016-08-23T12:10:36Z</time>
      </trkpt>
      <trkpt lat="45.85504" lon="4.68241">
        <ele>203</ele>
        <time>2016-08-23T12:10:37Z</time>
      </trkpt>
      <trkpt lat="45.85504" lon="4.68247">
        <ele>203</ele>
        <time>2016-08-23T12:10:38Z</time>
      </trkpt>
      <trkpt lat="45.85504" lon="4.68254">
        <ele>203</ele>
        <time>2016-08-23T12:10:39Z</time>
      </trkpt>
      <trkpt lat="45.85505" lon="4.6826">
        <ele>203</ele>
        <time>2016-08-23T12:10:40Z</time>
      </trkpt>
      <trkpt lat="45.85506" lon="4.68267">
        <ele>202</ele>
        <time>2016-08-23T12:10:41Z</time>
      </trkpt>
      <trkpt lat="45.85505" lon="4.68274">
        <ele>202</ele>
        <time>2016-08-23T12:10:42Z</time>
      </trkpt>
      <trkpt lat="45.85505" lon="4.68281">
        <ele>202</ele>
        <time>2016-08-23T12:10:43Z</time>
      </trkpt>
      <trkpt lat="45.85505" lon="4.68288">
        <ele>202</ele>
        <time>2016-08-23T12:10:44Z</time>
      </trkpt>
      <trkpt lat="45.85506" lon="4.68296">
        <ele>202</ele>
        <time>2016-08-23T12:10:45Z</time>
      </trkpt>
      <trkpt lat="45.85508" lon="4.68305">
        <ele>202</ele>
        <time>2016-08-23T12:10:46Z</time>
      </trkpt>
      <trkpt lat="45.8551" lon="4.68314">
        <ele>202</ele>
        <time>2016-08-23T12:10:47Z</time>
      </trkpt>
      <trkpt lat="45.85511" lon="4.68322">
        <ele>202</ele>
        <time>2016-08-23T12:10:48Z</time>
      </trkpt>
      <trkpt lat="45.85512" lon="4.6833">
        <ele>202</ele>
        <time>2016-08-23T12:10:49Z</time>
      </trkpt>
      <trkpt lat="45.85512" lon="4.68338">
        <ele>201</ele>
        <time>2016-08-23T12:10:50Z</time>
      </trkpt>
      <trkpt lat="45.85513" lon="4.68346">
        <ele>201</ele>
        <time>2016-08-23T12:10:51Z</time>
      </trkpt>
      <trkpt lat="45.85514" lon="4.68353">
        <ele>201</ele>
        <time>2016-08-23T12:10:52Z</time>
      </trkpt>
      <trkpt lat="45.85516" lon="4.68361">
        <ele>201</ele>
        <time>2016-08-23T12:10:53Z</time>
      </trkpt>
      <trkpt lat="45.85517" lon="4.68368">
        <ele>201</ele>
        <time>2016-08-23T12:10:54Z</time>
      </trkpt>
      <trkpt lat="45.85519" lon="4.68376">
        <ele>201</ele>
        <time>2016-08-23T12:10:55Z</time>
      </trkpt>
      <trkpt lat="45.85521" lon="4.68384">
        <ele>200</ele>
        <time>2016-08-23T12:10:56Z</time>
      </trkpt>
      <trkpt lat="45.85522" lon="4.68391">
        <ele>200</ele>
        <time>2016-08-23T12:10:57Z</time>
      </trkpt>
      <trkpt lat="45.85522" lon="4.68399">
        <ele>200</ele>
        <time>2016-08-23T12:10:58Z</time>
      </trkpt>
      <trkpt lat="45.85523" lon="4.68406">
        <ele>200</ele>
        <time>2016-08-23T12:10:59Z</time>
      </trkpt>
      <trkpt lat="45.85523" lon="4.68415">
        <ele>200</ele>
        <time>2016-08-23T12:11:00Z</time>
      </trkpt>
      <trkpt lat="45.85524" lon="4.68422">
        <ele>200</ele>
        <time>2016-08-23T12:11:01Z</time>
      </trkpt>
      <trkpt lat="45.85525" lon="4.6843">
        <ele>200</ele>
        <time>2016-08-23T12:11:02Z</time>
      </trkpt>
      <trkpt lat="45.85526" lon="4.68439">
        <ele>200</ele>
        <time>2016-08-23T12:11:03Z</time>
      </trkpt>
      <trkpt lat="45.85526" lon="4.68447">
        <ele>200</ele>
        <time>2016-08-23T12:11:04Z</time>
      </trkpt>
      <trkpt lat="45.85526" lon="4.68454">
        <ele>200</ele>
        <time>2016-08-23T12:11:05Z</time>
      </trkpt>
      <trkpt lat="45.85527" lon="4.68462">
        <ele>200</ele>
        <time>2016-08-23T12:11:06Z</time>
      </trkpt>
      <trkpt lat="45.85527" lon="4.6847">
        <ele>200</ele>
        <time>2016-08-23T12:11:07Z</time>
      </trkpt>
      <trkpt lat="45.85528" lon="4.68478">
        <ele>200</ele>
        <time>2016-08-23T12:11:08Z</time>
      </trkpt>
      <trkpt lat="45.85528" lon="4.68486">
        <ele>200</ele>
        <time>2016-08-23T12:11:09Z</time>
      </trkpt>
      <trkpt lat="45.85529" lon="4.68494">
        <ele>201</ele>
        <time>2016-08-23T12:11:10Z</time>
      </trkpt>
      <trkpt lat="45.8553" lon="4.68501">
        <ele>201</ele>
        <time>2016-08-23T12:11:11Z</time>
      </trkpt>
      <trkpt lat="45.8553" lon="4.68509">
        <ele>201</ele>
        <time>2016-08-23T12:11:12Z</time>
      </trkpt>
      <trkpt lat="45.85531" lon="4.68517">
        <ele>201</ele>
        <time>2016-08-23T12:11:13Z</time>
      </trkpt>
      <trkpt lat="45.85532" lon="4.68524">
        <ele>201</ele>
        <time>2016-08-23T12:11:14Z</time>
      </trkpt>
      <trkpt lat="45.85532" lon="4.68531">
        <ele>201</ele>
        <time>2016-08-23T12:11:15Z</time>
      </trkpt>
      <trkpt lat="45.85533" lon="4.6854">
        <ele>201</ele>
        <time>2016-08-23T12:11:16Z</time>
      </trkpt>
      <trkpt lat="45.85534" lon="4.68548">
        <ele>201</ele>
        <time>2016-08-23T12:11:17Z</time>
      </trkpt>
      <trkpt lat="45.85535" lon="4.68557">
        <ele>201</ele>
        <time>2016-08-23T12:11:18Z</time>
      </trkpt>
      <trkpt lat="45.85536" lon="4.68564">
        <ele>201</ele>
        <time>2016-08-23T12:11:19Z</time>
      </trkpt>
      <trkpt lat="45.85537" lon="4.68573">
        <ele>201</ele>
        <time>2016-08-23T12:11:20Z</time>
      </trkpt>
      <trkpt lat="45.85538" lon="4.6858">
        <ele>201</ele>
        <time>2016-08-23T12:11:21Z</time>
      </trkpt>
      <trkpt lat="45.85539" lon="4.68587">
        <ele>201</ele>
        <time>2016-08-23T12:11:22Z</time>
      </trkpt>
      <trkpt lat="45.8554" lon="4.68594">
        <ele>201</ele>
        <time>2016-08-23T12:11:23Z</time>
      </trkpt>
      <trkpt lat="45.85541" lon="4.68603">
        <ele>201</ele>
        <time>2016-08-23T12:11:24Z</time>
      </trkpt>
      <trkpt lat="45.85542" lon="4.6861">
        <ele>201</ele>
        <time>2016-08-23T12:11:25Z</time>
      </trkpt>
      <trkpt lat="45.85543" lon="4.68617">
        <ele>201</ele>
        <time>2016-08-23T12:11:26Z</time>
      </trkpt>
      <trkpt lat="45.85544" lon="4.68624">
        <ele>201</ele>
        <time>2016-08-23T12:11:27Z</time>
      </trkpt>
      <trkpt lat="45.85544" lon="4.68632">
        <ele>201</ele>
        <time>2016-08-23T12:11:28Z</time>
      </trkpt>
      <trkpt lat="45.85545" lon="4.6864">
        <ele>201</ele>
        <time>2016-08-23T12:11:29Z</time>
      </trkpt>
      <trkpt lat="45.85546" lon="4.68649">
        <ele>201</ele>
        <time>2016-08-23T12:11:30Z</time>
      </trkpt>
      <trkpt lat="45.85546" lon="4.68658">
        <ele>200</ele>
        <time>2016-08-23T12:11:31Z</time>
      </trkpt>
      <trkpt lat="45.85547" lon="4.68667">
        <ele>200</ele>
        <time>2016-08-23T12:11:32Z</time>
      </trkpt>
      <trkpt lat="45.85547" lon="4.68676">
        <ele>200</ele>
        <time>2016-08-23T12:11:33Z</time>
      </trkpt>
      <trkpt lat="45.85548" lon="4.68686">
        <ele>200</ele>
        <time>2016-08-23T12:11:34Z</time>
      </trkpt>
      <trkpt lat="45.85549" lon="4.68695">
        <ele>200</ele>
        <time>2016-08-23T12:11:35Z</time>
      </trkpt>
      <trkpt lat="45.85549" lon="4.68704">
        <ele>200</ele>
        <time>2016-08-23T12:11:36Z</time>
      </trkpt>
      <trkpt lat="45.8555" lon="4.68713">
        <ele>200</ele>
        <time>2016-08-23T12:11:37Z</time>
      </trkpt>
      <trkpt lat="45.85552" lon="4.68723">
        <ele>200</ele>
        <time>2016-08-23T12:11:38Z</time>
      </trkpt>
      <trkpt lat="45.85553" lon="4.68732">
        <ele>200</ele>
        <time>2016-08-23T12:11:39Z</time>
      </trkpt>
      <trkpt lat="45.85553" lon="4.6874">
        <ele>200</ele>
        <time>2016-08-23T12:11:40Z</time>
      </trkpt>
      <trkpt lat="45.85554" lon="4.68749">
        <ele>200</ele>
        <time>2016-08-23T12:11:41Z</time>
      </trkpt>
      <trkpt lat="45.85555" lon="4.68756">
        <ele>200</ele>
        <time>2016-08-23T12:11:42Z</time>
      </trkpt>
      <trkpt lat="45.85556" lon="4.68763">
        <ele>200</ele>
        <time>2016-08-23T12:11:43Z</time>
      </trkpt>
      <trkpt lat="45.85558" lon="4.6877">
        <ele>200</ele>
        <time>2016-08-23T12:11:44Z</time>
      </trkpt>
      <trkpt lat="45.85559" lon="4.68777">
        <ele>200</ele>
        <time>2016-08-23T12:11:45Z</time>
      </trkpt>
      <trkpt lat="45.8556" lon="4.68785">
        <ele>200</ele>
        <time>2016-08-23T12:11:46Z</time>
      </trkpt>
      <trkpt lat="45.85561" lon="4.68792">
        <ele>200</ele>
        <time>2016-08-23T12:11:47Z</time>
      </trkpt>
      <trkpt lat="45.85562" lon="4.688">
        <ele>200</ele>
        <time>2016-08-23T12:11:48Z</time>
      </trkpt>
      <trkpt lat="45.85563" lon="4.68808">
        <ele>200</ele>
        <time>2016-08-23T12:11:49Z</time>
      </trkpt>
      <trkpt lat="45.85564" lon="4.68816">
        <ele>200</ele>
        <time>2016-08-23T12:11:50Z</time>
      </trkpt>
      <trkpt lat="45.85564" lon="4.68824">
        <ele>200</ele>
        <time>2016-08-23T12:11:51Z</time>
      </trkpt>
      <trkpt lat="45.85565" lon="4.68831">
        <ele>200</ele>
        <time>2016-08-23T12:11:52Z</time>
      </trkpt>
      <trkpt lat="45.85566" lon="4.68839">
        <ele>200</ele>
        <time>2016-08-23T12:11:53Z</time>
      </trkpt>
      <trkpt lat="45.85567" lon="4.68847">
        <ele>200</ele>
        <time>2016-08-23T12:11:54Z</time>
      </trkpt>
      <trkpt lat="45.85568" lon="4.68855">
        <ele>200</ele>
        <time>2016-08-23T12:11:55Z</time>
      </trkpt>
      <trkpt lat="45.85569" lon="4.68863">
        <ele>200</ele>
        <time>2016-08-23T12:11:56Z</time>
      </trkpt>
      <trkpt lat="45.85569" lon="4.68873">
        <ele>200</ele>
        <time>2016-08-23T12:11:57Z</time>
      </trkpt>
      <trkpt lat="45.8557" lon="4.68883">
        <ele>200</ele>
        <time>2016-08-23T12:11:58Z</time>
      </trkpt>
      <trkpt lat="45.85571" lon="4.68891">
        <ele>200</ele>
        <time>2016-08-23T12:11:59Z</time>
      </trkpt>
      <trkpt lat="45.85572" lon="4.689">
        <ele>200</ele>
        <time>2016-08-23T12:12:00Z</time>
      </trkpt>
      <trkpt lat="45.85573" lon="4.68907">
        <ele>200</ele>
        <time>2016-08-23T12:12:01Z</time>
      </trkpt>
      <trkpt lat="45.85573" lon="4.68917">
        <ele>200</ele>
        <time>2016-08-23T12:12:02Z</time>
      </trkpt>
      <trkpt lat="45.85573" lon="4.68926">
        <ele>200</ele>
        <time>2016-08-23T12:12:03Z</time>
      </trkpt>
      <trkpt lat="45.85573" lon="4.68934">
        <ele>200</ele>
        <time>2016-08-23T12:12:04Z</time>
      </trkpt>
      <trkpt lat="45.85574" lon="4.68942">
        <ele>200</ele>
        <time>2016-08-23T12:12:05Z</time>
      </trkpt>
      <trkpt lat="45.85575" lon="4.68949">
        <ele>200</ele>
        <time>2016-08-23T12:12:06Z</time>
      </trkpt>
      <trkpt lat="45.85575" lon="4.68957">
        <ele>200</ele>
        <time>2016-08-23T12:12:07Z</time>
      </trkpt>
      <trkpt lat="45.85576" lon="4.68963">
        <ele>200</ele>
        <time>2016-08-23T12:12:08Z</time>
      </trkpt>
      <trkpt lat="45.85576" lon="4.68971">
        <ele>200</ele>
        <time>2016-08-23T12:12:09Z</time>
      </trkpt>
      <trkpt lat="45.85576" lon="4.68978">
        <ele>200</ele>
        <time>2016-08-23T12:12:10Z</time>
      </trkpt>
      <trkpt lat="45.85577" lon="4.68985">
        <ele>200</ele>
        <time>2016-08-23T12:12:11Z</time>
      </trkpt>
      <trkpt lat="45.85578" lon="4.68992">
        <ele>200</ele>
        <time>2016-08-23T12:12:12Z</time>
      </trkpt>
      <trkpt lat="45.85578" lon="4.69">
        <ele>200</ele>
        <time>2016-08-23T12:12:13Z</time>
      </trkpt>
      <trkpt lat="45.85579" lon="4.69008">
        <ele>200</ele>
        <time>2016-08-23T12:12:14Z</time>
      </trkpt>
      <trkpt lat="45.8558" lon="4.69015">
        <ele>200</ele>
        <time>2016-08-23T12:12:15Z</time>
      </trkpt>
      <trkpt lat="45.8558" lon="4.69022">
        <ele>200</ele>
        <time>2016-08-23T12:12:16Z</time>
      </trkpt>
      <trkpt lat="45.85581" lon="4.69029">
        <ele>200</ele>
        <time>2016-08-23T12:12:17Z</time>
      </trkpt>
      <trkpt lat="45.85581" lon="4.69036">
        <ele>200</ele>
        <time>2016-08-23T12:12:18Z</time>
      </trkpt>
      <trkpt lat="45.85582" lon="4.69043">
        <ele>199</ele>
        <time>2016-08-23T12:12:19Z</time>
      </trkpt>
      <trkpt lat="45.85583" lon="4.6905">
        <ele>199</ele>
        <time>2016-08-23T12:12:20Z</time>
      </trkpt>
      <trkpt lat="45.85584" lon="4.69057">
        <ele>199</ele>
        <time>2016-08-23T12:12:21Z</time>
      </trkpt>
      <trkpt lat="45.85585" lon="4.69065">
        <ele>199</ele>
        <time>2016-08-23T12:12:22Z</time>
      </trkpt>
      <trkpt lat="45.85585" lon="4.69072">
        <ele>199</ele>
        <time>2016-08-23T12:12:23Z</time>
      </trkpt>
      <trkpt lat="45.85586" lon="4.69079">
        <ele>199</ele>
        <time>2016-08-23T12:12:24Z</time>
      </trkpt>
      <trkpt lat="45.85587" lon="4.69086">
        <ele>199</ele>
        <time>2016-08-23T12:12:25Z</time>
      </trkpt>
      <trkpt lat="45.85587" lon="4.69094">
        <ele>199</ele>
        <time>2016-08-23T12:12:26Z</time>
      </trkpt>
      <trkpt lat="45.85588" lon="4.69102">
        <ele>199</ele>
        <time>2016-08-23T12:12:27Z</time>
      </trkpt>
      <trkpt lat="45.85588" lon="4.6911">
        <ele>199</ele>
        <time>2016-08-23T12:12:28Z</time>
      </trkpt>
      <trkpt lat="45.85589" lon="4.69117">
        <ele>199</ele>
        <time>2016-08-23T12:12:29Z</time>
      </trkpt>
      <trkpt lat="45.85589" lon="4.69124">
        <ele>199</ele>
        <time>2016-08-23T12:12:30Z</time>
      </trkpt>
      <trkpt lat="45.85589" lon="4.69132">
        <ele>199</ele>
        <time>2016-08-23T12:12:31Z</time>
      </trkpt>
      <trkpt lat="45.8559" lon="4.69144">
        <ele>199</ele>
        <time>2016-08-23T12:12:33Z</time>
      </trkpt>
      <trkpt lat="45.85591" lon="4.69151">
        <ele>199</ele>
        <time>2016-08-23T12:12:34Z</time>
      </trkpt>
      <trkpt lat="45.85591" lon="4.69157">
        <ele>199</ele>
        <time>2016-08-23T12:12:35Z</time>
      </trkpt>
      <trkpt lat="45.85591" lon="4.69164">
        <ele>199</ele>
        <time>2016-08-23T12:12:36Z</time>
      </trkpt>
      <trkpt lat="45.85592" lon="4.69171">
        <ele>199</ele>
        <time>2016-08-23T12:12:37Z</time>
      </trkpt>
      <trkpt lat="45.85593" lon="4.69178">
        <ele>199</ele>
        <time>2016-08-23T12:12:38Z</time>
      </trkpt>
      <trkpt lat="45.85593" lon="4.69186">
        <ele>199</ele>
        <time>2016-08-23T12:12:39Z</time>
      </trkpt>
      <trkpt lat="45.85594" lon="4.69194">
        <ele>199</ele>
        <time>2016-08-23T12:12:40Z</time>
      </trkpt>
      <trkpt lat="45.85595" lon="4.69202">
        <ele>199</ele>
        <time>2016-08-23T12:12:41Z</time>
      </trkpt>
      <trkpt lat="45.85596" lon="4.69209">
        <ele>199</ele>
        <time>2016-08-23T12:12:42Z</time>
      </trkpt>
      <trkpt lat="45.85597" lon="4.69217">
        <ele>199</ele>
        <time>2016-08-23T12:12:43Z</time>
      </trkpt>
      <trkpt lat="45.85597" lon="4.69224">
        <ele>199</ele>
        <time>2016-08-23T12:12:44Z</time>
      </trkpt>
      <trkpt lat="45.85597" lon="4.69231">
        <ele>199</ele>
        <time>2016-08-23T12:12:45Z</time>
      </trkpt>
      <trkpt lat="45.85597" lon="4.69237">
        <ele>199</ele>
        <time>2016-08-23T12:12:46Z</time>
      </trkpt>
      <trkpt lat="45.85597" lon="4.69244">
        <ele>199</ele>
        <time>2016-08-23T12:12:47Z</time>
      </trkpt>
      <trkpt lat="45.85596" lon="4.6925">
        <ele>199</ele>
        <time>2016-08-23T12:12:48Z</time>
      </trkpt>
      <trkpt lat="45.85595" lon="4.69257">
        <ele>199</ele>
        <time>2016-08-23T12:12:49Z</time>
      </trkpt>
      <trkpt lat="45.85595" lon="4.69264">
        <ele>199</ele>
        <time>2016-08-23T12:12:50Z</time>
      </trkpt>
      <trkpt lat="45.85596" lon="4.69271">
        <ele>198</ele>
        <time>2016-08-23T12:12:51Z</time>
      </trkpt>
      <trkpt lat="45.85597" lon="4.69278">
        <ele>198</ele>
        <time>2016-08-23T12:12:52Z</time>
      </trkpt>
      <trkpt lat="45.856" lon="4.69286">
        <ele>198</ele>
        <time>2016-08-23T12:12:53Z</time>
      </trkpt>
      <trkpt lat="45.85601" lon="4.69293">
        <ele>198</ele>
        <time>2016-08-23T12:12:54Z</time>
      </trkpt>
      <trkpt lat="45.85603" lon="4.69301">
        <ele>198</ele>
        <time>2016-08-23T12:12:55Z</time>
      </trkpt>
      <trkpt lat="45.85604" lon="4.69309">
        <ele>198</ele>
        <time>2016-08-23T12:12:56Z</time>
      </trkpt>
      <trkpt lat="45.85605" lon="4.69317">
        <ele>198</ele>
        <time>2016-08-23T12:12:57Z</time>
      </trkpt>
      <trkpt lat="45.85606" lon="4.69325">
        <ele>198</ele>
        <time>2016-08-23T12:12:58Z</time>
      </trkpt>
      <trkpt lat="45.85608" lon="4.69333">
        <ele>198</ele>
        <time>2016-08-23T12:12:59Z</time>
      </trkpt>
      <trkpt lat="45.8561" lon="4.69342">
        <ele>198</ele>
        <time>2016-08-23T12:13:00Z</time>
      </trkpt>
      <trkpt lat="45.85611" lon="4.69351">
        <ele>198</ele>
        <time>2016-08-23T12:13:01Z</time>
      </trkpt>
      <trkpt lat="45.85612" lon="4.6936">
        <ele>198</ele>
        <time>2016-08-23T12:13:02Z</time>
      </trkpt>
      <trkpt lat="45.85613" lon="4.69369">
        <ele>198</ele>
        <time>2016-08-23T12:13:03Z</time>
      </trkpt>
      <trkpt lat="45.85614" lon="4.69378">
        <ele>198</ele>
        <time>2016-08-23T12:13:04Z</time>
      </trkpt>
      <trkpt lat="45.85616" lon="4.69387">
        <ele>198</ele>
        <time>2016-08-23T12:13:05Z</time>
      </trkpt>
      <trkpt lat="45.85617" lon="4.69397">
        <ele>198</ele>
        <time>2016-08-23T12:13:06Z</time>
      </trkpt>
      <trkpt lat="45.85618" lon="4.69407">
        <ele>198</ele>
        <time>2016-08-23T12:13:07Z</time>
      </trkpt>
      <trkpt lat="45.85619" lon="4.69416">
        <ele>198</ele>
        <time>2016-08-23T12:13:08Z</time>
      </trkpt>
      <trkpt lat="45.85619" lon="4.69425">
        <ele>198</ele>
        <time>2016-08-23T12:13:09Z</time>
      </trkpt>
      <trkpt lat="45.8562" lon="4.69435">
        <ele>198</ele>
        <time>2016-08-23T12:13:10Z</time>
      </trkpt>
      <trkpt lat="45.85621" lon="4.69444">
        <ele>198</ele>
        <time>2016-08-23T12:13:11Z</time>
      </trkpt>
      <trkpt lat="45.85621" lon="4.69452">
        <ele>198</ele>
        <time>2016-08-23T12:13:12Z</time>
      </trkpt>
      <trkpt lat="45.85623" lon="4.69461">
        <ele>198</ele>
        <time>2016-08-23T12:13:13Z</time>
      </trkpt>
      <trkpt lat="45.85623" lon="4.6947">
        <ele>198</ele>
        <time>2016-08-23T12:13:14Z</time>
      </trkpt>
      <trkpt lat="45.85624" lon="4.69479">
        <ele>198</ele>
        <time>2016-08-23T12:13:15Z</time>
      </trkpt>
      <trkpt lat="45.85625" lon="4.69487">
        <ele>198</ele>
        <time>2016-08-23T12:13:16Z</time>
      </trkpt>
      <trkpt lat="45.85626" lon="4.69495">
        <ele>198</ele>
        <time>2016-08-23T12:13:17Z</time>
      </trkpt>
      <trkpt lat="45.85627" lon="4.69504">
        <ele>198</ele>
        <time>2016-08-23T12:13:18Z</time>
      </trkpt>
      <trkpt lat="45.85627" lon="4.69512">
        <ele>198</ele>
        <time>2016-08-23T12:13:19Z</time>
      </trkpt>
      <trkpt lat="45.85628" lon="4.69521">
        <ele>198</ele>
        <time>2016-08-23T12:13:20Z</time>
      </trkpt>
      <trkpt lat="45.85629" lon="4.69529">
        <ele>198</ele>
        <time>2016-08-23T12:13:21Z</time>
      </trkpt>
      <trkpt lat="45.8563" lon="4.69537">
        <ele>198</ele>
        <time>2016-08-23T12:13:22Z</time>
      </trkpt>
      <trkpt lat="45.8563" lon="4.69546">
        <ele>198</ele>
        <time>2016-08-23T12:13:23Z</time>
      </trkpt>
      <trkpt lat="45.85631" lon="4.69554">
        <ele>198</ele>
        <time>2016-08-23T12:13:24Z</time>
      </trkpt>
      <trkpt lat="45.85632" lon="4.69562">
        <ele>198</ele>
        <time>2016-08-23T12:13:25Z</time>
      </trkpt>
      <trkpt lat="45.85634" lon="4.69569">
        <ele>198</ele>
        <time>2016-08-23T12:13:26Z</time>
      </trkpt>
      <trkpt lat="45.85634" lon="4.69577">
        <ele>198</ele>
        <time>2016-08-23T12:13:27Z</time>
      </trkpt>
      <trkpt lat="45.85635" lon="4.69585">
        <ele>197</ele>
        <time>2016-08-23T12:13:28Z</time>
      </trkpt>
      <trkpt lat="45.85635" lon="4.69593">
        <ele>197</ele>
        <time>2016-08-23T12:13:29Z</time>
      </trkpt>
      <trkpt lat="45.85635" lon="4.69602">
        <ele>197</ele>
        <time>2016-08-23T12:13:30Z</time>
      </trkpt>
      <trkpt lat="45.85636" lon="4.69613">
        <ele>197</ele>
        <time>2016-08-23T12:13:31Z</time>
      </trkpt>
      <trkpt lat="45.85637" lon="4.69622">
        <ele>197</ele>
        <time>2016-08-23T12:13:32Z</time>
      </trkpt>
      <trkpt lat="45.85637" lon="4.69632">
        <ele>197</ele>
        <time>2016-08-23T12:13:33Z</time>
      </trkpt>
      <trkpt lat="45.85638" lon="4.69642">
        <ele>197</ele>
        <time>2016-08-23T12:13:34Z</time>
      </trkpt>
      <trkpt lat="45.85638" lon="4.69651">
        <ele>197</ele>
        <time>2016-08-23T12:13:35Z</time>
      </trkpt>
      <trkpt lat="45.85639" lon="4.6966">
        <ele>197</ele>
        <time>2016-08-23T12:13:36Z</time>
      </trkpt>
      <trkpt lat="45.85639" lon="4.6967">
        <ele>196</ele>
        <time>2016-08-23T12:13:37Z</time>
      </trkpt>
      <trkpt lat="45.8564" lon="4.69678">
        <ele>196</ele>
        <time>2016-08-23T12:13:38Z</time>
      </trkpt>
      <trkpt lat="45.8564" lon="4.69685">
        <ele>196</ele>
        <time>2016-08-23T12:13:39Z</time>
      </trkpt>
      <trkpt lat="45.85641" lon="4.69694">
        <ele>196</ele>
        <time>2016-08-23T12:13:40Z</time>
      </trkpt>
      <trkpt lat="45.85643" lon="4.69703">
        <ele>196</ele>
        <time>2016-08-23T12:13:41Z</time>
      </trkpt>
      <trkpt lat="45.85644" lon="4.69711">
        <ele>196</ele>
        <time>2016-08-23T12:13:42Z</time>
      </trkpt>
      <trkpt lat="45.85645" lon="4.6972">
        <ele>196</ele>
        <time>2016-08-23T12:13:43Z</time>
      </trkpt>
      <trkpt lat="45.85646" lon="4.69728">
        <ele>195</ele>
        <time>2016-08-23T12:13:44Z</time>
      </trkpt>
      <trkpt lat="45.85647" lon="4.69736">
        <ele>195</ele>
        <time>2016-08-23T12:13:45Z</time>
      </trkpt>
      <trkpt lat="45.85648" lon="4.69745">
        <ele>195</ele>
        <time>2016-08-23T12:13:46Z</time>
      </trkpt>
      <trkpt lat="45.85649" lon="4.69753">
        <ele>195</ele>
        <time>2016-08-23T12:13:47Z</time>
      </trkpt>
      <trkpt lat="45.8565" lon="4.69762">
        <ele>195</ele>
        <time>2016-08-23T12:13:48Z</time>
      </trkpt>
      <trkpt lat="45.85652" lon="4.69771">
        <ele>195</ele>
        <time>2016-08-23T12:13:49Z</time>
      </trkpt>
      <trkpt lat="45.85653" lon="4.6978">
        <ele>195</ele>
        <time>2016-08-23T12:13:50Z</time>
      </trkpt>
      <trkpt lat="45.85654" lon="4.6979">
        <ele>195</ele>
        <time>2016-08-23T12:13:51Z</time>
      </trkpt>
      <trkpt lat="45.85655" lon="4.698">
        <ele>195</ele>
        <time>2016-08-23T12:13:52Z</time>
      </trkpt>
      <trkpt lat="45.85656" lon="4.69809">
        <ele>195</ele>
        <time>2016-08-23T12:13:53Z</time>
      </trkpt>
      <trkpt lat="45.85658" lon="4.69819">
        <ele>195</ele>
        <time>2016-08-23T12:13:54Z</time>
      </trkpt>
      <trkpt lat="45.85659" lon="4.69829">
        <ele>195</ele>
        <time>2016-08-23T12:13:55Z</time>
      </trkpt>
      <trkpt lat="45.8566" lon="4.69838">
        <ele>195</ele>
        <time>2016-08-23T12:13:56Z</time>
      </trkpt>
      <trkpt lat="45.85661" lon="4.69847">
        <ele>195</ele>
        <time>2016-08-23T12:13:57Z</time>
      </trkpt>
      <trkpt lat="45.85661" lon="4.69856">
        <ele>195</ele>
        <time>2016-08-23T12:13:58Z</time>
      </trkpt>
      <trkpt lat="45.85662" lon="4.69865">
        <ele>195</ele>
        <time>2016-08-23T12:13:59Z</time>
      </trkpt>
      <trkpt lat="45.85663" lon="4.69874">
        <ele>195</ele>
        <time>2016-08-23T12:14:00Z</time>
      </trkpt>
      <trkpt lat="45.85663" lon="4.69882">
        <ele>195</ele>
        <time>2016-08-23T12:14:01Z</time>
      </trkpt>
      <trkpt lat="45.85664" lon="4.69889">
        <ele>195</ele>
        <time>2016-08-23T12:14:02Z</time>
      </trkpt>
      <trkpt lat="45.85665" lon="4.69897">
        <ele>195</ele>
        <time>2016-08-23T12:14:03Z</time>
      </trkpt>
      <trkpt lat="45.85666" lon="4.69904">
        <ele>195</ele>
        <time>2016-08-23T12:14:04Z</time>
      </trkpt>
      <trkpt lat="45.85668" lon="4.69911">
        <ele>195</ele>
        <time>2016-08-23T12:14:05Z</time>
      </trkpt>
      <trkpt lat="45.8567" lon="4.69919">
        <ele>195</ele>
        <time>2016-08-23T12:14:06Z</time>
      </trkpt>
      <trkpt lat="45.85672" lon="4.69927">
        <ele>195</ele>
        <time>2016-08-23T12:14:07Z</time>
      </trkpt>
      <trkpt lat="45.85674" lon="4.69936">
        <ele>195</ele>
        <time>2016-08-23T12:14:08Z</time>
      </trkpt>
      <trkpt lat="45.85676" lon="4.69945">
        <ele>195</ele>
        <time>2016-08-23T12:14:09Z</time>
      </trkpt>
      <trkpt lat="45.85679" lon="4.69954">
        <ele>195</ele>
        <time>2016-08-23T12:14:10Z</time>
      </trkpt>
      <trkpt lat="45.85681" lon="4.69963">
        <ele>195</ele>
        <time>2016-08-23T12:14:11Z</time>
      </trkpt>
      <trkpt lat="45.85683" lon="4.69972">
        <ele>195</ele>
        <time>2016-08-23T12:14:12Z</time>
      </trkpt>
      <trkpt lat="45.85684" lon="4.69979">
        <ele>195</ele>
        <time>2016-08-23T12:14:13Z</time>
      </trkpt>
      <trkpt lat="45.85685" lon="4.69988">
        <ele>195</ele>
        <time>2016-08-23T12:14:14Z</time>
      </trkpt>
      <trkpt lat="45.85686" lon="4.69996">
        <ele>195</ele>
        <time>2016-08-23T12:14:15Z</time>
      </trkpt>
      <trkpt lat="45.85686" lon="4.70004">
        <ele>195</ele>
        <time>2016-08-23T12:14:16Z</time>
      </trkpt>
      <trkpt lat="45.85686" lon="4.70012">
        <ele>195</ele>
        <time>2016-08-23T12:14:17Z</time>
      </trkpt>
      <trkpt lat="45.85685" lon="4.70021">
        <ele>195</ele>
        <time>2016-08-23T12:14:18Z</time>
      </trkpt>
      <trkpt lat="45.85685" lon="4.70029">
        <ele>195</ele>
        <time>2016-08-23T12:14:19Z</time>
      </trkpt>
      <trkpt lat="45.85684" lon="4.70038">
        <ele>195</ele>
        <time>2016-08-23T12:14:20Z</time>
      </trkpt>
      <trkpt lat="45.85682" lon="4.70045">
        <ele>195</ele>
        <time>2016-08-23T12:14:21Z</time>
      </trkpt>
      <trkpt lat="45.85681" lon="4.70053">
        <ele>195</ele>
        <time>2016-08-23T12:14:22Z</time>
      </trkpt>
      <trkpt lat="45.85679" lon="4.70059">
        <ele>196</ele>
        <time>2016-08-23T12:14:23Z</time>
      </trkpt>
      <trkpt lat="45.85677" lon="4.70066">
        <ele>196</ele>
        <time>2016-08-23T12:14:24Z</time>
      </trkpt>
      <trkpt lat="45.85676" lon="4.70072">
        <ele>196</ele>
        <time>2016-08-23T12:14:25Z</time>
      </trkpt>
      <trkpt lat="45.85675" lon="4.70078">
        <ele>196</ele>
        <time>2016-08-23T12:14:26Z</time>
      </trkpt>
      <trkpt lat="45.85673" lon="4.70085">
        <ele>196</ele>
        <time>2016-08-23T12:14:27Z</time>
      </trkpt>
      <trkpt lat="45.85672" lon="4.70092">
        <ele>196</ele>
        <time>2016-08-23T12:14:28Z</time>
      </trkpt>
      <trkpt lat="45.85671" lon="4.70099">
        <ele>196</ele>
        <time>2016-08-23T12:14:29Z</time>
      </trkpt>
      <trkpt lat="45.85671" lon="4.70106">
        <ele>196</ele>
        <time>2016-08-23T12:14:30Z</time>
      </trkpt>
      <trkpt lat="45.8567" lon="4.70113">
        <ele>197</ele>
        <time>2016-08-23T12:14:31Z</time>
      </trkpt>
      <trkpt lat="45.85671" lon="4.70121">
        <ele>197</ele>
        <time>2016-08-23T12:14:32Z</time>
      </trkpt>
      <trkpt lat="45.85671" lon="4.70129">
        <ele>197</ele>
        <time>2016-08-23T12:14:33Z</time>
      </trkpt>
      <trkpt lat="45.85672" lon="4.70137">
        <ele>197</ele>
        <time>2016-08-23T12:14:34Z</time>
      </trkpt>
      <trkpt lat="45.85673" lon="4.70145">
        <ele>197</ele>
        <time>2016-08-23T12:14:35Z</time>
      </trkpt>
      <trkpt lat="45.85675" lon="4.70154">
        <ele>197</ele>
        <time>2016-08-23T12:14:36Z</time>
      </trkpt>
      <trkpt lat="45.85676" lon="4.70162">
        <ele>197</ele>
        <time>2016-08-23T12:14:37Z</time>
      </trkpt>
      <trkpt lat="45.85678" lon="4.70171">
        <ele>197</ele>
        <time>2016-08-23T12:14:38Z</time>
      </trkpt>
      <trkpt lat="45.8568" lon="4.7018">
        <ele>197</ele>
        <time>2016-08-23T12:14:39Z</time>
      </trkpt>
      <trkpt lat="45.85682" lon="4.70189">
        <ele>197</ele>
        <time>2016-08-23T12:14:40Z</time>
      </trkpt>
      <trkpt lat="45.85683" lon="4.70198">
        <ele>197</ele>
        <time>2016-08-23T12:14:41Z</time>
      </trkpt>
      <trkpt lat="45.85685" lon="4.70207">
        <ele>197</ele>
        <time>2016-08-23T12:14:42Z</time>
      </trkpt>
      <trkpt lat="45.85686" lon="4.70216">
        <ele>197</ele>
        <time>2016-08-23T12:14:43Z</time>
      </trkpt>
      <trkpt lat="45.85688" lon="4.70224">
        <ele>197</ele>
        <time>2016-08-23T12:14:44Z</time>
      </trkpt>
      <trkpt lat="45.85689" lon="4.70232">
        <ele>197</ele>
        <time>2016-08-23T12:14:45Z</time>
      </trkpt>
      <trkpt lat="45.8569" lon="4.7024">
        <ele>197</ele>
        <time>2016-08-23T12:14:46Z</time>
      </trkpt>
      <trkpt lat="45.85691" lon="4.70247">
        <ele>197</ele>
        <time>2016-08-23T12:14:47Z</time>
      </trkpt>
      <trkpt lat="45.85692" lon="4.70254">
        <ele>197</ele>
        <time>2016-08-23T12:14:48Z</time>
      </trkpt>
      <trkpt lat="45.85692" lon="4.7026">
        <ele>197</ele>
        <time>2016-08-23T12:14:49Z</time>
      </trkpt>
      <trkpt lat="45.85693" lon="4.70267">
        <ele>197</ele>
        <time>2016-08-23T12:14:50Z</time>
      </trkpt>
      <trkpt lat="45.85693" lon="4.70275">
        <ele>197</ele>
        <time>2016-08-23T12:14:51Z</time>
      </trkpt>
      <trkpt lat="45.85694" lon="4.70282">
        <ele>197</ele>
        <time>2016-08-23T12:14:52Z</time>
      </trkpt>
      <trkpt lat="45.85695" lon="4.70291">
        <ele>197</ele>
        <time>2016-08-23T12:14:53Z</time>
      </trkpt>
      <trkpt lat="45.85696" lon="4.70299">
        <ele>197</ele>
        <time>2016-08-23T12:14:54Z</time>
      </trkpt>
      <trkpt lat="45.85697" lon="4.70307">
        <ele>197</ele>
        <time>2016-08-23T12:14:55Z</time>
      </trkpt>
      <trkpt lat="45.85698" lon="4.70316">
        <ele>197</ele>
        <time>2016-08-23T12:14:56Z</time>
      </trkpt>
      <trkpt lat="45.85699" lon="4.70325">
        <ele>197</ele>
        <time>2016-08-23T12:14:57Z</time>
      </trkpt>
      <trkpt lat="45.857" lon="4.70333">
        <ele>197</ele>
        <time>2016-08-23T12:14:58Z</time>
      </trkpt>
      <trkpt lat="45.85701" lon="4.70341">
        <ele>196</ele>
        <time>2016-08-23T12:14:59Z</time>
      </trkpt>
      <trkpt lat="45.85701" lon="4.70348">
        <ele>196</ele>
        <time>2016-08-23T12:15:00Z</time>
      </trkpt>
      <trkpt lat="45.85703" lon="4.70356">
        <ele>196</ele>
        <time>2016-08-23T12:15:01Z</time>
      </trkpt>
      <trkpt lat="45.85703" lon="4.70365">
        <ele>196</ele>
        <time>2016-08-23T12:15:02Z</time>
      </trkpt>
      <trkpt lat="45.85705" lon="4.70374">
        <ele>196</ele>
        <time>2016-08-23T12:15:03Z</time>
      </trkpt>
      <trkpt lat="45.85706" lon="4.70384">
        <ele>196</ele>
        <time>2016-08-23T12:15:04Z</time>
      </trkpt>
      <trkpt lat="45.85707" lon="4.70393">
        <ele>196</ele>
        <time>2016-08-23T12:15:05Z</time>
      </trkpt>
      <trkpt lat="45.85708" lon="4.70402">
        <ele>196</ele>
        <time>2016-08-23T12:15:06Z</time>
      </trkpt>
      <trkpt lat="45.85709" lon="4.70411">
        <ele>196</ele>
        <time>2016-08-23T12:15:07Z</time>
      </trkpt>
      <trkpt lat="45.8571" lon="4.7042">
        <ele>196</ele>
        <time>2016-08-23T12:15:08Z</time>
      </trkpt>
      <trkpt lat="45.85712" lon="4.70429">
        <ele>196</ele>
        <time>2016-08-23T12:15:09Z</time>
      </trkpt>
      <trkpt lat="45.85714" lon="4.70438">
        <ele>196</ele>
        <time>2016-08-23T12:15:10Z</time>
      </trkpt>
      <trkpt lat="45.85715" lon="4.70446">
        <ele>196</ele>
        <time>2016-08-23T12:15:11Z</time>
      </trkpt>
      <trkpt lat="45.85717" lon="4.70453">
        <ele>196</ele>
        <time>2016-08-23T12:15:12Z</time>
      </trkpt>
      <trkpt lat="45.85718" lon="4.70461">
        <ele>196</ele>
        <time>2016-08-23T12:15:13Z</time>
      </trkpt>
      <trkpt lat="45.85719" lon="4.70469">
        <ele>196</ele>
        <time>2016-08-23T12:15:14Z</time>
      </trkpt>
      <trkpt lat="45.8572" lon="4.70476">
        <ele>196</ele>
        <time>2016-08-23T12:15:15Z</time>
      </trkpt>
      <trkpt lat="45.85719" lon="4.70482">
        <ele>196</ele>
        <time>2016-08-23T12:15:16Z</time>
      </trkpt>
      <trkpt lat="45.85716" lon="4.70494">
        <ele>196</ele>
        <time>2016-08-23T12:15:18Z</time>
      </trkpt>
      <trkpt lat="45.85713" lon="4.70499">
        <ele>196</ele>
        <time>2016-08-23T12:15:19Z</time>
      </trkpt>
      <trkpt lat="45.85711" lon="4.70506">
        <ele>196</ele>
        <time>2016-08-23T12:15:20Z</time>
      </trkpt>
      <trkpt lat="45.85711" lon="4.70514">
        <ele>196</ele>
        <time>2016-08-23T12:15:21Z</time>
      </trkpt>
      <trkpt lat="45.85713" lon="4.70521">
        <ele>196</ele>
        <time>2016-08-23T12:15:22Z</time>
      </trkpt>
      <trkpt lat="45.85717" lon="4.70528">
        <ele>196</ele>
        <time>2016-08-23T12:15:23Z</time>
      </trkpt>
      <trkpt lat="45.85723" lon="4.70532">
        <ele>196</ele>
        <time>2016-08-23T12:15:24Z</time>
      </trkpt>
      <trkpt lat="45.85728" lon="4.70534">
        <ele>196</ele>
        <time>2016-08-23T12:15:25Z</time>
      </trkpt>
      <trkpt lat="45.85734" lon="4.70533">
        <ele>196</ele>
        <time>2016-08-23T12:15:26Z</time>
      </trkpt>
      <trkpt lat="45.8574" lon="4.7053">
        <ele>196</ele>
        <time>2016-08-23T12:15:27Z</time>
      </trkpt>
      <trkpt lat="45.85746" lon="4.70529">
        <ele>196</ele>
        <time>2016-08-23T12:15:28Z</time>
      </trkpt>
      <trkpt lat="45.85752" lon="4.70529">
        <ele>196</ele>
        <time>2016-08-23T12:15:29Z</time>
      </trkpt>
      <trkpt lat="45.85757" lon="4.7053">
        <ele>196</ele>
        <time>2016-08-23T12:15:30Z</time>
      </trkpt>
      <trkpt lat="45.85763" lon="4.70532">
        <ele>196</ele>
        <time>2016-08-23T12:15:31Z</time>
      </trkpt>
      <trkpt lat="45.85768" lon="4.70535">
        <ele>196</ele>
        <time>2016-08-23T12:15:32Z</time>
      </trkpt>
      <trkpt lat="45.85773" lon="4.70538">
        <ele>196</ele>
        <time>2016-08-23T12:15:33Z</time>
      </trkpt>
      <trkpt lat="45.85779" lon="4.7054">
        <ele>196</ele>
        <time>2016-08-23T12:15:34Z</time>
      </trkpt>
      <trkpt lat="45.85785" lon="4.70543">
        <ele>196</ele>
        <time>2016-08-23T12:15:35Z</time>
      </trkpt>
      <trkpt lat="45.85791" lon="4.70546">
        <ele>196</ele>
        <time>2016-08-23T12:15:36Z</time>
      </trkpt>
      <trkpt lat="45.85797" lon="4.70548">
        <ele>195</ele>
        <time>2016-08-23T12:15:37Z</time>
      </trkpt>
      <trkpt lat="45.85802" lon="4.70551">
        <ele>195</ele>
        <time>2016-08-23T12:15:38Z</time>
      </trkpt>
      <trkpt lat="45.85807" lon="4.70554">
        <ele>195</ele>
        <time>2016-08-23T12:15:39Z</time>
      </trkpt>
      <trkpt lat="45.85813" lon="4.70558">
        <ele>195</ele>
        <time>2016-08-23T12:15:40Z</time>
      </trkpt>
      <trkpt lat="45.85818" lon="4.70561">
        <ele>195</ele>
        <time>2016-08-23T12:15:41Z</time>
      </trkpt>
      <trkpt lat="45.85823" lon="4.70564">
        <ele>195</ele>
        <time>2016-08-23T12:15:42Z</time>
      </trkpt>
      <trkpt lat="45.85828" lon="4.70567">
        <ele>195</ele>
        <time>2016-08-23T12:15:43Z</time>
      </trkpt>
      <trkpt lat="45.85833" lon="4.70569">
        <ele>195</ele>
        <time>2016-08-23T12:15:44Z</time>
      </trkpt>
      <trkpt lat="45.85839" lon="4.70571">
        <ele>195</ele>
        <time>2016-08-23T12:15:45Z</time>
      </trkpt>
      <trkpt lat="45.85844" lon="4.70573">
        <ele>195</ele>
        <time>2016-08-23T12:15:46Z</time>
      </trkpt>
      <trkpt lat="45.85849" lon="4.70574">
        <ele>195</ele>
        <time>2016-08-23T12:15:47Z</time>
      </trkpt>
      <trkpt lat="45.85854" lon="4.70576">
        <ele>195</ele>
        <time>2016-08-23T12:15:48Z</time>
      </trkpt>
      <trkpt lat="45.85858" lon="4.70577">
        <ele>195</ele>
        <time>2016-08-23T12:15:49Z</time>
      </trkpt>
      <trkpt lat="45.85863" lon="4.70579">
        <ele>195</ele>
        <time>2016-08-23T12:15:50Z</time>
      </trkpt>
      <trkpt lat="45.85867" lon="4.70581">
        <ele>195</ele>
        <time>2016-08-23T12:15:51Z</time>
      </trkpt>
      <trkpt lat="45.85872" lon="4.70583">
        <ele>195</ele>
        <time>2016-08-23T12:15:52Z</time>
      </trkpt>
      <trkpt lat="45.85877" lon="4.70585">
        <ele>195</ele>
        <time>2016-08-23T12:15:53Z</time>
      </trkpt>
      <trkpt lat="45.85883" lon="4.70587">
        <ele>195</ele>
        <time>2016-08-23T12:15:54Z</time>
      </trkpt>
      <trkpt lat="45.85889" lon="4.70589">
        <ele>195</ele>
        <time>2016-08-23T12:15:55Z</time>
      </trkpt>
      <trkpt lat="45.85895" lon="4.70591">
        <ele>195</ele>
        <time>2016-08-23T12:15:56Z</time>
      </trkpt>
      <trkpt lat="45.859" lon="4.70594">
        <ele>195</ele>
        <time>2016-08-23T12:15:57Z</time>
      </trkpt>
      <trkpt lat="45.85905" lon="4.70598">
        <ele>195</ele>
        <time>2016-08-23T12:15:58Z</time>
      </trkpt>
      <trkpt lat="45.85909" lon="4.70603">
        <ele>195</ele>
        <time>2016-08-23T12:15:59Z</time>
      </trkpt>
      <trkpt lat="45.85913" lon="4.70609">
        <ele>195</ele>
        <time>2016-08-23T12:16:00Z</time>
      </trkpt>
      <trkpt lat="45.85917" lon="4.70615">
        <ele>195</ele>
        <time>2016-08-23T12:16:01Z</time>
      </trkpt>
      <trkpt lat="45.8592" lon="4.70621">
        <ele>194</ele>
        <time>2016-08-23T12:16:02Z</time>
      </trkpt>
      <trkpt lat="45.85924" lon="4.70628">
        <ele>194</ele>
        <time>2016-08-23T12:16:03Z</time>
      </trkpt>
      <trkpt lat="45.85928" lon="4.70633">
        <ele>194</ele>
        <time>2016-08-23T12:16:04Z</time>
      </trkpt>
      <trkpt lat="45.85932" lon="4.70639">
        <ele>194</ele>
        <time>2016-08-23T12:16:05Z</time>
      </trkpt>
      <trkpt lat="45.85936" lon="4.70644">
        <ele>194</ele>
        <time>2016-08-23T12:16:06Z</time>
      </trkpt>
      <trkpt lat="45.8594" lon="4.7065">
        <ele>194</ele>
        <time>2016-08-23T12:16:07Z</time>
      </trkpt>
      <trkpt lat="45.85944" lon="4.70656">
        <ele>194</ele>
        <time>2016-08-23T12:16:08Z</time>
      </trkpt>
      <trkpt lat="45.85949" lon="4.70662">
        <ele>194</ele>
        <time>2016-08-23T12:16:09Z</time>
      </trkpt>
      <trkpt lat="45.85953" lon="4.70668">
        <ele>194</ele>
        <time>2016-08-23T12:16:10Z</time>
      </trkpt>
      <trkpt lat="45.85956" lon="4.70674">
        <ele>194</ele>
        <time>2016-08-23T12:16:11Z</time>
      </trkpt>
      <trkpt lat="45.85959" lon="4.7068">
        <ele>194</ele>
        <time>2016-08-23T12:16:12Z</time>
      </trkpt>
      <trkpt lat="45.85961" lon="4.70687">
        <ele>194</ele>
        <time>2016-08-23T12:16:13Z</time>
      </trkpt>
      <trkpt lat="45.85962" lon="4.70698">
        <ele>194</ele>
        <time>2016-08-23T12:16:15Z</time>
      </trkpt>
      <trkpt lat="45.85963" lon="4.70704">
        <ele>194</ele>
        <time>2016-08-23T12:16:16Z</time>
      </trkpt>
      <trkpt lat="45.85961" lon="4.70716">
        <ele>194</ele>
        <time>2016-08-23T12:16:18Z</time>
      </trkpt>
      <trkpt lat="45.85961" lon="4.70723">
        <ele>194</ele>
        <time>2016-08-23T12:16:19Z</time>
      </trkpt>
      <trkpt lat="45.8596" lon="4.7073">
        <ele>194</ele>
        <time>2016-08-23T12:16:20Z</time>
      </trkpt>
      <trkpt lat="45.8596" lon="4.70738">
        <ele>194</ele>
        <time>2016-08-23T12:16:21Z</time>
      </trkpt>
      <trkpt lat="45.85959" lon="4.70745">
        <ele>194</ele>
        <time>2016-08-23T12:16:22Z</time>
      </trkpt>
      <trkpt lat="45.85958" lon="4.70752">
        <ele>195</ele>
        <time>2016-08-23T12:16:23Z</time>
      </trkpt>
      <trkpt lat="45.85958" lon="4.7076">
        <ele>195</ele>
        <time>2016-08-23T12:16:24Z</time>
      </trkpt>
      <trkpt lat="45.85957" lon="4.70768">
        <ele>195</ele>
        <time>2016-08-23T12:16:25Z</time>
      </trkpt>
      <trkpt lat="45.85956" lon="4.70775">
        <ele>195</ele>
        <time>2016-08-23T12:16:26Z</time>
      </trkpt>
      <trkpt lat="45.85955" lon="4.70781">
        <ele>195</ele>
        <time>2016-08-23T12:16:27Z</time>
      </trkpt>
      <trkpt lat="45.85955" lon="4.70794">
        <ele>195</ele>
        <time>2016-08-23T12:16:29Z</time>
      </trkpt>
      <trkpt lat="45.85956" lon="4.70799">
        <ele>195</ele>
        <time>2016-08-23T12:16:30Z</time>
      </trkpt>
      <trkpt lat="45.85958" lon="4.7081">
        <ele>195</ele>
        <time>2016-08-23T12:16:32Z</time>
      </trkpt>
      <trkpt lat="45.85959" lon="4.70816">
        <ele>195</ele>
        <time>2016-08-23T12:16:33Z</time>
      </trkpt>
      <trkpt lat="45.8596" lon="4.70829">
        <ele>196</ele>
        <time>2016-08-23T12:16:35Z</time>
      </trkpt>
      <trkpt lat="45.8596" lon="4.70836">
        <ele>196</ele>
        <time>2016-08-23T12:16:36Z</time>
      </trkpt>
      <trkpt lat="45.85961" lon="4.70849">
        <ele>196</ele>
        <time>2016-08-23T12:16:38Z</time>
      </trkpt>
      <trkpt lat="45.85961" lon="4.70855">
        <ele>196</ele>
        <time>2016-08-23T12:16:39Z</time>
      </trkpt>
      <trkpt lat="45.85961" lon="4.70866">
        <ele>196</ele>
        <time>2016-08-23T12:16:41Z</time>
      </trkpt>
      <trkpt lat="45.8596" lon="4.70871">
        <ele>196</ele>
        <time>2016-08-23T12:16:42Z</time>
      </trkpt>
      <trkpt lat="45.85957" lon="4.70881">
        <ele>197</ele>
        <time>2016-08-23T12:16:44Z</time>
      </trkpt>
      <trkpt lat="45.85955" lon="4.70887">
        <ele>197</ele>
        <time>2016-08-23T12:16:45Z</time>
      </trkpt>
      <trkpt lat="45.85953" lon="4.70899">
        <ele>197</ele>
        <time>2016-08-23T12:16:47Z</time>
      </trkpt>
      <trkpt lat="45.85952" lon="4.70906">
        <ele>197</ele>
        <time>2016-08-23T12:16:48Z</time>
      </trkpt>
      <trkpt lat="45.85947" lon="4.70917">
        <ele>197</ele>
        <time>2016-08-23T12:16:50Z</time>
      </trkpt>
      <trkpt lat="45.85946" lon="4.70922">
        <ele>197</ele>
        <time>2016-08-23T12:16:51Z</time>
      </trkpt>
      <trkpt lat="45.85943" lon="4.70933">
        <ele>197</ele>
        <time>2016-08-23T12:16:53Z</time>
      </trkpt>
      <trkpt lat="45.85941" lon="4.70938">
        <ele>197</ele>
        <time>2016-08-23T12:16:54Z</time>
      </trkpt>
      <trkpt lat="45.85938" lon="4.7095">
        <ele>197</ele>
        <time>2016-08-23T12:16:56Z</time>
      </trkpt>
      <trkpt lat="45.85939" lon="4.70956">
        <ele>197</ele>
        <time>2016-08-23T12:16:57Z</time>
      </trkpt>
      <trkpt lat="45.85941" lon="4.70963">
        <ele>197</ele>
        <time>2016-08-23T12:16:58Z</time>
      </trkpt>
      <trkpt lat="45.85945" lon="4.70969">
        <ele>197</ele>
        <time>2016-08-23T12:16:59Z</time>
      </trkpt>
      <trkpt lat="45.8595" lon="4.70971">
        <ele>197</ele>
        <time>2016-08-23T12:17:00Z</time>
      </trkpt>
      <trkpt lat="45.85955" lon="4.70972">
        <ele>197</ele>
        <time>2016-08-23T12:17:01Z</time>
      </trkpt>
      <trkpt lat="45.8596" lon="4.70973">
        <ele>197</ele>
        <time>2016-08-23T12:17:02Z</time>
      </trkpt>
      <trkpt lat="45.85964" lon="4.70974">
        <ele>197</ele>
        <time>2016-08-23T12:17:03Z</time>
      </trkpt>
      <trkpt lat="45.85969" lon="4.70976">
        <ele>197</ele>
        <time>2016-08-23T12:17:04Z</time>
      </trkpt>
      <trkpt lat="45.85973" lon="4.70978">
        <ele>197</ele>
        <time>2016-08-23T12:17:05Z</time>
      </trkpt>
      <trkpt lat="45.85978" lon="4.7098">
        <ele>197</ele>
        <time>2016-08-23T12:17:06Z</time>
      </trkpt>
      <trkpt lat="45.85983" lon="4.70983">
        <ele>197</ele>
        <time>2016-08-23T12:17:07Z</time>
      </trkpt>
      <trkpt lat="45.85988" lon="4.70987">
        <ele>197</ele>
        <time>2016-08-23T12:17:08Z</time>
      </trkpt>
      <trkpt lat="45.85993" lon="4.7099">
        <ele>197</ele>
        <time>2016-08-23T12:17:09Z</time>
      </trkpt>
      <trkpt lat="45.85997" lon="4.70994">
        <ele>197</ele>
        <time>2016-08-23T12:17:10Z</time>
      </trkpt>
      <trkpt lat="45.86001" lon="4.70998">
        <ele>197</ele>
        <time>2016-08-23T12:17:11Z</time>
      </trkpt>
      <trkpt lat="45.86006" lon="4.71002">
        <ele>197</ele>
        <time>2016-08-23T12:17:12Z</time>
      </trkpt>
      <trkpt lat="45.8601" lon="4.71006">
        <ele>197</ele>
        <time>2016-08-23T12:17:13Z</time>
      </trkpt>
      <trkpt lat="45.86013" lon="4.71011">
        <ele>197</ele>
        <time>2016-08-23T12:17:14Z</time>
      </trkpt>
      <trkpt lat="45.86017" lon="4.71015">
        <ele>197</ele>
        <time>2016-08-23T12:17:15Z</time>
      </trkpt>
      <trkpt lat="45.86023" lon="4.71023">
        <ele>197</ele>
        <time>2016-08-23T12:17:17Z</time>
      </trkpt>
      <trkpt lat="45.86026" lon="4.71027">
        <ele>197</ele>
        <time>2016-08-23T12:17:18Z</time>
      </trkpt>
      <trkpt lat="45.86031" lon="4.71034">
        <ele>197</ele>
        <time>2016-08-23T12:17:20Z</time>
      </trkpt>
      <trkpt lat="45.86032" lon="4.7104">
        <ele>197</ele>
        <time>2016-08-23T12:17:21Z</time>
      </trkpt>
      <trkpt lat="45.86035" lon="4.71052">
        <ele>197</ele>
        <time>2016-08-23T12:17:23Z</time>
      </trkpt>
      <trkpt lat="45.86036" lon="4.7106">
        <ele>197</ele>
        <time>2016-08-23T12:17:24Z</time>
      </trkpt>
      <trkpt lat="45.86037" lon="4.71066">
        <ele>197</ele>
        <time>2016-08-23T12:17:25Z</time>
      </trkpt>
      <trkpt lat="45.86038" lon="4.71073">
        <ele>197</ele>
        <time>2016-08-23T12:17:26Z</time>
      </trkpt>
      <trkpt lat="45.86039" lon="4.71079">
        <ele>197</ele>
        <time>2016-08-23T12:17:27Z</time>
      </trkpt>
      <trkpt lat="45.86041" lon="4.71086">
        <ele>197</ele>
        <time>2016-08-23T12:17:28Z</time>
      </trkpt>
      <trkpt lat="45.86043" lon="4.71092">
        <ele>197</ele>
        <time>2016-08-23T12:17:29Z</time>
      </trkpt>
      <trkpt lat="45.86045" lon="4.71098">
        <ele>197</ele>
        <time>2016-08-23T12:17:30Z</time>
      </trkpt>
      <trkpt lat="45.86048" lon="4.71104">
        <ele>197</ele>
        <time>2016-08-23T12:17:31Z</time>
      </trkpt>
      <trkpt lat="45.86052" lon="4.71109">
        <ele>197</ele>
        <time>2016-08-23T12:17:32Z</time>
      </trkpt>
      <trkpt lat="45.86058" lon="4.71118">
        <ele>197</ele>
        <time>2016-08-23T12:17:34Z</time>
      </trkpt>
      <trkpt lat="45.86061" lon="4.71122">
        <ele>197</ele>
        <time>2016-08-23T12:17:35Z</time>
      </trkpt>
      <trkpt lat="45.86066" lon="4.71129">
        <ele>197</ele>
        <time>2016-08-23T12:17:37Z</time>
      </trkpt>
      <trkpt lat="45.86069" lon="4.71132">
        <ele>197</ele>
        <time>2016-08-23T12:17:38Z</time>
      </trkpt>
      <trkpt lat="45.86076" lon="4.71137">
        <ele>197</ele>
        <time>2016-08-23T12:21:07Z</time>
      </trkpt>
      <trkpt lat="45.86078" lon="4.71139">
        <ele>197</ele>
        <time>2016-08-23T12:21:08Z</time>
      </trkpt>
      <trkpt lat="45.86085" lon="4.71146">
        <ele>197</ele>
        <time>2016-08-23T12:21:11Z</time>
      </trkpt>
      <trkpt lat="45.86086" lon="4.71148">
        <ele>197</ele>
        <time>2016-08-23T12:21:12Z</time>
      </trkpt>
      <trkpt lat="45.86088" lon="4.71158">
        <ele>197</ele>
        <time>2016-08-23T12:21:16Z</time>
      </trkpt>
      <trkpt lat="45.86087" lon="4.71162">
        <ele>198</ele>
        <time>2016-08-23T12:21:17Z</time>
      </trkpt>
      <trkpt lat="45.86086" lon="4.71172">
        <ele>198</ele>
        <time>2016-08-23T12:21:19Z</time>
      </trkpt>
      <trkpt lat="45.86085" lon="4.71178">
        <ele>197</ele>
        <time>2016-08-23T12:21:20Z</time>
      </trkpt>
      <trkpt lat="45.86083" lon="4.71189">
        <ele>198</ele>
        <time>2016-08-23T12:21:22Z</time>
      </trkpt>
      <trkpt lat="45.86081" lon="4.71193">
        <ele>198</ele>
        <time>2016-08-23T12:21:23Z</time>
      </trkpt>
      <trkpt lat="45.8608" lon="4.71203">
        <ele>198</ele>
        <time>2016-08-23T12:21:25Z</time>
      </trkpt>
      <trkpt lat="45.86079" lon="4.71209">
        <ele>198</ele>
        <time>2016-08-23T12:21:26Z</time>
      </trkpt>
      <trkpt lat="45.86079" lon="4.71219">
        <ele>198</ele>
        <time>2016-08-23T12:21:28Z</time>
      </trkpt>
      <trkpt lat="45.86079" lon="4.71225">
        <ele>198</ele>
        <time>2016-08-23T12:21:29Z</time>
      </trkpt>
      <trkpt lat="45.86079" lon="4.71236">
        <ele>198</ele>
        <time>2016-08-23T12:21:31Z</time>
      </trkpt>
      <trkpt lat="45.8608" lon="4.71241">
        <ele>198</ele>
        <time>2016-08-23T12:21:32Z</time>
      </trkpt>
      <trkpt lat="45.86084" lon="4.71251">
        <ele>198</ele>
        <time>2016-08-23T12:21:34Z</time>
      </trkpt>
      <trkpt lat="45.86086" lon="4.71255">
        <ele>198</ele>
        <time>2016-08-23T12:21:35Z</time>
      </trkpt>
      <trkpt lat="45.86088" lon="4.7126">
        <ele>197</ele>
        <time>2016-08-23T12:21:36Z</time>
      </trkpt>
      <trkpt lat="45.86091" lon="4.71266">
        <ele>197</ele>
        <time>2016-08-23T12:21:37Z</time>
      </trkpt>
      <trkpt lat="45.86095" lon="4.71274">
        <ele>197</ele>
        <time>2016-08-23T12:21:39Z</time>
      </trkpt>
      <trkpt lat="45.86097" lon="4.7128">
        <ele>197</ele>
        <time>2016-08-23T12:21:40Z</time>
      </trkpt>
      <trkpt lat="45.861" lon="4.7129">
        <ele>197</ele>
        <time>2016-08-23T12:21:42Z</time>
      </trkpt>
      <trkpt lat="45.86101" lon="4.71296">
        <ele>197</ele>
        <time>2016-08-23T12:21:43Z</time>
      </trkpt>
      <trkpt lat="45.86103" lon="4.71307">
        <ele>197</ele>
        <time>2016-08-23T12:21:45Z</time>
      </trkpt>
      <trkpt lat="45.86104" lon="4.71312">
        <ele>197</ele>
        <time>2016-08-23T12:21:46Z</time>
      </trkpt>
      <trkpt lat="45.86106" lon="4.71323">
        <ele>197</ele>
        <time>2016-08-23T12:21:48Z</time>
      </trkpt>
      <trkpt lat="45.86107" lon="4.71329">
        <ele>196</ele>
        <time>2016-08-23T12:21:49Z</time>
      </trkpt>
      <trkpt lat="45.86108" lon="4.7134">
        <ele>196</ele>
        <time>2016-08-23T12:21:51Z</time>
      </trkpt>
      <trkpt lat="45.86109" lon="4.71346">
        <ele>196</ele>
        <time>2016-08-23T12:21:52Z</time>
      </trkpt>
      <trkpt lat="45.8611" lon="4.71357">
        <ele>196</ele>
        <time>2016-08-23T12:21:54Z</time>
      </trkpt>
      <trkpt lat="45.86111" lon="4.71363">
        <ele>196</ele>
        <time>2016-08-23T12:21:55Z</time>
      </trkpt>
      <trkpt lat="45.86112" lon="4.7137">
        <ele>196</ele>
        <time>2016-08-23T12:21:56Z</time>
      </trkpt>
      <trkpt lat="45.86113" lon="4.71377">
        <ele>196</ele>
        <time>2016-08-23T12:21:57Z</time>
      </trkpt>
      <trkpt lat="45.86114" lon="4.71384">
        <ele>196</ele>
        <time>2016-08-23T12:21:58Z</time>
      </trkpt>
      <trkpt lat="45.86115" lon="4.71391">
        <ele>196</ele>
        <time>2016-08-23T12:21:59Z</time>
      </trkpt>
      <trkpt lat="45.86115" lon="4.71398">
        <ele>196</ele>
        <time>2016-08-23T12:22:00Z</time>
      </trkpt>
      <trkpt lat="45.86116" lon="4.71405">
        <ele>196</ele>
        <time>2016-08-23T12:22:01Z</time>
      </trkpt>
      <trkpt lat="45.86117" lon="4.71412">
        <ele>196</ele>
        <time>2016-08-23T12:22:02Z</time>
      </trkpt>
      <trkpt lat="45.86118" lon="4.71419">
        <ele>195</ele>
        <time>2016-08-23T12:22:03Z</time>
      </trkpt>
      <trkpt lat="45.86119" lon="4.71426">
        <ele>195</ele>
        <time>2016-08-23T12:22:04Z</time>
      </trkpt>
      <trkpt lat="45.86121" lon="4.71433">
        <ele>195</ele>
        <time>2016-08-23T12:22:05Z</time>
      </trkpt>
      <trkpt lat="45.86122" lon="4.71439">
        <ele>195</ele>
        <time>2016-08-23T12:22:06Z</time>
      </trkpt>
      <trkpt lat="45.86124" lon="4.71445">
        <ele>195</ele>
        <time>2016-08-23T12:22:07Z</time>
      </trkpt>
      <trkpt lat="45.86126" lon="4.71457">
        <ele>195</ele>
        <time>2016-08-23T12:22:09Z</time>
      </trkpt>
      <trkpt lat="45.86128" lon="4.71463">
        <ele>195</ele>
        <time>2016-08-23T12:22:10Z</time>
      </trkpt>
      <trkpt lat="45.8613" lon="4.71474">
        <ele>195</ele>
        <time>2016-08-23T12:22:12Z</time>
      </trkpt>
      <trkpt lat="45.86132" lon="4.71481">
        <ele>195</ele>
        <time>2016-08-23T12:22:13Z</time>
      </trkpt>
      <trkpt lat="45.86134" lon="4.71487">
        <ele>195</ele>
        <time>2016-08-23T12:22:14Z</time>
      </trkpt>
      <trkpt lat="45.86137" lon="4.71492">
        <ele>195</ele>
        <time>2016-08-23T12:22:15Z</time>
      </trkpt>
      <trkpt lat="45.86141" lon="4.71498">
        <ele>195</ele>
        <time>2016-08-23T12:22:16Z</time>
      </trkpt>
      <trkpt lat="45.86144" lon="4.71504">
        <ele>195</ele>
        <time>2016-08-23T12:22:17Z</time>
      </trkpt>
      <trkpt lat="45.86147" lon="4.7151">
        <ele>195</ele>
        <time>2016-08-23T12:22:18Z</time>
      </trkpt>
      <trkpt lat="45.86151" lon="4.71516">
        <ele>195</ele>
        <time>2016-08-23T12:22:19Z</time>
      </trkpt>
      <trkpt lat="45.86154" lon="4.71522">
        <ele>195</ele>
        <time>2016-08-23T12:22:20Z</time>
      </trkpt>
      <trkpt lat="45.86157" lon="4.71529">
        <ele>195</ele>
        <time>2016-08-23T12:22:21Z</time>
      </trkpt>
      <trkpt lat="45.86161" lon="4.71535">
        <ele>195</ele>
        <time>2016-08-23T12:22:22Z</time>
      </trkpt>
      <trkpt lat="45.86164" lon="4.7154">
        <ele>195</ele>
        <time>2016-08-23T12:22:23Z</time>
      </trkpt>
      <trkpt lat="45.86167" lon="4.71546">
        <ele>196</ele>
        <time>2016-08-23T12:22:24Z</time>
      </trkpt>
      <trkpt lat="45.8617" lon="4.71552">
        <ele>195</ele>
        <time>2016-08-23T12:22:25Z</time>
      </trkpt>
      <trkpt lat="45.86172" lon="4.71559">
        <ele>195</ele>
        <time>2016-08-23T12:22:26Z</time>
      </trkpt>
      <trkpt lat="45.86176" lon="4.71564">
        <ele>195</ele>
        <time>2016-08-23T12:22:27Z</time>
      </trkpt>
      <trkpt lat="45.86179" lon="4.7157">
        <ele>195</ele>
        <time>2016-08-23T12:22:28Z</time>
      </trkpt>
      <trkpt lat="45.86181" lon="4.71575">
        <ele>195</ele>
        <time>2016-08-23T12:22:29Z</time>
      </trkpt>
      <trkpt lat="45.86187" lon="4.71584">
        <ele>196</ele>
        <time>2016-08-23T12:22:31Z</time>
      </trkpt>
      <trkpt lat="45.86189" lon="4.71589">
        <ele>195</ele>
        <time>2016-08-23T12:22:32Z</time>
      </trkpt>
      <trkpt lat="45.86189" lon="4.71602">
        <ele>195</ele>
        <time>2016-08-23T12:22:34Z</time>
      </trkpt>
      <trkpt lat="45.86188" lon="4.71607">
        <ele>195</ele>
        <time>2016-08-23T12:22:35Z</time>
      </trkpt>
      <trkpt lat="45.86187" lon="4.71614">
        <ele>195</ele>
        <time>2016-08-23T12:22:36Z</time>
      </trkpt>
      <trkpt lat="45.86187" lon="4.71621">
        <ele>195</ele>
        <time>2016-08-23T12:22:37Z</time>
      </trkpt>
      <trkpt lat="45.86187" lon="4.71628">
        <ele>195</ele>
        <time>2016-08-23T12:22:38Z</time>
      </trkpt>
      <trkpt lat="45.86189" lon="4.71635">
        <ele>195</ele>
        <time>2016-08-23T12:22:39Z</time>
      </trkpt>
      <trkpt lat="45.86192" lon="4.7164">
        <ele>195</ele>
        <time>2016-08-23T12:22:40Z</time>
      </trkpt>
      <trkpt lat="45.86196" lon="4.71644">
        <ele>195</ele>
        <time>2016-08-23T12:22:41Z</time>
      </trkpt>
      <trkpt lat="45.86202" lon="4.71645">
        <ele>195</ele>
        <time>2016-08-23T12:22:42Z</time>
      </trkpt>
      <trkpt lat="45.86207" lon="4.71647">
        <ele>195</ele>
        <time>2016-08-23T12:22:43Z</time>
      </trkpt>
      <trkpt lat="45.86212" lon="4.71648">
        <ele>195</ele>
        <time>2016-08-23T12:22:44Z</time>
      </trkpt>
      <trkpt lat="45.86217" lon="4.71651">
        <ele>195</ele>
        <time>2016-08-23T12:22:45Z</time>
      </trkpt>
      <trkpt lat="45.86222" lon="4.71654">
        <ele>195</ele>
        <time>2016-08-23T12:22:46Z</time>
      </trkpt>
      <trkpt lat="45.86227" lon="4.71658">
        <ele>195</ele>
        <time>2016-08-23T12:22:47Z</time>
      </trkpt>
      <trkpt lat="45.86231" lon="4.71661">
        <ele>195</ele>
        <time>2016-08-23T12:22:48Z</time>
      </trkpt>
      <trkpt lat="45.86236" lon="4.71665">
        <ele>195</ele>
        <time>2016-08-23T12:22:49Z</time>
      </trkpt>
      <trkpt lat="45.8624" lon="4.71669">
        <ele>196</ele>
        <time>2016-08-23T12:22:50Z</time>
      </trkpt>
      <trkpt lat="45.86245" lon="4.71673">
        <ele>195</ele>
        <time>2016-08-23T12:22:51Z</time>
      </trkpt>
      <trkpt lat="45.86249" lon="4.71678">
        <ele>196</ele>
        <time>2016-08-23T12:22:52Z</time>
      </trkpt>
      <trkpt lat="45.86253" lon="4.71682">
        <ele>195</ele>
        <time>2016-08-23T12:22:53Z</time>
      </trkpt>
      <trkpt lat="45.86258" lon="4.71685">
        <ele>195</ele>
        <time>2016-08-23T12:22:54Z</time>
      </trkpt>
      <trkpt lat="45.86263" lon="4.71688">
        <ele>195</ele>
        <time>2016-08-23T12:22:55Z</time>
      </trkpt>
      <trkpt lat="45.86267" lon="4.71692">
        <ele>195</ele>
        <time>2016-08-23T12:22:56Z</time>
      </trkpt>
      <trkpt lat="45.86272" lon="4.71696">
        <ele>195</ele>
        <time>2016-08-23T12:22:57Z</time>
      </trkpt>
      <trkpt lat="45.86277" lon="4.717">
        <ele>195</ele>
        <time>2016-08-23T12:22:58Z</time>
      </trkpt>
      <trkpt lat="45.86283" lon="4.71704">
        <ele>195</ele>
        <time>2016-08-23T12:22:59Z</time>
      </trkpt>
      <trkpt lat="45.86288" lon="4.71708">
        <ele>196</ele>
        <time>2016-08-23T12:23:00Z</time>
      </trkpt>
      <trkpt lat="45.86293" lon="4.71712">
        <ele>196</ele>
        <time>2016-08-23T12:23:01Z</time>
      </trkpt>
      <trkpt lat="45.86298" lon="4.71716">
        <ele>196</ele>
        <time>2016-08-23T12:23:02Z</time>
      </trkpt>
      <trkpt lat="45.86303" lon="4.7172">
        <ele>196</ele>
        <time>2016-08-23T12:23:03Z</time>
      </trkpt>
      <trkpt lat="45.86308" lon="4.71724">
        <ele>196</ele>
        <time>2016-08-23T12:23:04Z</time>
      </trkpt>
      <trkpt lat="45.86312" lon="4.71728">
        <ele>196</ele>
        <time>2016-08-23T12:23:05Z</time>
      </trkpt>
      <trkpt lat="45.86318" lon="4.71732">
        <ele>196</ele>
        <time>2016-08-23T12:23:06Z</time>
      </trkpt>
      <trkpt lat="45.86323" lon="4.71736">
        <ele>196</ele>
        <time>2016-08-23T12:23:07Z</time>
      </trkpt>
      <trkpt lat="45.86327" lon="4.7174">
        <ele>196</ele>
        <time>2016-08-23T12:23:08Z</time>
      </trkpt>
      <trkpt lat="45.86332" lon="4.71744">
        <ele>196</ele>
        <time>2016-08-23T12:23:09Z</time>
      </trkpt>
      <trkpt lat="45.86336" lon="4.71746">
        <ele>196</ele>
        <time>2016-08-23T12:23:10Z</time>
      </trkpt>
      <trkpt lat="45.86342" lon="4.7175">
        <ele>195</ele>
        <time>2016-08-23T12:23:11Z</time>
      </trkpt>
      <trkpt lat="45.86347" lon="4.71754">
        <ele>197</ele>
        <time>2016-08-23T12:23:12Z</time>
      </trkpt>
      <trkpt lat="45.86352" lon="4.71758">
        <ele>197</ele>
        <time>2016-08-23T12:23:13Z</time>
      </trkpt>
      <trkpt lat="45.86357" lon="4.71762">
        <ele>198</ele>
        <time>2016-08-23T12:23:14Z</time>
      </trkpt>
      <trkpt lat="45.86362" lon="4.71766">
        <ele>198</ele>
        <time>2016-08-23T12:23:15Z</time>
      </trkpt>
      <trkpt lat="45.86368" lon="4.71771">
        <ele>198</ele>
        <time>2016-08-23T12:23:16Z</time>
      </trkpt>
      <trkpt lat="45.86373" lon="4.71774">
        <ele>198</ele>
        <time>2016-08-23T12:23:17Z</time>
      </trkpt>
      <trkpt lat="45.86377" lon="4.71778">
        <ele>198</ele>
        <time>2016-08-23T12:23:18Z</time>
      </trkpt>
      <trkpt lat="45.86381" lon="4.71782">
        <ele>198</ele>
        <time>2016-08-23T12:23:19Z</time>
      </trkpt>
      <trkpt lat="45.86386" lon="4.71786">
        <ele>198</ele>
        <time>2016-08-23T12:23:20Z</time>
      </trkpt>
      <trkpt lat="45.8639" lon="4.7179">
        <ele>199</ele>
        <time>2016-08-23T12:23:21Z</time>
      </trkpt>
      <trkpt lat="45.86395" lon="4.71794">
        <ele>199</ele>
        <time>2016-08-23T12:23:22Z</time>
      </trkpt>
      <trkpt lat="45.86399" lon="4.71798">
        <ele>199</ele>
        <time>2016-08-23T12:23:23Z</time>
      </trkpt>
      <trkpt lat="45.86404" lon="4.71801">
        <ele>199</ele>
        <time>2016-08-23T12:23:24Z</time>
      </trkpt>
      <trkpt lat="45.86408" lon="4.71805">
        <ele>199</ele>
        <time>2016-08-23T12:23:25Z</time>
      </trkpt>
      <trkpt lat="45.86412" lon="4.71808">
        <ele>200</ele>
        <time>2016-08-23T12:23:26Z</time>
      </trkpt>
      <trkpt lat="45.86417" lon="4.71812">
        <ele>200</ele>
        <time>2016-08-23T12:23:27Z</time>
      </trkpt>
      <trkpt lat="45.86421" lon="4.71816">
        <ele>199</ele>
        <time>2016-08-23T12:23:28Z</time>
      </trkpt>
      <trkpt lat="45.86426" lon="4.7182">
        <ele>199</ele>
        <time>2016-08-23T12:23:29Z</time>
      </trkpt>
      <trkpt lat="45.86431" lon="4.71823">
        <ele>199</ele>
        <time>2016-08-23T12:23:30Z</time>
      </trkpt>
      <trkpt lat="45.86436" lon="4.71827">
        <ele>198</ele>
        <time>2016-08-23T12:23:31Z</time>
      </trkpt>
      <trkpt lat="45.86441" lon="4.7183">
        <ele>198</ele>
        <time>2016-08-23T12:23:32Z</time>
      </trkpt>
      <trkpt lat="45.86446" lon="4.71834">
        <ele>200</ele>
        <time>2016-08-23T12:23:33Z</time>
      </trkpt>
      <trkpt lat="45.86451" lon="4.71838">
        <ele>200</ele>
        <time>2016-08-23T12:23:34Z</time>
      </trkpt>
      <trkpt lat="45.86455" lon="4.71842">
        <ele>200</ele>
        <time>2016-08-23T12:23:35Z</time>
      </trkpt>
      <trkpt lat="45.86462" lon="4.7185">
        <ele>200</ele>
        <time>2016-08-23T12:23:37Z</time>
      </trkpt>
      <trkpt lat="45.86466" lon="4.71853">
        <ele>199</ele>
        <time>2016-08-23T12:23:38Z</time>
      </trkpt>
      <trkpt lat="45.8647" lon="4.71855">
        <ele>199</ele>
        <time>2016-08-23T12:23:39Z</time>
      </trkpt>
      <trkpt lat="45.86474" lon="4.71859">
        <ele>199</ele>
        <time>2016-08-23T12:23:40Z</time>
      </trkpt>
      <trkpt lat="45.86479" lon="4.71862">
        <ele>199</ele>
        <time>2016-08-23T12:23:41Z</time>
      </trkpt>
      <trkpt lat="45.86484" lon="4.71865">
        <ele>199</ele>
        <time>2016-08-23T12:23:42Z</time>
      </trkpt>
      <trkpt lat="45.86489" lon="4.71869">
        <ele>199</ele>
        <time>2016-08-23T12:23:43Z</time>
      </trkpt>
      <trkpt lat="45.86494" lon="4.71873">
        <ele>199</ele>
        <time>2016-08-23T12:23:44Z</time>
      </trkpt>
      <trkpt lat="45.86498" lon="4.71878">
        <ele>199</ele>
        <time>2016-08-23T12:23:45Z</time>
      </trkpt>
      <trkpt lat="45.86502" lon="4.71883">
        <ele>195</ele>
        <time>2016-08-23T12:23:46Z</time>
      </trkpt>
      <trkpt lat="45.86507" lon="4.71887">
        <ele>195</ele>
        <time>2016-08-23T12:23:47Z</time>
      </trkpt>
      <trkpt lat="45.86512" lon="4.71891">
        <ele>195</ele>
        <time>2016-08-23T12:23:48Z</time>
      </trkpt>
      <trkpt lat="45.86517" lon="4.71895">
        <ele>195</ele>
        <time>2016-08-23T12:23:49Z</time>
      </trkpt>
      <trkpt lat="45.86522" lon="4.71899">
        <ele>195</ele>
        <time>2016-08-23T12:23:50Z</time>
      </trkpt>
      <trkpt lat="45.86527" lon="4.71902">
        <ele>195</ele>
        <time>2016-08-23T12:23:51Z</time>
      </trkpt>
      <trkpt lat="45.86531" lon="4.71905">
        <ele>195</ele>
        <time>2016-08-23T12:23:52Z</time>
      </trkpt>
      <trkpt lat="45.86536" lon="4.71909">
        <ele>195</ele>
        <time>2016-08-23T12:23:53Z</time>
      </trkpt>
      <trkpt lat="45.86541" lon="4.71913">
        <ele>195</ele>
        <time>2016-08-23T12:23:54Z</time>
      </trkpt>
      <trkpt lat="45.86546" lon="4.71917">
        <ele>195</ele>
        <time>2016-08-23T12:23:55Z</time>
      </trkpt>
      <trkpt lat="45.86552" lon="4.7192">
        <ele>196</ele>
        <time>2016-08-23T12:23:56Z</time>
      </trkpt>
      <trkpt lat="45.86556" lon="4.71924">
        <ele>196</ele>
        <time>2016-08-23T12:23:57Z</time>
      </trkpt>
      <trkpt lat="45.86561" lon="4.71928">
        <ele>196</ele>
        <time>2016-08-23T12:23:58Z</time>
      </trkpt>
      <trkpt lat="45.86566" lon="4.71932">
        <ele>196</ele>
        <time>2016-08-23T12:23:59Z</time>
      </trkpt>
      <trkpt lat="45.86571" lon="4.71937">
        <ele>196</ele>
        <time>2016-08-23T12:24:00Z</time>
      </trkpt>
      <trkpt lat="45.86576" lon="4.71942">
        <ele>196</ele>
        <time>2016-08-23T12:24:01Z</time>
      </trkpt>
      <trkpt lat="45.86581" lon="4.71947">
        <ele>196</ele>
        <time>2016-08-23T12:24:02Z</time>
      </trkpt>
      <trkpt lat="45.86586" lon="4.71951">
        <ele>194</ele>
        <time>2016-08-23T12:24:03Z</time>
      </trkpt>
      <trkpt lat="45.86591" lon="4.71955">
        <ele>194</ele>
        <time>2016-08-23T12:24:04Z</time>
      </trkpt>
      <trkpt lat="45.86597" lon="4.7196">
        <ele>195</ele>
        <time>2016-08-23T12:24:05Z</time>
      </trkpt>
      <trkpt lat="45.86602" lon="4.71964">
        <ele>195</ele>
        <time>2016-08-23T12:24:06Z</time>
      </trkpt>
      <trkpt lat="45.86607" lon="4.71968">
        <ele>195</ele>
        <time>2016-08-23T12:24:07Z</time>
      </trkpt>
      <trkpt lat="45.86611" lon="4.71972">
        <ele>195</ele>
        <time>2016-08-23T12:24:08Z</time>
      </trkpt>
      <trkpt lat="45.86616" lon="4.71976">
        <ele>195</ele>
        <time>2016-08-23T12:24:09Z</time>
      </trkpt>
      <trkpt lat="45.86621" lon="4.7198">
        <ele>195</ele>
        <time>2016-08-23T12:24:10Z</time>
      </trkpt>
      <trkpt lat="45.86626" lon="4.71983">
        <ele>195</ele>
        <time>2016-08-23T12:24:11Z</time>
      </trkpt>
      <trkpt lat="45.86632" lon="4.71986">
        <ele>195</ele>
        <time>2016-08-23T12:24:12Z</time>
      </trkpt>
      <trkpt lat="45.86637" lon="4.71989">
        <ele>195</ele>
        <time>2016-08-23T12:24:13Z</time>
      </trkpt>
      <trkpt lat="45.86643" lon="4.71992">
        <ele>195</ele>
        <time>2016-08-23T12:24:14Z</time>
      </trkpt>
      <trkpt lat="45.86648" lon="4.71996">
        <ele>195</ele>
        <time>2016-08-23T12:24:15Z</time>
      </trkpt>
      <trkpt lat="45.86653" lon="4.71999">
        <ele>195</ele>
        <time>2016-08-23T12:24:16Z</time>
      </trkpt>
      <trkpt lat="45.86659" lon="4.72003">
        <ele>196</ele>
        <time>2016-08-23T12:24:17Z</time>
      </trkpt>
      <trkpt lat="45.86664" lon="4.72007">
        <ele>196</ele>
        <time>2016-08-23T12:24:18Z</time>
      </trkpt>
      <trkpt lat="45.86669" lon="4.72011">
        <ele>196</ele>
        <time>2016-08-23T12:24:19Z</time>
      </trkpt>
      <trkpt lat="45.86673" lon="4.72014">
        <ele>196</ele>
        <time>2016-08-23T12:24:20Z</time>
      </trkpt>
      <trkpt lat="45.86678" lon="4.72017">
        <ele>196</ele>
        <time>2016-08-23T12:24:21Z</time>
      </trkpt>
      <trkpt lat="45.86682" lon="4.72021">
        <ele>197</ele>
        <time>2016-08-23T12:24:22Z</time>
      </trkpt>
      <trkpt lat="45.86686" lon="4.72024">
        <ele>197</ele>
        <time>2016-08-23T12:24:23Z</time>
      </trkpt>
      <trkpt lat="45.8669" lon="4.72027">
        <ele>197</ele>
        <time>2016-08-23T12:24:24Z</time>
      </trkpt>
      <trkpt lat="45.86694" lon="4.72031">
        <ele>197</ele>
        <time>2016-08-23T12:24:25Z</time>
      </trkpt>
      <trkpt lat="45.86699" lon="4.72034">
        <ele>197</ele>
        <time>2016-08-23T12:24:26Z</time>
      </trkpt>
      <trkpt lat="45.86703" lon="4.72038">
        <ele>197</ele>
        <time>2016-08-23T12:24:27Z</time>
      </trkpt>
      <trkpt lat="45.86709" lon="4.72041">
        <ele>197</ele>
        <time>2016-08-23T12:24:28Z</time>
      </trkpt>
      <trkpt lat="45.86714" lon="4.72045">
        <ele>197</ele>
        <time>2016-08-23T12:24:29Z</time>
      </trkpt>
      <trkpt lat="45.8672" lon="4.72048">
        <ele>197</ele>
        <time>2016-08-23T12:24:30Z</time>
      </trkpt>
      <trkpt lat="45.86725" lon="4.72052">
        <ele>197</ele>
        <time>2016-08-23T12:24:31Z</time>
      </trkpt>
      <trkpt lat="45.86731" lon="4.72056">
        <ele>197</ele>
        <time>2016-08-23T12:24:32Z</time>
      </trkpt>
      <trkpt lat="45.86737" lon="4.72059">
        <ele>197</ele>
        <time>2016-08-23T12:24:33Z</time>
      </trkpt>
      <trkpt lat="45.86742" lon="4.72062">
        <ele>197</ele>
        <time>2016-08-23T12:24:34Z</time>
      </trkpt>
      <trkpt lat="45.86748" lon="4.72065">
        <ele>197</ele>
        <time>2016-08-23T12:24:35Z</time>
      </trkpt>
      <trkpt lat="45.86753" lon="4.72068">
        <ele>195</ele>
        <time>2016-08-23T12:24:36Z</time>
      </trkpt>
      <trkpt lat="45.86758" lon="4.72071">
        <ele>195</ele>
        <time>2016-08-23T12:24:37Z</time>
      </trkpt>
      <trkpt lat="45.86763" lon="4.72073">
        <ele>195</ele>
        <time>2016-08-23T12:24:38Z</time>
      </trkpt>
      <trkpt lat="45.86768" lon="4.72076">
        <ele>195</ele>
        <time>2016-08-23T12:24:39Z</time>
      </trkpt>
      <trkpt lat="45.86773" lon="4.72078">
        <ele>195</ele>
        <time>2016-08-23T12:24:40Z</time>
      </trkpt>
      <trkpt lat="45.86778" lon="4.7208">
        <ele>195</ele>
        <time>2016-08-23T12:24:41Z</time>
      </trkpt>
      <trkpt lat="45.86783" lon="4.72082">
        <ele>194</ele>
        <time>2016-08-23T12:24:42Z</time>
      </trkpt>
      <trkpt lat="45.86788" lon="4.72083">
        <ele>194</ele>
        <time>2016-08-23T12:24:43Z</time>
      </trkpt>
      <trkpt lat="45.86793" lon="4.72085">
        <ele>201</ele>
        <time>2016-08-23T12:24:44Z</time>
      </trkpt>
      <trkpt lat="45.86799" lon="4.72087">
        <ele>201</ele>
        <time>2016-08-23T12:24:45Z</time>
      </trkpt>
      <trkpt lat="45.86804" lon="4.72089">
        <ele>201</ele>
        <time>2016-08-23T12:24:46Z</time>
      </trkpt>
      <trkpt lat="45.86811" lon="4.72091">
        <ele>200</ele>
        <time>2016-08-23T12:24:47Z</time>
      </trkpt>
      <trkpt lat="45.86817" lon="4.72094">
        <ele>200</ele>
        <time>2016-08-23T12:24:48Z</time>
      </trkpt>
      <trkpt lat="45.86823" lon="4.72096">
        <ele>199</ele>
        <time>2016-08-23T12:24:49Z</time>
      </trkpt>
      <trkpt lat="45.86829" lon="4.72098">
        <ele>199</ele>
        <time>2016-08-23T12:24:50Z</time>
      </trkpt>
      <trkpt lat="45.86835" lon="4.72101">
        <ele>198</ele>
        <time>2016-08-23T12:24:51Z</time>
      </trkpt>
      <trkpt lat="45.86841" lon="4.72104">
        <ele>199</ele>
        <time>2016-08-23T12:24:52Z</time>
      </trkpt>
      <trkpt lat="45.86847" lon="4.72107">
        <ele>200</ele>
        <time>2016-08-23T12:24:53Z</time>
      </trkpt>
      <trkpt lat="45.86852" lon="4.7211">
        <ele>201</ele>
        <time>2016-08-23T12:24:54Z</time>
      </trkpt>
      <trkpt lat="45.86857" lon="4.72112">
        <ele>201</ele>
        <time>2016-08-23T12:24:55Z</time>
      </trkpt>
      <trkpt lat="45.86862" lon="4.72115">
        <ele>201</ele>
        <time>2016-08-23T12:24:56Z</time>
      </trkpt>
      <trkpt lat="45.86867" lon="4.72117">
        <ele>202</ele>
        <time>2016-08-23T12:24:57Z</time>
      </trkpt>
      <trkpt lat="45.86872" lon="4.72119">
        <ele>202</ele>
        <time>2016-08-23T12:24:58Z</time>
      </trkpt>
      <trkpt lat="45.86878" lon="4.72121">
        <ele>202</ele>
        <time>2016-08-23T12:24:59Z</time>
      </trkpt>
      <trkpt lat="45.86883" lon="4.72123">
        <ele>202</ele>
        <time>2016-08-23T12:25:00Z</time>
      </trkpt>
      <trkpt lat="45.86889" lon="4.72127">
        <ele>203</ele>
        <time>2016-08-23T12:25:01Z</time>
      </trkpt>
      <trkpt lat="45.86894" lon="4.72129">
        <ele>203</ele>
        <time>2016-08-23T12:25:02Z</time>
      </trkpt>
      <trkpt lat="45.869" lon="4.72132">
        <ele>203</ele>
        <time>2016-08-23T12:25:03Z</time>
      </trkpt>
      <trkpt lat="45.86905" lon="4.72134">
        <ele>204</ele>
        <time>2016-08-23T12:25:04Z</time>
      </trkpt>
      <trkpt lat="45.8691" lon="4.72137">
        <ele>205</ele>
        <time>2016-08-23T12:25:05Z</time>
      </trkpt>
      <trkpt lat="45.86914" lon="4.72139">
        <ele>205</ele>
        <time>2016-08-23T12:25:06Z</time>
      </trkpt>
      <trkpt lat="45.86919" lon="4.72142">
        <ele>203</ele>
        <time>2016-08-23T12:25:07Z</time>
      </trkpt>
      <trkpt lat="45.86924" lon="4.72145">
        <ele>204</ele>
        <time>2016-08-23T12:25:08Z</time>
      </trkpt>
      <trkpt lat="45.86928" lon="4.72148">
        <ele>204</ele>
        <time>2016-08-23T12:25:09Z</time>
      </trkpt>
      <trkpt lat="45.86933" lon="4.72151">
        <ele>204</ele>
        <time>2016-08-23T12:25:10Z</time>
      </trkpt>
      <trkpt lat="45.86939" lon="4.72155">
        <ele>204</ele>
        <time>2016-08-23T12:25:11Z</time>
      </trkpt>
      <trkpt lat="45.86944" lon="4.72159">
        <ele>203</ele>
        <time>2016-08-23T12:25:12Z</time>
      </trkpt>
      <trkpt lat="45.86949" lon="4.72163">
        <ele>203</ele>
        <time>2016-08-23T12:25:13Z</time>
      </trkpt>
      <trkpt lat="45.86954" lon="4.72167">
        <ele>202</ele>
        <time>2016-08-23T12:25:14Z</time>
      </trkpt>
      <trkpt lat="45.86959" lon="4.7217">
        <ele>210</ele>
        <time>2016-08-23T12:25:15Z</time>
      </trkpt>
      <trkpt lat="45.86965" lon="4.72173">
        <ele>210</ele>
        <time>2016-08-23T12:25:16Z</time>
      </trkpt>
      <trkpt lat="45.86969" lon="4.72175">
        <ele>209</ele>
        <time>2016-08-23T12:25:17Z</time>
      </trkpt>
      <trkpt lat="45.86975" lon="4.72179">
        <ele>209</ele>
        <time>2016-08-23T12:25:18Z</time>
      </trkpt>
      <trkpt lat="45.86981" lon="4.72183">
        <ele>209</ele>
        <time>2016-08-23T12:25:19Z</time>
      </trkpt>
      <trkpt lat="45.86985" lon="4.72186">
        <ele>208</ele>
        <time>2016-08-23T12:25:20Z</time>
      </trkpt>
      <trkpt lat="45.8699" lon="4.72189">
        <ele>208</ele>
        <time>2016-08-23T12:25:21Z</time>
      </trkpt>
      <trkpt lat="45.86994" lon="4.72191">
        <ele>208</ele>
        <time>2016-08-23T12:25:22Z</time>
      </trkpt>
      <trkpt lat="45.86999" lon="4.72193">
        <ele>209</ele>
        <time>2016-08-23T12:25:23Z</time>
      </trkpt>
      <trkpt lat="45.87003" lon="4.72196">
        <ele>202</ele>
        <time>2016-08-23T12:25:24Z</time>
      </trkpt>
      <trkpt lat="45.87008" lon="4.722">
        <ele>202</ele>
        <time>2016-08-23T12:25:25Z</time>
      </trkpt>
      <trkpt lat="45.87013" lon="4.72203">
        <ele>202</ele>
        <time>2016-08-23T12:25:26Z</time>
      </trkpt>
      <trkpt lat="45.87018" lon="4.72208">
        <ele>202</ele>
        <time>2016-08-23T12:25:27Z</time>
      </trkpt>
      <trkpt lat="45.87023" lon="4.72212">
        <ele>203</ele>
        <time>2016-08-23T12:25:28Z</time>
      </trkpt>
      <trkpt lat="45.87028" lon="4.72215">
        <ele>202</ele>
        <time>2016-08-23T12:25:29Z</time>
      </trkpt>
      <trkpt lat="45.87033" lon="4.72219">
        <ele>202</ele>
        <time>2016-08-23T12:25:30Z</time>
      </trkpt>
      <trkpt lat="45.87038" lon="4.72223">
        <ele>202</ele>
        <time>2016-08-23T12:25:31Z</time>
      </trkpt>
      <trkpt lat="45.87043" lon="4.72226">
        <ele>202</ele>
        <time>2016-08-23T12:25:32Z</time>
      </trkpt>
      <trkpt lat="45.87048" lon="4.7223">
        <ele>201</ele>
        <time>2016-08-23T12:25:33Z</time>
      </trkpt>
      <trkpt lat="45.87053" lon="4.72233">
        <ele>201</ele>
        <time>2016-08-23T12:25:34Z</time>
      </trkpt>
      <trkpt lat="45.8706" lon="4.7224">
        <ele>201</ele>
        <time>2016-08-23T12:25:36Z</time>
      </trkpt>
      <trkpt lat="45.87064" lon="4.72243">
        <ele>200</ele>
        <time>2016-08-23T12:25:37Z</time>
      </trkpt>
      <trkpt lat="45.87068" lon="4.72247">
        <ele>200</ele>
        <time>2016-08-23T12:25:38Z</time>
      </trkpt>
      <trkpt lat="45.87072" lon="4.72251">
        <ele>203</ele>
        <time>2016-08-23T12:25:39Z</time>
      </trkpt>
      <trkpt lat="45.87076" lon="4.72255">
        <ele>202</ele>
        <time>2016-08-23T12:25:40Z</time>
      </trkpt>
      <trkpt lat="45.87081" lon="4.7226">
        <ele>202</ele>
        <time>2016-08-23T12:25:41Z</time>
      </trkpt>
      <trkpt lat="45.87085" lon="4.72265">
        <ele>198</ele>
        <time>2016-08-23T12:25:42Z</time>
      </trkpt>
      <trkpt lat="45.8709" lon="4.7227">
        <ele>198</ele>
        <time>2016-08-23T12:25:43Z</time>
      </trkpt>
      <trkpt lat="45.87094" lon="4.72275">
        <ele>198</ele>
        <time>2016-08-23T12:25:44Z</time>
      </trkpt>
      <trkpt lat="45.87098" lon="4.7228">
        <ele>198</ele>
        <time>2016-08-23T12:25:45Z</time>
      </trkpt>
      <trkpt lat="45.87102" lon="4.72284">
        <ele>197</ele>
        <time>2016-08-23T12:25:46Z</time>
      </trkpt>
      <trkpt lat="45.87106" lon="4.72289">
        <ele>197</ele>
        <time>2016-08-23T12:25:47Z</time>
      </trkpt>
      <trkpt lat="45.87109" lon="4.72294">
        <ele>197</ele>
        <time>2016-08-23T12:25:48Z</time>
      </trkpt>
      <trkpt lat="45.87114" lon="4.72298">
        <ele>197</ele>
        <time>2016-08-23T12:25:49Z</time>
      </trkpt>
      <trkpt lat="45.87117" lon="4.72303">
        <ele>197</ele>
        <time>2016-08-23T12:25:50Z</time>
      </trkpt>
      <trkpt lat="45.8712" lon="4.72307">
        <ele>197</ele>
        <time>2016-08-23T12:25:51Z</time>
      </trkpt>
      <trkpt lat="45.87123" lon="4.72312">
        <ele>197</ele>
        <time>2016-08-23T12:25:52Z</time>
      </trkpt>
      <trkpt lat="45.87126" lon="4.72318">
        <ele>196</ele>
        <time>2016-08-23T12:25:53Z</time>
      </trkpt>
      <trkpt lat="45.87129" lon="4.72323">
        <ele>196</ele>
        <time>2016-08-23T12:25:54Z</time>
      </trkpt>
      <trkpt lat="45.87133" lon="4.72329">
        <ele>196</ele>
        <time>2016-08-23T12:25:55Z</time>
      </trkpt>
      <trkpt lat="45.87136" lon="4.72335">
        <ele>197</ele>
        <time>2016-08-23T12:25:56Z</time>
      </trkpt>
      <trkpt lat="45.87139" lon="4.72342">
        <ele>197</ele>
        <time>2016-08-23T12:25:57Z</time>
      </trkpt>
      <trkpt lat="45.87142" lon="4.72349">
        <ele>197</ele>
        <time>2016-08-23T12:25:58Z</time>
      </trkpt>
      <trkpt lat="45.87146" lon="4.72356">
        <ele>197</ele>
        <time>2016-08-23T12:25:59Z</time>
      </trkpt>
      <trkpt lat="45.87148" lon="4.72363">
        <ele>197</ele>
        <time>2016-08-23T12:26:00Z</time>
      </trkpt>
      <trkpt lat="45.87151" lon="4.72369">
        <ele>197</ele>
        <time>2016-08-23T12:26:01Z</time>
      </trkpt>
      <trkpt lat="45.87154" lon="4.72376">
        <ele>197</ele>
        <time>2016-08-23T12:26:02Z</time>
      </trkpt>
      <trkpt lat="45.87156" lon="4.72383">
        <ele>197</ele>
        <time>2016-08-23T12:26:03Z</time>
      </trkpt>
      <trkpt lat="45.87159" lon="4.72389">
        <ele>197</ele>
        <time>2016-08-23T12:26:04Z</time>
      </trkpt>
      <trkpt lat="45.87161" lon="4.72396">
        <ele>197</ele>
        <time>2016-08-23T12:26:05Z</time>
      </trkpt>
      <trkpt lat="45.87164" lon="4.72402">
        <ele>196</ele>
        <time>2016-08-23T12:26:06Z</time>
      </trkpt>
      <trkpt lat="45.87167" lon="4.72408">
        <ele>192</ele>
        <time>2016-08-23T12:26:07Z</time>
      </trkpt>
      <trkpt lat="45.8717" lon="4.72414">
        <ele>193</ele>
        <time>2016-08-23T12:26:08Z</time>
      </trkpt>
      <trkpt lat="45.87174" lon="4.7242">
        <ele>194</ele>
        <time>2016-08-23T12:26:09Z</time>
      </trkpt>
      <trkpt lat="45.8718" lon="4.72429">
        <ele>194</ele>
        <time>2016-08-23T12:26:11Z</time>
      </trkpt>
      <trkpt lat="45.87182" lon="4.72434">
        <ele>194</ele>
        <time>2016-08-23T12:26:12Z</time>
      </trkpt>
      <trkpt lat="45.87186" lon="4.72438">
        <ele>194</ele>
        <time>2016-08-23T12:26:13Z</time>
      </trkpt>
      <trkpt lat="45.87189" lon="4.72442">
        <ele>194</ele>
        <time>2016-08-23T12:26:14Z</time>
      </trkpt>
      <trkpt lat="45.87193" lon="4.72448">
        <ele>194</ele>
        <time>2016-08-23T12:26:15Z</time>
      </trkpt>
      <trkpt lat="45.87198" lon="4.72453">
        <ele>194</ele>
        <time>2016-08-23T12:26:16Z</time>
      </trkpt>
      <trkpt lat="45.87202" lon="4.72459">
        <ele>194</ele>
        <time>2016-08-23T12:26:17Z</time>
      </trkpt>
      <trkpt lat="45.87207" lon="4.72465">
        <ele>194</ele>
        <time>2016-08-23T12:26:18Z</time>
      </trkpt>
      <trkpt lat="45.87211" lon="4.72472">
        <ele>194</ele>
        <time>2016-08-23T12:26:19Z</time>
      </trkpt>
      <trkpt lat="45.87215" lon="4.72478">
        <ele>194</ele>
        <time>2016-08-23T12:26:20Z</time>
      </trkpt>
      <trkpt lat="45.87219" lon="4.72484">
        <ele>194</ele>
        <time>2016-08-23T12:26:21Z</time>
      </trkpt>
      <trkpt lat="45.87224" lon="4.72489">
        <ele>194</ele>
        <time>2016-08-23T12:26:22Z</time>
      </trkpt>
      <trkpt lat="45.87228" lon="4.72495">
        <ele>194</ele>
        <time>2016-08-23T12:26:23Z</time>
      </trkpt>
      <trkpt lat="45.87232" lon="4.72501">
        <ele>196</ele>
        <time>2016-08-23T12:26:24Z</time>
      </trkpt>
      <trkpt lat="45.87236" lon="4.72506">
        <ele>196</ele>
        <time>2016-08-23T12:26:25Z</time>
      </trkpt>
      <trkpt lat="45.87238" lon="4.72513">
        <ele>196</ele>
        <time>2016-08-23T12:26:26Z</time>
      </trkpt>
      <trkpt lat="45.87242" lon="4.72519">
        <ele>196</ele>
        <time>2016-08-23T12:26:27Z</time>
      </trkpt>
      <trkpt lat="45.87245" lon="4.72525">
        <ele>196</ele>
        <time>2016-08-23T12:26:28Z</time>
      </trkpt>
      <trkpt lat="45.87247" lon="4.72531">
        <ele>197</ele>
        <time>2016-08-23T12:26:29Z</time>
      </trkpt>
      <trkpt lat="45.87249" lon="4.72536">
        <ele>197</ele>
        <time>2016-08-23T12:26:30Z</time>
      </trkpt>
      <trkpt lat="45.87251" lon="4.72541">
        <ele>194</ele>
        <time>2016-08-23T12:26:31Z</time>
      </trkpt>
      <trkpt lat="45.87254" lon="4.72547">
        <ele>194</ele>
        <time>2016-08-23T12:26:32Z</time>
      </trkpt>
      <trkpt lat="45.87258" lon="4.72552">
        <ele>194</ele>
        <time>2016-08-23T12:26:33Z</time>
      </trkpt>
      <trkpt lat="45.87261" lon="4.72557">
        <ele>194</ele>
        <time>2016-08-23T12:26:34Z</time>
      </trkpt>
      <trkpt lat="45.87263" lon="4.72563">
        <ele>194</ele>
        <time>2016-08-23T12:26:35Z</time>
      </trkpt>
      <trkpt lat="45.87266" lon="4.72569">
        <ele>195</ele>
        <time>2016-08-23T12:26:36Z</time>
      </trkpt>
      <trkpt lat="45.8727" lon="4.72575">
        <ele>195</ele>
        <time>2016-08-23T12:26:37Z</time>
      </trkpt>
      <trkpt lat="45.87274" lon="4.72579">
        <ele>194</ele>
        <time>2016-08-23T12:26:38Z</time>
      </trkpt>
      <trkpt lat="45.87278" lon="4.72585">
        <ele>195</ele>
        <time>2016-08-23T12:26:39Z</time>
      </trkpt>
      <trkpt lat="45.87281" lon="4.7259">
        <ele>195</ele>
        <time>2016-08-23T12:26:40Z</time>
      </trkpt>
      <trkpt lat="45.87285" lon="4.72595">
        <ele>194</ele>
        <time>2016-08-23T12:26:41Z</time>
      </trkpt>
      <trkpt lat="45.87288" lon="4.72601">
        <ele>194</ele>
        <time>2016-08-23T12:26:42Z</time>
      </trkpt>
      <trkpt lat="45.87292" lon="4.72606">
        <ele>194</ele>
        <time>2016-08-23T12:26:43Z</time>
      </trkpt>
      <trkpt lat="45.87296" lon="4.72612">
        <ele>194</ele>
        <time>2016-08-23T12:26:44Z</time>
      </trkpt>
      <trkpt lat="45.873" lon="4.72618">
        <ele>194</ele>
        <time>2016-08-23T12:26:45Z</time>
      </trkpt>
      <trkpt lat="45.87305" lon="4.72623">
        <ele>193</ele>
        <time>2016-08-23T12:26:46Z</time>
      </trkpt>
      <trkpt lat="45.87309" lon="4.72629">
        <ele>193</ele>
        <time>2016-08-23T12:26:47Z</time>
      </trkpt>
      <trkpt lat="45.87314" lon="4.72636">
        <ele>193</ele>
        <time>2016-08-23T12:26:48Z</time>
      </trkpt>
      <trkpt lat="45.87318" lon="4.72642">
        <ele>193</ele>
        <time>2016-08-23T12:26:49Z</time>
      </trkpt>
      <trkpt lat="45.87323" lon="4.72648">
        <ele>192</ele>
        <time>2016-08-23T12:26:50Z</time>
      </trkpt>
      <trkpt lat="45.87328" lon="4.72654">
        <ele>192</ele>
        <time>2016-08-23T12:26:51Z</time>
      </trkpt>
      <trkpt lat="45.87333" lon="4.72661">
        <ele>191</ele>
        <time>2016-08-23T12:26:52Z</time>
      </trkpt>
      <trkpt lat="45.87338" lon="4.72666">
        <ele>190</ele>
        <time>2016-08-23T12:26:53Z</time>
      </trkpt>
      <trkpt lat="45.87342" lon="4.72671">
        <ele>190</ele>
        <time>2016-08-23T12:26:54Z</time>
      </trkpt>
      <trkpt lat="45.87347" lon="4.72674">
        <ele>190</ele>
        <time>2016-08-23T12:26:55Z</time>
      </trkpt>
      <trkpt lat="45.87351" lon="4.72678">
        <ele>190</ele>
        <time>2016-08-23T12:26:56Z</time>
      </trkpt>
      <trkpt lat="45.87359" lon="4.72684">
        <ele>190</ele>
        <time>2016-08-23T12:26:58Z</time>
      </trkpt>
      <trkpt lat="45.87363" lon="4.72687">
        <ele>190</ele>
        <time>2016-08-23T12:26:59Z</time>
      </trkpt>
      <trkpt lat="45.87367" lon="4.7269">
        <ele>190</ele>
        <time>2016-08-23T12:27:00Z</time>
      </trkpt>
      <trkpt lat="45.8737" lon="4.72695">
        <ele>190</ele>
        <time>2016-08-23T12:27:01Z</time>
      </trkpt>
      <trkpt lat="45.87374" lon="4.727">
        <ele>190</ele>
        <time>2016-08-23T12:27:02Z</time>
      </trkpt>
      <trkpt lat="45.87378" lon="4.72706">
        <ele>190</ele>
        <time>2016-08-23T12:27:03Z</time>
      </trkpt>
      <trkpt lat="45.87381" lon="4.72712">
        <ele>190</ele>
        <time>2016-08-23T12:27:04Z</time>
      </trkpt>
      <trkpt lat="45.87384" lon="4.72719">
        <ele>190</ele>
        <time>2016-08-23T12:27:05Z</time>
      </trkpt>
      <trkpt lat="45.87387" lon="4.72725">
        <ele>190</ele>
        <time>2016-08-23T12:27:06Z</time>
      </trkpt>
      <trkpt lat="45.87389" lon="4.72732">
        <ele>190</ele>
        <time>2016-08-23T12:27:07Z</time>
      </trkpt>
      <trkpt lat="45.87392" lon="4.72738">
        <ele>190</ele>
        <time>2016-08-23T12:27:08Z</time>
      </trkpt>
      <trkpt lat="45.87395" lon="4.72743">
        <ele>189</ele>
        <time>2016-08-23T12:27:09Z</time>
      </trkpt>
      <trkpt lat="45.87398" lon="4.72748">
        <ele>189</ele>
        <time>2016-08-23T12:27:10Z</time>
      </trkpt>
      <trkpt lat="45.87402" lon="4.72753">
        <ele>189</ele>
        <time>2016-08-23T12:27:11Z</time>
      </trkpt>
      <trkpt lat="45.87405" lon="4.72759">
        <ele>189</ele>
        <time>2016-08-23T12:27:12Z</time>
      </trkpt>
      <trkpt lat="45.87408" lon="4.72765">
        <ele>189</ele>
        <time>2016-08-23T12:27:13Z</time>
      </trkpt>
      <trkpt lat="45.87411" lon="4.72771">
        <ele>189</ele>
        <time>2016-08-23T12:27:14Z</time>
      </trkpt>
      <trkpt lat="45.87413" lon="4.72777">
        <ele>189</ele>
        <time>2016-08-23T12:27:15Z</time>
      </trkpt>
      <trkpt lat="45.87416" lon="4.72783">
        <ele>189</ele>
        <time>2016-08-23T12:27:16Z</time>
      </trkpt>
      <trkpt lat="45.8742" lon="4.72788">
        <ele>189</ele>
        <time>2016-08-23T12:27:17Z</time>
      </trkpt>
      <trkpt lat="45.87423" lon="4.72794">
        <ele>189</ele>
        <time>2016-08-23T12:27:18Z</time>
      </trkpt>
      <trkpt lat="45.87426" lon="4.728">
        <ele>189</ele>
        <time>2016-08-23T12:27:19Z</time>
      </trkpt>
      <trkpt lat="45.87429" lon="4.72807">
        <ele>189</ele>
        <time>2016-08-23T12:27:20Z</time>
      </trkpt>
      <trkpt lat="45.87432" lon="4.72813">
        <ele>189</ele>
        <time>2016-08-23T12:27:21Z</time>
      </trkpt>
      <trkpt lat="45.87436" lon="4.72824">
        <ele>189</ele>
        <time>2016-08-23T12:27:23Z</time>
      </trkpt>
      <trkpt lat="45.87439" lon="4.7283">
        <ele>189</ele>
        <time>2016-08-23T12:27:24Z</time>
      </trkpt>
      <trkpt lat="45.87441" lon="4.72836">
        <ele>188</ele>
        <time>2016-08-23T12:27:25Z</time>
      </trkpt>
      <trkpt lat="45.87444" lon="4.72841">
        <ele>188</ele>
        <time>2016-08-23T12:27:26Z</time>
      </trkpt>
      <trkpt lat="45.87446" lon="4.72847">
        <ele>188</ele>
        <time>2016-08-23T12:27:27Z</time>
      </trkpt>
      <trkpt lat="45.87448" lon="4.72853">
        <ele>188</ele>
        <time>2016-08-23T12:27:28Z</time>
      </trkpt>
      <trkpt lat="45.87451" lon="4.72859">
        <ele>188</ele>
        <time>2016-08-23T12:27:29Z</time>
      </trkpt>
      <trkpt lat="45.87454" lon="4.72867">
        <ele>188</ele>
        <time>2016-08-23T12:27:30Z</time>
      </trkpt>
      <trkpt lat="45.87456" lon="4.72873">
        <ele>188</ele>
        <time>2016-08-23T12:27:31Z</time>
      </trkpt>
      <trkpt lat="45.87458" lon="4.7288">
        <ele>188</ele>
        <time>2016-08-23T12:27:32Z</time>
      </trkpt>
      <trkpt lat="45.87462" lon="4.72891">
        <ele>188</ele>
        <time>2016-08-23T12:27:34Z</time>
      </trkpt>
      <trkpt lat="45.87464" lon="4.72896">
        <ele>188</ele>
        <time>2016-08-23T12:27:35Z</time>
      </trkpt>
      <trkpt lat="45.87466" lon="4.72902">
        <ele>188</ele>
        <time>2016-08-23T12:27:36Z</time>
      </trkpt>
      <trkpt lat="45.87467" lon="4.72909">
        <ele>188</ele>
        <time>2016-08-23T12:27:37Z</time>
      </trkpt>
      <trkpt lat="45.87469" lon="4.72915">
        <ele>188</ele>
        <time>2016-08-23T12:27:38Z</time>
      </trkpt>
      <trkpt lat="45.87472" lon="4.72921">
        <ele>188</ele>
        <time>2016-08-23T12:27:39Z</time>
      </trkpt>
      <trkpt lat="45.87476" lon="4.72928">
        <ele>188</ele>
        <time>2016-08-23T12:27:40Z</time>
      </trkpt>
      <trkpt lat="45.8748" lon="4.72934">
        <ele>188</ele>
        <time>2016-08-23T12:27:41Z</time>
      </trkpt>
      <trkpt lat="45.87485" lon="4.72939">
        <ele>188</ele>
        <time>2016-08-23T12:27:42Z</time>
      </trkpt>
      <trkpt lat="45.8749" lon="4.72944">
        <ele>188</ele>
        <time>2016-08-23T12:27:43Z</time>
      </trkpt>
      <trkpt lat="45.87496" lon="4.72948">
        <ele>188</ele>
        <time>2016-08-23T12:27:44Z</time>
      </trkpt>
      <trkpt lat="45.87501" lon="4.72952">
        <ele>187</ele>
        <time>2016-08-23T12:27:45Z</time>
      </trkpt>
      <trkpt lat="45.87506" lon="4.72957">
        <ele>187</ele>
        <time>2016-08-23T12:27:46Z</time>
      </trkpt>
      <trkpt lat="45.8751" lon="4.72962">
        <ele>187</ele>
        <time>2016-08-23T12:27:47Z</time>
      </trkpt>
      <trkpt lat="45.87514" lon="4.72967">
        <ele>187</ele>
        <time>2016-08-23T12:27:48Z</time>
      </trkpt>
      <trkpt lat="45.87517" lon="4.72973">
        <ele>187</ele>
        <time>2016-08-23T12:27:49Z</time>
      </trkpt>
      <trkpt lat="45.87521" lon="4.72979">
        <ele>187</ele>
        <time>2016-08-23T12:27:50Z</time>
      </trkpt>
      <trkpt lat="45.87524" lon="4.72985">
        <ele>187</ele>
        <time>2016-08-23T12:27:51Z</time>
      </trkpt>
      <trkpt lat="45.87528" lon="4.72992">
        <ele>187</ele>
        <time>2016-08-23T12:27:52Z</time>
      </trkpt>
      <trkpt lat="45.87532" lon="4.72999">
        <ele>187</ele>
        <time>2016-08-23T12:27:53Z</time>
      </trkpt>
      <trkpt lat="45.87536" lon="4.73006">
        <ele>187</ele>
        <time>2016-08-23T12:27:54Z</time>
      </trkpt>
      <trkpt lat="45.87539" lon="4.73013">
        <ele>187</ele>
        <time>2016-08-23T12:27:55Z</time>
      </trkpt>
      <trkpt lat="45.87543" lon="4.7302">
        <ele>188</ele>
        <time>2016-08-23T12:27:56Z</time>
      </trkpt>
      <trkpt lat="45.87545" lon="4.73027">
        <ele>188</ele>
        <time>2016-08-23T12:27:57Z</time>
      </trkpt>
      <trkpt lat="45.87548" lon="4.73034">
        <ele>188</ele>
        <time>2016-08-23T12:27:58Z</time>
      </trkpt>
      <trkpt lat="45.87551" lon="4.73041">
        <ele>188</ele>
        <time>2016-08-23T12:27:59Z</time>
      </trkpt>
      <trkpt lat="45.87553" lon="4.73047">
        <ele>188</ele>
        <time>2016-08-23T12:28:00Z</time>
      </trkpt>
      <trkpt lat="45.87556" lon="4.73053">
        <ele>188</ele>
        <time>2016-08-23T12:28:01Z</time>
      </trkpt>
      <trkpt lat="45.87559" lon="4.73059">
        <ele>188</ele>
        <time>2016-08-23T12:28:02Z</time>
      </trkpt>
      <trkpt lat="45.87562" lon="4.73065">
        <ele>188</ele>
        <time>2016-08-23T12:28:03Z</time>
      </trkpt>
      <trkpt lat="45.87565" lon="4.7307">
        <ele>188</ele>
        <time>2016-08-23T12:28:04Z</time>
      </trkpt>
      <trkpt lat="45.87568" lon="4.73076">
        <ele>188</ele>
        <time>2016-08-23T12:28:05Z</time>
      </trkpt>
      <trkpt lat="45.87571" lon="4.73082">
        <ele>188</ele>
        <time>2016-08-23T12:28:06Z</time>
      </trkpt>
      <trkpt lat="45.87574" lon="4.73088">
        <ele>188</ele>
        <time>2016-08-23T12:28:07Z</time>
      </trkpt>
      <trkpt lat="45.87577" lon="4.73094">
        <ele>188</ele>
        <time>2016-08-23T12:28:08Z</time>
      </trkpt>
      <trkpt lat="45.8758" lon="4.731">
        <ele>188</ele>
        <time>2016-08-23T12:28:09Z</time>
      </trkpt>
      <trkpt lat="45.87583" lon="4.73107">
        <ele>188</ele>
        <time>2016-08-23T12:28:10Z</time>
      </trkpt>
      <trkpt lat="45.87587" lon="4.73114">
        <ele>188</ele>
        <time>2016-08-23T12:28:11Z</time>
      </trkpt>
      <trkpt lat="45.8759" lon="4.73121">
        <ele>188</ele>
        <time>2016-08-23T12:28:12Z</time>
      </trkpt>
      <trkpt lat="45.87593" lon="4.73128">
        <ele>187</ele>
        <time>2016-08-23T12:28:13Z</time>
      </trkpt>
      <trkpt lat="45.87597" lon="4.73134">
        <ele>187</ele>
        <time>2016-08-23T12:28:14Z</time>
      </trkpt>
      <trkpt lat="45.87601" lon="4.7314">
        <ele>187</ele>
        <time>2016-08-23T12:28:15Z</time>
      </trkpt>
      <trkpt lat="45.87604" lon="4.73146">
        <ele>187</ele>
        <time>2016-08-23T12:28:16Z</time>
      </trkpt>
      <trkpt lat="45.87607" lon="4.73152">
        <ele>187</ele>
        <time>2016-08-23T12:28:17Z</time>
      </trkpt>
      <trkpt lat="45.8761" lon="4.73158">
        <ele>187</ele>
        <time>2016-08-23T12:28:18Z</time>
      </trkpt>
      <trkpt lat="45.87612" lon="4.73164">
        <ele>187</ele>
        <time>2016-08-23T12:28:19Z</time>
      </trkpt>
      <trkpt lat="45.87615" lon="4.73169">
        <ele>187</ele>
        <time>2016-08-23T12:28:20Z</time>
      </trkpt>
      <trkpt lat="45.87618" lon="4.73174">
        <ele>187</ele>
        <time>2016-08-23T12:28:21Z</time>
      </trkpt>
      <trkpt lat="45.87623" lon="4.73184">
        <ele>188</ele>
        <time>2016-08-23T12:28:23Z</time>
      </trkpt>
      <trkpt lat="45.87626" lon="4.73187">
        <ele>188</ele>
        <time>2016-08-23T12:28:24Z</time>
      </trkpt>
      <trkpt lat="45.87628" lon="4.73193">
        <ele>188</ele>
        <time>2016-08-23T12:28:25Z</time>
      </trkpt>
      <trkpt lat="45.87631" lon="4.73198">
        <ele>188</ele>
        <time>2016-08-23T12:28:26Z</time>
      </trkpt>
      <trkpt lat="45.87636" lon="4.73207">
        <ele>188</ele>
        <time>2016-08-23T12:28:28Z</time>
      </trkpt>
      <trkpt lat="45.87639" lon="4.73212">
        <ele>188</ele>
        <time>2016-08-23T12:28:29Z</time>
      </trkpt>
      <trkpt lat="45.87644" lon="4.73222">
        <ele>188</ele>
        <time>2016-08-23T12:28:31Z</time>
      </trkpt>
      <trkpt lat="45.87646" lon="4.73227">
        <ele>188</ele>
        <time>2016-08-23T12:28:32Z</time>
      </trkpt>
      <trkpt lat="45.87649" lon="4.73232">
        <ele>188</ele>
        <time>2016-08-23T12:28:33Z</time>
      </trkpt>
      <trkpt lat="45.87652" lon="4.73238">
        <ele>188</ele>
        <time>2016-08-23T12:28:34Z</time>
      </trkpt>
      <trkpt lat="45.87657" lon="4.73248">
        <ele>189</ele>
        <time>2016-08-23T12:28:36Z</time>
      </trkpt>
      <trkpt lat="45.87659" lon="4.73253">
        <ele>189</ele>
        <time>2016-08-23T12:28:37Z</time>
      </trkpt>
      <trkpt lat="45.87663" lon="4.73262">
        <ele>189</ele>
        <time>2016-08-23T12:28:39Z</time>
      </trkpt>
      <trkpt lat="45.87665" lon="4.73267">
        <ele>189</ele>
        <time>2016-08-23T12:28:40Z</time>
      </trkpt>
      <trkpt lat="45.87669" lon="4.73277">
        <ele>188</ele>
        <time>2016-08-23T12:28:42Z</time>
      </trkpt>
      <trkpt lat="45.87672" lon="4.73282">
        <ele>188</ele>
        <time>2016-08-23T12:28:43Z</time>
      </trkpt>
      <trkpt lat="45.87674" lon="4.73287">
        <ele>188</ele>
        <time>2016-08-23T12:28:44Z</time>
      </trkpt>
      <trkpt lat="45.87677" lon="4.73292">
        <ele>188</ele>
        <time>2016-08-23T12:28:45Z</time>
      </trkpt>
      <trkpt lat="45.87682" lon="4.73303">
        <ele>188</ele>
        <time>2016-08-23T12:28:47Z</time>
      </trkpt>
      <trkpt lat="45.87684" lon="4.73309">
        <ele>188</ele>
        <time>2016-08-23T12:28:48Z</time>
      </trkpt>
      <trkpt lat="45.87689" lon="4.73319">
        <ele>188</ele>
        <time>2016-08-23T12:28:50Z</time>
      </trkpt>
      <trkpt lat="45.87692" lon="4.73324">
        <ele>188</ele>
        <time>2016-08-23T12:28:51Z</time>
      </trkpt>
      <trkpt lat="45.87694" lon="4.73329">
        <ele>188</ele>
        <time>2016-08-23T12:28:52Z</time>
      </trkpt>
      <trkpt lat="45.87697" lon="4.73335">
        <ele>187</ele>
        <time>2016-08-23T12:28:53Z</time>
      </trkpt>
      <trkpt lat="45.87699" lon="4.73341">
        <ele>187</ele>
        <time>2016-08-23T12:28:54Z</time>
      </trkpt>
      <trkpt lat="45.87702" lon="4.73347">
        <ele>187</ele>
        <time>2016-08-23T12:28:55Z</time>
      </trkpt>
      <trkpt lat="45.87704" lon="4.73352">
        <ele>187</ele>
        <time>2016-08-23T12:28:56Z</time>
      </trkpt>
      <trkpt lat="45.87707" lon="4.73357">
        <ele>187</ele>
        <time>2016-08-23T12:28:57Z</time>
      </trkpt>
      <trkpt lat="45.87709" lon="4.73363">
        <ele>187</ele>
        <time>2016-08-23T12:28:58Z</time>
      </trkpt>
      <trkpt lat="45.87712" lon="4.73369">
        <ele>187</ele>
        <time>2016-08-23T12:28:59Z</time>
      </trkpt>
      <trkpt lat="45.87716" lon="4.73379">
        <ele>187</ele>
        <time>2016-08-23T12:29:01Z</time>
      </trkpt>
      <trkpt lat="45.87719" lon="4.73383">
        <ele>188</ele>
        <time>2016-08-23T12:29:02Z</time>
      </trkpt>
      <trkpt lat="45.87723" lon="4.73392">
        <ele>188</ele>
        <time>2016-08-23T12:29:04Z</time>
      </trkpt>
      <trkpt lat="45.87725" lon="4.73397">
        <ele>188</ele>
        <time>2016-08-23T12:29:05Z</time>
      </trkpt>
      <trkpt lat="45.8773" lon="4.73407">
        <ele>188</ele>
        <time>2016-08-23T12:29:07Z</time>
      </trkpt>
      <trkpt lat="45.87733" lon="4.73413">
        <ele>188</ele>
        <time>2016-08-23T12:29:08Z</time>
      </trkpt>
      <trkpt lat="45.87736" lon="4.73418">
        <ele>188</ele>
        <time>2016-08-23T12:29:09Z</time>
      </trkpt>
      <trkpt lat="45.87739" lon="4.73423">
        <ele>188</ele>
        <time>2016-08-23T12:29:10Z</time>
      </trkpt>
      <trkpt lat="45.87744" lon="4.73433">
        <ele>188</ele>
        <time>2016-08-23T12:29:12Z</time>
      </trkpt>
      <trkpt lat="45.87746" lon="4.73438">
        <ele>189</ele>
        <time>2016-08-23T12:29:13Z</time>
      </trkpt>
      <trkpt lat="45.8775" lon="4.73448">
        <ele>188</ele>
        <time>2016-08-23T12:29:15Z</time>
      </trkpt>
      <trkpt lat="45.87752" lon="4.73453">
        <ele>188</ele>
        <time>2016-08-23T12:29:16Z</time>
      </trkpt>
      <trkpt lat="45.87757" lon="4.73463">
        <ele>188</ele>
        <time>2016-08-23T12:29:18Z</time>
      </trkpt>
      <trkpt lat="45.87759" lon="4.73468">
        <ele>188</ele>
        <time>2016-08-23T12:29:19Z</time>
      </trkpt>
      <trkpt lat="45.87762" lon="4.73473">
        <ele>188</ele>
        <time>2016-08-23T12:29:20Z</time>
      </trkpt>
      <trkpt lat="45.87765" lon="4.73478">
        <ele>188</ele>
        <time>2016-08-23T12:29:21Z</time>
      </trkpt>
      <trkpt lat="45.87767" lon="4.73483">
        <ele>188</ele>
        <time>2016-08-23T12:29:22Z</time>
      </trkpt>
      <trkpt lat="45.8777" lon="4.73489">
        <ele>189</ele>
        <time>2016-08-23T12:29:23Z</time>
      </trkpt>
      <trkpt lat="45.87772" lon="4.73496">
        <ele>189</ele>
        <time>2016-08-23T12:29:24Z</time>
      </trkpt>
      <trkpt lat="45.87774" lon="4.73502">
        <ele>189</ele>
        <time>2016-08-23T12:29:25Z</time>
      </trkpt>
      <trkpt lat="45.87777" lon="4.73509">
        <ele>189</ele>
        <time>2016-08-23T12:29:26Z</time>
      </trkpt>
      <trkpt lat="45.87779" lon="4.73515">
        <ele>189</ele>
        <time>2016-08-23T12:29:27Z</time>
      </trkpt>
      <trkpt lat="45.87784" lon="4.73525">
        <ele>189</ele>
        <time>2016-08-23T12:29:29Z</time>
      </trkpt>
      <trkpt lat="45.87786" lon="4.7353">
        <ele>189</ele>
        <time>2016-08-23T12:29:30Z</time>
      </trkpt>
      <trkpt lat="45.8779" lon="4.73539">
        <ele>189</ele>
        <time>2016-08-23T12:29:32Z</time>
      </trkpt>
      <trkpt lat="45.87792" lon="4.73544">
        <ele>189</ele>
        <time>2016-08-23T12:29:33Z</time>
      </trkpt>
      <trkpt lat="45.87796" lon="4.73553">
        <ele>189</ele>
        <time>2016-08-23T12:29:35Z</time>
      </trkpt>
      <trkpt lat="45.87798" lon="4.73558">
        <ele>189</ele>
        <time>2016-08-23T12:29:36Z</time>
      </trkpt>
      <trkpt lat="45.87802" lon="4.73566">
        <ele>189</ele>
        <time>2016-08-23T12:29:38Z</time>
      </trkpt>
      <trkpt lat="45.87805" lon="4.7357">
        <ele>189</ele>
        <time>2016-08-23T12:29:39Z</time>
      </trkpt>
      <trkpt lat="45.87809" lon="4.73579">
        <ele>189</ele>
        <time>2016-08-23T12:29:41Z</time>
      </trkpt>
      <trkpt lat="45.87812" lon="4.73583">
        <ele>189</ele>
        <time>2016-08-23T12:29:42Z</time>
      </trkpt>
      <trkpt lat="45.87817" lon="4.73593">
        <ele>190</ele>
        <time>2016-08-23T12:29:44Z</time>
      </trkpt>
      <trkpt lat="45.87819" lon="4.73598">
        <ele>190</ele>
        <time>2016-08-23T12:29:45Z</time>
      </trkpt>
      <trkpt lat="45.87825" lon="4.73608">
        <ele>190</ele>
        <time>2016-08-23T12:29:47Z</time>
      </trkpt>
      <trkpt lat="45.87827" lon="4.73613">
        <ele>190</ele>
        <time>2016-08-23T12:29:48Z</time>
      </trkpt>
      <trkpt lat="45.8783" lon="4.73619">
        <ele>190</ele>
        <time>2016-08-23T12:29:49Z</time>
      </trkpt>
      <trkpt lat="45.87832" lon="4.73625">
        <ele>190</ele>
        <time>2016-08-23T12:29:50Z</time>
      </trkpt>
      <trkpt lat="45.87835" lon="4.73631">
        <ele>191</ele>
        <time>2016-08-23T12:29:51Z</time>
      </trkpt>
      <trkpt lat="45.87838" lon="4.73636">
        <ele>191</ele>
        <time>2016-08-23T12:29:52Z</time>
      </trkpt>
      <trkpt lat="45.87841" lon="4.7364">
        <ele>191</ele>
        <time>2016-08-23T12:29:53Z</time>
      </trkpt>
      <trkpt lat="45.87845" lon="4.73643">
        <ele>191</ele>
        <time>2016-08-23T12:29:54Z</time>
      </trkpt>
      <trkpt lat="45.8785" lon="4.73643">
        <ele>191</ele>
        <time>2016-08-23T12:29:55Z</time>
      </trkpt>
      <trkpt lat="45.87855" lon="4.73642">
        <ele>191</ele>
        <time>2016-08-23T12:29:56Z</time>
      </trkpt>
      <trkpt lat="45.87863" lon="4.73638">
        <ele>191</ele>
        <time>2016-08-23T12:29:58Z</time>
      </trkpt>
      <trkpt lat="45.87867" lon="4.73635">
        <ele>190</ele>
        <time>2016-08-23T12:29:59Z</time>
      </trkpt>
      <trkpt lat="45.87875" lon="4.73632">
        <ele>190</ele>
        <time>2016-08-23T12:30:01Z</time>
      </trkpt>
      <trkpt lat="45.87878" lon="4.73631">
        <ele>190</ele>
        <time>2016-08-23T12:30:02Z</time>
      </trkpt>
      <trkpt lat="45.87887" lon="4.7363">
        <ele>190</ele>
        <time>2016-08-23T12:30:04Z</time>
      </trkpt>
      <trkpt lat="45.87891" lon="4.73631">
        <ele>190</ele>
        <time>2016-08-23T12:30:05Z</time>
      </trkpt>
      <trkpt lat="45.87896" lon="4.73632">
        <ele>190</ele>
        <time>2016-08-23T12:30:06Z</time>
      </trkpt>
      <trkpt lat="45.87901" lon="4.73634">
        <ele>190</ele>
        <time>2016-08-23T12:30:07Z</time>
      </trkpt>
      <trkpt lat="45.87905" lon="4.73635">
        <ele>190</ele>
        <time>2016-08-23T12:30:08Z</time>
      </trkpt>
      <trkpt lat="45.8791" lon="4.73637">
        <ele>190</ele>
        <time>2016-08-23T12:30:09Z</time>
      </trkpt>
      <trkpt lat="45.87915" lon="4.73639">
        <ele>190</ele>
        <time>2016-08-23T12:30:10Z</time>
      </trkpt>
      <trkpt lat="45.8792" lon="4.7364">
        <ele>190</ele>
        <time>2016-08-23T12:30:11Z</time>
      </trkpt>
      <trkpt lat="45.87925" lon="4.73642">
        <ele>190</ele>
        <time>2016-08-23T12:30:12Z</time>
      </trkpt>
      <trkpt lat="45.8793" lon="4.73644">
        <ele>190</ele>
        <time>2016-08-23T12:30:13Z</time>
      </trkpt>
      <trkpt lat="45.87935" lon="4.73645">
        <ele>190</ele>
        <time>2016-08-23T12:30:14Z</time>
      </trkpt>
      <trkpt lat="45.8794" lon="4.73647">
        <ele>190</ele>
        <time>2016-08-23T12:30:15Z</time>
      </trkpt>
      <trkpt lat="45.87945" lon="4.73648">
        <ele>190</ele>
        <time>2016-08-23T12:30:16Z</time>
      </trkpt>
      <trkpt lat="45.87951" lon="4.73649">
        <ele>190</ele>
        <time>2016-08-23T12:30:17Z</time>
      </trkpt>
      <trkpt lat="45.87957" lon="4.7365">
        <ele>190</ele>
        <time>2016-08-23T12:30:18Z</time>
      </trkpt>
      <trkpt lat="45.87962" lon="4.73651">
        <ele>190</ele>
        <time>2016-08-23T12:30:19Z</time>
      </trkpt>
      <trkpt lat="45.87967" lon="4.73651">
        <ele>190</ele>
        <time>2016-08-23T12:30:20Z</time>
      </trkpt>
      <trkpt lat="45.87972" lon="4.73652">
        <ele>190</ele>
        <time>2016-08-23T12:30:21Z</time>
      </trkpt>
      <trkpt lat="45.87977" lon="4.73653">
        <ele>190</ele>
        <time>2016-08-23T12:30:22Z</time>
      </trkpt>
      <trkpt lat="45.87981" lon="4.73654">
        <ele>190</ele>
        <time>2016-08-23T12:30:23Z</time>
      </trkpt>
      <trkpt lat="45.87989" lon="4.73657">
        <ele>190</ele>
        <time>2016-08-23T12:30:25Z</time>
      </trkpt>
      <trkpt lat="45.87993" lon="4.73657">
        <ele>190</ele>
        <time>2016-08-23T12:30:26Z</time>
      </trkpt>
      <trkpt lat="45.87998" lon="4.73659">
        <ele>190</ele>
        <time>2016-08-23T12:30:27Z</time>
      </trkpt>
      <trkpt lat="45.88003" lon="4.7366">
        <ele>190</ele>
        <time>2016-08-23T12:30:28Z</time>
      </trkpt>
      <trkpt lat="45.88008" lon="4.73661">
        <ele>190</ele>
        <time>2016-08-23T12:30:29Z</time>
      </trkpt>
      <trkpt lat="45.88013" lon="4.73662">
        <ele>190</ele>
        <time>2016-08-23T12:30:30Z</time>
      </trkpt>
      <trkpt lat="45.88018" lon="4.73664">
        <ele>189</ele>
        <time>2016-08-23T12:30:31Z</time>
      </trkpt>
      <trkpt lat="45.88024" lon="4.73665">
        <ele>189</ele>
        <time>2016-08-23T12:30:32Z</time>
      </trkpt>
      <trkpt lat="45.88029" lon="4.73664">
        <ele>189</ele>
        <time>2016-08-23T12:30:33Z</time>
      </trkpt>
      <trkpt lat="45.88034" lon="4.73662">
        <ele>189</ele>
        <time>2016-08-23T12:30:34Z</time>
      </trkpt>
      <trkpt lat="45.88039" lon="4.73658">
        <ele>189</ele>
        <time>2016-08-23T12:30:35Z</time>
      </trkpt>
      <trkpt lat="45.88044" lon="4.73655">
        <ele>189</ele>
        <time>2016-08-23T12:30:36Z</time>
      </trkpt>
      <trkpt lat="45.88049" lon="4.73651">
        <ele>189</ele>
        <time>2016-08-23T12:30:37Z</time>
      </trkpt>
      <trkpt lat="45.88053" lon="4.73649">
        <ele>189</ele>
        <time>2016-08-23T12:30:38Z</time>
      </trkpt>
      <trkpt lat="45.88057" lon="4.73646">
        <ele>189</ele>
        <time>2016-08-23T12:30:39Z</time>
      </trkpt>
      <trkpt lat="45.88062" lon="4.73644">
        <ele>189</ele>
        <time>2016-08-23T12:30:40Z</time>
      </trkpt>
      <trkpt lat="45.8807" lon="4.73639">
        <ele>189</ele>
        <time>2016-08-23T12:30:42Z</time>
      </trkpt>
      <trkpt lat="45.88074" lon="4.73637">
        <ele>189</ele>
        <time>2016-08-23T12:30:43Z</time>
      </trkpt>
      <trkpt lat="45.88078" lon="4.73634">
        <ele>189</ele>
        <time>2016-08-23T12:30:44Z</time>
      </trkpt>
      <trkpt lat="45.88083" lon="4.73631">
        <ele>189</ele>
        <time>2016-08-23T12:30:45Z</time>
      </trkpt>
      <trkpt lat="45.88087" lon="4.73628">
        <ele>188</ele>
        <time>2016-08-23T12:30:46Z</time>
      </trkpt>
      <trkpt lat="45.88091" lon="4.73624">
        <ele>188</ele>
        <time>2016-08-23T12:30:47Z</time>
      </trkpt>
      <trkpt lat="45.88096" lon="4.73621">
        <ele>188</ele>
        <time>2016-08-23T12:30:48Z</time>
      </trkpt>
      <trkpt lat="45.881" lon="4.73618">
        <ele>188</ele>
        <time>2016-08-23T12:30:49Z</time>
      </trkpt>
      <trkpt lat="45.88105" lon="4.73614">
        <ele>188</ele>
        <time>2016-08-23T12:30:50Z</time>
      </trkpt>
      <trkpt lat="45.88111" lon="4.73611">
        <ele>188</ele>
        <time>2016-08-23T12:30:51Z</time>
      </trkpt>
      <trkpt lat="45.88116" lon="4.73608">
        <ele>188</ele>
        <time>2016-08-23T12:30:52Z</time>
      </trkpt>
      <trkpt lat="45.88121" lon="4.73605">
        <ele>187</ele>
        <time>2016-08-23T12:30:53Z</time>
      </trkpt>
      <trkpt lat="45.88125" lon="4.73602">
        <ele>187</ele>
        <time>2016-08-23T12:30:54Z</time>
      </trkpt>
      <trkpt lat="45.8813" lon="4.73599">
        <ele>187</ele>
        <time>2016-08-23T12:30:55Z</time>
      </trkpt>
      <trkpt lat="45.88135" lon="4.73597">
        <ele>187</ele>
        <time>2016-08-23T12:30:56Z</time>
      </trkpt>
      <trkpt lat="45.8814" lon="4.73594">
        <ele>187</ele>
        <time>2016-08-23T12:30:57Z</time>
      </trkpt>
      <trkpt lat="45.88145" lon="4.73591">
        <ele>187</ele>
        <time>2016-08-23T12:30:58Z</time>
      </trkpt>
      <trkpt lat="45.8815" lon="4.73588">
        <ele>187</ele>
        <time>2016-08-23T12:30:59Z</time>
      </trkpt>
      <trkpt lat="45.88155" lon="4.73585">
        <ele>187</ele>
        <time>2016-08-23T12:31:00Z</time>
      </trkpt>
      <trkpt lat="45.8816" lon="4.73582">
        <ele>186</ele>
        <time>2016-08-23T12:31:01Z</time>
      </trkpt>
      <trkpt lat="45.88165" lon="4.73578">
        <ele>186</ele>
        <time>2016-08-23T12:31:02Z</time>
      </trkpt>
      <trkpt lat="45.8817" lon="4.73574">
        <ele>186</ele>
        <time>2016-08-23T12:31:03Z</time>
      </trkpt>
      <trkpt lat="45.88176" lon="4.73571">
        <ele>186</ele>
        <time>2016-08-23T12:31:04Z</time>
      </trkpt>
      <trkpt lat="45.88181" lon="4.73567">
        <ele>186</ele>
        <time>2016-08-23T12:31:05Z</time>
      </trkpt>
      <trkpt lat="45.88186" lon="4.73563">
        <ele>186</ele>
        <time>2016-08-23T12:31:06Z</time>
      </trkpt>
      <trkpt lat="45.88191" lon="4.7356">
        <ele>186</ele>
        <time>2016-08-23T12:31:07Z</time>
      </trkpt>
      <trkpt lat="45.88197" lon="4.73557">
        <ele>186</ele>
        <time>2016-08-23T12:31:08Z</time>
      </trkpt>
      <trkpt lat="45.88202" lon="4.73554">
        <ele>186</ele>
        <time>2016-08-23T12:31:09Z</time>
      </trkpt>
      <trkpt lat="45.88207" lon="4.7355">
        <ele>186</ele>
        <time>2016-08-23T12:31:10Z</time>
      </trkpt>
      <trkpt lat="45.88211" lon="4.73547">
        <ele>185</ele>
        <time>2016-08-23T12:31:11Z</time>
      </trkpt>
      <trkpt lat="45.88216" lon="4.73544">
        <ele>185</ele>
        <time>2016-08-23T12:31:12Z</time>
      </trkpt>
      <trkpt lat="45.88221" lon="4.73541">
        <ele>185</ele>
        <time>2016-08-23T12:31:13Z</time>
      </trkpt>
      <trkpt lat="45.88225" lon="4.73537">
        <ele>185</ele>
        <time>2016-08-23T12:31:14Z</time>
      </trkpt>
      <trkpt lat="45.8823" lon="4.73534">
        <ele>185</ele>
        <time>2016-08-23T12:31:15Z</time>
      </trkpt>
      <trkpt lat="45.88235" lon="4.7353">
        <ele>185</ele>
        <time>2016-08-23T12:31:16Z</time>
      </trkpt>
      <trkpt lat="45.8824" lon="4.73526">
        <ele>185</ele>
        <time>2016-08-23T12:31:17Z</time>
      </trkpt>
      <trkpt lat="45.88246" lon="4.73522">
        <ele>185</ele>
        <time>2016-08-23T12:31:18Z</time>
      </trkpt>
      <trkpt lat="45.88251" lon="4.73518">
        <ele>185</ele>
        <time>2016-08-23T12:31:19Z</time>
      </trkpt>
      <trkpt lat="45.88257" lon="4.73514">
        <ele>185</ele>
        <time>2016-08-23T12:31:20Z</time>
      </trkpt>
      <trkpt lat="45.88263" lon="4.7351">
        <ele>185</ele>
        <time>2016-08-23T12:31:21Z</time>
      </trkpt>
      <trkpt lat="45.88268" lon="4.73506">
        <ele>185</ele>
        <time>2016-08-23T12:31:22Z</time>
      </trkpt>
      <trkpt lat="45.88274" lon="4.73503">
        <ele>185</ele>
        <time>2016-08-23T12:31:23Z</time>
      </trkpt>
      <trkpt lat="45.88279" lon="4.735">
        <ele>184</ele>
        <time>2016-08-23T12:31:24Z</time>
      </trkpt>
      <trkpt lat="45.88285" lon="4.73496">
        <ele>184</ele>
        <time>2016-08-23T12:31:25Z</time>
      </trkpt>
      <trkpt lat="45.8829" lon="4.73493">
        <ele>184</ele>
        <time>2016-08-23T12:31:26Z</time>
      </trkpt>
      <trkpt lat="45.88295" lon="4.7349">
        <ele>184</ele>
        <time>2016-08-23T12:31:27Z</time>
      </trkpt>
      <trkpt lat="45.883" lon="4.73487">
        <ele>184</ele>
        <time>2016-08-23T12:31:28Z</time>
      </trkpt>
      <trkpt lat="45.88305" lon="4.73484">
        <ele>184</ele>
        <time>2016-08-23T12:31:29Z</time>
      </trkpt>
      <trkpt lat="45.88311" lon="4.73482">
        <ele>184</ele>
        <time>2016-08-23T12:31:30Z</time>
      </trkpt>
      <trkpt lat="45.88317" lon="4.7348">
        <ele>184</ele>
        <time>2016-08-23T12:31:31Z</time>
      </trkpt>
      <trkpt lat="45.88322" lon="4.73478">
        <ele>184</ele>
        <time>2016-08-23T12:31:32Z</time>
      </trkpt>
      <trkpt lat="45.88327" lon="4.73476">
        <ele>184</ele>
        <time>2016-08-23T12:31:33Z</time>
      </trkpt>
      <trkpt lat="45.88332" lon="4.73475">
        <ele>184</ele>
        <time>2016-08-23T12:31:34Z</time>
      </trkpt>
      <trkpt lat="45.88337" lon="4.73474">
        <ele>184</ele>
        <time>2016-08-23T12:31:35Z</time>
      </trkpt>
      <trkpt lat="45.88342" lon="4.73473">
        <ele>184</ele>
        <time>2016-08-23T12:31:36Z</time>
      </trkpt>
      <trkpt lat="45.88348" lon="4.73471">
        <ele>184</ele>
        <time>2016-08-23T12:31:37Z</time>
      </trkpt>
      <trkpt lat="45.88353" lon="4.7347">
        <ele>184</ele>
        <time>2016-08-23T12:31:38Z</time>
      </trkpt>
      <trkpt lat="45.88358" lon="4.73468">
        <ele>184</ele>
        <time>2016-08-23T12:31:39Z</time>
      </trkpt>
      <trkpt lat="45.88364" lon="4.73467">
        <ele>184</ele>
        <time>2016-08-23T12:31:40Z</time>
      </trkpt>
      <trkpt lat="45.8837" lon="4.73465">
        <ele>184</ele>
        <time>2016-08-23T12:31:41Z</time>
      </trkpt>
      <trkpt lat="45.88376" lon="4.73463">
        <ele>184</ele>
        <time>2016-08-23T12:31:42Z</time>
      </trkpt>
      <trkpt lat="45.88382" lon="4.7346">
        <ele>184</ele>
        <time>2016-08-23T12:31:43Z</time>
      </trkpt>
      <trkpt lat="45.88387" lon="4.73458">
        <ele>184</ele>
        <time>2016-08-23T12:31:44Z</time>
      </trkpt>
      <trkpt lat="45.88393" lon="4.73456">
        <ele>184</ele>
        <time>2016-08-23T12:31:45Z</time>
      </trkpt>
      <trkpt lat="45.88398" lon="4.73454">
        <ele>184</ele>
        <time>2016-08-23T12:31:46Z</time>
      </trkpt>
      <trkpt lat="45.88404" lon="4.73453">
        <ele>184</ele>
        <time>2016-08-23T12:31:47Z</time>
      </trkpt>
      <trkpt lat="45.88409" lon="4.73452">
        <ele>184</ele>
        <time>2016-08-23T12:31:48Z</time>
      </trkpt>
      <trkpt lat="45.88415" lon="4.73451">
        <ele>184</ele>
        <time>2016-08-23T12:31:49Z</time>
      </trkpt>
      <trkpt lat="45.8842" lon="4.7345">
        <ele>184</ele>
        <time>2016-08-23T12:31:50Z</time>
      </trkpt>
      <trkpt lat="45.88425" lon="4.73448">
        <ele>184</ele>
        <time>2016-08-23T12:31:51Z</time>
      </trkpt>
      <trkpt lat="45.8843" lon="4.73447">
        <ele>184</ele>
        <time>2016-08-23T12:31:52Z</time>
      </trkpt>
      <trkpt lat="45.88435" lon="4.73445">
        <ele>184</ele>
        <time>2016-08-23T12:31:53Z</time>
      </trkpt>
      <trkpt lat="45.8844" lon="4.73443">
        <ele>184</ele>
        <time>2016-08-23T12:31:54Z</time>
      </trkpt>
      <trkpt lat="45.88444" lon="4.73442">
        <ele>184</ele>
        <time>2016-08-23T12:31:55Z</time>
      </trkpt>
      <trkpt lat="45.88449" lon="4.73441">
        <ele>184</ele>
        <time>2016-08-23T12:31:56Z</time>
      </trkpt>
      <trkpt lat="45.88454" lon="4.7344">
        <ele>184</ele>
        <time>2016-08-23T12:31:57Z</time>
      </trkpt>
      <trkpt lat="45.88459" lon="4.73439">
        <ele>184</ele>
        <time>2016-08-23T12:31:58Z</time>
      </trkpt>
      <trkpt lat="45.88464" lon="4.73437">
        <ele>184</ele>
        <time>2016-08-23T12:31:59Z</time>
      </trkpt>
      <trkpt lat="45.8847" lon="4.73436">
        <ele>184</ele>
        <time>2016-08-23T12:32:00Z</time>
      </trkpt>
      <trkpt lat="45.88476" lon="4.73433">
        <ele>184</ele>
        <time>2016-08-23T12:32:01Z</time>
      </trkpt>
      <trkpt lat="45.88482" lon="4.7343">
        <ele>184</ele>
        <time>2016-08-23T12:32:02Z</time>
      </trkpt>
      <trkpt lat="45.88488" lon="4.73429">
        <ele>184</ele>
        <time>2016-08-23T12:32:03Z</time>
      </trkpt>
      <trkpt lat="45.88494" lon="4.73427">
        <ele>184</ele>
        <time>2016-08-23T12:32:04Z</time>
      </trkpt>
      <trkpt lat="45.88501" lon="4.73425">
        <ele>184</ele>
        <time>2016-08-23T12:32:05Z</time>
      </trkpt>
      <trkpt lat="45.88506" lon="4.73423">
        <ele>184</ele>
        <time>2016-08-23T12:32:06Z</time>
      </trkpt>
      <trkpt lat="45.88512" lon="4.73422">
        <ele>184</ele>
        <time>2016-08-23T12:32:07Z</time>
      </trkpt>
      <trkpt lat="45.88517" lon="4.7342">
        <ele>184</ele>
        <time>2016-08-23T12:32:08Z</time>
      </trkpt>
      <trkpt lat="45.88522" lon="4.73419">
        <ele>184</ele>
        <time>2016-08-23T12:32:09Z</time>
      </trkpt>
      <trkpt lat="45.88528" lon="4.73417">
        <ele>184</ele>
        <time>2016-08-23T12:32:10Z</time>
      </trkpt>
      <trkpt lat="45.88533" lon="4.73416">
        <ele>183</ele>
        <time>2016-08-23T12:32:11Z</time>
      </trkpt>
      <trkpt lat="45.88538" lon="4.73414">
        <ele>183</ele>
        <time>2016-08-23T12:32:12Z</time>
      </trkpt>
      <trkpt lat="45.88543" lon="4.73413">
        <ele>183</ele>
        <time>2016-08-23T12:32:13Z</time>
      </trkpt>
      <trkpt lat="45.88549" lon="4.73412">
        <ele>183</ele>
        <time>2016-08-23T12:32:14Z</time>
      </trkpt>
      <trkpt lat="45.88554" lon="4.7341">
        <ele>183</ele>
        <time>2016-08-23T12:32:15Z</time>
      </trkpt>
      <trkpt lat="45.88559" lon="4.73409">
        <ele>183</ele>
        <time>2016-08-23T12:32:16Z</time>
      </trkpt>
      <trkpt lat="45.88563" lon="4.73407">
        <ele>183</ele>
        <time>2016-08-23T12:32:17Z</time>
      </trkpt>
      <trkpt lat="45.88568" lon="4.73406">
        <ele>183</ele>
        <time>2016-08-23T12:32:18Z</time>
      </trkpt>
      <trkpt lat="45.88573" lon="4.73404">
        <ele>183</ele>
        <time>2016-08-23T12:32:19Z</time>
      </trkpt>
      <trkpt lat="45.88578" lon="4.73403">
        <ele>183</ele>
        <time>2016-08-23T12:32:20Z</time>
      </trkpt>
      <trkpt lat="45.88583" lon="4.73402">
        <ele>183</ele>
        <time>2016-08-23T12:32:21Z</time>
      </trkpt>
      <trkpt lat="45.88587" lon="4.73401">
        <ele>183</ele>
        <time>2016-08-23T12:32:22Z</time>
      </trkpt>
      <trkpt lat="45.88592" lon="4.734">
        <ele>183</ele>
        <time>2016-08-23T12:32:23Z</time>
      </trkpt>
      <trkpt lat="45.88596" lon="4.73398">
        <ele>183</ele>
        <time>2016-08-23T12:32:24Z</time>
      </trkpt>
      <trkpt lat="45.88601" lon="4.73397">
        <ele>183</ele>
        <time>2016-08-23T12:32:25Z</time>
      </trkpt>
      <trkpt lat="45.88607" lon="4.73395">
        <ele>183</ele>
        <time>2016-08-23T12:32:26Z</time>
      </trkpt>
      <trkpt lat="45.88612" lon="4.73393">
        <ele>183</ele>
        <time>2016-08-23T12:32:27Z</time>
      </trkpt>
      <trkpt lat="45.88618" lon="4.73391">
        <ele>183</ele>
        <time>2016-08-23T12:32:28Z</time>
      </trkpt>
      <trkpt lat="45.88623" lon="4.7339">
        <ele>183</ele>
        <time>2016-08-23T12:32:29Z</time>
      </trkpt>
      <trkpt lat="45.88628" lon="4.73389">
        <ele>183</ele>
        <time>2016-08-23T12:32:30Z</time>
      </trkpt>
      <trkpt lat="45.88634" lon="4.73389">
        <ele>184</ele>
        <time>2016-08-23T12:32:31Z</time>
      </trkpt>
      <trkpt lat="45.88639" lon="4.73391">
        <ele>184</ele>
        <time>2016-08-23T12:32:32Z</time>
      </trkpt>
      <trkpt lat="45.88644" lon="4.73393">
        <ele>184</ele>
        <time>2016-08-23T12:32:33Z</time>
      </trkpt>
      <trkpt lat="45.88648" lon="4.73398">
        <ele>184</ele>
        <time>2016-08-23T12:32:34Z</time>
      </trkpt>
      <trkpt lat="45.88652" lon="4.73403">
        <ele>184</ele>
        <time>2016-08-23T12:32:35Z</time>
      </trkpt>
      <trkpt lat="45.88654" lon="4.7341">
        <ele>184</ele>
        <time>2016-08-23T12:32:36Z</time>
      </trkpt>
      <trkpt lat="45.88656" lon="4.73417">
        <ele>184</ele>
        <time>2016-08-23T12:32:37Z</time>
      </trkpt>
      <trkpt lat="45.88658" lon="4.73423">
        <ele>184</ele>
        <time>2016-08-23T12:32:38Z</time>
      </trkpt>
      <trkpt lat="45.88659" lon="4.7343">
        <ele>184</ele>
        <time>2016-08-23T12:32:39Z</time>
      </trkpt>
      <trkpt lat="45.8866" lon="4.73437">
        <ele>184</ele>
        <time>2016-08-23T12:32:40Z</time>
      </trkpt>
      <trkpt lat="45.8866" lon="4.73445">
        <ele>184</ele>
        <time>2016-08-23T12:32:41Z</time>
      </trkpt>
      <trkpt lat="45.88661" lon="4.73451">
        <ele>184</ele>
        <time>2016-08-23T12:32:42Z</time>
      </trkpt>
      <trkpt lat="45.88662" lon="4.73459">
        <ele>184</ele>
        <time>2016-08-23T12:32:43Z</time>
      </trkpt>
      <trkpt lat="45.88664" lon="4.73466">
        <ele>184</ele>
        <time>2016-08-23T12:32:44Z</time>
      </trkpt>
      <trkpt lat="45.88664" lon="4.73473">
        <ele>184</ele>
        <time>2016-08-23T12:32:45Z</time>
      </trkpt>
      <trkpt lat="45.88664" lon="4.7348">
        <ele>184</ele>
        <time>2016-08-23T12:32:46Z</time>
      </trkpt>
      <trkpt lat="45.88663" lon="4.73486">
        <ele>184</ele>
        <time>2016-08-23T12:32:47Z</time>
      </trkpt>
      <trkpt lat="45.88659" lon="4.73498">
        <ele>184</ele>
        <time>2016-08-23T12:32:49Z</time>
      </trkpt>
      <trkpt lat="45.88657" lon="4.73504">
        <ele>184</ele>
        <time>2016-08-23T12:32:50Z</time>
      </trkpt>
      <trkpt lat="45.88655" lon="4.7351">
        <ele>184</ele>
        <time>2016-08-23T12:32:51Z</time>
      </trkpt>
      <trkpt lat="45.88654" lon="4.73516">
        <ele>185</ele>
        <time>2016-08-23T12:32:52Z</time>
      </trkpt>
      <trkpt lat="45.88651" lon="4.73528">
        <ele>185</ele>
        <time>2016-08-23T12:32:54Z</time>
      </trkpt>
      <trkpt lat="45.8865" lon="4.73534">
        <ele>185</ele>
        <time>2016-08-23T12:32:55Z</time>
      </trkpt>
      <trkpt lat="45.88649" lon="4.73545">
        <ele>185</ele>
        <time>2016-08-23T12:32:57Z</time>
      </trkpt>
      <trkpt lat="45.88648" lon="4.73551">
        <ele>185</ele>
        <time>2016-08-23T12:32:58Z</time>
      </trkpt>
      <trkpt lat="45.88647" lon="4.73563">
        <ele>185</ele>
        <time>2016-08-23T12:33:00Z</time>
      </trkpt>
      <trkpt lat="45.88647" lon="4.73568">
        <ele>185</ele>
        <time>2016-08-23T12:33:01Z</time>
      </trkpt>
      <trkpt lat="45.88647" lon="4.7358">
        <ele>185</ele>
        <time>2016-08-23T12:33:03Z</time>
      </trkpt>
      <trkpt lat="45.88647" lon="4.73586">
        <ele>185</ele>
        <time>2016-08-23T12:33:04Z</time>
      </trkpt>
      <trkpt lat="45.88646" lon="4.73597">
        <ele>185</ele>
        <time>2016-08-23T12:33:06Z</time>
      </trkpt>
      <trkpt lat="45.88646" lon="4.73602">
        <ele>186</ele>
        <time>2016-08-23T12:33:07Z</time>
      </trkpt>
      <trkpt lat="45.88646" lon="4.73614">
        <ele>186</ele>
        <time>2016-08-23T12:33:09Z</time>
      </trkpt>
      <trkpt lat="45.88646" lon="4.73619">
        <ele>186</ele>
        <time>2016-08-23T12:33:10Z</time>
      </trkpt>
      <trkpt lat="45.88646" lon="4.73629">
        <ele>186</ele>
        <time>2016-08-23T12:33:12Z</time>
      </trkpt>
      <trkpt lat="45.88647" lon="4.73634">
        <ele>186</ele>
        <time>2016-08-23T12:33:13Z</time>
      </trkpt>
      <trkpt lat="45.88646" lon="4.73645">
        <ele>186</ele>
        <time>2016-08-23T12:33:15Z</time>
      </trkpt>
      <trkpt lat="45.88646" lon="4.7365">
        <ele>186</ele>
        <time>2016-08-23T12:33:16Z</time>
      </trkpt>
      <trkpt lat="45.88646" lon="4.7366">
        <ele>186</ele>
        <time>2016-08-23T12:33:18Z</time>
      </trkpt>
      <trkpt lat="45.88646" lon="4.73665">
        <ele>186</ele>
        <time>2016-08-23T12:33:19Z</time>
      </trkpt>
      <trkpt lat="45.88646" lon="4.73676">
        <ele>186</ele>
        <time>2016-08-23T12:33:21Z</time>
      </trkpt>
      <trkpt lat="45.88645" lon="4.73681">
        <ele>186</ele>
        <time>2016-08-23T12:33:22Z</time>
      </trkpt>
      <trkpt lat="45.88645" lon="4.7369">
        <ele>186</ele>
        <time>2016-08-23T12:33:24Z</time>
      </trkpt>
      <trkpt lat="45.88644" lon="4.73696">
        <ele>186</ele>
        <time>2016-08-23T12:33:25Z</time>
      </trkpt>
      <trkpt lat="45.88645" lon="4.73706">
        <ele>186</ele>
        <time>2016-08-23T12:33:27Z</time>
      </trkpt>
      <trkpt lat="45.88645" lon="4.73712">
        <ele>186</ele>
        <time>2016-08-23T12:33:28Z</time>
      </trkpt>
      <trkpt lat="45.88645" lon="4.73719">
        <ele>186</ele>
        <time>2016-08-23T12:33:29Z</time>
      </trkpt>
      <trkpt lat="45.88645" lon="4.73726">
        <ele>186</ele>
        <time>2016-08-23T12:33:30Z</time>
      </trkpt>
      <trkpt lat="45.88645" lon="4.73733">
        <ele>186</ele>
        <time>2016-08-23T12:33:31Z</time>
      </trkpt>
      <trkpt lat="45.88645" lon="4.7374">
        <ele>187</ele>
        <time>2016-08-23T12:33:32Z</time>
      </trkpt>
      <trkpt lat="45.88644" lon="4.73748">
        <ele>187</ele>
        <time>2016-08-23T12:33:33Z</time>
      </trkpt>
      <trkpt lat="45.88644" lon="4.73757">
        <ele>187</ele>
        <time>2016-08-23T12:33:34Z</time>
      </trkpt>
      <trkpt lat="45.88644" lon="4.73765">
        <ele>187</ele>
        <time>2016-08-23T12:33:35Z</time>
      </trkpt>
      <trkpt lat="45.88644" lon="4.73774">
        <ele>187</ele>
        <time>2016-08-23T12:33:36Z</time>
      </trkpt>
      <trkpt lat="45.88644" lon="4.73784">
        <ele>187</ele>
        <time>2016-08-23T12:33:37Z</time>
      </trkpt>
      <trkpt lat="45.88644" lon="4.73794">
        <ele>187</ele>
        <time>2016-08-23T12:33:38Z</time>
      </trkpt>
      <trkpt lat="45.88644" lon="4.73804">
        <ele>187</ele>
        <time>2016-08-23T12:33:39Z</time>
      </trkpt>
      <trkpt lat="45.88643" lon="4.73814">
        <ele>187</ele>
        <time>2016-08-23T12:33:40Z</time>
      </trkpt>
      <trkpt lat="45.88643" lon="4.73825">
        <ele>187</ele>
        <time>2016-08-23T12:33:41Z</time>
      </trkpt>
      <trkpt lat="45.88643" lon="4.73835">
        <ele>187</ele>
        <time>2016-08-23T12:33:42Z</time>
      </trkpt>
      <trkpt lat="45.88642" lon="4.73845">
        <ele>187</ele>
        <time>2016-08-23T12:33:43Z</time>
      </trkpt>
      <trkpt lat="45.88642" lon="4.73855">
        <ele>187</ele>
        <time>2016-08-23T12:33:44Z</time>
      </trkpt>
      <trkpt lat="45.88642" lon="4.73865">
        <ele>187</ele>
        <time>2016-08-23T12:33:45Z</time>
      </trkpt>
      <trkpt lat="45.88642" lon="4.73875">
        <ele>187</ele>
        <time>2016-08-23T12:33:46Z</time>
      </trkpt>
      <trkpt lat="45.88642" lon="4.73885">
        <ele>187</ele>
        <time>2016-08-23T12:33:47Z</time>
      </trkpt>
      <trkpt lat="45.88642" lon="4.73895">
        <ele>187</ele>
        <time>2016-08-23T12:33:48Z</time>
      </trkpt>
      <trkpt lat="45.88642" lon="4.73905">
        <ele>187</ele>
        <time>2016-08-23T12:33:49Z</time>
      </trkpt>
      <trkpt lat="45.88642" lon="4.73915">
        <ele>187</ele>
        <time>2016-08-23T12:33:50Z</time>
      </trkpt>
      <trkpt lat="45.88642" lon="4.73924">
        <ele>187</ele>
        <time>2016-08-23T12:33:51Z</time>
      </trkpt>
      <trkpt lat="45.88642" lon="4.73933">
        <ele>187</ele>
        <time>2016-08-23T12:33:52Z</time>
      </trkpt>
      <trkpt lat="45.88643" lon="4.73942">
        <ele>187</ele>
        <time>2016-08-23T12:33:53Z</time>
      </trkpt>
      <trkpt lat="45.88643" lon="4.7395">
        <ele>187</ele>
        <time>2016-08-23T12:33:54Z</time>
      </trkpt>
      <trkpt lat="45.88644" lon="4.73958">
        <ele>187</ele>
        <time>2016-08-23T12:33:55Z</time>
      </trkpt>
      <trkpt lat="45.88645" lon="4.73966">
        <ele>187</ele>
        <time>2016-08-23T12:33:56Z</time>
      </trkpt>
      <trkpt lat="45.88646" lon="4.73973">
        <ele>187</ele>
        <time>2016-08-23T12:33:57Z</time>
      </trkpt>
      <trkpt lat="45.88647" lon="4.7398">
        <ele>187</ele>
        <time>2016-08-23T12:33:58Z</time>
      </trkpt>
      <trkpt lat="45.88649" lon="4.73988">
        <ele>186</ele>
        <time>2016-08-23T12:33:59Z</time>
      </trkpt>
      <trkpt lat="45.8865" lon="4.73996">
        <ele>186</ele>
        <time>2016-08-23T12:34:00Z</time>
      </trkpt>
      <trkpt lat="45.88651" lon="4.74004">
        <ele>187</ele>
        <time>2016-08-23T12:34:01Z</time>
      </trkpt>
      <trkpt lat="45.88652" lon="4.74011">
        <ele>187</ele>
        <time>2016-08-23T12:34:02Z</time>
      </trkpt>
      <trkpt lat="45.88653" lon="4.74018">
        <ele>187</ele>
        <time>2016-08-23T12:34:03Z</time>
      </trkpt>
      <trkpt lat="45.88653" lon="4.74025">
        <ele>187</ele>
        <time>2016-08-23T12:34:04Z</time>
      </trkpt>
      <trkpt lat="45.88654" lon="4.74031">
        <ele>187</ele>
        <time>2016-08-23T12:34:05Z</time>
      </trkpt>
      <trkpt lat="45.88655" lon="4.74038">
        <ele>187</ele>
        <time>2016-08-23T12:34:06Z</time>
      </trkpt>
      <trkpt lat="45.88656" lon="4.74045">
        <ele>187</ele>
        <time>2016-08-23T12:34:07Z</time>
      </trkpt>
      <trkpt lat="45.88656" lon="4.74053">
        <ele>187</ele>
        <time>2016-08-23T12:34:08Z</time>
      </trkpt>
      <trkpt lat="45.88658" lon="4.74061">
        <ele>187</ele>
        <time>2016-08-23T12:34:09Z</time>
      </trkpt>
      <trkpt lat="45.88661" lon="4.74068">
        <ele>188</ele>
        <time>2016-08-23T12:34:10Z</time>
      </trkpt>
      <trkpt lat="45.88662" lon="4.74076">
        <ele>188</ele>
        <time>2016-08-23T12:34:11Z</time>
      </trkpt>
      <trkpt lat="45.88664" lon="4.74083">
        <ele>188</ele>
        <time>2016-08-23T12:34:12Z</time>
      </trkpt>
      <trkpt lat="45.88666" lon="4.74089">
        <ele>188</ele>
        <time>2016-08-23T12:34:13Z</time>
      </trkpt>
      <trkpt lat="45.88668" lon="4.74095">
        <ele>188</ele>
        <time>2016-08-23T12:34:14Z</time>
      </trkpt>
      <trkpt lat="45.88671" lon="4.74101">
        <ele>188</ele>
        <time>2016-08-23T12:34:15Z</time>
      </trkpt>
      <trkpt lat="45.88673" lon="4.74107">
        <ele>188</ele>
        <time>2016-08-23T12:34:16Z</time>
      </trkpt>
      <trkpt lat="45.88675" lon="4.74112">
        <ele>188</ele>
        <time>2016-08-23T12:34:17Z</time>
      </trkpt>
      <trkpt lat="45.88679" lon="4.74116">
        <ele>188</ele>
        <time>2016-08-23T12:34:18Z</time>
      </trkpt>
      <trkpt lat="45.88684" lon="4.74119">
        <ele>188</ele>
        <time>2016-08-23T12:34:19Z</time>
      </trkpt>
      <trkpt lat="45.88688" lon="4.7412">
        <ele>188</ele>
        <time>2016-08-23T12:34:20Z</time>
      </trkpt>
      <trkpt lat="45.88693" lon="4.7412">
        <ele>188</ele>
        <time>2016-08-23T12:34:21Z</time>
      </trkpt>
      <trkpt lat="45.88697" lon="4.74121">
        <ele>188</ele>
        <time>2016-08-23T12:34:22Z</time>
      </trkpt>
      <trkpt lat="45.88702" lon="4.74122">
        <ele>188</ele>
        <time>2016-08-23T12:34:23Z</time>
      </trkpt>
      <trkpt lat="45.88706" lon="4.74125">
        <ele>188</ele>
        <time>2016-08-23T12:34:24Z</time>
      </trkpt>
      <trkpt lat="45.8871" lon="4.74127">
        <ele>188</ele>
        <time>2016-08-23T12:34:25Z</time>
      </trkpt>
      <trkpt lat="45.88715" lon="4.7413">
        <ele>188</ele>
        <time>2016-08-23T12:34:26Z</time>
      </trkpt>
      <trkpt lat="45.88719" lon="4.74133">
        <ele>188</ele>
        <time>2016-08-23T12:34:27Z</time>
      </trkpt>
      <trkpt lat="45.88723" lon="4.74137">
        <ele>188</ele>
        <time>2016-08-23T12:34:28Z</time>
      </trkpt>
      <trkpt lat="45.8873" lon="4.74143">
        <ele>188</ele>
        <time>2016-08-23T12:34:30Z</time>
      </trkpt>
      <trkpt lat="45.88734" lon="4.74146">
        <ele>188</ele>
        <time>2016-08-23T12:34:31Z</time>
      </trkpt>
      <trkpt lat="45.88738" lon="4.74149">
        <ele>188</ele>
        <time>2016-08-23T12:34:32Z</time>
      </trkpt>
      <trkpt lat="45.88743" lon="4.74153">
        <ele>188</ele>
        <time>2016-08-23T12:34:33Z</time>
      </trkpt>
      <trkpt lat="45.88747" lon="4.74156">
        <ele>188</ele>
        <time>2016-08-23T12:34:34Z</time>
      </trkpt>
      <trkpt lat="45.88752" lon="4.74159">
        <ele>188</ele>
        <time>2016-08-23T12:34:35Z</time>
      </trkpt>
      <trkpt lat="45.88757" lon="4.74163">
        <ele>188</ele>
        <time>2016-08-23T12:34:36Z</time>
      </trkpt>
      <trkpt lat="45.88761" lon="4.74167">
        <ele>188</ele>
        <time>2016-08-23T12:34:37Z</time>
      </trkpt>
      <trkpt lat="45.88766" lon="4.74171">
        <ele>188</ele>
        <time>2016-08-23T12:34:38Z</time>
      </trkpt>
      <trkpt lat="45.88769" lon="4.74175">
        <ele>188</ele>
        <time>2016-08-23T12:34:39Z</time>
      </trkpt>
      <trkpt lat="45.88777" lon="4.7418">
        <ele>188</ele>
        <time>2016-08-23T12:34:41Z</time>
      </trkpt>
      <trkpt lat="45.88781" lon="4.74183">
        <ele>188</ele>
        <time>2016-08-23T12:34:42Z</time>
      </trkpt>
      <trkpt lat="45.88786" lon="4.74186">
        <ele>188</ele>
        <time>2016-08-23T12:34:43Z</time>
      </trkpt>
      <trkpt lat="45.8879" lon="4.74188">
        <ele>188</ele>
        <time>2016-08-23T12:34:44Z</time>
      </trkpt>
      <trkpt lat="45.88795" lon="4.7419">
        <ele>188</ele>
        <time>2016-08-23T12:34:45Z</time>
      </trkpt>
      <trkpt lat="45.888" lon="4.74193">
        <ele>188</ele>
        <time>2016-08-23T12:34:46Z</time>
      </trkpt>
      <trkpt lat="45.88805" lon="4.74195">
        <ele>187</ele>
        <time>2016-08-23T12:34:47Z</time>
      </trkpt>
      <trkpt lat="45.8881" lon="4.74197">
        <ele>187</ele>
        <time>2016-08-23T12:34:48Z</time>
      </trkpt>
      <trkpt lat="45.88815" lon="4.74199">
        <ele>187</ele>
        <time>2016-08-23T12:34:49Z</time>
      </trkpt>
      <trkpt lat="45.8882" lon="4.74202">
        <ele>187</ele>
        <time>2016-08-23T12:34:50Z</time>
      </trkpt>
      <trkpt lat="45.88824" lon="4.74204">
        <ele>187</ele>
        <time>2016-08-23T12:34:51Z</time>
      </trkpt>
      <trkpt lat="45.88829" lon="4.74207">
        <ele>187</ele>
        <time>2016-08-23T12:34:52Z</time>
      </trkpt>
      <trkpt lat="45.88833" lon="4.74209">
        <ele>187</ele>
        <time>2016-08-23T12:34:53Z</time>
      </trkpt>
      <trkpt lat="45.88837" lon="4.74212">
        <ele>187</ele>
        <time>2016-08-23T12:34:54Z</time>
      </trkpt>
      <trkpt lat="45.88845" lon="4.74216">
        <ele>187</ele>
        <time>2016-08-23T12:34:56Z</time>
      </trkpt>
      <trkpt lat="45.88849" lon="4.74218">
        <ele>187</ele>
        <time>2016-08-23T12:34:57Z</time>
      </trkpt>
      <trkpt lat="45.88854" lon="4.74221">
        <ele>187</ele>
        <time>2016-08-23T12:34:58Z</time>
      </trkpt>
      <trkpt lat="45.88858" lon="4.74224">
        <ele>187</ele>
        <time>2016-08-23T12:34:59Z</time>
      </trkpt>
      <trkpt lat="45.88863" lon="4.74227">
        <ele>187</ele>
        <time>2016-08-23T12:35:00Z</time>
      </trkpt>
      <trkpt lat="45.88867" lon="4.7423">
        <ele>187</ele>
        <time>2016-08-23T12:35:01Z</time>
      </trkpt>
      <trkpt lat="45.88875" lon="4.74237">
        <ele>187</ele>
        <time>2016-08-23T12:35:03Z</time>
      </trkpt>
      <trkpt lat="45.88879" lon="4.7424">
        <ele>187</ele>
        <time>2016-08-23T12:35:04Z</time>
      </trkpt>
      <trkpt lat="45.88883" lon="4.74243">
        <ele>187</ele>
        <time>2016-08-23T12:35:05Z</time>
      </trkpt>
      <trkpt lat="45.88887" lon="4.74246">
        <ele>187</ele>
        <time>2016-08-23T12:35:06Z</time>
      </trkpt>
      <trkpt lat="45.88893" lon="4.74249">
        <ele>187</ele>
        <time>2016-08-23T12:35:07Z</time>
      </trkpt>
      <trkpt lat="45.88897" lon="4.74251">
        <ele>187</ele>
        <time>2016-08-23T12:35:08Z</time>
      </trkpt>
      <trkpt lat="45.88902" lon="4.74253">
        <ele>187</ele>
        <time>2016-08-23T12:35:09Z</time>
      </trkpt>
      <trkpt lat="45.88905" lon="4.74256">
        <ele>187</ele>
        <time>2016-08-23T12:35:10Z</time>
      </trkpt>
      <trkpt lat="45.88913" lon="4.74261">
        <ele>187</ele>
        <time>2016-08-23T12:35:12Z</time>
      </trkpt>
      <trkpt lat="45.88916" lon="4.74263">
        <ele>187</ele>
        <time>2016-08-23T12:35:13Z</time>
      </trkpt>
      <trkpt lat="45.88922" lon="4.74267">
        <ele>187</ele>
        <time>2016-08-23T12:35:15Z</time>
      </trkpt>
      <trkpt lat="45.88925" lon="4.74268">
        <ele>187</ele>
        <time>2016-08-23T12:35:16Z</time>
      </trkpt>
      <trkpt lat="45.88933" lon="4.74273">
        <ele>187</ele>
        <time>2016-08-23T12:35:18Z</time>
      </trkpt>
      <trkpt lat="45.88937" lon="4.74276">
        <ele>187</ele>
        <time>2016-08-23T12:35:19Z</time>
      </trkpt>
      <trkpt lat="45.88942" lon="4.74279">
        <ele>187</ele>
        <time>2016-08-23T12:35:20Z</time>
      </trkpt>
      <trkpt lat="45.88947" lon="4.7428">
        <ele>187</ele>
        <time>2016-08-23T12:35:21Z</time>
      </trkpt>
      <trkpt lat="45.88951" lon="4.74282">
        <ele>187</ele>
        <time>2016-08-23T12:35:22Z</time>
      </trkpt>
      <trkpt lat="45.88956" lon="4.74283">
        <ele>187</ele>
        <time>2016-08-23T12:35:23Z</time>
      </trkpt>
      <trkpt lat="45.88963" lon="4.74285">
        <ele>187</ele>
        <time>2016-08-23T12:35:25Z</time>
      </trkpt>
      <trkpt lat="45.88966" lon="4.74287">
        <ele>187</ele>
        <time>2016-08-23T12:35:26Z</time>
      </trkpt>
      <trkpt lat="45.88971" lon="4.7429">
        <ele>187</ele>
        <time>2016-08-23T12:35:50Z</time>
      </trkpt>
      <trkpt lat="45.88971" lon="4.7429">
        <ele>187</ele>
        <time>2016-08-23T12:35:51Z</time>
      </trkpt>
      <trkpt lat="45.88974" lon="4.74291">
        <ele>187</ele>
        <time>2016-08-23T12:35:52Z</time>
      </trkpt>
      <trkpt lat="45.88976" lon="4.74292">
        <ele>187</ele>
        <time>2016-08-23T12:35:53Z</time>
      </trkpt>
      <trkpt lat="45.88984" lon="4.74289">
        <ele>187</ele>
        <time>2016-08-23T12:35:55Z</time>
      </trkpt>
      <trkpt lat="45.88988" lon="4.74288">
        <ele>187</ele>
        <time>2016-08-23T12:35:56Z</time>
      </trkpt>
      <trkpt lat="45.88993" lon="4.74288">
        <ele>187</ele>
        <time>2016-08-23T12:35:57Z</time>
      </trkpt>
      <trkpt lat="45.88998" lon="4.74288">
        <ele>187</ele>
        <time>2016-08-23T12:35:58Z</time>
      </trkpt>
      <trkpt lat="45.89003" lon="4.74286">
        <ele>187</ele>
        <time>2016-08-23T12:35:59Z</time>
      </trkpt>
      <trkpt lat="45.89008" lon="4.74284">
        <ele>187</ele>
        <time>2016-08-23T12:36:00Z</time>
      </trkpt>
      <trkpt lat="45.89013" lon="4.74283">
        <ele>187</ele>
        <time>2016-08-23T12:36:01Z</time>
      </trkpt>
      <trkpt lat="45.89019" lon="4.74282">
        <ele>187</ele>
        <time>2016-08-23T12:36:02Z</time>
      </trkpt>
      <trkpt lat="45.89024" lon="4.74282">
        <ele>187</ele>
        <time>2016-08-23T12:36:03Z</time>
      </trkpt>
      <trkpt lat="45.89029" lon="4.74282">
        <ele>187</ele>
        <time>2016-08-23T12:36:04Z</time>
      </trkpt>
      <trkpt lat="45.89034" lon="4.7428">
        <ele>187</ele>
        <time>2016-08-23T12:36:05Z</time>
      </trkpt>
      <trkpt lat="45.89039" lon="4.74279">
        <ele>187</ele>
        <time>2016-08-23T12:36:06Z</time>
      </trkpt>
      <trkpt lat="45.89045" lon="4.74278">
        <ele>187</ele>
        <time>2016-08-23T12:36:07Z</time>
      </trkpt>
      <trkpt lat="45.89049" lon="4.74277">
        <ele>187</ele>
        <time>2016-08-23T12:36:08Z</time>
      </trkpt>
      <trkpt lat="45.89054" lon="4.74275">
        <ele>187</ele>
        <time>2016-08-23T12:36:09Z</time>
      </trkpt>
      <trkpt lat="45.89058" lon="4.74273">
        <ele>187</ele>
        <time>2016-08-23T12:36:10Z</time>
      </trkpt>
      <trkpt lat="45.89063" lon="4.74271">
        <ele>187</ele>
        <time>2016-08-23T12:36:11Z</time>
      </trkpt>
      <trkpt lat="45.89068" lon="4.74269">
        <ele>186</ele>
        <time>2016-08-23T12:36:12Z</time>
      </trkpt>
      <trkpt lat="45.89073" lon="4.74268">
        <ele>186</ele>
        <time>2016-08-23T12:36:13Z</time>
      </trkpt>
      <trkpt lat="45.89078" lon="4.74266">
        <ele>186</ele>
        <time>2016-08-23T12:36:14Z</time>
      </trkpt>
      <trkpt lat="45.89085" lon="4.74265">
        <ele>186</ele>
        <time>2016-08-23T12:36:15Z</time>
      </trkpt>
      <trkpt lat="45.8909" lon="4.74263">
        <ele>186</ele>
        <time>2016-08-23T12:36:16Z</time>
      </trkpt>
      <trkpt lat="45.89095" lon="4.74261">
        <ele>186</ele>
        <time>2016-08-23T12:36:17Z</time>
      </trkpt>
      <trkpt lat="45.89101" lon="4.74259">
        <ele>187</ele>
        <time>2016-08-23T12:36:18Z</time>
      </trkpt>
      <trkpt lat="45.89106" lon="4.74257">
        <ele>187</ele>
        <time>2016-08-23T12:36:19Z</time>
      </trkpt>
      <trkpt lat="45.89112" lon="4.74254">
        <ele>187</ele>
        <time>2016-08-23T12:36:20Z</time>
      </trkpt>
      <trkpt lat="45.89118" lon="4.74252">
        <ele>187</ele>
        <time>2016-08-23T12:36:21Z</time>
      </trkpt>
      <trkpt lat="45.89124" lon="4.7425">
        <ele>186</ele>
        <time>2016-08-23T12:36:22Z</time>
      </trkpt>
      <trkpt lat="45.8913" lon="4.74248">
        <ele>186</ele>
        <time>2016-08-23T12:36:23Z</time>
      </trkpt>
      <trkpt lat="45.89136" lon="4.74244">
        <ele>186</ele>
        <time>2016-08-23T12:36:24Z</time>
      </trkpt>
      <trkpt lat="45.89143" lon="4.74246">
        <ele>186</ele>
        <time>2016-08-23T12:36:25Z</time>
      </trkpt>
      <trkpt lat="45.89149" lon="4.74244">
        <ele>186</ele>
        <time>2016-08-23T12:36:26Z</time>
      </trkpt>
      <trkpt lat="45.89154" lon="4.74242">
        <ele>186</ele>
        <time>2016-08-23T12:36:27Z</time>
      </trkpt>
      <trkpt lat="45.8916" lon="4.7424">
        <ele>186</ele>
        <time>2016-08-23T12:36:28Z</time>
      </trkpt>
      <trkpt lat="45.89165" lon="4.74237">
        <ele>186</ele>
        <time>2016-08-23T12:36:29Z</time>
      </trkpt>
      <trkpt lat="45.8917" lon="4.74235">
        <ele>187</ele>
        <time>2016-08-23T12:36:30Z</time>
      </trkpt>
      <trkpt lat="45.89176" lon="4.74233">
        <ele>186</ele>
        <time>2016-08-23T12:36:31Z</time>
      </trkpt>
      <trkpt lat="45.89182" lon="4.74231">
        <ele>186</ele>
        <time>2016-08-23T12:36:32Z</time>
      </trkpt>
      <trkpt lat="45.89187" lon="4.74228">
        <ele>186</ele>
        <time>2016-08-23T12:36:33Z</time>
      </trkpt>
      <trkpt lat="45.89193" lon="4.74226">
        <ele>186</ele>
        <time>2016-08-23T12:36:34Z</time>
      </trkpt>
      <trkpt lat="45.89199" lon="4.74223">
        <ele>186</ele>
        <time>2016-08-23T12:36:35Z</time>
      </trkpt>
      <trkpt lat="45.89205" lon="4.7422">
        <ele>186</ele>
        <time>2016-08-23T12:36:36Z</time>
      </trkpt>
      <trkpt lat="45.89211" lon="4.74217">
        <ele>186</ele>
        <time>2016-08-23T12:36:37Z</time>
      </trkpt>
      <trkpt lat="45.89217" lon="4.74214">
        <ele>186</ele>
        <time>2016-08-23T12:36:38Z</time>
      </trkpt>
      <trkpt lat="45.89223" lon="4.74211">
        <ele>186</ele>
        <time>2016-08-23T12:36:39Z</time>
      </trkpt>
      <trkpt lat="45.89228" lon="4.74209">
        <ele>186</ele>
        <time>2016-08-23T12:36:40Z</time>
      </trkpt>
      <trkpt lat="45.89233" lon="4.74207">
        <ele>186</ele>
        <time>2016-08-23T12:36:41Z</time>
      </trkpt>
      <trkpt lat="45.89239" lon="4.74205">
        <ele>186</ele>
        <time>2016-08-23T12:36:42Z</time>
      </trkpt>
      <trkpt lat="45.89244" lon="4.74203">
        <ele>186</ele>
        <time>2016-08-23T12:36:43Z</time>
      </trkpt>
      <trkpt lat="45.89249" lon="4.74202">
        <ele>186</ele>
        <time>2016-08-23T12:36:44Z</time>
      </trkpt>
      <trkpt lat="45.89255" lon="4.74199">
        <ele>186</ele>
        <time>2016-08-23T12:36:45Z</time>
      </trkpt>
      <trkpt lat="45.8926" lon="4.74197">
        <ele>186</ele>
        <time>2016-08-23T12:36:46Z</time>
      </trkpt>
      <trkpt lat="45.89266" lon="4.74195">
        <ele>186</ele>
        <time>2016-08-23T12:36:47Z</time>
      </trkpt>
      <trkpt lat="45.89271" lon="4.74192">
        <ele>186</ele>
        <time>2016-08-23T12:36:48Z</time>
      </trkpt>
      <trkpt lat="45.89277" lon="4.74189">
        <ele>186</ele>
        <time>2016-08-23T12:36:49Z</time>
      </trkpt>
      <trkpt lat="45.89283" lon="4.74186">
        <ele>186</ele>
        <time>2016-08-23T12:36:50Z</time>
      </trkpt>
      <trkpt lat="45.89288" lon="4.74183">
        <ele>186</ele>
        <time>2016-08-23T12:36:51Z</time>
      </trkpt>
      <trkpt lat="45.89294" lon="4.74181">
        <ele>186</ele>
        <time>2016-08-23T12:36:52Z</time>
      </trkpt>
      <trkpt lat="45.893" lon="4.74178">
        <ele>186</ele>
        <time>2016-08-23T12:36:53Z</time>
      </trkpt>
      <trkpt lat="45.89305" lon="4.74176">
        <ele>186</ele>
        <time>2016-08-23T12:36:54Z</time>
      </trkpt>
      <trkpt lat="45.8931" lon="4.74174">
        <ele>186</ele>
        <time>2016-08-23T12:36:55Z</time>
      </trkpt>
      <trkpt lat="45.89316" lon="4.74173">
        <ele>186</ele>
        <time>2016-08-23T12:36:56Z</time>
      </trkpt>
      <trkpt lat="45.89321" lon="4.7417">
        <ele>186</ele>
        <time>2016-08-23T12:36:57Z</time>
      </trkpt>
      <trkpt lat="45.89325" lon="4.74168">
        <ele>186</ele>
        <time>2016-08-23T12:36:58Z</time>
      </trkpt>
      <trkpt lat="45.8933" lon="4.74165">
        <ele>186</ele>
        <time>2016-08-23T12:36:59Z</time>
      </trkpt>
      <trkpt lat="45.89336" lon="4.74163">
        <ele>186</ele>
        <time>2016-08-23T12:37:00Z</time>
      </trkpt>
      <trkpt lat="45.89341" lon="4.7416">
        <ele>185</ele>
        <time>2016-08-23T12:37:01Z</time>
      </trkpt>
      <trkpt lat="45.89347" lon="4.74158">
        <ele>185</ele>
        <time>2016-08-23T12:37:02Z</time>
      </trkpt>
      <trkpt lat="45.89353" lon="4.74156">
        <ele>185</ele>
        <time>2016-08-23T12:37:03Z</time>
      </trkpt>
      <trkpt lat="45.89359" lon="4.74153">
        <ele>185</ele>
        <time>2016-08-23T12:37:04Z</time>
      </trkpt>
      <trkpt lat="45.89365" lon="4.74151">
        <ele>184</ele>
        <time>2016-08-23T12:37:05Z</time>
      </trkpt>
      <trkpt lat="45.89371" lon="4.74148">
        <ele>184</ele>
        <time>2016-08-23T12:37:06Z</time>
      </trkpt>
      <trkpt lat="45.89376" lon="4.74146">
        <ele>184</ele>
        <time>2016-08-23T12:37:07Z</time>
      </trkpt>
      <trkpt lat="45.89382" lon="4.74144">
        <ele>184</ele>
        <time>2016-08-23T12:37:08Z</time>
      </trkpt>
      <trkpt lat="45.89388" lon="4.74141">
        <ele>184</ele>
        <time>2016-08-23T12:37:09Z</time>
      </trkpt>
      <trkpt lat="45.89394" lon="4.74139">
        <ele>184</ele>
        <time>2016-08-23T12:37:10Z</time>
      </trkpt>
      <trkpt lat="45.89399" lon="4.74137">
        <ele>184</ele>
        <time>2016-08-23T12:37:11Z</time>
      </trkpt>
      <trkpt lat="45.89405" lon="4.74134">
        <ele>184</ele>
        <time>2016-08-23T12:37:12Z</time>
      </trkpt>
      <trkpt lat="45.8941" lon="4.74132">
        <ele>184</ele>
        <time>2016-08-23T12:37:13Z</time>
      </trkpt>
      <trkpt lat="45.89416" lon="4.74129">
        <ele>184</ele>
        <time>2016-08-23T12:37:14Z</time>
      </trkpt>
      <trkpt lat="45.89421" lon="4.74127">
        <ele>183</ele>
        <time>2016-08-23T12:37:15Z</time>
      </trkpt>
      <trkpt lat="45.89427" lon="4.74125">
        <ele>183</ele>
        <time>2016-08-23T12:37:16Z</time>
      </trkpt>
      <trkpt lat="45.89432" lon="4.74123">
        <ele>183</ele>
        <time>2016-08-23T12:37:17Z</time>
      </trkpt>
      <trkpt lat="45.89437" lon="4.74121">
        <ele>183</ele>
        <time>2016-08-23T12:37:18Z</time>
      </trkpt>
      <trkpt lat="45.89442" lon="4.74119">
        <ele>183</ele>
        <time>2016-08-23T12:37:19Z</time>
      </trkpt>
      <trkpt lat="45.89447" lon="4.74118">
        <ele>183</ele>
        <time>2016-08-23T12:37:20Z</time>
      </trkpt>
      <trkpt lat="45.89453" lon="4.74116">
        <ele>183</ele>
        <time>2016-08-23T12:37:21Z</time>
      </trkpt>
      <trkpt lat="45.89458" lon="4.74113">
        <ele>183</ele>
        <time>2016-08-23T12:37:22Z</time>
      </trkpt>
      <trkpt lat="45.89465" lon="4.7411">
        <ele>182</ele>
        <time>2016-08-23T12:37:23Z</time>
      </trkpt>
      <trkpt lat="45.89471" lon="4.74107">
        <ele>182</ele>
        <time>2016-08-23T12:37:24Z</time>
      </trkpt>
      <trkpt lat="45.89477" lon="4.74105">
        <ele>182</ele>
        <time>2016-08-23T12:37:25Z</time>
      </trkpt>
      <trkpt lat="45.89483" lon="4.74103">
        <ele>182</ele>
        <time>2016-08-23T12:37:26Z</time>
      </trkpt>
      <trkpt lat="45.8949" lon="4.74099">
        <ele>182</ele>
        <time>2016-08-23T12:37:27Z</time>
      </trkpt>
      <trkpt lat="45.89496" lon="4.74096">
        <ele>182</ele>
        <time>2016-08-23T12:37:28Z</time>
      </trkpt>
      <trkpt lat="45.89502" lon="4.74094">
        <ele>181</ele>
        <time>2016-08-23T12:37:29Z</time>
      </trkpt>
      <trkpt lat="45.89507" lon="4.74092">
        <ele>181</ele>
        <time>2016-08-23T12:37:30Z</time>
      </trkpt>
      <trkpt lat="45.89513" lon="4.74089">
        <ele>182</ele>
        <time>2016-08-23T12:37:31Z</time>
      </trkpt>
      <trkpt lat="45.89519" lon="4.74087">
        <ele>182</ele>
        <time>2016-08-23T12:37:32Z</time>
      </trkpt>
      <trkpt lat="45.89525" lon="4.74084">
        <ele>182</ele>
        <time>2016-08-23T12:37:33Z</time>
      </trkpt>
      <trkpt lat="45.89531" lon="4.74082">
        <ele>181</ele>
        <time>2016-08-23T12:37:34Z</time>
      </trkpt>
      <trkpt lat="45.89536" lon="4.74079">
        <ele>181</ele>
        <time>2016-08-23T12:37:35Z</time>
      </trkpt>
      <trkpt lat="45.89542" lon="4.74076">
        <ele>181</ele>
        <time>2016-08-23T12:37:36Z</time>
      </trkpt>
      <trkpt lat="45.89548" lon="4.74073">
        <ele>181</ele>
        <time>2016-08-23T12:37:37Z</time>
      </trkpt>
      <trkpt lat="45.89555" lon="4.7407">
        <ele>181</ele>
        <time>2016-08-23T12:37:38Z</time>
      </trkpt>
      <trkpt lat="45.89561" lon="4.74067">
        <ele>181</ele>
        <time>2016-08-23T12:37:39Z</time>
      </trkpt>
      <trkpt lat="45.89567" lon="4.74064">
        <ele>181</ele>
        <time>2016-08-23T12:37:40Z</time>
      </trkpt>
      <trkpt lat="45.89574" lon="4.74062">
        <ele>181</ele>
        <time>2016-08-23T12:37:41Z</time>
      </trkpt>
      <trkpt lat="45.8958" lon="4.74058">
        <ele>181</ele>
        <time>2016-08-23T12:37:42Z</time>
      </trkpt>
      <trkpt lat="45.89586" lon="4.74056">
        <ele>180</ele>
        <time>2016-08-23T12:37:43Z</time>
      </trkpt>
      <trkpt lat="45.89592" lon="4.74053">
        <ele>180</ele>
        <time>2016-08-23T12:37:44Z</time>
      </trkpt>
      <trkpt lat="45.89598" lon="4.7405">
        <ele>180</ele>
        <time>2016-08-23T12:37:45Z</time>
      </trkpt>
      <trkpt lat="45.89604" lon="4.74048">
        <ele>180</ele>
        <time>2016-08-23T12:37:46Z</time>
      </trkpt>
      <trkpt lat="45.89611" lon="4.74046">
        <ele>180</ele>
        <time>2016-08-23T12:37:47Z</time>
      </trkpt>
      <trkpt lat="45.89617" lon="4.74043">
        <ele>180</ele>
        <time>2016-08-23T12:37:48Z</time>
      </trkpt>
      <trkpt lat="45.89623" lon="4.7404">
        <ele>180</ele>
        <time>2016-08-23T12:37:49Z</time>
      </trkpt>
      <trkpt lat="45.8963" lon="4.74038">
        <ele>180</ele>
        <time>2016-08-23T12:37:50Z</time>
      </trkpt>
      <trkpt lat="45.89637" lon="4.74035">
        <ele>180</ele>
        <time>2016-08-23T12:37:51Z</time>
      </trkpt>
      <trkpt lat="45.89643" lon="4.74033">
        <ele>180</ele>
        <time>2016-08-23T12:37:52Z</time>
      </trkpt>
      <trkpt lat="45.89649" lon="4.7403">
        <ele>180</ele>
        <time>2016-08-23T12:37:53Z</time>
      </trkpt>
      <trkpt lat="45.89656" lon="4.74028">
        <ele>180</ele>
        <time>2016-08-23T12:37:54Z</time>
      </trkpt>
      <trkpt lat="45.89662" lon="4.74026">
        <ele>180</ele>
        <time>2016-08-23T12:37:55Z</time>
      </trkpt>
      <trkpt lat="45.89667" lon="4.74023">
        <ele>179</ele>
        <time>2016-08-23T12:37:56Z</time>
      </trkpt>
      <trkpt lat="45.89673" lon="4.7402">
        <ele>179</ele>
        <time>2016-08-23T12:37:57Z</time>
      </trkpt>
      <trkpt lat="45.89679" lon="4.74017">
        <ele>179</ele>
        <time>2016-08-23T12:37:58Z</time>
      </trkpt>
      <trkpt lat="45.89685" lon="4.74014">
        <ele>179</ele>
        <time>2016-08-23T12:37:59Z</time>
      </trkpt>
      <trkpt lat="45.89691" lon="4.74012">
        <ele>179</ele>
        <time>2016-08-23T12:38:00Z</time>
      </trkpt>
      <trkpt lat="45.89697" lon="4.74009">
        <ele>179</ele>
        <time>2016-08-23T12:38:01Z</time>
      </trkpt>
      <trkpt lat="45.89703" lon="4.74006">
        <ele>179</ele>
        <time>2016-08-23T12:38:02Z</time>
      </trkpt>
      <trkpt lat="45.89709" lon="4.74005">
        <ele>179</ele>
        <time>2016-08-23T12:38:03Z</time>
      </trkpt>
      <trkpt lat="45.89715" lon="4.74003">
        <ele>179</ele>
        <time>2016-08-23T12:38:04Z</time>
      </trkpt>
      <trkpt lat="45.89721" lon="4.74001">
        <ele>179</ele>
        <time>2016-08-23T12:38:05Z</time>
      </trkpt>
      <trkpt lat="45.89726" lon="4.73999">
        <ele>178</ele>
        <time>2016-08-23T12:38:06Z</time>
      </trkpt>
      <trkpt lat="45.89732" lon="4.73997">
        <ele>178</ele>
        <time>2016-08-23T12:38:07Z</time>
      </trkpt>
      <trkpt lat="45.89737" lon="4.73995">
        <ele>178</ele>
        <time>2016-08-23T12:38:08Z</time>
      </trkpt>
      <trkpt lat="45.89743" lon="4.73993">
        <ele>178</ele>
        <time>2016-08-23T12:38:09Z</time>
      </trkpt>
      <trkpt lat="45.89748" lon="4.7399">
        <ele>178</ele>
        <time>2016-08-23T12:38:10Z</time>
      </trkpt>
      <trkpt lat="45.89754" lon="4.73988">
        <ele>178</ele>
        <time>2016-08-23T12:38:11Z</time>
      </trkpt>
      <trkpt lat="45.8976" lon="4.73985">
        <ele>178</ele>
        <time>2016-08-23T12:38:12Z</time>
      </trkpt>
      <trkpt lat="45.89767" lon="4.73982">
        <ele>178</ele>
        <time>2016-08-23T12:38:13Z</time>
      </trkpt>
      <trkpt lat="45.89773" lon="4.73979">
        <ele>179</ele>
        <time>2016-08-23T12:38:14Z</time>
      </trkpt>
      <trkpt lat="45.89779" lon="4.73976">
        <ele>179</ele>
        <time>2016-08-23T12:38:15Z</time>
      </trkpt>
      <trkpt lat="45.89786" lon="4.73974">
        <ele>179</ele>
        <time>2016-08-23T12:38:16Z</time>
      </trkpt>
      <trkpt lat="45.89792" lon="4.73971">
        <ele>179</ele>
        <time>2016-08-23T12:38:17Z</time>
      </trkpt>
      <trkpt lat="45.89798" lon="4.73969">
        <ele>179</ele>
        <time>2016-08-23T12:38:18Z</time>
      </trkpt>
      <trkpt lat="45.89803" lon="4.73967">
        <ele>179</ele>
        <time>2016-08-23T12:38:19Z</time>
      </trkpt>
      <trkpt lat="45.89808" lon="4.73964">
        <ele>179</ele>
        <time>2016-08-23T12:38:20Z</time>
      </trkpt>
      <trkpt lat="45.89814" lon="4.73963">
        <ele>179</ele>
        <time>2016-08-23T12:38:21Z</time>
      </trkpt>
      <trkpt lat="45.89819" lon="4.73961">
        <ele>179</ele>
        <time>2016-08-23T12:38:22Z</time>
      </trkpt>
      <trkpt lat="45.89825" lon="4.73958">
        <ele>179</ele>
        <time>2016-08-23T12:38:23Z</time>
      </trkpt>
      <trkpt lat="45.8983" lon="4.73956">
        <ele>179</ele>
        <time>2016-08-23T12:38:24Z</time>
      </trkpt>
      <trkpt lat="45.89836" lon="4.73954">
        <ele>179</ele>
        <time>2016-08-23T12:38:25Z</time>
      </trkpt>
      <trkpt lat="45.89843" lon="4.73951">
        <ele>179</ele>
        <time>2016-08-23T12:38:26Z</time>
      </trkpt>
      <trkpt lat="45.89849" lon="4.73949">
        <ele>179</ele>
        <time>2016-08-23T12:38:27Z</time>
      </trkpt>
      <trkpt lat="45.89856" lon="4.73946">
        <ele>179</ele>
        <time>2016-08-23T12:38:28Z</time>
      </trkpt>
      <trkpt lat="45.89863" lon="4.73943">
        <ele>179</ele>
        <time>2016-08-23T12:38:29Z</time>
      </trkpt>
      <trkpt lat="45.8987" lon="4.7394">
        <ele>179</ele>
        <time>2016-08-23T12:38:30Z</time>
      </trkpt>
      <trkpt lat="45.89877" lon="4.73936">
        <ele>179</ele>
        <time>2016-08-23T12:38:31Z</time>
      </trkpt>
      <trkpt lat="45.89883" lon="4.73933">
        <ele>179</ele>
        <time>2016-08-23T12:38:32Z</time>
      </trkpt>
      <trkpt lat="45.89889" lon="4.7393">
        <ele>178</ele>
        <time>2016-08-23T12:38:33Z</time>
      </trkpt>
      <trkpt lat="45.89895" lon="4.73928">
        <ele>178</ele>
        <time>2016-08-23T12:38:34Z</time>
      </trkpt>
      <trkpt lat="45.899" lon="4.73926">
        <ele>178</ele>
        <time>2016-08-23T12:38:35Z</time>
      </trkpt>
      <trkpt lat="45.89906" lon="4.73923">
        <ele>178</ele>
        <time>2016-08-23T12:38:36Z</time>
      </trkpt>
      <trkpt lat="45.89911" lon="4.7392">
        <ele>178</ele>
        <time>2016-08-23T12:38:37Z</time>
      </trkpt>
      <trkpt lat="45.89917" lon="4.73918">
        <ele>178</ele>
        <time>2016-08-23T12:38:38Z</time>
      </trkpt>
      <trkpt lat="45.89922" lon="4.73916">
        <ele>178</ele>
        <time>2016-08-23T12:38:39Z</time>
      </trkpt>
      <trkpt lat="45.89928" lon="4.73914">
        <ele>178</ele>
        <time>2016-08-23T12:38:40Z</time>
      </trkpt>
      <trkpt lat="45.89934" lon="4.73911">
        <ele>178</ele>
        <time>2016-08-23T12:38:41Z</time>
      </trkpt>
      <trkpt lat="45.8994" lon="4.73908">
        <ele>178</ele>
        <time>2016-08-23T12:38:42Z</time>
      </trkpt>
      <trkpt lat="45.89946" lon="4.73906">
        <ele>178</ele>
        <time>2016-08-23T12:38:43Z</time>
      </trkpt>
      <trkpt lat="45.89952" lon="4.73903">
        <ele>178</ele>
        <time>2016-08-23T12:38:44Z</time>
      </trkpt>
      <trkpt lat="45.89959" lon="4.73901">
        <ele>178</ele>
        <time>2016-08-23T12:38:45Z</time>
      </trkpt>
      <trkpt lat="45.89965" lon="4.73898">
        <ele>178</ele>
        <time>2016-08-23T12:38:46Z</time>
      </trkpt>
      <trkpt lat="45.8997" lon="4.73896">
        <ele>178</ele>
        <time>2016-08-23T12:38:47Z</time>
      </trkpt>
      <trkpt lat="45.89975" lon="4.73893">
        <ele>178</ele>
        <time>2016-08-23T12:38:48Z</time>
      </trkpt>
      <trkpt lat="45.89981" lon="4.73892">
        <ele>178</ele>
        <time>2016-08-23T12:38:49Z</time>
      </trkpt>
      <trkpt lat="45.89986" lon="4.7389">
        <ele>178</ele>
        <time>2016-08-23T12:38:50Z</time>
      </trkpt>
      <trkpt lat="45.89992" lon="4.73888">
        <ele>178</ele>
        <time>2016-08-23T12:38:51Z</time>
      </trkpt>
      <trkpt lat="45.89997" lon="4.73886">
        <ele>178</ele>
        <time>2016-08-23T12:38:52Z</time>
      </trkpt>
      <trkpt lat="45.90002" lon="4.73884">
        <ele>178</ele>
        <time>2016-08-23T12:38:53Z</time>
      </trkpt>
      <trkpt lat="45.90007" lon="4.73882">
        <ele>178</ele>
        <time>2016-08-23T12:38:54Z</time>
      </trkpt>
      <trkpt lat="45.90013" lon="4.7388">
        <ele>178</ele>
        <time>2016-08-23T12:38:55Z</time>
      </trkpt>
      <trkpt lat="45.90019" lon="4.73877">
        <ele>178</ele>
        <time>2016-08-23T12:38:56Z</time>
      </trkpt>
      <trkpt lat="45.90024" lon="4.73874">
        <ele>178</ele>
        <time>2016-08-23T12:38:57Z</time>
      </trkpt>
      <trkpt lat="45.90029" lon="4.73871">
        <ele>178</ele>
        <time>2016-08-23T12:38:58Z</time>
      </trkpt>
      <trkpt lat="45.90035" lon="4.73868">
        <ele>178</ele>
        <time>2016-08-23T12:38:59Z</time>
      </trkpt>
      <trkpt lat="45.90041" lon="4.73866">
        <ele>178</ele>
        <time>2016-08-23T12:39:00Z</time>
      </trkpt>
      <trkpt lat="45.90046" lon="4.73863">
        <ele>178</ele>
        <time>2016-08-23T12:39:01Z</time>
      </trkpt>
      <trkpt lat="45.90051" lon="4.73861">
        <ele>178</ele>
        <time>2016-08-23T12:39:02Z</time>
      </trkpt>
      <trkpt lat="45.90056" lon="4.73858">
        <ele>178</ele>
        <time>2016-08-23T12:39:03Z</time>
      </trkpt>
      <trkpt lat="45.90061" lon="4.73856">
        <ele>178</ele>
        <time>2016-08-23T12:39:04Z</time>
      </trkpt>
      <trkpt lat="45.90066" lon="4.73853">
        <ele>178</ele>
        <time>2016-08-23T12:39:05Z</time>
      </trkpt>
      <trkpt lat="45.90072" lon="4.7385">
        <ele>178</ele>
        <time>2016-08-23T12:39:06Z</time>
      </trkpt>
      <trkpt lat="45.90077" lon="4.73847">
        <ele>178</ele>
        <time>2016-08-23T12:39:07Z</time>
      </trkpt>
      <trkpt lat="45.90082" lon="4.73845">
        <ele>178</ele>
        <time>2016-08-23T12:39:08Z</time>
      </trkpt>
      <trkpt lat="45.90088" lon="4.73843">
        <ele>178</ele>
        <time>2016-08-23T12:39:09Z</time>
      </trkpt>
      <trkpt lat="45.90093" lon="4.73841">
        <ele>178</ele>
        <time>2016-08-23T12:39:10Z</time>
      </trkpt>
      <trkpt lat="45.90098" lon="4.73838">
        <ele>177</ele>
        <time>2016-08-23T12:39:11Z</time>
      </trkpt>
      <trkpt lat="45.90103" lon="4.73836">
        <ele>177</ele>
        <time>2016-08-23T12:39:12Z</time>
      </trkpt>
      <trkpt lat="45.90108" lon="4.73834">
        <ele>177</ele>
        <time>2016-08-23T12:39:13Z</time>
      </trkpt>
      <trkpt lat="45.90113" lon="4.73832">
        <ele>177</ele>
        <time>2016-08-23T12:39:14Z</time>
      </trkpt>
      <trkpt lat="45.90118" lon="4.7383">
        <ele>177</ele>
        <time>2016-08-23T12:39:15Z</time>
      </trkpt>
      <trkpt lat="45.90123" lon="4.73828">
        <ele>177</ele>
        <time>2016-08-23T12:39:16Z</time>
      </trkpt>
      <trkpt lat="45.90129" lon="4.73825">
        <ele>177</ele>
        <time>2016-08-23T12:39:17Z</time>
      </trkpt>
      <trkpt lat="45.90134" lon="4.73823">
        <ele>177</ele>
        <time>2016-08-23T12:39:18Z</time>
      </trkpt>
      <trkpt lat="45.9014" lon="4.7382">
        <ele>177</ele>
        <time>2016-08-23T12:39:19Z</time>
      </trkpt>
      <trkpt lat="45.90146" lon="4.73818">
        <ele>177</ele>
        <time>2016-08-23T12:39:20Z</time>
      </trkpt>
      <trkpt lat="45.90152" lon="4.73815">
        <ele>176</ele>
        <time>2016-08-23T12:39:21Z</time>
      </trkpt>
      <trkpt lat="45.90158" lon="4.73814">
        <ele>176</ele>
        <time>2016-08-23T12:39:22Z</time>
      </trkpt>
      <trkpt lat="45.90164" lon="4.73811">
        <ele>176</ele>
        <time>2016-08-23T12:39:23Z</time>
      </trkpt>
      <trkpt lat="45.9017" lon="4.73809">
        <ele>177</ele>
        <time>2016-08-23T12:39:24Z</time>
      </trkpt>
      <trkpt lat="45.90175" lon="4.73806">
        <ele>177</ele>
        <time>2016-08-23T12:39:25Z</time>
      </trkpt>
      <trkpt lat="45.90181" lon="4.73804">
        <ele>177</ele>
        <time>2016-08-23T12:39:26Z</time>
      </trkpt>
      <trkpt lat="45.90186" lon="4.73802">
        <ele>177</ele>
        <time>2016-08-23T12:39:27Z</time>
      </trkpt>
      <trkpt lat="45.90191" lon="4.738">
        <ele>177</ele>
        <time>2016-08-23T12:39:28Z</time>
      </trkpt>
      <trkpt lat="45.90196" lon="4.73798">
        <ele>177</ele>
        <time>2016-08-23T12:39:29Z</time>
      </trkpt>
      <trkpt lat="45.90202" lon="4.73795">
        <ele>177</ele>
        <time>2016-08-23T12:39:30Z</time>
      </trkpt>
      <trkpt lat="45.90207" lon="4.73793">
        <ele>177</ele>
        <time>2016-08-23T12:39:31Z</time>
      </trkpt>
      <trkpt lat="45.90213" lon="4.73791">
        <ele>177</ele>
        <time>2016-08-23T12:39:32Z</time>
      </trkpt>
      <trkpt lat="45.90218" lon="4.73789">
        <ele>177</ele>
        <time>2016-08-23T12:39:33Z</time>
      </trkpt>
      <trkpt lat="45.90223" lon="4.73787">
        <ele>177</ele>
        <time>2016-08-23T12:39:34Z</time>
      </trkpt>
      <trkpt lat="45.90229" lon="4.73784">
        <ele>177</ele>
        <time>2016-08-23T12:39:35Z</time>
      </trkpt>
      <trkpt lat="45.90234" lon="4.73782">
        <ele>177</ele>
        <time>2016-08-23T12:39:36Z</time>
      </trkpt>
      <trkpt lat="45.9024" lon="4.7378">
        <ele>177</ele>
        <time>2016-08-23T12:39:37Z</time>
      </trkpt>
      <trkpt lat="45.90246" lon="4.73778">
        <ele>177</ele>
        <time>2016-08-23T12:39:38Z</time>
      </trkpt>
      <trkpt lat="45.90251" lon="4.73776">
        <ele>177</ele>
        <time>2016-08-23T12:39:39Z</time>
      </trkpt>
      <trkpt lat="45.90257" lon="4.73774">
        <ele>177</ele>
        <time>2016-08-23T12:39:40Z</time>
      </trkpt>
      <trkpt lat="45.90262" lon="4.73772">
        <ele>177</ele>
        <time>2016-08-23T12:39:41Z</time>
      </trkpt>
      <trkpt lat="45.90268" lon="4.73769">
        <ele>177</ele>
        <time>2016-08-23T12:39:42Z</time>
      </trkpt>
      <trkpt lat="45.90274" lon="4.73767">
        <ele>177</ele>
        <time>2016-08-23T12:39:43Z</time>
      </trkpt>
      <trkpt lat="45.90279" lon="4.73764">
        <ele>177</ele>
        <time>2016-08-23T12:39:44Z</time>
      </trkpt>
      <trkpt lat="45.90285" lon="4.73762">
        <ele>177</ele>
        <time>2016-08-23T12:39:45Z</time>
      </trkpt>
      <trkpt lat="45.90291" lon="4.7376">
        <ele>177</ele>
        <time>2016-08-23T12:39:46Z</time>
      </trkpt>
      <trkpt lat="45.90297" lon="4.73757">
        <ele>177</ele>
        <time>2016-08-23T12:39:47Z</time>
      </trkpt>
      <trkpt lat="45.90303" lon="4.73754">
        <ele>177</ele>
        <time>2016-08-23T12:39:48Z</time>
      </trkpt>
      <trkpt lat="45.90309" lon="4.73752">
        <ele>177</ele>
        <time>2016-08-23T12:39:49Z</time>
      </trkpt>
      <trkpt lat="45.90314" lon="4.73749">
        <ele>177</ele>
        <time>2016-08-23T12:39:50Z</time>
      </trkpt>
      <trkpt lat="45.9032" lon="4.73747">
        <ele>177</ele>
        <time>2016-08-23T12:39:51Z</time>
      </trkpt>
      <trkpt lat="45.90326" lon="4.73744">
        <ele>176</ele>
        <time>2016-08-23T12:39:52Z</time>
      </trkpt>
      <trkpt lat="45.90331" lon="4.73742">
        <ele>176</ele>
        <time>2016-08-23T12:39:53Z</time>
      </trkpt>
      <trkpt lat="45.90337" lon="4.73739">
        <ele>176</ele>
        <time>2016-08-23T12:39:54Z</time>
      </trkpt>
      <trkpt lat="45.90342" lon="4.73736">
        <ele>176</ele>
        <time>2016-08-23T12:39:55Z</time>
      </trkpt>
      <trkpt lat="45.90348" lon="4.73733">
        <ele>176</ele>
        <time>2016-08-23T12:39:56Z</time>
      </trkpt>
      <trkpt lat="45.90354" lon="4.7373">
        <ele>177</ele>
        <time>2016-08-23T12:39:57Z</time>
      </trkpt>
      <trkpt lat="45.90359" lon="4.73728">
        <ele>177</ele>
        <time>2016-08-23T12:39:58Z</time>
      </trkpt>
      <trkpt lat="45.90364" lon="4.73725">
        <ele>177</ele>
        <time>2016-08-23T12:39:59Z</time>
      </trkpt>
      <trkpt lat="45.90369" lon="4.73723">
        <ele>177</ele>
        <time>2016-08-23T12:40:00Z</time>
      </trkpt>
      <trkpt lat="45.90375" lon="4.73721">
        <ele>177</ele>
        <time>2016-08-23T12:40:01Z</time>
      </trkpt>
      <trkpt lat="45.9038" lon="4.73719">
        <ele>177</ele>
        <time>2016-08-23T12:40:02Z</time>
      </trkpt>
      <trkpt lat="45.90385" lon="4.73717">
        <ele>177</ele>
        <time>2016-08-23T12:40:03Z</time>
      </trkpt>
      <trkpt lat="45.9039" lon="4.73714">
        <ele>177</ele>
        <time>2016-08-23T12:40:04Z</time>
      </trkpt>
      <trkpt lat="45.90395" lon="4.73712">
        <ele>177</ele>
        <time>2016-08-23T12:40:05Z</time>
      </trkpt>
      <trkpt lat="45.904" lon="4.7371">
        <ele>177</ele>
        <time>2016-08-23T12:40:06Z</time>
      </trkpt>
      <trkpt lat="45.90406" lon="4.73708">
        <ele>177</ele>
        <time>2016-08-23T12:40:07Z</time>
      </trkpt>
      <trkpt lat="45.90411" lon="4.73705">
        <ele>177</ele>
        <time>2016-08-23T12:40:08Z</time>
      </trkpt>
      <trkpt lat="45.90416" lon="4.73703">
        <ele>177</ele>
        <time>2016-08-23T12:40:09Z</time>
      </trkpt>
      <trkpt lat="45.90421" lon="4.73701">
        <ele>176</ele>
        <time>2016-08-23T12:40:10Z</time>
      </trkpt>
      <trkpt lat="45.90427" lon="4.73699">
        <ele>176</ele>
        <time>2016-08-23T12:40:11Z</time>
      </trkpt>
      <trkpt lat="45.90432" lon="4.73697">
        <ele>176</ele>
        <time>2016-08-23T12:40:12Z</time>
      </trkpt>
      <trkpt lat="45.90437" lon="4.73695">
        <ele>176</ele>
        <time>2016-08-23T12:40:13Z</time>
      </trkpt>
      <trkpt lat="45.90442" lon="4.73693">
        <ele>176</ele>
        <time>2016-08-23T12:40:14Z</time>
      </trkpt>
      <trkpt lat="45.90447" lon="4.7369">
        <ele>176</ele>
        <time>2016-08-23T12:40:15Z</time>
      </trkpt>
      <trkpt lat="45.90452" lon="4.73688">
        <ele>176</ele>
        <time>2016-08-23T12:40:16Z</time>
      </trkpt>
      <trkpt lat="45.90456" lon="4.73686">
        <ele>176</ele>
        <time>2016-08-23T12:40:17Z</time>
      </trkpt>
      <trkpt lat="45.90461" lon="4.73683">
        <ele>176</ele>
        <time>2016-08-23T12:40:18Z</time>
      </trkpt>
      <trkpt lat="45.90466" lon="4.73681">
        <ele>176</ele>
        <time>2016-08-23T12:40:19Z</time>
      </trkpt>
      <trkpt lat="45.90471" lon="4.73679">
        <ele>176</ele>
        <time>2016-08-23T12:40:20Z</time>
      </trkpt>
      <trkpt lat="45.90476" lon="4.73677">
        <ele>176</ele>
        <time>2016-08-23T12:40:21Z</time>
      </trkpt>
      <trkpt lat="45.9048" lon="4.73675">
        <ele>176</ele>
        <time>2016-08-23T12:40:22Z</time>
      </trkpt>
      <trkpt lat="45.90489" lon="4.73671">
        <ele>177</ele>
        <time>2016-08-23T12:40:24Z</time>
      </trkpt>
      <trkpt lat="45.90493" lon="4.73669">
        <ele>177</ele>
        <time>2016-08-23T12:40:25Z</time>
      </trkpt>
      <trkpt lat="45.90501" lon="4.73667">
        <ele>177</ele>
        <time>2016-08-23T12:40:27Z</time>
      </trkpt>
      <trkpt lat="45.90504" lon="4.73665">
        <ele>177</ele>
        <time>2016-08-23T12:40:28Z</time>
      </trkpt>
      <trkpt lat="45.90511" lon="4.73662">
        <ele>178</ele>
        <time>2016-08-23T12:40:30Z</time>
      </trkpt>
      <trkpt lat="45.90515" lon="4.73661">
        <ele>178</ele>
        <time>2016-08-23T12:40:31Z</time>
      </trkpt>
      <trkpt lat="45.9052" lon="4.73658">
        <ele>178</ele>
        <time>2016-08-23T12:40:32Z</time>
      </trkpt>
      <trkpt lat="45.90524" lon="4.73655">
        <ele>178</ele>
        <time>2016-08-23T12:40:33Z</time>
      </trkpt>
      <trkpt lat="45.90529" lon="4.73652">
        <ele>178</ele>
        <time>2016-08-23T12:40:34Z</time>
      </trkpt>
      <trkpt lat="45.90534" lon="4.73649">
        <ele>178</ele>
        <time>2016-08-23T12:40:35Z</time>
      </trkpt>
      <trkpt lat="45.90539" lon="4.73646">
        <ele>178</ele>
        <time>2016-08-23T12:40:36Z</time>
      </trkpt>
      <trkpt lat="45.90544" lon="4.73644">
        <ele>178</ele>
        <time>2016-08-23T12:40:37Z</time>
      </trkpt>
      <trkpt lat="45.90549" lon="4.73643">
        <ele>179</ele>
        <time>2016-08-23T12:40:38Z</time>
      </trkpt>
      <trkpt lat="45.90553" lon="4.73641">
        <ele>179</ele>
        <time>2016-08-23T12:40:39Z</time>
      </trkpt>
      <trkpt lat="45.90558" lon="4.73638">
        <ele>179</ele>
        <time>2016-08-23T12:40:40Z</time>
      </trkpt>
      <trkpt lat="45.90562" lon="4.73636">
        <ele>179</ele>
        <time>2016-08-23T12:40:41Z</time>
      </trkpt>
      <trkpt lat="45.90571" lon="4.73634">
        <ele>179</ele>
        <time>2016-08-23T12:40:43Z</time>
      </trkpt>
      <trkpt lat="45.90575" lon="4.73633">
        <ele>179</ele>
        <time>2016-08-23T12:40:44Z</time>
      </trkpt>
      <trkpt lat="45.90584" lon="4.73629">
        <ele>181</ele>
        <time>2016-08-23T12:40:46Z</time>
      </trkpt>
      <trkpt lat="45.90588" lon="4.73627">
        <ele>181</ele>
        <time>2016-08-23T12:40:47Z</time>
      </trkpt>
      <trkpt lat="45.90593" lon="4.73625">
        <ele>181</ele>
        <time>2016-08-23T12:40:48Z</time>
      </trkpt>
      <trkpt lat="45.90597" lon="4.73623">
        <ele>181</ele>
        <time>2016-08-23T12:40:49Z</time>
      </trkpt>
      <trkpt lat="45.90601" lon="4.73621">
        <ele>181</ele>
        <time>2016-08-23T12:40:50Z</time>
      </trkpt>
      <trkpt lat="45.90606" lon="4.73619">
        <ele>181</ele>
        <time>2016-08-23T12:40:51Z</time>
      </trkpt>
      <trkpt lat="45.90611" lon="4.73617">
        <ele>181</ele>
        <time>2016-08-23T12:40:52Z</time>
      </trkpt>
      <trkpt lat="45.90615" lon="4.73615">
        <ele>181</ele>
        <time>2016-08-23T12:40:53Z</time>
      </trkpt>
      <trkpt lat="45.9062" lon="4.73613">
        <ele>181</ele>
        <time>2016-08-23T12:40:54Z</time>
      </trkpt>
      <trkpt lat="45.90624" lon="4.73611">
        <ele>181</ele>
        <time>2016-08-23T12:40:55Z</time>
      </trkpt>
      <trkpt lat="45.90629" lon="4.73609">
        <ele>181</ele>
        <time>2016-08-23T12:40:56Z</time>
      </trkpt>
      <trkpt lat="45.90633" lon="4.73607">
        <ele>181</ele>
        <time>2016-08-23T12:40:57Z</time>
      </trkpt>
      <trkpt lat="45.90638" lon="4.73605">
        <ele>181</ele>
        <time>2016-08-23T12:40:58Z</time>
      </trkpt>
      <trkpt lat="45.90643" lon="4.73603">
        <ele>181</ele>
        <time>2016-08-23T12:40:59Z</time>
      </trkpt>
      <trkpt lat="45.90648" lon="4.73601">
        <ele>181</ele>
        <time>2016-08-23T12:41:00Z</time>
      </trkpt>
      <trkpt lat="45.90653" lon="4.73599">
        <ele>181</ele>
        <time>2016-08-23T12:41:01Z</time>
      </trkpt>
      <trkpt lat="45.90658" lon="4.73597">
        <ele>181</ele>
        <time>2016-08-23T12:41:02Z</time>
      </trkpt>
      <trkpt lat="45.90664" lon="4.73595">
        <ele>181</ele>
        <time>2016-08-23T12:41:03Z</time>
      </trkpt>
      <trkpt lat="45.90669" lon="4.73593">
        <ele>181</ele>
        <time>2016-08-23T12:41:04Z</time>
      </trkpt>
      <trkpt lat="45.90674" lon="4.73591">
        <ele>181</ele>
        <time>2016-08-23T12:41:05Z</time>
      </trkpt>
      <trkpt lat="45.9068" lon="4.73589">
        <ele>181</ele>
        <time>2016-08-23T12:41:06Z</time>
      </trkpt>
      <trkpt lat="45.90686" lon="4.73586">
        <ele>181</ele>
        <time>2016-08-23T12:41:07Z</time>
      </trkpt>
      <trkpt lat="45.90691" lon="4.73583">
        <ele>179</ele>
        <time>2016-08-23T12:41:08Z</time>
      </trkpt>
      <trkpt lat="45.90697" lon="4.7358">
        <ele>178</ele>
        <time>2016-08-23T12:41:09Z</time>
      </trkpt>
      <trkpt lat="45.90704" lon="4.73577">
        <ele>178</ele>
        <time>2016-08-23T12:41:10Z</time>
      </trkpt>
      <trkpt lat="45.9071" lon="4.73575">
        <ele>178</ele>
        <time>2016-08-23T12:41:11Z</time>
      </trkpt>
      <trkpt lat="45.90716" lon="4.73572">
        <ele>178</ele>
        <time>2016-08-23T12:41:12Z</time>
      </trkpt>
      <trkpt lat="45.90722" lon="4.73569">
        <ele>178</ele>
        <time>2016-08-23T12:41:13Z</time>
      </trkpt>
      <trkpt lat="45.90729" lon="4.73567">
        <ele>178</ele>
        <time>2016-08-23T12:41:14Z</time>
      </trkpt>
      <trkpt lat="45.90736" lon="4.73564">
        <ele>178</ele>
        <time>2016-08-23T12:41:15Z</time>
      </trkpt>
      <trkpt lat="45.90743" lon="4.73562">
        <ele>178</ele>
        <time>2016-08-23T12:41:16Z</time>
      </trkpt>
      <trkpt lat="45.90749" lon="4.73559">
        <ele>178</ele>
        <time>2016-08-23T12:41:17Z</time>
      </trkpt>
      <trkpt lat="45.90757" lon="4.73556">
        <ele>177</ele>
        <time>2016-08-23T12:41:18Z</time>
      </trkpt>
      <trkpt lat="45.90764" lon="4.73553">
        <ele>177</ele>
        <time>2016-08-23T12:41:19Z</time>
      </trkpt>
      <trkpt lat="45.90771" lon="4.73551">
        <ele>176</ele>
        <time>2016-08-23T12:41:20Z</time>
      </trkpt>
      <trkpt lat="45.90778" lon="4.73547">
        <ele>176</ele>
        <time>2016-08-23T12:41:21Z</time>
      </trkpt>
      <trkpt lat="45.90785" lon="4.73544">
        <ele>176</ele>
        <time>2016-08-23T12:41:22Z</time>
      </trkpt>
      <trkpt lat="45.90793" lon="4.73541">
        <ele>176</ele>
        <time>2016-08-23T12:41:23Z</time>
      </trkpt>
      <trkpt lat="45.908" lon="4.73538">
        <ele>176</ele>
        <time>2016-08-23T12:41:24Z</time>
      </trkpt>
      <trkpt lat="45.90807" lon="4.73535">
        <ele>175</ele>
        <time>2016-08-23T12:41:25Z</time>
      </trkpt>
      <trkpt lat="45.90814" lon="4.73532">
        <ele>175</ele>
        <time>2016-08-23T12:41:26Z</time>
      </trkpt>
      <trkpt lat="45.9082" lon="4.73529">
        <ele>175</ele>
        <time>2016-08-23T12:41:27Z</time>
      </trkpt>
      <trkpt lat="45.90827" lon="4.73527">
        <ele>175</ele>
        <time>2016-08-23T12:41:28Z</time>
      </trkpt>
      <trkpt lat="45.90834" lon="4.73524">
        <ele>174</ele>
        <time>2016-08-23T12:41:29Z</time>
      </trkpt>
      <trkpt lat="45.9084" lon="4.73521">
        <ele>174</ele>
        <time>2016-08-23T12:41:30Z</time>
      </trkpt>
      <trkpt lat="45.90847" lon="4.73518">
        <ele>174</ele>
        <time>2016-08-23T12:41:31Z</time>
      </trkpt>
      <trkpt lat="45.90853" lon="4.73515">
        <ele>174</ele>
        <time>2016-08-23T12:41:32Z</time>
      </trkpt>
      <trkpt lat="45.90859" lon="4.73513">
        <ele>174</ele>
        <time>2016-08-23T12:41:33Z</time>
      </trkpt>
      <trkpt lat="45.90864" lon="4.73511">
        <ele>174</ele>
        <time>2016-08-23T12:41:34Z</time>
      </trkpt>
      <trkpt lat="45.9087" lon="4.73508">
        <ele>174</ele>
        <time>2016-08-23T12:41:35Z</time>
      </trkpt>
      <trkpt lat="45.90876" lon="4.73505">
        <ele>175</ele>
        <time>2016-08-23T12:41:36Z</time>
      </trkpt>
      <trkpt lat="45.90882" lon="4.73503">
        <ele>175</ele>
        <time>2016-08-23T12:41:37Z</time>
      </trkpt>
      <trkpt lat="45.90888" lon="4.735">
        <ele>175</ele>
        <time>2016-08-23T12:41:38Z</time>
      </trkpt>
      <trkpt lat="45.90893" lon="4.73498">
        <ele>175</ele>
        <time>2016-08-23T12:41:39Z</time>
      </trkpt>
      <trkpt lat="45.90899" lon="4.73496">
        <ele>175</ele>
        <time>2016-08-23T12:41:40Z</time>
      </trkpt>
      <trkpt lat="45.90904" lon="4.73493">
        <ele>175</ele>
        <time>2016-08-23T12:41:41Z</time>
      </trkpt>
      <trkpt lat="45.90909" lon="4.73491">
        <ele>175</ele>
        <time>2016-08-23T12:41:42Z</time>
      </trkpt>
      <trkpt lat="45.90914" lon="4.73488">
        <ele>175</ele>
        <time>2016-08-23T12:41:43Z</time>
      </trkpt>
      <trkpt lat="45.9092" lon="4.73486">
        <ele>175</ele>
        <time>2016-08-23T12:41:44Z</time>
      </trkpt>
      <trkpt lat="45.90925" lon="4.73484">
        <ele>175</ele>
        <time>2016-08-23T12:41:45Z</time>
      </trkpt>
      <trkpt lat="45.90931" lon="4.73482">
        <ele>175</ele>
        <time>2016-08-23T12:41:46Z</time>
      </trkpt>
      <trkpt lat="45.90937" lon="4.7348">
        <ele>175</ele>
        <time>2016-08-23T12:41:47Z</time>
      </trkpt>
      <trkpt lat="45.90943" lon="4.73478">
        <ele>175</ele>
        <time>2016-08-23T12:41:48Z</time>
      </trkpt>
      <trkpt lat="45.90949" lon="4.73476">
        <ele>175</ele>
        <time>2016-08-23T12:41:49Z</time>
      </trkpt>
      <trkpt lat="45.90955" lon="4.73473">
        <ele>175</ele>
        <time>2016-08-23T12:41:50Z</time>
      </trkpt>
      <trkpt lat="45.90961" lon="4.7347">
        <ele>175</ele>
        <time>2016-08-23T12:41:51Z</time>
      </trkpt>
      <trkpt lat="45.90967" lon="4.73468">
        <ele>175</ele>
        <time>2016-08-23T12:41:52Z</time>
      </trkpt>
      <trkpt lat="45.90973" lon="4.73466">
        <ele>175</ele>
        <time>2016-08-23T12:41:53Z</time>
      </trkpt>
      <trkpt lat="45.90978" lon="4.73463">
        <ele>175</ele>
        <time>2016-08-23T12:41:54Z</time>
      </trkpt>
      <trkpt lat="45.90983" lon="4.73462">
        <ele>175</ele>
        <time>2016-08-23T12:41:55Z</time>
      </trkpt>
      <trkpt lat="45.90988" lon="4.7346">
        <ele>175</ele>
        <time>2016-08-23T12:41:56Z</time>
      </trkpt>
      <trkpt lat="45.90993" lon="4.73459">
        <ele>175</ele>
        <time>2016-08-23T12:41:57Z</time>
      </trkpt>
      <trkpt lat="45.90998" lon="4.73457">
        <ele>175</ele>
        <time>2016-08-23T12:41:58Z</time>
      </trkpt>
      <trkpt lat="45.91003" lon="4.73457">
        <ele>175</ele>
        <time>2016-08-23T12:41:59Z</time>
      </trkpt>
      <trkpt lat="45.91009" lon="4.73457">
        <ele>175</ele>
        <time>2016-08-23T12:42:00Z</time>
      </trkpt>
      <trkpt lat="45.91015" lon="4.73459">
        <ele>175</ele>
        <time>2016-08-23T12:42:01Z</time>
      </trkpt>
      <trkpt lat="45.9102" lon="4.73461">
        <ele>175</ele>
        <time>2016-08-23T12:42:02Z</time>
      </trkpt>
      <trkpt lat="45.91025" lon="4.73464">
        <ele>175</ele>
        <time>2016-08-23T12:42:03Z</time>
      </trkpt>
      <trkpt lat="45.91029" lon="4.73469">
        <ele>175</ele>
        <time>2016-08-23T12:42:04Z</time>
      </trkpt>
      <trkpt lat="45.91031" lon="4.73474">
        <ele>175</ele>
        <time>2016-08-23T12:42:05Z</time>
      </trkpt>
      <trkpt lat="45.91034" lon="4.73481">
        <ele>175</ele>
        <time>2016-08-23T12:42:06Z</time>
      </trkpt>
      <trkpt lat="45.91038" lon="4.73488">
        <ele>175</ele>
        <time>2016-08-23T12:42:07Z</time>
      </trkpt>
      <trkpt lat="45.91041" lon="4.73495">
        <ele>175</ele>
        <time>2016-08-23T12:42:08Z</time>
      </trkpt>
      <trkpt lat="45.91045" lon="4.73502">
        <ele>175</ele>
        <time>2016-08-23T12:42:09Z</time>
      </trkpt>
      <trkpt lat="45.91048" lon="4.7351">
        <ele>175</ele>
        <time>2016-08-23T12:42:10Z</time>
      </trkpt>
      <trkpt lat="45.91052" lon="4.73517">
        <ele>175</ele>
        <time>2016-08-23T12:42:11Z</time>
      </trkpt>
      <trkpt lat="45.91055" lon="4.73524">
        <ele>175</ele>
        <time>2016-08-23T12:42:12Z</time>
      </trkpt>
      <trkpt lat="45.91058" lon="4.73531">
        <ele>175</ele>
        <time>2016-08-23T12:42:13Z</time>
      </trkpt>
      <trkpt lat="45.91061" lon="4.73537">
        <ele>175</ele>
        <time>2016-08-23T12:42:14Z</time>
      </trkpt>
      <trkpt lat="45.91065" lon="4.73544">
        <ele>174</ele>
        <time>2016-08-23T12:42:15Z</time>
      </trkpt>
      <trkpt lat="45.91068" lon="4.73551">
        <ele>174</ele>
        <time>2016-08-23T12:42:16Z</time>
      </trkpt>
      <trkpt lat="45.91072" lon="4.73558">
        <ele>174</ele>
        <time>2016-08-23T12:42:17Z</time>
      </trkpt>
      <trkpt lat="45.91075" lon="4.73566">
        <ele>174</ele>
        <time>2016-08-23T12:42:18Z</time>
      </trkpt>
      <trkpt lat="45.91079" lon="4.73573">
        <ele>174</ele>
        <time>2016-08-23T12:42:19Z</time>
      </trkpt>
      <trkpt lat="45.91083" lon="4.7358">
        <ele>174</ele>
        <time>2016-08-23T12:42:20Z</time>
      </trkpt>
      <trkpt lat="45.91086" lon="4.73587">
        <ele>174</ele>
        <time>2016-08-23T12:42:21Z</time>
      </trkpt>
      <trkpt lat="45.91089" lon="4.73594">
        <ele>174</ele>
        <time>2016-08-23T12:42:22Z</time>
      </trkpt>
      <trkpt lat="45.91092" lon="4.73601">
        <ele>174</ele>
        <time>2016-08-23T12:42:23Z</time>
      </trkpt>
      <trkpt lat="45.91095" lon="4.73608">
        <ele>174</ele>
        <time>2016-08-23T12:42:24Z</time>
      </trkpt>
      <trkpt lat="45.91099" lon="4.73614">
        <ele>174</ele>
        <time>2016-08-23T12:42:25Z</time>
      </trkpt>
      <trkpt lat="45.91102" lon="4.73621">
        <ele>174</ele>
        <time>2016-08-23T12:42:26Z</time>
      </trkpt>
      <trkpt lat="45.91106" lon="4.73628">
        <ele>174</ele>
        <time>2016-08-23T12:42:27Z</time>
      </trkpt>
      <trkpt lat="45.91109" lon="4.73636">
        <ele>174</ele>
        <time>2016-08-23T12:42:28Z</time>
      </trkpt>
      <trkpt lat="45.91113" lon="4.73643">
        <ele>174</ele>
        <time>2016-08-23T12:42:29Z</time>
      </trkpt>
      <trkpt lat="45.91117" lon="4.7365">
        <ele>174</ele>
        <time>2016-08-23T12:42:30Z</time>
      </trkpt>
      <trkpt lat="45.91121" lon="4.73658">
        <ele>174</ele>
        <time>2016-08-23T12:42:31Z</time>
      </trkpt>
      <trkpt lat="45.91124" lon="4.73667">
        <ele>174</ele>
        <time>2016-08-23T12:42:32Z</time>
      </trkpt>
      <trkpt lat="45.91128" lon="4.73675">
        <ele>174</ele>
        <time>2016-08-23T12:42:33Z</time>
      </trkpt>
      <trkpt lat="45.91131" lon="4.73683">
        <ele>174</ele>
        <time>2016-08-23T12:42:34Z</time>
      </trkpt>
      <trkpt lat="45.91135" lon="4.73691">
        <ele>174</ele>
        <time>2016-08-23T12:42:35Z</time>
      </trkpt>
      <trkpt lat="45.91138" lon="4.737">
        <ele>174</ele>
        <time>2016-08-23T12:42:36Z</time>
      </trkpt>
      <trkpt lat="45.91142" lon="4.73708">
        <ele>174</ele>
        <time>2016-08-23T12:42:37Z</time>
      </trkpt>
      <trkpt lat="45.91146" lon="4.73715">
        <ele>174</ele>
        <time>2016-08-23T12:42:38Z</time>
      </trkpt>
      <trkpt lat="45.91149" lon="4.73722">
        <ele>174</ele>
        <time>2016-08-23T12:42:39Z</time>
      </trkpt>
      <trkpt lat="45.91154" lon="4.73728">
        <ele>175</ele>
        <time>2016-08-23T12:42:40Z</time>
      </trkpt>
      <trkpt lat="45.91159" lon="4.73733">
        <ele>175</ele>
        <time>2016-08-23T12:42:41Z</time>
      </trkpt>
      <trkpt lat="45.91166" lon="4.73735">
        <ele>175</ele>
        <time>2016-08-23T12:42:42Z</time>
      </trkpt>
      <trkpt lat="45.91172" lon="4.73736">
        <ele>175</ele>
        <time>2016-08-23T12:42:43Z</time>
      </trkpt>
      <trkpt lat="45.91178" lon="4.73737">
        <ele>175</ele>
        <time>2016-08-23T12:42:44Z</time>
      </trkpt>
      <trkpt lat="45.91184" lon="4.73739">
        <ele>175</ele>
        <time>2016-08-23T12:42:45Z</time>
      </trkpt>
      <trkpt lat="45.9119" lon="4.73741">
        <ele>175</ele>
        <time>2016-08-23T12:42:46Z</time>
      </trkpt>
      <trkpt lat="45.91195" lon="4.73742">
        <ele>175</ele>
        <time>2016-08-23T12:42:47Z</time>
      </trkpt>
      <trkpt lat="45.912" lon="4.73744">
        <ele>175</ele>
        <time>2016-08-23T12:42:48Z</time>
      </trkpt>
      <trkpt lat="45.91205" lon="4.73744">
        <ele>175</ele>
        <time>2016-08-23T12:42:49Z</time>
      </trkpt>
      <trkpt lat="45.91211" lon="4.73744">
        <ele>175</ele>
        <time>2016-08-23T12:42:50Z</time>
      </trkpt>
      <trkpt lat="45.91216" lon="4.73745">
        <ele>175</ele>
        <time>2016-08-23T12:42:51Z</time>
      </trkpt>
      <trkpt lat="45.91222" lon="4.73745">
        <ele>175</ele>
        <time>2016-08-23T12:42:52Z</time>
      </trkpt>
      <trkpt lat="45.91228" lon="4.73745">
        <ele>175</ele>
        <time>2016-08-23T12:42:53Z</time>
      </trkpt>
      <trkpt lat="45.91234" lon="4.73745">
        <ele>175</ele>
        <time>2016-08-23T12:42:54Z</time>
      </trkpt>
      <trkpt lat="45.9124" lon="4.73745">
        <ele>175</ele>
        <time>2016-08-23T12:42:55Z</time>
      </trkpt>
      <trkpt lat="45.91246" lon="4.73745">
        <ele>175</ele>
        <time>2016-08-23T12:42:56Z</time>
      </trkpt>
      <trkpt lat="45.91251" lon="4.73745">
        <ele>175</ele>
        <time>2016-08-23T12:42:57Z</time>
      </trkpt>
      <trkpt lat="45.91257" lon="4.73745">
        <ele>175</ele>
        <time>2016-08-23T12:42:58Z</time>
      </trkpt>
      <trkpt lat="45.91262" lon="4.73745">
        <ele>175</ele>
        <time>2016-08-23T12:42:59Z</time>
      </trkpt>
      <trkpt lat="45.91268" lon="4.73745">
        <ele>174</ele>
        <time>2016-08-23T12:43:00Z</time>
      </trkpt>
      <trkpt lat="45.91273" lon="4.73745">
        <ele>174</ele>
        <time>2016-08-23T12:43:01Z</time>
      </trkpt>
      <trkpt lat="45.91278" lon="4.73746">
        <ele>174</ele>
        <time>2016-08-23T12:43:02Z</time>
      </trkpt>
      <trkpt lat="45.91283" lon="4.73746">
        <ele>174</ele>
        <time>2016-08-23T12:43:03Z</time>
      </trkpt>
      <trkpt lat="45.91287" lon="4.73746">
        <ele>174</ele>
        <time>2016-08-23T12:43:04Z</time>
      </trkpt>
      <trkpt lat="45.91293" lon="4.73746">
        <ele>174</ele>
        <time>2016-08-23T12:43:05Z</time>
      </trkpt>
      <trkpt lat="45.91299" lon="4.73746">
        <ele>174</ele>
        <time>2016-08-23T12:43:06Z</time>
      </trkpt>
      <trkpt lat="45.91305" lon="4.73745">
        <ele>174</ele>
        <time>2016-08-23T12:43:07Z</time>
      </trkpt>
      <trkpt lat="45.91311" lon="4.73744">
        <ele>174</ele>
        <time>2016-08-23T12:43:08Z</time>
      </trkpt>
      <trkpt lat="45.91317" lon="4.73744">
        <ele>174</ele>
        <time>2016-08-23T12:43:09Z</time>
      </trkpt>
      <trkpt lat="45.91322" lon="4.73744">
        <ele>173</ele>
        <time>2016-08-23T12:43:10Z</time>
      </trkpt>
      <trkpt lat="45.91329" lon="4.73744">
        <ele>173</ele>
        <time>2016-08-23T12:43:11Z</time>
      </trkpt>
      <trkpt lat="45.91334" lon="4.73744">
        <ele>173</ele>
        <time>2016-08-23T12:43:12Z</time>
      </trkpt>
      <trkpt lat="45.9134" lon="4.73744">
        <ele>173</ele>
        <time>2016-08-23T12:43:13Z</time>
      </trkpt>
      <trkpt lat="45.91345" lon="4.73744">
        <ele>173</ele>
        <time>2016-08-23T12:43:14Z</time>
      </trkpt>
      <trkpt lat="45.91351" lon="4.73744">
        <ele>173</ele>
        <time>2016-08-23T12:43:15Z</time>
      </trkpt>
      <trkpt lat="45.91356" lon="4.73744">
        <ele>173</ele>
        <time>2016-08-23T12:43:16Z</time>
      </trkpt>
      <trkpt lat="45.91361" lon="4.73744">
        <ele>173</ele>
        <time>2016-08-23T12:43:17Z</time>
      </trkpt>
      <trkpt lat="45.91366" lon="4.73745">
        <ele>173</ele>
        <time>2016-08-23T12:43:18Z</time>
      </trkpt>
      <trkpt lat="45.91371" lon="4.73745">
        <ele>173</ele>
        <time>2016-08-23T12:43:19Z</time>
      </trkpt>
      <trkpt lat="45.91377" lon="4.73745">
        <ele>173</ele>
        <time>2016-08-23T12:43:20Z</time>
      </trkpt>
      <trkpt lat="45.91382" lon="4.73745">
        <ele>173</ele>
        <time>2016-08-23T12:43:21Z</time>
      </trkpt>
      <trkpt lat="45.91388" lon="4.73745">
        <ele>173</ele>
        <time>2016-08-23T12:43:22Z</time>
      </trkpt>
      <trkpt lat="45.91393" lon="4.73745">
        <ele>173</ele>
        <time>2016-08-23T12:43:23Z</time>
      </trkpt>
      <trkpt lat="45.91399" lon="4.73745">
        <ele>173</ele>
        <time>2016-08-23T12:43:24Z</time>
      </trkpt>
      <trkpt lat="45.91404" lon="4.73745">
        <ele>173</ele>
        <time>2016-08-23T12:43:25Z</time>
      </trkpt>
      <trkpt lat="45.9141" lon="4.73744">
        <ele>172</ele>
        <time>2016-08-23T12:43:26Z</time>
      </trkpt>
      <trkpt lat="45.91415" lon="4.73744">
        <ele>172</ele>
        <time>2016-08-23T12:43:27Z</time>
      </trkpt>
      <trkpt lat="45.91421" lon="4.73744">
        <ele>172</ele>
        <time>2016-08-23T12:43:28Z</time>
      </trkpt>
      <trkpt lat="45.91426" lon="4.73743">
        <ele>173</ele>
        <time>2016-08-23T12:43:29Z</time>
      </trkpt>
      <trkpt lat="45.91432" lon="4.73743">
        <ele>173</ele>
        <time>2016-08-23T12:43:30Z</time>
      </trkpt>
      <trkpt lat="45.91437" lon="4.73743">
        <ele>173</ele>
        <time>2016-08-23T12:43:31Z</time>
      </trkpt>
      <trkpt lat="45.91442" lon="4.73743">
        <ele>173</ele>
        <time>2016-08-23T12:43:32Z</time>
      </trkpt>
      <trkpt lat="45.91447" lon="4.73743">
        <ele>173</ele>
        <time>2016-08-23T12:43:33Z</time>
      </trkpt>
      <trkpt lat="45.91456" lon="4.73744">
        <ele>173</ele>
        <time>2016-08-23T12:43:35Z</time>
      </trkpt>
      <trkpt lat="45.9146" lon="4.73744">
        <ele>174</ele>
        <time>2016-08-23T12:43:36Z</time>
      </trkpt>
      <trkpt lat="45.91466" lon="4.73744">
        <ele>174</ele>
        <time>2016-08-23T12:43:37Z</time>
      </trkpt>
      <trkpt lat="45.91471" lon="4.73743">
        <ele>174</ele>
        <time>2016-08-23T12:43:38Z</time>
      </trkpt>
      <trkpt lat="45.91476" lon="4.73742">
        <ele>174</ele>
        <time>2016-08-23T12:43:39Z</time>
      </trkpt>
      <trkpt lat="45.91482" lon="4.73742">
        <ele>174</ele>
        <time>2016-08-23T12:43:40Z</time>
      </trkpt>
      <trkpt lat="45.91487" lon="4.73741">
        <ele>174</ele>
        <time>2016-08-23T12:43:41Z</time>
      </trkpt>
      <trkpt lat="45.91493" lon="4.73741">
        <ele>174</ele>
        <time>2016-08-23T12:43:42Z</time>
      </trkpt>
      <trkpt lat="45.91498" lon="4.73741">
        <ele>174</ele>
        <time>2016-08-23T12:43:43Z</time>
      </trkpt>
      <trkpt lat="45.91504" lon="4.73741">
        <ele>174</ele>
        <time>2016-08-23T12:43:44Z</time>
      </trkpt>
      <trkpt lat="45.91509" lon="4.73741">
        <ele>174</ele>
        <time>2016-08-23T12:43:45Z</time>
      </trkpt>
      <trkpt lat="45.91515" lon="4.73741">
        <ele>174</ele>
        <time>2016-08-23T12:43:46Z</time>
      </trkpt>
      <trkpt lat="45.9152" lon="4.73741">
        <ele>174</ele>
        <time>2016-08-23T12:43:47Z</time>
      </trkpt>
      <trkpt lat="45.91525" lon="4.73741">
        <ele>174</ele>
        <time>2016-08-23T12:43:48Z</time>
      </trkpt>
      <trkpt lat="45.9153" lon="4.73742">
        <ele>174</ele>
        <time>2016-08-23T12:43:49Z</time>
      </trkpt>
      <trkpt lat="45.91535" lon="4.73741">
        <ele>174</ele>
        <time>2016-08-23T12:43:50Z</time>
      </trkpt>
      <trkpt lat="45.9154" lon="4.73741">
        <ele>174</ele>
        <time>2016-08-23T12:43:51Z</time>
      </trkpt>
      <trkpt lat="45.91545" lon="4.73741">
        <ele>174</ele>
        <time>2016-08-23T12:43:52Z</time>
      </trkpt>
      <trkpt lat="45.9155" lon="4.73741">
        <ele>174</ele>
        <time>2016-08-23T12:43:53Z</time>
      </trkpt>
      <trkpt lat="45.91555" lon="4.73741">
        <ele>174</ele>
        <time>2016-08-23T12:43:54Z</time>
      </trkpt>
      <trkpt lat="45.9156" lon="4.73741">
        <ele>173</ele>
        <time>2016-08-23T12:43:55Z</time>
      </trkpt>
      <trkpt lat="45.91566" lon="4.73741">
        <ele>173</ele>
        <time>2016-08-23T12:43:56Z</time>
      </trkpt>
      <trkpt lat="45.91572" lon="4.73741">
        <ele>173</ele>
        <time>2016-08-23T12:43:57Z</time>
      </trkpt>
      <trkpt lat="45.91578" lon="4.73741">
        <ele>173</ele>
        <time>2016-08-23T12:43:58Z</time>
      </trkpt>
      <trkpt lat="45.91584" lon="4.7374">
        <ele>173</ele>
        <time>2016-08-23T12:43:59Z</time>
      </trkpt>
      <trkpt lat="45.9159" lon="4.7374">
        <ele>173</ele>
        <time>2016-08-23T12:44:00Z</time>
      </trkpt>
      <trkpt lat="45.91595" lon="4.73739">
        <ele>173</ele>
        <time>2016-08-23T12:44:01Z</time>
      </trkpt>
      <trkpt lat="45.91601" lon="4.73739">
        <ele>173</ele>
        <time>2016-08-23T12:44:02Z</time>
      </trkpt>
      <trkpt lat="45.91606" lon="4.73739">
        <ele>173</ele>
        <time>2016-08-23T12:44:03Z</time>
      </trkpt>
      <trkpt lat="45.91611" lon="4.73739">
        <ele>173</ele>
        <time>2016-08-23T12:44:04Z</time>
      </trkpt>
      <trkpt lat="45.91616" lon="4.7374">
        <ele>173</ele>
        <time>2016-08-23T12:44:05Z</time>
      </trkpt>
      <trkpt lat="45.91621" lon="4.7374">
        <ele>173</ele>
        <time>2016-08-23T12:44:06Z</time>
      </trkpt>
      <trkpt lat="45.91626" lon="4.73739">
        <ele>172</ele>
        <time>2016-08-23T12:44:07Z</time>
      </trkpt>
      <trkpt lat="45.91631" lon="4.73739">
        <ele>172</ele>
        <time>2016-08-23T12:44:08Z</time>
      </trkpt>
      <trkpt lat="45.91636" lon="4.73739">
        <ele>172</ele>
        <time>2016-08-23T12:44:09Z</time>
      </trkpt>
      <trkpt lat="45.91641" lon="4.73739">
        <ele>172</ele>
        <time>2016-08-23T12:44:10Z</time>
      </trkpt>
      <trkpt lat="45.91646" lon="4.7374">
        <ele>172</ele>
        <time>2016-08-23T12:44:11Z</time>
      </trkpt>
      <trkpt lat="45.91651" lon="4.7374">
        <ele>172</ele>
        <time>2016-08-23T12:44:12Z</time>
      </trkpt>
      <trkpt lat="45.91655" lon="4.7374">
        <ele>172</ele>
        <time>2016-08-23T12:44:13Z</time>
      </trkpt>
      <trkpt lat="45.9166" lon="4.7374">
        <ele>172</ele>
        <time>2016-08-23T12:44:14Z</time>
      </trkpt>
      <trkpt lat="45.91665" lon="4.7374">
        <ele>172</ele>
        <time>2016-08-23T12:44:15Z</time>
      </trkpt>
      <trkpt lat="45.9167" lon="4.7374">
        <ele>172</ele>
        <time>2016-08-23T12:44:16Z</time>
      </trkpt>
      <trkpt lat="45.91675" lon="4.73741">
        <ele>172</ele>
        <time>2016-08-23T12:44:17Z</time>
      </trkpt>
      <trkpt lat="45.9168" lon="4.73741">
        <ele>172</ele>
        <time>2016-08-23T12:44:18Z</time>
      </trkpt>
      <trkpt lat="45.91686" lon="4.73741">
        <ele>172</ele>
        <time>2016-08-23T12:44:19Z</time>
      </trkpt>
      <trkpt lat="45.91691" lon="4.73741">
        <ele>172</ele>
        <time>2016-08-23T12:44:20Z</time>
      </trkpt>
      <trkpt lat="45.91697" lon="4.7374">
        <ele>172</ele>
        <time>2016-08-23T12:44:21Z</time>
      </trkpt>
      <trkpt lat="45.91703" lon="4.7374">
        <ele>172</ele>
        <time>2016-08-23T12:44:22Z</time>
      </trkpt>
      <trkpt lat="45.91709" lon="4.73739">
        <ele>173</ele>
        <time>2016-08-23T12:44:23Z</time>
      </trkpt>
      <trkpt lat="45.91714" lon="4.73738">
        <ele>173</ele>
        <time>2016-08-23T12:44:24Z</time>
      </trkpt>
      <trkpt lat="45.9172" lon="4.73738">
        <ele>173</ele>
        <time>2016-08-23T12:44:25Z</time>
      </trkpt>
      <trkpt lat="45.91726" lon="4.73737">
        <ele>173</ele>
        <time>2016-08-23T12:44:26Z</time>
      </trkpt>
      <trkpt lat="45.91731" lon="4.73737">
        <ele>173</ele>
        <time>2016-08-23T12:44:27Z</time>
      </trkpt>
      <trkpt lat="45.91737" lon="4.73738">
        <ele>173</ele>
        <time>2016-08-23T12:44:28Z</time>
      </trkpt>
      <trkpt lat="45.91742" lon="4.73738">
        <ele>173</ele>
        <time>2016-08-23T12:44:29Z</time>
      </trkpt>
      <trkpt lat="45.91748" lon="4.73739">
        <ele>173</ele>
        <time>2016-08-23T12:44:30Z</time>
      </trkpt>
      <trkpt lat="45.91752" lon="4.73739">
        <ele>173</ele>
        <time>2016-08-23T12:44:31Z</time>
      </trkpt>
      <trkpt lat="45.91757" lon="4.73739">
        <ele>173</ele>
        <time>2016-08-23T12:44:32Z</time>
      </trkpt>
      <trkpt lat="45.91762" lon="4.73739">
        <ele>173</ele>
        <time>2016-08-23T12:44:33Z</time>
      </trkpt>
      <trkpt lat="45.91768" lon="4.73739">
        <ele>173</ele>
        <time>2016-08-23T12:44:34Z</time>
      </trkpt>
      <trkpt lat="45.91773" lon="4.73738">
        <ele>173</ele>
        <time>2016-08-23T12:44:35Z</time>
      </trkpt>
      <trkpt lat="45.91777" lon="4.73738">
        <ele>173</ele>
        <time>2016-08-23T12:44:36Z</time>
      </trkpt>
      <trkpt lat="45.91783" lon="4.73738">
        <ele>173</ele>
        <time>2016-08-23T12:44:37Z</time>
      </trkpt>
      <trkpt lat="45.91788" lon="4.73738">
        <ele>173</ele>
        <time>2016-08-23T12:44:38Z</time>
      </trkpt>
      <trkpt lat="45.91793" lon="4.73738">
        <ele>172</ele>
        <time>2016-08-23T12:44:39Z</time>
      </trkpt>
      <trkpt lat="45.91799" lon="4.73738">
        <ele>172</ele>
        <time>2016-08-23T12:44:40Z</time>
      </trkpt>
      <trkpt lat="45.91806" lon="4.73738">
        <ele>172</ele>
        <time>2016-08-23T12:44:41Z</time>
      </trkpt>
      <trkpt lat="45.91812" lon="4.73738">
        <ele>172</ele>
        <time>2016-08-23T12:44:42Z</time>
      </trkpt>
      <trkpt lat="45.91817" lon="4.73738">
        <ele>172</ele>
        <time>2016-08-23T12:44:43Z</time>
      </trkpt>
      <trkpt lat="45.91823" lon="4.73738">
        <ele>172</ele>
        <time>2016-08-23T12:44:44Z</time>
      </trkpt>
      <trkpt lat="45.91828" lon="4.73738">
        <ele>172</ele>
        <time>2016-08-23T12:44:45Z</time>
      </trkpt>
      <trkpt lat="45.91833" lon="4.73737">
        <ele>172</ele>
        <time>2016-08-23T12:44:46Z</time>
      </trkpt>
      <trkpt lat="45.91839" lon="4.73737">
        <ele>172</ele>
        <time>2016-08-23T12:44:47Z</time>
      </trkpt>
      <trkpt lat="45.91843" lon="4.73737">
        <ele>172</ele>
        <time>2016-08-23T12:44:48Z</time>
      </trkpt>
      <trkpt lat="45.91848" lon="4.73737">
        <ele>172</ele>
        <time>2016-08-23T12:44:49Z</time>
      </trkpt>
      <trkpt lat="45.91854" lon="4.73737">
        <ele>171</ele>
        <time>2016-08-23T12:44:50Z</time>
      </trkpt>
      <trkpt lat="45.9186" lon="4.73737">
        <ele>171</ele>
        <time>2016-08-23T12:44:51Z</time>
      </trkpt>
      <trkpt lat="45.91866" lon="4.73736">
        <ele>171</ele>
        <time>2016-08-23T12:44:52Z</time>
      </trkpt>
      <trkpt lat="45.91872" lon="4.73736">
        <ele>171</ele>
        <time>2016-08-23T12:44:53Z</time>
      </trkpt>
      <trkpt lat="45.91878" lon="4.73736">
        <ele>171</ele>
        <time>2016-08-23T12:44:54Z</time>
      </trkpt>
      <trkpt lat="45.91884" lon="4.73736">
        <ele>171</ele>
        <time>2016-08-23T12:44:55Z</time>
      </trkpt>
      <trkpt lat="45.91891" lon="4.73736">
        <ele>171</ele>
        <time>2016-08-23T12:44:56Z</time>
      </trkpt>
      <trkpt lat="45.91896" lon="4.73735">
        <ele>171</ele>
        <time>2016-08-23T12:44:57Z</time>
      </trkpt>
      <trkpt lat="45.91902" lon="4.73735">
        <ele>171</ele>
        <time>2016-08-23T12:44:58Z</time>
      </trkpt>
      <trkpt lat="45.91908" lon="4.73735">
        <ele>171</ele>
        <time>2016-08-23T12:44:59Z</time>
      </trkpt>
      <trkpt lat="45.91914" lon="4.73735">
        <ele>171</ele>
        <time>2016-08-23T12:45:00Z</time>
      </trkpt>
      <trkpt lat="45.91919" lon="4.73735">
        <ele>170</ele>
        <time>2016-08-23T12:45:01Z</time>
      </trkpt>
      <trkpt lat="45.91925" lon="4.73734">
        <ele>170</ele>
        <time>2016-08-23T12:45:02Z</time>
      </trkpt>
      <trkpt lat="45.9193" lon="4.73734">
        <ele>170</ele>
        <time>2016-08-23T12:45:03Z</time>
      </trkpt>
      <trkpt lat="45.91936" lon="4.73734">
        <ele>170</ele>
        <time>2016-08-23T12:45:04Z</time>
      </trkpt>
      <trkpt lat="45.91942" lon="4.73733">
        <ele>170</ele>
        <time>2016-08-23T12:45:05Z</time>
      </trkpt>
      <trkpt lat="45.91948" lon="4.73733">
        <ele>170</ele>
        <time>2016-08-23T12:45:06Z</time>
      </trkpt>
      <trkpt lat="45.91953" lon="4.73733">
        <ele>170</ele>
        <time>2016-08-23T12:45:07Z</time>
      </trkpt>
      <trkpt lat="45.91959" lon="4.73733">
        <ele>171</ele>
        <time>2016-08-23T12:45:08Z</time>
      </trkpt>
      <trkpt lat="45.91965" lon="4.73733">
        <ele>171</ele>
        <time>2016-08-23T12:45:09Z</time>
      </trkpt>
      <trkpt lat="45.9197" lon="4.73733">
        <ele>171</ele>
        <time>2016-08-23T12:45:10Z</time>
      </trkpt>
      <trkpt lat="45.91976" lon="4.73733">
        <ele>171</ele>
        <time>2016-08-23T12:45:11Z</time>
      </trkpt>
      <trkpt lat="45.91981" lon="4.73733">
        <ele>171</ele>
        <time>2016-08-23T12:45:12Z</time>
      </trkpt>
      <trkpt lat="45.91987" lon="4.73733">
        <ele>171</ele>
        <time>2016-08-23T12:45:13Z</time>
      </trkpt>
      <trkpt lat="45.91991" lon="4.73733">
        <ele>171</ele>
        <time>2016-08-23T12:45:14Z</time>
      </trkpt>
      <trkpt lat="45.91996" lon="4.73733">
        <ele>171</ele>
        <time>2016-08-23T12:45:15Z</time>
      </trkpt>
      <trkpt lat="45.92001" lon="4.73734">
        <ele>171</ele>
        <time>2016-08-23T12:45:16Z</time>
      </trkpt>
      <trkpt lat="45.92006" lon="4.73734">
        <ele>171</ele>
        <time>2016-08-23T12:45:17Z</time>
      </trkpt>
      <trkpt lat="45.92011" lon="4.73734">
        <ele>171</ele>
        <time>2016-08-23T12:45:18Z</time>
      </trkpt>
      <trkpt lat="45.92016" lon="4.73734">
        <ele>171</ele>
        <time>2016-08-23T12:45:19Z</time>
      </trkpt>
      <trkpt lat="45.92021" lon="4.73733">
        <ele>171</ele>
        <time>2016-08-23T12:45:20Z</time>
      </trkpt>
      <trkpt lat="45.92026" lon="4.73733">
        <ele>171</ele>
        <time>2016-08-23T12:45:21Z</time>
      </trkpt>
      <trkpt lat="45.92032" lon="4.73733">
        <ele>171</ele>
        <time>2016-08-23T12:45:22Z</time>
      </trkpt>
      <trkpt lat="45.92037" lon="4.73732">
        <ele>171</ele>
        <time>2016-08-23T12:45:23Z</time>
      </trkpt>
      <trkpt lat="45.92042" lon="4.73732">
        <ele>171</ele>
        <time>2016-08-23T12:45:24Z</time>
      </trkpt>
      <trkpt lat="45.92047" lon="4.73732">
        <ele>171</ele>
        <time>2016-08-23T12:45:25Z</time>
      </trkpt>
      <trkpt lat="45.92053" lon="4.73732">
        <ele>171</ele>
        <time>2016-08-23T12:45:26Z</time>
      </trkpt>
      <trkpt lat="45.92058" lon="4.73732">
        <ele>171</ele>
        <time>2016-08-23T12:45:27Z</time>
      </trkpt>
      <trkpt lat="45.92063" lon="4.73731">
        <ele>171</ele>
        <time>2016-08-23T12:45:28Z</time>
      </trkpt>
      <trkpt lat="45.92069" lon="4.73731">
        <ele>171</ele>
        <time>2016-08-23T12:45:29Z</time>
      </trkpt>
      <trkpt lat="45.92074" lon="4.73731">
        <ele>171</ele>
        <time>2016-08-23T12:45:30Z</time>
      </trkpt>
      <trkpt lat="45.92079" lon="4.73731">
        <ele>171</ele>
        <time>2016-08-23T12:45:31Z</time>
      </trkpt>
      <trkpt lat="45.92084" lon="4.7373">
        <ele>171</ele>
        <time>2016-08-23T12:45:32Z</time>
      </trkpt>
      <trkpt lat="45.92088" lon="4.7373">
        <ele>171</ele>
        <time>2016-08-23T12:45:33Z</time>
      </trkpt>
      <trkpt lat="45.92093" lon="4.7373">
        <ele>171</ele>
        <time>2016-08-23T12:45:34Z</time>
      </trkpt>
      <trkpt lat="45.92098" lon="4.73729">
        <ele>171</ele>
        <time>2016-08-23T12:45:35Z</time>
      </trkpt>
      <trkpt lat="45.92102" lon="4.73728">
        <ele>171</ele>
        <time>2016-08-23T12:45:36Z</time>
      </trkpt>
      <trkpt lat="45.92107" lon="4.73727">
        <ele>171</ele>
        <time>2016-08-23T12:45:37Z</time>
      </trkpt>
      <trkpt lat="45.92112" lon="4.73726">
        <ele>171</ele>
        <time>2016-08-23T12:45:38Z</time>
      </trkpt>
      <trkpt lat="45.92118" lon="4.73724">
        <ele>171</ele>
        <time>2016-08-23T12:45:39Z</time>
      </trkpt>
      <trkpt lat="45.92123" lon="4.73723">
        <ele>171</ele>
        <time>2016-08-23T12:45:40Z</time>
      </trkpt>
      <trkpt lat="45.92129" lon="4.73721">
        <ele>171</ele>
        <time>2016-08-23T12:45:41Z</time>
      </trkpt>
      <trkpt lat="45.92135" lon="4.7372">
        <ele>171</ele>
        <time>2016-08-23T12:45:42Z</time>
      </trkpt>
      <trkpt lat="45.92141" lon="4.73718">
        <ele>171</ele>
        <time>2016-08-23T12:45:43Z</time>
      </trkpt>
      <trkpt lat="45.92146" lon="4.73716">
        <ele>171</ele>
        <time>2016-08-23T12:45:44Z</time>
      </trkpt>
      <trkpt lat="45.92151" lon="4.73714">
        <ele>171</ele>
        <time>2016-08-23T12:45:45Z</time>
      </trkpt>
      <trkpt lat="45.92156" lon="4.73712">
        <ele>171</ele>
        <time>2016-08-23T12:45:46Z</time>
      </trkpt>
      <trkpt lat="45.92161" lon="4.73711">
        <ele>171</ele>
        <time>2016-08-23T12:45:47Z</time>
      </trkpt>
      <trkpt lat="45.92166" lon="4.73709">
        <ele>171</ele>
        <time>2016-08-23T12:45:48Z</time>
      </trkpt>
      <trkpt lat="45.92171" lon="4.73706">
        <ele>171</ele>
        <time>2016-08-23T12:45:49Z</time>
      </trkpt>
      <trkpt lat="45.92176" lon="4.73703">
        <ele>171</ele>
        <time>2016-08-23T12:45:50Z</time>
      </trkpt>
      <trkpt lat="45.9218" lon="4.73701">
        <ele>171</ele>
        <time>2016-08-23T12:45:51Z</time>
      </trkpt>
      <trkpt lat="45.92185" lon="4.73699">
        <ele>171</ele>
        <time>2016-08-23T12:45:52Z</time>
      </trkpt>
      <trkpt lat="45.92191" lon="4.73696">
        <ele>171</ele>
        <time>2016-08-23T12:45:53Z</time>
      </trkpt>
      <trkpt lat="45.92196" lon="4.73693">
        <ele>171</ele>
        <time>2016-08-23T12:45:54Z</time>
      </trkpt>
      <trkpt lat="45.92201" lon="4.7369">
        <ele>171</ele>
        <time>2016-08-23T12:45:55Z</time>
      </trkpt>
      <trkpt lat="45.92206" lon="4.73686">
        <ele>171</ele>
        <time>2016-08-23T12:45:56Z</time>
      </trkpt>
      <trkpt lat="45.92211" lon="4.73683">
        <ele>171</ele>
        <time>2016-08-23T12:45:57Z</time>
      </trkpt>
      <trkpt lat="45.92216" lon="4.73681">
        <ele>171</ele>
        <time>2016-08-23T12:45:58Z</time>
      </trkpt>
      <trkpt lat="45.9222" lon="4.73678">
        <ele>171</ele>
        <time>2016-08-23T12:45:59Z</time>
      </trkpt>
      <trkpt lat="45.92225" lon="4.73676">
        <ele>171</ele>
        <time>2016-08-23T12:46:00Z</time>
      </trkpt>
      <trkpt lat="45.9223" lon="4.73674">
        <ele>171</ele>
        <time>2016-08-23T12:46:01Z</time>
      </trkpt>
      <trkpt lat="45.92234" lon="4.73672">
        <ele>171</ele>
        <time>2016-08-23T12:46:02Z</time>
      </trkpt>
      <trkpt lat="45.92239" lon="4.7367">
        <ele>171</ele>
        <time>2016-08-23T12:46:03Z</time>
      </trkpt>
      <trkpt lat="45.92243" lon="4.73668">
        <ele>171</ele>
        <time>2016-08-23T12:46:04Z</time>
      </trkpt>
      <trkpt lat="45.92248" lon="4.73665">
        <ele>171</ele>
        <time>2016-08-23T12:46:05Z</time>
      </trkpt>
      <trkpt lat="45.92253" lon="4.73662">
        <ele>171</ele>
        <time>2016-08-23T12:46:06Z</time>
      </trkpt>
      <trkpt lat="45.92258" lon="4.73659">
        <ele>171</ele>
        <time>2016-08-23T12:46:07Z</time>
      </trkpt>
      <trkpt lat="45.92264" lon="4.73656">
        <ele>171</ele>
        <time>2016-08-23T12:46:08Z</time>
      </trkpt>
      <trkpt lat="45.92269" lon="4.73653">
        <ele>171</ele>
        <time>2016-08-23T12:46:09Z</time>
      </trkpt>
      <trkpt lat="45.92275" lon="4.7365">
        <ele>172</ele>
        <time>2016-08-23T12:46:10Z</time>
      </trkpt>
      <trkpt lat="45.9228" lon="4.73647">
        <ele>172</ele>
        <time>2016-08-23T12:46:11Z</time>
      </trkpt>
      <trkpt lat="45.92285" lon="4.73644">
        <ele>172</ele>
        <time>2016-08-23T12:46:12Z</time>
      </trkpt>
      <trkpt lat="45.92289" lon="4.73641">
        <ele>172</ele>
        <time>2016-08-23T12:46:13Z</time>
      </trkpt>
      <trkpt lat="45.92294" lon="4.73639">
        <ele>172</ele>
        <time>2016-08-23T12:46:14Z</time>
      </trkpt>
      <trkpt lat="45.92299" lon="4.73636">
        <ele>172</ele>
        <time>2016-08-23T12:46:15Z</time>
      </trkpt>
      <trkpt lat="45.92303" lon="4.73634">
        <ele>172</ele>
        <time>2016-08-23T12:46:16Z</time>
      </trkpt>
      <trkpt lat="45.92308" lon="4.73631">
        <ele>172</ele>
        <time>2016-08-23T12:46:17Z</time>
      </trkpt>
      <trkpt lat="45.92312" lon="4.73629">
        <ele>172</ele>
        <time>2016-08-23T12:46:18Z</time>
      </trkpt>
      <trkpt lat="45.92317" lon="4.73627">
        <ele>172</ele>
        <time>2016-08-23T12:46:19Z</time>
      </trkpt>
      <trkpt lat="45.92321" lon="4.73624">
        <ele>172</ele>
        <time>2016-08-23T12:46:20Z</time>
      </trkpt>
      <trkpt lat="45.92326" lon="4.7362">
        <ele>172</ele>
        <time>2016-08-23T12:46:21Z</time>
      </trkpt>
      <trkpt lat="45.9233" lon="4.73617">
        <ele>172</ele>
        <time>2016-08-23T12:46:22Z</time>
      </trkpt>
      <trkpt lat="45.92334" lon="4.73615">
        <ele>173</ele>
        <time>2016-08-23T12:46:23Z</time>
      </trkpt>
      <trkpt lat="45.92339" lon="4.73612">
        <ele>173</ele>
        <time>2016-08-23T12:46:24Z</time>
      </trkpt>
      <trkpt lat="45.92344" lon="4.7361">
        <ele>173</ele>
        <time>2016-08-23T12:46:25Z</time>
      </trkpt>
      <trkpt lat="45.92348" lon="4.73607">
        <ele>173</ele>
        <time>2016-08-23T12:46:26Z</time>
      </trkpt>
      <trkpt lat="45.92353" lon="4.73605">
        <ele>173</ele>
        <time>2016-08-23T12:46:27Z</time>
      </trkpt>
      <trkpt lat="45.92358" lon="4.73602">
        <ele>173</ele>
        <time>2016-08-23T12:46:28Z</time>
      </trkpt>
      <trkpt lat="45.92363" lon="4.736">
        <ele>173</ele>
        <time>2016-08-23T12:46:29Z</time>
      </trkpt>
      <trkpt lat="45.92368" lon="4.73598">
        <ele>173</ele>
        <time>2016-08-23T12:46:30Z</time>
      </trkpt>
      <trkpt lat="45.92374" lon="4.73595">
        <ele>173</ele>
        <time>2016-08-23T12:46:31Z</time>
      </trkpt>
      <trkpt lat="45.92379" lon="4.73593">
        <ele>173</ele>
        <time>2016-08-23T12:46:32Z</time>
      </trkpt>
      <trkpt lat="45.92384" lon="4.7359">
        <ele>173</ele>
        <time>2016-08-23T12:46:33Z</time>
      </trkpt>
      <trkpt lat="45.92389" lon="4.73588">
        <ele>173</ele>
        <time>2016-08-23T12:46:34Z</time>
      </trkpt>
      <trkpt lat="45.92394" lon="4.73586">
        <ele>173</ele>
        <time>2016-08-23T12:46:35Z</time>
      </trkpt>
      <trkpt lat="45.92399" lon="4.73584">
        <ele>173</ele>
        <time>2016-08-23T12:46:36Z</time>
      </trkpt>
      <trkpt lat="45.92407" lon="4.73581">
        <ele>173</ele>
        <time>2016-08-23T12:46:38Z</time>
      </trkpt>
      <trkpt lat="45.92411" lon="4.73579">
        <ele>174</ele>
        <time>2016-08-23T12:46:39Z</time>
      </trkpt>
      <trkpt lat="45.92415" lon="4.73577">
        <ele>174</ele>
        <time>2016-08-23T12:46:40Z</time>
      </trkpt>
      <trkpt lat="45.9242" lon="4.73575">
        <ele>174</ele>
        <time>2016-08-23T12:46:41Z</time>
      </trkpt>
      <trkpt lat="45.92425" lon="4.73572">
        <ele>174</ele>
        <time>2016-08-23T12:46:42Z</time>
      </trkpt>
      <trkpt lat="45.9243" lon="4.7357">
        <ele>174</ele>
        <time>2016-08-23T12:46:43Z</time>
      </trkpt>
      <trkpt lat="45.92435" lon="4.73567">
        <ele>174</ele>
        <time>2016-08-23T12:46:44Z</time>
      </trkpt>
      <trkpt lat="45.92439" lon="4.73564">
        <ele>174</ele>
        <time>2016-08-23T12:46:45Z</time>
      </trkpt>
      <trkpt lat="45.92444" lon="4.73562">
        <ele>174</ele>
        <time>2016-08-23T12:46:46Z</time>
      </trkpt>
      <trkpt lat="45.92448" lon="4.73559">
        <ele>174</ele>
        <time>2016-08-23T12:46:47Z</time>
      </trkpt>
      <trkpt lat="45.92452" lon="4.73557">
        <ele>174</ele>
        <time>2016-08-23T12:46:48Z</time>
      </trkpt>
      <trkpt lat="45.92457" lon="4.73554">
        <ele>174</ele>
        <time>2016-08-23T12:46:49Z</time>
      </trkpt>
      <trkpt lat="45.92465" lon="4.73556">
        <ele>173</ele>
        <time>2016-08-23T12:46:51Z</time>
      </trkpt>
      <trkpt lat="45.92468" lon="4.7356">
        <ele>173</ele>
        <time>2016-08-23T12:46:52Z</time>
      </trkpt>
      <trkpt lat="45.92469" lon="4.73571">
        <ele>173</ele>
        <time>2016-08-23T12:46:54Z</time>
      </trkpt>
      <trkpt lat="45.92468" lon="4.73579">
        <ele>173</ele>
        <time>2016-08-23T12:46:55Z</time>
      </trkpt>
      <trkpt lat="45.92468" lon="4.73586">
        <ele>174</ele>
        <time>2016-08-23T12:46:56Z</time>
      </trkpt>
      <trkpt lat="45.92468" lon="4.73593">
        <ele>174</ele>
        <time>2016-08-23T12:46:57Z</time>
      </trkpt>
      <trkpt lat="45.92468" lon="4.736">
        <ele>174</ele>
        <time>2016-08-23T12:46:58Z</time>
      </trkpt>
      <trkpt lat="45.92469" lon="4.73608">
        <ele>174</ele>
        <time>2016-08-23T12:46:59Z</time>
      </trkpt>
      <trkpt lat="45.92469" lon="4.73615">
        <ele>174</ele>
        <time>2016-08-23T12:47:00Z</time>
      </trkpt>
      <trkpt lat="45.92469" lon="4.73623">
        <ele>174</ele>
        <time>2016-08-23T12:47:01Z</time>
      </trkpt>
      <trkpt lat="45.92469" lon="4.7363">
        <ele>174</ele>
        <time>2016-08-23T12:47:02Z</time>
      </trkpt>
      <trkpt lat="45.92469" lon="4.73637">
        <ele>174</ele>
        <time>2016-08-23T12:47:03Z</time>
      </trkpt>
      <trkpt lat="45.92468" lon="4.73649">
        <ele>174</ele>
        <time>2016-08-23T12:47:05Z</time>
      </trkpt>
      <trkpt lat="45.92469" lon="4.73654">
        <ele>174</ele>
        <time>2016-08-23T12:47:06Z</time>
      </trkpt>
      <trkpt lat="45.92467" lon="4.73666">
        <ele>174</ele>
        <time>2016-08-23T12:47:08Z</time>
      </trkpt>
      <trkpt lat="45.92467" lon="4.73671">
        <ele>174</ele>
        <time>2016-08-23T12:47:09Z</time>
      </trkpt>
      <trkpt lat="45.92465" lon="4.73682">
        <ele>174</ele>
        <time>2016-08-23T12:47:11Z</time>
      </trkpt>
      <trkpt lat="45.92464" lon="4.73687">
        <ele>174</ele>
        <time>2016-08-23T12:47:12Z</time>
      </trkpt>
      <trkpt lat="45.92462" lon="4.73697">
        <ele>174</ele>
        <time>2016-08-23T12:47:14Z</time>
      </trkpt>
      <trkpt lat="45.92462" lon="4.73702">
        <ele>174</ele>
        <time>2016-08-23T12:47:15Z</time>
      </trkpt>
      <trkpt lat="45.9246" lon="4.73705">
        <ele>174</ele>
        <time>2016-08-23T12:47:16Z</time>
      </trkpt>
      <trkpt lat="45.9246" lon="4.73705">
        <ele>174</ele>
        <time>2016-08-23T12:47:17Z</time>
      </trkpt>
      <trkpt lat="45.92459" lon="4.73708">
        <ele>174</ele>
        <time>2016-08-23T12:47:53.949Z</time>
      </trkpt>
    </trkseg>
  </trk>
</gpx>